<?xml version='1.0' encoding='UTF-8'?><gpx version="1.1" creator="JPX - https://github.com/jenetics/jpx" xmlns="http://www.topografix.com/GPX/1/1"><trk><trkseg><trkpt lat="45.39887722133132" lon="9.93260840298883"><ele>83.0</ele><time>2026-05-03T05:45:16Z</time></trkpt><trkpt lat="45.398945994470026" lon="9.932621620999363"><ele>83.0</ele><time>2026-05-03T05:45:17.999Z</time></trkpt><trkpt lat="45.39905607887778" lon="9.932641444717838"><ele>83.0</ele><time>2026-05-03T05:45:19.999Z</time></trkpt><trkpt lat="45.399169607863385" lon="9.932686640043801"><ele>83.0</ele><time>2026-05-03T05:45:21.999Z</time></trkpt><trkpt lat="45.399273747623056" lon="9.932688822515042"><ele>83.0</ele><time>2026-05-03T05:45:23.999Z</time></trkpt><trkpt lat="45.39933756499113" lon="9.932720338822104"><ele>83.0</ele><time>2026-05-03T05:45:24.999Z</time></trkpt><trkpt lat="45.39945949737711" lon="9.932737365444602"><ele>83.0</ele><time>2026-05-03T05:45:26.999Z</time></trkpt><trkpt lat="45.39958492103291" lon="9.932758391216954"><ele>83.0</ele><time>2026-05-03T05:45:28.999Z</time></trkpt><trkpt lat="45.3996496008086" lon="9.932765210738644"><ele>83.0</ele><time>2026-05-03T05:45:29.999Z</time></trkpt><trkpt lat="45.39977288702357" lon="9.932786288669634"><ele>83.0</ele><time>2026-05-03T05:45:31.999Z</time></trkpt><trkpt lat="45.39983833987041" lon="9.932811915107035"><ele>83.2</ele><time>2026-05-03T05:45:32.999Z</time></trkpt><trkpt lat="45.39995421808714" lon="9.932822725642517"><ele>83.4</ele><time>2026-05-03T05:45:34.999Z</time></trkpt><trkpt lat="45.400078165714454" lon="9.93285657151814"><ele>83.60000000000001</ele><time>2026-05-03T05:45:36.999Z</time></trkpt><trkpt lat="45.400143655506874" lon="9.932845674722445"><ele>83.80000000000001</ele><time>2026-05-03T05:45:37.999Z</time></trkpt><trkpt lat="45.400222040609115" lon="9.932859892257664"><ele>84.0</ele><time>2026-05-03T05:45:38.999Z</time></trkpt><trkpt lat="45.40034142783112" lon="9.93290053420056"><ele>84.0</ele><time>2026-05-03T05:45:40.999Z</time></trkpt><trkpt lat="45.400415297345795" lon="9.932912844850884"><ele>84.0</ele><time>2026-05-03T05:45:41.999Z</time></trkpt><trkpt lat="45.400516538425386" lon="9.932923045740097"><ele>84.0</ele><time>2026-05-03T05:45:43.999Z</time></trkpt><trkpt lat="45.40062482375878" lon="9.932994231671518"><ele>84.0</ele><time>2026-05-03T05:45:45.999Z</time></trkpt><trkpt lat="45.400741460688934" lon="9.933030442709864"><ele>84.0</ele><time>2026-05-03T05:45:47.999Z</time></trkpt><trkpt lat="45.40085191339344" lon="9.933065486760208"><ele>84.0</ele><time>2026-05-03T05:45:49.999Z</time></trkpt><trkpt lat="45.400970740094" lon="9.933101707859137"><ele>84.0</ele><time>2026-05-03T05:45:51.999Z</time></trkpt><trkpt lat="45.40105931245762" lon="9.93312964237702"><ele>84.0</ele><time>2026-05-03T05:45:53.999Z</time></trkpt><trkpt lat="45.40110154716337" lon="9.933207646019156"><ele>84.0</ele><time>2026-05-03T05:45:55.999Z</time></trkpt><trkpt lat="45.40122446188261" lon="9.933599936381482"><ele>84.14285714285714</ele><time>2026-05-03T05:46:06.999Z</time></trkpt><trkpt lat="45.401202448960454" lon="9.933686113639702"><ele>84.28571428571428</ele><time>2026-05-03T05:46:08.999Z</time></trkpt><trkpt lat="45.4011962471116" lon="9.933800171143902"><ele>84.42857142857143</ele><time>2026-05-03T05:46:12.999Z</time></trkpt><trkpt lat="45.401173252662645" lon="9.933890773917799"><ele>84.57142857142857</ele><time>2026-05-03T05:46:22.998Z</time></trkpt><trkpt lat="45.40117567179838" lon="9.93398747864241"><ele>84.71428571428571</ele><time>2026-05-03T05:46:27.998Z</time></trkpt><trkpt lat="45.40122106569646" lon="9.93406691143172"><ele>84.85714285714286</ele><time>2026-05-03T05:46:41.998Z</time></trkpt><trkpt lat="45.40118878736715" lon="9.933976809751101"><ele>85.0</ele><time>2026-05-03T05:47:35.997Z</time></trkpt><trkpt lat="45.40122618774702" lon="9.933888845457918"><ele>85.0</ele><time>2026-05-03T05:47:43.997Z</time></trkpt><trkpt lat="45.40124651948998" lon="9.933791158540917"><ele>85.0</ele><time>2026-05-03T05:47:48.997Z</time></trkpt><trkpt lat="45.40130544124539" lon="9.93375439776626"><ele>85.0</ele><time>2026-05-03T05:47:54.997Z</time></trkpt><trkpt lat="45.40129885207887" lon="9.933662928312955"><ele>85.0</ele><time>2026-05-03T05:52:13.993Z</time></trkpt><trkpt lat="45.40126437284877" lon="9.933581712666099"><ele>85.0</ele><time>2026-05-03T05:52:16.993Z</time></trkpt><trkpt lat="45.401260444147816" lon="9.933443184319808"><ele>85.0</ele><time>2026-05-03T05:52:20.993Z</time></trkpt><trkpt lat="45.401193634711355" lon="9.933380657095167"><ele>85.0</ele><time>2026-05-03T05:52:23.993Z</time></trkpt><trkpt lat="45.40111857871129" lon="9.93333883373958"><ele>84.83333333333333</ele><time>2026-05-03T05:52:26.993Z</time></trkpt><trkpt lat="45.40111484777652" lon="9.93323958401219"><ele>84.66666666666666</ele><time>2026-05-03T05:52:30.993Z</time></trkpt><trkpt lat="45.40104820769465" lon="9.93322617462909"><ele>84.5</ele><time>2026-05-03T05:52:32.993Z</time></trkpt><trkpt lat="45.400969761076354" lon="9.93321396903551"><ele>84.33333333333333</ele><time>2026-05-03T05:52:34.993Z</time></trkpt><trkpt lat="45.40088575739875" lon="9.93319360615554"><ele>84.16666666666667</ele><time>2026-05-03T05:52:36.993Z</time></trkpt><trkpt lat="45.40081220271705" lon="9.933153233352387"><ele>84.0</ele><time>2026-05-03T05:52:38.993Z</time></trkpt><trkpt lat="45.40074312942092" lon="9.933123624650845"><ele>84.0</ele><time>2026-05-03T05:52:40.993Z</time></trkpt><trkpt lat="45.400680834613986" lon="9.93311066879437"><ele>84.0</ele><time>2026-05-03T05:52:42.992Z</time></trkpt><trkpt lat="45.400636145479524" lon="9.933029267306072"><ele>84.0</ele><time>2026-05-03T05:52:45.992Z</time></trkpt><trkpt lat="45.400596723500875" lon="9.93289533835493"><ele>84.0</ele><time>2026-05-03T05:52:48.992Z</time></trkpt><trkpt lat="45.4005064184349" lon="9.932850584574684"><ele>84.0</ele><time>2026-05-03T05:52:50.992Z</time></trkpt><trkpt lat="45.40038908125899" lon="9.932839056772616"><ele>84.0</ele><time>2026-05-03T05:52:52.992Z</time></trkpt><trkpt lat="45.40029251184947" lon="9.932811663428994"><ele>84.0</ele><time>2026-05-03T05:52:54.992Z</time></trkpt><trkpt lat="45.40017437749966" lon="9.932797950870999"><ele>84.0</ele><time>2026-05-03T05:52:56.992Z</time></trkpt><trkpt lat="45.400067424941824" lon="9.932780657306347"><ele>84.0</ele><time>2026-05-03T05:52:58.992Z</time></trkpt><trkpt lat="45.39994729919952" lon="9.932752518357233"><ele>84.0</ele><time>2026-05-03T05:53:00.992Z</time></trkpt><trkpt lat="45.399841078796335" lon="9.932733119572418"><ele>84.0</ele><time>2026-05-03T05:53:02.992Z</time></trkpt><trkpt lat="45.399776148697164" lon="9.932723211642138"><ele>84.0</ele><time>2026-05-03T05:53:03.992Z</time></trkpt><trkpt lat="45.399660758858325" lon="9.932708927527184"><ele>84.0</ele><time>2026-05-03T05:53:05.992Z</time></trkpt><trkpt lat="45.39954450100722" lon="9.932666040920408"><ele>84.0</ele><time>2026-05-03T05:53:07.992Z</time></trkpt><trkpt lat="45.39943215597054" lon="9.932667748692277"><ele>84.0</ele><time>2026-05-03T05:53:09.992Z</time></trkpt><trkpt lat="45.39932731640878" lon="9.932643873594843"><ele>83.80000000000001</ele><time>2026-05-03T05:53:11.992Z</time></trkpt><trkpt lat="45.39921563164481" lon="9.932626575459905"><ele>83.60000000000001</ele><time>2026-05-03T05:53:13.992Z</time></trkpt><trkpt lat="45.39910823197798" lon="9.932601279704594"><ele>83.4</ele><time>2026-05-03T05:53:15.992Z</time></trkpt><trkpt lat="45.399002175079694" lon="9.932582206250288"><ele>83.2</ele><time>2026-05-03T05:53:17.992Z</time></trkpt><trkpt lat="45.39891565930206" lon="9.932570014528679"><ele>83.0</ele><time>2026-05-03T05:53:19.992Z</time></trkpt><trkpt lat="45.39882848963844" lon="9.932560083701308"><ele>83.0</ele><time>2026-05-03T05:53:21.992Z</time></trkpt><trkpt lat="45.39874562054677" lon="9.93254402669046"><ele>83.0</ele><time>2026-05-03T05:53:23.992Z</time></trkpt><trkpt lat="45.39865813681903" lon="9.932524452034915"><ele>83.0</ele><time>2026-05-03T05:53:25.992Z</time></trkpt><trkpt lat="45.39857352127098" lon="9.932501000542219"><ele>83.0</ele><time>2026-05-03T05:53:27.992Z</time></trkpt><trkpt lat="45.39847129996713" lon="9.93248637260101"><ele>83.0</ele><time>2026-05-03T05:53:29.992Z</time></trkpt><trkpt lat="45.39838211420498" lon="9.93247262908126"><ele>83.0</ele><time>2026-05-03T05:53:31.992Z</time></trkpt><trkpt lat="45.39831412589335" lon="9.932442330878816"><ele>83.0</ele><time>2026-05-03T05:53:33.992Z</time></trkpt><trkpt lat="45.398237813521604" lon="9.932406457043196"><ele>83.0</ele><time>2026-05-03T05:53:36.992Z</time></trkpt><trkpt lat="45.39820310163621" lon="9.93230452520897"><ele>83.0</ele><time>2026-05-03T05:53:38.992Z</time></trkpt><trkpt lat="45.39815439279642" lon="9.93216724912401"><ele>83.0</ele><time>2026-05-03T05:53:40.992Z</time></trkpt><trkpt lat="45.39813436761505" lon="9.932026670659848"><ele>83.0</ele><time>2026-05-03T05:53:42.992Z</time></trkpt><trkpt lat="45.39812185331206" lon="9.931878534966625"><ele>83.2</ele><time>2026-05-03T05:53:44.991Z</time></trkpt><trkpt lat="45.39809299646503" lon="9.931715182135086"><ele>83.4</ele><time>2026-05-03T05:53:46.991Z</time></trkpt><trkpt lat="45.39806714602612" lon="9.931550684283039"><ele>83.60000000000001</ele><time>2026-05-03T05:53:48.991Z</time></trkpt><trkpt lat="45.39803439071715" lon="9.931413344747801"><ele>83.80000000000001</ele><time>2026-05-03T05:53:50.991Z</time></trkpt><trkpt lat="45.39801494034012" lon="9.931260718436924"><ele>84.0</ele><time>2026-05-03T05:53:52.991Z</time></trkpt><trkpt lat="45.39803420695079" lon="9.931115131037204"><ele>84.0</ele><time>2026-05-03T05:53:54.991Z</time></trkpt><trkpt lat="45.39804448379453" lon="9.930992659302168"><ele>84.0</ele><time>2026-05-03T05:53:56.991Z</time></trkpt><trkpt lat="45.39793471395485" lon="9.931015693626629"><ele>84.0</ele><time>2026-05-03T05:53:59.991Z</time></trkpt><trkpt lat="45.39783952945165" lon="9.931028394095804"><ele>84.0</ele><time>2026-05-03T05:54:01.991Z</time></trkpt><trkpt lat="45.39775519286128" lon="9.931013598957156"><ele>84.0</ele><time>2026-05-03T05:54:03.991Z</time></trkpt><trkpt lat="45.39766010421597" lon="9.93099691761558"><ele>83.75</ele><time>2026-05-03T05:54:05.991Z</time></trkpt><trkpt lat="45.39757836591783" lon="9.931078120254629"><ele>83.5</ele><time>2026-05-03T05:54:07.991Z</time></trkpt><trkpt lat="45.39754033775693" lon="9.931151735416579"><ele>83.25</ele><time>2026-05-03T05:54:09.991Z</time></trkpt><trkpt lat="45.397537312173206" lon="9.930975376689226"><ele>83.0</ele><time>2026-05-03T05:54:10.991Z</time></trkpt><trkpt lat="45.39760777617068" lon="9.931187012231739"><ele>83.0</ele><time>2026-05-03T05:54:18.991Z</time></trkpt><trkpt lat="45.39775715776581" lon="9.931144957228746"><ele>83.0</ele><time>2026-05-03T05:54:21.991Z</time></trkpt><trkpt lat="45.39785044219302" lon="9.931151590346381"><ele>83.0</ele><time>2026-05-03T05:54:23.991Z</time></trkpt><trkpt lat="45.39794542089303" lon="9.931124004499361"><ele>83.0</ele><time>2026-05-03T05:54:25.991Z</time></trkpt><trkpt lat="45.39800514009607" lon="9.931008296467407"><ele>83.0</ele><time>2026-05-03T05:54:27.991Z</time></trkpt><trkpt lat="45.398055741853796" lon="9.930857784850005"><ele>83.16666666666667</ele><time>2026-05-03T05:54:29.991Z</time></trkpt><trkpt lat="45.398069839831926" lon="9.930766337161417"><ele>83.33333333333334</ele><time>2026-05-03T05:54:30.991Z</time></trkpt><trkpt lat="45.39807736758111" lon="9.930664587408074"><ele>83.5</ele><time>2026-05-03T05:54:31.991Z</time></trkpt><trkpt lat="45.39808629858709" lon="9.93057422882424"><ele>83.66666666666667</ele><time>2026-05-03T05:54:32.991Z</time></trkpt><trkpt lat="45.39809944758222" lon="9.930391558570346"><ele>83.83333333333333</ele><time>2026-05-03T05:54:34.991Z</time></trkpt><trkpt lat="45.39811077111397" lon="9.930290764737801"><ele>84.0</ele><time>2026-05-03T05:54:35.991Z</time></trkpt><trkpt lat="45.39812271718204" lon="9.930179009541078"><ele>84.0</ele><time>2026-05-03T05:54:36.991Z</time></trkpt><trkpt lat="45.39812110604213" lon="9.930086584843586"><ele>84.0</ele><time>2026-05-03T05:54:37.991Z</time></trkpt><trkpt lat="45.39812508539521" lon="9.92998684671419"><ele>84.0</ele><time>2026-05-03T05:54:38.991Z</time></trkpt><trkpt lat="45.398130650583795" lon="9.929893126798014"><ele>84.0</ele><time>2026-05-03T05:54:39.991Z</time></trkpt><trkpt lat="45.39814205630359" lon="9.92979940573003"><ele>84.0</ele><time>2026-05-03T05:54:40.991Z</time></trkpt><trkpt lat="45.398156717849076" lon="9.9297034761797"><ele>84.0</ele><time>2026-05-03T05:54:41.991Z</time></trkpt><trkpt lat="45.398158634885846" lon="9.92960957565158"><ele>84.0</ele><time>2026-05-03T05:54:42.991Z</time></trkpt><trkpt lat="45.39817019975301" lon="9.929508129986306"><ele>84.0</ele><time>2026-05-03T05:54:43.991Z</time></trkpt><trkpt lat="45.39818641621908" lon="9.929410629074034"><ele>84.0</ele><time>2026-05-03T05:54:44.991Z</time></trkpt><trkpt lat="45.398198420935174" lon="9.9293136496524"><ele>84.0</ele><time>2026-05-03T05:54:45.991Z</time></trkpt><trkpt lat="45.39822152733548" lon="9.929138793277023"><ele>84.0</ele><time>2026-05-03T05:54:47.99Z</time></trkpt><trkpt lat="45.39826328760692" lon="9.929005176799157"><ele>84.0</ele><time>2026-05-03T05:54:49.99Z</time></trkpt><trkpt lat="45.39827023551117" lon="9.928858622439567"><ele>84.0</ele><time>2026-05-03T05:54:51.99Z</time></trkpt><trkpt lat="45.39819569114746" lon="9.928725014168952"><ele>84.0</ele><time>2026-05-03T05:54:53.99Z</time></trkpt><trkpt lat="45.398142566684115" lon="9.928675352595532"><ele>84.0</ele><time>2026-05-03T05:54:54.99Z</time></trkpt><trkpt lat="45.39809978211341" lon="9.928607242680384"><ele>84.0</ele><time>2026-05-03T05:54:55.99Z</time></trkpt><trkpt lat="45.39805510927715" lon="9.928532938482101"><ele>84.0</ele><time>2026-05-03T05:54:56.99Z</time></trkpt><trkpt lat="45.398019090847946" lon="9.928441879558227"><ele>84.0</ele><time>2026-05-03T05:54:57.99Z</time></trkpt><trkpt lat="45.39799371588153" lon="9.92834901055903"><ele>84.0</ele><time>2026-05-03T05:54:58.99Z</time></trkpt><trkpt lat="45.39797592316081" lon="9.92826080806134"><ele>84.0</ele><time>2026-05-03T05:54:59.99Z</time></trkpt><trkpt lat="45.39795109562058" lon="9.928167344278824"><ele>84.0</ele><time>2026-05-03T05:55:00.99Z</time></trkpt><trkpt lat="45.39792675147466" lon="9.9280795944639"><ele>84.0</ele><time>2026-05-03T05:55:01.99Z</time></trkpt><trkpt lat="45.3978893962335" lon="9.927921248257144"><ele>84.0</ele><time>2026-05-03T05:55:03.99Z</time></trkpt><trkpt lat="45.39785537222018" lon="9.927824346767633"><ele>84.0</ele><time>2026-05-03T05:55:04.99Z</time></trkpt><trkpt lat="45.397818853744404" lon="9.927740684271358"><ele>84.0</ele><time>2026-05-03T05:55:05.99Z</time></trkpt><trkpt lat="45.39778905769208" lon="9.927651808504597"><ele>84.0</ele><time>2026-05-03T05:55:06.99Z</time></trkpt><trkpt lat="45.39775543696172" lon="9.927495087781601"><ele>84.0</ele><time>2026-05-03T05:55:08.99Z</time></trkpt><trkpt lat="45.397717108367374" lon="9.927349078537057"><ele>84.0</ele><time>2026-05-03T05:55:10.99Z</time></trkpt><trkpt lat="45.39767305274564" lon="9.927184089022425"><ele>84.0</ele><time>2026-05-03T05:55:12.99Z</time></trkpt><trkpt lat="45.397627085691894" lon="9.927015874279881"><ele>84.25</ele><time>2026-05-03T05:55:14.99Z</time></trkpt><trkpt lat="45.397578269373795" lon="9.926848924564863"><ele>84.5</ele><time>2026-05-03T05:55:16.99Z</time></trkpt><trkpt lat="45.397534002137924" lon="9.926689880115681"><ele>84.75</ele><time>2026-05-03T05:55:18.99Z</time></trkpt><trkpt lat="45.39749116677188" lon="9.926537287171168"><ele>85.0</ele><time>2026-05-03T05:55:20.99Z</time></trkpt><trkpt lat="45.39745156061014" lon="9.926386026830167"><ele>85.0</ele><time>2026-05-03T05:55:22.99Z</time></trkpt><trkpt lat="45.3974088380909" lon="9.926227743989871"><ele>85.0</ele><time>2026-05-03T05:55:24.99Z</time></trkpt><trkpt lat="45.39736280890421" lon="9.926066439462355"><ele>85.0</ele><time>2026-05-03T05:55:26.99Z</time></trkpt><trkpt lat="45.39734624651036" lon="9.925978323453547"><ele>85.0</ele><time>2026-05-03T05:55:27.99Z</time></trkpt><trkpt lat="45.397319201136106" lon="9.925891041528153"><ele>85.0</ele><time>2026-05-03T05:55:28.99Z</time></trkpt><trkpt lat="45.397290480193625" lon="9.925798484260156"><ele>85.0</ele><time>2026-05-03T05:55:29.99Z</time></trkpt><trkpt lat="45.397262298982426" lon="9.925699463446769"><ele>85.14285714285715</ele><time>2026-05-03T05:55:30.99Z</time></trkpt><trkpt lat="45.397239509162674" lon="9.92561230946876"><ele>85.28571428571428</ele><time>2026-05-03T05:55:31.99Z</time></trkpt><trkpt lat="45.39721538274612" lon="9.925517235236718"><ele>85.42857142857143</ele><time>2026-05-03T05:55:32.99Z</time></trkpt><trkpt lat="45.397184541300156" lon="9.925425595246812"><ele>85.57142857142858</ele><time>2026-05-03T05:55:33.99Z</time></trkpt><trkpt lat="45.39716121170937" lon="9.925335346403356"><ele>85.71428571428572</ele><time>2026-05-03T05:55:34.99Z</time></trkpt><trkpt lat="45.397146547690745" lon="9.925242115949779"><ele>85.85714285714286</ele><time>2026-05-03T05:55:35.99Z</time></trkpt><trkpt lat="45.397145406954806" lon="9.925137332924407"><ele>86.0</ele><time>2026-05-03T05:55:36.99Z</time></trkpt><trkpt lat="45.397159807514264" lon="9.92504501809308"><ele>85.6</ele><time>2026-05-03T05:55:37.99Z</time></trkpt><trkpt lat="45.39715967290884" lon="9.924871267550957"><ele>85.19999999999999</ele><time>2026-05-03T05:55:39.99Z</time></trkpt><trkpt lat="45.39713809642251" lon="9.924699576171877"><ele>84.80000000000001</ele><time>2026-05-03T05:55:41.99Z</time></trkpt><trkpt lat="45.39710304565493" lon="9.92453989425167"><ele>84.4</ele><time>2026-05-03T05:55:43.99Z</time></trkpt><trkpt lat="45.397085777038825" lon="9.92445126315411"><ele>84.0</ele><time>2026-05-03T05:55:44.99Z</time></trkpt><trkpt lat="45.397058968614466" lon="9.924275575036747"><ele>83.83333333333333</ele><time>2026-05-03T05:55:46.99Z</time></trkpt><trkpt lat="45.39703416999226" lon="9.924091207635476"><ele>83.66666666666667</ele><time>2026-05-03T05:55:48.99Z</time></trkpt><trkpt lat="45.39701581881969" lon="9.924001843939584"><ele>83.5</ele><time>2026-05-03T05:55:49.99Z</time></trkpt><trkpt lat="45.39699787422486" lon="9.923913605820703"><ele>83.33333333333334</ele><time>2026-05-03T05:55:50.99Z</time></trkpt><trkpt lat="45.39697748690293" lon="9.923817943320143"><ele>83.16666666666667</ele><time>2026-05-03T05:55:51.989Z</time></trkpt><trkpt lat="45.39695581323256" lon="9.923719433541073"><ele>83.0</ele><time>2026-05-03T05:55:52.989Z</time></trkpt><trkpt lat="45.39693567334275" lon="9.923618114625835"><ele>83.0</ele><time>2026-05-03T05:55:53.989Z</time></trkpt><trkpt lat="45.39691246550834" lon="9.92351713931127"><ele>83.0</ele><time>2026-05-03T05:55:54.989Z</time></trkpt><trkpt lat="45.396897683308566" lon="9.923423427861794"><ele>83.0</ele><time>2026-05-03T05:55:55.989Z</time></trkpt><trkpt lat="45.39688430765805" lon="9.923318895417413"><ele>83.0</ele><time>2026-05-03T05:55:56.989Z</time></trkpt><trkpt lat="45.39687091024416" lon="9.923223743320671"><ele>83.0</ele><time>2026-05-03T05:55:57.989Z</time></trkpt><trkpt lat="45.39686260682907" lon="9.92312139991741"><ele>83.0</ele><time>2026-05-03T05:55:58.989Z</time></trkpt><trkpt lat="45.39686328818486" lon="9.9230305419132"><ele>83.0</ele><time>2026-05-03T05:55:59.989Z</time></trkpt><trkpt lat="45.396875989652756" lon="9.922941799863034"><ele>83.0</ele><time>2026-05-03T05:56:00.989Z</time></trkpt><trkpt lat="45.39690671621288" lon="9.922772889187828"><ele>83.0</ele><time>2026-05-03T05:56:02.989Z</time></trkpt><trkpt lat="45.39694867936267" lon="9.922591052265368"><ele>83.0</ele><time>2026-05-03T05:56:04.989Z</time></trkpt><trkpt lat="45.39695936539474" lon="9.922492263413186"><ele>83.0</ele><time>2026-05-03T05:56:05.989Z</time></trkpt><trkpt lat="45.396980690795544" lon="9.922406260870469"><ele>83.0</ele><time>2026-05-03T05:56:06.989Z</time></trkpt><trkpt lat="45.39704051243508" lon="9.922236660110523"><ele>83.0</ele><time>2026-05-03T05:56:08.989Z</time></trkpt><trkpt lat="45.39705914509336" lon="9.92214695160922"><ele>83.0</ele><time>2026-05-03T05:56:09.989Z</time></trkpt><trkpt lat="45.39708746486081" lon="9.922052962637393"><ele>83.0</ele><time>2026-05-03T05:56:10.989Z</time></trkpt><trkpt lat="45.39711517561683" lon="9.921965594140273"><ele>83.0</ele><time>2026-05-03T05:56:11.989Z</time></trkpt><trkpt lat="45.397138701644614" lon="9.921880492554562"><ele>83.0</ele><time>2026-05-03T05:56:12.989Z</time></trkpt><trkpt lat="45.39715720920811" lon="9.92178342436184"><ele>83.0</ele><time>2026-05-03T05:56:13.989Z</time></trkpt><trkpt lat="45.39717655538595" lon="9.921697420218853"><ele>83.0</ele><time>2026-05-03T05:56:14.989Z</time></trkpt><trkpt lat="45.3971952084379" lon="9.921611705387761"><ele>82.60000000000001</ele><time>2026-05-03T05:56:15.989Z</time></trkpt><trkpt lat="45.39723899726436" lon="9.921429902273172"><ele>82.2</ele><time>2026-05-03T05:56:17.989Z</time></trkpt><trkpt lat="45.397266911258264" lon="9.921340253900782"><ele>81.8</ele><time>2026-05-03T05:56:18.989Z</time></trkpt><trkpt lat="45.397316558837886" lon="9.921172260978128"><ele>81.4</ele><time>2026-05-03T05:56:20.989Z</time></trkpt><trkpt lat="45.39733357865419" lon="9.921083181946699"><ele>81.0</ele><time>2026-05-03T05:56:21.989Z</time></trkpt><trkpt lat="45.39736247331805" lon="9.920985096132407"><ele>81.0</ele><time>2026-05-03T05:56:22.989Z</time></trkpt><trkpt lat="45.39738984765155" lon="9.920903549809452"><ele>81.0</ele><time>2026-05-03T05:56:23.989Z</time></trkpt><trkpt lat="45.39744290227707" lon="9.920726701943293"><ele>81.0</ele><time>2026-05-03T05:56:25.989Z</time></trkpt><trkpt lat="45.397480457909786" lon="9.92057095828912"><ele>81.0</ele><time>2026-05-03T05:56:27.989Z</time></trkpt><trkpt lat="45.39750479666959" lon="9.920484083646771"><ele>81.0</ele><time>2026-05-03T05:56:28.989Z</time></trkpt><trkpt lat="45.39754351444533" lon="9.92032556322618"><ele>81.0</ele><time>2026-05-03T05:56:30.989Z</time></trkpt><trkpt lat="45.39757497250949" lon="9.920239985482079"><ele>81.0</ele><time>2026-05-03T05:56:31.989Z</time></trkpt><trkpt lat="45.397610617914474" lon="9.920073302889785"><ele>81.0</ele><time>2026-05-03T05:56:33.989Z</time></trkpt><trkpt lat="45.39762395684389" lon="9.919982058689582"><ele>81.0</ele><time>2026-05-03T05:56:34.989Z</time></trkpt><trkpt lat="45.39764251739732" lon="9.919896321559643"><ele>81.0</ele><time>2026-05-03T05:56:35.989Z</time></trkpt><trkpt lat="45.39767648663336" lon="9.919745203580595"><ele>81.0</ele><time>2026-05-03T05:56:37.989Z</time></trkpt><trkpt lat="45.39769619189868" lon="9.919590660440678"><ele>80.6</ele><time>2026-05-03T05:56:39.989Z</time></trkpt><trkpt lat="45.39765196094193" lon="9.919461494987752"><ele>80.19999999999999</ele><time>2026-05-03T05:56:41.989Z</time></trkpt><trkpt lat="45.39757644536539" lon="9.919374512423794"><ele>79.80000000000001</ele><time>2026-05-03T05:56:43.989Z</time></trkpt><trkpt lat="45.39747195006397" lon="9.919319569684086"><ele>79.4</ele><time>2026-05-03T05:56:45.989Z</time></trkpt><trkpt lat="45.39740445689229" lon="9.91928875612149"><ele>79.0</ele><time>2026-05-03T05:56:46.989Z</time></trkpt><trkpt lat="45.397291443646466" lon="9.91921975113643"><ele>79.0</ele><time>2026-05-03T05:56:48.989Z</time></trkpt><trkpt lat="45.39718582925503" lon="9.919145218245385"><ele>79.0</ele><time>2026-05-03T05:56:50.989Z</time></trkpt><trkpt lat="45.39711750203362" lon="9.919101743908115"><ele>79.0</ele><time>2026-05-03T05:56:51.989Z</time></trkpt><trkpt lat="45.39705267423237" lon="9.919059589429905"><ele>79.0</ele><time>2026-05-03T05:56:52.989Z</time></trkpt><trkpt lat="45.39699266374664" lon="9.91901522484084"><ele>79.0</ele><time>2026-05-03T05:56:53.989Z</time></trkpt><trkpt lat="45.396931472926134" lon="9.918966917780738"><ele>79.0</ele><time>2026-05-03T05:56:54.988Z</time></trkpt><trkpt lat="45.396872129792285" lon="9.91893164366385"><ele>79.0</ele><time>2026-05-03T05:56:55.988Z</time></trkpt><trkpt lat="45.39676177208105" lon="9.918846136352334"><ele>79.0</ele><time>2026-05-03T05:56:57.988Z</time></trkpt><trkpt lat="45.39670235432462" lon="9.918805982349193"><ele>79.0</ele><time>2026-05-03T05:56:58.988Z</time></trkpt><trkpt lat="45.39663040318267" lon="9.91875969419649"><ele>79.0</ele><time>2026-05-03T05:56:59.988Z</time></trkpt><trkpt lat="45.39652512217802" lon="9.918683921938875"><ele>79.0</ele><time>2026-05-03T05:57:01.988Z</time></trkpt><trkpt lat="45.39641305482491" lon="9.918633974443718"><ele>79.0</ele><time>2026-05-03T05:57:03.988Z</time></trkpt><trkpt lat="45.396357343386015" lon="9.918591442575579"><ele>79.0</ele><time>2026-05-03T05:57:04.988Z</time></trkpt><trkpt lat="45.39629709050737" lon="9.91855012165062"><ele>79.0</ele><time>2026-05-03T05:57:05.988Z</time></trkpt><trkpt lat="45.39618376027709" lon="9.918471394513588"><ele>79.0</ele><time>2026-05-03T05:57:07.988Z</time></trkpt><trkpt lat="45.39606567049963" lon="9.91839542393285"><ele>79.0</ele><time>2026-05-03T05:57:09.988Z</time></trkpt><trkpt lat="45.39595478381551" lon="9.918328847472598"><ele>79.0</ele><time>2026-05-03T05:57:11.988Z</time></trkpt><trkpt lat="45.39583711555836" lon="9.918257730882853"><ele>79.0</ele><time>2026-05-03T05:57:13.988Z</time></trkpt><trkpt lat="45.395717775054926" lon="9.918179825434283"><ele>79.0</ele><time>2026-05-03T05:57:15.988Z</time></trkpt><trkpt lat="45.395659783648625" lon="9.91813635746924"><ele>79.0</ele><time>2026-05-03T05:57:16.988Z</time></trkpt><trkpt lat="45.395557432490115" lon="9.91805616636834"><ele>79.0</ele><time>2026-05-03T05:57:18.988Z</time></trkpt><trkpt lat="45.39549386769722" lon="9.918007928701922"><ele>79.0</ele><time>2026-05-03T05:57:19.988Z</time></trkpt><trkpt lat="45.39544295722344" lon="9.917950768065634"><ele>79.0</ele><time>2026-05-03T05:57:20.988Z</time></trkpt><trkpt lat="45.39535781521624" lon="9.917836651162839"><ele>79.0</ele><time>2026-05-03T05:57:22.988Z</time></trkpt><trkpt lat="45.395306635885454" lon="9.917776096204593"><ele>79.0</ele><time>2026-05-03T05:57:23.988Z</time></trkpt><trkpt lat="45.39522000738323" lon="9.91764751824428"><ele>79.0</ele><time>2026-05-03T05:57:25.988Z</time></trkpt><trkpt lat="45.39513321485519" lon="9.917521260692482"><ele>79.0</ele><time>2026-05-03T05:57:27.988Z</time></trkpt><trkpt lat="45.39508474066158" lon="9.917454549551147"><ele>79.0</ele><time>2026-05-03T05:57:28.988Z</time></trkpt><trkpt lat="45.3949958232715" lon="9.917317226107748"><ele>79.0</ele><time>2026-05-03T05:57:30.988Z</time></trkpt><trkpt lat="45.39495530749188" lon="9.91724689205004"><ele>79.0</ele><time>2026-05-03T05:57:31.988Z</time></trkpt><trkpt lat="45.39490776914532" lon="9.917182248672727"><ele>79.0</ele><time>2026-05-03T05:57:32.988Z</time></trkpt><trkpt lat="45.39485522824024" lon="9.91710926679798"><ele>79.0</ele><time>2026-05-03T05:57:33.988Z</time></trkpt><trkpt lat="45.394807104597604" lon="9.917036601291084"><ele>79.0</ele><time>2026-05-03T05:57:34.988Z</time></trkpt><trkpt lat="45.39475800165898" lon="9.916966861875949"><ele>79.0</ele><time>2026-05-03T05:57:35.988Z</time></trkpt><trkpt lat="45.394705479829625" lon="9.916899553142768"><ele>79.0</ele><time>2026-05-03T05:57:36.988Z</time></trkpt><trkpt lat="45.39465581896696" lon="9.916840183560296"><ele>79.0</ele><time>2026-05-03T05:57:37.988Z</time></trkpt><trkpt lat="45.394606161975375" lon="9.916778201258373"><ele>79.0</ele><time>2026-05-03T05:57:38.988Z</time></trkpt><trkpt lat="45.394551998344106" lon="9.916719053929224"><ele>79.0</ele><time>2026-05-03T05:57:39.988Z</time></trkpt><trkpt lat="45.394458042834195" lon="9.916593779035999"><ele>78.60000000000001</ele><time>2026-05-03T05:57:41.988Z</time></trkpt><trkpt lat="45.39437035176737" lon="9.916470645216476"><ele>78.2</ele><time>2026-05-03T05:57:43.988Z</time></trkpt><trkpt lat="45.39432037671236" lon="9.916406552039371"><ele>77.80000000000001</ele><time>2026-05-03T05:57:44.988Z</time></trkpt><trkpt lat="45.39427269106547" lon="9.9163427615799"><ele>77.4</ele><time>2026-05-03T05:57:45.988Z</time></trkpt><trkpt lat="45.394179714464364" lon="9.91623875152543"><ele>77.0</ele><time>2026-05-03T05:57:47.988Z</time></trkpt><trkpt lat="45.39407650712762" lon="9.916178950070412"><ele>77.0</ele><time>2026-05-03T05:57:49.988Z</time></trkpt><trkpt lat="45.393948592337075" lon="9.916195355642957"><ele>77.0</ele><time>2026-05-03T05:57:51.988Z</time></trkpt><trkpt lat="45.39388812637856" lon="9.91622508007298"><ele>77.0</ele><time>2026-05-03T05:57:52.988Z</time></trkpt><trkpt lat="45.39382337316726" lon="9.916257215736815"><ele>77.0</ele><time>2026-05-03T05:57:53.988Z</time></trkpt><trkpt lat="45.39375366156853" lon="9.91627465941085"><ele>77.0</ele><time>2026-05-03T05:57:54.988Z</time></trkpt><trkpt lat="45.393688713524355" lon="9.916286677012058"><ele>77.0</ele><time>2026-05-03T05:57:55.988Z</time></trkpt><trkpt lat="45.39356772940616" lon="9.916319497347692"><ele>77.0</ele><time>2026-05-03T05:57:57.988Z</time></trkpt><trkpt lat="45.39349450032539" lon="9.916335294552008"><ele>77.0</ele><time>2026-05-03T05:57:58.987Z</time></trkpt><trkpt lat="45.393429137196435" lon="9.916344670530625"><ele>77.0</ele><time>2026-05-03T05:57:59.987Z</time></trkpt><trkpt lat="45.39336526277356" lon="9.91637048224104"><ele>77.0</ele><time>2026-05-03T05:58:00.987Z</time></trkpt><trkpt lat="45.39330142592156" lon="9.91637354289746"><ele>77.0</ele><time>2026-05-03T05:58:01.987Z</time></trkpt><trkpt lat="45.39323324519179" lon="9.916380329203733"><ele>77.0</ele><time>2026-05-03T05:58:02.987Z</time></trkpt><trkpt lat="45.39316854855292" lon="9.916392542575263"><ele>77.0</ele><time>2026-05-03T05:58:03.987Z</time></trkpt><trkpt lat="45.393103000766615" lon="9.916406583865067"><ele>77.0</ele><time>2026-05-03T05:58:04.987Z</time></trkpt><trkpt lat="45.39303523201208" lon="9.916426306226342"><ele>77.0</ele><time>2026-05-03T05:58:05.987Z</time></trkpt><trkpt lat="45.392968727310134" lon="9.9164455318479"><ele>77.0</ele><time>2026-05-03T05:58:06.987Z</time></trkpt><trkpt lat="45.39289774243429" lon="9.916459739920333"><ele>77.0</ele><time>2026-05-03T05:58:07.987Z</time></trkpt><trkpt lat="45.39282993716873" lon="9.916489361583267"><ele>77.0</ele><time>2026-05-03T05:58:08.987Z</time></trkpt><trkpt lat="45.39276184436561" lon="9.916505891358765"><ele>77.0</ele><time>2026-05-03T05:58:09.987Z</time></trkpt><trkpt lat="45.392694502380614" lon="9.916519715274385"><ele>77.0</ele><time>2026-05-03T05:58:10.987Z</time></trkpt><trkpt lat="45.392622830490154" lon="9.916525489774566"><ele>76.85714285714286</ele><time>2026-05-03T05:58:11.987Z</time></trkpt><trkpt lat="45.392556657604565" lon="9.916540654747482"><ele>76.71428571428572</ele><time>2026-05-03T05:58:12.987Z</time></trkpt><trkpt lat="45.39249152596239" lon="9.916573420748168"><ele>76.57142857142857</ele><time>2026-05-03T05:58:13.987Z</time></trkpt><trkpt lat="45.392421868367414" lon="9.916579756486167"><ele>76.42857142857143</ele><time>2026-05-03T05:58:14.987Z</time></trkpt><trkpt lat="45.39235494628819" lon="9.916590011110763"><ele>76.28571428571429</ele><time>2026-05-03T05:58:15.987Z</time></trkpt><trkpt lat="45.39228398760642" lon="9.916612469543658"><ele>76.14285714285714</ele><time>2026-05-03T05:58:16.987Z</time></trkpt><trkpt lat="45.392219932489084" lon="9.91663121633509"><ele>76.0</ele><time>2026-05-03T05:58:17.987Z</time></trkpt><trkpt lat="45.39215547085187" lon="9.916664572555064"><ele>76.0</ele><time>2026-05-03T05:58:18.987Z</time></trkpt><trkpt lat="45.392089619838295" lon="9.916681257687038"><ele>76.0</ele><time>2026-05-03T05:58:19.987Z</time></trkpt><trkpt lat="45.39202179069557" lon="9.916700838569545"><ele>76.0</ele><time>2026-05-03T05:58:20.987Z</time></trkpt><trkpt lat="45.391958296803864" lon="9.916718263457142"><ele>76.0</ele><time>2026-05-03T05:58:21.987Z</time></trkpt><trkpt lat="45.39189188890346" lon="9.916745932336038"><ele>76.0</ele><time>2026-05-03T05:58:22.987Z</time></trkpt><trkpt lat="45.391824794383695" lon="9.916753556291702"><ele>76.0</ele><time>2026-05-03T05:58:23.987Z</time></trkpt><trkpt lat="45.39175956873695" lon="9.916775960773686"><ele>76.0</ele><time>2026-05-03T05:58:24.987Z</time></trkpt><trkpt lat="45.391690020601125" lon="9.916786772116138"><ele>76.0</ele><time>2026-05-03T05:58:25.987Z</time></trkpt><trkpt lat="45.39161773012207" lon="9.916811154343069"><ele>76.0</ele><time>2026-05-03T05:58:26.987Z</time></trkpt><trkpt lat="45.391554118716726" lon="9.9168223531777"><ele>76.0</ele><time>2026-05-03T05:58:27.987Z</time></trkpt><trkpt lat="45.391430285376416" lon="9.916860613630913"><ele>76.0</ele><time>2026-05-03T05:58:29.987Z</time></trkpt><trkpt lat="45.39130684787021" lon="9.916895657316115"><ele>76.0</ele><time>2026-05-03T05:58:31.987Z</time></trkpt><trkpt lat="45.39124328374007" lon="9.916899051946576"><ele>75.85714285714285</ele><time>2026-05-03T05:58:32.987Z</time></trkpt><trkpt lat="45.391179841482064" lon="9.916920881097687"><ele>75.71428571428572</ele><time>2026-05-03T05:58:33.987Z</time></trkpt><trkpt lat="45.39111689702303" lon="9.91693135999065"><ele>75.57142857142857</ele><time>2026-05-03T05:58:34.987Z</time></trkpt><trkpt lat="45.39105330906548" lon="9.916955480863543"><ele>75.42857142857142</ele><time>2026-05-03T05:58:35.987Z</time></trkpt><trkpt lat="45.390990230030944" lon="9.916970107545419"><ele>75.28571428571428</ele><time>2026-05-03T05:58:36.987Z</time></trkpt><trkpt lat="45.39092713865633" lon="9.916985592312184"><ele>75.14285714285714</ele><time>2026-05-03T05:58:37.987Z</time></trkpt><trkpt lat="45.39080173986908" lon="9.91700532204877"><ele>75.0</ele><time>2026-05-03T05:58:39.987Z</time></trkpt><trkpt lat="45.39073634125259" lon="9.917021082495665"><ele>75.0</ele><time>2026-05-03T05:58:40.987Z</time></trkpt><trkpt lat="45.390615461874795" lon="9.91705450160446"><ele>75.0</ele><time>2026-05-03T05:58:42.987Z</time></trkpt><trkpt lat="45.39055183652496" lon="9.917067284557389"><ele>75.0</ele><time>2026-05-03T05:58:43.987Z</time></trkpt><trkpt lat="45.3904239537404" lon="9.917088107569159"><ele>75.0</ele><time>2026-05-03T05:58:45.987Z</time></trkpt><trkpt lat="45.39035695531581" lon="9.91710542757646"><ele>75.0</ele><time>2026-05-03T05:58:46.987Z</time></trkpt><trkpt lat="45.39028728220818" lon="9.91712550075937"><ele>75.4</ele><time>2026-05-03T05:58:47.987Z</time></trkpt><trkpt lat="45.39017806732664" lon="9.917158298221645"><ele>75.8</ele><time>2026-05-03T05:58:49.987Z</time></trkpt><trkpt lat="45.390108299752114" lon="9.917161791180956"><ele>76.2</ele><time>2026-05-03T05:58:50.987Z</time></trkpt><trkpt lat="45.39004322226839" lon="9.91718183712324"><ele>76.6</ele><time>2026-05-03T05:58:51.987Z</time></trkpt><trkpt lat="45.38992056272151" lon="9.917226364284481"><ele>77.0</ele><time>2026-05-03T05:58:53.987Z</time></trkpt><trkpt lat="45.38980101661102" lon="9.917246822219415"><ele>77.0</ele><time>2026-05-03T05:58:55.987Z</time></trkpt><trkpt lat="45.38968582697561" lon="9.917270340607569"><ele>77.0</ele><time>2026-05-03T05:58:57.987Z</time></trkpt><trkpt lat="45.38961850772235" lon="9.917292800841691"><ele>77.0</ele><time>2026-05-03T05:58:58.987Z</time></trkpt><trkpt lat="45.3895542724416" lon="9.917301798859143"><ele>77.0</ele><time>2026-05-03T05:58:59.987Z</time></trkpt><trkpt lat="45.38948361622018" lon="9.917321321876534"><ele>77.0</ele><time>2026-05-03T05:59:00.987Z</time></trkpt><trkpt lat="45.38935979400609" lon="9.917349661747917"><ele>77.0</ele><time>2026-05-03T05:59:02.986Z</time></trkpt><trkpt lat="45.389238518227586" lon="9.917384589803978"><ele>77.0</ele><time>2026-05-03T05:59:04.986Z</time></trkpt><trkpt lat="45.38917265758993" lon="9.917399221999192"><ele>77.0</ele><time>2026-05-03T05:59:05.986Z</time></trkpt><trkpt lat="45.38910725254216" lon="9.917412157780369"><ele>77.0</ele><time>2026-05-03T05:59:06.986Z</time></trkpt><trkpt lat="45.388989573867846" lon="9.917435222481815"><ele>77.0</ele><time>2026-05-03T05:59:08.986Z</time></trkpt><trkpt lat="45.388926523501155" lon="9.917452432699276"><ele>77.0</ele><time>2026-05-03T05:59:09.986Z</time></trkpt><trkpt lat="45.38881087402938" lon="9.91747744076248"><ele>77.0</ele><time>2026-05-03T05:59:11.986Z</time></trkpt><trkpt lat="45.388739415971415" lon="9.91748810558194"><ele>77.0</ele><time>2026-05-03T05:59:12.986Z</time></trkpt><trkpt lat="45.38861965832684" lon="9.917520889003745"><ele>77.0</ele><time>2026-05-03T05:59:14.986Z</time></trkpt><trkpt lat="45.38852229313508" lon="9.917592045705389"><ele>77.0</ele><time>2026-05-03T05:59:16.986Z</time></trkpt><trkpt lat="45.38848412823117" lon="9.917711174012139"><ele>77.0</ele><time>2026-05-03T05:59:18.986Z</time></trkpt><trkpt lat="45.38849330769044" lon="9.91780656619037"><ele>77.0</ele><time>2026-05-03T05:59:19.986Z</time></trkpt><trkpt lat="45.38851583953943" lon="9.917974365820458"><ele>77.0</ele><time>2026-05-03T05:59:21.986Z</time></trkpt><trkpt lat="45.38851864708926" lon="9.918126512294743"><ele>77.0</ele><time>2026-05-03T05:59:23.986Z</time></trkpt><trkpt lat="45.38852609576696" lon="9.918292424783399"><ele>77.0</ele><time>2026-05-03T05:59:25.986Z</time></trkpt><trkpt lat="45.388533133346584" lon="9.918382751448165"><ele>77.0</ele><time>2026-05-03T05:59:26.986Z</time></trkpt><trkpt lat="45.38854057696748" lon="9.918549076549438"><ele>77.0</ele><time>2026-05-03T05:59:28.986Z</time></trkpt><trkpt lat="45.388544042765275" lon="9.918711218422768"><ele>76.6</ele><time>2026-05-03T05:59:30.986Z</time></trkpt><trkpt lat="45.38855266324261" lon="9.918863429723348"><ele>76.2</ele><time>2026-05-03T05:59:32.986Z</time></trkpt><trkpt lat="45.388542907657694" lon="9.918990299518667"><ele>75.8</ele><time>2026-05-03T05:59:34.986Z</time></trkpt><trkpt lat="45.388555251440884" lon="9.91916042727381"><ele>75.4</ele><time>2026-05-03T05:59:36.986Z</time></trkpt><trkpt lat="45.38856226043373" lon="9.919322116494051"><ele>75.0</ele><time>2026-05-03T05:59:38.986Z</time></trkpt><trkpt lat="45.38856565180557" lon="9.91947712371752"><ele>74.4</ele><time>2026-05-03T05:59:40.986Z</time></trkpt><trkpt lat="45.388578512461635" lon="9.919653091428202"><ele>73.8</ele><time>2026-05-03T05:59:42.986Z</time></trkpt><trkpt lat="45.38852186605794" lon="9.919756499057803"><ele>73.2</ele><time>2026-05-03T05:59:44.986Z</time></trkpt><trkpt lat="45.38839779682078" lon="9.919763354898125"><ele>72.6</ele><time>2026-05-03T05:59:46.986Z</time></trkpt><trkpt lat="45.38833607393109" lon="9.91974258808098"><ele>72.0</ele><time>2026-05-03T05:59:47.986Z</time></trkpt><trkpt lat="45.38821244054165" lon="9.919744605554994"><ele>72.0</ele><time>2026-05-03T05:59:49.986Z</time></trkpt><trkpt lat="45.388089998807565" lon="9.91975176005215"><ele>72.0</ele><time>2026-05-03T05:59:51.986Z</time></trkpt><trkpt lat="45.38796470533427" lon="9.919748648960413"><ele>72.0</ele><time>2026-05-03T05:59:53.986Z</time></trkpt><trkpt lat="45.387901422897514" lon="9.919739914004365"><ele>72.0</ele><time>2026-05-03T05:59:54.986Z</time></trkpt><trkpt lat="45.38778722046629" lon="9.91972616287726"><ele>72.0</ele><time>2026-05-03T05:59:56.986Z</time></trkpt><trkpt lat="45.387668018790144" lon="9.919701277453374"><ele>72.8</ele><time>2026-05-03T05:59:58.986Z</time></trkpt><trkpt lat="45.38756788136975" lon="9.919677868043905"><ele>73.6</ele><time>2026-05-03T06:00:00.986Z</time></trkpt><trkpt lat="45.38744914505939" lon="9.919644628842656"><ele>74.39999999999999</ele><time>2026-05-03T06:00:02.986Z</time></trkpt><trkpt lat="45.38734648532724" lon="9.919650713551135"><ele>75.2</ele><time>2026-05-03T06:00:04.986Z</time></trkpt><trkpt lat="45.387240850969846" lon="9.919687674033066"><ele>76.0</ele><time>2026-05-03T06:00:06.985Z</time></trkpt><trkpt lat="45.387135751143184" lon="9.919717757114277"><ele>76.0</ele><time>2026-05-03T06:00:08.985Z</time></trkpt><trkpt lat="45.387027248239725" lon="9.919744538053942"><ele>76.0</ele><time>2026-05-03T06:00:10.985Z</time></trkpt><trkpt lat="45.38692983227742" lon="9.919772905533131"><ele>76.0</ele><time>2026-05-03T06:00:12.985Z</time></trkpt><trkpt lat="45.38681175080904" lon="9.919805105135246"><ele>76.0</ele><time>2026-05-03T06:00:14.985Z</time></trkpt><trkpt lat="45.38674911169565" lon="9.919822622015918"><ele>76.0</ele><time>2026-05-03T06:00:15.985Z</time></trkpt><trkpt lat="45.38668246854127" lon="9.919795639509534"><ele>76.0</ele><time>2026-05-03T06:00:16.985Z</time></trkpt><trkpt lat="45.38657989896905" lon="9.919864265821865"><ele>76.0</ele><time>2026-05-03T06:00:18.985Z</time></trkpt><trkpt lat="45.386472201603624" lon="9.919924882778403"><ele>76.0</ele><time>2026-05-03T06:00:20.985Z</time></trkpt><trkpt lat="45.386418279203845" lon="9.919971380425308"><ele>76.0</ele><time>2026-05-03T06:00:21.985Z</time></trkpt><trkpt lat="45.38634002360254" lon="9.920073417898102"><ele>76.0</ele><time>2026-05-03T06:00:23.985Z</time></trkpt><trkpt lat="45.38625066024577" lon="9.920139333304519"><ele>75.0</ele><time>2026-05-03T06:00:25.985Z</time></trkpt><trkpt lat="45.38615800122358" lon="9.920226196672553"><ele>74.0</ele><time>2026-05-03T06:00:27.985Z</time></trkpt><trkpt lat="45.386066402418884" lon="9.920328986929958"><ele>73.0</ele><time>2026-05-03T06:00:29.985Z</time></trkpt><trkpt lat="45.385979020950096" lon="9.920409943667504"><ele>72.0</ele><time>2026-05-03T06:00:31.985Z</time></trkpt><trkpt lat="45.38588404314228" lon="9.920498709447234"><ele>71.0</ele><time>2026-05-03T06:00:33.985Z</time></trkpt><trkpt lat="45.385792629274114" lon="9.920571321842898"><ele>71.0</ele><time>2026-05-03T06:00:35.985Z</time></trkpt><trkpt lat="45.38571029213199" lon="9.920624988153937"><ele>71.0</ele><time>2026-05-03T06:00:37.985Z</time></trkpt><trkpt lat="45.38561945282412" lon="9.920669122724835"><ele>71.0</ele><time>2026-05-03T06:00:39.985Z</time></trkpt><trkpt lat="45.385515011618" lon="9.92072277245577"><ele>71.0</ele><time>2026-05-03T06:00:41.985Z</time></trkpt><trkpt lat="45.38542093046255" lon="9.920773100929056"><ele>71.0</ele><time>2026-05-03T06:00:43.985Z</time></trkpt><trkpt lat="45.385312447813334" lon="9.920800827286794"><ele>71.2</ele><time>2026-05-03T06:00:45.985Z</time></trkpt><trkpt lat="45.38521641098344" lon="9.920825310777364"><ele>71.39999999999999</ele><time>2026-05-03T06:00:47.985Z</time></trkpt><trkpt lat="45.38511030498199" lon="9.920840622866152"><ele>71.6</ele><time>2026-05-03T06:00:49.985Z</time></trkpt><trkpt lat="45.384996726574286" lon="9.920864925391502"><ele>71.8</ele><time>2026-05-03T06:00:51.985Z</time></trkpt><trkpt lat="45.384900602277725" lon="9.920883066665779"><ele>72.0</ele><time>2026-05-03T06:00:53.985Z</time></trkpt><trkpt lat="45.38479680674316" lon="9.920892795987251"><ele>71.6</ele><time>2026-05-03T06:00:55.985Z</time></trkpt><trkpt lat="45.38470207992589" lon="9.920908618938462"><ele>71.2</ele><time>2026-05-03T06:00:57.985Z</time></trkpt><trkpt lat="45.38459782114363" lon="9.920902254510962"><ele>70.8</ele><time>2026-05-03T06:00:59.985Z</time></trkpt><trkpt lat="45.38449943457955" lon="9.92088322182565"><ele>70.4</ele><time>2026-05-03T06:01:01.985Z</time></trkpt><trkpt lat="45.384396198873496" lon="9.920868558132163"><ele>70.0</ele><time>2026-05-03T06:01:03.985Z</time></trkpt><trkpt lat="45.38428845790271" lon="9.920856938770012"><ele>70.66666666666666</ele><time>2026-05-03T06:01:05.985Z</time></trkpt><trkpt lat="45.384224948311356" lon="9.920854479480276"><ele>71.33333333333333</ele><time>2026-05-03T06:01:06.985Z</time></trkpt><trkpt lat="45.38410232330884" lon="9.920837187434033"><ele>72.0</ele><time>2026-05-03T06:01:08.984Z</time></trkpt><trkpt lat="45.38398332535286" lon="9.920820811958215"><ele>72.66666666666667</ele><time>2026-05-03T06:01:10.984Z</time></trkpt><trkpt lat="45.38391900601119" lon="9.920806541416642"><ele>73.33333333333334</ele><time>2026-05-03T06:01:11.984Z</time></trkpt><trkpt lat="45.383851805543635" lon="9.920791568723757"><ele>74.0</ele><time>2026-05-03T06:01:12.984Z</time></trkpt><trkpt lat="45.383786751717544" lon="9.920778098562323"><ele>74.4</ele><time>2026-05-03T06:01:13.984Z</time></trkpt><trkpt lat="45.383663355453386" lon="9.920734662661504"><ele>74.80000000000001</ele><time>2026-05-03T06:01:15.984Z</time></trkpt><trkpt lat="45.38359341866609" lon="9.920711212896322"><ele>75.19999999999999</ele><time>2026-05-03T06:01:16.984Z</time></trkpt><trkpt lat="45.38347461342125" lon="9.920675270727608"><ele>75.6</ele><time>2026-05-03T06:01:18.984Z</time></trkpt><trkpt lat="45.38340919592474" lon="9.920660583086404"><ele>76.0</ele><time>2026-05-03T06:01:19.984Z</time></trkpt><trkpt lat="45.38334417725624" lon="9.920647489789234"><ele>76.0</ele><time>2026-05-03T06:01:20.984Z</time></trkpt><trkpt lat="45.383279114568396" lon="9.920633934428698"><ele>76.0</ele><time>2026-05-03T06:01:21.984Z</time></trkpt><trkpt lat="45.383149941802756" lon="9.920616981136954"><ele>76.0</ele><time>2026-05-03T06:01:23.984Z</time></trkpt><trkpt lat="45.38308186733833" lon="9.920606807599206"><ele>76.0</ele><time>2026-05-03T06:01:24.984Z</time></trkpt><trkpt lat="45.38294725387317" lon="9.92059311587518"><ele>76.0</ele><time>2026-05-03T06:01:26.984Z</time></trkpt><trkpt lat="45.38287089612319" lon="9.920583141625984"><ele>75.6</ele><time>2026-05-03T06:01:27.984Z</time></trkpt><trkpt lat="45.382805875022235" lon="9.920580829574739"><ele>75.19999999999999</ele><time>2026-05-03T06:01:28.984Z</time></trkpt><trkpt lat="45.38273488365687" lon="9.920578675282972"><ele>74.80000000000001</ele><time>2026-05-03T06:01:29.984Z</time></trkpt><trkpt lat="45.382606732711366" lon="9.920583701314717"><ele>74.4</ele><time>2026-05-03T06:01:31.984Z</time></trkpt><trkpt lat="45.382479139558406" lon="9.92060553741836"><ele>74.0</ele><time>2026-05-03T06:01:33.984Z</time></trkpt><trkpt lat="45.38241517590606" lon="9.920608399203816"><ele>74.0</ele><time>2026-05-03T06:01:34.984Z</time></trkpt><trkpt lat="45.38230081847809" lon="9.92062295040046"><ele>74.0</ele><time>2026-05-03T06:01:36.984Z</time></trkpt><trkpt lat="45.38218453159958" lon="9.920646546294389"><ele>74.0</ele><time>2026-05-03T06:01:38.984Z</time></trkpt><trkpt lat="45.38206793211805" lon="9.920659891476072"><ele>74.0</ele><time>2026-05-03T06:01:40.984Z</time></trkpt><trkpt lat="45.381954699535065" lon="9.920639193710825"><ele>73.83333333333334</ele><time>2026-05-03T06:01:42.984Z</time></trkpt><trkpt lat="45.381879848745555" lon="9.920559642743752"><ele>73.66666666666667</ele><time>2026-05-03T06:01:44.984Z</time></trkpt><trkpt lat="45.38185160372677" lon="9.920428548708102"><ele>73.5</ele><time>2026-05-03T06:01:46.984Z</time></trkpt><trkpt lat="45.38184454613564" lon="9.920292442744058"><ele>73.33333333333333</ele><time>2026-05-03T06:01:48.984Z</time></trkpt><trkpt lat="45.38184243134479" lon="9.920192905457263"><ele>73.16666666666666</ele><time>2026-05-03T06:01:49.984Z</time></trkpt><trkpt lat="45.38184117236729" lon="9.92009479294678"><ele>73.0</ele><time>2026-05-03T06:01:50.984Z</time></trkpt><trkpt lat="45.38183443129198" lon="9.919909733263857"><ele>73.0</ele><time>2026-05-03T06:01:52.984Z</time></trkpt><trkpt lat="45.38182946638935" lon="9.919819376617976"><ele>73.0</ele><time>2026-05-03T06:01:53.984Z</time></trkpt><trkpt lat="45.381821544950895" lon="9.91972847483076"><ele>73.0</ele><time>2026-05-03T06:01:54.984Z</time></trkpt><trkpt lat="45.38180664755749" lon="9.919557792725392"><ele>73.0</ele><time>2026-05-03T06:01:56.984Z</time></trkpt><trkpt lat="45.38180378766169" lon="9.919388811718594"><ele>73.0</ele><time>2026-05-03T06:01:58.984Z</time></trkpt><trkpt lat="45.38180366628475" lon="9.91929836131547"><ele>73.0</ele><time>2026-05-03T06:01:59.984Z</time></trkpt><trkpt lat="45.38179148100778" lon="9.919201371466388"><ele>72.8</ele><time>2026-05-03T06:02:00.984Z</time></trkpt><trkpt lat="45.381775502819515" lon="9.91903842795157"><ele>72.6</ele><time>2026-05-03T06:02:02.984Z</time></trkpt><trkpt lat="45.381773468362944" lon="9.918948273052829"><ele>72.4</ele><time>2026-05-03T06:02:03.984Z</time></trkpt><trkpt lat="45.381767652549435" lon="9.918774913456044"><ele>72.2</ele><time>2026-05-03T06:02:05.984Z</time></trkpt><trkpt lat="45.38175799509557" lon="9.918608558068474"><ele>72.0</ele><time>2026-05-03T06:02:07.984Z</time></trkpt><trkpt lat="45.38175488268094" lon="9.91842567606342"><ele>72.2</ele><time>2026-05-03T06:02:09.984Z</time></trkpt><trkpt lat="45.381747485107" lon="9.918276121061393"><ele>72.4</ele><time>2026-05-03T06:02:11.983Z</time></trkpt><trkpt lat="45.381744727890805" lon="9.918101269511356"><ele>72.6</ele><time>2026-05-03T06:02:13.983Z</time></trkpt><trkpt lat="45.38172857434319" lon="9.917936864809436"><ele>72.8</ele><time>2026-05-03T06:02:15.983Z</time></trkpt><trkpt lat="45.38171355644594" lon="9.917843294096505"><ele>73.0</ele><time>2026-05-03T06:02:16.983Z</time></trkpt><trkpt lat="45.38171030711144" lon="9.91774874836807"><ele>73.0</ele><time>2026-05-03T06:02:17.983Z</time></trkpt><trkpt lat="45.38170349275256" lon="9.917659095528387"><ele>73.0</ele><time>2026-05-03T06:02:18.983Z</time></trkpt><trkpt lat="45.38171173881183" lon="9.917563348347326"><ele>73.0</ele><time>2026-05-03T06:02:19.983Z</time></trkpt><trkpt lat="45.38170863491223" lon="9.917471458363256"><ele>73.0</ele><time>2026-05-03T06:02:20.983Z</time></trkpt><trkpt lat="45.3817036096447" lon="9.917369316294058"><ele>73.0</ele><time>2026-05-03T06:02:21.983Z</time></trkpt><trkpt lat="45.38170759335533" lon="9.917276424154196"><ele>73.0</ele><time>2026-05-03T06:02:22.983Z</time></trkpt><trkpt lat="45.381704353719755" lon="9.917183252587613"><ele>73.0</ele><time>2026-05-03T06:02:23.983Z</time></trkpt><trkpt lat="45.3817047767598" lon="9.917087809982723"><ele>73.16666666666666</ele><time>2026-05-03T06:02:24.983Z</time></trkpt><trkpt lat="45.38169646720901" lon="9.916995472603421"><ele>73.33333333333333</ele><time>2026-05-03T06:02:25.983Z</time></trkpt><trkpt lat="45.38168580617304" lon="9.916900311880855"><ele>73.5</ele><time>2026-05-03T06:02:26.983Z</time></trkpt><trkpt lat="45.381676451613295" lon="9.916804404164651"><ele>73.66666666666667</ele><time>2026-05-03T06:02:27.983Z</time></trkpt><trkpt lat="45.38166854049908" lon="9.916702484493772"><ele>73.83333333333334</ele><time>2026-05-03T06:02:28.983Z</time></trkpt><trkpt lat="45.38165198174032" lon="9.916615250035266"><ele>74.0</ele><time>2026-05-03T06:02:29.983Z</time></trkpt><trkpt lat="45.38162769692604" lon="9.916437637259849"><ele>74.0</ele><time>2026-05-03T06:02:31.983Z</time></trkpt><trkpt lat="45.38155912611051" lon="9.916307103155283"><ele>74.0</ele><time>2026-05-03T06:02:33.983Z</time></trkpt><trkpt lat="45.381439498569264" lon="9.91624706220508"><ele>74.0</ele><time>2026-05-03T06:02:35.983Z</time></trkpt><trkpt lat="45.381371577748254" lon="9.916247178188083"><ele>74.0</ele><time>2026-05-03T06:02:36.983Z</time></trkpt><trkpt lat="45.38124419701218" lon="9.916245126786169"><ele>74.0</ele><time>2026-05-03T06:02:38.983Z</time></trkpt><trkpt lat="45.38118018641432" lon="9.91623658075718"><ele>73.8</ele><time>2026-05-03T06:02:39.983Z</time></trkpt><trkpt lat="45.381050614866886" lon="9.91622866908884"><ele>73.60000000000001</ele><time>2026-05-03T06:02:41.983Z</time></trkpt><trkpt lat="45.380934823960274" lon="9.916224738485274"><ele>73.4</ele><time>2026-05-03T06:02:43.983Z</time></trkpt><trkpt lat="45.380861616973384" lon="9.916216494636735"><ele>73.2</ele><time>2026-05-03T06:02:44.983Z</time></trkpt><trkpt lat="45.380797946948476" lon="9.916223796432009"><ele>73.0</ele><time>2026-05-03T06:02:45.983Z</time></trkpt><trkpt lat="45.3806649761836" lon="9.916216736136644"><ele>73.0</ele><time>2026-05-03T06:02:47.983Z</time></trkpt><trkpt lat="45.38054305739844" lon="9.916211193509094"><ele>73.0</ele><time>2026-05-03T06:02:49.983Z</time></trkpt><trkpt lat="45.38043343192801" lon="9.916187642924303"><ele>73.0</ele><time>2026-05-03T06:02:51.983Z</time></trkpt><trkpt lat="45.38036410874663" lon="9.916186123132997"><ele>73.0</ele><time>2026-05-03T06:02:52.983Z</time></trkpt><trkpt lat="45.380284238921526" lon="9.916174016348569"><ele>73.0</ele><time>2026-05-03T06:02:53.983Z</time></trkpt><trkpt lat="45.380181869902856" lon="9.916174542768609"><ele>73.0</ele><time>2026-05-03T06:02:55.983Z</time></trkpt><trkpt lat="45.380112802608984" lon="9.916160442943175"><ele>73.0</ele><time>2026-05-03T06:02:56.983Z</time></trkpt><trkpt lat="45.380046153133705" lon="9.916145154864877"><ele>73.0</ele><time>2026-05-03T06:02:57.983Z</time></trkpt><trkpt lat="45.379926819058745" lon="9.916136626667734"><ele>73.0</ele><time>2026-05-03T06:02:59.983Z</time></trkpt><trkpt lat="45.37980795479703" lon="9.916119259694947"><ele>73.0</ele><time>2026-05-03T06:03:01.983Z</time></trkpt><trkpt lat="45.37973701629628" lon="9.916117940463273"><ele>73.0</ele><time>2026-05-03T06:03:02.983Z</time></trkpt><trkpt lat="45.379671230377376" lon="9.916112995951863"><ele>73.0</ele><time>2026-05-03T06:03:03.983Z</time></trkpt><trkpt lat="45.379554416640396" lon="9.916112660971"><ele>73.0</ele><time>2026-05-03T06:03:05.983Z</time></trkpt><trkpt lat="45.379489778880696" lon="9.916097649981225"><ele>73.0</ele><time>2026-05-03T06:03:06.983Z</time></trkpt><trkpt lat="45.37942667925024" lon="9.916096861471763"><ele>73.0</ele><time>2026-05-03T06:03:07.983Z</time></trkpt><trkpt lat="45.379363435935" lon="9.916089369183178"><ele>73.0</ele><time>2026-05-03T06:03:08.983Z</time></trkpt><trkpt lat="45.379248849385164" lon="9.916079532323078"><ele>73.0</ele><time>2026-05-03T06:03:10.983Z</time></trkpt><trkpt lat="45.379173875741174" lon="9.916065227762767"><ele>73.0</ele><time>2026-05-03T06:03:11.983Z</time></trkpt><trkpt lat="45.3790545320577" lon="9.916061023648647"><ele>73.0</ele><time>2026-05-03T06:03:13.983Z</time></trkpt><trkpt lat="45.378928732575076" lon="9.916055909439287"><ele>73.0</ele><time>2026-05-03T06:03:15.982Z</time></trkpt><trkpt lat="45.37880054485249" lon="9.916045004825998"><ele>73.0</ele><time>2026-05-03T06:03:17.982Z</time></trkpt><trkpt lat="45.37869774657323" lon="9.916047111703653"><ele>73.0</ele><time>2026-05-03T06:03:19.982Z</time></trkpt><trkpt lat="45.37863402513244" lon="9.916040591663911"><ele>73.0</ele><time>2026-05-03T06:03:20.982Z</time></trkpt><trkpt lat="45.37857005422205" lon="9.916041240750324"><ele>73.0</ele><time>2026-05-03T06:03:21.982Z</time></trkpt><trkpt lat="45.378444359201595" lon="9.916036194320021"><ele>73.0</ele><time>2026-05-03T06:03:23.982Z</time></trkpt><trkpt lat="45.37837813748237" lon="9.915925475247084"><ele>73.0</ele><time>2026-05-03T06:03:25.982Z</time></trkpt><trkpt lat="45.37835650368472" lon="9.915780750884494"><ele>73.0</ele><time>2026-05-03T06:03:27.982Z</time></trkpt><trkpt lat="45.37837656630873" lon="9.915651437423397"><ele>73.0</ele><time>2026-05-03T06:03:29.982Z</time></trkpt><trkpt lat="45.37838501859853" lon="9.915494203217818"><ele>73.0</ele><time>2026-05-03T06:03:31.982Z</time></trkpt><trkpt lat="45.37837919583732" lon="9.915399540845446"><ele>73.0</ele><time>2026-05-03T06:03:32.982Z</time></trkpt><trkpt lat="45.37838532126269" lon="9.915235168754057"><ele>73.0</ele><time>2026-05-03T06:03:34.982Z</time></trkpt><trkpt lat="45.37838903634795" lon="9.91514194487026"><ele>72.6</ele><time>2026-05-03T06:03:35.982Z</time></trkpt><trkpt lat="45.378382132431454" lon="9.915045543048755"><ele>72.19999999999999</ele><time>2026-05-03T06:03:36.982Z</time></trkpt><trkpt lat="45.37839828145783" lon="9.914879404565102"><ele>71.8</ele><time>2026-05-03T06:03:38.982Z</time></trkpt><trkpt lat="45.37841269950968" lon="9.914715981624433"><ele>71.39999999999999</ele><time>2026-05-03T06:03:40.982Z</time></trkpt><trkpt lat="45.37841732182419" lon="9.914552989190728"><ele>71.0</ele><time>2026-05-03T06:03:42.982Z</time></trkpt><trkpt lat="45.37843310117211" lon="9.914386961276909"><ele>71.25</ele><time>2026-05-03T06:03:44.982Z</time></trkpt><trkpt lat="45.37844208220999" lon="9.914217779771548"><ele>71.5</ele><time>2026-05-03T06:03:46.982Z</time></trkpt><trkpt lat="45.37845880654453" lon="9.91405557959533"><ele>71.75</ele><time>2026-05-03T06:03:48.982Z</time></trkpt><trkpt lat="45.37847192412593" lon="9.913894304577777"><ele>72.0</ele><time>2026-05-03T06:03:50.982Z</time></trkpt><trkpt lat="45.37848285166028" lon="9.91373603647453"><ele>72.0</ele><time>2026-05-03T06:03:52.982Z</time></trkpt><trkpt lat="45.3784946558333" lon="9.91357525872015"><ele>72.0</ele><time>2026-05-03T06:03:54.982Z</time></trkpt><trkpt lat="45.37851329504514" lon="9.91341526835278"><ele>72.0</ele><time>2026-05-03T06:03:56.982Z</time></trkpt><trkpt lat="45.378536716176825" lon="9.913252091874682"><ele>72.0</ele><time>2026-05-03T06:03:58.982Z</time></trkpt><trkpt lat="45.37853913263423" lon="9.913103232648592"><ele>72.0</ele><time>2026-05-03T06:04:00.982Z</time></trkpt><trkpt lat="45.37854119148021" lon="9.913013647427578"><ele>72.0</ele><time>2026-05-03T06:04:01.982Z</time></trkpt><trkpt lat="45.378563481516274" lon="9.912851542114952"><ele>72.0</ele><time>2026-05-03T06:04:03.982Z</time></trkpt><trkpt lat="45.37857743118059" lon="9.912686751400432"><ele>72.0</ele><time>2026-05-03T06:04:05.982Z</time></trkpt><trkpt lat="45.378582521148545" lon="9.912532982122089"><ele>72.0</ele><time>2026-05-03T06:04:07.982Z</time></trkpt><trkpt lat="45.378600521961296" lon="9.912370403566973"><ele>72.0</ele><time>2026-05-03T06:04:09.982Z</time></trkpt><trkpt lat="45.37862021207148" lon="9.912212245525014"><ele>72.0</ele><time>2026-05-03T06:04:11.982Z</time></trkpt><trkpt lat="45.3786256641334" lon="9.912049139797231"><ele>72.0</ele><time>2026-05-03T06:04:13.982Z</time></trkpt><trkpt lat="45.378635189953975" lon="9.911877240678885"><ele>72.0</ele><time>2026-05-03T06:04:15.982Z</time></trkpt><trkpt lat="45.378646623230786" lon="9.911722775414178"><ele>72.0</ele><time>2026-05-03T06:04:17.982Z</time></trkpt><trkpt lat="45.3786698901381" lon="9.911568710617663"><ele>72.0</ele><time>2026-05-03T06:04:19.981Z</time></trkpt><trkpt lat="45.37868711557704" lon="9.911438024991757"><ele>72.0</ele><time>2026-05-03T06:04:21.981Z</time></trkpt><trkpt lat="45.378700986579474" lon="9.911268455554143"><ele>72.0</ele><time>2026-05-03T06:04:23.981Z</time></trkpt><trkpt lat="45.37870310174186" lon="9.911108436508162"><ele>72.0</ele><time>2026-05-03T06:04:25.981Z</time></trkpt><trkpt lat="45.37871925908045" lon="9.910955357165623"><ele>72.0</ele><time>2026-05-03T06:04:27.981Z</time></trkpt><trkpt lat="45.37872768555938" lon="9.910821372600656"><ele>72.0</ele><time>2026-05-03T06:04:29.981Z</time></trkpt><trkpt lat="45.378730809971714" lon="9.910731085113174"><ele>72.0</ele><time>2026-05-03T06:04:30.981Z</time></trkpt><trkpt lat="45.378745361312696" lon="9.910570497634746"><ele>72.0</ele><time>2026-05-03T06:04:32.981Z</time></trkpt><trkpt lat="45.378757160285204" lon="9.910407843517733"><ele>72.0</ele><time>2026-05-03T06:04:34.981Z</time></trkpt><trkpt lat="45.37876730023444" lon="9.9102369741928"><ele>72.0</ele><time>2026-05-03T06:04:36.981Z</time></trkpt><trkpt lat="45.37877908139395" lon="9.91007385616459"><ele>72.0</ele><time>2026-05-03T06:04:38.981Z</time></trkpt><trkpt lat="45.37879104382241" lon="9.909918840680142"><ele>72.0</ele><time>2026-05-03T06:04:40.981Z</time></trkpt><trkpt lat="45.378804219257674" lon="9.909754271724546"><ele>72.0</ele><time>2026-05-03T06:04:42.981Z</time></trkpt><trkpt lat="45.37881276799359" lon="9.909598512759615"><ele>72.0</ele><time>2026-05-03T06:04:44.981Z</time></trkpt><trkpt lat="45.378817072439105" lon="9.90943548668999"><ele>72.0</ele><time>2026-05-03T06:04:46.996Z</time></trkpt><trkpt lat="45.37882533335564" lon="9.909286639314036"><ele>72.0</ele><time>2026-05-03T06:04:48.996Z</time></trkpt><trkpt lat="45.37883720550962" lon="9.909139449008698"><ele>72.0</ele><time>2026-05-03T06:04:50.996Z</time></trkpt><trkpt lat="45.37885182213661" lon="9.908973274119168"><ele>72.0</ele><time>2026-05-03T06:04:52.996Z</time></trkpt><trkpt lat="45.378869180463255" lon="9.90881211033578"><ele>72.0</ele><time>2026-05-03T06:04:54.996Z</time></trkpt><trkpt lat="45.37888624675236" lon="9.908654559345347"><ele>72.0</ele><time>2026-05-03T06:04:56.996Z</time></trkpt><trkpt lat="45.378896954787855" lon="9.90849297222887"><ele>72.0</ele><time>2026-05-03T06:04:58.996Z</time></trkpt><trkpt lat="45.37890791844425" lon="9.908341251385785"><ele>72.0</ele><time>2026-05-03T06:05:00.996Z</time></trkpt><trkpt lat="45.37891470532842" lon="9.908174213330676"><ele>72.0</ele><time>2026-05-03T06:05:02.996Z</time></trkpt><trkpt lat="45.3789314323064" lon="9.90801525236241"><ele>72.0</ele><time>2026-05-03T06:05:04.996Z</time></trkpt><trkpt lat="45.378944369957225" lon="9.90785903975797"><ele>72.0</ele><time>2026-05-03T06:05:06.996Z</time></trkpt><trkpt lat="45.378957985298364" lon="9.907699910350848"><ele>72.0</ele><time>2026-05-03T06:05:08.996Z</time></trkpt><trkpt lat="45.37897532613107" lon="9.907541182260204"><ele>72.0</ele><time>2026-05-03T06:05:10.996Z</time></trkpt><trkpt lat="45.378986776082336" lon="9.907379944927762"><ele>72.0</ele><time>2026-05-03T06:05:12.996Z</time></trkpt><trkpt lat="45.378994556720286" lon="9.907213220512336"><ele>72.0</ele><time>2026-05-03T06:05:14.996Z</time></trkpt><trkpt lat="45.37899197094013" lon="9.907037014171236"><ele>72.0</ele><time>2026-05-03T06:05:16.996Z</time></trkpt><trkpt lat="45.379012809759445" lon="9.906877895768403"><ele>72.0</ele><time>2026-05-03T06:05:18.996Z</time></trkpt><trkpt lat="45.37903383185039" lon="9.906730807369172"><ele>72.0</ele><time>2026-05-03T06:05:20.996Z</time></trkpt><trkpt lat="45.37903576245328" lon="9.906567468256455"><ele>72.0</ele><time>2026-05-03T06:05:22.995Z</time></trkpt><trkpt lat="45.3790558460687" lon="9.90641019860017"><ele>72.0</ele><time>2026-05-03T06:05:24.995Z</time></trkpt><trkpt lat="45.37906794865506" lon="9.906254141056834"><ele>72.0</ele><time>2026-05-03T06:05:26.995Z</time></trkpt><trkpt lat="45.3790770653393" lon="9.906094323944211"><ele>72.0</ele><time>2026-05-03T06:05:28.995Z</time></trkpt><trkpt lat="45.37909371967558" lon="9.905943116075397"><ele>72.0</ele><time>2026-05-03T06:05:30.995Z</time></trkpt><trkpt lat="45.37910970954874" lon="9.905792382503334"><ele>72.0</ele><time>2026-05-03T06:05:32.997Z</time></trkpt><trkpt lat="45.37911455359303" lon="9.90564269266734"><ele>72.0</ele><time>2026-05-03T06:05:34.997Z</time></trkpt><trkpt lat="45.379127419261586" lon="9.90549093213844"><ele>72.0</ele><time>2026-05-03T06:05:36.997Z</time></trkpt><trkpt lat="45.37914293811712" lon="9.905345411420099"><ele>72.2</ele><time>2026-05-03T06:05:38.997Z</time></trkpt><trkpt lat="45.379151008727604" lon="9.905199806728122"><ele>72.4</ele><time>2026-05-03T06:05:40.997Z</time></trkpt><trkpt lat="45.37915999542236" lon="9.905051774002686"><ele>72.6</ele><time>2026-05-03T06:05:42.998Z</time></trkpt><trkpt lat="45.37916928278134" lon="9.904905117653351"><ele>72.8</ele><time>2026-05-03T06:05:44.997Z</time></trkpt><trkpt lat="45.379178685438006" lon="9.904753439192802"><ele>73.0</ele><time>2026-05-03T06:05:46.997Z</time></trkpt><trkpt lat="45.37919128803756" lon="9.904597798942202"><ele>73.2</ele><time>2026-05-03T06:05:48.997Z</time></trkpt><trkpt lat="45.3792028024144" lon="9.904439527521122"><ele>73.4</ele><time>2026-05-03T06:05:50.997Z</time></trkpt><trkpt lat="45.37921472621212" lon="9.904279671455347"><ele>73.60000000000001</ele><time>2026-05-03T06:05:52.997Z</time></trkpt><trkpt lat="45.37922410009751" lon="9.904123689430655"><ele>73.8</ele><time>2026-05-03T06:05:54.997Z</time></trkpt><trkpt lat="45.379242960322365" lon="9.9039775024676"><ele>74.0</ele><time>2026-05-03T06:05:56.997Z</time></trkpt><trkpt lat="45.379245484179975" lon="9.903843096911983"><ele>74.0</ele><time>2026-05-03T06:05:58.997Z</time></trkpt><trkpt lat="45.37925712336366" lon="9.903683996051182"><ele>74.0</ele><time>2026-05-03T06:06:00.997Z</time></trkpt><trkpt lat="45.37926670612096" lon="9.903538108695082"><ele>74.0</ele><time>2026-05-03T06:06:02.997Z</time></trkpt><trkpt lat="45.37927281461393" lon="9.903384772166474"><ele>74.0</ele><time>2026-05-03T06:06:04.997Z</time></trkpt><trkpt lat="45.37928671739924" lon="9.903232938609026"><ele>74.0</ele><time>2026-05-03T06:06:06.997Z</time></trkpt><trkpt lat="45.37929907409204" lon="9.903078320412853"><ele>74.0</ele><time>2026-05-03T06:06:08.997Z</time></trkpt><trkpt lat="45.3793114614747" lon="9.902925474247576"><ele>74.0</ele><time>2026-05-03T06:06:10.997Z</time></trkpt><trkpt lat="45.379317885751895" lon="9.902772828215763"><ele>74.0</ele><time>2026-05-03T06:06:12.997Z</time></trkpt><trkpt lat="45.37933406777417" lon="9.902626092808157"><ele>74.0</ele><time>2026-05-03T06:06:14.997Z</time></trkpt><trkpt lat="45.37934258757401" lon="9.902477297969373"><ele>74.0</ele><time>2026-05-03T06:06:16.997Z</time></trkpt><trkpt lat="45.37935155816587" lon="9.902329889143621"><ele>74.0</ele><time>2026-05-03T06:06:18.997Z</time></trkpt><trkpt lat="45.3793672920865" lon="9.902192365207073"><ele>74.0</ele><time>2026-05-03T06:06:20.997Z</time></trkpt><trkpt lat="45.379364995098314" lon="9.902058220715988"><ele>74.0</ele><time>2026-05-03T06:06:22.997Z</time></trkpt><trkpt lat="45.37938299764307" lon="9.901922294547731"><ele>74.0</ele><time>2026-05-03T06:06:24.997Z</time></trkpt><trkpt lat="45.37939922635946" lon="9.901799706047072"><ele>74.0</ele><time>2026-05-03T06:06:26.997Z</time></trkpt><trkpt lat="45.37938861018063" lon="9.901682755534475"><ele>73.8</ele><time>2026-05-03T06:06:28.997Z</time></trkpt><trkpt lat="45.379405557218625" lon="9.901548512539067"><ele>73.60000000000001</ele><time>2026-05-03T06:06:30.997Z</time></trkpt><trkpt lat="45.37941595197717" lon="9.901438733409101"><ele>73.4</ele><time>2026-05-03T06:06:32.996Z</time></trkpt><trkpt lat="45.37943688274909" lon="9.90128414735608"><ele>73.2</ele><time>2026-05-03T06:06:34.996Z</time></trkpt><trkpt lat="45.37946443305628" lon="9.901150516087489"><ele>73.0</ele><time>2026-05-03T06:06:36.996Z</time></trkpt><trkpt lat="45.379475308375525" lon="9.901013397117811"><ele>73.4</ele><time>2026-05-03T06:06:38.996Z</time></trkpt><trkpt lat="45.37949462375595" lon="9.900871909053677"><ele>73.8</ele><time>2026-05-03T06:06:40.996Z</time></trkpt><trkpt lat="45.37950585948905" lon="9.90070887392961"><ele>74.2</ele><time>2026-05-03T06:06:42.996Z</time></trkpt><trkpt lat="45.37951151276175" lon="9.900549773879447"><ele>74.6</ele><time>2026-05-03T06:06:44.996Z</time></trkpt><trkpt lat="45.37950855029598" lon="9.900402118995048"><ele>75.0</ele><time>2026-05-03T06:06:46.996Z</time></trkpt><trkpt lat="45.379514369330174" lon="9.900256304475418"><ele>75.0</ele><time>2026-05-03T06:06:48.996Z</time></trkpt><trkpt lat="45.3795085270611" lon="9.900110457895863"><ele>75.0</ele><time>2026-05-03T06:06:50.996Z</time></trkpt><trkpt lat="45.37951522418795" lon="9.899957647856048"><ele>75.0</ele><time>2026-05-03T06:06:52.996Z</time></trkpt><trkpt lat="45.379526044978064" lon="9.899816404850261"><ele>75.0</ele><time>2026-05-03T06:06:54.996Z</time></trkpt><trkpt lat="45.37953434397668" lon="9.899689422269297"><ele>75.0</ele><time>2026-05-03T06:06:56.996Z</time></trkpt><trkpt lat="45.379538095530314" lon="9.899568263911437"><ele>75.0</ele><time>2026-05-03T06:06:58.996Z</time></trkpt><trkpt lat="45.37954289034107" lon="9.899441053688475"><ele>75.0</ele><time>2026-05-03T06:07:00.996Z</time></trkpt><trkpt lat="45.379566011459055" lon="9.899298780539759"><ele>75.0</ele><time>2026-05-03T06:07:02.996Z</time></trkpt><trkpt lat="45.37957435525948" lon="9.899142733427064"><ele>75.0</ele><time>2026-05-03T06:07:04.996Z</time></trkpt><trkpt lat="45.379562887817556" lon="9.899051708178712"><ele>75.0</ele><time>2026-05-03T06:07:05.996Z</time></trkpt><trkpt lat="45.379543793038344" lon="9.89895511830903"><ele>75.0</ele><time>2026-05-03T06:07:06.996Z</time></trkpt><trkpt lat="45.379524721188695" lon="9.898858544872388"><ele>75.0</ele><time>2026-05-03T06:07:07.996Z</time></trkpt><trkpt lat="45.37949895977586" lon="9.89874605165069"><ele>75.0</ele><time>2026-05-03T06:07:08.996Z</time></trkpt><trkpt lat="45.379478492025484" lon="9.898628409715531"><ele>75.0</ele><time>2026-05-03T06:07:09.996Z</time></trkpt><trkpt lat="45.379430836321745" lon="9.898510415774282"><ele>75.0</ele><time>2026-05-03T06:07:10.996Z</time></trkpt><trkpt lat="45.379403385100666" lon="9.898402439616314"><ele>75.0</ele><time>2026-05-03T06:07:11.996Z</time></trkpt><trkpt lat="45.379381624754416" lon="9.898287562421732"><ele>75.0</ele><time>2026-05-03T06:07:12.996Z</time></trkpt><trkpt lat="45.379352986920836" lon="9.898168158545484"><ele>73.8</ele><time>2026-05-03T06:07:13.996Z</time></trkpt><trkpt lat="45.379331059329246" lon="9.89804319715655"><ele>72.6</ele><time>2026-05-03T06:07:14.996Z</time></trkpt><trkpt lat="45.379311717005535" lon="9.897934008225642"><ele>71.4</ele><time>2026-05-03T06:07:15.996Z</time></trkpt><trkpt lat="45.37933429044899" lon="9.897833192211216"><ele>70.2</ele><time>2026-05-03T06:07:16.996Z</time></trkpt><trkpt lat="45.379330700083564" lon="9.897726273401444"><ele>69.0</ele><time>2026-05-03T06:07:17.996Z</time></trkpt><trkpt lat="45.37917948759728" lon="9.897639373850796"><ele>68.33333333333333</ele><time>2026-05-03T06:07:18.996Z</time></trkpt><trkpt lat="45.37914934721094" lon="9.89754420631346"><ele>67.66666666666667</ele><time>2026-05-03T06:07:19.996Z</time></trkpt><trkpt lat="45.37911972438081" lon="9.897446650360797"><ele>67.0</ele><time>2026-05-03T06:07:20.996Z</time></trkpt><trkpt lat="45.37909578463456" lon="9.897359060227636"><ele>66.33333333333334</ele><time>2026-05-03T06:07:21.996Z</time></trkpt><trkpt lat="45.379068020254536" lon="9.897272491974839"><ele>65.66666666666667</ele><time>2026-05-03T06:07:22.996Z</time></trkpt><trkpt lat="45.37901651412484" lon="9.897120787558283"><ele>65.0</ele><time>2026-05-03T06:07:24.996Z</time></trkpt><trkpt lat="45.378965811379665" lon="9.896973401739325"><ele>65.0</ele><time>2026-05-03T06:07:26.996Z</time></trkpt><trkpt lat="45.378920210364285" lon="9.896831195508053"><ele>65.0</ele><time>2026-05-03T06:07:28.996Z</time></trkpt><trkpt lat="45.37888555719365" lon="9.896686412932727"><ele>65.0</ele><time>2026-05-03T06:07:30.996Z</time></trkpt><trkpt lat="45.37883624671256" lon="9.896546469009404"><ele>65.0</ele><time>2026-05-03T06:07:32.996Z</time></trkpt><trkpt lat="45.37879083623595" lon="9.896410701396702"><ele>65.0</ele><time>2026-05-03T06:07:34.996Z</time></trkpt><trkpt lat="45.37874550640591" lon="9.896266663070381"><ele>64.8</ele><time>2026-05-03T06:07:36.995Z</time></trkpt><trkpt lat="45.37869207889469" lon="9.89611765819391"><ele>64.6</ele><time>2026-05-03T06:07:38.996Z</time></trkpt><trkpt lat="45.37865451195206" lon="9.895963487042023"><ele>64.4</ele><time>2026-05-03T06:07:40.997Z</time></trkpt><trkpt lat="45.37861599387285" lon="9.895826029405901"><ele>64.2</ele><time>2026-05-03T06:07:42.997Z</time></trkpt><trkpt lat="45.37857211135069" lon="9.895694918890804"><ele>64.0</ele><time>2026-05-03T06:07:44.997Z</time></trkpt><trkpt lat="45.37850702154416" lon="9.895595556486569"><ele>63.666666666666664</ele><time>2026-05-03T06:07:46.996Z</time></trkpt><trkpt lat="45.378436332393775" lon="9.895557700923279"><ele>63.33333333333333</ele><time>2026-05-03T06:07:48.997Z</time></trkpt><trkpt lat="45.378371679313034" lon="9.89553862339522"><ele>63.0</ele><time>2026-05-03T06:07:50.996Z</time></trkpt><trkpt lat="45.378298815837844" lon="9.895512011160783"><ele>62.66666666666667</ele><time>2026-05-03T06:07:52.996Z</time></trkpt><trkpt lat="45.37821189662246" lon="9.895485580492123"><ele>62.333333333333336</ele><time>2026-05-03T06:07:54.996Z</time></trkpt><trkpt lat="45.37811407365589" lon="9.895475829556348"><ele>62.0</ele><time>2026-05-03T06:07:56.996Z</time></trkpt><trkpt lat="45.37802760558435" lon="9.895458292351462"><ele>62.2</ele><time>2026-05-03T06:07:58.996Z</time></trkpt><trkpt lat="45.37793419122204" lon="9.895438361712754"><ele>62.400000000000006</ele><time>2026-05-03T06:08:00.996Z</time></trkpt><trkpt lat="45.37784261536606" lon="9.895418205559723"><ele>62.599999999999994</ele><time>2026-05-03T06:08:02.996Z</time></trkpt><trkpt lat="45.377741412427135" lon="9.895406139033335"><ele>62.8</ele><time>2026-05-03T06:08:04.996Z</time></trkpt><trkpt lat="45.377656822725356" lon="9.895405165512924"><ele>63.0</ele><time>2026-05-03T06:08:06.996Z</time></trkpt><trkpt lat="45.37756631095608" lon="9.895394434062185"><ele>63.0</ele><time>2026-05-03T06:08:08.996Z</time></trkpt><trkpt lat="45.3774838128519" lon="9.89536409832508"><ele>63.0</ele><time>2026-05-03T06:08:10.996Z</time></trkpt><trkpt lat="45.377383165075216" lon="9.89532881343315"><ele>63.0</ele><time>2026-05-03T06:08:12.996Z</time></trkpt><trkpt lat="45.37728305512208" lon="9.895311854417017"><ele>63.0</ele><time>2026-05-03T06:08:14.996Z</time></trkpt><trkpt lat="45.37719410279572" lon="9.89529208887208"><ele>63.0</ele><time>2026-05-03T06:08:16.996Z</time></trkpt><trkpt lat="45.377093073462625" lon="9.895265222503722"><ele>63.2</ele><time>2026-05-03T06:08:18.996Z</time></trkpt><trkpt lat="45.37699794338338" lon="9.89524546840018"><ele>63.4</ele><time>2026-05-03T06:08:20.996Z</time></trkpt><trkpt lat="45.376887879970084" lon="9.895221196669633"><ele>63.60000000000001</ele><time>2026-05-03T06:08:22.996Z</time></trkpt><trkpt lat="45.37678833559479" lon="9.89519888600416"><ele>63.800000000000004</ele><time>2026-05-03T06:08:24.996Z</time></trkpt><trkpt lat="45.37668849155202" lon="9.895180581500817"><ele>64.0</ele><time>2026-05-03T06:08:26.996Z</time></trkpt><trkpt lat="45.37658957901838" lon="9.895167046005483"><ele>64.0</ele><time>2026-05-03T06:08:28.996Z</time></trkpt><trkpt lat="45.37649406405434" lon="9.895137871709512"><ele>64.0</ele><time>2026-05-03T06:08:30.996Z</time></trkpt><trkpt lat="45.37640576534099" lon="9.895118177953597"><ele>64.0</ele><time>2026-05-03T06:08:32.996Z</time></trkpt><trkpt lat="45.37631353653736" lon="9.89509491210852"><ele>64.0</ele><time>2026-05-03T06:08:34.996Z</time></trkpt><trkpt lat="45.37621936548376" lon="9.895079503947187"><ele>64.0</ele><time>2026-05-03T06:08:36.996Z</time></trkpt><trkpt lat="45.37612881115426" lon="9.895045375196576"><ele>63.6</ele><time>2026-05-03T06:08:38.996Z</time></trkpt><trkpt lat="45.376068380513644" lon="9.894956947593286"><ele>63.2</ele><time>2026-05-03T06:08:40.996Z</time></trkpt><trkpt lat="45.37601980206999" lon="9.894834907748578"><ele>62.800000000000004</ele><time>2026-05-03T06:08:42.996Z</time></trkpt><trkpt lat="45.37599155946891" lon="9.894705977235969"><ele>62.400000000000006</ele><time>2026-05-03T06:08:44.996Z</time></trkpt><trkpt lat="45.375965350902774" lon="9.894578854376812"><ele>62.0</ele><time>2026-05-03T06:08:46.996Z</time></trkpt><trkpt lat="45.375939787001485" lon="9.894448609164462"><ele>62.0</ele><time>2026-05-03T06:08:48.995Z</time></trkpt><trkpt lat="45.375912829367145" lon="9.894314121194869"><ele>62.0</ele><time>2026-05-03T06:08:50.995Z</time></trkpt><trkpt lat="45.37588845781708" lon="9.894183200372456"><ele>62.0</ele><time>2026-05-03T06:08:52.995Z</time></trkpt><trkpt lat="45.375854360534476" lon="9.894042467280702"><ele>62.0</ele><time>2026-05-03T06:08:54.995Z</time></trkpt><trkpt lat="45.37583391657116" lon="9.893899713864972"><ele>62.0</ele><time>2026-05-03T06:08:56.995Z</time></trkpt><trkpt lat="45.37579693833889" lon="9.893772226071643"><ele>62.0</ele><time>2026-05-03T06:08:58.995Z</time></trkpt><trkpt lat="45.3757615118506" lon="9.893661130474134"><ele>62.0</ele><time>2026-05-03T06:09:00.995Z</time></trkpt><trkpt lat="45.375684602734054" lon="9.893559301033005"><ele>62.0</ele><time>2026-05-03T06:09:02.995Z</time></trkpt><trkpt lat="45.37558462939867" lon="9.893518724967729"><ele>62.0</ele><time>2026-05-03T06:09:04.995Z</time></trkpt><trkpt lat="45.3754871854843" lon="9.893525356389816"><ele>62.0</ele><time>2026-05-03T06:09:06.995Z</time></trkpt><trkpt lat="45.375376073963224" lon="9.893522323269247"><ele>61.8</ele><time>2026-05-03T06:09:08.995Z</time></trkpt><trkpt lat="45.375291819701346" lon="9.893505508880589"><ele>61.6</ele><time>2026-05-03T06:09:10.995Z</time></trkpt><trkpt lat="45.37518445215701" lon="9.893487897069914"><ele>61.39999999999999</ele><time>2026-05-03T06:09:12.995Z</time></trkpt><trkpt lat="45.375077974371465" lon="9.893466948060587"><ele>61.199999999999996</ele><time>2026-05-03T06:09:14.995Z</time></trkpt><trkpt lat="45.37497664683729" lon="9.893446971340687"><ele>61.0</ele><time>2026-05-03T06:09:16.995Z</time></trkpt><trkpt lat="45.374878413950036" lon="9.893426341965323"><ele>60.8</ele><time>2026-05-03T06:09:18.995Z</time></trkpt><trkpt lat="45.37477985601823" lon="9.89340136850652"><ele>60.599999999999994</ele><time>2026-05-03T06:09:20.995Z</time></trkpt><trkpt lat="45.37467802402196" lon="9.893356722789779"><ele>60.4</ele><time>2026-05-03T06:09:22.995Z</time></trkpt><trkpt lat="45.37457401110241" lon="9.893342791540592"><ele>60.2</ele><time>2026-05-03T06:09:24.995Z</time></trkpt><trkpt lat="45.37447145041179" lon="9.893330765772244"><ele>60.0</ele><time>2026-05-03T06:09:26.995Z</time></trkpt><trkpt lat="45.37439240906168" lon="9.89331896361143"><ele>60.0</ele><time>2026-05-03T06:09:28.995Z</time></trkpt><trkpt lat="45.3743117635051" lon="9.893296673597082"><ele>60.0</ele><time>2026-05-03T06:09:30.995Z</time></trkpt><trkpt lat="45.37421265170593" lon="9.89324942285646"><ele>60.0</ele><time>2026-05-03T06:09:32.995Z</time></trkpt><trkpt lat="45.374124916264435" lon="9.89321082866185"><ele>60.0</ele><time>2026-05-03T06:09:34.995Z</time></trkpt><trkpt lat="45.37402788278595" lon="9.893163622543504"><ele>60.0</ele><time>2026-05-03T06:09:36.995Z</time></trkpt><trkpt lat="45.37393565483181" lon="9.893111508220827"><ele>60.2</ele><time>2026-05-03T06:09:38.995Z</time></trkpt><trkpt lat="45.373847910539226" lon="9.893058150812521"><ele>60.4</ele><time>2026-05-03T06:09:40.995Z</time></trkpt><trkpt lat="45.37376205291859" lon="9.892995328596689"><ele>60.599999999999994</ele><time>2026-05-03T06:09:42.995Z</time></trkpt><trkpt lat="45.373668717917276" lon="9.892944783506975"><ele>60.8</ele><time>2026-05-03T06:09:44.996Z</time></trkpt><trkpt lat="45.37357189556963" lon="9.892847600688961"><ele>61.0</ele><time>2026-05-03T06:09:46.996Z</time></trkpt><trkpt lat="45.37347670167294" lon="9.892758177349839"><ele>61.0</ele><time>2026-05-03T06:09:48.996Z</time></trkpt><trkpt lat="45.37337930362905" lon="9.892655366751251"><ele>60.99999999999999</ele><time>2026-05-03T06:09:50.996Z</time></trkpt><trkpt lat="45.373293532058675" lon="9.892558552928472"><ele>60.99999999999999</ele><time>2026-05-03T06:09:52.996Z</time></trkpt><trkpt lat="45.37321313362058" lon="9.892454893010125"><ele>61.0</ele><time>2026-05-03T06:09:54.996Z</time></trkpt><trkpt lat="45.373144689261935" lon="9.892344396246223"><ele>61.0</ele><time>2026-05-03T06:09:56.997Z</time></trkpt><trkpt lat="45.373079696672214" lon="9.892225497008084"><ele>61.0</ele><time>2026-05-03T06:09:58.997Z</time></trkpt><trkpt lat="45.373037700845806" lon="9.892126208734282"><ele>60.99999999999999</ele><time>2026-05-03T06:10:00.997Z</time></trkpt><trkpt lat="45.372989503195775" lon="9.892004360852102"><ele>60.99999999999999</ele><time>2026-05-03T06:10:02.996Z</time></trkpt><trkpt lat="45.3729359024713" lon="9.891875442739103"><ele>61.0</ele><time>2026-05-03T06:10:04.996Z</time></trkpt><trkpt lat="45.37289267599264" lon="9.891750490394351"><ele>61.0</ele><time>2026-05-03T06:10:06.996Z</time></trkpt><trkpt lat="45.37283789204683" lon="9.891621884537386"><ele>60.99999999999999</ele><time>2026-05-03T06:10:08.996Z</time></trkpt><trkpt lat="45.37280294040877" lon="9.891524308210764"><ele>61.0</ele><time>2026-05-03T06:10:10.996Z</time></trkpt><trkpt lat="45.37275947107574" lon="9.891423709343332"><ele>61.0</ele><time>2026-05-03T06:10:12.996Z</time></trkpt><trkpt lat="45.37269265659445" lon="9.891335549073416"><ele>61.0</ele><time>2026-05-03T06:10:14.996Z</time></trkpt><trkpt lat="45.372613597344206" lon="9.891264719319082"><ele>60.99999999999999</ele><time>2026-05-03T06:10:16.996Z</time></trkpt><trkpt lat="45.37255242854276" lon="9.891167488290924"><ele>61.0</ele><time>2026-05-03T06:10:18.996Z</time></trkpt><trkpt lat="45.372498895138285" lon="9.891061895156156"><ele>61.0</ele><time>2026-05-03T06:10:20.996Z</time></trkpt><trkpt lat="45.372436324961086" lon="9.89094043988682"><ele>60.99999999999999</ele><time>2026-05-03T06:10:22.996Z</time></trkpt><trkpt lat="45.3723850120074" lon="9.890852970116262"><ele>60.99999999999999</ele><time>2026-05-03T06:10:24.996Z</time></trkpt><trkpt lat="45.37232463585116" lon="9.890726729151568"><ele>61.0</ele><time>2026-05-03T06:10:26.996Z</time></trkpt><trkpt lat="45.3722675292524" lon="9.890603249927024"><ele>61.0</ele><time>2026-05-03T06:10:28.996Z</time></trkpt><trkpt lat="45.37221768627882" lon="9.890473400963796"><ele>61.199999999999996</ele><time>2026-05-03T06:10:30.996Z</time></trkpt><trkpt lat="45.372171794379284" lon="9.89035443727438"><ele>61.39999999999999</ele><time>2026-05-03T06:10:32.996Z</time></trkpt><trkpt lat="45.37212291966867" lon="9.890236666970045"><ele>61.6</ele><time>2026-05-03T06:10:34.996Z</time></trkpt><trkpt lat="45.37209895623678" lon="9.890081822799576"><ele>61.8</ele><time>2026-05-03T06:10:36.996Z</time></trkpt><trkpt lat="45.37206193776821" lon="9.889928431789857"><ele>62.0</ele><time>2026-05-03T06:10:38.996Z</time></trkpt><trkpt lat="45.37202572533196" lon="9.8898056073532"><ele>62.00000000000001</ele><time>2026-05-03T06:10:40.996Z</time></trkpt><trkpt lat="45.37197471078265" lon="9.889716759186362"><ele>62.0</ele><time>2026-05-03T06:10:43.996Z</time></trkpt><trkpt lat="45.37189514516986" lon="9.889674577813725"><ele>62.0</ele><time>2026-05-03T06:10:46.996Z</time></trkpt><trkpt lat="45.37181600203" lon="9.88961105066233"><ele>62.0</ele><time>2026-05-03T06:10:50.996Z</time></trkpt><trkpt lat="45.37171378025078" lon="9.889609479540342"><ele>62.00000000000001</ele><time>2026-05-03T06:10:53.996Z</time></trkpt><trkpt lat="45.37164255052075" lon="9.889559206906972"><ele>62.0</ele><time>2026-05-03T06:10:56.996Z</time></trkpt><trkpt lat="45.37158467535053" lon="9.889495173671747"><ele>62.00000000000001</ele><time>2026-05-03T06:10:59.996Z</time></trkpt><trkpt lat="45.371490993165494" lon="9.889424680105574"><ele>62.0</ele><time>2026-05-03T06:11:01.996Z</time></trkpt><trkpt lat="45.371394794138865" lon="9.889401399620581"><ele>62.0</ele><time>2026-05-03T06:11:04.995Z</time></trkpt><trkpt lat="45.37132943584958" lon="9.889374182013022"><ele>62.0</ele><time>2026-05-03T06:11:06.995Z</time></trkpt><trkpt lat="45.37125007614435" lon="9.889317137032211"><ele>62.00000000000001</ele><time>2026-05-03T06:11:08.995Z</time></trkpt><trkpt lat="45.371181419347636" lon="9.88925298193895"><ele>62.0</ele><time>2026-05-03T06:11:10.995Z</time></trkpt><trkpt lat="45.37111070495052" lon="9.889171431303744"><ele>62.42857142857143</ele><time>2026-05-03T06:11:13.995Z</time></trkpt><trkpt lat="45.371116270574355" lon="9.889069568795136"><ele>62.85714285714286</ele><time>2026-05-03T06:11:15.995Z</time></trkpt><trkpt lat="45.37109421926821" lon="9.888958396755731"><ele>63.28571428571429</ele><time>2026-05-03T06:11:17.995Z</time></trkpt><trkpt lat="45.37104331711476" lon="9.888884212582148"><ele>63.71428571428572</ele><time>2026-05-03T06:11:19.995Z</time></trkpt><trkpt lat="45.37100466362591" lon="9.888782070141463"><ele>64.14285714285714</ele><time>2026-05-03T06:11:21.995Z</time></trkpt><trkpt lat="45.370990277010506" lon="9.888682686860195"><ele>64.57142857142858</ele><time>2026-05-03T06:11:23.995Z</time></trkpt><trkpt lat="45.370958689696984" lon="9.888602707274146"><ele>65.0</ele><time>2026-05-03T06:11:25.995Z</time></trkpt><trkpt lat="45.37089746919003" lon="9.888505429346324"><ele>64.5</ele><time>2026-05-03T06:11:27.995Z</time></trkpt><trkpt lat="45.37084427277395" lon="9.888422008795219"><ele>64.0</ele><time>2026-05-03T06:11:30.995Z</time></trkpt><trkpt lat="45.37074816152149" lon="9.888363272912875"><ele>63.5</ele><time>2026-05-03T06:11:33.995Z</time></trkpt><trkpt lat="45.37067487734884" lon="9.888297670223112"><ele>63.0</ele><time>2026-05-03T06:11:35.995Z</time></trkpt><trkpt lat="45.370621367317845" lon="9.88820039604904"><ele>62.50000000000001</ele><time>2026-05-03T06:11:37.995Z</time></trkpt><trkpt lat="45.37061233371773" lon="9.888098522589486"><ele>62.0</ele><time>2026-05-03T06:11:39.995Z</time></trkpt><trkpt lat="45.370562936330835" lon="9.887991550814052"><ele>62.50000000000001</ele><time>2026-05-03T06:11:41.995Z</time></trkpt><trkpt lat="45.370501259313265" lon="9.887946700355801"><ele>63.0</ele><time>2026-05-03T06:11:43.995Z</time></trkpt><trkpt lat="45.370411618737485" lon="9.887920760545553"><ele>63.5</ele><time>2026-05-03T06:11:45.995Z</time></trkpt><trkpt lat="45.37034699780045" lon="9.887919142775706"><ele>64.0</ele><time>2026-05-03T06:11:46.995Z</time></trkpt><trkpt lat="45.3702535813378" lon="9.887908979718526"><ele>64.5</ele><time>2026-05-03T06:11:48.995Z</time></trkpt><trkpt lat="45.37019035809815" lon="9.887901125515421"><ele>65.0</ele><time>2026-05-03T06:11:49.996Z</time></trkpt><trkpt lat="45.37009003391668" lon="9.887899492446778"><ele>65.0</ele><time>2026-05-03T06:11:51.996Z</time></trkpt><trkpt lat="45.36998410217736" lon="9.8878934741072"><ele>65.0</ele><time>2026-05-03T06:11:53.996Z</time></trkpt><trkpt lat="45.369883629558956" lon="9.887892072741053"><ele>65.0</ele><time>2026-05-03T06:11:55.996Z</time></trkpt><trkpt lat="45.36980293070574" lon="9.887962862284256"><ele>65.0</ele><time>2026-05-03T06:11:57.996Z</time></trkpt><trkpt lat="45.36973926093464" lon="9.887992332196006"><ele>65.0</ele><time>2026-05-03T06:11:58.996Z</time></trkpt><trkpt lat="45.36963924024929" lon="9.88801019476941"><ele>64.66666666666667</ele><time>2026-05-03T06:12:00.996Z</time></trkpt><trkpt lat="45.369555737959" lon="9.887964305688817"><ele>64.33333333333334</ele><time>2026-05-03T06:12:02.996Z</time></trkpt><trkpt lat="45.36945269703564" lon="9.887885497639797"><ele>64.0</ele><time>2026-05-03T06:12:04.996Z</time></trkpt><trkpt lat="45.369379134773276" lon="9.88789444942397"><ele>63.66666666666667</ele><time>2026-05-03T06:12:05.996Z</time></trkpt><trkpt lat="45.36932053379368" lon="9.887929852663566"><ele>63.333333333333336</ele><time>2026-05-03T06:12:06.996Z</time></trkpt><trkpt lat="45.36925446768761" lon="9.887962100033263"><ele>63.0</ele><time>2026-05-03T06:12:07.996Z</time></trkpt><trkpt lat="45.369186756023765" lon="9.88798633417329"><ele>63.0</ele><time>2026-05-03T06:12:08.996Z</time></trkpt><trkpt lat="45.36906452269202" lon="9.88803023676729"><ele>63.0</ele><time>2026-05-03T06:12:10.996Z</time></trkpt><trkpt lat="45.36893812385331" lon="9.888060019125382"><ele>63.0</ele><time>2026-05-03T06:12:12.996Z</time></trkpt><trkpt lat="45.368832225498856" lon="9.8880915656857"><ele>63.0</ele><time>2026-05-03T06:12:14.996Z</time></trkpt><trkpt lat="45.36875935037959" lon="9.888127107812828"><ele>63.0</ele><time>2026-05-03T06:12:16.996Z</time></trkpt><trkpt lat="45.36865491131684" lon="9.888116438929037"><ele>63.0</ele><time>2026-05-03T06:12:18.996Z</time></trkpt><trkpt lat="45.36855259027305" lon="9.888105682987222"><ele>63.0</ele><time>2026-05-03T06:12:20.995Z</time></trkpt><trkpt lat="45.36846795580112" lon="9.88809735025813"><ele>63.0</ele><time>2026-05-03T06:12:22.995Z</time></trkpt><trkpt lat="45.36837964165244" lon="9.88809034846146"><ele>63.0</ele><time>2026-05-03T06:12:24.995Z</time></trkpt><trkpt lat="45.3682818122568" lon="9.888096149449032"><ele>63.0</ele><time>2026-05-03T06:12:26.995Z</time></trkpt><trkpt lat="45.36817969963423" lon="9.888105922958601"><ele>63.0</ele><time>2026-05-03T06:12:28.995Z</time></trkpt><trkpt lat="45.36808569362118" lon="9.888114200157327"><ele>63.0</ele><time>2026-05-03T06:12:30.995Z</time></trkpt><trkpt lat="45.368005068573126" lon="9.888146647927416"><ele>63.0</ele><time>2026-05-03T06:12:32.995Z</time></trkpt><trkpt lat="45.367911396087116" lon="9.88819999158211"><ele>63.0</ele><time>2026-05-03T06:12:34.995Z</time></trkpt><trkpt lat="45.36782823089128" lon="9.888260376824855"><ele>63.0</ele><time>2026-05-03T06:12:36.995Z</time></trkpt><trkpt lat="45.36774601307528" lon="9.888316491814718"><ele>63.0</ele><time>2026-05-03T06:12:38.995Z</time></trkpt><trkpt lat="45.36767556407107" lon="9.888372567251258"><ele>63.0</ele><time>2026-05-03T06:12:40.995Z</time></trkpt><trkpt lat="45.36757662943757" lon="9.888407436016676"><ele>63.0</ele><time>2026-05-03T06:12:42.995Z</time></trkpt><trkpt lat="45.36748213212873" lon="9.88844927330256"><ele>63.0</ele><time>2026-05-03T06:12:44.995Z</time></trkpt><trkpt lat="45.367411024547" lon="9.888475082373127"><ele>63.0</ele><time>2026-05-03T06:12:46.995Z</time></trkpt><trkpt lat="45.367292645951494" lon="9.88853061735592"><ele>63.0</ele><time>2026-05-03T06:12:48.995Z</time></trkpt><trkpt lat="45.36719568873009" lon="9.888560721843318"><ele>63.0</ele><time>2026-05-03T06:12:50.995Z</time></trkpt><trkpt lat="45.36710680217142" lon="9.888576891620653"><ele>63.0</ele><time>2026-05-03T06:12:52.995Z</time></trkpt><trkpt lat="45.367024007285096" lon="9.888607191397895"><ele>63.0</ele><time>2026-05-03T06:12:54.995Z</time></trkpt><trkpt lat="45.36696912511384" lon="9.888661139833653"><ele>63.0</ele><time>2026-05-03T06:12:56.995Z</time></trkpt><trkpt lat="45.366916472838135" lon="9.888768977332635"><ele>63.0</ele><time>2026-05-03T06:12:59.995Z</time></trkpt><trkpt lat="45.36687032479576" lon="9.888831593048966"><ele>62.5</ele><time>2026-05-03T06:13:01.995Z</time></trkpt><trkpt lat="45.36681730867712" lon="9.888893468094832"><ele>62.0</ele><time>2026-05-03T06:13:04.995Z</time></trkpt><trkpt lat="45.36673079897246" lon="9.88894555964774"><ele>61.5</ele><time>2026-05-03T06:13:08.995Z</time></trkpt><trkpt lat="45.36664773790612" lon="9.888953446297723"><ele>61.0</ele><time>2026-05-03T06:13:10.995Z</time></trkpt><trkpt lat="45.36657190728915" lon="9.888962191320285"><ele>60.5</ele><time>2026-05-03T06:13:12.995Z</time></trkpt><trkpt lat="45.36649406812368" lon="9.888966538282466"><ele>60.0</ele><time>2026-05-03T06:13:14.995Z</time></trkpt><trkpt lat="45.36641101762806" lon="9.888889413697305"><ele>60.5</ele><time>2026-05-03T06:13:16.995Z</time></trkpt><trkpt lat="45.3663483316207" lon="9.88875236766214"><ele>61.0</ele><time>2026-05-03T06:13:18.995Z</time></trkpt><trkpt lat="45.366289976271204" lon="9.888620277628888"><ele>61.5</ele><time>2026-05-03T06:13:20.995Z</time></trkpt><trkpt lat="45.36618472457207" lon="9.888534674473288"><ele>62.0</ele><time>2026-05-03T06:13:22.995Z</time></trkpt><trkpt lat="45.3660622315635" lon="9.888513689445166"><ele>62.00000000000001</ele><time>2026-05-03T06:13:24.994Z</time></trkpt><trkpt lat="45.36599408885984" lon="9.888502144994334"><ele>62.0</ele><time>2026-05-03T06:13:25.994Z</time></trkpt><trkpt lat="45.36592579647684" lon="9.888490562630512"><ele>62.0</ele><time>2026-05-03T06:13:26.994Z</time></trkpt><trkpt lat="45.36585929738564" lon="9.888485971958357"><ele>62.0</ele><time>2026-05-03T06:13:27.994Z</time></trkpt><trkpt lat="45.36575014087944" lon="9.888471724033163"><ele>62.00000000000001</ele><time>2026-05-03T06:13:29.994Z</time></trkpt><trkpt lat="45.36567474607563" lon="9.888467667585497"><ele>62.0</ele><time>2026-05-03T06:13:30.994Z</time></trkpt><trkpt lat="45.36560433764495" lon="9.88845708790202"><ele>62.00000000000001</ele><time>2026-05-03T06:13:31.994Z</time></trkpt><trkpt lat="45.36553937720757" lon="9.888438606206385"><ele>62.0</ele><time>2026-05-03T06:13:32.994Z</time></trkpt><trkpt lat="45.36547640559694" lon="9.888407464142166"><ele>62.0</ele><time>2026-05-03T06:13:33.994Z</time></trkpt><trkpt lat="45.36540439480907" lon="9.888375417271485"><ele>62.0</ele><time>2026-05-03T06:13:34.994Z</time></trkpt><trkpt lat="45.36527895337182" lon="9.888321871492659"><ele>62.00000000000001</ele><time>2026-05-03T06:13:36.994Z</time></trkpt><trkpt lat="45.36520803813498" lon="9.888298932914036"><ele>62.0</ele><time>2026-05-03T06:13:37.994Z</time></trkpt><trkpt lat="45.36513904106217" lon="9.88827639123124"><ele>61.833333333333336</ele><time>2026-05-03T06:13:38.994Z</time></trkpt><trkpt lat="45.36500898098771" lon="9.888235309757889"><ele>61.66666666666667</ele><time>2026-05-03T06:13:40.994Z</time></trkpt><trkpt lat="45.3649373485363" lon="9.888201040768138"><ele>61.5</ele><time>2026-05-03T06:13:41.994Z</time></trkpt><trkpt lat="45.36485500482758" lon="9.888164864950006"><ele>61.33333333333333</ele><time>2026-05-03T06:13:42.994Z</time></trkpt><trkpt lat="45.3647736025412" lon="9.888135665323109"><ele>61.166666666666664</ele><time>2026-05-03T06:13:43.994Z</time></trkpt><trkpt lat="45.364708441430736" lon="9.888122555034311"><ele>61.0</ele><time>2026-05-03T06:13:44.994Z</time></trkpt><trkpt lat="45.36463605546512" lon="9.888092226797172"><ele>60.99999999999999</ele><time>2026-05-03T06:13:45.994Z</time></trkpt><trkpt lat="45.36456403324512" lon="9.888058588263318"><ele>61.0</ele><time>2026-05-03T06:13:46.994Z</time></trkpt><trkpt lat="45.36450193392688" lon="9.888034761865747"><ele>61.0</ele><time>2026-05-03T06:13:47.994Z</time></trkpt><trkpt lat="45.364432295516295" lon="9.888011339305688"><ele>61.0</ele><time>2026-05-03T06:13:48.994Z</time></trkpt><trkpt lat="45.364361593876176" lon="9.887996072789011"><ele>60.99999999999999</ele><time>2026-05-03T06:13:49.994Z</time></trkpt><trkpt lat="45.36424626779238" lon="9.88793313082392"><ele>61.0</ele><time>2026-05-03T06:13:51.994Z</time></trkpt><trkpt lat="45.36418274752251" lon="9.887894875892181"><ele>60.99999999999999</ele><time>2026-05-03T06:13:52.994Z</time></trkpt><trkpt lat="45.36411214879939" lon="9.887856222441041"><ele>61.0</ele><time>2026-05-03T06:13:53.994Z</time></trkpt><trkpt lat="45.363994917663675" lon="9.887798694996732"><ele>61.0</ele><time>2026-05-03T06:13:55.995Z</time></trkpt><trkpt lat="45.363928450924405" lon="9.88778321532473"><ele>61.0</ele><time>2026-05-03T06:13:56.996Z</time></trkpt><trkpt lat="45.36386016349482" lon="9.887781999479817"><ele>60.99999999999999</ele><time>2026-05-03T06:13:57.996Z</time></trkpt><trkpt lat="45.36379769193933" lon="9.887796126499918"><ele>61.0</ele><time>2026-05-03T06:13:58.996Z</time></trkpt><trkpt lat="45.36371591686638" lon="9.887873639935874"><ele>61.199999999999996</ele><time>2026-05-03T06:14:00.995Z</time></trkpt><trkpt lat="45.363663633874125" lon="9.888006400622087"><ele>61.39999999999999</ele><time>2026-05-03T06:14:02.995Z</time></trkpt><trkpt lat="45.36360961631697" lon="9.8880646593945"><ele>61.6</ele><time>2026-05-03T06:14:03.995Z</time></trkpt><trkpt lat="45.363492741202656" lon="9.888087905336874"><ele>61.8</ele><time>2026-05-03T06:14:05.995Z</time></trkpt><trkpt lat="45.36340107541446" lon="9.88805698935459"><ele>62.0</ele><time>2026-05-03T06:14:07.995Z</time></trkpt><trkpt lat="45.36333973374739" lon="9.888028764995578"><ele>62.00000000000001</ele><time>2026-05-03T06:14:08.996Z</time></trkpt><trkpt lat="45.36326547513225" lon="9.888037875869419"><ele>62.0</ele><time>2026-05-03T06:14:09.996Z</time></trkpt><trkpt lat="45.36319702355921" lon="9.888062110752232"><ele>62.0</ele><time>2026-05-03T06:14:10.996Z</time></trkpt><trkpt lat="45.363133968943764" lon="9.888103018778477"><ele>62.0</ele><time>2026-05-03T06:14:11.995Z</time></trkpt><trkpt lat="45.36305000110821" lon="9.888187767070468"><ele>62.00000000000001</ele><time>2026-05-03T06:14:13.995Z</time></trkpt><trkpt lat="45.36296705224657" lon="9.888276481486173"><ele>62.0</ele><time>2026-05-03T06:14:15.995Z</time></trkpt><trkpt lat="45.36287308511846" lon="9.88829001727093"><ele>61.833333333333336</ele><time>2026-05-03T06:14:17.995Z</time></trkpt><trkpt lat="45.36277542671943" lon="9.888252650949774"><ele>61.66666666666667</ele><time>2026-05-03T06:14:20.995Z</time></trkpt><trkpt lat="45.36268183748803" lon="9.888232025832838"><ele>61.5</ele><time>2026-05-03T06:14:22.995Z</time></trkpt><trkpt lat="45.36259626394717" lon="9.888229964224966"><ele>61.33333333333333</ele><time>2026-05-03T06:14:23.995Z</time></trkpt><trkpt lat="45.362517572537435" lon="9.88819898630733"><ele>61.166666666666664</ele><time>2026-05-03T06:14:24.995Z</time></trkpt><trkpt lat="45.36245294190293" lon="9.888189263849844"><ele>61.0</ele><time>2026-05-03T06:14:25.995Z</time></trkpt><trkpt lat="45.362388434142275" lon="9.888197713447306"><ele>61.0</ele><time>2026-05-03T06:14:26.995Z</time></trkpt><trkpt lat="45.3622737739252" lon="9.888210296737773"><ele>60.99999999999999</ele><time>2026-05-03T06:14:28.995Z</time></trkpt><trkpt lat="45.36220829110284" lon="9.888205101329921"><ele>60.99999999999999</ele><time>2026-05-03T06:14:29.995Z</time></trkpt><trkpt lat="45.36209667346768" lon="9.88823672315547"><ele>61.0</ele><time>2026-05-03T06:14:31.995Z</time></trkpt><trkpt lat="45.36198534464287" lon="9.888270467778254"><ele>61.0</ele><time>2026-05-03T06:14:33.995Z</time></trkpt><trkpt lat="45.36190127940092" lon="9.888334850811852"><ele>61.0</ele><time>2026-05-03T06:14:35.995Z</time></trkpt><trkpt lat="45.36184491533999" lon="9.888376551963958"><ele>60.99999999999999</ele><time>2026-05-03T06:14:37.995Z</time></trkpt><trkpt lat="45.36176186928958" lon="9.888431043117428"><ele>60.99999999999999</ele><time>2026-05-03T06:14:39.995Z</time></trkpt><trkpt lat="45.36168447776229" lon="9.888532001654779"><ele>61.0</ele><time>2026-05-03T06:14:41.995Z</time></trkpt><trkpt lat="45.36157976601494" lon="9.88860289045648"><ele>61.0</ele><time>2026-05-03T06:14:43.995Z</time></trkpt><trkpt lat="45.36148332778974" lon="9.888677214611072"><ele>61.0</ele><time>2026-05-03T06:14:45.995Z</time></trkpt><trkpt lat="45.361410434078635" lon="9.88878457852187"><ele>60.99999999999999</ele><time>2026-05-03T06:14:47.995Z</time></trkpt><trkpt lat="45.36130231118896" lon="9.888843219692161"><ele>60.99999999999999</ele><time>2026-05-03T06:14:49.995Z</time></trkpt><trkpt lat="45.36123035968709" lon="9.888866823381665"><ele>61.0</ele><time>2026-05-03T06:14:50.995Z</time></trkpt><trkpt lat="45.36110742862661" lon="9.8888944101863"><ele>61.0</ele><time>2026-05-03T06:14:52.995Z</time></trkpt><trkpt lat="45.36100473225895" lon="9.88890274156295"><ele>61.199999999999996</ele><time>2026-05-03T06:14:54.995Z</time></trkpt><trkpt lat="45.36091337749149" lon="9.88885793571262"><ele>61.39999999999999</ele><time>2026-05-03T06:14:56.995Z</time></trkpt><trkpt lat="45.36080498742522" lon="9.888780496387508"><ele>61.6</ele><time>2026-05-03T06:14:58.995Z</time></trkpt><trkpt lat="45.360679535560486" lon="9.888802999912699"><ele>61.8</ele><time>2026-05-03T06:15:00.995Z</time></trkpt><trkpt lat="45.360580565875104" lon="9.888828457948367"><ele>62.0</ele><time>2026-05-03T06:15:02.995Z</time></trkpt><trkpt lat="45.36047253178279" lon="9.888849871075863"><ele>62.6</ele><time>2026-05-03T06:15:04.995Z</time></trkpt><trkpt lat="45.36038212682515" lon="9.888823519544115"><ele>63.2</ele><time>2026-05-03T06:15:06.995Z</time></trkpt><trkpt lat="45.36028650229482" lon="9.888837912770942"><ele>63.8</ele><time>2026-05-03T06:15:08.995Z</time></trkpt><trkpt lat="45.36021109564184" lon="9.88887170917773"><ele>64.4</ele><time>2026-05-03T06:15:10.995Z</time></trkpt><trkpt lat="45.36014024854332" lon="9.888838302241723"><ele>65.0</ele><time>2026-05-03T06:15:13.995Z</time></trkpt><trkpt lat="45.36006759343862" lon="9.888717254420124"><ele>65.0</ele><time>2026-05-03T06:15:15.994Z</time></trkpt><trkpt lat="45.35996350066967" lon="9.888639504289543"><ele>65.0</ele><time>2026-05-03T06:15:17.994Z</time></trkpt><trkpt lat="45.35986243465807" lon="9.88857298861135"><ele>65.0</ele><time>2026-05-03T06:15:19.994Z</time></trkpt><trkpt lat="45.35975919184651" lon="9.888539863741357"><ele>65.0</ele><time>2026-05-03T06:15:21.994Z</time></trkpt><trkpt lat="45.35968226712287" lon="9.888427058675811"><ele>65.0</ele><time>2026-05-03T06:15:23.994Z</time></trkpt><trkpt lat="45.35962053437444" lon="9.888306322833547"><ele>65.0</ele><time>2026-05-03T06:15:25.994Z</time></trkpt><trkpt lat="45.359561006759684" lon="9.888169201807445"><ele>65.0</ele><time>2026-05-03T06:15:27.994Z</time></trkpt><trkpt lat="45.359521772385726" lon="9.88803111248808"><ele>65.0</ele><time>2026-05-03T06:15:29.994Z</time></trkpt><trkpt lat="45.35950442571184" lon="9.88791087410474"><ele>65.0</ele><time>2026-05-03T06:15:31.994Z</time></trkpt><trkpt lat="45.35947145059391" lon="9.88779578834277"><ele>65.0</ele><time>2026-05-03T06:15:33.994Z</time></trkpt><trkpt lat="45.35940969138863" lon="9.887707640738755"><ele>64.25</ele><time>2026-05-03T06:15:35.994Z</time></trkpt><trkpt lat="45.35930701526325" lon="9.8875296287502"><ele>63.5</ele><time>2026-05-03T06:15:38.994Z</time></trkpt><trkpt lat="45.35922650739912" lon="9.887426166026753"><ele>62.75</ele><time>2026-05-03T06:15:40.994Z</time></trkpt><trkpt lat="45.35915394014757" lon="9.887324932901585"><ele>62.0</ele><time>2026-05-03T06:15:42.994Z</time></trkpt><trkpt lat="45.35907980911479" lon="9.887230507616762"><ele>62.0</ele><time>2026-05-03T06:15:44.994Z</time></trkpt><trkpt lat="45.35902111560405" lon="9.887141785418304"><ele>62.0</ele><time>2026-05-03T06:15:46.994Z</time></trkpt><trkpt lat="45.35895626828753" lon="9.887013882031946"><ele>62.0</ele><time>2026-05-03T06:15:48.994Z</time></trkpt><trkpt lat="45.35887673610137" lon="9.886932546862168"><ele>62.0</ele><time>2026-05-03T06:15:50.994Z</time></trkpt><trkpt lat="45.35877046163827" lon="9.88682624523261"><ele>62.0</ele><time>2026-05-03T06:15:52.994Z</time></trkpt><trkpt lat="45.35868283090539" lon="9.886710115000508"><ele>61.66666666666667</ele><time>2026-05-03T06:15:54.994Z</time></trkpt><trkpt lat="45.35863127521206" lon="9.886644098028578"><ele>61.333333333333336</ele><time>2026-05-03T06:15:55.994Z</time></trkpt><trkpt lat="45.35856016836528" lon="9.886520001597859"><ele>61.0</ele><time>2026-05-03T06:15:57.994Z</time></trkpt><trkpt lat="45.35850442348234" lon="9.886472575396155"><ele>60.66666666666667</ele><time>2026-05-03T06:15:58.994Z</time></trkpt><trkpt lat="45.35840921593915" lon="9.886469179890515"><ele>60.333333333333336</ele><time>2026-05-03T06:16:00.994Z</time></trkpt><trkpt lat="45.35831301053769" lon="9.886417869976718"><ele>60.0</ele><time>2026-05-03T06:16:02.994Z</time></trkpt><trkpt lat="45.35822941150105" lon="9.886328855495108"><ele>60.0</ele><time>2026-05-03T06:16:04.995Z</time></trkpt><trkpt lat="45.35813408741556" lon="9.886310278851779"><ele>60.0</ele><time>2026-05-03T06:16:06.995Z</time></trkpt><trkpt lat="45.35805801348959" lon="9.886373499741724"><ele>60.0</ele><time>2026-05-03T06:16:08.995Z</time></trkpt><trkpt lat="45.35799827734996" lon="9.886408510841466"><ele>60.0</ele><time>2026-05-03T06:16:10.995Z</time></trkpt><trkpt lat="45.357904619676845" lon="9.886369928788525"><ele>60.0</ele><time>2026-05-03T06:16:12.995Z</time></trkpt><trkpt lat="45.357806910774165" lon="9.886304216122447"><ele>60.2</ele><time>2026-05-03T06:16:14.995Z</time></trkpt><trkpt lat="45.35772590167868" lon="9.886260584083171"><ele>60.4</ele><time>2026-05-03T06:16:16.995Z</time></trkpt><trkpt lat="45.357638998080866" lon="9.886225243614492"><ele>60.599999999999994</ele><time>2026-05-03T06:16:18.995Z</time></trkpt><trkpt lat="45.35754306118541" lon="9.886171918056933"><ele>60.8</ele><time>2026-05-03T06:16:20.995Z</time></trkpt><trkpt lat="45.35744400402501" lon="9.886219567709404"><ele>61.0</ele><time>2026-05-03T06:16:22.994Z</time></trkpt><trkpt lat="45.35738711902947" lon="9.88631240555545"><ele>61.0</ele><time>2026-05-03T06:16:24.994Z</time></trkpt><trkpt lat="45.357353491707315" lon="9.886403995448475"><ele>60.99999999999999</ele><time>2026-05-03T06:16:26.994Z</time></trkpt><trkpt lat="45.35732373958323" lon="9.886541412760378"><ele>60.99999999999999</ele><time>2026-05-03T06:16:28.994Z</time></trkpt><trkpt lat="45.35727960055513" lon="9.886668612131956"><ele>61.0</ele><time>2026-05-03T06:16:30.994Z</time></trkpt><trkpt lat="45.35724830372866" lon="9.886804677283834"><ele>61.0</ele><time>2026-05-03T06:16:32.994Z</time></trkpt><trkpt lat="45.35722272833425" lon="9.88695044597794"><ele>61.0</ele><time>2026-05-03T06:16:34.994Z</time></trkpt><trkpt lat="45.357202946168435" lon="9.887075862351562"><ele>60.99999999999999</ele><time>2026-05-03T06:16:36.994Z</time></trkpt><trkpt lat="45.357207952128086" lon="9.887221124284853"><ele>60.99999999999999</ele><time>2026-05-03T06:16:38.994Z</time></trkpt><trkpt lat="45.35721585896277" lon="9.887358078814426"><ele>61.0</ele><time>2026-05-03T06:16:40.994Z</time></trkpt><trkpt lat="45.35720650228762" lon="9.88748322169866"><ele>61.0</ele><time>2026-05-03T06:16:42.994Z</time></trkpt><trkpt lat="45.35720531855133" lon="9.88763740810379"><ele>60.599999999999994</ele><time>2026-05-03T06:16:44.994Z</time></trkpt><trkpt lat="45.35723709999698" lon="9.887776762545236"><ele>60.199999999999996</ele><time>2026-05-03T06:16:46.994Z</time></trkpt><trkpt lat="45.35728675175412" lon="9.887916419790521"><ele>59.800000000000004</ele><time>2026-05-03T06:16:48.994Z</time></trkpt><trkpt lat="45.357333084965155" lon="9.888043128214129"><ele>59.400000000000006</ele><time>2026-05-03T06:16:50.994Z</time></trkpt><trkpt lat="45.357388051295565" lon="9.888148897199947"><ele>59.0</ele><time>2026-05-03T06:16:52.994Z</time></trkpt><trkpt lat="45.3574390721816" lon="9.88825894906483"><ele>59.0</ele><time>2026-05-03T06:16:54.994Z</time></trkpt><trkpt lat="45.35748306495843" lon="9.888343660811977"><ele>59.00000000000001</ele><time>2026-05-03T06:16:56.994Z</time></trkpt><trkpt lat="45.35749769310304" lon="9.88847128666297"><ele>59.00000000000001</ele><time>2026-05-03T06:16:58.994Z</time></trkpt><trkpt lat="45.35749592216414" lon="9.888572297608162"><ele>59.0</ele><time>2026-05-03T06:17:00.994Z</time></trkpt><trkpt lat="45.35752923920574" lon="9.888718340238993"><ele>59.0</ele><time>2026-05-03T06:17:03.994Z</time></trkpt><trkpt lat="45.35757779179243" lon="9.8888535365498"><ele>58.6</ele><time>2026-05-03T06:17:05.994Z</time></trkpt><trkpt lat="45.35762832646638" lon="9.888979131714096"><ele>58.2</ele><time>2026-05-03T06:17:07.994Z</time></trkpt><trkpt lat="45.35765666463179" lon="9.889063050746367"><ele>57.800000000000004</ele><time>2026-05-03T06:17:08.994Z</time></trkpt><trkpt lat="45.35768531905087" lon="9.88915042662307"><ele>57.400000000000006</ele><time>2026-05-03T06:17:09.994Z</time></trkpt><trkpt lat="45.357716056708696" lon="9.889310063355396"><ele>57.0</ele><time>2026-05-03T06:17:11.994Z</time></trkpt><trkpt lat="45.35776802097836" lon="9.889442078606756"><ele>56.6</ele><time>2026-05-03T06:17:13.994Z</time></trkpt><trkpt lat="45.35784004424291" lon="9.889554799181763"><ele>56.2</ele><time>2026-05-03T06:17:15.994Z</time></trkpt><trkpt lat="45.35791014638137" lon="9.889663309458696"><ele>55.8</ele><time>2026-05-03T06:17:17.994Z</time></trkpt><trkpt lat="45.35795457380269" lon="9.889753798759228"><ele>55.4</ele><time>2026-05-03T06:17:19.994Z</time></trkpt><trkpt lat="45.35796194243912" lon="9.889854376918393"><ele>55.0</ele><time>2026-05-03T06:17:21.994Z</time></trkpt><trkpt lat="45.357956448458474" lon="9.889993905912304"><ele>54.8</ele><time>2026-05-03T06:17:23.994Z</time></trkpt><trkpt lat="45.357977461750664" lon="9.890139064668116"><ele>54.6</ele><time>2026-05-03T06:17:25.993Z</time></trkpt><trkpt lat="45.3580176250255" lon="9.890275354584588"><ele>54.400000000000006</ele><time>2026-05-03T06:17:27.993Z</time></trkpt><trkpt lat="45.35805009822714" lon="9.89040324219689"><ele>54.2</ele><time>2026-05-03T06:17:29.993Z</time></trkpt><trkpt lat="45.35807918081876" lon="9.89055767890825"><ele>54.0</ele><time>2026-05-03T06:17:31.993Z</time></trkpt><trkpt lat="45.358068865821984" lon="9.890711442114153"><ele>55.400000000000006</ele><time>2026-05-03T06:17:33.993Z</time></trkpt><trkpt lat="45.358054433927194" lon="9.890845010219762"><ele>56.800000000000004</ele><time>2026-05-03T06:17:35.993Z</time></trkpt><trkpt lat="45.358070279244465" lon="9.890992565562161"><ele>58.199999999999996</ele><time>2026-05-03T06:17:37.993Z</time></trkpt><trkpt lat="45.35808182050193" lon="9.891156175226492"><ele>59.599999999999994</ele><time>2026-05-03T06:17:39.993Z</time></trkpt><trkpt lat="45.358085421745734" lon="9.891296609663213"><ele>61.0</ele><time>2026-05-03T06:17:41.993Z</time></trkpt><trkpt lat="45.358065407870136" lon="9.89143272667735"><ele>61.0</ele><time>2026-05-03T06:17:43.993Z</time></trkpt><trkpt lat="45.35804893773038" lon="9.891572769418731"><ele>60.99999999999999</ele><time>2026-05-03T06:17:45.993Z</time></trkpt><trkpt lat="45.35806977852199" lon="9.89170681655399"><ele>60.99999999999999</ele><time>2026-05-03T06:17:47.993Z</time></trkpt><trkpt lat="45.35805962179421" lon="9.89185689909964"><ele>61.0</ele><time>2026-05-03T06:17:49.993Z</time></trkpt><trkpt lat="45.358048533791504" lon="9.892019801485352"><ele>61.0</ele><time>2026-05-03T06:17:51.993Z</time></trkpt><trkpt lat="45.35804628615692" lon="9.892147463972721"><ele>60.4</ele><time>2026-05-03T06:17:53.993Z</time></trkpt><trkpt lat="45.358008105441286" lon="9.892295319073694"><ele>59.8</ele><time>2026-05-03T06:17:55.993Z</time></trkpt><trkpt lat="45.357967127048454" lon="9.89241877827145"><ele>59.199999999999996</ele><time>2026-05-03T06:17:57.993Z</time></trkpt><trkpt lat="45.357922050274674" lon="9.89255163771949"><ele>58.599999999999994</ele><time>2026-05-03T06:18:00.993Z</time></trkpt><trkpt lat="45.35787824235163" lon="9.89269550917076"><ele>58.0</ele><time>2026-05-03T06:18:02.993Z</time></trkpt><trkpt lat="45.35784145292002" lon="9.892821653190653"><ele>58.0</ele><time>2026-05-03T06:18:04.993Z</time></trkpt><trkpt lat="45.35779832444642" lon="9.892955400211564"><ele>58.0</ele><time>2026-05-03T06:18:06.993Z</time></trkpt><trkpt lat="45.357764617920964" lon="9.893070562364695"><ele>58.0</ele><time>2026-05-03T06:18:08.994Z</time></trkpt><trkpt lat="45.357739171018764" lon="9.893217299029363"><ele>58.0</ele><time>2026-05-03T06:18:10.995Z</time></trkpt><trkpt lat="45.35772379131612" lon="9.893372703037445"><ele>58.0</ele><time>2026-05-03T06:18:12.994Z</time></trkpt><trkpt lat="45.35770765069891" lon="9.89353945905223"><ele>58.33333333333333</ele><time>2026-05-03T06:18:14.994Z</time></trkpt><trkpt lat="45.35769522857582" lon="9.893631634291527"><ele>58.666666666666664</ele><time>2026-05-03T06:18:15.994Z</time></trkpt><trkpt lat="45.357664206229884" lon="9.893787888813039"><ele>59.0</ele><time>2026-05-03T06:18:17.994Z</time></trkpt><trkpt lat="45.357623014435624" lon="9.893910963332091"><ele>59.33333333333333</ele><time>2026-05-03T06:18:19.994Z</time></trkpt><trkpt lat="45.35758598835889" lon="9.893989610987992"><ele>59.666666666666664</ele><time>2026-05-03T06:18:21.994Z</time></trkpt><trkpt lat="45.35753050045588" lon="9.894055624343466"><ele>60.0</ele><time>2026-05-03T06:18:23.994Z</time></trkpt><trkpt lat="45.3574667931553" lon="9.894103203064669"><ele>60.0</ele><time>2026-05-03T06:18:25.994Z</time></trkpt><trkpt lat="45.35738377834569" lon="9.89415230785338"><ele>60.0</ele><time>2026-05-03T06:18:27.994Z</time></trkpt><trkpt lat="45.35729831405214" lon="9.894204784321952"><ele>60.0</ele><time>2026-05-03T06:18:29.994Z</time></trkpt><trkpt lat="45.357215181537896" lon="9.894263453618894"><ele>60.0</ele><time>2026-05-03T06:18:31.994Z</time></trkpt><trkpt lat="45.35713283734759" lon="9.894320229652157"><ele>60.0</ele><time>2026-05-03T06:18:33.994Z</time></trkpt><trkpt lat="45.35704909199426" lon="9.894353356803737"><ele>61.166666666666664</ele><time>2026-05-03T06:18:35.994Z</time></trkpt><trkpt lat="45.3569686171973" lon="9.89438141281243"><ele>62.33333333333333</ele><time>2026-05-03T06:18:37.994Z</time></trkpt><trkpt lat="45.356875100129535" lon="9.894400284556761"><ele>63.5</ele><time>2026-05-03T06:18:39.994Z</time></trkpt><trkpt lat="45.356791655257105" lon="9.894424753529174"><ele>64.66666666666666</ele><time>2026-05-03T06:18:41.994Z</time></trkpt><trkpt lat="45.356709551427436" lon="9.894423032256142"><ele>65.83333333333333</ele><time>2026-05-03T06:18:43.994Z</time></trkpt><trkpt lat="45.3566362327667" lon="9.894428086092663"><ele>67.0</ele><time>2026-05-03T06:18:45.994Z</time></trkpt><trkpt lat="45.35655964433359" lon="9.894437847479896"><ele>67.0</ele><time>2026-05-03T06:18:47.994Z</time></trkpt><trkpt lat="45.35648277945318" lon="9.89444468003156"><ele>67.0</ele><time>2026-05-03T06:18:49.994Z</time></trkpt><trkpt lat="45.3563799762015" lon="9.89448445010328"><ele>67.0</ele><time>2026-05-03T06:18:51.994Z</time></trkpt><trkpt lat="45.356280998177276" lon="9.894502084123035"><ele>67.0</ele><time>2026-05-03T06:18:53.993Z</time></trkpt><trkpt lat="45.356216006538325" lon="9.894489131452444"><ele>67.0</ele><time>2026-05-03T06:18:54.993Z</time></trkpt><trkpt lat="45.35611702845743" lon="9.89448348005375"><ele>67.0</ele><time>2026-05-03T06:18:56.993Z</time></trkpt><trkpt lat="45.35604975221682" lon="9.894480931676027"><ele>65.0</ele><time>2026-05-03T06:18:57.993Z</time></trkpt><trkpt lat="45.35592783343948" lon="9.894483663909227"><ele>63.0</ele><time>2026-05-03T06:18:59.993Z</time></trkpt><trkpt lat="45.355822580585205" lon="9.894489583317402"><ele>61.0</ele><time>2026-05-03T06:19:01.993Z</time></trkpt><trkpt lat="45.355708549010345" lon="9.894474325508488"><ele>59.0</ele><time>2026-05-03T06:19:03.993Z</time></trkpt><trkpt lat="45.355596615312045" lon="9.89446033398991"><ele>59.0</ele><time>2026-05-03T06:19:05.993Z</time></trkpt><trkpt lat="45.35549528940995" lon="9.89443079922959"><ele>59.00000000000001</ele><time>2026-05-03T06:19:07.993Z</time></trkpt><trkpt lat="45.355410105885625" lon="9.894423617959541"><ele>59.00000000000001</ele><time>2026-05-03T06:19:09.993Z</time></trkpt><trkpt lat="45.35529490779288" lon="9.89439362649258"><ele>59.0</ele><time>2026-05-03T06:19:11.993Z</time></trkpt><trkpt lat="45.3551957487513" lon="9.89436427515882"><ele>59.0</ele><time>2026-05-03T06:19:13.993Z</time></trkpt><trkpt lat="45.35507682760055" lon="9.89431658403828"><ele>59.0</ele><time>2026-05-03T06:19:15.993Z</time></trkpt><trkpt lat="45.354977578938914" lon="9.89426094074413"><ele>59.00000000000001</ele><time>2026-05-03T06:19:17.993Z</time></trkpt><trkpt lat="45.35488774694611" lon="9.8942231107311"><ele>59.00000000000001</ele><time>2026-05-03T06:19:19.993Z</time></trkpt><trkpt lat="45.354777025369415" lon="9.894199745508967"><ele>59.0</ele><time>2026-05-03T06:19:21.993Z</time></trkpt><trkpt lat="45.35465970612936" lon="9.894161972175542"><ele>59.0</ele><time>2026-05-03T06:19:23.993Z</time></trkpt><trkpt lat="45.35454974026101" lon="9.894106163670562"><ele>58.6</ele><time>2026-05-03T06:19:25.993Z</time></trkpt><trkpt lat="45.35446038876996" lon="9.894035280479896"><ele>58.2</ele><time>2026-05-03T06:19:27.993Z</time></trkpt><trkpt lat="45.35436517370077" lon="9.893961277494377"><ele>57.800000000000004</ele><time>2026-05-03T06:19:29.993Z</time></trkpt><trkpt lat="45.35427223931367" lon="9.893908931103892"><ele>57.400000000000006</ele><time>2026-05-03T06:19:31.993Z</time></trkpt><trkpt lat="45.35416961107878" lon="9.893843002046625"><ele>57.0</ele><time>2026-05-03T06:19:33.993Z</time></trkpt><trkpt lat="45.354083630273564" lon="9.893771477599907"><ele>57.0</ele><time>2026-05-03T06:19:35.993Z</time></trkpt><trkpt lat="45.354026064373926" lon="9.89370410782696"><ele>57.0</ele><time>2026-05-03T06:19:37.993Z</time></trkpt><trkpt lat="45.353947302314666" lon="9.893603296058936"><ele>57.0</ele><time>2026-05-03T06:19:39.993Z</time></trkpt><trkpt lat="45.353870897869726" lon="9.893493584908663"><ele>57.0</ele><time>2026-05-03T06:19:41.993Z</time></trkpt><trkpt lat="45.353795612255446" lon="9.893385123398966"><ele>57.0</ele><time>2026-05-03T06:19:43.993Z</time></trkpt><trkpt lat="45.353708326921115" lon="9.893322425858207"><ele>56.8</ele><time>2026-05-03T06:19:45.993Z</time></trkpt><trkpt lat="45.35360758967173" lon="9.893251168785092"><ele>56.6</ele><time>2026-05-03T06:19:47.993Z</time></trkpt><trkpt lat="45.35351309190884" lon="9.893190740773527"><ele>56.39999999999999</ele><time>2026-05-03T06:19:49.993Z</time></trkpt><trkpt lat="45.35342814066289" lon="9.893140815245854"><ele>56.199999999999996</ele><time>2026-05-03T06:19:51.993Z</time></trkpt><trkpt lat="45.353331769413" lon="9.893151243740641"><ele>56.0</ele><time>2026-05-03T06:19:53.993Z</time></trkpt><trkpt lat="45.35325760745261" lon="9.893154610370647"><ele>56.0</ele><time>2026-05-03T06:19:55.993Z</time></trkpt><trkpt lat="45.35318211801825" lon="9.893046872952418"><ele>55.99999999999999</ele><time>2026-05-03T06:19:57.992Z</time></trkpt><trkpt lat="45.35311433455932" lon="9.892908119738284"><ele>55.99999999999999</ele><time>2026-05-03T06:19:59.992Z</time></trkpt><trkpt lat="45.3530307523885" lon="9.892790621739215"><ele>56.0</ele><time>2026-05-03T06:20:01.992Z</time></trkpt><trkpt lat="45.35298178600538" lon="9.8927179345794"><ele>56.0</ele><time>2026-05-03T06:20:03.992Z</time></trkpt><trkpt lat="45.35292311892284" lon="9.89257959004504"><ele>55.4</ele><time>2026-05-03T06:20:06.992Z</time></trkpt><trkpt lat="45.35285268268964" lon="9.892461698101414"><ele>54.8</ele><time>2026-05-03T06:20:08.992Z</time></trkpt><trkpt lat="45.35277102307492" lon="9.892371825834523"><ele>54.199999999999996</ele><time>2026-05-03T06:20:10.992Z</time></trkpt><trkpt lat="45.35267462308611" lon="9.8923099888953"><ele>53.599999999999994</ele><time>2026-05-03T06:20:12.992Z</time></trkpt><trkpt lat="45.35256962077687" lon="9.892280207830888"><ele>53.0</ele><time>2026-05-03T06:20:14.994Z</time></trkpt><trkpt lat="45.352475004532856" lon="9.892232683880364"><ele>53.0</ele><time>2026-05-03T06:20:16.994Z</time></trkpt><trkpt lat="45.352384839972395" lon="9.892195195656447"><ele>53.0</ele><time>2026-05-03T06:20:18.994Z</time></trkpt><trkpt lat="45.35228339384177" lon="9.892145124321706"><ele>53.0</ele><time>2026-05-03T06:20:20.994Z</time></trkpt><trkpt lat="45.352173329980616" lon="9.892157914450337"><ele>53.0</ele><time>2026-05-03T06:20:22.994Z</time></trkpt><trkpt lat="45.35209482423191" lon="9.892182840953868"><ele>53.0</ele><time>2026-05-03T06:20:24.994Z</time></trkpt><trkpt lat="45.35203256279268" lon="9.89225007116772"><ele>53.0</ele><time>2026-05-03T06:20:26.994Z</time></trkpt><trkpt lat="45.351966145423546" lon="9.892310142438244"><ele>53.0</ele><time>2026-05-03T06:20:28.994Z</time></trkpt><trkpt lat="45.35187163795794" lon="9.892366156731338"><ele>53.0</ele><time>2026-05-03T06:20:30.994Z</time></trkpt><trkpt lat="45.35176423342122" lon="9.892429529237761"><ele>53.0</ele><time>2026-05-03T06:20:32.994Z</time></trkpt><trkpt lat="45.351672823743996" lon="9.89252012628495"><ele>53.0</ele><time>2026-05-03T06:20:34.994Z</time></trkpt><trkpt lat="45.35160022382281" lon="9.892608777549977"><ele>53.66666666666667</ele><time>2026-05-03T06:20:36.994Z</time></trkpt><trkpt lat="45.351551539599164" lon="9.892722491493538"><ele>54.333333333333336</ele><time>2026-05-03T06:20:38.994Z</time></trkpt><trkpt lat="45.35150668442426" lon="9.89282595309273"><ele>55.0</ele><time>2026-05-03T06:20:40.994Z</time></trkpt><trkpt lat="45.35150612217422" lon="9.892957115195955"><ele>55.66666666666667</ele><time>2026-05-03T06:20:43.994Z</time></trkpt><trkpt lat="45.35152902887038" lon="9.893057020802736"><ele>56.333333333333336</ele><time>2026-05-03T06:20:46.994Z</time></trkpt><trkpt lat="45.351497159079095" lon="9.893162511272685"><ele>57.0</ele><time>2026-05-03T06:20:48.994Z</time></trkpt><trkpt lat="45.351494376291754" lon="9.893285454007291"><ele>57.0</ele><time>2026-05-03T06:20:50.994Z</time></trkpt><trkpt lat="45.35147877976343" lon="9.893376996661619"><ele>57.0</ele><time>2026-05-03T06:20:51.994Z</time></trkpt><trkpt lat="45.35149092409936" lon="9.893512453536195"><ele>57.0</ele><time>2026-05-03T06:20:53.994Z</time></trkpt><trkpt lat="45.35153697382143" lon="9.893655216734787"><ele>57.0</ele><time>2026-05-03T06:20:55.994Z</time></trkpt><trkpt lat="45.3515276899119" lon="9.8938013378144"><ele>57.0</ele><time>2026-05-03T06:20:57.994Z</time></trkpt><trkpt lat="45.35148199156043" lon="9.89394213063579"><ele>57.166666666666664</ele><time>2026-05-03T06:20:59.994Z</time></trkpt><trkpt lat="45.35145600322872" lon="9.894060236803297"><ele>57.33333333333333</ele><time>2026-05-03T06:21:01.994Z</time></trkpt><trkpt lat="45.35143401302282" lon="9.89417720653413"><ele>57.5</ele><time>2026-05-03T06:21:03.994Z</time></trkpt><trkpt lat="45.35136740482822" lon="9.894285894595285"><ele>57.666666666666664</ele><time>2026-05-03T06:21:06.994Z</time></trkpt><trkpt lat="45.35132305909098" lon="9.894359496074589"><ele>57.83333333333333</ele><time>2026-05-03T06:21:08.994Z</time></trkpt><trkpt lat="45.35125665547358" lon="9.894419817654835"><ele>58.0</ele><time>2026-05-03T06:21:10.994Z</time></trkpt><trkpt lat="45.35117309690021" lon="9.894477202446927"><ele>58.0</ele><time>2026-05-03T06:21:12.994Z</time></trkpt><trkpt lat="45.351090605600454" lon="9.894566084654846"><ele>58.0</ele><time>2026-05-03T06:21:14.994Z</time></trkpt><trkpt lat="45.35101370231741" lon="9.894654757554365"><ele>58.0</ele><time>2026-05-03T06:21:16.994Z</time></trkpt><trkpt lat="45.350958102731646" lon="9.894754616132344"><ele>58.0</ele><time>2026-05-03T06:21:18.993Z</time></trkpt><trkpt lat="45.35089743667531" lon="9.894862041475626"><ele>58.0</ele><time>2026-05-03T06:21:20.993Z</time></trkpt><trkpt lat="45.350833907189255" lon="9.894944412656116"><ele>57.99999999999999</ele><time>2026-05-03T06:21:22.993Z</time></trkpt><trkpt lat="45.35077532943815" lon="9.894989933702886"><ele>58.0</ele><time>2026-05-03T06:21:24.993Z</time></trkpt><trkpt lat="45.35068412114142" lon="9.895070616758625"><ele>58.0</ele><time>2026-05-03T06:21:26.993Z</time></trkpt><trkpt lat="45.35063285807743" lon="9.895188248148136"><ele>58.0</ele><time>2026-05-03T06:21:29.993Z</time></trkpt><trkpt lat="45.350606390049876" lon="9.89528986688271"><ele>57.99999999999999</ele><time>2026-05-03T06:21:31.993Z</time></trkpt><trkpt lat="45.35054488149985" lon="9.895404730924367"><ele>58.0</ele><time>2026-05-03T06:21:33.993Z</time></trkpt><trkpt lat="45.350490101232126" lon="9.895517990857376"><ele>58.166666666666664</ele><time>2026-05-03T06:21:35.993Z</time></trkpt><trkpt lat="45.350446887411884" lon="9.895644080546777"><ele>58.33333333333333</ele><time>2026-05-03T06:21:37.993Z</time></trkpt><trkpt lat="45.35036675580944" lon="9.8957212701718"><ele>58.5</ele><time>2026-05-03T06:21:39.993Z</time></trkpt><trkpt lat="45.35030919336791" lon="9.895799285944344"><ele>58.66666666666667</ele><time>2026-05-03T06:21:41.993Z</time></trkpt><trkpt lat="45.350240709480005" lon="9.895900891962185"><ele>58.833333333333336</ele><time>2026-05-03T06:21:43.993Z</time></trkpt><trkpt lat="45.35022004571542" lon="9.89600174593094"><ele>59.0</ele><time>2026-05-03T06:21:45.993Z</time></trkpt><trkpt lat="45.35022677746579" lon="9.896110602070742"><ele>59.00000000000001</ele><time>2026-05-03T06:21:47.993Z</time></trkpt><trkpt lat="45.350214428119855" lon="9.896211984750762"><ele>59.0</ele><time>2026-05-03T06:21:49.993Z</time></trkpt><trkpt lat="45.350149261901635" lon="9.896244350573076"><ele>59.0</ele><time>2026-05-03T06:21:52.993Z</time></trkpt><trkpt lat="45.35004535105297" lon="9.896214751724457"><ele>59.0</ele><time>2026-05-03T06:21:55.993Z</time></trkpt><trkpt lat="45.349940200731" lon="9.896195166407422"><ele>59.00000000000001</ele><time>2026-05-03T06:21:57.993Z</time></trkpt><trkpt lat="45.34985559443635" lon="9.896229060691638"><ele>59.0</ele><time>2026-05-03T06:21:59.993Z</time></trkpt><trkpt lat="45.34976211167052" lon="9.896250949592442"><ele>58.400000000000006</ele><time>2026-05-03T06:22:01.993Z</time></trkpt><trkpt lat="45.349681701701385" lon="9.89628211355943"><ele>57.800000000000004</ele><time>2026-05-03T06:22:03.993Z</time></trkpt><trkpt lat="45.34956298515531" lon="9.896322652636647"><ele>57.199999999999996</ele><time>2026-05-03T06:22:05.993Z</time></trkpt><trkpt lat="45.34946775669744" lon="9.896354620186873"><ele>56.599999999999994</ele><time>2026-05-03T06:22:07.993Z</time></trkpt><trkpt lat="45.34936516938917" lon="9.896384832993851"><ele>56.0</ele><time>2026-05-03T06:22:09.993Z</time></trkpt><trkpt lat="45.34929859824887" lon="9.89639696636948"><ele>56.0</ele><time>2026-05-03T06:22:10.993Z</time></trkpt><trkpt lat="45.34919492534528" lon="9.89641268841418"><ele>55.99999999999999</ele><time>2026-05-03T06:22:12.993Z</time></trkpt><trkpt lat="45.34909035995358" lon="9.896391508566841"><ele>55.99999999999999</ele><time>2026-05-03T06:22:14.993Z</time></trkpt><trkpt lat="45.348998151733305" lon="9.896366329193546"><ele>56.0</ele><time>2026-05-03T06:22:16.993Z</time></trkpt><trkpt lat="45.348908423875535" lon="9.896329172804919"><ele>56.0</ele><time>2026-05-03T06:22:18.993Z</time></trkpt><trkpt lat="45.348810116114684" lon="9.896280301315658"><ele>55.8</ele><time>2026-05-03T06:22:20.993Z</time></trkpt><trkpt lat="45.34872786566202" lon="9.896251911623722"><ele>55.599999999999994</ele><time>2026-05-03T06:22:22.994Z</time></trkpt><trkpt lat="45.34861976834263" lon="9.896191001654458"><ele>55.4</ele><time>2026-05-03T06:22:24.994Z</time></trkpt><trkpt lat="45.34850795849638" lon="9.896183702538659"><ele>55.2</ele><time>2026-05-03T06:22:26.994Z</time></trkpt><trkpt lat="45.34842957318497" lon="9.896249483934403"><ele>55.0</ele><time>2026-05-03T06:22:28.994Z</time></trkpt><trkpt lat="45.348358419155936" lon="9.896328241257377"><ele>55.0</ele><time>2026-05-03T06:22:30.994Z</time></trkpt><trkpt lat="45.348283620650655" lon="9.896399601715494"><ele>55.0</ele><time>2026-05-03T06:22:32.994Z</time></trkpt><trkpt lat="45.34821185546227" lon="9.896476768416516"><ele>55.0</ele><time>2026-05-03T06:22:34.994Z</time></trkpt><trkpt lat="45.348128162066004" lon="9.896541760201382"><ele>55.0</ele><time>2026-05-03T06:22:36.994Z</time></trkpt><trkpt lat="45.348038653588574" lon="9.896613302352776"><ele>55.0</ele><time>2026-05-03T06:22:38.994Z</time></trkpt><trkpt lat="45.34794107517135" lon="9.89666980753415"><ele>55.0</ele><time>2026-05-03T06:22:40.994Z</time></trkpt><trkpt lat="45.347852682972515" lon="9.896735466376978"><ele>55.0</ele><time>2026-05-03T06:22:42.994Z</time></trkpt><trkpt lat="45.34778289118808" lon="9.896836989727781"><ele>55.0</ele><time>2026-05-03T06:22:44.993Z</time></trkpt><trkpt lat="45.34772477159567" lon="9.896966582903842"><ele>55.0</ele><time>2026-05-03T06:22:46.993Z</time></trkpt><trkpt lat="45.34768602757427" lon="9.897095688477535"><ele>55.0</ele><time>2026-05-03T06:22:48.993Z</time></trkpt><trkpt lat="45.3476513701348" lon="9.897230489596716"><ele>55.2</ele><time>2026-05-03T06:22:50.993Z</time></trkpt><trkpt lat="45.34761122451264" lon="9.897366236971827"><ele>55.4</ele><time>2026-05-03T06:22:52.993Z</time></trkpt><trkpt lat="45.34756708866324" lon="9.897494141942822"><ele>55.599999999999994</ele><time>2026-05-03T06:22:54.993Z</time></trkpt><trkpt lat="45.34754123004503" lon="9.897624365027403"><ele>55.8</ele><time>2026-05-03T06:22:56.993Z</time></trkpt><trkpt lat="45.34750437248196" lon="9.897755081413003"><ele>56.0</ele><time>2026-05-03T06:22:58.993Z</time></trkpt><trkpt lat="45.347461894895304" lon="9.897877332528084"><ele>55.66666666666667</ele><time>2026-05-03T06:23:00.993Z</time></trkpt><trkpt lat="45.34742488009575" lon="9.897999553060568"><ele>55.333333333333336</ele><time>2026-05-03T06:23:02.993Z</time></trkpt><trkpt lat="45.34741441278814" lon="9.898124049425228"><ele>55.0</ele><time>2026-05-03T06:23:04.993Z</time></trkpt><trkpt lat="45.3474493930353" lon="9.898225673965344"><ele>54.66666666666667</ele><time>2026-05-03T06:23:06.993Z</time></trkpt><trkpt lat="45.34749196591404" lon="9.898353289536791"><ele>54.333333333333336</ele><time>2026-05-03T06:23:08.993Z</time></trkpt><trkpt lat="45.34753280564123" lon="9.898463031383507"><ele>54.0</ele><time>2026-05-03T06:23:10.993Z</time></trkpt><trkpt lat="45.34755427395127" lon="9.89858308226906"><ele>54.0</ele><time>2026-05-03T06:23:12.993Z</time></trkpt><trkpt lat="45.34758115596044" lon="9.898685781464255"><ele>54.0</ele><time>2026-05-03T06:23:14.993Z</time></trkpt><trkpt lat="45.3476116154195" lon="9.898806823130954"><ele>54.0</ele><time>2026-05-03T06:23:16.993Z</time></trkpt><trkpt lat="45.34765045846378" lon="9.898907371475289"><ele>54.0</ele><time>2026-05-03T06:23:18.993Z</time></trkpt><trkpt lat="45.34767594467821" lon="9.899029858002859"><ele>54.0</ele><time>2026-05-03T06:23:20.993Z</time></trkpt><trkpt lat="45.34771790321215" lon="9.89916425468623"><ele>54.0</ele><time>2026-05-03T06:23:22.993Z</time></trkpt><trkpt lat="45.34775667017214" lon="9.899297602144031"><ele>54.0</ele><time>2026-05-03T06:23:24.993Z</time></trkpt><trkpt lat="45.3477891525337" lon="9.899392198564586"><ele>54.00000000000001</ele><time>2026-05-03T06:23:26.993Z</time></trkpt><trkpt lat="45.347805420291664" lon="9.89952009741363"><ele>54.00000000000001</ele><time>2026-05-03T06:23:28.993Z</time></trkpt><trkpt lat="45.34785111889338" lon="9.899646991980893"><ele>54.0</ele><time>2026-05-03T06:23:30.993Z</time></trkpt><trkpt lat="45.347894758598706" lon="9.89977650081079"><ele>54.0</ele><time>2026-05-03T06:23:32.993Z</time></trkpt><trkpt lat="45.347933889541096" lon="9.899921042485172"><ele>54.0</ele><time>2026-05-03T06:23:34.993Z</time></trkpt><trkpt lat="45.34797246071536" lon="9.900051165326534"><ele>54.00000000000001</ele><time>2026-05-03T06:23:36.993Z</time></trkpt><trkpt lat="45.34801815397025" lon="9.900199265440454"><ele>54.00000000000001</ele><time>2026-05-03T06:23:38.993Z</time></trkpt><trkpt lat="45.34806000896814" lon="9.900360743080476"><ele>54.0</ele><time>2026-05-03T06:23:40.993Z</time></trkpt><trkpt lat="45.34809217031925" lon="9.900490784953712"><ele>54.0</ele><time>2026-05-03T06:23:42.993Z</time></trkpt><trkpt lat="45.34813243834651" lon="9.90062418371183"><ele>55.2</ele><time>2026-05-03T06:23:44.993Z</time></trkpt><trkpt lat="45.3481747714337" lon="9.900740206781308"><ele>56.400000000000006</ele><time>2026-05-03T06:23:46.993Z</time></trkpt><trkpt lat="45.34821048333225" lon="9.900895302688049"><ele>57.6</ele><time>2026-05-03T06:23:48.992Z</time></trkpt><trkpt lat="45.34824858504764" lon="9.901026903078906"><ele>58.8</ele><time>2026-05-03T06:23:50.992Z</time></trkpt><trkpt lat="45.348285568726894" lon="9.901172602190394"><ele>60.0</ele><time>2026-05-03T06:23:52.992Z</time></trkpt><trkpt lat="45.348320759800444" lon="9.901313079700554"><ele>60.0</ele><time>2026-05-03T06:23:54.992Z</time></trkpt><trkpt lat="45.34835248450377" lon="9.901440337570154"><ele>60.0</ele><time>2026-05-03T06:23:56.992Z</time></trkpt><trkpt lat="45.34837919838589" lon="9.90155438353453"><ele>60.0</ele><time>2026-05-03T06:23:58.992Z</time></trkpt><trkpt lat="45.34839961144837" lon="9.901677633713897"><ele>60.0</ele><time>2026-05-03T06:24:01.992Z</time></trkpt><trkpt lat="45.34843619950249" lon="9.901800661882211"><ele>60.0</ele><time>2026-05-03T06:24:03.992Z</time></trkpt><trkpt lat="45.34846636972222" lon="9.9019233204781"><ele>60.166666666666664</ele><time>2026-05-03T06:24:05.992Z</time></trkpt><trkpt lat="45.348506007736276" lon="9.902044588919427"><ele>60.33333333333333</ele><time>2026-05-03T06:24:07.992Z</time></trkpt><trkpt lat="45.34852454655049" lon="9.90214383503283"><ele>60.5</ele><time>2026-05-03T06:24:09.992Z</time></trkpt><trkpt lat="45.34851783341668" lon="9.902234000998"><ele>60.666666666666664</ele><time>2026-05-03T06:24:11.992Z</time></trkpt><trkpt lat="45.348479805459945" lon="9.902359007929322"><ele>60.83333333333333</ele><time>2026-05-03T06:24:13.992Z</time></trkpt><trkpt lat="45.3484259875023" lon="9.902461187390456"><ele>61.0</ele><time>2026-05-03T06:24:15.992Z</time></trkpt><trkpt lat="45.348326775255224" lon="9.902466819791544"><ele>60.99999999999999</ele><time>2026-05-03T06:24:17.992Z</time></trkpt><trkpt lat="45.3482058254632" lon="9.902396865149408"><ele>61.0</ele><time>2026-05-03T06:24:19.992Z</time></trkpt><trkpt lat="45.348140585838955" lon="9.902386071113924"><ele>61.0</ele><time>2026-05-03T06:24:20.992Z</time></trkpt><trkpt lat="45.34807081231719" lon="9.902404831873504"><ele>61.0</ele><time>2026-05-03T06:24:21.992Z</time></trkpt><trkpt lat="45.348011754307464" lon="9.902471819636531"><ele>60.99999999999999</ele><time>2026-05-03T06:24:22.992Z</time></trkpt><trkpt lat="45.34795726181223" lon="9.902553173674836"><ele>61.0</ele><time>2026-05-03T06:24:23.992Z</time></trkpt><trkpt lat="45.34791723503706" lon="9.902652197005155"><ele>60.57142857142856</ele><time>2026-05-03T06:24:24.992Z</time></trkpt><trkpt lat="45.3478975641198" lon="9.902760814839688"><ele>60.14285714285714</ele><time>2026-05-03T06:24:25.994Z</time></trkpt><trkpt lat="45.347868941300554" lon="9.902853590837035"><ele>59.714285714285715</ele><time>2026-05-03T06:24:26.993Z</time></trkpt><trkpt lat="45.3478245535335" lon="9.902930187591327"><ele>59.285714285714285</ele><time>2026-05-03T06:24:27.993Z</time></trkpt><trkpt lat="45.34777233819407" lon="9.902994237989779"><ele>58.85714285714286</ele><time>2026-05-03T06:24:28.993Z</time></trkpt><trkpt lat="45.347715442528425" lon="9.903035926127355"><ele>58.42857142857144</ele><time>2026-05-03T06:24:29.994Z</time></trkpt><trkpt lat="45.34764760829235" lon="9.90304129945651"><ele>58.00000000000001</ele><time>2026-05-03T06:24:30.994Z</time></trkpt><trkpt lat="45.34757137388199" lon="9.903036032747561"><ele>57.99999999999999</ele><time>2026-05-03T06:24:31.993Z</time></trkpt><trkpt lat="45.34750522857974" lon="9.903021021165085"><ele>58.0</ele><time>2026-05-03T06:24:32.994Z</time></trkpt><trkpt lat="45.34744236097667" lon="9.903014608439854"><ele>58.0</ele><time>2026-05-03T06:24:33.994Z</time></trkpt><trkpt lat="45.347375578965" lon="9.903001866597515"><ele>58.0</ele><time>2026-05-03T06:24:34.993Z</time></trkpt><trkpt lat="45.34730506664979" lon="9.902993886526378"><ele>57.99999999999999</ele><time>2026-05-03T06:24:35.994Z</time></trkpt><trkpt lat="45.34724216553572" lon="9.90298581605971"><ele>58.0</ele><time>2026-05-03T06:24:36.994Z</time></trkpt><trkpt lat="45.34711857541989" lon="9.902969101698284"><ele>57.4</ele><time>2026-05-03T06:24:38.993Z</time></trkpt><trkpt lat="45.34700331479533" lon="9.90294783579089"><ele>56.8</ele><time>2026-05-03T06:24:40.993Z</time></trkpt><trkpt lat="45.346892423634344" lon="9.902937760001155"><ele>56.2</ele><time>2026-05-03T06:24:42.993Z</time></trkpt><trkpt lat="45.346782881615106" lon="9.902925513846169"><ele>55.6</ele><time>2026-05-03T06:24:44.993Z</time></trkpt><trkpt lat="45.34667232167542" lon="9.902907915849369"><ele>55.0</ele><time>2026-05-03T06:24:46.993Z</time></trkpt><trkpt lat="45.34655419874854" lon="9.902887209558065"><ele>55.0</ele><time>2026-05-03T06:24:48.993Z</time></trkpt><trkpt lat="45.34645579224565" lon="9.90287284311978"><ele>55.0</ele><time>2026-05-03T06:24:50.993Z</time></trkpt><trkpt lat="45.34634954600421" lon="9.902855443900481"><ele>55.0</ele><time>2026-05-03T06:24:52.993Z</time></trkpt><trkpt lat="45.346232592762135" lon="9.902841855967594"><ele>55.0</ele><time>2026-05-03T06:24:54.993Z</time></trkpt><trkpt lat="45.346121193761185" lon="9.902817743412268"><ele>55.0</ele><time>2026-05-03T06:24:56.992Z</time></trkpt><trkpt lat="45.34601115465568" lon="9.902812342953352"><ele>54.6</ele><time>2026-05-03T06:24:58.992Z</time></trkpt><trkpt lat="45.3458987663341" lon="9.902796732635833"><ele>54.2</ele><time>2026-05-03T06:25:00.992Z</time></trkpt><trkpt lat="45.34579162548974" lon="9.902773554835717"><ele>53.8</ele><time>2026-05-03T06:25:02.992Z</time></trkpt><trkpt lat="45.34567837096384" lon="9.902746703251854"><ele>53.4</ele><time>2026-05-03T06:25:04.992Z</time></trkpt><trkpt lat="45.34558348109746" lon="9.902700570116979"><ele>53.0</ele><time>2026-05-03T06:25:06.992Z</time></trkpt><trkpt lat="45.34547557602462" lon="9.902627335899579"><ele>54.2</ele><time>2026-05-03T06:25:08.992Z</time></trkpt><trkpt lat="45.34538990971382" lon="9.90255361154898"><ele>55.4</ele><time>2026-05-03T06:25:10.992Z</time></trkpt><trkpt lat="45.34530107429995" lon="9.902457709344867"><ele>56.60000000000001</ele><time>2026-05-03T06:25:12.991Z</time></trkpt><trkpt lat="45.34521027468496" lon="9.902360003264"><ele>57.800000000000004</ele><time>2026-05-03T06:25:14.991Z</time></trkpt><trkpt lat="45.34515482137459" lon="9.902314935503398"><ele>59.0</ele><time>2026-05-03T06:25:15.991Z</time></trkpt><trkpt lat="45.345063625143176" lon="9.9022401775201"><ele>59.0</ele><time>2026-05-03T06:25:17.991Z</time></trkpt><trkpt lat="45.34495273350448" lon="9.902195961343851"><ele>59.0</ele><time>2026-05-03T06:25:19.991Z</time></trkpt><trkpt lat="45.344842425072926" lon="9.902178412854212"><ele>59.0</ele><time>2026-05-03T06:25:21.991Z</time></trkpt><trkpt lat="45.34473434413377" lon="9.902176648092277"><ele>59.0</ele><time>2026-05-03T06:25:23.991Z</time></trkpt><trkpt lat="45.34461729212624" lon="9.902174323786058"><ele>59.400000000000006</ele><time>2026-05-03T06:25:25.991Z</time></trkpt><trkpt lat="45.344511135369416" lon="9.9021461323667"><ele>59.800000000000004</ele><time>2026-05-03T06:25:27.991Z</time></trkpt><trkpt lat="45.34440354084777" lon="9.902099419895706"><ele>60.199999999999996</ele><time>2026-05-03T06:25:29.991Z</time></trkpt><trkpt lat="45.344308371429136" lon="9.902064039027264"><ele>60.599999999999994</ele><time>2026-05-03T06:25:31.991Z</time></trkpt><trkpt lat="45.344200286656964" lon="9.902049533466824"><ele>61.0</ele><time>2026-05-03T06:25:33.991Z</time></trkpt><trkpt lat="45.34410242675397" lon="9.902095898294121"><ele>61.0</ele><time>2026-05-03T06:25:35.991Z</time></trkpt><trkpt lat="45.34401537022894" lon="9.902198549793917"><ele>60.99999999999999</ele><time>2026-05-03T06:25:37.991Z</time></trkpt><trkpt lat="45.34398717670889" lon="9.902346324297588"><ele>60.99999999999999</ele><time>2026-05-03T06:25:39.991Z</time></trkpt><trkpt lat="45.34399887574793" lon="9.90249475377781"><ele>61.0</ele><time>2026-05-03T06:25:41.991Z</time></trkpt><trkpt lat="45.343993827226456" lon="9.902641373797263"><ele>61.0</ele><time>2026-05-03T06:25:43.991Z</time></trkpt><trkpt lat="45.34394405589619" lon="9.902794330151476"><ele>60.4</ele><time>2026-05-03T06:25:45.991Z</time></trkpt><trkpt lat="45.34384629268274" lon="9.902888532980384"><ele>59.8</ele><time>2026-05-03T06:25:47.991Z</time></trkpt><trkpt lat="45.343753675390786" lon="9.902972832073186"><ele>59.199999999999996</ele><time>2026-05-03T06:25:49.991Z</time></trkpt><trkpt lat="45.343669789430926" lon="9.903057156084904"><ele>58.599999999999994</ele><time>2026-05-03T06:25:51.991Z</time></trkpt><trkpt lat="45.34361577272229" lon="9.903180417720295"><ele>58.0</ele><time>2026-05-03T06:25:53.99Z</time></trkpt><trkpt lat="45.34361009712686" lon="9.903314489533196"><ele>58.33333333333333</ele><time>2026-05-03T06:25:55.99Z</time></trkpt><trkpt lat="45.34359847960172" lon="9.903439285755004"><ele>58.666666666666664</ele><time>2026-05-03T06:25:57.99Z</time></trkpt><trkpt lat="45.34357469265619" lon="9.90354556057657"><ele>59.0</ele><time>2026-05-03T06:25:59.99Z</time></trkpt><trkpt lat="45.34355064614621" lon="9.903664009367064"><ele>59.33333333333333</ele><time>2026-05-03T06:26:01.99Z</time></trkpt><trkpt lat="45.343524253767285" lon="9.903781580367811"><ele>59.666666666666664</ele><time>2026-05-03T06:26:03.99Z</time></trkpt><trkpt lat="45.34346696392833" lon="9.903896799038087"><ele>60.0</ele><time>2026-05-03T06:26:05.99Z</time></trkpt><trkpt lat="45.34341689872693" lon="9.904021560763065"><ele>60.0</ele><time>2026-05-03T06:26:07.99Z</time></trkpt><trkpt lat="45.3433780952403" lon="9.904149875725054"><ele>60.0</ele><time>2026-05-03T06:26:09.99Z</time></trkpt><trkpt lat="45.34335861745688" lon="9.904284658517541"><ele>60.0</ele><time>2026-05-03T06:26:11.99Z</time></trkpt><trkpt lat="45.343370730792614" lon="9.904439179505745"><ele>60.0</ele><time>2026-05-03T06:26:13.99Z</time></trkpt><trkpt lat="45.343408734004896" lon="9.90456260579292"><ele>60.0</ele><time>2026-05-03T06:26:15.99Z</time></trkpt><trkpt lat="45.34344293199799" lon="9.904699758530954"><ele>60.0</ele><time>2026-05-03T06:26:17.99Z</time></trkpt><trkpt lat="45.34348103221402" lon="9.904846026514535"><ele>60.0</ele><time>2026-05-03T06:26:19.99Z</time></trkpt><trkpt lat="45.34348449789213" lon="9.905004832419399"><ele>60.0</ele><time>2026-05-03T06:26:21.99Z</time></trkpt><trkpt lat="45.343479730091545" lon="9.905151362942648"><ele>60.0</ele><time>2026-05-03T06:26:23.99Z</time></trkpt><trkpt lat="45.343475179451396" lon="9.905311835366003"><ele>60.0</ele><time>2026-05-03T06:26:25.99Z</time></trkpt><trkpt lat="45.34346730088412" lon="9.905472687021103"><ele>59.8</ele><time>2026-05-03T06:26:27.99Z</time></trkpt><trkpt lat="45.34347109099722" lon="9.905618119900751"><ele>59.6</ele><time>2026-05-03T06:26:29.99Z</time></trkpt><trkpt lat="45.34347936921763" lon="9.905755283550924"><ele>59.400000000000006</ele><time>2026-05-03T06:26:31.991Z</time></trkpt><trkpt lat="45.34347993203045" lon="9.905883719832858"><ele>59.2</ele><time>2026-05-03T06:26:33.991Z</time></trkpt><trkpt lat="45.34348838679004" lon="9.906040924550451"><ele>59.0</ele><time>2026-05-03T06:26:35.991Z</time></trkpt><trkpt lat="45.343506078481184" lon="9.906206855314359"><ele>59.00000000000001</ele><time>2026-05-03T06:26:37.991Z</time></trkpt><trkpt lat="45.34349396580983" lon="9.906336919381316"><ele>59.0</ele><time>2026-05-03T06:26:39.991Z</time></trkpt><trkpt lat="45.34346203840261" lon="9.906414413355247"><ele>59.0</ele><time>2026-05-03T06:26:40.992Z</time></trkpt><trkpt lat="45.34340474763888" lon="9.906544067900613"><ele>59.0</ele><time>2026-05-03T06:26:42.991Z</time></trkpt><trkpt lat="45.34336334674468" lon="9.906615903212417"><ele>59.00000000000001</ele><time>2026-05-03T06:26:43.991Z</time></trkpt><trkpt lat="45.34331328718588" lon="9.90674161980416"><ele>59.0</ele><time>2026-05-03T06:26:45.991Z</time></trkpt><trkpt lat="45.34329687261553" lon="9.906832149415097"><ele>59.0</ele><time>2026-05-03T06:26:46.991Z</time></trkpt><trkpt lat="45.34325772921317" lon="9.90698421064261"><ele>59.00000000000001</ele><time>2026-05-03T06:26:48.991Z</time></trkpt><trkpt lat="45.34321347244015" lon="9.907133335653839"><ele>59.00000000000001</ele><time>2026-05-03T06:26:50.991Z</time></trkpt><trkpt lat="45.34316732387135" lon="9.907274369835106"><ele>59.0</ele><time>2026-05-03T06:26:52.991Z</time></trkpt><trkpt lat="45.34314123699218" lon="9.907428081682852"><ele>59.0</ele><time>2026-05-03T06:26:54.991Z</time></trkpt><trkpt lat="45.34313454275574" lon="9.90758198148176"><ele>58.800000000000004</ele><time>2026-05-03T06:26:56.991Z</time></trkpt><trkpt lat="45.343133551674846" lon="9.907725065274038"><ele>58.60000000000001</ele><time>2026-05-03T06:26:58.991Z</time></trkpt><trkpt lat="45.343139861034004" lon="9.907874899634036"><ele>58.4</ele><time>2026-05-03T06:27:00.991Z</time></trkpt><trkpt lat="45.343159257825654" lon="9.908027956725276"><ele>58.2</ele><time>2026-05-03T06:27:02.991Z</time></trkpt><trkpt lat="45.343174144164536" lon="9.908178873952284"><ele>58.0</ele><time>2026-05-03T06:27:04.991Z</time></trkpt><trkpt lat="45.34319354348225" lon="9.908328722816604"><ele>58.0</ele><time>2026-05-03T06:27:06.991Z</time></trkpt><trkpt lat="45.34321833968374" lon="9.908474827314881"><ele>58.0</ele><time>2026-05-03T06:27:08.991Z</time></trkpt><trkpt lat="45.343231908001805" lon="9.908611848787288"><ele>58.0</ele><time>2026-05-03T06:27:10.991Z</time></trkpt><trkpt lat="45.34324856539918" lon="9.908749805981103"><ele>58.0</ele><time>2026-05-03T06:27:12.991Z</time></trkpt><trkpt lat="45.34327509474205" lon="9.908891218238276"><ele>58.0</ele><time>2026-05-03T06:27:14.991Z</time></trkpt><trkpt lat="45.343299662663426" lon="9.909032090988209"><ele>57.99999999999999</ele><time>2026-05-03T06:27:16.991Z</time></trkpt><trkpt lat="45.34332141995055" lon="9.909167039671402"><ele>58.0</ele><time>2026-05-03T06:27:18.99Z</time></trkpt><trkpt lat="45.3433386798966" lon="9.909298453109228"><ele>58.0</ele><time>2026-05-03T06:27:20.99Z</time></trkpt><trkpt lat="45.34335967689942" lon="9.909419530194118"><ele>58.0</ele><time>2026-05-03T06:27:22.99Z</time></trkpt><trkpt lat="45.34341942115938" lon="9.909496843203753"><ele>57.99999999999999</ele><time>2026-05-03T06:27:24.99Z</time></trkpt><trkpt lat="45.343480021634434" lon="9.909526570213204"><ele>58.0</ele><time>2026-05-03T06:27:26.99Z</time></trkpt><trkpt lat="45.34356452250819" lon="9.909544065085475"><ele>57.49999999999999</ele><time>2026-05-03T06:27:31.99Z</time></trkpt><trkpt lat="45.34366595264582" lon="9.909577348610439"><ele>57.0</ele><time>2026-05-03T06:27:35.99Z</time></trkpt><trkpt lat="45.343754581202454" lon="9.909600690197673"><ele>56.5</ele><time>2026-05-03T06:27:39.99Z</time></trkpt><trkpt lat="45.34382512318757" lon="9.90963754985034"><ele>56.0</ele><time>2026-05-03T06:27:42.99Z</time></trkpt><trkpt lat="45.34390831175362" lon="9.909663534535495"><ele>55.49999999999999</ele><time>2026-05-03T06:27:46.99Z</time></trkpt><trkpt lat="45.343976598697786" lon="9.909700575398247"><ele>55.0</ele><time>2026-05-03T06:27:49.99Z</time></trkpt><trkpt lat="45.34405397850197" lon="9.909729938196364"><ele>55.49999999999999</ele><time>2026-05-03T06:27:53.99Z</time></trkpt><trkpt lat="45.34412889574583" lon="9.90974566974874"><ele>56.0</ele><time>2026-05-03T06:27:57.99Z</time></trkpt><trkpt lat="45.34421236638283" lon="9.909774016188184"><ele>56.5</ele><time>2026-05-03T06:28:01.99Z</time></trkpt><trkpt lat="45.34428078118411" lon="9.909850592001535"><ele>57.0</ele><time>2026-05-03T06:28:05.99Z</time></trkpt><trkpt lat="45.344339998410014" lon="9.909950926017686"><ele>57.49999999999999</ele><time>2026-05-03T06:28:08.99Z</time></trkpt><trkpt lat="45.34437889364311" lon="9.910037465859752"><ele>58.0</ele><time>2026-05-03T06:28:10.99Z</time></trkpt><trkpt lat="45.34442560530639" lon="9.91015047198625"><ele>57.99999999999999</ele><time>2026-05-03T06:28:12.99Z</time></trkpt><trkpt lat="45.344467369152326" lon="9.910236981384076"><ele>58.0</ele><time>2026-05-03T06:28:14.99Z</time></trkpt><trkpt lat="45.3445040707894" lon="9.910350729678349"><ele>58.0</ele><time>2026-05-03T06:28:16.99Z</time></trkpt><trkpt lat="45.344538263728545" lon="9.910474232023093"><ele>58.0</ele><time>2026-05-03T06:28:18.989Z</time></trkpt><trkpt lat="45.344536293701225" lon="9.910586878728004"><ele>57.99999999999999</ele><time>2026-05-03T06:28:20.989Z</time></trkpt><trkpt lat="45.344507764247595" lon="9.910716102640436"><ele>58.0</ele><time>2026-05-03T06:28:22.989Z</time></trkpt><trkpt lat="45.3444864262597" lon="9.91086345072343"><ele>58.0</ele><time>2026-05-03T06:28:24.989Z</time></trkpt><trkpt lat="45.34445649418452" lon="9.910981029435042"><ele>58.0</ele><time>2026-05-03T06:28:26.989Z</time></trkpt><trkpt lat="45.344420518049475" lon="9.911103562829338"><ele>58.0</ele><time>2026-05-03T06:28:28.989Z</time></trkpt><trkpt lat="45.34437794888424" lon="9.911228519173767"><ele>58.0</ele><time>2026-05-03T06:28:30.989Z</time></trkpt><trkpt lat="45.34434513474618" lon="9.911360176472218"><ele>58.0</ele><time>2026-05-03T06:28:32.989Z</time></trkpt><trkpt lat="45.34430696020963" lon="9.911486691407388"><ele>58.0</ele><time>2026-05-03T06:28:34.989Z</time></trkpt><trkpt lat="45.34428262388732" lon="9.911613030720732"><ele>58.0</ele><time>2026-05-03T06:28:36.989Z</time></trkpt><trkpt lat="45.34425851088559" lon="9.911763965350628"><ele>58.0</ele><time>2026-05-03T06:28:38.991Z</time></trkpt><trkpt lat="45.34423962830095" lon="9.911901952762273"><ele>58.0</ele><time>2026-05-03T06:28:40.991Z</time></trkpt><trkpt lat="45.344247632820256" lon="9.912015714164031"><ele>58.0</ele><time>2026-05-03T06:28:42.991Z</time></trkpt><trkpt lat="45.34426881526793" lon="9.912134032581484"><ele>58.2</ele><time>2026-05-03T06:28:44.992Z</time></trkpt><trkpt lat="45.344277491693965" lon="9.912248066589619"><ele>58.4</ele><time>2026-05-03T06:28:46.991Z</time></trkpt><trkpt lat="45.34427237376628" lon="9.912380273951033"><ele>58.60000000000001</ele><time>2026-05-03T06:28:48.992Z</time></trkpt><trkpt lat="45.344270375955006" lon="9.912497833801986"><ele>58.800000000000004</ele><time>2026-05-03T06:28:50.991Z</time></trkpt><trkpt lat="45.34425111213407" lon="9.912654956942657"><ele>59.0</ele><time>2026-05-03T06:28:52.991Z</time></trkpt><trkpt lat="45.34423017213116" lon="9.912793381038504"><ele>59.6</ele><time>2026-05-03T06:28:54.991Z</time></trkpt><trkpt lat="45.344154898590155" lon="9.912913969532655"><ele>60.2</ele><time>2026-05-03T06:28:56.991Z</time></trkpt><trkpt lat="45.344093958160244" lon="9.913043497848259"><ele>60.800000000000004</ele><time>2026-05-03T06:28:58.991Z</time></trkpt><trkpt lat="45.34402777342824" lon="9.913168687152487"><ele>61.400000000000006</ele><time>2026-05-03T06:29:00.991Z</time></trkpt><trkpt lat="45.343959337353056" lon="9.913302337106702"><ele>62.0</ele><time>2026-05-03T06:29:02.991Z</time></trkpt><trkpt lat="45.343904703423775" lon="9.913425941315326"><ele>62.2</ele><time>2026-05-03T06:29:04.991Z</time></trkpt><trkpt lat="45.34385348753135" lon="9.91356299159965"><ele>62.400000000000006</ele><time>2026-05-03T06:29:06.991Z</time></trkpt><trkpt lat="45.343801502793404" lon="9.913687324080474"><ele>62.599999999999994</ele><time>2026-05-03T06:29:08.991Z</time></trkpt><trkpt lat="45.343778051940426" lon="9.91381122002962"><ele>62.8</ele><time>2026-05-03T06:29:10.991Z</time></trkpt><trkpt lat="45.343731984875475" lon="9.913936937330616"><ele>63.0</ele><time>2026-05-03T06:29:12.991Z</time></trkpt><trkpt lat="45.34367344821612" lon="9.91408577181122"><ele>63.0</ele><time>2026-05-03T06:29:14.99Z</time></trkpt><trkpt lat="45.343647649184454" lon="9.914173249063808"><ele>63.0</ele><time>2026-05-03T06:29:15.99Z</time></trkpt><trkpt lat="45.3436389291121" lon="9.914318121072656"><ele>63.0</ele><time>2026-05-03T06:29:17.99Z</time></trkpt><trkpt lat="45.34362447336356" lon="9.914472004216002"><ele>63.0</ele><time>2026-05-03T06:29:19.99Z</time></trkpt><trkpt lat="45.34362015301655" lon="9.91456418384295"><ele>63.0</ele><time>2026-05-03T06:29:20.99Z</time></trkpt><trkpt lat="45.343628971916225" lon="9.914724157133662"><ele>63.2</ele><time>2026-05-03T06:29:22.99Z</time></trkpt><trkpt lat="45.34363392664322" lon="9.914884570376538"><ele>63.4</ele><time>2026-05-03T06:29:24.99Z</time></trkpt><trkpt lat="45.343639907778936" lon="9.915051615511857"><ele>63.60000000000001</ele><time>2026-05-03T06:29:26.99Z</time></trkpt><trkpt lat="45.34364598732246" lon="9.915209795961253"><ele>63.800000000000004</ele><time>2026-05-03T06:29:28.99Z</time></trkpt><trkpt lat="45.343655442359065" lon="9.915351891093222"><ele>64.0</ele><time>2026-05-03T06:29:30.99Z</time></trkpt><trkpt lat="45.34365880709182" lon="9.9154999764915"><ele>64.2</ele><time>2026-05-03T06:29:32.99Z</time></trkpt><trkpt lat="45.34366422490843" lon="9.91564160028486"><ele>64.4</ele><time>2026-05-03T06:29:34.99Z</time></trkpt><trkpt lat="45.34367331693688" lon="9.91579507132274"><ele>64.6</ele><time>2026-05-03T06:29:36.99Z</time></trkpt><trkpt lat="45.34368111135471" lon="9.915939938207163"><ele>64.8</ele><time>2026-05-03T06:29:38.99Z</time></trkpt><trkpt lat="45.34369283153588" lon="9.91608737996019"><ele>65.0</ele><time>2026-05-03T06:29:40.99Z</time></trkpt><trkpt lat="45.343700388165644" lon="9.91623758486305"><ele>64.6</ele><time>2026-05-03T06:29:42.99Z</time></trkpt><trkpt lat="45.34371884630953" lon="9.916368147571895"><ele>64.2</ele><time>2026-05-03T06:29:44.99Z</time></trkpt><trkpt lat="45.34372960659872" lon="9.916517923928112"><ele>63.8</ele><time>2026-05-03T06:29:46.99Z</time></trkpt><trkpt lat="45.34373269539771" lon="9.916669626524772"><ele>63.4</ele><time>2026-05-03T06:29:48.99Z</time></trkpt><trkpt lat="45.34373972423826" lon="9.916841074865943"><ele>63.0</ele><time>2026-05-03T06:29:50.99Z</time></trkpt><trkpt lat="45.34375152602611" lon="9.916939408057797"><ele>63.0</ele><time>2026-05-03T06:29:51.99Z</time></trkpt><trkpt lat="45.34377722750432" lon="9.917113867614441"><ele>63.0</ele><time>2026-05-03T06:29:53.99Z</time></trkpt><trkpt lat="45.343793215153184" lon="9.917284761348581"><ele>63.0</ele><time>2026-05-03T06:29:55.99Z</time></trkpt><trkpt lat="45.3438090461613" lon="9.917453488752257"><ele>63.0</ele><time>2026-05-03T06:29:57.99Z</time></trkpt><trkpt lat="45.343825438880486" lon="9.917549185805578"><ele>63.0</ele><time>2026-05-03T06:29:58.99Z</time></trkpt><trkpt lat="45.34382912484363" lon="9.917674468144787"><ele>63.166666666666664</ele><time>2026-05-03T06:29:59.99Z</time></trkpt><trkpt lat="45.34382660775733" lon="9.91778596772015"><ele>63.33333333333333</ele><time>2026-05-03T06:30:00.99Z</time></trkpt><trkpt lat="45.34382712689346" lon="9.917904240684516"><ele>63.5</ele><time>2026-05-03T06:30:01.99Z</time></trkpt><trkpt lat="45.34382564506376" lon="9.918014946727306"><ele>63.666666666666664</ele><time>2026-05-03T06:30:02.99Z</time></trkpt><trkpt lat="45.34381455087301" lon="9.918107529556556"><ele>63.83333333333333</ele><time>2026-05-03T06:30:03.99Z</time></trkpt><trkpt lat="45.34379928541419" lon="9.918208767427313"><ele>64.0</ele><time>2026-05-03T06:30:04.99Z</time></trkpt><trkpt lat="45.34376120265897" lon="9.918361194973611"><ele>64.0</ele><time>2026-05-03T06:30:06.99Z</time></trkpt><trkpt lat="45.34372029639976" lon="9.918467083352422"><ele>64.0</ele><time>2026-05-03T06:30:08.99Z</time></trkpt><trkpt lat="45.34366430316008" lon="9.918578217056524"><ele>64.0</ele><time>2026-05-03T06:30:10.99Z</time></trkpt><trkpt lat="45.34360465213478" lon="9.918672469121809"><ele>64.0</ele><time>2026-05-03T06:30:12.99Z</time></trkpt><trkpt lat="45.34356198261294" lon="9.918776048117898"><ele>64.0</ele><time>2026-05-03T06:30:14.99Z</time></trkpt><trkpt lat="45.34349440916483" lon="9.918887073413366"><ele>64.0</ele><time>2026-05-03T06:30:16.989Z</time></trkpt><trkpt lat="45.343424064766445" lon="9.91897745638947"><ele>64.0</ele><time>2026-05-03T06:30:18.989Z</time></trkpt><trkpt lat="45.34335188699904" lon="9.919097666306016"><ele>64.0</ele><time>2026-05-03T06:30:20.989Z</time></trkpt><trkpt lat="45.34327791975983" lon="9.919198182622074"><ele>64.0</ele><time>2026-05-03T06:30:22.989Z</time></trkpt><trkpt lat="45.34321715364073" lon="9.91930120443213"><ele>64.0</ele><time>2026-05-03T06:30:24.989Z</time></trkpt><trkpt lat="45.34314890359246" lon="9.919404334905193"><ele>64.4</ele><time>2026-05-03T06:30:26.989Z</time></trkpt><trkpt lat="45.343091254286485" lon="9.91950578074752"><ele>64.80000000000001</ele><time>2026-05-03T06:30:28.989Z</time></trkpt><trkpt lat="45.34303136910857" lon="9.919607397005775"><ele>65.19999999999999</ele><time>2026-05-03T06:30:30.989Z</time></trkpt><trkpt lat="45.34297072713858" lon="9.919705859515226"><ele>65.6</ele><time>2026-05-03T06:30:32.989Z</time></trkpt><trkpt lat="45.34291321668249" lon="9.91984098435823"><ele>66.0</ele><time>2026-05-03T06:30:34.989Z</time></trkpt><trkpt lat="45.34285428947132" lon="9.919988732476853"><ele>65.6</ele><time>2026-05-03T06:30:36.989Z</time></trkpt><trkpt lat="45.34279861146082" lon="9.920126052825822"><ele>65.19999999999999</ele><time>2026-05-03T06:30:38.989Z</time></trkpt><trkpt lat="45.34274913706473" lon="9.920256652724003"><ele>64.80000000000001</ele><time>2026-05-03T06:30:40.989Z</time></trkpt><trkpt lat="45.34266283672211" lon="9.920357348630299"><ele>64.4</ele><time>2026-05-03T06:30:42.989Z</time></trkpt><trkpt lat="45.3425620077022" lon="9.920445523440229"><ele>64.0</ele><time>2026-05-03T06:30:44.991Z</time></trkpt><trkpt lat="45.3424693373508" lon="9.920533837516043"><ele>64.0</ele><time>2026-05-03T06:30:46.991Z</time></trkpt><trkpt lat="45.342391536388945" lon="9.920652375804279"><ele>64.0</ele><time>2026-05-03T06:30:48.991Z</time></trkpt><trkpt lat="45.342339439669786" lon="9.920759525434818"><ele>64.0</ele><time>2026-05-03T06:30:50.991Z</time></trkpt><trkpt lat="45.34228648290836" lon="9.920879330962896"><ele>64.0</ele><time>2026-05-03T06:30:52.991Z</time></trkpt><trkpt lat="45.342252413790206" lon="9.920994831425718"><ele>64.0</ele><time>2026-05-03T06:30:54.991Z</time></trkpt><trkpt lat="45.342226202681225" lon="9.921115141072402"><ele>62.800000000000004</ele><time>2026-05-03T06:30:56.991Z</time></trkpt><trkpt lat="45.3421956628276" lon="9.921248004792567"><ele>61.60000000000001</ele><time>2026-05-03T06:30:58.991Z</time></trkpt><trkpt lat="45.34217026669935" lon="9.921364077869276"><ele>60.4</ele><time>2026-05-03T06:31:00.991Z</time></trkpt><trkpt lat="45.342158808358604" lon="9.921489962131751"><ele>59.2</ele><time>2026-05-03T06:31:02.991Z</time></trkpt><trkpt lat="45.34214224739549" lon="9.921625413634937"><ele>58.0</ele><time>2026-05-03T06:31:04.991Z</time></trkpt><trkpt lat="45.34212187586029" lon="9.921750157241739"><ele>57.8</ele><time>2026-05-03T06:31:06.991Z</time></trkpt><trkpt lat="45.34210731868684" lon="9.921881404594165"><ele>57.599999999999994</ele><time>2026-05-03T06:31:08.991Z</time></trkpt><trkpt lat="45.342094020923014" lon="9.922032805167264"><ele>57.400000000000006</ele><time>2026-05-03T06:31:10.991Z</time></trkpt><trkpt lat="45.3421081765487" lon="9.922221732768485"><ele>57.2</ele><time>2026-05-03T06:31:12.991Z</time></trkpt><trkpt lat="45.342094033734575" lon="9.922343084569249"><ele>57.0</ele><time>2026-05-03T06:31:13.991Z</time></trkpt><trkpt lat="45.34209137263437" lon="9.92245088081843"><ele>57.0</ele><time>2026-05-03T06:31:14.991Z</time></trkpt><trkpt lat="45.342074811593825" lon="9.922542285902743"><ele>57.0</ele><time>2026-05-03T06:31:15.991Z</time></trkpt><trkpt lat="45.34204398787462" lon="9.922706059158427"><ele>57.0</ele><time>2026-05-03T06:31:17.991Z</time></trkpt><trkpt lat="45.34204196401476" lon="9.922856227400736"><ele>57.0</ele><time>2026-05-03T06:31:19.991Z</time></trkpt><trkpt lat="45.342010762232846" lon="9.923006739706212"><ele>57.0</ele><time>2026-05-03T06:31:21.991Z</time></trkpt><trkpt lat="45.341999562440314" lon="9.923149869527062"><ele>57.8</ele><time>2026-05-03T06:31:23.991Z</time></trkpt><trkpt lat="45.34195684648148" lon="9.923327979055356"><ele>58.6</ele><time>2026-05-03T06:31:25.99Z</time></trkpt><trkpt lat="45.34189908398448" lon="9.923453828477903"><ele>59.39999999999999</ele><time>2026-05-03T06:31:27.99Z</time></trkpt><trkpt lat="45.34183488723297" lon="9.923549678203718"><ele>60.199999999999996</ele><time>2026-05-03T06:31:29.99Z</time></trkpt><trkpt lat="45.34175491802217" lon="9.923620129150713"><ele>61.0</ele><time>2026-05-03T06:31:31.99Z</time></trkpt><trkpt lat="45.341700661641184" lon="9.923668984651256"><ele>61.0</ele><time>2026-05-03T06:31:32.99Z</time></trkpt><trkpt lat="45.34162821835216" lon="9.923712391374622"><ele>60.99999999999999</ele><time>2026-05-03T06:31:34.99Z</time></trkpt><trkpt lat="45.3415357870907" lon="9.92374743606985"><ele>60.99999999999999</ele><time>2026-05-03T06:31:36.99Z</time></trkpt><trkpt lat="45.34143680154147" lon="9.92378009758674"><ele>61.0</ele><time>2026-05-03T06:31:38.99Z</time></trkpt><trkpt lat="45.3413278752715" lon="9.923837475006975"><ele>61.0</ele><time>2026-05-03T06:31:40.99Z</time></trkpt><trkpt lat="45.34124309463486" lon="9.92387955983164"><ele>61.0</ele><time>2026-05-03T06:31:42.99Z</time></trkpt><trkpt lat="45.341173942560474" lon="9.92400753731619"><ele>60.99999999999999</ele><time>2026-05-03T06:31:44.99Z</time></trkpt><trkpt lat="45.34114181683831" lon="9.924142657245152"><ele>60.99999999999999</ele><time>2026-05-03T06:31:46.99Z</time></trkpt><trkpt lat="45.34113434616034" lon="9.92430449811499"><ele>61.0</ele><time>2026-05-03T06:31:48.99Z</time></trkpt><trkpt lat="45.34111613491348" lon="9.924461876087005"><ele>61.0</ele><time>2026-05-03T06:31:50.99Z</time></trkpt><trkpt lat="45.34107643059273" lon="9.924624227754773"><ele>61.666666666666664</ele><time>2026-05-03T06:31:52.99Z</time></trkpt><trkpt lat="45.34105174526557" lon="9.924806210457959"><ele>62.33333333333333</ele><time>2026-05-03T06:31:54.99Z</time></trkpt><trkpt lat="45.341046940230065" lon="9.924898178854319"><ele>63.0</ele><time>2026-05-03T06:31:55.99Z</time></trkpt><trkpt lat="45.34103376489487" lon="9.924994369720054"><ele>63.66666666666667</ele><time>2026-05-03T06:31:56.99Z</time></trkpt><trkpt lat="45.34101413172056" lon="9.925084191879748"><ele>64.33333333333334</ele><time>2026-05-03T06:31:57.99Z</time></trkpt><trkpt lat="45.34099295495301" lon="9.925176917844258"><ele>65.0</ele><time>2026-05-03T06:31:58.99Z</time></trkpt><trkpt lat="45.34097069016059" lon="9.925264208246569"><ele>65.33333333333334</ele><time>2026-05-03T06:31:59.99Z</time></trkpt><trkpt lat="45.340944866594874" lon="9.925355093609031"><ele>65.66666666666667</ele><time>2026-05-03T06:32:00.99Z</time></trkpt><trkpt lat="45.34089576942368" lon="9.925522832632993"><ele>66.0</ele><time>2026-05-03T06:32:02.99Z</time></trkpt><trkpt lat="45.340860378339066" lon="9.92560407268707"><ele>66.33333333333333</ele><time>2026-05-03T06:32:03.99Z</time></trkpt><trkpt lat="45.34082026242128" lon="9.925678785335165"><ele>66.66666666666666</ele><time>2026-05-03T06:32:04.99Z</time></trkpt><trkpt lat="45.34077492241385" lon="9.925744651001287"><ele>67.0</ele><time>2026-05-03T06:32:05.99Z</time></trkpt><trkpt lat="45.34072230440626" lon="9.92580873665531"><ele>67.0</ele><time>2026-05-03T06:32:06.99Z</time></trkpt><trkpt lat="45.34066448623009" lon="9.925852770718267"><ele>67.0</ele><time>2026-05-03T06:32:07.99Z</time></trkpt><trkpt lat="45.340546321757344" lon="9.925891059902126"><ele>67.0</ele><time>2026-05-03T06:32:09.99Z</time></trkpt><trkpt lat="45.34042271196853" lon="9.925886038079533"><ele>67.0</ele><time>2026-05-03T06:32:11.99Z</time></trkpt><trkpt lat="45.34035550516204" lon="9.925882013578102"><ele>67.0</ele><time>2026-05-03T06:32:12.99Z</time></trkpt><trkpt lat="45.34028453884587" lon="9.925895411813054"><ele>67.0</ele><time>2026-05-03T06:32:13.99Z</time></trkpt><trkpt lat="45.34016349229981" lon="9.925906351955032"><ele>67.0</ele><time>2026-05-03T06:32:15.99Z</time></trkpt><trkpt lat="45.34005848428966" lon="9.925952707373291"><ele>67.0</ele><time>2026-05-03T06:32:17.99Z</time></trkpt><trkpt lat="45.34002227186027" lon="9.926070352277305"><ele>67.0</ele><time>2026-05-03T06:32:19.99Z</time></trkpt><trkpt lat="45.33999530188049" lon="9.926219360099768"><ele>67.0</ele><time>2026-05-03T06:32:21.99Z</time></trkpt><trkpt lat="45.340025681982226" lon="9.926378449804714"><ele>67.0</ele><time>2026-05-03T06:32:23.99Z</time></trkpt><trkpt lat="45.340047081646034" lon="9.926523925094443"><ele>67.0</ele><time>2026-05-03T06:32:25.989Z</time></trkpt><trkpt lat="45.34005305973107" lon="9.926658976079018"><ele>67.0</ele><time>2026-05-03T06:32:27.989Z</time></trkpt><trkpt lat="45.34005533186569" lon="9.926777109050178"><ele>67.0</ele><time>2026-05-03T06:32:29.989Z</time></trkpt><trkpt lat="45.340061750028106" lon="9.926932826873353"><ele>67.0</ele><time>2026-05-03T06:32:31.989Z</time></trkpt><trkpt lat="45.3400807836963" lon="9.927033793293836"><ele>67.0</ele><time>2026-05-03T06:32:32.989Z</time></trkpt><trkpt lat="45.34009963155585" lon="9.92711936764128"><ele>67.0</ele><time>2026-05-03T06:32:33.989Z</time></trkpt><trkpt lat="45.340120963902265" lon="9.927286563815555"><ele>67.0</ele><time>2026-05-03T06:32:35.989Z</time></trkpt><trkpt lat="45.340155934514186" lon="9.927444257447592"><ele>67.0</ele><time>2026-05-03T06:32:37.989Z</time></trkpt><trkpt lat="45.340256755902224" lon="9.927512479488767"><ele>67.0</ele><time>2026-05-03T06:32:39.989Z</time></trkpt><trkpt lat="45.34032378731383" lon="9.927502295940675"><ele>67.0</ele><time>2026-05-03T06:32:40.989Z</time></trkpt><trkpt lat="45.340393019004445" lon="9.927503796498769"><ele>67.0</ele><time>2026-05-03T06:32:41.989Z</time></trkpt><trkpt lat="45.34046620404719" lon="9.927514151523214"><ele>67.0</ele><time>2026-05-03T06:32:42.989Z</time></trkpt><trkpt lat="45.340533201900854" lon="9.927525389030484"><ele>67.28571428571429</ele><time>2026-05-03T06:32:43.989Z</time></trkpt><trkpt lat="45.34060293421364" lon="9.927531950707769"><ele>67.57142857142857</ele><time>2026-05-03T06:32:44.989Z</time></trkpt><trkpt lat="45.34066860751506" lon="9.927531764752702"><ele>67.85714285714286</ele><time>2026-05-03T06:32:45.989Z</time></trkpt><trkpt lat="45.34073258422554" lon="9.92755362076973"><ele>68.14285714285714</ele><time>2026-05-03T06:32:46.989Z</time></trkpt><trkpt lat="45.34079922434693" lon="9.927581791402124"><ele>68.42857142857143</ele><time>2026-05-03T06:32:47.989Z</time></trkpt><trkpt lat="45.34086499058675" lon="9.927596514779866"><ele>68.71428571428572</ele><time>2026-05-03T06:32:48.989Z</time></trkpt><trkpt lat="45.34093224905458" lon="9.927614969347683"><ele>69.0</ele><time>2026-05-03T06:32:49.991Z</time></trkpt><trkpt lat="45.34105709984963" lon="9.92763888898377"><ele>69.2</ele><time>2026-05-03T06:32:51.991Z</time></trkpt><trkpt lat="45.34111980996434" lon="9.927648485718752"><ele>69.4</ele><time>2026-05-03T06:32:52.991Z</time></trkpt><trkpt lat="45.34124330528992" lon="9.927667759836398"><ele>69.6</ele><time>2026-05-03T06:32:54.991Z</time></trkpt><trkpt lat="45.341357529681275" lon="9.927702009841484"><ele>69.8</ele><time>2026-05-03T06:32:56.991Z</time></trkpt><trkpt lat="45.341480175586625" lon="9.927723780711123"><ele>70.0</ele><time>2026-05-03T06:32:58.99Z</time></trkpt><trkpt lat="45.34154233419289" lon="9.927746817350718"><ele>70.0</ele><time>2026-05-03T06:32:59.99Z</time></trkpt><trkpt lat="45.34160764555716" lon="9.927762823306441"><ele>70.0</ele><time>2026-05-03T06:33:00.99Z</time></trkpt><trkpt lat="45.34173032986305" lon="9.927795446590714"><ele>70.0</ele><time>2026-05-03T06:33:02.99Z</time></trkpt><trkpt lat="45.341797682544396" lon="9.92780819283817"><ele>70.0</ele><time>2026-05-03T06:33:03.99Z</time></trkpt><trkpt lat="45.341860806051" lon="9.927827510272817"><ele>70.0</ele><time>2026-05-03T06:33:04.99Z</time></trkpt><trkpt lat="45.34192669253231" lon="9.927832856148628"><ele>70.0</ele><time>2026-05-03T06:33:05.99Z</time></trkpt><trkpt lat="45.34205274712597" lon="9.927861013173562"><ele>70.0</ele><time>2026-05-03T06:33:07.99Z</time></trkpt><trkpt lat="45.34211887489447" lon="9.927876262297174"><ele>70.0</ele><time>2026-05-03T06:33:08.99Z</time></trkpt><trkpt lat="45.3421831846588" lon="9.927889813560501"><ele>70.0</ele><time>2026-05-03T06:33:09.99Z</time></trkpt><trkpt lat="45.34225235492614" lon="9.927900304529057"><ele>70.0</ele><time>2026-05-03T06:33:10.99Z</time></trkpt><trkpt lat="45.34231590643443" lon="9.92791300987348"><ele>70.0</ele><time>2026-05-03T06:33:11.99Z</time></trkpt><trkpt lat="45.34238219628102" lon="9.927927973687199"><ele>70.0</ele><time>2026-05-03T06:33:12.99Z</time></trkpt><trkpt lat="45.34244927268386" lon="9.927942016951183"><ele>70.0</ele><time>2026-05-03T06:33:13.99Z</time></trkpt><trkpt lat="45.34251582381082" lon="9.927950795303786"><ele>69.75</ele><time>2026-05-03T06:33:14.99Z</time></trkpt><trkpt lat="45.342583906447906" lon="9.927962538139246"><ele>69.5</ele><time>2026-05-03T06:33:15.99Z</time></trkpt><trkpt lat="45.34271501701626" lon="9.927984104155101"><ele>69.25</ele><time>2026-05-03T06:33:17.99Z</time></trkpt><trkpt lat="45.34284592236296" lon="9.928005667695647"><ele>69.0</ele><time>2026-05-03T06:33:19.99Z</time></trkpt><trkpt lat="45.34297599550683" lon="9.928034063688798"><ele>69.0</ele><time>2026-05-03T06:33:21.99Z</time></trkpt><trkpt lat="45.34303933608961" lon="9.928055456387327"><ele>69.0</ele><time>2026-05-03T06:33:22.99Z</time></trkpt><trkpt lat="45.34310412016745" lon="9.928063652265978"><ele>69.0</ele><time>2026-05-03T06:33:23.99Z</time></trkpt><trkpt lat="45.34317039477096" lon="9.928076774437086"><ele>69.0</ele><time>2026-05-03T06:33:24.99Z</time></trkpt><trkpt lat="45.34323422318889" lon="9.928089497197002"><ele>69.0</ele><time>2026-05-03T06:33:25.99Z</time></trkpt><trkpt lat="45.3433028550432" lon="9.92810243459892"><ele>69.0</ele><time>2026-05-03T06:33:26.99Z</time></trkpt><trkpt lat="45.3434284806753" lon="9.928128377191078"><ele>69.0</ele><time>2026-05-03T06:33:28.99Z</time></trkpt><trkpt lat="45.34349309170411" lon="9.928142448188574"><ele>69.0</ele><time>2026-05-03T06:33:29.99Z</time></trkpt><trkpt lat="45.34356168982409" lon="9.928148473084846"><ele>69.0</ele><time>2026-05-03T06:33:30.99Z</time></trkpt><trkpt lat="45.343686438880106" lon="9.92817161335381"><ele>69.0</ele><time>2026-05-03T06:33:32.99Z</time></trkpt><trkpt lat="45.34375540864553" lon="9.928188046776219"><ele>69.0</ele><time>2026-05-03T06:33:33.99Z</time></trkpt><trkpt lat="45.34382246551642" lon="9.928202820198486"><ele>69.0</ele><time>2026-05-03T06:33:34.99Z</time></trkpt><trkpt lat="45.34394615395747" lon="9.928225681575288"><ele>69.28571428571429</ele><time>2026-05-03T06:33:36.99Z</time></trkpt><trkpt lat="45.34401371290807" lon="9.928234779000578"><ele>69.57142857142858</ele><time>2026-05-03T06:33:37.989Z</time></trkpt><trkpt lat="45.34407763571206" lon="9.92824780209389"><ele>69.85714285714286</ele><time>2026-05-03T06:33:38.989Z</time></trkpt><trkpt lat="45.34414132432075" lon="9.928257721054527"><ele>70.14285714285714</ele><time>2026-05-03T06:33:39.989Z</time></trkpt><trkpt lat="45.34420501487126" lon="9.928276568312546"><ele>70.42857142857142</ele><time>2026-05-03T06:33:40.989Z</time></trkpt><trkpt lat="45.34426796475255" lon="9.928284721605586"><ele>70.71428571428571</ele><time>2026-05-03T06:33:41.989Z</time></trkpt><trkpt lat="45.34433286098303" lon="9.928289161327383"><ele>71.0</ele><time>2026-05-03T06:33:42.989Z</time></trkpt><trkpt lat="45.344395408247614" lon="9.92830974372203"><ele>71.0</ele><time>2026-05-03T06:33:43.989Z</time></trkpt><trkpt lat="45.344519553122694" lon="9.928343520728168"><ele>71.0</ele><time>2026-05-03T06:33:45.989Z</time></trkpt><trkpt lat="45.344583759658164" lon="9.92835259372368"><ele>71.0</ele><time>2026-05-03T06:33:46.989Z</time></trkpt><trkpt lat="45.344652783155375" lon="9.928363033115918"><ele>71.0</ele><time>2026-05-03T06:33:47.989Z</time></trkpt><trkpt lat="45.344715852598426" lon="9.928375273956792"><ele>71.0</ele><time>2026-05-03T06:33:48.989Z</time></trkpt><trkpt lat="45.344841177588215" lon="9.928401280664069"><ele>70.83333333333334</ele><time>2026-05-03T06:33:50.989Z</time></trkpt><trkpt lat="45.34490374103661" lon="9.928413349344044"><ele>70.66666666666667</ele><time>2026-05-03T06:33:51.989Z</time></trkpt><trkpt lat="45.34496616245176" lon="9.928430407868836"><ele>70.5</ele><time>2026-05-03T06:33:52.989Z</time></trkpt><trkpt lat="45.345089497220656" lon="9.928455659463923"><ele>70.33333333333333</ele><time>2026-05-03T06:33:54.989Z</time></trkpt><trkpt lat="45.34516523681412" lon="9.928470019608959"><ele>70.16666666666666</ele><time>2026-05-03T06:33:55.989Z</time></trkpt><trkpt lat="45.34522975541499" lon="9.92848158007325"><ele>70.0</ele><time>2026-05-03T06:33:56.989Z</time></trkpt><trkpt lat="45.34529581799593" lon="9.92849324178462"><ele>70.0</ele><time>2026-05-03T06:33:57.989Z</time></trkpt><trkpt lat="45.3453594819456" lon="9.928506424302096"><ele>70.0</ele><time>2026-05-03T06:33:58.989Z</time></trkpt><trkpt lat="45.34542262889147" lon="9.928514998797384"><ele>70.0</ele><time>2026-05-03T06:33:59.989Z</time></trkpt><trkpt lat="45.34549270040512" lon="9.928521684088588"><ele>70.0</ele><time>2026-05-03T06:34:00.989Z</time></trkpt><trkpt lat="45.34555794392849" lon="9.928527897251989"><ele>70.0</ele><time>2026-05-03T06:34:01.989Z</time></trkpt><trkpt lat="45.34562268418842" lon="9.928533858296085"><ele>70.0</ele><time>2026-05-03T06:34:02.989Z</time></trkpt><trkpt lat="45.34569003073841" lon="9.928540253978396"><ele>70.0</ele><time>2026-05-03T06:34:03.989Z</time></trkpt><trkpt lat="45.3457532897625" lon="9.928556349637802"><ele>69.85714285714286</ele><time>2026-05-03T06:34:04.989Z</time></trkpt><trkpt lat="45.34582680033564" lon="9.928576118002828"><ele>69.71428571428572</ele><time>2026-05-03T06:34:05.989Z</time></trkpt><trkpt lat="45.34590548881969" lon="9.928591626245478"><ele>69.57142857142857</ele><time>2026-05-03T06:34:06.989Z</time></trkpt><trkpt lat="45.34597200815363" lon="9.928605505143173"><ele>69.42857142857143</ele><time>2026-05-03T06:34:07.989Z</time></trkpt><trkpt lat="45.34603587734856" lon="9.928616065730578"><ele>69.28571428571429</ele><time>2026-05-03T06:34:08.989Z</time></trkpt><trkpt lat="45.346105138887665" lon="9.928628831504936"><ele>69.14285714285714</ele><time>2026-05-03T06:34:09.989Z</time></trkpt><trkpt lat="45.3461728442994" lon="9.928640787931535"><ele>69.0</ele><time>2026-05-03T06:34:10.989Z</time></trkpt><trkpt lat="45.34624123086586" lon="9.92865414233186"><ele>69.0</ele><time>2026-05-03T06:34:11.989Z</time></trkpt><trkpt lat="45.34631678303167" lon="9.928666372016263"><ele>69.0</ele><time>2026-05-03T06:34:12.989Z</time></trkpt><trkpt lat="45.34638223709677" lon="9.928681915184516"><ele>69.0</ele><time>2026-05-03T06:34:13.989Z</time></trkpt><trkpt lat="45.34645063131404" lon="9.928695821609434"><ele>69.0</ele><time>2026-05-03T06:34:14.989Z</time></trkpt><trkpt lat="45.346521888305546" lon="9.9287070285144"><ele>69.0</ele><time>2026-05-03T06:34:15.989Z</time></trkpt><trkpt lat="45.34659734064435" lon="9.928711767712871"><ele>69.0</ele><time>2026-05-03T06:34:16.989Z</time></trkpt><trkpt lat="45.3466661200616" lon="9.92872782580577"><ele>69.0</ele><time>2026-05-03T06:34:17.989Z</time></trkpt><trkpt lat="45.34673887168869" lon="9.92874090656068"><ele>69.14285714285714</ele><time>2026-05-03T06:34:18.989Z</time></trkpt><trkpt lat="45.346814230329464" lon="9.928753424424732"><ele>69.28571428571429</ele><time>2026-05-03T06:34:19.989Z</time></trkpt><trkpt lat="45.34687840645438" lon="9.928766375032506"><ele>69.42857142857143</ele><time>2026-05-03T06:34:20.989Z</time></trkpt><trkpt lat="45.34695090836925" lon="9.928778675305304"><ele>69.57142857142857</ele><time>2026-05-03T06:34:21.989Z</time></trkpt><trkpt lat="45.34702809103539" lon="9.928790681270089"><ele>69.71428571428572</ele><time>2026-05-03T06:34:22.989Z</time></trkpt><trkpt lat="45.347098448106536" lon="9.928805045379368"><ele>69.85714285714286</ele><time>2026-05-03T06:34:23.989Z</time></trkpt><trkpt lat="45.347172980727336" lon="9.928821784320165"><ele>70.0</ele><time>2026-05-03T06:34:24.989Z</time></trkpt><trkpt lat="45.34724612581656" lon="9.928834314184178"><ele>70.14285714285714</ele><time>2026-05-03T06:34:25.989Z</time></trkpt><trkpt lat="45.347314990648826" lon="9.928847928381995"><ele>70.28571428571428</ele><time>2026-05-03T06:34:26.989Z</time></trkpt><trkpt lat="45.347384867637295" lon="9.928864376097112"><ele>70.42857142857143</ele><time>2026-05-03T06:34:27.989Z</time></trkpt><trkpt lat="45.34745781328575" lon="9.928876842502024"><ele>70.57142857142857</ele><time>2026-05-03T06:34:28.989Z</time></trkpt><trkpt lat="45.34752830762379" lon="9.928890210166749"><ele>70.71428571428571</ele><time>2026-05-03T06:34:29.989Z</time></trkpt><trkpt lat="45.34759441511082" lon="9.928906569601272"><ele>70.85714285714286</ele><time>2026-05-03T06:34:30.989Z</time></trkpt><trkpt lat="45.34765971258655" lon="9.928923828892646"><ele>71.0</ele><time>2026-05-03T06:34:31.989Z</time></trkpt><trkpt lat="45.34773328916185" lon="9.928934753269132"><ele>71.0</ele><time>2026-05-03T06:34:32.989Z</time></trkpt><trkpt lat="45.34780228948971" lon="9.928947157330882"><ele>71.0</ele><time>2026-05-03T06:34:33.989Z</time></trkpt><trkpt lat="45.34786832527341" lon="9.928960592955546"><ele>71.0</ele><time>2026-05-03T06:34:34.989Z</time></trkpt><trkpt lat="45.347941809003785" lon="9.92897425634105"><ele>71.0</ele><time>2026-05-03T06:34:35.989Z</time></trkpt><trkpt lat="45.34800651339102" lon="9.92899184943765"><ele>71.0</ele><time>2026-05-03T06:34:36.989Z</time></trkpt><trkpt lat="45.34813946768385" lon="9.92902461767151"><ele>71.0</ele><time>2026-05-03T06:34:38.988Z</time></trkpt><trkpt lat="45.34820482527085" lon="9.929042208229106"><ele>71.0</ele><time>2026-05-03T06:34:39.988Z</time></trkpt><trkpt lat="45.348274662027" lon="9.929051335871238"><ele>71.0</ele><time>2026-05-03T06:34:40.988Z</time></trkpt><trkpt lat="45.348346989448515" lon="9.929067070858022"><ele>71.0</ele><time>2026-05-03T06:34:41.988Z</time></trkpt><trkpt lat="45.34841666622384" lon="9.92908721187133"><ele>71.0</ele><time>2026-05-03T06:34:42.988Z</time></trkpt><trkpt lat="45.34848307564212" lon="9.929096797510566"><ele>71.0</ele><time>2026-05-03T06:34:43.988Z</time></trkpt><trkpt lat="45.34854860709144" lon="9.929110083616544"><ele>71.0</ele><time>2026-05-03T06:34:44.988Z</time></trkpt><trkpt lat="45.34862222208301" lon="9.929126793423634"><ele>71.0</ele><time>2026-05-03T06:34:45.988Z</time></trkpt><trkpt lat="45.34869195924208" lon="9.92914143121542"><ele>71.0</ele><time>2026-05-03T06:34:46.988Z</time></trkpt><trkpt lat="45.34875976578771" lon="9.929150335798159"><ele>71.0</ele><time>2026-05-03T06:34:47.988Z</time></trkpt><trkpt lat="45.348836072553254" lon="9.929163278225035"><ele>71.0</ele><time>2026-05-03T06:34:48.988Z</time></trkpt><trkpt lat="45.34889960679919" lon="9.929181130170077"><ele>71.0</ele><time>2026-05-03T06:34:49.988Z</time></trkpt><trkpt lat="45.348970856642225" lon="9.929195269641829"><ele>71.0</ele><time>2026-05-03T06:34:50.988Z</time></trkpt><trkpt lat="45.349040387902264" lon="9.929207140896914"><ele>71.0</ele><time>2026-05-03T06:34:51.988Z</time></trkpt><trkpt lat="45.34917453242972" lon="9.929232246938637"><ele>70.85714285714286</ele><time>2026-05-03T06:34:53.988Z</time></trkpt><trkpt lat="45.34924071711217" lon="9.92925080625365"><ele>70.71428571428571</ele><time>2026-05-03T06:34:54.988Z</time></trkpt><trkpt lat="45.34931493103611" lon="9.929263037717572"><ele>70.57142857142857</ele><time>2026-05-03T06:34:55.99Z</time></trkpt><trkpt lat="45.34937882127461" lon="9.929275756099763"><ele>70.42857142857143</ele><time>2026-05-03T06:34:56.991Z</time></trkpt><trkpt lat="45.34945280368421" lon="9.92928911874347"><ele>70.28571428571428</ele><time>2026-05-03T06:34:57.991Z</time></trkpt><trkpt lat="45.34951940982832" lon="9.929302362108947"><ele>70.14285714285714</ele><time>2026-05-03T06:34:58.99Z</time></trkpt><trkpt lat="45.34958680310788" lon="9.929310633728312"><ele>70.0</ele><time>2026-05-03T06:34:59.99Z</time></trkpt><trkpt lat="45.34965732362585" lon="9.929326863828013"><ele>70.57142857142857</ele><time>2026-05-03T06:35:00.99Z</time></trkpt><trkpt lat="45.349727304747375" lon="9.92933866956159"><ele>71.14285714285714</ele><time>2026-05-03T06:35:01.99Z</time></trkpt><trkpt lat="45.349793841839556" lon="9.929350778416664"><ele>71.71428571428572</ele><time>2026-05-03T06:35:02.99Z</time></trkpt><trkpt lat="45.34986056898899" lon="9.929362613199208"><ele>72.28571428571428</ele><time>2026-05-03T06:35:03.99Z</time></trkpt><trkpt lat="45.34992694307772" lon="9.929375943359695"><ele>72.85714285714286</ele><time>2026-05-03T06:35:04.99Z</time></trkpt><trkpt lat="45.34999300645464" lon="9.929384783182996"><ele>73.42857142857143</ele><time>2026-05-03T06:35:05.99Z</time></trkpt><trkpt lat="45.35006054808153" lon="9.929396877909642"><ele>74.0</ele><time>2026-05-03T06:35:06.99Z</time></trkpt><trkpt lat="45.350130106208525" lon="9.929412257675475"><ele>74.0</ele><time>2026-05-03T06:35:07.99Z</time></trkpt><trkpt lat="45.35019467899588" lon="9.929432361163801"><ele>74.0</ele><time>2026-05-03T06:35:08.99Z</time></trkpt><trkpt lat="45.350267343377524" lon="9.9294457567784"><ele>74.0</ele><time>2026-05-03T06:35:09.99Z</time></trkpt><trkpt lat="45.35033185614967" lon="9.929451893150583"><ele>74.0</ele><time>2026-05-03T06:35:10.99Z</time></trkpt><trkpt lat="45.35040516314136" lon="9.929461995543058"><ele>74.0</ele><time>2026-05-03T06:35:11.99Z</time></trkpt><trkpt lat="45.350471999960334" lon="9.929471666095948"><ele>74.0</ele><time>2026-05-03T06:35:12.99Z</time></trkpt><trkpt lat="45.350537463653254" lon="9.929489905208703"><ele>74.0</ele><time>2026-05-03T06:35:13.99Z</time></trkpt><trkpt lat="45.350607798247566" lon="9.929500677018307"><ele>73.85714285714286</ele><time>2026-05-03T06:35:14.99Z</time></trkpt><trkpt lat="45.350674819366304" lon="9.929516092978975"><ele>73.71428571428571</ele><time>2026-05-03T06:35:15.99Z</time></trkpt><trkpt lat="45.350743152459735" lon="9.929527075046769"><ele>73.57142857142857</ele><time>2026-05-03T06:35:16.99Z</time></trkpt><trkpt lat="45.350816288826785" lon="9.929540403499571"><ele>73.42857142857143</ele><time>2026-05-03T06:35:17.99Z</time></trkpt><trkpt lat="45.350889328412215" lon="9.929549956102997"><ele>73.28571428571429</ele><time>2026-05-03T06:35:18.99Z</time></trkpt><trkpt lat="45.35095726781082" lon="9.929566861648482"><ele>73.14285714285714</ele><time>2026-05-03T06:35:19.99Z</time></trkpt><trkpt lat="45.351028956865136" lon="9.929579566437939"><ele>73.0</ele><time>2026-05-03T06:35:20.99Z</time></trkpt><trkpt lat="45.35109468111623" lon="9.929595330503448"><ele>73.0</ele><time>2026-05-03T06:35:21.99Z</time></trkpt><trkpt lat="45.351165654265" lon="9.929603961250988"><ele>73.0</ele><time>2026-05-03T06:35:22.99Z</time></trkpt><trkpt lat="45.3512366757072" lon="9.929618922369245"><ele>73.0</ele><time>2026-05-03T06:35:23.99Z</time></trkpt><trkpt lat="45.35130161852247" lon="9.929635061215919"><ele>73.0</ele><time>2026-05-03T06:35:24.99Z</time></trkpt><trkpt lat="45.351370226497004" lon="9.929649822691982"><ele>73.0</ele><time>2026-05-03T06:35:25.99Z</time></trkpt><trkpt lat="45.3514348506953" lon="9.929658850394638"><ele>73.0</ele><time>2026-05-03T06:35:26.99Z</time></trkpt><trkpt lat="45.35149856507852" lon="9.929677943645359"><ele>73.0</ele><time>2026-05-03T06:35:27.99Z</time></trkpt><trkpt lat="45.35156859079564" lon="9.92969029038605"><ele>72.71428571428571</ele><time>2026-05-03T06:35:28.99Z</time></trkpt><trkpt lat="45.35163686839324" lon="9.929707885164609"><ele>72.42857142857143</ele><time>2026-05-03T06:35:29.99Z</time></trkpt><trkpt lat="45.35170391034594" lon="9.92972077070687"><ele>72.14285714285714</ele><time>2026-05-03T06:35:30.99Z</time></trkpt><trkpt lat="45.35177190894646" lon="9.929734546983402"><ele>71.85714285714286</ele><time>2026-05-03T06:35:31.99Z</time></trkpt><trkpt lat="45.35184001102657" lon="9.929742920851417"><ele>71.57142857142857</ele><time>2026-05-03T06:35:32.99Z</time></trkpt><trkpt lat="45.35190762186788" lon="9.929754883659731"><ele>71.28571428571428</ele><time>2026-05-03T06:35:33.99Z</time></trkpt><trkpt lat="45.35197433078821" lon="9.929766247638058"><ele>71.0</ele><time>2026-05-03T06:35:34.99Z</time></trkpt><trkpt lat="45.35203704114586" lon="9.929784153854888"><ele>71.0</ele><time>2026-05-03T06:35:35.989Z</time></trkpt><trkpt lat="45.35210404505582" lon="9.929798879084576"><ele>71.0</ele><time>2026-05-03T06:35:36.989Z</time></trkpt><trkpt lat="45.35216843148701" lon="9.929814487736893"><ele>71.0</ele><time>2026-05-03T06:35:37.989Z</time></trkpt><trkpt lat="45.352232710499116" lon="9.929824241079272"><ele>71.0</ele><time>2026-05-03T06:35:38.989Z</time></trkpt><trkpt lat="45.35230031050005" lon="9.929842850736811"><ele>71.0</ele><time>2026-05-03T06:35:39.989Z</time></trkpt><trkpt lat="45.35237121780075" lon="9.929857388588841"><ele>71.0</ele><time>2026-05-03T06:35:40.989Z</time></trkpt><trkpt lat="45.352435709434786" lon="9.929869448853097"><ele>71.0</ele><time>2026-05-03T06:35:41.989Z</time></trkpt><trkpt lat="45.35250226353917" lon="9.929880810498272"><ele>71.33333333333334</ele><time>2026-05-03T06:35:42.989Z</time></trkpt><trkpt lat="45.35257384584071" lon="9.92988813783315"><ele>71.66666666666667</ele><time>2026-05-03T06:35:43.989Z</time></trkpt><trkpt lat="45.35270480358387" lon="9.929910295278537"><ele>72.0</ele><time>2026-05-03T06:35:45.989Z</time></trkpt><trkpt lat="45.35276949779722" lon="9.929915719532222"><ele>72.33333333333333</ele><time>2026-05-03T06:35:46.989Z</time></trkpt><trkpt lat="45.35283826137705" lon="9.92992291722744"><ele>72.66666666666666</ele><time>2026-05-03T06:35:47.989Z</time></trkpt><trkpt lat="45.35290697276118" lon="9.929929956573638"><ele>73.0</ele><time>2026-05-03T06:35:48.989Z</time></trkpt><trkpt lat="45.35297730377452" lon="9.929942675409706"><ele>73.14285714285714</ele><time>2026-05-03T06:35:49.989Z</time></trkpt><trkpt lat="45.35304254670699" lon="9.929956057895215"><ele>73.28571428571429</ele><time>2026-05-03T06:35:50.989Z</time></trkpt><trkpt lat="45.353110288233815" lon="9.929964423234372"><ele>73.42857142857143</ele><time>2026-05-03T06:35:51.989Z</time></trkpt><trkpt lat="45.35317584571021" lon="9.929975595461059"><ele>73.57142857142857</ele><time>2026-05-03T06:35:52.989Z</time></trkpt><trkpt lat="45.35324222643584" lon="9.929992901612572"><ele>73.71428571428571</ele><time>2026-05-03T06:35:53.989Z</time></trkpt><trkpt lat="45.35331355438638" lon="9.930017159859489"><ele>73.85714285714286</ele><time>2026-05-03T06:35:54.989Z</time></trkpt><trkpt lat="45.35338387791609" lon="9.93002773595952"><ele>74.0</ele><time>2026-05-03T06:35:55.989Z</time></trkpt><trkpt lat="45.353451941489446" lon="9.93003982176575"><ele>74.0</ele><time>2026-05-03T06:35:56.989Z</time></trkpt><trkpt lat="45.35352396342161" lon="9.930040691429438"><ele>74.0</ele><time>2026-05-03T06:35:57.989Z</time></trkpt><trkpt lat="45.353586919547105" lon="9.930043966394376"><ele>74.0</ele><time>2026-05-03T06:35:58.989Z</time></trkpt><trkpt lat="45.35365277472768" lon="9.930061429434165"><ele>74.0</ele><time>2026-05-03T06:35:59.989Z</time></trkpt><trkpt lat="45.353718162182176" lon="9.930078399102761"><ele>74.0</ele><time>2026-05-03T06:36:00.989Z</time></trkpt><trkpt lat="45.35378813385027" lon="9.930089460273031"><ele>74.0</ele><time>2026-05-03T06:36:01.989Z</time></trkpt><trkpt lat="45.353859558156195" lon="9.930103100927342"><ele>74.0</ele><time>2026-05-03T06:36:02.989Z</time></trkpt><trkpt lat="45.35393186837745" lon="9.93011460913095"><ele>74.0</ele><time>2026-05-03T06:36:03.989Z</time></trkpt><trkpt lat="45.354000627854944" lon="9.930130827639434"><ele>74.0</ele><time>2026-05-03T06:36:04.989Z</time></trkpt><trkpt lat="45.35412364880344" lon="9.930163810888043"><ele>74.0</ele><time>2026-05-03T06:36:06.989Z</time></trkpt><trkpt lat="45.354193082741496" lon="9.930175283073963"><ele>74.0</ele><time>2026-05-03T06:36:07.989Z</time></trkpt><trkpt lat="45.35426390501224" lon="9.930189230770047"><ele>74.0</ele><time>2026-05-03T06:36:08.989Z</time></trkpt><trkpt lat="45.354336118815795" lon="9.930201103363974"><ele>74.0</ele><time>2026-05-03T06:36:09.989Z</time></trkpt><trkpt lat="45.354407150668216" lon="9.930213917638042"><ele>74.0</ele><time>2026-05-03T06:36:10.989Z</time></trkpt><trkpt lat="45.35447634801013" lon="9.930234817742502"><ele>74.0</ele><time>2026-05-03T06:36:11.989Z</time></trkpt><trkpt lat="45.35453891990831" lon="9.930247491725883"><ele>74.0</ele><time>2026-05-03T06:36:12.989Z</time></trkpt><trkpt lat="45.35460439946715" lon="9.930265376028563"><ele>74.0</ele><time>2026-05-03T06:36:13.989Z</time></trkpt><trkpt lat="45.354671814881065" lon="9.930273402704534"><ele>74.0</ele><time>2026-05-03T06:36:14.989Z</time></trkpt><trkpt lat="45.354737143398225" lon="9.930283546191838"><ele>74.0</ele><time>2026-05-03T06:36:15.989Z</time></trkpt><trkpt lat="45.35481175113044" lon="9.93028588147518"><ele>74.0</ele><time>2026-05-03T06:36:16.989Z</time></trkpt><trkpt lat="45.35487543754158" lon="9.93029644083434"><ele>73.85714285714286</ele><time>2026-05-03T06:36:17.989Z</time></trkpt><trkpt lat="45.354945263519475" lon="9.930305466167006"><ele>73.71428571428571</ele><time>2026-05-03T06:36:18.989Z</time></trkpt><trkpt lat="45.35501846346104" lon="9.93032162660889"><ele>73.57142857142857</ele><time>2026-05-03T06:36:19.989Z</time></trkpt><trkpt lat="45.355084613521726" lon="9.930336712256262"><ele>73.42857142857143</ele><time>2026-05-03T06:36:20.989Z</time></trkpt><trkpt lat="45.355150958972374" lon="9.930348800306481"><ele>73.28571428571429</ele><time>2026-05-03T06:36:21.989Z</time></trkpt><trkpt lat="45.355222470896706" lon="9.930359545583169"><ele>73.14285714285714</ele><time>2026-05-03T06:36:22.989Z</time></trkpt><trkpt lat="45.35528558903154" lon="9.930388611316783"><ele>73.0</ele><time>2026-05-03T06:36:23.989Z</time></trkpt><trkpt lat="45.355358960308365" lon="9.930397063350144"><ele>73.0</ele><time>2026-05-03T06:36:24.989Z</time></trkpt><trkpt lat="45.35541992577295" lon="9.930423577017867"><ele>73.0</ele><time>2026-05-03T06:36:25.989Z</time></trkpt><trkpt lat="45.35548775128881" lon="9.930444639218285"><ele>73.0</ele><time>2026-05-03T06:36:26.989Z</time></trkpt><trkpt lat="45.355553050960424" lon="9.930456793705245"><ele>73.0</ele><time>2026-05-03T06:36:27.989Z</time></trkpt><trkpt lat="45.3556878943018" lon="9.930467992424154"><ele>73.0</ele><time>2026-05-03T06:36:29.989Z</time></trkpt><trkpt lat="45.355762694354944" lon="9.93048301806263"><ele>73.0</ele><time>2026-05-03T06:36:30.989Z</time></trkpt><trkpt lat="45.355832164895716" lon="9.930481700885814"><ele>73.16666666666666</ele><time>2026-05-03T06:36:31.989Z</time></trkpt><trkpt lat="45.355952315778005" lon="9.930505069419135"><ele>73.33333333333333</ele><time>2026-05-03T06:36:33.989Z</time></trkpt><trkpt lat="45.356021889142426" lon="9.930509114713125"><ele>73.5</ele><time>2026-05-03T06:36:34.989Z</time></trkpt><trkpt lat="45.35609063908608" lon="9.930518337232437"><ele>73.66666666666667</ele><time>2026-05-03T06:36:35.989Z</time></trkpt><trkpt lat="45.35615461112534" lon="9.930533639008566"><ele>73.83333333333334</ele><time>2026-05-03T06:36:36.988Z</time></trkpt><trkpt lat="45.35622094577609" lon="9.930547439492747"><ele>74.0</ele><time>2026-05-03T06:36:37.988Z</time></trkpt><trkpt lat="45.35634616105862" lon="9.930577017525323"><ele>74.4</ele><time>2026-05-03T06:36:39.988Z</time></trkpt><trkpt lat="45.35646518798245" lon="9.930615840526045"><ele>74.80000000000001</ele><time>2026-05-03T06:36:41.988Z</time></trkpt><trkpt lat="45.356579131484004" lon="9.93062364683168"><ele>75.19999999999999</ele><time>2026-05-03T06:36:43.988Z</time></trkpt><trkpt lat="45.356684611645285" lon="9.930638407492562"><ele>75.6</ele><time>2026-05-03T06:36:45.988Z</time></trkpt><trkpt lat="45.35675866181154" lon="9.93072087908796"><ele>76.0</ele><time>2026-05-03T06:36:47.988Z</time></trkpt><trkpt lat="45.356768805944164" lon="9.930890017670716"><ele>75.75</ele><time>2026-05-03T06:36:49.988Z</time></trkpt><trkpt lat="45.35677138643095" lon="9.931053150795822"><ele>75.5</ele><time>2026-05-03T06:36:51.988Z</time></trkpt><trkpt lat="45.356798980910966" lon="9.93121681828694"><ele>75.25</ele><time>2026-05-03T06:36:53.988Z</time></trkpt><trkpt lat="45.35681451741253" lon="9.93138004188603"><ele>75.0</ele><time>2026-05-03T06:36:55.988Z</time></trkpt><trkpt lat="45.356841232642054" lon="9.931548724809963"><ele>75.0</ele><time>2026-05-03T06:36:57.988Z</time></trkpt><trkpt lat="45.35687807191944" lon="9.931708339609242"><ele>75.0</ele><time>2026-05-03T06:36:59.988Z</time></trkpt><trkpt lat="45.35687441187852" lon="9.931852617661296"><ele>75.0</ele><time>2026-05-03T06:37:01.99Z</time></trkpt><trkpt lat="45.35689452012505" lon="9.93195378215288"><ele>75.0</ele><time>2026-05-03T06:37:03.99Z</time></trkpt><trkpt lat="45.35699272577375" lon="9.93198575612802"><ele>75.0</ele><time>2026-05-03T06:37:05.99Z</time></trkpt><trkpt lat="45.35711713312415" lon="9.93197425612435"><ele>74.6</ele><time>2026-05-03T06:37:07.99Z</time></trkpt><trkpt lat="45.35724506927859" lon="9.931986303141597"><ele>74.2</ele><time>2026-05-03T06:37:09.99Z</time></trkpt><trkpt lat="45.35731014595871" lon="9.931982222777949"><ele>73.8</ele><time>2026-05-03T06:37:10.99Z</time></trkpt><trkpt lat="45.357436571300845" lon="9.931975951228212"><ele>73.4</ele><time>2026-05-03T06:37:12.99Z</time></trkpt><trkpt lat="45.35750357222923" lon="9.931967061210662"><ele>73.0</ele><time>2026-05-03T06:37:13.99Z</time></trkpt><trkpt lat="45.357627727644704" lon="9.931947673469734"><ele>73.0</ele><time>2026-05-03T06:37:15.99Z</time></trkpt><trkpt lat="45.35773632247007" lon="9.931934704026956"><ele>73.0</ele><time>2026-05-03T06:37:17.99Z</time></trkpt><trkpt lat="45.35780585006409" lon="9.931935239228828"><ele>73.0</ele><time>2026-05-03T06:37:18.99Z</time></trkpt><trkpt lat="45.35788543922795" lon="9.931944817944524"><ele>73.0</ele><time>2026-05-03T06:37:19.99Z</time></trkpt><trkpt lat="45.35795469444713" lon="9.931930043107132"><ele>73.0</ele><time>2026-05-03T06:37:20.99Z</time></trkpt><trkpt lat="45.358021837986335" lon="9.931923174198719"><ele>73.0</ele><time>2026-05-03T06:37:21.99Z</time></trkpt><trkpt lat="45.35809509718942" lon="9.931919325139654"><ele>72.85714285714286</ele><time>2026-05-03T06:37:22.99Z</time></trkpt><trkpt lat="45.35816504192713" lon="9.931912336977385"><ele>72.71428571428572</ele><time>2026-05-03T06:37:23.99Z</time></trkpt><trkpt lat="45.358234881041184" lon="9.931901541177817"><ele>72.57142857142858</ele><time>2026-05-03T06:37:24.99Z</time></trkpt><trkpt lat="45.35830546592381" lon="9.931900261245781"><ele>72.42857142857143</ele><time>2026-05-03T06:37:25.989Z</time></trkpt><trkpt lat="45.358372481310255" lon="9.931890514607291"><ele>72.28571428571429</ele><time>2026-05-03T06:37:26.989Z</time></trkpt><trkpt lat="45.358443067052995" lon="9.9318830099892"><ele>72.14285714285715</ele><time>2026-05-03T06:37:27.989Z</time></trkpt><trkpt lat="45.358510462126716" lon="9.931875051028495"><ele>72.0</ele><time>2026-05-03T06:37:28.989Z</time></trkpt><trkpt lat="45.35857457256539" lon="9.931871752732091"><ele>72.00000000000001</ele><time>2026-05-03T06:37:29.989Z</time></trkpt><trkpt lat="45.35864339622011" lon="9.931867206989276"><ele>72.0</ele><time>2026-05-03T06:37:30.989Z</time></trkpt><trkpt lat="45.35871118551181" lon="9.931862888316358"><ele>72.0</ele><time>2026-05-03T06:37:31.989Z</time></trkpt><trkpt lat="45.35877757698416" lon="9.931852222705837"><ele>72.0</ele><time>2026-05-03T06:37:32.989Z</time></trkpt><trkpt lat="45.358846278412265" lon="9.931847439610308"><ele>72.0</ele><time>2026-05-03T06:37:33.989Z</time></trkpt><trkpt lat="45.35891948347025" lon="9.931844693762205"><ele>72.00000000000001</ele><time>2026-05-03T06:37:34.989Z</time></trkpt><trkpt lat="45.358990668085575" lon="9.931839013665424"><ele>72.0</ele><time>2026-05-03T06:37:35.989Z</time></trkpt><trkpt lat="45.35905801760845" lon="9.931830854663044"><ele>72.28571428571429</ele><time>2026-05-03T06:37:36.989Z</time></trkpt><trkpt lat="45.35912745945066" lon="9.931819066113691"><ele>72.57142857142857</ele><time>2026-05-03T06:37:37.989Z</time></trkpt><trkpt lat="45.359193977172815" lon="9.93181437462001"><ele>72.85714285714286</ele><time>2026-05-03T06:37:38.989Z</time></trkpt><trkpt lat="45.35926145927742" lon="9.931809018277644"><ele>73.14285714285714</ele><time>2026-05-03T06:37:39.989Z</time></trkpt><trkpt lat="45.35932983214705" lon="9.931803638593292"><ele>73.42857142857143</ele><time>2026-05-03T06:37:40.989Z</time></trkpt><trkpt lat="45.35939805631257" lon="9.931797273384694"><ele>73.71428571428572</ele><time>2026-05-03T06:37:41.989Z</time></trkpt><trkpt lat="45.35946321941477" lon="9.931797522482194"><ele>74.0</ele><time>2026-05-03T06:37:42.989Z</time></trkpt><trkpt lat="45.35952872875409" lon="9.931788465265745"><ele>74.0</ele><time>2026-05-03T06:37:43.989Z</time></trkpt><trkpt lat="45.35959170799567" lon="9.931786139437103"><ele>74.0</ele><time>2026-05-03T06:37:44.989Z</time></trkpt><trkpt lat="45.35966453227242" lon="9.931782321431644"><ele>74.0</ele><time>2026-05-03T06:37:45.989Z</time></trkpt><trkpt lat="45.359731766364185" lon="9.931775664341691"><ele>74.0</ele><time>2026-05-03T06:37:46.989Z</time></trkpt><trkpt lat="45.35985917911938" lon="9.931765225318514"><ele>74.0</ele><time>2026-05-03T06:37:48.989Z</time></trkpt><trkpt lat="45.35992403561224" lon="9.931757220758927"><ele>74.0</ele><time>2026-05-03T06:37:49.989Z</time></trkpt><trkpt lat="45.35999033047729" lon="9.931748754076224"><ele>73.66666666666667</ele><time>2026-05-03T06:37:50.989Z</time></trkpt><trkpt lat="45.360053646095906" lon="9.931744902275504"><ele>73.33333333333334</ele><time>2026-05-03T06:37:51.989Z</time></trkpt><trkpt lat="45.36017511670934" lon="9.931744807369212"><ele>73.0</ele><time>2026-05-03T06:37:53.989Z</time></trkpt><trkpt lat="45.360246742112245" lon="9.931737595011795"><ele>72.66666666666667</ele><time>2026-05-03T06:37:54.989Z</time></trkpt><trkpt lat="45.360315315881714" lon="9.93173061764365"><ele>72.33333333333333</ele><time>2026-05-03T06:37:55.989Z</time></trkpt><trkpt lat="45.36043611501758" lon="9.931718776451621"><ele>72.0</ele><time>2026-05-03T06:37:57.989Z</time></trkpt><trkpt lat="45.36050173143062" lon="9.931712034575469"><ele>72.0</ele><time>2026-05-03T06:37:58.989Z</time></trkpt><trkpt lat="45.360627003834935" lon="9.931709879885783"><ele>72.0</ele><time>2026-05-03T06:38:00.989Z</time></trkpt><trkpt lat="45.36069368111361" lon="9.931701668723882"><ele>72.0</ele><time>2026-05-03T06:38:01.989Z</time></trkpt><trkpt lat="45.36075661747324" lon="9.931694452051245"><ele>72.0</ele><time>2026-05-03T06:38:02.989Z</time></trkpt><trkpt lat="45.360879074163925" lon="9.931676414607418"><ele>72.0</ele><time>2026-05-03T06:38:04.989Z</time></trkpt><trkpt lat="45.36099862614743" lon="9.931672040339755"><ele>72.0</ele><time>2026-05-03T06:38:06.989Z</time></trkpt><trkpt lat="45.36111301173284" lon="9.931658282690442"><ele>72.0</ele><time>2026-05-03T06:38:08.989Z</time></trkpt><trkpt lat="45.36123364193417" lon="9.931649918605704"><ele>72.0</ele><time>2026-05-03T06:38:10.989Z</time></trkpt><trkpt lat="45.361354728265994" lon="9.931638261201382"><ele>72.0</ele><time>2026-05-03T06:38:12.989Z</time></trkpt><trkpt lat="45.36146833150995" lon="9.931637407942334"><ele>72.2</ele><time>2026-05-03T06:38:14.989Z</time></trkpt><trkpt lat="45.36157652362646" lon="9.931629278459637"><ele>72.4</ele><time>2026-05-03T06:38:16.989Z</time></trkpt><trkpt lat="45.36168404204565" lon="9.93162663187442"><ele>72.6</ele><time>2026-05-03T06:38:18.989Z</time></trkpt><trkpt lat="45.361798268917475" lon="9.931615185831221"><ele>72.8</ele><time>2026-05-03T06:38:20.989Z</time></trkpt><trkpt lat="45.361910205500706" lon="9.93161045393988"><ele>73.0</ele><time>2026-05-03T06:38:22.989Z</time></trkpt><trkpt lat="45.36202547471365" lon="9.931595077015519"><ele>73.0</ele><time>2026-05-03T06:38:24.989Z</time></trkpt><trkpt lat="45.36214456588863" lon="9.931585172715197"><ele>73.0</ele><time>2026-05-03T06:38:26.988Z</time></trkpt><trkpt lat="45.36226208554747" lon="9.931578479023944"><ele>73.0</ele><time>2026-05-03T06:38:28.988Z</time></trkpt><trkpt lat="45.36237190910347" lon="9.931567137969168"><ele>73.0</ele><time>2026-05-03T06:38:30.988Z</time></trkpt><trkpt lat="45.36248697292257" lon="9.931556286556452"><ele>73.0</ele><time>2026-05-03T06:38:32.988Z</time></trkpt><trkpt lat="45.362601400584474" lon="9.931541816941255"><ele>73.0</ele><time>2026-05-03T06:38:34.988Z</time></trkpt><trkpt lat="45.362708186595356" lon="9.931541567976009"><ele>73.0</ele><time>2026-05-03T06:38:36.988Z</time></trkpt><trkpt lat="45.36282173886804" lon="9.931535113370956"><ele>73.0</ele><time>2026-05-03T06:38:38.988Z</time></trkpt><trkpt lat="45.362928736487774" lon="9.931517170769318"><ele>73.0</ele><time>2026-05-03T06:38:40.988Z</time></trkpt><trkpt lat="45.36303174864348" lon="9.931511614674237"><ele>73.2</ele><time>2026-05-03T06:38:42.988Z</time></trkpt><trkpt lat="45.363123783981095" lon="9.931493776773095"><ele>73.4</ele><time>2026-05-03T06:38:44.988Z</time></trkpt><trkpt lat="45.36323311327736" lon="9.931491664758367"><ele>73.60000000000001</ele><time>2026-05-03T06:38:46.988Z</time></trkpt><trkpt lat="45.363340704523004" lon="9.931473375130983"><ele>73.8</ele><time>2026-05-03T06:38:48.988Z</time></trkpt><trkpt lat="45.36345868398381" lon="9.931469671859467"><ele>74.0</ele><time>2026-05-03T06:38:50.988Z</time></trkpt><trkpt lat="45.36357232430006" lon="9.93146317342969"><ele>74.0</ele><time>2026-05-03T06:38:52.988Z</time></trkpt><trkpt lat="45.363685757699386" lon="9.931458516919633"><ele>74.0</ele><time>2026-05-03T06:38:54.988Z</time></trkpt><trkpt lat="45.363796155633665" lon="9.931441588862835"><ele>74.0</ele><time>2026-05-03T06:38:56.988Z</time></trkpt><trkpt lat="45.36390658003341" lon="9.931437341696013"><ele>74.0</ele><time>2026-05-03T06:38:58.988Z</time></trkpt><trkpt lat="45.36401371461732" lon="9.931420344909508"><ele>74.0</ele><time>2026-05-03T06:39:00.988Z</time></trkpt><trkpt lat="45.36411949442026" lon="9.93141543111682"><ele>73.8</ele><time>2026-05-03T06:39:02.988Z</time></trkpt><trkpt lat="45.36422935447371" lon="9.931404408669051"><ele>73.60000000000001</ele><time>2026-05-03T06:39:04.988Z</time></trkpt><trkpt lat="45.36434524369191" lon="9.931400018992429"><ele>73.4</ele><time>2026-05-03T06:39:06.988Z</time></trkpt><trkpt lat="45.36445247339622" lon="9.931386016859493"><ele>73.2</ele><time>2026-05-03T06:39:08.989Z</time></trkpt><trkpt lat="45.36456237478689" lon="9.931384447232633"><ele>73.0</ele><time>2026-05-03T06:39:10.989Z</time></trkpt><trkpt lat="45.364675731945546" lon="9.931371178638624"><ele>73.2</ele><time>2026-05-03T06:39:12.99Z</time></trkpt><trkpt lat="45.36477874494544" lon="9.931361224131354"><ele>73.4</ele><time>2026-05-03T06:39:14.989Z</time></trkpt><trkpt lat="45.364844318047254" lon="9.931354002809584"><ele>73.60000000000001</ele><time>2026-05-03T06:39:15.989Z</time></trkpt><trkpt lat="45.364967151856355" lon="9.931349613704283"><ele>73.8</ele><time>2026-05-03T06:39:17.99Z</time></trkpt><trkpt lat="45.365084465448135" lon="9.931335512835656"><ele>74.0</ele><time>2026-05-03T06:39:19.989Z</time></trkpt><trkpt lat="45.365200405703604" lon="9.931321648410005"><ele>74.0</ele><time>2026-05-03T06:39:21.99Z</time></trkpt><trkpt lat="45.36531847741663" lon="9.931312436326701"><ele>74.0</ele><time>2026-05-03T06:39:23.99Z</time></trkpt><trkpt lat="45.365427294983014" lon="9.931305975485039"><ele>74.0</ele><time>2026-05-03T06:39:25.99Z</time></trkpt><trkpt lat="45.365539790153825" lon="9.931298717708122"><ele>74.0</ele><time>2026-05-03T06:39:27.989Z</time></trkpt><trkpt lat="45.36565316369223" lon="9.931286302758185"><ele>73.8</ele><time>2026-05-03T06:39:29.989Z</time></trkpt><trkpt lat="45.36576699882149" lon="9.931275553140505"><ele>73.60000000000001</ele><time>2026-05-03T06:39:31.989Z</time></trkpt><trkpt lat="45.3658747202485" lon="9.931266159112775"><ele>73.4</ele><time>2026-05-03T06:39:33.989Z</time></trkpt><trkpt lat="45.36598665858862" lon="9.931256564434308"><ele>73.2</ele><time>2026-05-03T06:39:35.989Z</time></trkpt><trkpt lat="45.366096053437985" lon="9.931242200454212"><ele>73.0</ele><time>2026-05-03T06:39:37.989Z</time></trkpt><trkpt lat="45.3662062156555" lon="9.931236718504753"><ele>73.0</ele><time>2026-05-03T06:39:39.989Z</time></trkpt><trkpt lat="45.36631748927638" lon="9.931227390563048"><ele>73.0</ele><time>2026-05-03T06:39:41.989Z</time></trkpt><trkpt lat="45.36643149463401" lon="9.931220085799243"><ele>73.0</ele><time>2026-05-03T06:39:43.989Z</time></trkpt><trkpt lat="45.36654108076839" lon="9.931203852634157"><ele>73.0</ele><time>2026-05-03T06:39:45.989Z</time></trkpt><trkpt lat="45.36665919644258" lon="9.931185634765049"><ele>73.4</ele><time>2026-05-03T06:39:47.989Z</time></trkpt><trkpt lat="45.36676545038422" lon="9.93118208446345"><ele>73.8</ele><time>2026-05-03T06:39:49.989Z</time></trkpt><trkpt lat="45.366877562641704" lon="9.931179021263965"><ele>74.2</ele><time>2026-05-03T06:39:51.989Z</time></trkpt><trkpt lat="45.36699595987888" lon="9.931169104144036"><ele>74.6</ele><time>2026-05-03T06:39:53.989Z</time></trkpt><trkpt lat="45.367063404068595" lon="9.931163226769526"><ele>75.0</ele><time>2026-05-03T06:39:54.989Z</time></trkpt><trkpt lat="45.367173187588946" lon="9.931147212380353"><ele>74.75</ele><time>2026-05-03T06:39:56.989Z</time></trkpt><trkpt lat="45.36728560853369" lon="9.93113833789144"><ele>74.5</ele><time>2026-05-03T06:39:58.989Z</time></trkpt><trkpt lat="45.36739797952864" lon="9.931129644904372"><ele>74.25</ele><time>2026-05-03T06:40:00.989Z</time></trkpt><trkpt lat="45.367507752073344" lon="9.931122142799735"><ele>74.0</ele><time>2026-05-03T06:40:02.989Z</time></trkpt><trkpt lat="45.3676239912052" lon="9.931119174694132"><ele>74.0</ele><time>2026-05-03T06:40:04.989Z</time></trkpt><trkpt lat="45.36772308501767" lon="9.931111208476674"><ele>74.0</ele><time>2026-05-03T06:40:06.989Z</time></trkpt><trkpt lat="45.36782559564498" lon="9.93110970016033"><ele>74.0</ele><time>2026-05-03T06:40:08.989Z</time></trkpt><trkpt lat="45.367933095337264" lon="9.931093657845112"><ele>74.0</ele><time>2026-05-03T06:40:10.989Z</time></trkpt><trkpt lat="45.36804167856577" lon="9.931079388136368"><ele>74.0</ele><time>2026-05-03T06:40:12.989Z</time></trkpt><trkpt lat="45.36815202471616" lon="9.93107973168924"><ele>74.0</ele><time>2026-05-03T06:40:14.989Z</time></trkpt><trkpt lat="45.36826159481061" lon="9.931067057657714"><ele>74.0</ele><time>2026-05-03T06:40:16.989Z</time></trkpt><trkpt lat="45.3683699781152" lon="9.93106023134041"><ele>74.0</ele><time>2026-05-03T06:40:18.989Z</time></trkpt><trkpt lat="45.36847877145974" lon="9.931056942515934"><ele>74.0</ele><time>2026-05-03T06:40:20.989Z</time></trkpt><trkpt lat="45.36858162586048" lon="9.931049026644896"><ele>74.0</ele><time>2026-05-03T06:40:22.989Z</time></trkpt><trkpt lat="45.36868697054899" lon="9.931030243365122"><ele>74.0</ele><time>2026-05-03T06:40:24.989Z</time></trkpt><trkpt lat="45.36878247241278" lon="9.931014719337727"><ele>74.0</ele><time>2026-05-03T06:40:26.989Z</time></trkpt><trkpt lat="45.36888426112387" lon="9.931006732827353"><ele>74.0</ele><time>2026-05-03T06:40:28.988Z</time></trkpt><trkpt lat="45.368991251696386" lon="9.930992735688822"><ele>74.0</ele><time>2026-05-03T06:40:30.988Z</time></trkpt><trkpt lat="45.369105311730365" lon="9.930983447924257"><ele>74.0</ele><time>2026-05-03T06:40:32.988Z</time></trkpt><trkpt lat="45.36921270424838" lon="9.930974248243778"><ele>74.0</ele><time>2026-05-03T06:40:34.988Z</time></trkpt><trkpt lat="45.369317383516" lon="9.93096350671291"><ele>74.0</ele><time>2026-05-03T06:40:36.988Z</time></trkpt><trkpt lat="45.36942792182834" lon="9.930952509848424"><ele>74.0</ele><time>2026-05-03T06:40:38.988Z</time></trkpt><trkpt lat="45.36953375539048" lon="9.930936970529338"><ele>74.0</ele><time>2026-05-03T06:40:40.988Z</time></trkpt><trkpt lat="45.36963530847621" lon="9.930935751206954"><ele>74.0</ele><time>2026-05-03T06:40:42.988Z</time></trkpt><trkpt lat="45.369744209571934" lon="9.930922357216769"><ele>74.0</ele><time>2026-05-03T06:40:44.988Z</time></trkpt><trkpt lat="45.36985082265132" lon="9.930920181745659"><ele>74.0</ele><time>2026-05-03T06:40:46.988Z</time></trkpt><trkpt lat="45.36995765209199" lon="9.930905351753005"><ele>74.0</ele><time>2026-05-03T06:40:48.988Z</time></trkpt><trkpt lat="45.370061621639785" lon="9.930896527936717"><ele>74.0</ele><time>2026-05-03T06:40:50.988Z</time></trkpt><trkpt lat="45.37017519441103" lon="9.930888813424854"><ele>74.0</ele><time>2026-05-03T06:40:52.988Z</time></trkpt><trkpt lat="45.37027902722292" lon="9.930877496511608"><ele>74.2</ele><time>2026-05-03T06:40:54.988Z</time></trkpt><trkpt lat="45.37037767332944" lon="9.93086922923532"><ele>74.4</ele><time>2026-05-03T06:40:56.988Z</time></trkpt><trkpt lat="45.370480750517586" lon="9.930860182403034"><ele>74.6</ele><time>2026-05-03T06:40:58.988Z</time></trkpt><trkpt lat="45.37058314943887" lon="9.930858164205127"><ele>74.8</ele><time>2026-05-03T06:41:00.988Z</time></trkpt><trkpt lat="45.370686122012216" lon="9.930847285412598"><ele>75.0</ele><time>2026-05-03T06:41:02.988Z</time></trkpt><trkpt lat="45.370773346518746" lon="9.930848114562956"><ele>75.0</ele><time>2026-05-03T06:41:04.988Z</time></trkpt><trkpt lat="45.37086503096859" lon="9.930845292828865"><ele>75.0</ele><time>2026-05-03T06:41:06.988Z</time></trkpt><trkpt lat="45.370944952468555" lon="9.93081552259865"><ele>75.0</ele><time>2026-05-03T06:41:08.988Z</time></trkpt><trkpt lat="45.371013320861636" lon="9.930827174791188"><ele>75.0</ele><time>2026-05-03T06:41:10.988Z</time></trkpt><trkpt lat="45.371055118192196" lon="9.930909765919415"><ele>75.0</ele><time>2026-05-03T06:41:12.988Z</time></trkpt><trkpt lat="45.37106043475305" lon="9.931012383605266"><ele>75.0</ele><time>2026-05-03T06:41:14.99Z</time></trkpt><trkpt lat="45.371046699441855" lon="9.931145480441769"><ele>75.0</ele><time>2026-05-03T06:41:16.989Z</time></trkpt><trkpt lat="45.371045515444" lon="9.93128987043866"><ele>75.0</ele><time>2026-05-03T06:41:18.989Z</time></trkpt><trkpt lat="45.37105095185154" lon="9.93143307101549"><ele>75.0</ele><time>2026-05-03T06:41:20.989Z</time></trkpt><trkpt lat="45.37104852753965" lon="9.931591087448652"><ele>75.0</ele><time>2026-05-03T06:41:22.99Z</time></trkpt><trkpt lat="45.37104943374924" lon="9.931734098491797"><ele>75.0</ele><time>2026-05-03T06:41:24.989Z</time></trkpt><trkpt lat="45.37105638342048" lon="9.931891427074541"><ele>75.2</ele><time>2026-05-03T06:41:26.989Z</time></trkpt><trkpt lat="45.37105891748854" lon="9.93203204939582"><ele>75.4</ele><time>2026-05-03T06:41:28.989Z</time></trkpt><trkpt lat="45.371062909596375" lon="9.932180374741531"><ele>75.6</ele><time>2026-05-03T06:41:30.989Z</time></trkpt><trkpt lat="45.37106434732207" lon="9.932319226970659"><ele>75.8</ele><time>2026-05-03T06:41:32.989Z</time></trkpt><trkpt lat="45.3710612953319" lon="9.932453410820843"><ele>76.0</ele><time>2026-05-03T06:41:34.989Z</time></trkpt><trkpt lat="45.37106023789183" lon="9.932601497210904"><ele>75.6</ele><time>2026-05-03T06:41:36.989Z</time></trkpt><trkpt lat="45.37106089219729" lon="9.932745063881786"><ele>75.19999999999999</ele><time>2026-05-03T06:41:38.989Z</time></trkpt><trkpt lat="45.37106694997576" lon="9.932878915828907"><ele>74.80000000000001</ele><time>2026-05-03T06:41:40.989Z</time></trkpt><trkpt lat="45.37106532326613" lon="9.933012774057113"><ele>74.4</ele><time>2026-05-03T06:41:42.989Z</time></trkpt><trkpt lat="45.37106308754022" lon="9.933146030995657"><ele>74.0</ele><time>2026-05-03T06:41:44.989Z</time></trkpt><trkpt lat="45.3710804584658" lon="9.933294479769371"><ele>74.2</ele><time>2026-05-03T06:41:46.989Z</time></trkpt><trkpt lat="45.3710778435742" lon="9.93343848241949"><ele>74.4</ele><time>2026-05-03T06:41:48.989Z</time></trkpt><trkpt lat="45.37108006143575" lon="9.933563994954449"><ele>74.6</ele><time>2026-05-03T06:41:50.989Z</time></trkpt><trkpt lat="45.37108200404356" lon="9.933692183289324"><ele>74.8</ele><time>2026-05-03T06:41:52.989Z</time></trkpt><trkpt lat="45.371084472234706" lon="9.933831442228794"><ele>75.0</ele><time>2026-05-03T06:41:54.989Z</time></trkpt><trkpt lat="45.37109003896337" lon="9.933964134605542"><ele>75.0</ele><time>2026-05-03T06:41:56.989Z</time></trkpt><trkpt lat="45.37109649256465" lon="9.934099399828234"><ele>75.0</ele><time>2026-05-03T06:41:58.989Z</time></trkpt><trkpt lat="45.37109425719688" lon="9.93424023120447"><ele>75.0</ele><time>2026-05-03T06:42:00.989Z</time></trkpt><trkpt lat="45.37109906485846" lon="9.934374915056585"><ele>75.0</ele><time>2026-05-03T06:42:02.989Z</time></trkpt><trkpt lat="45.37110494253337" lon="9.934504466508422"><ele>75.0</ele><time>2026-05-03T06:42:04.988Z</time></trkpt><trkpt lat="45.37110406567791" lon="9.934619505677471"><ele>75.2</ele><time>2026-05-03T06:42:06.988Z</time></trkpt><trkpt lat="45.371106699255805" lon="9.934761444502026"><ele>75.4</ele><time>2026-05-03T06:42:08.988Z</time></trkpt><trkpt lat="45.371114290436815" lon="9.934875752985192"><ele>75.6</ele><time>2026-05-03T06:42:10.988Z</time></trkpt><trkpt lat="45.3711210695526" lon="9.935006539966675"><ele>75.8</ele><time>2026-05-03T06:42:12.988Z</time></trkpt><trkpt lat="45.37112246523195" lon="9.935145841717032"><ele>76.0</ele><time>2026-05-03T06:42:14.988Z</time></trkpt><trkpt lat="45.37112929588091" lon="9.935286712633266"><ele>75.6</ele><time>2026-05-03T06:42:16.988Z</time></trkpt><trkpt lat="45.37112951877835" lon="9.93544068602158"><ele>75.19999999999999</ele><time>2026-05-03T06:42:18.988Z</time></trkpt><trkpt lat="45.37113169709523" lon="9.935577320938274"><ele>74.80000000000001</ele><time>2026-05-03T06:42:20.988Z</time></trkpt><trkpt lat="45.37113114196867" lon="9.935714500512239"><ele>74.4</ele><time>2026-05-03T06:42:22.988Z</time></trkpt><trkpt lat="45.371139750633155" lon="9.935851564153515"><ele>74.0</ele><time>2026-05-03T06:42:24.988Z</time></trkpt><trkpt lat="45.37114459693069" lon="9.935994901813094"><ele>74.0</ele><time>2026-05-03T06:42:26.988Z</time></trkpt><trkpt lat="45.37114018859257" lon="9.93613204486804"><ele>74.0</ele><time>2026-05-03T06:42:28.988Z</time></trkpt><trkpt lat="45.37113674590822" lon="9.936271348512808"><ele>74.0</ele><time>2026-05-03T06:42:30.988Z</time></trkpt><trkpt lat="45.37112758541913" lon="9.936408608463303"><ele>74.0</ele><time>2026-05-03T06:42:32.988Z</time></trkpt><trkpt lat="45.37113056033256" lon="9.93656863228678"><ele>74.0</ele><time>2026-05-03T06:42:34.988Z</time></trkpt><trkpt lat="45.371131127029415" lon="9.936699925187712"><ele>74.33333333333334</ele><time>2026-05-03T06:42:36.988Z</time></trkpt><trkpt lat="45.37113537665598" lon="9.936815430486547"><ele>74.66666666666667</ele><time>2026-05-03T06:42:38.988Z</time></trkpt><trkpt lat="45.37114303851917" lon="9.936924992798943"><ele>75.0</ele><time>2026-05-03T06:42:40.988Z</time></trkpt><trkpt lat="45.371149473344715" lon="9.93702821895268"><ele>75.33333333333333</ele><time>2026-05-03T06:42:42.988Z</time></trkpt><trkpt lat="45.37116178002245" lon="9.937169796651864"><ele>75.66666666666666</ele><time>2026-05-03T06:42:44.988Z</time></trkpt><trkpt lat="45.37115998037391" lon="9.937310675211478"><ele>76.0</ele><time>2026-05-03T06:42:46.988Z</time></trkpt><trkpt lat="45.37116982844519" lon="9.937459010562007"><ele>76.0</ele><time>2026-05-03T06:42:48.988Z</time></trkpt><trkpt lat="45.37118569975603" lon="9.937604148674334"><ele>76.0</ele><time>2026-05-03T06:42:50.988Z</time></trkpt><trkpt lat="45.37118351127543" lon="9.937749796923942"><ele>76.0</ele><time>2026-05-03T06:42:52.988Z</time></trkpt><trkpt lat="45.37118296100018" lon="9.937898292357538"><ele>76.0</ele><time>2026-05-03T06:42:54.988Z</time></trkpt><trkpt lat="45.37119061935984" lon="9.938042512156063"><ele>76.0</ele><time>2026-05-03T06:42:56.988Z</time></trkpt><trkpt lat="45.3711960618639" lon="9.938187738193598"><ele>76.0</ele><time>2026-05-03T06:42:58.988Z</time></trkpt><trkpt lat="45.37119876087282" lon="9.938323123592571"><ele>76.0</ele><time>2026-05-03T06:43:00.988Z</time></trkpt><trkpt lat="45.37119444804844" lon="9.938460801473802"><ele>76.0</ele><time>2026-05-03T06:43:02.988Z</time></trkpt><trkpt lat="45.371183468970514" lon="9.938580559303574"><ele>76.0</ele><time>2026-05-03T06:43:04.988Z</time></trkpt><trkpt lat="45.3711773373949" lon="9.938733069345714"><ele>76.0</ele><time>2026-05-03T06:43:06.987Z</time></trkpt><trkpt lat="45.37117639835101" lon="9.93886565429623"><ele>75.8</ele><time>2026-05-03T06:43:08.987Z</time></trkpt><trkpt lat="45.371172571699205" lon="9.93901801825941"><ele>75.6</ele><time>2026-05-03T06:43:10.987Z</time></trkpt><trkpt lat="45.371169409832135" lon="9.93911175591034"><ele>75.4</ele><time>2026-05-03T06:43:11.987Z</time></trkpt><trkpt lat="45.37115860812213" lon="9.939270997670834"><ele>75.2</ele><time>2026-05-03T06:43:13.987Z</time></trkpt><trkpt lat="45.37115439095465" lon="9.93936534612492"><ele>75.0</ele><time>2026-05-03T06:43:14.987Z</time></trkpt><trkpt lat="45.37114568830886" lon="9.939527421606186"><ele>75.0</ele><time>2026-05-03T06:43:16.987Z</time></trkpt><trkpt lat="45.37114179872636" lon="9.939694093927695"><ele>75.0</ele><time>2026-05-03T06:43:18.987Z</time></trkpt><trkpt lat="45.37113787156301" lon="9.939843650795824"><ele>75.0</ele><time>2026-05-03T06:43:20.989Z</time></trkpt><trkpt lat="45.37112911640661" lon="9.939988410912207"><ele>75.0</ele><time>2026-05-03T06:43:22.989Z</time></trkpt><trkpt lat="45.37112611402446" lon="9.940147227979839"><ele>75.0</ele><time>2026-05-03T06:43:24.989Z</time></trkpt><trkpt lat="45.371119162454335" lon="9.940309110678141"><ele>75.0</ele><time>2026-05-03T06:43:26.989Z</time></trkpt><trkpt lat="45.371107668726545" lon="9.940464690403957"><ele>75.0</ele><time>2026-05-03T06:43:28.989Z</time></trkpt><trkpt lat="45.37110939750612" lon="9.940610827108374"><ele>75.0</ele><time>2026-05-03T06:43:30.989Z</time></trkpt><trkpt lat="45.371123073087816" lon="9.940754582965099"><ele>75.0</ele><time>2026-05-03T06:43:32.988Z</time></trkpt><trkpt lat="45.371124607568795" lon="9.940894740094885"><ele>75.0</ele><time>2026-05-03T06:43:34.988Z</time></trkpt><trkpt lat="45.37111798912546" lon="9.941045410953953"><ele>75.0</ele><time>2026-05-03T06:43:36.988Z</time></trkpt><trkpt lat="45.37110552383406" lon="9.941184212158925"><ele>75.0</ele><time>2026-05-03T06:43:38.988Z</time></trkpt><trkpt lat="45.3710953791426" lon="9.941326462427554"><ele>75.0</ele><time>2026-05-03T06:43:40.988Z</time></trkpt><trkpt lat="45.371082011996506" lon="9.9414755948005"><ele>75.0</ele><time>2026-05-03T06:43:42.988Z</time></trkpt><trkpt lat="45.3710752055522" lon="9.941621140303553"><ele>75.0</ele><time>2026-05-03T06:43:44.988Z</time></trkpt><trkpt lat="45.371061881036276" lon="9.94177009771447"><ele>75.0</ele><time>2026-05-03T06:43:46.988Z</time></trkpt><trkpt lat="45.371050895849784" lon="9.941923181697085"><ele>75.0</ele><time>2026-05-03T06:43:48.988Z</time></trkpt><trkpt lat="45.371039779569045" lon="9.942079183025266"><ele>75.0</ele><time>2026-05-03T06:43:50.988Z</time></trkpt><trkpt lat="45.37103906315819" lon="9.94222787001374"><ele>75.0</ele><time>2026-05-03T06:43:52.988Z</time></trkpt><trkpt lat="45.37103153639056" lon="9.942384735529933"><ele>75.0</ele><time>2026-05-03T06:43:54.988Z</time></trkpt><trkpt lat="45.371017531695095" lon="9.94254811851249"><ele>75.0</ele><time>2026-05-03T06:43:56.988Z</time></trkpt><trkpt lat="45.371013434518794" lon="9.942709918587964"><ele>75.0</ele><time>2026-05-03T06:43:58.988Z</time></trkpt><trkpt lat="45.371005548565165" lon="9.94287372443214"><ele>75.0</ele><time>2026-05-03T06:44:00.988Z</time></trkpt><trkpt lat="45.3710006463929" lon="9.94303128724111"><ele>75.0</ele><time>2026-05-03T06:44:02.988Z</time></trkpt><trkpt lat="45.370992269455684" lon="9.943184390261024"><ele>75.0</ele><time>2026-05-03T06:44:04.988Z</time></trkpt><trkpt lat="45.37098791339595" lon="9.943348798254203"><ele>75.0</ele><time>2026-05-03T06:44:06.988Z</time></trkpt><trkpt lat="45.37098002209317" lon="9.943512553523593"><ele>75.0</ele><time>2026-05-03T06:44:08.988Z</time></trkpt><trkpt lat="45.37098074304268" lon="9.943679442790007"><ele>75.0</ele><time>2026-05-03T06:44:10.988Z</time></trkpt><trkpt lat="45.370974564612744" lon="9.943845989266144"><ele>75.0</ele><time>2026-05-03T06:44:12.988Z</time></trkpt><trkpt lat="45.370963976503454" lon="9.944003966323898"><ele>75.0</ele><time>2026-05-03T06:44:14.988Z</time></trkpt><trkpt lat="45.37096474966608" lon="9.944095228030601"><ele>75.0</ele><time>2026-05-03T06:44:15.988Z</time></trkpt><trkpt lat="45.37095617634502" lon="9.944246556326332"><ele>75.0</ele><time>2026-05-03T06:44:17.988Z</time></trkpt><trkpt lat="45.37094434527787" lon="9.94441251292283"><ele>75.0</ele><time>2026-05-03T06:44:19.988Z</time></trkpt><trkpt lat="45.370938433332924" lon="9.944578114666745"><ele>75.0</ele><time>2026-05-03T06:44:21.988Z</time></trkpt><trkpt lat="45.3709235758025" lon="9.944742652020002"><ele>75.0</ele><time>2026-05-03T06:44:23.988Z</time></trkpt><trkpt lat="45.370895194142825" lon="9.944908657969684"><ele>75.0</ele><time>2026-05-03T06:44:25.988Z</time></trkpt><trkpt lat="45.370860640668965" lon="9.945055819784196"><ele>75.0</ele><time>2026-05-03T06:44:27.988Z</time></trkpt><trkpt lat="45.37083309015284" lon="9.945206776070751"><ele>75.0</ele><time>2026-05-03T06:44:29.988Z</time></trkpt><trkpt lat="45.37079280468901" lon="9.945337757284378"><ele>75.0</ele><time>2026-05-03T06:44:31.988Z</time></trkpt><trkpt lat="45.370745135346205" lon="9.94545517192788"><ele>74.8</ele><time>2026-05-03T06:44:33.987Z</time></trkpt><trkpt lat="45.37069113788504" lon="9.945567283593586"><ele>74.6</ele><time>2026-05-03T06:44:35.987Z</time></trkpt><trkpt lat="45.370657199287486" lon="9.94571678972805"><ele>74.4</ele><time>2026-05-03T06:44:37.987Z</time></trkpt><trkpt lat="45.37064969271546" lon="9.94586305271127"><ele>74.2</ele><time>2026-05-03T06:44:39.987Z</time></trkpt><trkpt lat="45.370703851894966" lon="9.94598838578038"><ele>74.0</ele><time>2026-05-03T06:44:41.987Z</time></trkpt><trkpt lat="45.37079267280376" lon="9.946084086929407"><ele>73.75</ele><time>2026-05-03T06:44:43.987Z</time></trkpt><trkpt lat="45.37087123928609" lon="9.946199564568786"><ele>73.5</ele><time>2026-05-03T06:44:45.987Z</time></trkpt><trkpt lat="45.37090281080835" lon="9.946344429317007"><ele>73.25</ele><time>2026-05-03T06:44:47.987Z</time></trkpt><trkpt lat="45.370904677005264" lon="9.946512856588377"><ele>73.0</ele><time>2026-05-03T06:44:49.987Z</time></trkpt><trkpt lat="45.37089776085154" lon="9.946672354707438"><ele>73.2</ele><time>2026-05-03T06:44:51.987Z</time></trkpt><trkpt lat="45.37089248885154" lon="9.946819306437465"><ele>73.4</ele><time>2026-05-03T06:44:53.987Z</time></trkpt><trkpt lat="45.37088654450509" lon="9.946986260587448"><ele>73.60000000000001</ele><time>2026-05-03T06:44:55.987Z</time></trkpt><trkpt lat="45.370885847314064" lon="9.9470784682686"><ele>73.8</ele><time>2026-05-03T06:44:56.987Z</time></trkpt><trkpt lat="45.3708843243414" lon="9.94722973135293"><ele>74.0</ele><time>2026-05-03T06:44:58.987Z</time></trkpt><trkpt lat="45.370872812128546" lon="9.947399425852396"><ele>74.25</ele><time>2026-05-03T06:45:00.987Z</time></trkpt><trkpt lat="45.37087795393946" lon="9.947574286065242"><ele>74.5</ele><time>2026-05-03T06:45:02.987Z</time></trkpt><trkpt lat="45.37088811932659" lon="9.94774526811489"><ele>74.75</ele><time>2026-05-03T06:45:04.987Z</time></trkpt><trkpt lat="45.37089523493886" lon="9.947904416575712"><ele>75.0</ele><time>2026-05-03T06:45:06.987Z</time></trkpt><trkpt lat="45.37089826659854" lon="9.948071159761243"><ele>75.0</ele><time>2026-05-03T06:45:08.987Z</time></trkpt><trkpt lat="45.37090601150403" lon="9.948161077993005"><ele>75.0</ele><time>2026-05-03T06:45:09.987Z</time></trkpt><trkpt lat="45.37091479957801" lon="9.948333334483653"><ele>75.0</ele><time>2026-05-03T06:45:11.987Z</time></trkpt><trkpt lat="45.37093096303548" lon="9.948485746397159"><ele>75.0</ele><time>2026-05-03T06:45:13.987Z</time></trkpt><trkpt lat="45.370938360216854" lon="9.948658050888405"><ele>75.0</ele><time>2026-05-03T06:45:15.987Z</time></trkpt><trkpt lat="45.370951044872406" lon="9.948820560764073"><ele>75.0</ele><time>2026-05-03T06:45:17.987Z</time></trkpt><trkpt lat="45.370963789752835" lon="9.948985010521142"><ele>75.0</ele><time>2026-05-03T06:45:19.987Z</time></trkpt><trkpt lat="45.37098090164815" lon="9.9491477704537"><ele>75.0</ele><time>2026-05-03T06:45:21.987Z</time></trkpt><trkpt lat="45.371019635367844" lon="9.949321368062092"><ele>75.0</ele><time>2026-05-03T06:45:23.987Z</time></trkpt><trkpt lat="45.371034587822734" lon="9.949414510148676"><ele>75.0</ele><time>2026-05-03T06:45:24.987Z</time></trkpt><trkpt lat="45.371067638467665" lon="9.949573289974115"><ele>75.0</ele><time>2026-05-03T06:45:26.989Z</time></trkpt><trkpt lat="45.37109855771135" lon="9.949726778850504"><ele>75.0</ele><time>2026-05-03T06:45:28.989Z</time></trkpt><trkpt lat="45.37112608598087" lon="9.94987727185812"><ele>75.0</ele><time>2026-05-03T06:45:30.988Z</time></trkpt><trkpt lat="45.37119934739403" lon="9.949980769435017"><ele>75.0</ele><time>2026-05-03T06:45:32.989Z</time></trkpt><trkpt lat="45.37130021003631" lon="9.950043947646654"><ele>75.0</ele><time>2026-05-03T06:45:34.988Z</time></trkpt><trkpt lat="45.371348671410225" lon="9.950169102011312"><ele>75.2</ele><time>2026-05-03T06:45:36.988Z</time></trkpt><trkpt lat="45.37137561807302" lon="9.950300971750629"><ele>75.4</ele><time>2026-05-03T06:45:38.988Z</time></trkpt><trkpt lat="45.37140137244111" lon="9.950448843928992"><ele>75.6</ele><time>2026-05-03T06:45:40.988Z</time></trkpt><trkpt lat="45.371380750082416" lon="9.9506443861723"><ele>75.8</ele><time>2026-05-03T06:45:43.988Z</time></trkpt><trkpt lat="45.371342327666106" lon="9.950757302151773"><ele>76.0</ele><time>2026-05-03T06:45:45.988Z</time></trkpt><trkpt lat="45.37133224335065" lon="9.950897529866747"><ele>75.5</ele><time>2026-05-03T06:45:47.988Z</time></trkpt><trkpt lat="45.37137653767152" lon="9.951043768672072"><ele>75.0</ele><time>2026-05-03T06:45:49.988Z</time></trkpt><trkpt lat="45.37140143325556" lon="9.951207028055698"><ele>74.5</ele><time>2026-05-03T06:45:51.988Z</time></trkpt><trkpt lat="45.37142773861305" lon="9.951371026876755"><ele>74.0</ele><time>2026-05-03T06:45:53.988Z</time></trkpt><trkpt lat="45.37146475016847" lon="9.951529766947697"><ele>74.0</ele><time>2026-05-03T06:45:55.988Z</time></trkpt><trkpt lat="45.3715089494287" lon="9.95169294503652"><ele>74.0</ele><time>2026-05-03T06:45:57.988Z</time></trkpt><trkpt lat="45.37153941419034" lon="9.951857778315592"><ele>74.0</ele><time>2026-05-03T06:45:59.988Z</time></trkpt><trkpt lat="45.37154765960247" lon="9.951951262789736"><ele>74.0</ele><time>2026-05-03T06:46:00.988Z</time></trkpt><trkpt lat="45.37156809026765" lon="9.952108754372459"><ele>74.0</ele><time>2026-05-03T06:46:02.988Z</time></trkpt><trkpt lat="45.37160466906337" lon="9.95227619764544"><ele>73.8</ele><time>2026-05-03T06:46:04.988Z</time></trkpt><trkpt lat="45.37164167885706" lon="9.952439600592738"><ele>73.60000000000001</ele><time>2026-05-03T06:46:06.988Z</time></trkpt><trkpt lat="45.37167258727101" lon="9.952613360877052"><ele>73.4</ele><time>2026-05-03T06:46:08.988Z</time></trkpt><trkpt lat="45.371708090756" lon="9.952783046551067"><ele>73.2</ele><time>2026-05-03T06:46:10.988Z</time></trkpt><trkpt lat="45.37172196635048" lon="9.952873523929084"><ele>73.0</ele><time>2026-05-03T06:46:11.988Z</time></trkpt><trkpt lat="45.37176067048257" lon="9.953037762248792"><ele>73.0</ele><time>2026-05-03T06:46:13.988Z</time></trkpt><trkpt lat="45.37177803186766" lon="9.953129348823978"><ele>73.0</ele><time>2026-05-03T06:46:14.988Z</time></trkpt><trkpt lat="45.37179590662955" lon="9.953224608336164"><ele>73.0</ele><time>2026-05-03T06:46:15.988Z</time></trkpt><trkpt lat="45.37183608349065" lon="9.953382672344825"><ele>73.0</ele><time>2026-05-03T06:46:17.988Z</time></trkpt><trkpt lat="45.3718677422357" lon="9.953551107829869"><ele>73.0</ele><time>2026-05-03T06:46:19.988Z</time></trkpt><trkpt lat="45.371898827653176" lon="9.953717814839395"><ele>72.8</ele><time>2026-05-03T06:46:21.988Z</time></trkpt><trkpt lat="45.3719199676792" lon="9.953884579464322"><ele>72.6</ele><time>2026-05-03T06:46:23.988Z</time></trkpt><trkpt lat="45.37193096050902" lon="9.953976160250948"><ele>72.4</ele><time>2026-05-03T06:46:24.988Z</time></trkpt><trkpt lat="45.371945356557084" lon="9.954142664010247"><ele>72.2</ele><time>2026-05-03T06:46:26.988Z</time></trkpt><trkpt lat="45.3719535932843" lon="9.954315824844828"><ele>72.0</ele><time>2026-05-03T06:46:28.988Z</time></trkpt><trkpt lat="45.371952578899794" lon="9.954407813167975"><ele>72.0</ele><time>2026-05-03T06:46:29.988Z</time></trkpt><trkpt lat="45.37195652884733" lon="9.954595198019286"><ele>72.0</ele><time>2026-05-03T06:46:31.987Z</time></trkpt><trkpt lat="45.371959770414314" lon="9.954765240088843"><ele>72.0</ele><time>2026-05-03T06:46:33.987Z</time></trkpt><trkpt lat="45.37196323363907" lon="9.954858733442816"><ele>72.0</ele><time>2026-05-03T06:46:34.987Z</time></trkpt><trkpt lat="45.37196447814518" lon="9.954949051072234"><ele>72.0</ele><time>2026-05-03T06:46:35.987Z</time></trkpt><trkpt lat="45.37196583788921" lon="9.955129522004507"><ele>72.0</ele><time>2026-05-03T06:46:37.987Z</time></trkpt><trkpt lat="45.37197129421892" lon="9.95522627970906"><ele>72.0</ele><time>2026-05-03T06:46:38.987Z</time></trkpt><trkpt lat="45.37196752476153" lon="9.95532048169637"><ele>72.0</ele><time>2026-05-03T06:46:39.987Z</time></trkpt><trkpt lat="45.37194314397746" lon="9.955496297192536"><ele>72.0</ele><time>2026-05-03T06:46:41.987Z</time></trkpt><trkpt lat="45.371927337364156" lon="9.955583851435478"><ele>72.0</ele><time>2026-05-03T06:46:42.987Z</time></trkpt><trkpt lat="45.37190228181545" lon="9.955748415632076"><ele>72.0</ele><time>2026-05-03T06:46:44.987Z</time></trkpt><trkpt lat="45.371885779831096" lon="9.955836493281657"><ele>72.2</ele><time>2026-05-03T06:46:45.987Z</time></trkpt><trkpt lat="45.37186383303881" lon="9.955927178098385"><ele>72.4</ele><time>2026-05-03T06:46:46.987Z</time></trkpt><trkpt lat="45.37183057751003" lon="9.956105233859677"><ele>72.6</ele><time>2026-05-03T06:46:48.987Z</time></trkpt><trkpt lat="45.37180086189124" lon="9.956281754910348"><ele>72.8</ele><time>2026-05-03T06:46:50.987Z</time></trkpt><trkpt lat="45.37178517036812" lon="9.956373651597048"><ele>73.0</ele><time>2026-05-03T06:46:51.987Z</time></trkpt><trkpt lat="45.37177499538064" lon="9.956464210719291"><ele>73.0</ele><time>2026-05-03T06:46:52.987Z</time></trkpt><trkpt lat="45.37176128414687" lon="9.956554645459462"><ele>73.0</ele><time>2026-05-03T06:46:53.987Z</time></trkpt><trkpt lat="45.371742990529285" lon="9.956645835663593"><ele>73.0</ele><time>2026-05-03T06:46:54.987Z</time></trkpt><trkpt lat="45.37172827057742" lon="9.956737042956924"><ele>73.0</ele><time>2026-05-03T06:46:55.987Z</time></trkpt><trkpt lat="45.371709971578184" lon="9.956824549559853"><ele>73.0</ele><time>2026-05-03T06:46:56.987Z</time></trkpt><trkpt lat="45.37167391618991" lon="9.956995558968076"><ele>73.0</ele><time>2026-05-03T06:46:58.987Z</time></trkpt><trkpt lat="45.37164304638672" lon="9.957175512096644"><ele>73.0</ele><time>2026-05-03T06:47:00.987Z</time></trkpt><trkpt lat="45.3716097781739" lon="9.957354932815027"><ele>73.0</ele><time>2026-05-03T06:47:02.987Z</time></trkpt><trkpt lat="45.37158214418337" lon="9.957524857156661"><ele>73.0</ele><time>2026-05-03T06:47:04.987Z</time></trkpt><trkpt lat="45.37155517467757" lon="9.957704108383734"><ele>73.0</ele><time>2026-05-03T06:47:06.987Z</time></trkpt><trkpt lat="45.371525278471225" lon="9.957877421320413"><ele>72.75</ele><time>2026-05-03T06:47:08.987Z</time></trkpt><trkpt lat="45.37149634637577" lon="9.958046204270167"><ele>72.5</ele><time>2026-05-03T06:47:10.987Z</time></trkpt><trkpt lat="45.371469000679916" lon="9.958207676238045"><ele>72.25</ele><time>2026-05-03T06:47:12.987Z</time></trkpt><trkpt lat="45.37143489913872" lon="9.958375469584695"><ele>72.0</ele><time>2026-05-03T06:47:14.987Z</time></trkpt><trkpt lat="45.37140671839946" lon="9.958537318372503"><ele>71.8</ele><time>2026-05-03T06:47:16.987Z</time></trkpt><trkpt lat="45.37139009763241" lon="9.958623855397718"><ele>71.6</ele><time>2026-05-03T06:47:17.987Z</time></trkpt><trkpt lat="45.371362989614106" lon="9.958788377965403"><ele>71.39999999999999</ele><time>2026-05-03T06:47:19.987Z</time></trkpt><trkpt lat="45.37134561753113" lon="9.95887498668627"><ele>71.2</ele><time>2026-05-03T06:47:20.987Z</time></trkpt><trkpt lat="45.37131862714165" lon="9.959049188412747"><ele>71.0</ele><time>2026-05-03T06:47:22.987Z</time></trkpt><trkpt lat="45.371292721066204" lon="9.959212951263245"><ele>71.0</ele><time>2026-05-03T06:47:24.987Z</time></trkpt><trkpt lat="45.37127998897149" lon="9.959305545098132"><ele>71.0</ele><time>2026-05-03T06:47:25.987Z</time></trkpt><trkpt lat="45.37125241599623" lon="9.95947519874773"><ele>71.0</ele><time>2026-05-03T06:47:27.987Z</time></trkpt><trkpt lat="45.371221758101505" lon="9.959643593354034"><ele>71.0</ele><time>2026-05-03T06:47:29.987Z</time></trkpt><trkpt lat="45.37119484866259" lon="9.959809274108963"><ele>71.0</ele><time>2026-05-03T06:47:31.988Z</time></trkpt><trkpt lat="45.37118393684472" lon="9.959899710203516"><ele>71.0</ele><time>2026-05-03T06:47:32.988Z</time></trkpt><trkpt lat="45.37115706956238" lon="9.960062637527692"><ele>71.0</ele><time>2026-05-03T06:47:34.988Z</time></trkpt><trkpt lat="45.37113982078034" lon="9.960148868464435"><ele>71.0</ele><time>2026-05-03T06:47:35.988Z</time></trkpt><trkpt lat="45.371113991039415" lon="9.960313284923913"><ele>71.0</ele><time>2026-05-03T06:47:37.988Z</time></trkpt><trkpt lat="45.37110109721221" lon="9.96040237423059"><ele>71.0</ele><time>2026-05-03T06:47:38.988Z</time></trkpt><trkpt lat="45.371070658392306" lon="9.960562102720871"><ele>71.0</ele><time>2026-05-03T06:47:40.988Z</time></trkpt><trkpt lat="45.37105333067399" lon="9.960651236877553"><ele>71.0</ele><time>2026-05-03T06:47:41.988Z</time></trkpt><trkpt lat="45.371034344396506" lon="9.96081677005021"><ele>71.0</ele><time>2026-05-03T06:47:43.988Z</time></trkpt><trkpt lat="45.371008862250534" lon="9.960977813363085"><ele>71.0</ele><time>2026-05-03T06:47:45.988Z</time></trkpt><trkpt lat="45.370960205591636" lon="9.961115347629942"><ele>71.0</ele><time>2026-05-03T06:47:47.988Z</time></trkpt><trkpt lat="45.37087470288099" lon="9.961221724188835"><ele>71.0</ele><time>2026-05-03T06:47:49.988Z</time></trkpt><trkpt lat="45.3707634070429" lon="9.961276732477263"><ele>71.0</ele><time>2026-05-03T06:47:51.988Z</time></trkpt><trkpt lat="45.370646212592476" lon="9.961243889936595"><ele>71.0</ele><time>2026-05-03T06:47:53.988Z</time></trkpt><trkpt lat="45.370585106761155" lon="9.961218695484037"><ele>71.0</ele><time>2026-05-03T06:47:54.988Z</time></trkpt><trkpt lat="45.3704690189779" lon="9.961170425305655"><ele>71.0</ele><time>2026-05-03T06:47:56.988Z</time></trkpt><trkpt lat="45.37035808445901" lon="9.961138291786343"><ele>71.0</ele><time>2026-05-03T06:47:58.988Z</time></trkpt><trkpt lat="45.37023516557791" lon="9.961096323338564"><ele>71.0</ele><time>2026-05-03T06:48:00.988Z</time></trkpt><trkpt lat="45.37013137059482" lon="9.961057795219942"><ele>71.0</ele><time>2026-05-03T06:48:02.988Z</time></trkpt><trkpt lat="45.37001487139852" lon="9.961020407658264"><ele>71.0</ele><time>2026-05-03T06:48:04.988Z</time></trkpt><trkpt lat="45.36990666373752" lon="9.960982840352878"><ele>71.0</ele><time>2026-05-03T06:48:06.988Z</time></trkpt><trkpt lat="45.36980516117767" lon="9.960946600464572"><ele>71.0</ele><time>2026-05-03T06:48:08.988Z</time></trkpt><trkpt lat="45.36969174213831" lon="9.960910062127024"><ele>71.0</ele><time>2026-05-03T06:48:10.988Z</time></trkpt><trkpt lat="45.36958288507659" lon="9.960873198113768"><ele>71.0</ele><time>2026-05-03T06:48:12.988Z</time></trkpt><trkpt lat="45.36947451788029" lon="9.960837473021703"><ele>71.0</ele><time>2026-05-03T06:48:14.988Z</time></trkpt><trkpt lat="45.369367055353145" lon="9.96079990203796"><ele>71.2</ele><time>2026-05-03T06:48:16.988Z</time></trkpt><trkpt lat="45.36924748367414" lon="9.960763425532189"><ele>71.39999999999999</ele><time>2026-05-03T06:48:18.988Z</time></trkpt><trkpt lat="45.36918468956856" lon="9.960752664248846"><ele>71.6</ele><time>2026-05-03T06:48:19.988Z</time></trkpt><trkpt lat="45.36908470172384" lon="9.96072270793919"><ele>71.8</ele><time>2026-05-03T06:48:21.988Z</time></trkpt><trkpt lat="45.36902286415478" lon="9.960702194770025"><ele>72.0</ele><time>2026-05-03T06:48:22.988Z</time></trkpt><trkpt lat="45.36891685191955" lon="9.960661028226639"><ele>71.8</ele><time>2026-05-03T06:48:24.988Z</time></trkpt><trkpt lat="45.36882049687644" lon="9.960625556255497"><ele>71.6</ele><time>2026-05-03T06:48:26.988Z</time></trkpt><trkpt lat="45.36871363858329" lon="9.96059580634853"><ele>71.39999999999999</ele><time>2026-05-03T06:48:28.988Z</time></trkpt><trkpt lat="45.3686051115034" lon="9.960555517250537"><ele>71.2</ele><time>2026-05-03T06:48:30.988Z</time></trkpt><trkpt lat="45.368498534077425" lon="9.960531093963587"><ele>71.0</ele><time>2026-05-03T06:48:32.988Z</time></trkpt><trkpt lat="45.36838313959422" lon="9.960494966292705"><ele>71.0</ele><time>2026-05-03T06:48:34.988Z</time></trkpt><trkpt lat="45.368281459686976" lon="9.960469610781189"><ele>71.0</ele><time>2026-05-03T06:48:36.988Z</time></trkpt><trkpt lat="45.368171500154624" lon="9.960439827545065"><ele>71.0</ele><time>2026-05-03T06:48:38.988Z</time></trkpt><trkpt lat="45.36806796402438" lon="9.960406447867987"><ele>71.0</ele><time>2026-05-03T06:48:40.988Z</time></trkpt><trkpt lat="45.36795412672541" lon="9.960366272900991"><ele>71.0</ele><time>2026-05-03T06:48:42.988Z</time></trkpt><trkpt lat="45.36784662304688" lon="9.960334366511175"><ele>71.2</ele><time>2026-05-03T06:48:44.987Z</time></trkpt><trkpt lat="45.36773930110581" lon="9.960298677836615"><ele>71.39999999999999</ele><time>2026-05-03T06:48:46.987Z</time></trkpt><trkpt lat="45.367633996022846" lon="9.960264391331531"><ele>71.6</ele><time>2026-05-03T06:48:48.987Z</time></trkpt><trkpt lat="45.36753311395971" lon="9.960217620858314"><ele>71.8</ele><time>2026-05-03T06:48:50.987Z</time></trkpt><trkpt lat="45.367437400760714" lon="9.96024137101583"><ele>72.0</ele><time>2026-05-03T06:48:52.987Z</time></trkpt><trkpt lat="45.36739562098443" lon="9.960356914174737"><ele>72.0</ele><time>2026-05-03T06:48:54.987Z</time></trkpt><trkpt lat="45.36739787398639" lon="9.960511964626509"><ele>72.0</ele><time>2026-05-03T06:48:56.987Z</time></trkpt><trkpt lat="45.36739456295026" lon="9.960682762871402"><ele>72.0</ele><time>2026-05-03T06:48:58.987Z</time></trkpt><trkpt lat="45.367395960984894" lon="9.960827881627338"><ele>72.0</ele><time>2026-05-03T06:49:00.987Z</time></trkpt><trkpt lat="45.36738815138862" lon="9.96098640816091"><ele>72.0</ele><time>2026-05-03T06:49:02.987Z</time></trkpt><trkpt lat="45.367378129800244" lon="9.961141660094135"><ele>72.0</ele><time>2026-05-03T06:49:04.987Z</time></trkpt><trkpt lat="45.367374861919615" lon="9.961296373670189"><ele>72.0</ele><time>2026-05-03T06:49:06.987Z</time></trkpt><trkpt lat="45.367354218926735" lon="9.96143729633108"><ele>72.0</ele><time>2026-05-03T06:49:08.987Z</time></trkpt><trkpt lat="45.36734372208512" lon="9.961584060691953"><ele>72.0</ele><time>2026-05-03T06:49:10.987Z</time></trkpt><trkpt lat="45.367338258259004" lon="9.961732469300088"><ele>72.0</ele><time>2026-05-03T06:49:12.987Z</time></trkpt><trkpt lat="45.36732418319805" lon="9.96187258617469"><ele>71.8</ele><time>2026-05-03T06:49:14.987Z</time></trkpt><trkpt lat="45.3673182122906" lon="9.962017694304242"><ele>71.6</ele><time>2026-05-03T06:49:16.987Z</time></trkpt><trkpt lat="45.36731435437259" lon="9.96216546368936"><ele>71.39999999999999</ele><time>2026-05-03T06:49:18.987Z</time></trkpt><trkpt lat="45.36731118443995" lon="9.962300779388002"><ele>71.2</ele><time>2026-05-03T06:49:20.987Z</time></trkpt><trkpt lat="45.3672953627156" lon="9.962449078119654"><ele>71.0</ele><time>2026-05-03T06:49:22.987Z</time></trkpt><trkpt lat="45.36728255867798" lon="9.96260084976431"><ele>71.0</ele><time>2026-05-03T06:49:24.987Z</time></trkpt><trkpt lat="45.36726978546804" lon="9.96273641478542"><ele>71.0</ele><time>2026-05-03T06:49:26.987Z</time></trkpt><trkpt lat="45.367264719940366" lon="9.962872433766131"><ele>71.0</ele><time>2026-05-03T06:49:28.987Z</time></trkpt><trkpt lat="45.367253454177586" lon="9.963026040011934"><ele>71.0</ele><time>2026-05-03T06:49:30.987Z</time></trkpt><trkpt lat="45.36724337951092" lon="9.963169602497784"><ele>71.0</ele><time>2026-05-03T06:49:32.987Z</time></trkpt><trkpt lat="45.36723727662401" lon="9.96332519264767"><ele>71.0</ele><time>2026-05-03T06:49:34.987Z</time></trkpt><trkpt lat="45.36723214418528" lon="9.963488849427918"><ele>71.0</ele><time>2026-05-03T06:49:36.987Z</time></trkpt><trkpt lat="45.36722302815565" lon="9.963636137525265"><ele>71.0</ele><time>2026-05-03T06:49:38.988Z</time></trkpt><trkpt lat="45.36720601411144" lon="9.963791981178366"><ele>71.0</ele><time>2026-05-03T06:49:40.988Z</time></trkpt><trkpt lat="45.3671985812487" lon="9.963952601819182"><ele>71.0</ele><time>2026-05-03T06:49:42.988Z</time></trkpt><trkpt lat="45.36718415815583" lon="9.964110483334167"><ele>70.8</ele><time>2026-05-03T06:49:44.988Z</time></trkpt><trkpt lat="45.36718225885343" lon="9.964270708952247"><ele>70.6</ele><time>2026-05-03T06:49:46.987Z</time></trkpt><trkpt lat="45.3671713969179" lon="9.964424313428157"><ele>70.4</ele><time>2026-05-03T06:49:48.988Z</time></trkpt><trkpt lat="45.36716566877316" lon="9.964586591078659"><ele>70.2</ele><time>2026-05-03T06:49:50.988Z</time></trkpt><trkpt lat="45.36715163277075" lon="9.964742132187972"><ele>70.0</ele><time>2026-05-03T06:49:52.988Z</time></trkpt><trkpt lat="45.36714399580927" lon="9.964915851766325"><ele>70.2</ele><time>2026-05-03T06:49:54.988Z</time></trkpt><trkpt lat="45.36711762597855" lon="9.965053705439145"><ele>70.4</ele><time>2026-05-03T06:49:56.988Z</time></trkpt><trkpt lat="45.36709916092591" lon="9.96518552000249"><ele>70.6</ele><time>2026-05-03T06:49:58.988Z</time></trkpt><trkpt lat="45.36708599708277" lon="9.96531371387594"><ele>70.8</ele><time>2026-05-03T06:50:00.988Z</time></trkpt><trkpt lat="45.36707938677698" lon="9.96545890461884"><ele>71.0</ele><time>2026-05-03T06:50:02.988Z</time></trkpt><trkpt lat="45.36707968907301" lon="9.96559463718936"><ele>71.0</ele><time>2026-05-03T06:50:04.988Z</time></trkpt><trkpt lat="45.36707609723165" lon="9.965727171220957"><ele>71.0</ele><time>2026-05-03T06:50:06.988Z</time></trkpt><trkpt lat="45.36707415379511" lon="9.965863615956223"><ele>71.0</ele><time>2026-05-03T06:50:08.988Z</time></trkpt><trkpt lat="45.36707941240996" lon="9.966009858281954"><ele>71.0</ele><time>2026-05-03T06:50:10.988Z</time></trkpt><trkpt lat="45.367072312109364" lon="9.966169866233065"><ele>71.0</ele><time>2026-05-03T06:50:12.988Z</time></trkpt><trkpt lat="45.367069137302444" lon="9.966313660184005"><ele>71.0</ele><time>2026-05-03T06:50:14.988Z</time></trkpt><trkpt lat="45.36707290086648" lon="9.966470380635355"><ele>71.0</ele><time>2026-05-03T06:50:16.988Z</time></trkpt><trkpt lat="45.36707672638607" lon="9.966628741526906"><ele>71.0</ele><time>2026-05-03T06:50:18.988Z</time></trkpt><trkpt lat="45.367077843664845" lon="9.966777733622346"><ele>71.0</ele><time>2026-05-03T06:50:20.988Z</time></trkpt><trkpt lat="45.36707227516846" lon="9.966930858650136"><ele>71.0</ele><time>2026-05-03T06:50:22.988Z</time></trkpt><trkpt lat="45.36707767212617" lon="9.967083874132605"><ele>71.0</ele><time>2026-05-03T06:50:24.988Z</time></trkpt><trkpt lat="45.367087920152976" lon="9.967235426063022"><ele>71.0</ele><time>2026-05-03T06:50:26.988Z</time></trkpt><trkpt lat="45.36708805280309" lon="9.967392784650151"><ele>71.0</ele><time>2026-05-03T06:50:28.988Z</time></trkpt><trkpt lat="45.36708441892971" lon="9.967550697070186"><ele>71.0</ele><time>2026-05-03T06:50:30.988Z</time></trkpt><trkpt lat="45.36708964994588" lon="9.967642491595862"><ele>71.0</ele><time>2026-05-03T06:50:31.988Z</time></trkpt><trkpt lat="45.36708263093829" lon="9.967806772376974"><ele>71.0</ele><time>2026-05-03T06:50:33.987Z</time></trkpt><trkpt lat="45.367080398938775" lon="9.967897868467686"><ele>71.0</ele><time>2026-05-03T06:50:34.987Z</time></trkpt><trkpt lat="45.36707536363087" lon="9.967991964448165"><ele>71.0</ele><time>2026-05-03T06:50:35.987Z</time></trkpt><trkpt lat="45.36706848479734" lon="9.96808236330814"><ele>71.0</ele><time>2026-05-03T06:50:36.987Z</time></trkpt><trkpt lat="45.36705878946457" lon="9.96825443551257"><ele>71.0</ele><time>2026-05-03T06:50:38.987Z</time></trkpt><trkpt lat="45.367049262868576" lon="9.968436482690734"><ele>71.0</ele><time>2026-05-03T06:50:40.987Z</time></trkpt><trkpt lat="45.367038045507826" lon="9.968531567409643"><ele>71.2</ele><time>2026-05-03T06:50:41.987Z</time></trkpt><trkpt lat="45.36702811058692" lon="9.968624575078605"><ele>71.39999999999999</ele><time>2026-05-03T06:50:42.987Z</time></trkpt><trkpt lat="45.36702151432341" lon="9.968786037666755"><ele>71.6</ele><time>2026-05-03T06:50:44.987Z</time></trkpt><trkpt lat="45.36700010175506" lon="9.968955976917858"><ele>71.8</ele><time>2026-05-03T06:50:46.987Z</time></trkpt><trkpt lat="45.3669790404183" lon="9.969135931030998"><ele>72.0</ele><time>2026-05-03T06:50:48.987Z</time></trkpt><trkpt lat="45.36696607395298" lon="9.969296964689429"><ele>71.6</ele><time>2026-05-03T06:50:50.987Z</time></trkpt><trkpt lat="45.366955044527295" lon="9.96939081806346"><ele>71.2</ele><time>2026-05-03T06:50:51.987Z</time></trkpt><trkpt lat="45.36694099278625" lon="9.969569977852572"><ele>70.8</ele><time>2026-05-03T06:50:53.987Z</time></trkpt><trkpt lat="45.36692208111713" lon="9.969722781411368"><ele>70.4</ele><time>2026-05-03T06:50:55.987Z</time></trkpt><trkpt lat="45.36691148220302" lon="9.9698611354222"><ele>70.0</ele><time>2026-05-03T06:50:57.987Z</time></trkpt><trkpt lat="45.36688723093066" lon="9.970037000564169"><ele>69.6</ele><time>2026-05-03T06:50:59.987Z</time></trkpt><trkpt lat="45.36687345508194" lon="9.97013201500465"><ele>69.2</ele><time>2026-05-03T06:51:00.987Z</time></trkpt><trkpt lat="45.36686055434938" lon="9.970226232510798"><ele>68.8</ele><time>2026-05-03T06:51:01.987Z</time></trkpt><trkpt lat="45.36683376599878" lon="9.970389404497737"><ele>68.4</ele><time>2026-05-03T06:51:03.987Z</time></trkpt><trkpt lat="45.366810133684126" lon="9.970557030123626"><ele>68.0</ele><time>2026-05-03T06:51:05.987Z</time></trkpt><trkpt lat="45.3667833622144" lon="9.970730593283484"><ele>68.4</ele><time>2026-05-03T06:51:07.987Z</time></trkpt><trkpt lat="45.366759568786144" lon="9.970859707213744"><ele>68.8</ele><time>2026-05-03T06:51:09.987Z</time></trkpt><trkpt lat="45.36674554780851" lon="9.971016894120286"><ele>69.2</ele><time>2026-05-03T06:51:11.987Z</time></trkpt><trkpt lat="45.366723185737584" lon="9.97117537455935"><ele>69.6</ele><time>2026-05-03T06:51:13.987Z</time></trkpt><trkpt lat="45.36669974589624" lon="9.971339042385875"><ele>70.0</ele><time>2026-05-03T06:51:15.987Z</time></trkpt><trkpt lat="45.366665344616166" lon="9.971494941703096"><ele>70.0</ele><time>2026-05-03T06:51:17.987Z</time></trkpt><trkpt lat="45.366646991676156" lon="9.971646150569079"><ele>70.0</ele><time>2026-05-03T06:51:19.987Z</time></trkpt><trkpt lat="45.366626457708065" lon="9.97180355962606"><ele>70.0</ele><time>2026-05-03T06:51:21.987Z</time></trkpt><trkpt lat="45.3666050850011" lon="9.971964304454586"><ele>70.0</ele><time>2026-05-03T06:51:23.987Z</time></trkpt><trkpt lat="45.366582550935995" lon="9.972120691025914"><ele>70.0</ele><time>2026-05-03T06:51:25.987Z</time></trkpt><trkpt lat="45.36656247941261" lon="9.972280363609892"><ele>70.0</ele><time>2026-05-03T06:51:27.987Z</time></trkpt><trkpt lat="45.36655490242464" lon="9.972372129319442"><ele>70.0</ele><time>2026-05-03T06:51:28.987Z</time></trkpt><trkpt lat="45.36653896802871" lon="9.972517540624525"><ele>70.0</ele><time>2026-05-03T06:51:30.987Z</time></trkpt><trkpt lat="45.36654342630629" lon="9.972679277826575"><ele>70.0</ele><time>2026-05-03T06:51:32.987Z</time></trkpt><trkpt lat="45.366549702694996" lon="9.972836475292015"><ele>70.0</ele><time>2026-05-03T06:51:34.986Z</time></trkpt><trkpt lat="45.36655492265672" lon="9.972998045533291"><ele>70.0</ele><time>2026-05-03T06:51:36.986Z</time></trkpt><trkpt lat="45.3665602038171" lon="9.97314797755265"><ele>70.0</ele><time>2026-05-03T06:51:38.986Z</time></trkpt><trkpt lat="45.36656443318236" lon="9.973310973182961"><ele>70.0</ele><time>2026-05-03T06:51:40.986Z</time></trkpt><trkpt lat="45.36656940091758" lon="9.973463123822162"><ele>70.0</ele><time>2026-05-03T06:51:42.986Z</time></trkpt><trkpt lat="45.36658081460878" lon="9.973606835305272"><ele>70.0</ele><time>2026-05-03T06:51:44.987Z</time></trkpt><trkpt lat="45.36658123048552" lon="9.973760430630959"><ele>70.2</ele><time>2026-05-03T06:51:46.988Z</time></trkpt><trkpt lat="45.366592024501685" lon="9.973912349588456"><ele>70.4</ele><time>2026-05-03T06:51:48.987Z</time></trkpt><trkpt lat="45.366597323567284" lon="9.974065457515703"><ele>70.6</ele><time>2026-05-03T06:51:50.987Z</time></trkpt><trkpt lat="45.36660050855281" lon="9.974209150458554"><ele>70.8</ele><time>2026-05-03T06:51:52.988Z</time></trkpt><trkpt lat="45.36657953440647" lon="9.974315269055772"><ele>71.0</ele><time>2026-05-03T06:51:54.988Z</time></trkpt><trkpt lat="45.3665042377557" lon="9.974356908059521"><ele>71.0</ele><time>2026-05-03T06:51:56.988Z</time></trkpt><trkpt lat="45.36640301614409" lon="9.974331336466113"><ele>71.0</ele><time>2026-05-03T06:51:58.988Z</time></trkpt><trkpt lat="45.366307456628604" lon="9.974313347015402"><ele>71.0</ele><time>2026-05-03T06:52:00.988Z</time></trkpt><trkpt lat="45.36619783691294" lon="9.974303197842499"><ele>71.0</ele><time>2026-05-03T06:52:02.987Z</time></trkpt><trkpt lat="45.36610171601314" lon="9.974296785999078"><ele>71.0</ele><time>2026-05-03T06:52:04.987Z</time></trkpt><trkpt lat="45.36600722573259" lon="9.974295678346596"><ele>70.8</ele><time>2026-05-03T06:52:06.987Z</time></trkpt><trkpt lat="45.36589941695279" lon="9.974292090150396"><ele>70.6</ele><time>2026-05-03T06:52:08.987Z</time></trkpt><trkpt lat="45.36580588626885" lon="9.974273720864845"><ele>70.4</ele><time>2026-05-03T06:52:10.987Z</time></trkpt><trkpt lat="45.365699274899804" lon="9.97426422317362"><ele>70.2</ele><time>2026-05-03T06:52:12.987Z</time></trkpt><trkpt lat="45.365601601148775" lon="9.97425952307837"><ele>70.0</ele><time>2026-05-03T06:52:14.987Z</time></trkpt><trkpt lat="45.3655082361953" lon="9.974235578927345"><ele>70.0</ele><time>2026-05-03T06:52:16.987Z</time></trkpt><trkpt lat="45.36541133220929" lon="9.974213485122009"><ele>70.0</ele><time>2026-05-03T06:52:18.987Z</time></trkpt><trkpt lat="45.36533350311321" lon="9.974190337721039"><ele>70.0</ele><time>2026-05-03T06:52:20.987Z</time></trkpt><trkpt lat="45.36523712501886" lon="9.97419139825794"><ele>70.0</ele><time>2026-05-03T06:52:22.987Z</time></trkpt><trkpt lat="45.36512688285994" lon="9.974173916401359"><ele>70.0</ele><time>2026-05-03T06:52:24.987Z</time></trkpt><trkpt lat="45.36501306679311" lon="9.974160611711419"><ele>70.0</ele><time>2026-05-03T06:52:26.987Z</time></trkpt><trkpt lat="45.36492209175051" lon="9.974148268170312"><ele>70.0</ele><time>2026-05-03T06:52:28.987Z</time></trkpt><trkpt lat="45.36483429612479" lon="9.974146426627682"><ele>70.0</ele><time>2026-05-03T06:52:30.987Z</time></trkpt><trkpt lat="45.36476897998475" lon="9.974137806735884"><ele>70.0</ele><time>2026-05-03T06:52:31.987Z</time></trkpt><trkpt lat="45.36470398704399" lon="9.974131985524545"><ele>70.0</ele><time>2026-05-03T06:52:32.987Z</time></trkpt><trkpt lat="45.3645825416293" lon="9.974116438114477"><ele>70.0</ele><time>2026-05-03T06:52:34.987Z</time></trkpt><trkpt lat="45.3644670067754" lon="9.974104747010152"><ele>70.0</ele><time>2026-05-03T06:52:36.987Z</time></trkpt><trkpt lat="45.36434343254764" lon="9.974087976794506"><ele>70.0</ele><time>2026-05-03T06:52:38.987Z</time></trkpt><trkpt lat="45.36427794133606" lon="9.974079198997144"><ele>70.0</ele><time>2026-05-03T06:52:39.987Z</time></trkpt><trkpt lat="45.36416359483494" lon="9.974057270996322"><ele>70.0</ele><time>2026-05-03T06:52:41.987Z</time></trkpt><trkpt lat="45.36404385392267" lon="9.974017436508928"><ele>70.0</ele><time>2026-05-03T06:52:43.987Z</time></trkpt><trkpt lat="45.36393424366947" lon="9.973961212594752"><ele>70.0</ele><time>2026-05-03T06:52:45.987Z</time></trkpt><trkpt lat="45.36387254817616" lon="9.97392014981445"><ele>70.0</ele><time>2026-05-03T06:52:46.987Z</time></trkpt><trkpt lat="45.36378320142103" lon="9.973818676265648"><ele>70.0</ele><time>2026-05-03T06:52:48.987Z</time></trkpt><trkpt lat="45.3637376727843" lon="9.973710284459571"><ele>70.0</ele><time>2026-05-03T06:52:50.987Z</time></trkpt><trkpt lat="45.363665806802295" lon="9.973588009735257"><ele>70.0</ele><time>2026-05-03T06:52:52.987Z</time></trkpt><trkpt lat="45.36357277778704" lon="9.973501604391782"><ele>70.2</ele><time>2026-05-03T06:52:54.987Z</time></trkpt><trkpt lat="45.36350800220573" lon="9.973469193492175"><ele>70.4</ele><time>2026-05-03T06:52:55.987Z</time></trkpt><trkpt lat="45.36340087817659" lon="9.973430940496357"><ele>70.6</ele><time>2026-05-03T06:52:57.987Z</time></trkpt><trkpt lat="45.36329547617754" lon="9.97339268876249"><ele>70.8</ele><time>2026-05-03T06:52:59.987Z</time></trkpt><trkpt lat="45.363227331889505" lon="9.97337464451235"><ele>71.0</ele><time>2026-05-03T06:53:00.987Z</time></trkpt><trkpt lat="45.36312004987703" lon="9.97334056346595"><ele>70.8</ele><time>2026-05-03T06:53:02.986Z</time></trkpt><trkpt lat="45.363024298848295" lon="9.973317036680918"><ele>70.6</ele><time>2026-05-03T06:53:04.986Z</time></trkpt><trkpt lat="45.362909000868555" lon="9.97327888751996"><ele>70.4</ele><time>2026-05-03T06:53:06.986Z</time></trkpt><trkpt lat="45.36280705739484" lon="9.973272475010239"><ele>70.2</ele><time>2026-05-03T06:53:08.986Z</time></trkpt><trkpt lat="45.36270820803244" lon="9.97331297594401"><ele>70.0</ele><time>2026-05-03T06:53:10.986Z</time></trkpt><trkpt lat="45.362658694594664" lon="9.973443198378174"><ele>70.4</ele><time>2026-05-03T06:53:12.986Z</time></trkpt><trkpt lat="45.36264480806955" lon="9.973591596086528"><ele>70.8</ele><time>2026-05-03T06:53:14.986Z</time></trkpt><trkpt lat="45.36263167063744" lon="9.973737692648845"><ele>71.2</ele><time>2026-05-03T06:53:16.986Z</time></trkpt><trkpt lat="45.36261216967828" lon="9.973892897171353"><ele>71.6</ele><time>2026-05-03T06:53:18.986Z</time></trkpt><trkpt lat="45.36258890503761" lon="9.974039111129175"><ele>72.0</ele><time>2026-05-03T06:53:20.986Z</time></trkpt><trkpt lat="45.362563310406095" lon="9.97418117173957"><ele>71.8</ele><time>2026-05-03T06:53:22.986Z</time></trkpt><trkpt lat="45.36254379844577" lon="9.974331779421854"><ele>71.6</ele><time>2026-05-03T06:53:24.986Z</time></trkpt><trkpt lat="45.36252349372926" lon="9.974486156347186"><ele>71.39999999999999</ele><time>2026-05-03T06:53:26.986Z</time></trkpt><trkpt lat="45.362505458648066" lon="9.97465608162741"><ele>71.2</ele><time>2026-05-03T06:53:28.986Z</time></trkpt><trkpt lat="45.362491010781376" lon="9.974747733194603"><ele>71.0</ele><time>2026-05-03T06:53:29.986Z</time></trkpt><trkpt lat="45.36248361243288" lon="9.974842077084963"><ele>71.0</ele><time>2026-05-03T06:53:30.986Z</time></trkpt><trkpt lat="45.36247624302933" lon="9.974942957677856"><ele>71.0</ele><time>2026-05-03T06:53:31.986Z</time></trkpt><trkpt lat="45.3624690038894" lon="9.975039228696536"><ele>71.0</ele><time>2026-05-03T06:53:32.986Z</time></trkpt><trkpt lat="45.36246150167555" lon="9.975141139569947"><ele>71.0</ele><time>2026-05-03T06:53:33.986Z</time></trkpt><trkpt lat="45.36245150423743" lon="9.97524573176736"><ele>71.0</ele><time>2026-05-03T06:53:34.986Z</time></trkpt><trkpt lat="45.36243218435181" lon="9.975343714670702"><ele>71.0</ele><time>2026-05-03T06:53:35.986Z</time></trkpt><trkpt lat="45.362413282602276" lon="9.975451268141667"><ele>71.0</ele><time>2026-05-03T06:53:36.986Z</time></trkpt><trkpt lat="45.362394498658006" lon="9.975557217946157"><ele>70.85714285714286</ele><time>2026-05-03T06:53:37.986Z</time></trkpt><trkpt lat="45.36237956145663" lon="9.975654631428096"><ele>70.71428571428571</ele><time>2026-05-03T06:53:38.986Z</time></trkpt><trkpt lat="45.362365888945085" lon="9.975755221796147"><ele>70.57142857142857</ele><time>2026-05-03T06:53:39.986Z</time></trkpt><trkpt lat="45.362347693853444" lon="9.975859410933106"><ele>70.42857142857143</ele><time>2026-05-03T06:53:40.986Z</time></trkpt><trkpt lat="45.3623314316779" lon="9.975962799452248"><ele>70.28571428571428</ele><time>2026-05-03T06:53:41.986Z</time></trkpt><trkpt lat="45.362317405053005" lon="9.97606383629638"><ele>70.14285714285714</ele><time>2026-05-03T06:53:42.986Z</time></trkpt><trkpt lat="45.36230073443668" lon="9.976161726331334"><ele>70.0</ele><time>2026-05-03T06:53:43.986Z</time></trkpt><trkpt lat="45.36228709407984" lon="9.97625623360413"><ele>69.83333333333333</ele><time>2026-05-03T06:53:44.986Z</time></trkpt><trkpt lat="45.36227147363688" lon="9.97634593136286"><ele>69.66666666666666</ele><time>2026-05-03T06:53:45.986Z</time></trkpt><trkpt lat="45.362259592722594" lon="9.976435941612136"><ele>69.5</ele><time>2026-05-03T06:53:46.986Z</time></trkpt><trkpt lat="45.36223064813286" lon="9.976588566339743"><ele>69.33333333333333</ele><time>2026-05-03T06:53:48.986Z</time></trkpt><trkpt lat="45.362203011518936" lon="9.976702947210454"><ele>69.16666666666667</ele><time>2026-05-03T06:53:50.987Z</time></trkpt><trkpt lat="45.36214107105027" lon="9.97672990923606"><ele>69.0</ele><time>2026-05-03T06:53:52.988Z</time></trkpt><trkpt lat="45.36205833090163" lon="9.976668060272452"><ele>69.42857142857143</ele><time>2026-05-03T06:53:54.987Z</time></trkpt><trkpt lat="45.36199819502902" lon="9.976636835222543"><ele>69.85714285714286</ele><time>2026-05-03T06:53:55.987Z</time></trkpt><trkpt lat="45.36193259531924" lon="9.976610364670412"><ele>70.28571428571429</ele><time>2026-05-03T06:53:56.987Z</time></trkpt><trkpt lat="45.361864082398824" lon="9.976596284440184"><ele>70.71428571428572</ele><time>2026-05-03T06:53:57.987Z</time></trkpt><trkpt lat="45.361798366152485" lon="9.976587698881762"><ele>71.14285714285714</ele><time>2026-05-03T06:53:58.987Z</time></trkpt><trkpt lat="45.36173137398483" lon="9.976587941940465"><ele>71.57142857142858</ele><time>2026-05-03T06:53:59.987Z</time></trkpt><trkpt lat="45.36165308575241" lon="9.976570483137953"><ele>72.0</ele><time>2026-05-03T06:54:00.987Z</time></trkpt><trkpt lat="45.361580574609874" lon="9.976546435108967"><ele>72.00000000000001</ele><time>2026-05-03T06:54:01.987Z</time></trkpt><trkpt lat="45.36149884428364" lon="9.976524911580189"><ele>72.0</ele><time>2026-05-03T06:54:02.987Z</time></trkpt><trkpt lat="45.361427481479915" lon="9.976501053721275"><ele>72.0</ele><time>2026-05-03T06:54:03.987Z</time></trkpt><trkpt lat="45.361359772867246" lon="9.976486556539601"><ele>72.0</ele><time>2026-05-03T06:54:04.987Z</time></trkpt><trkpt lat="45.36129233791711" lon="9.976477013806122"><ele>72.0</ele><time>2026-05-03T06:54:05.987Z</time></trkpt><trkpt lat="45.36122421990338" lon="9.976466962095257"><ele>72.00000000000001</ele><time>2026-05-03T06:54:06.987Z</time></trkpt><trkpt lat="45.36115484513655" lon="9.976438370868644"><ele>72.0</ele><time>2026-05-03T06:54:07.987Z</time></trkpt><trkpt lat="45.36108613804437" lon="9.976414202922829"><ele>71.66666666666667</ele><time>2026-05-03T06:54:08.987Z</time></trkpt><trkpt lat="45.36101185849024" lon="9.97638431042584"><ele>71.33333333333333</ele><time>2026-05-03T06:54:09.987Z</time></trkpt><trkpt lat="45.36093620231625" lon="9.976354997535493"><ele>71.0</ele><time>2026-05-03T06:54:10.987Z</time></trkpt><trkpt lat="45.36085580152335" lon="9.976318648993383"><ele>70.66666666666666</ele><time>2026-05-03T06:54:11.987Z</time></trkpt><trkpt lat="45.36077955621126" lon="9.976291948124496"><ele>70.33333333333333</ele><time>2026-05-03T06:54:12.987Z</time></trkpt><trkpt lat="45.36071296786089" lon="9.976264484566773"><ele>70.0</ele><time>2026-05-03T06:54:13.987Z</time></trkpt><trkpt lat="45.36063897701381" lon="9.976231792829154"><ele>70.0</ele><time>2026-05-03T06:54:14.987Z</time></trkpt><trkpt lat="45.36057047084445" lon="9.976201195482707"><ele>70.0</ele><time>2026-05-03T06:54:15.987Z</time></trkpt><trkpt lat="45.36049212367491" lon="9.976172700718092"><ele>70.0</ele><time>2026-05-03T06:54:16.987Z</time></trkpt><trkpt lat="45.360423528890045" lon="9.976146900691989"><ele>70.0</ele><time>2026-05-03T06:54:17.987Z</time></trkpt><trkpt lat="45.360350878997956" lon="9.97611773057532"><ele>70.0</ele><time>2026-05-03T06:54:18.987Z</time></trkpt><trkpt lat="45.360281274640684" lon="9.97609758453406"><ele>70.0</ele><time>2026-05-03T06:54:19.987Z</time></trkpt><trkpt lat="45.36021798344752" lon="9.976074579589323"><ele>70.0</ele><time>2026-05-03T06:54:20.987Z</time></trkpt><trkpt lat="45.360155298958254" lon="9.976050213747557"><ele>70.0</ele><time>2026-05-03T06:54:21.987Z</time></trkpt><trkpt lat="45.36008356678847" lon="9.97601999871811"><ele>70.0</ele><time>2026-05-03T06:54:22.987Z</time></trkpt><trkpt lat="45.36001828584295" lon="9.975999461858352"><ele>70.0</ele><time>2026-05-03T06:54:23.987Z</time></trkpt><trkpt lat="45.359950855024" lon="9.975970240805369"><ele>70.0</ele><time>2026-05-03T06:54:24.987Z</time></trkpt><trkpt lat="45.35988751982516" lon="9.975949909560997"><ele>70.0</ele><time>2026-05-03T06:54:25.987Z</time></trkpt><trkpt lat="45.359825975896015" lon="9.975913510375682"><ele>70.0</ele><time>2026-05-03T06:54:26.987Z</time></trkpt><trkpt lat="45.35971654518889" lon="9.975866001702437"><ele>70.0</ele><time>2026-05-03T06:54:28.987Z</time></trkpt><trkpt lat="45.359654459975424" lon="9.975841584970086"><ele>70.0</ele><time>2026-05-03T06:54:29.987Z</time></trkpt><trkpt lat="45.35959116412949" lon="9.975818497829922"><ele>70.0</ele><time>2026-05-03T06:54:30.987Z</time></trkpt><trkpt lat="45.35953003006217" lon="9.975794257773494"><ele>70.0</ele><time>2026-05-03T06:54:31.987Z</time></trkpt><trkpt lat="45.359409643804156" lon="9.975748928073564"><ele>70.0</ele><time>2026-05-03T06:54:33.987Z</time></trkpt><trkpt lat="45.35934829825653" lon="9.975725823721218"><ele>70.0</ele><time>2026-05-03T06:54:34.987Z</time></trkpt><trkpt lat="45.35928566020705" lon="9.97570578784343"><ele>70.0</ele><time>2026-05-03T06:54:35.987Z</time></trkpt><trkpt lat="45.35917780913638" lon="9.975651129129464"><ele>70.0</ele><time>2026-05-03T06:54:37.986Z</time></trkpt><trkpt lat="45.35905920375448" lon="9.975598384515786"><ele>70.0</ele><time>2026-05-03T06:54:39.986Z</time></trkpt><trkpt lat="45.35895004998975" lon="9.975570017540228"><ele>70.0</ele><time>2026-05-03T06:54:41.986Z</time></trkpt><trkpt lat="45.35884451515057" lon="9.975528521833189"><ele>70.0</ele><time>2026-05-03T06:54:43.986Z</time></trkpt><trkpt lat="45.35878280592988" lon="9.975501943759241"><ele>70.0</ele><time>2026-05-03T06:54:44.986Z</time></trkpt><trkpt lat="45.35867603522167" lon="9.975471495123896"><ele>69.8</ele><time>2026-05-03T06:54:46.986Z</time></trkpt><trkpt lat="45.358613298971214" lon="9.975437656667687"><ele>69.6</ele><time>2026-05-03T06:54:47.986Z</time></trkpt><trkpt lat="45.35849375465038" lon="9.97538993490749"><ele>69.4</ele><time>2026-05-03T06:54:49.986Z</time></trkpt><trkpt lat="45.35838301646173" lon="9.975355222364671"><ele>69.2</ele><time>2026-05-03T06:54:51.986Z</time></trkpt><trkpt lat="45.358275402622624" lon="9.975312577756235"><ele>69.0</ele><time>2026-05-03T06:54:53.986Z</time></trkpt><trkpt lat="45.35816914398151" lon="9.975248400837543"><ele>69.0</ele><time>2026-05-03T06:54:55.986Z</time></trkpt><trkpt lat="45.35806063822082" lon="9.975202954927687"><ele>69.0</ele><time>2026-05-03T06:54:57.986Z</time></trkpt><trkpt lat="45.35795298455053" lon="9.975191046266922"><ele>69.0</ele><time>2026-05-03T06:54:59.986Z</time></trkpt><trkpt lat="45.35784154298343" lon="9.975178456981762"><ele>69.0</ele><time>2026-05-03T06:55:01.986Z</time></trkpt><trkpt lat="45.357735875791505" lon="9.975123754531301"><ele>69.0</ele><time>2026-05-03T06:55:03.986Z</time></trkpt><trkpt lat="45.35763201247223" lon="9.975085265812268"><ele>69.0</ele><time>2026-05-03T06:55:05.984Z</time></trkpt><trkpt lat="45.35751920028152" lon="9.975031451644144"><ele>69.0</ele><time>2026-05-03T06:55:07.981Z</time></trkpt><trkpt lat="45.35740558106902" lon="9.974994927604781"><ele>69.0</ele><time>2026-05-03T06:55:09.979Z</time></trkpt><trkpt lat="45.357339724880525" lon="9.974971978811313"><ele>69.0</ele><time>2026-05-03T06:55:10.978Z</time></trkpt><trkpt lat="45.357220890870046" lon="9.974920984079098"><ele>69.0</ele><time>2026-05-03T06:55:12.976Z</time></trkpt><trkpt lat="45.357115438273375" lon="9.974884778670383"><ele>69.0</ele><time>2026-05-03T06:55:14.974Z</time></trkpt><trkpt lat="45.35701070315664" lon="9.974840397631496"><ele>69.0</ele><time>2026-05-03T06:55:16.973Z</time></trkpt><trkpt lat="45.35694575446977" lon="9.97481372861622"><ele>69.0</ele><time>2026-05-03T06:55:17.972Z</time></trkpt><trkpt lat="45.35683115614766" lon="9.974771055865526"><ele>69.0</ele><time>2026-05-03T06:55:19.971Z</time></trkpt><trkpt lat="45.356717441200956" lon="9.974727956177928"><ele>69.0</ele><time>2026-05-03T06:55:21.97Z</time></trkpt><trkpt lat="45.35661024993182" lon="9.974685206634202"><ele>69.0</ele><time>2026-05-03T06:55:23.969Z</time></trkpt><trkpt lat="45.3565013799693" lon="9.974642960277732"><ele>69.0</ele><time>2026-05-03T06:55:25.968Z</time></trkpt><trkpt lat="45.35640237445824" lon="9.974609417996028"><ele>69.0</ele><time>2026-05-03T06:55:27.967Z</time></trkpt><trkpt lat="45.356315402314834" lon="9.9746409509633"><ele>69.0</ele><time>2026-05-03T06:55:29.967Z</time></trkpt><trkpt lat="45.3562858852628" lon="9.974748144707368"><ele>69.0</ele><time>2026-05-03T06:55:31.966Z</time></trkpt><trkpt lat="45.35629379530179" lon="9.974873780541149"><ele>68.8</ele><time>2026-05-03T06:55:33.965Z</time></trkpt><trkpt lat="45.35626735599587" lon="9.975014581595838"><ele>68.60000000000001</ele><time>2026-05-03T06:55:35.965Z</time></trkpt><trkpt lat="45.356245918690334" lon="9.975123511870258"><ele>68.4</ele><time>2026-05-03T06:55:37.965Z</time></trkpt><trkpt lat="45.35621839999395" lon="9.975274703877629"><ele>68.2</ele><time>2026-05-03T06:55:39.964Z</time></trkpt><trkpt lat="45.35618254718955" lon="9.97541536159478"><ele>68.0</ele><time>2026-05-03T06:55:41.964Z</time></trkpt><trkpt lat="45.35615008744545" lon="9.975553717574744"><ele>67.8</ele><time>2026-05-03T06:55:43.964Z</time></trkpt><trkpt lat="45.356128024456304" lon="9.975688851285307"><ele>67.6</ele><time>2026-05-03T06:55:45.963Z</time></trkpt><trkpt lat="45.35609650759961" lon="9.975823693618441"><ele>67.4</ele><time>2026-05-03T06:55:47.963Z</time></trkpt><trkpt lat="45.35606874126889" lon="9.975960071981493"><ele>67.2</ele><time>2026-05-03T06:55:49.963Z</time></trkpt><trkpt lat="45.356037445855144" lon="9.976111663784845"><ele>67.0</ele><time>2026-05-03T06:55:51.963Z</time></trkpt><trkpt lat="45.3560049667312" lon="9.976248670821528"><ele>67.0</ele><time>2026-05-03T06:55:53.962Z</time></trkpt><trkpt lat="45.355980339341336" lon="9.97640695011201"><ele>67.0</ele><time>2026-05-03T06:55:55.963Z</time></trkpt><trkpt lat="45.35595100516877" lon="9.976569772629661"><ele>67.0</ele><time>2026-05-03T06:55:57.963Z</time></trkpt><trkpt lat="45.35593352990008" lon="9.976658562728305"><ele>67.0</ele><time>2026-05-03T06:55:58.963Z</time></trkpt><trkpt lat="45.355909603874444" lon="9.976822482650375"><ele>67.0</ele><time>2026-05-03T06:56:00.964Z</time></trkpt><trkpt lat="45.355893403618474" lon="9.976910825797933"><ele>67.0</ele><time>2026-05-03T06:56:01.963Z</time></trkpt><trkpt lat="45.355865269278105" lon="9.977055792285835"><ele>67.0</ele><time>2026-05-03T06:56:03.964Z</time></trkpt><trkpt lat="45.355835918906536" lon="9.977208595144937"><ele>67.0</ele><time>2026-05-03T06:56:05.964Z</time></trkpt><trkpt lat="45.35581009746464" lon="9.97736121515337"><ele>67.0</ele><time>2026-05-03T06:56:07.963Z</time></trkpt><trkpt lat="45.35577407444345" lon="9.977519760575287"><ele>67.0</ele><time>2026-05-03T06:56:09.963Z</time></trkpt><trkpt lat="45.35574266363528" lon="9.977670557661222"><ele>67.0</ele><time>2026-05-03T06:56:11.963Z</time></trkpt><trkpt lat="45.35571275830388" lon="9.977832639717748"><ele>67.0</ele><time>2026-05-03T06:56:13.963Z</time></trkpt><trkpt lat="45.35568237778405" lon="9.977973264276002"><ele>67.0</ele><time>2026-05-03T06:56:15.963Z</time></trkpt><trkpt lat="45.35565626665527" lon="9.978126894767634"><ele>67.0</ele><time>2026-05-03T06:56:17.963Z</time></trkpt><trkpt lat="45.35562473021005" lon="9.978289701385053"><ele>66.8</ele><time>2026-05-03T06:56:19.963Z</time></trkpt><trkpt lat="45.35560074402933" lon="9.978441734181276"><ele>66.6</ele><time>2026-05-03T06:56:21.963Z</time></trkpt><trkpt lat="45.35556964711584" lon="9.978591274469084"><ele>66.39999999999999</ele><time>2026-05-03T06:56:23.963Z</time></trkpt><trkpt lat="45.35554416514488" lon="9.978749952115765"><ele>66.2</ele><time>2026-05-03T06:56:25.963Z</time></trkpt><trkpt lat="45.35551077818801" lon="9.978902833821437"><ele>66.0</ele><time>2026-05-03T06:56:27.963Z</time></trkpt><trkpt lat="45.35548549886746" lon="9.979051857447889"><ele>66.2</ele><time>2026-05-03T06:56:29.963Z</time></trkpt><trkpt lat="45.35545443221925" lon="9.979200046555238"><ele>66.39999999999999</ele><time>2026-05-03T06:56:31.962Z</time></trkpt><trkpt lat="45.35542751376388" lon="9.979348602531365"><ele>66.6</ele><time>2026-05-03T06:56:33.962Z</time></trkpt><trkpt lat="45.35540211055973" lon="9.97949262951732"><ele>66.8</ele><time>2026-05-03T06:56:35.962Z</time></trkpt><trkpt lat="45.35538021758423" lon="9.979637201992151"><ele>67.0</ele><time>2026-05-03T06:56:37.962Z</time></trkpt><trkpt lat="45.355353719782734" lon="9.979757082148108"><ele>67.0</ele><time>2026-05-03T06:56:39.962Z</time></trkpt><trkpt lat="45.35533002587284" lon="9.979896174425205"><ele>67.0</ele><time>2026-05-03T06:56:41.962Z</time></trkpt><trkpt lat="45.35529683044334" lon="9.980035625284858"><ele>67.0</ele><time>2026-05-03T06:56:43.962Z</time></trkpt><trkpt lat="45.35527379998676" lon="9.980168052573237"><ele>67.0</ele><time>2026-05-03T06:56:45.962Z</time></trkpt><trkpt lat="45.35525017306726" lon="9.980299735443005"><ele>67.0</ele><time>2026-05-03T06:56:47.962Z</time></trkpt><trkpt lat="45.35522633900879" lon="9.980438142962875"><ele>67.0</ele><time>2026-05-03T06:56:49.962Z</time></trkpt><trkpt lat="45.35519150808837" lon="9.980572753428579"><ele>67.0</ele><time>2026-05-03T06:56:51.962Z</time></trkpt><trkpt lat="45.35515273981182" lon="9.980715660476067"><ele>67.0</ele><time>2026-05-03T06:56:53.962Z</time></trkpt><trkpt lat="45.355128375827555" lon="9.980858257298515"><ele>67.0</ele><time>2026-05-03T06:56:55.962Z</time></trkpt><trkpt lat="45.3550992588712" lon="9.980999696967363"><ele>67.0</ele><time>2026-05-03T06:56:57.962Z</time></trkpt><trkpt lat="45.35507313293704" lon="9.981142589371093"><ele>67.0</ele><time>2026-05-03T06:56:59.962Z</time></trkpt><trkpt lat="45.35504827368252" lon="9.981272025252082"><ele>67.0</ele><time>2026-05-03T06:57:01.962Z</time></trkpt><trkpt lat="45.3550264380709" lon="9.981418842461698"><ele>67.0</ele><time>2026-05-03T06:57:03.962Z</time></trkpt><trkpt lat="45.35499863302877" lon="9.981566219384677"><ele>67.0</ele><time>2026-05-03T06:57:05.962Z</time></trkpt><trkpt lat="45.35496994195315" lon="9.981710376254512"><ele>67.0</ele><time>2026-05-03T06:57:07.962Z</time></trkpt><trkpt lat="45.35494099231745" lon="9.981837672448984"><ele>67.0</ele><time>2026-05-03T06:57:09.961Z</time></trkpt><trkpt lat="45.35491663209027" lon="9.981974357052767"><ele>67.0</ele><time>2026-05-03T06:57:11.961Z</time></trkpt><trkpt lat="45.35488999592854" lon="9.98211256402817"><ele>67.0</ele><time>2026-05-03T06:57:13.961Z</time></trkpt><trkpt lat="45.35486328217847" lon="9.982247465792128"><ele>67.0</ele><time>2026-05-03T06:57:15.961Z</time></trkpt><trkpt lat="45.35484029024751" lon="9.982389958208865"><ele>67.0</ele><time>2026-05-03T06:57:17.961Z</time></trkpt><trkpt lat="45.35481447560969" lon="9.982546058779016"><ele>67.0</ele><time>2026-05-03T06:57:19.961Z</time></trkpt><trkpt lat="45.354781957778094" lon="9.982695099012332"><ele>67.0</ele><time>2026-05-03T06:57:21.961Z</time></trkpt><trkpt lat="45.354757683675736" lon="9.98283790311846"><ele>67.0</ele><time>2026-05-03T06:57:23.961Z</time></trkpt><trkpt lat="45.35473337243717" lon="9.982980401487241"><ele>67.0</ele><time>2026-05-03T06:57:25.961Z</time></trkpt><trkpt lat="45.354703835264914" lon="9.983121263338365"><ele>67.0</ele><time>2026-05-03T06:57:27.961Z</time></trkpt><trkpt lat="45.35467728200125" lon="9.983263683347696"><ele>66.8</ele><time>2026-05-03T06:57:29.961Z</time></trkpt><trkpt lat="45.354650458978206" lon="9.983393922641332"><ele>66.6</ele><time>2026-05-03T06:57:31.961Z</time></trkpt><trkpt lat="45.35461843356813" lon="9.98354183699567"><ele>66.39999999999999</ele><time>2026-05-03T06:57:33.961Z</time></trkpt><trkpt lat="45.3545850948218" lon="9.983671199100616"><ele>66.2</ele><time>2026-05-03T06:57:35.961Z</time></trkpt><trkpt lat="45.35456148334526" lon="9.983809530906472"><ele>66.0</ele><time>2026-05-03T06:57:37.961Z</time></trkpt><trkpt lat="45.354538812819996" lon="9.983946129687679"><ele>66.0</ele><time>2026-05-03T06:57:39.961Z</time></trkpt><trkpt lat="45.35450891159865" lon="9.984092299081484"><ele>66.0</ele><time>2026-05-03T06:57:41.961Z</time></trkpt><trkpt lat="45.35448327058861" lon="9.984242048681237"><ele>66.0</ele><time>2026-05-03T06:57:43.961Z</time></trkpt><trkpt lat="45.354459584470966" lon="9.984386526589518"><ele>66.0</ele><time>2026-05-03T06:57:45.961Z</time></trkpt><trkpt lat="45.35443155396211" lon="9.98453554090566"><ele>66.0</ele><time>2026-05-03T06:57:47.961Z</time></trkpt><trkpt lat="45.35440410271354" lon="9.984672513738698"><ele>66.0</ele><time>2026-05-03T06:57:49.96Z</time></trkpt><trkpt lat="45.35437716689324" lon="9.984825045436098"><ele>66.0</ele><time>2026-05-03T06:57:51.96Z</time></trkpt><trkpt lat="45.3543508990167" lon="9.98497728589374"><ele>66.0</ele><time>2026-05-03T06:57:53.96Z</time></trkpt><trkpt lat="45.35431769661234" lon="9.985131967193588"><ele>66.0</ele><time>2026-05-03T06:57:55.96Z</time></trkpt><trkpt lat="45.35428850943385" lon="9.98527872432067"><ele>66.0</ele><time>2026-05-03T06:57:57.96Z</time></trkpt><trkpt lat="45.35426405734263" lon="9.985426395197138"><ele>66.0</ele><time>2026-05-03T06:57:59.96Z</time></trkpt><trkpt lat="45.354245166397796" lon="9.985566606316471"><ele>66.0</ele><time>2026-05-03T06:58:01.962Z</time></trkpt><trkpt lat="45.35421268252176" lon="9.985709837113264"><ele>66.0</ele><time>2026-05-03T06:58:03.962Z</time></trkpt><trkpt lat="45.354186673511144" lon="9.985850575770385"><ele>66.0</ele><time>2026-05-03T06:58:05.961Z</time></trkpt><trkpt lat="45.35416666468907" lon="9.985985340596821"><ele>66.0</ele><time>2026-05-03T06:58:07.962Z</time></trkpt><trkpt lat="45.35414572521969" lon="9.986123730127296"><ele>66.0</ele><time>2026-05-03T06:58:09.962Z</time></trkpt><trkpt lat="45.35412796769933" lon="9.986260615736319"><ele>66.0</ele><time>2026-05-03T06:58:11.961Z</time></trkpt><trkpt lat="45.35410525765399" lon="9.986392437648409"><ele>66.0</ele><time>2026-05-03T06:58:13.961Z</time></trkpt><trkpt lat="45.35407657550749" lon="9.98652979826296"><ele>66.0</ele><time>2026-05-03T06:58:15.961Z</time></trkpt><trkpt lat="45.35406645290583" lon="9.986652041955352"><ele>66.0</ele><time>2026-05-03T06:58:17.961Z</time></trkpt><trkpt lat="45.35403059336496" lon="9.986783469019146"><ele>66.39999999999999</ele><time>2026-05-03T06:58:19.961Z</time></trkpt><trkpt lat="45.35400604642682" lon="9.986914984618705"><ele>66.8</ele><time>2026-05-03T06:58:21.961Z</time></trkpt><trkpt lat="45.35398205510212" lon="9.987037171015421"><ele>67.19999999999999</ele><time>2026-05-03T06:58:23.961Z</time></trkpt><trkpt lat="45.35395979641053" lon="9.987159388522915"><ele>67.6</ele><time>2026-05-03T06:58:25.961Z</time></trkpt><trkpt lat="45.353931421106786" lon="9.987286033049363"><ele>68.0</ele><time>2026-05-03T06:58:27.961Z</time></trkpt><trkpt lat="45.35390732570899" lon="9.987411212504215"><ele>68.16666666666667</ele><time>2026-05-03T06:58:29.961Z</time></trkpt><trkpt lat="45.35388626225608" lon="9.987534399331969"><ele>68.33333333333334</ele><time>2026-05-03T06:58:31.961Z</time></trkpt><trkpt lat="45.353861163484645" lon="9.987648657578927"><ele>68.5</ele><time>2026-05-03T06:58:33.961Z</time></trkpt><trkpt lat="45.35383772988164" lon="9.987766962583317"><ele>68.66666666666667</ele><time>2026-05-03T06:58:35.961Z</time></trkpt><trkpt lat="45.353821097144056" lon="9.987873741592525"><ele>68.83333333333333</ele><time>2026-05-03T06:58:37.96Z</time></trkpt><trkpt lat="45.35381865952461" lon="9.98799723648211"><ele>69.0</ele><time>2026-05-03T06:58:40.96Z</time></trkpt><trkpt lat="45.35388189837367" lon="9.98805344887455"><ele>69.0</ele><time>2026-05-03T06:58:42.96Z</time></trkpt><trkpt lat="45.35397868106811" lon="9.98809712342501"><ele>69.0</ele><time>2026-05-03T06:58:44.96Z</time></trkpt><trkpt lat="45.354075659759374" lon="9.988134355158042"><ele>69.0</ele><time>2026-05-03T06:58:46.96Z</time></trkpt><trkpt lat="45.35417277568488" lon="9.988180249584854"><ele>69.0</ele><time>2026-05-03T06:58:48.96Z</time></trkpt><trkpt lat="45.35426805703532" lon="9.988219515013618"><ele>69.0</ele><time>2026-05-03T06:58:50.96Z</time></trkpt><trkpt lat="45.35436370806299" lon="9.988261310944242"><ele>69.0</ele><time>2026-05-03T06:58:52.96Z</time></trkpt><trkpt lat="45.35446172288398" lon="9.988305990576213"><ele>69.0</ele><time>2026-05-03T06:58:54.96Z</time></trkpt><trkpt lat="45.35455702647255" lon="9.988342614202494"><ele>69.0</ele><time>2026-05-03T06:58:56.96Z</time></trkpt><trkpt lat="45.35464723271413" lon="9.988385264941645"><ele>69.0</ele><time>2026-05-03T06:58:58.96Z</time></trkpt><trkpt lat="45.35474430396339" lon="9.988419746620087"><ele>69.0</ele><time>2026-05-03T06:59:00.96Z</time></trkpt><trkpt lat="45.35483958812389" lon="9.988461448834098"><ele>68.4</ele><time>2026-05-03T06:59:02.96Z</time></trkpt><trkpt lat="45.35492955020104" lon="9.988498169027496"><ele>67.80000000000001</ele><time>2026-05-03T06:59:04.96Z</time></trkpt><trkpt lat="45.35502252790408" lon="9.988535934332438"><ele>67.19999999999999</ele><time>2026-05-03T06:59:06.96Z</time></trkpt><trkpt lat="45.35511715880726" lon="9.988573858202217"><ele>66.6</ele><time>2026-05-03T06:59:08.96Z</time></trkpt><trkpt lat="45.355209715022724" lon="9.988613464299085"><ele>66.0</ele><time>2026-05-03T06:59:10.96Z</time></trkpt><trkpt lat="45.355307865579626" lon="9.988648127961683"><ele>66.0</ele><time>2026-05-03T06:59:12.96Z</time></trkpt><trkpt lat="45.35540446831441" lon="9.988693149353285"><ele>66.0</ele><time>2026-05-03T06:59:14.96Z</time></trkpt><trkpt lat="45.35550086666395" lon="9.988734075136355"><ele>66.0</ele><time>2026-05-03T06:59:16.96Z</time></trkpt><trkpt lat="45.35559134942904" lon="9.988769185042056"><ele>66.0</ele><time>2026-05-03T06:59:18.959Z</time></trkpt><trkpt lat="45.355682536344595" lon="9.988810386839125"><ele>66.0</ele><time>2026-05-03T06:59:20.959Z</time></trkpt><trkpt lat="45.35576165893267" lon="9.98884103404717"><ele>66.28571428571428</ele><time>2026-05-03T06:59:22.959Z</time></trkpt><trkpt lat="45.35583464987384" lon="9.9888752047074"><ele>66.57142857142857</ele><time>2026-05-03T06:59:24.959Z</time></trkpt><trkpt lat="45.355900495817664" lon="9.988903584778486"><ele>66.85714285714286</ele><time>2026-05-03T06:59:26.959Z</time></trkpt><trkpt lat="45.35593419794719" lon="9.988993289671509"><ele>67.14285714285714</ele><time>2026-05-03T06:59:30.959Z</time></trkpt><trkpt lat="45.355983936381136" lon="9.988933560945364"><ele>67.42857142857143</ele><time>2026-05-03T07:02:21.958Z</time></trkpt><trkpt lat="45.35604952758899" lon="9.988925174367909"><ele>67.71428571428571</ele><time>2026-05-03T07:02:24.958Z</time></trkpt><trkpt lat="45.356107655616334" lon="9.988967549097568"><ele>68.0</ele><time>2026-05-03T07:02:26.958Z</time></trkpt><trkpt lat="45.35617023647637" lon="9.989006542817535"><ele>68.0</ele><time>2026-05-03T07:02:28.958Z</time></trkpt><trkpt lat="45.35625881273935" lon="9.989050405842946"><ele>68.0</ele><time>2026-05-03T07:02:30.958Z</time></trkpt><trkpt lat="45.356321196228315" lon="9.989073137744082"><ele>68.0</ele><time>2026-05-03T07:02:31.958Z</time></trkpt><trkpt lat="45.35642849600348" lon="9.989116499727738"><ele>68.0</ele><time>2026-05-03T07:02:33.958Z</time></trkpt><trkpt lat="45.35653066240511" lon="9.989160933714507"><ele>68.0</ele><time>2026-05-03T07:02:35.957Z</time></trkpt><trkpt lat="45.356623095724835" lon="9.989203731564094"><ele>67.8</ele><time>2026-05-03T07:02:37.957Z</time></trkpt><trkpt lat="45.35672060627305" lon="9.989247505302169"><ele>67.6</ele><time>2026-05-03T07:02:39.957Z</time></trkpt><trkpt lat="45.35682670344531" lon="9.989281785885343"><ele>67.4</ele><time>2026-05-03T07:02:41.957Z</time></trkpt><trkpt lat="45.35693101151243" lon="9.989317157563642"><ele>67.2</ele><time>2026-05-03T07:02:43.957Z</time></trkpt><trkpt lat="45.35703660921675" lon="9.989356505351573"><ele>67.0</ele><time>2026-05-03T07:02:45.957Z</time></trkpt><trkpt lat="45.35714143766643" lon="9.98940081405231"><ele>67.2</ele><time>2026-05-03T07:02:47.957Z</time></trkpt><trkpt lat="45.357243114970395" lon="9.98942523004552"><ele>67.4</ele><time>2026-05-03T07:02:49.957Z</time></trkpt><trkpt lat="45.35734442661809" lon="9.989479921116791"><ele>67.6</ele><time>2026-05-03T07:02:51.957Z</time></trkpt><trkpt lat="45.357438747876984" lon="9.989511131695878"><ele>67.8</ele><time>2026-05-03T07:02:53.957Z</time></trkpt><trkpt lat="45.35754000911971" lon="9.989538373291234"><ele>68.0</ele><time>2026-05-03T07:02:55.957Z</time></trkpt><trkpt lat="45.35764139589998" lon="9.989586097223878"><ele>68.0</ele><time>2026-05-03T07:02:57.957Z</time></trkpt><trkpt lat="45.35774127762808" lon="9.98963252624585"><ele>68.0</ele><time>2026-05-03T07:02:59.957Z</time></trkpt><trkpt lat="45.35783711708258" lon="9.989665940069504"><ele>68.0</ele><time>2026-05-03T07:03:01.957Z</time></trkpt><trkpt lat="45.357943086295755" lon="9.98971537735196"><ele>68.0</ele><time>2026-05-03T07:03:03.957Z</time></trkpt><trkpt lat="45.35804392145465" lon="9.989755291100852"><ele>68.0</ele><time>2026-05-03T07:03:05.957Z</time></trkpt><trkpt lat="45.3581452278965" lon="9.989795873363912"><ele>68.2</ele><time>2026-05-03T07:03:07.957Z</time></trkpt><trkpt lat="45.35824977276805" lon="9.989834647579453"><ele>68.4</ele><time>2026-05-03T07:03:09.957Z</time></trkpt><trkpt lat="45.35835022722048" lon="9.989870957279035"><ele>68.60000000000001</ele><time>2026-05-03T07:03:11.957Z</time></trkpt><trkpt lat="45.35843808439287" lon="9.989939286518121"><ele>68.8</ele><time>2026-05-03T07:03:13.957Z</time></trkpt><trkpt lat="45.35848974733223" lon="9.99006139705927"><ele>69.0</ele><time>2026-05-03T07:03:15.956Z</time></trkpt><trkpt lat="45.35851519937855" lon="9.99021543665055"><ele>69.2</ele><time>2026-05-03T07:03:17.956Z</time></trkpt><trkpt lat="45.35851362293041" lon="9.990337648752588"><ele>69.4</ele><time>2026-05-03T07:03:19.956Z</time></trkpt><trkpt lat="45.35850159601007" lon="9.990476573140501"><ele>69.6</ele><time>2026-05-03T07:03:21.956Z</time></trkpt><trkpt lat="45.35847749694444" lon="9.99063028839618"><ele>69.8</ele><time>2026-05-03T07:03:23.956Z</time></trkpt><trkpt lat="45.35844381864802" lon="9.990761080114982"><ele>70.0</ele><time>2026-05-03T07:03:25.956Z</time></trkpt><trkpt lat="45.358427501618756" lon="9.990852289410782"><ele>70.2</ele><time>2026-05-03T07:03:26.956Z</time></trkpt><trkpt lat="45.358412170931246" lon="9.99093993104995"><ele>70.4</ele><time>2026-05-03T07:03:27.956Z</time></trkpt><trkpt lat="45.358381945226995" lon="9.991085271486526"><ele>70.6</ele><time>2026-05-03T07:03:29.956Z</time></trkpt><trkpt lat="45.358373913889054" lon="9.991212814402154"><ele>70.8</ele><time>2026-05-03T07:03:31.956Z</time></trkpt><trkpt lat="45.35839218975442" lon="9.991374797805578"><ele>71.0</ele><time>2026-05-03T07:03:33.956Z</time></trkpt><trkpt lat="45.35841814142045" lon="9.991484534130485"><ele>71.0</ele><time>2026-05-03T07:03:34.956Z</time></trkpt><trkpt lat="45.35845802168636" lon="9.991629870966364"><ele>71.0</ele><time>2026-05-03T07:03:36.956Z</time></trkpt><trkpt lat="45.35847217081832" lon="9.99180526221361"><ele>71.0</ele><time>2026-05-03T07:03:38.956Z</time></trkpt><trkpt lat="45.358488122584255" lon="9.991991908598818"><ele>71.0</ele><time>2026-05-03T07:03:40.956Z</time></trkpt><trkpt lat="45.35849052703648" lon="9.992159006628306"><ele>70.6</ele><time>2026-05-03T07:03:42.956Z</time></trkpt><trkpt lat="45.358495903088084" lon="9.992248318316703"><ele>70.19999999999999</ele><time>2026-05-03T07:03:43.956Z</time></trkpt><trkpt lat="45.358504302906134" lon="9.992393563836254"><ele>69.80000000000001</ele><time>2026-05-03T07:03:45.956Z</time></trkpt><trkpt lat="45.3585099150558" lon="9.992536649470887"><ele>69.4</ele><time>2026-05-03T07:03:47.956Z</time></trkpt><trkpt lat="45.35852197158677" lon="9.992693661935402"><ele>69.0</ele><time>2026-05-03T07:03:49.956Z</time></trkpt><trkpt lat="45.35852891537978" lon="9.99281970732241"><ele>68.60000000000001</ele><time>2026-05-03T07:03:51.956Z</time></trkpt><trkpt lat="45.35855434748215" lon="9.992925714333083"><ele>68.2</ele><time>2026-05-03T07:03:53.956Z</time></trkpt><trkpt lat="45.35862042249357" lon="9.993021998178937"><ele>67.80000000000001</ele><time>2026-05-03T07:03:55.956Z</time></trkpt><trkpt lat="45.358722561669765" lon="9.993074862776059"><ele>67.4</ele><time>2026-05-03T07:03:57.955Z</time></trkpt><trkpt lat="45.35881285393754" lon="9.993096595613391"><ele>67.0</ele><time>2026-05-03T07:03:59.955Z</time></trkpt><trkpt lat="45.35890793192902" lon="9.99310899687324"><ele>67.66666666666666</ele><time>2026-05-03T07:04:01.955Z</time></trkpt><trkpt lat="45.359001796963994" lon="9.993111735508347"><ele>68.33333333333333</ele><time>2026-05-03T07:04:03.955Z</time></trkpt><trkpt lat="45.35909114630588" lon="9.993121113024024"><ele>69.0</ele><time>2026-05-03T07:04:05.955Z</time></trkpt><trkpt lat="45.35917852672088" lon="9.993124503308902"><ele>69.66666666666667</ele><time>2026-05-03T07:04:07.955Z</time></trkpt><trkpt lat="45.359250162141024" lon="9.993135889618316"><ele>70.33333333333334</ele><time>2026-05-03T07:04:09.955Z</time></trkpt><trkpt lat="45.359338030714994" lon="9.993165640779251"><ele>71.0</ele><time>2026-05-03T07:04:12.955Z</time></trkpt><trkpt lat="45.3593583979509" lon="9.993253822074449"><ele>71.0</ele><time>2026-05-03T07:04:14.955Z</time></trkpt><trkpt lat="45.35936617758948" lon="9.993367711385442"><ele>71.0</ele><time>2026-05-03T07:04:16.955Z</time></trkpt><trkpt lat="45.35936593449812" lon="9.993482422563696"><ele>71.0</ele><time>2026-05-03T07:04:18.955Z</time></trkpt><trkpt lat="45.35935686160514" lon="9.99360310839654"><ele>71.0</ele><time>2026-05-03T07:04:20.956Z</time></trkpt><trkpt lat="45.35935065447215" lon="9.993714188259684"><ele>71.0</ele><time>2026-05-03T07:04:22.956Z</time></trkpt><trkpt lat="45.35934203661906" lon="9.993824918125386"><ele>71.0</ele><time>2026-05-03T07:04:24.956Z</time></trkpt><trkpt lat="45.359334770000416" lon="9.993947640352435"><ele>71.0</ele><time>2026-05-03T07:04:26.956Z</time></trkpt><trkpt lat="45.359317108515775" lon="9.994057104733924"><ele>71.0</ele><time>2026-05-03T07:04:28.956Z</time></trkpt><trkpt lat="45.359345290855046" lon="9.99418197816565"><ele>71.0</ele><time>2026-05-03T07:04:30.956Z</time></trkpt><trkpt lat="45.359423595634816" lon="9.994249143751356"><ele>71.0</ele><time>2026-05-03T07:04:32.956Z</time></trkpt><trkpt lat="45.359505076711464" lon="9.994255493851867"><ele>71.0</ele><time>2026-05-03T07:04:34.956Z</time></trkpt><trkpt lat="45.3596073220337" lon="9.994253776578368"><ele>71.0</ele><time>2026-05-03T07:04:36.956Z</time></trkpt><trkpt lat="45.359701815968556" lon="9.994264531232018"><ele>71.39999999999999</ele><time>2026-05-03T07:04:38.956Z</time></trkpt><trkpt lat="45.359794819346895" lon="9.994281045345689"><ele>71.8</ele><time>2026-05-03T07:04:40.956Z</time></trkpt><trkpt lat="45.3598913507338" lon="9.994316642577493"><ele>72.19999999999999</ele><time>2026-05-03T07:04:42.956Z</time></trkpt><trkpt lat="45.359981952552076" lon="9.994341798231172"><ele>72.6</ele><time>2026-05-03T07:04:44.956Z</time></trkpt><trkpt lat="45.36013819138141" lon="9.99435308410873"><ele>73.0</ele><time>2026-05-03T07:04:49.956Z</time></trkpt><trkpt lat="45.36018040467371" lon="9.994268764750386"><ele>72.75</ele><time>2026-05-03T07:04:51.956Z</time></trkpt><trkpt lat="45.3601989576473" lon="9.994020690310625"><ele>72.5</ele><time>2026-05-03T07:04:54.956Z</time></trkpt><trkpt lat="45.36022047465272" lon="9.993874167501781"><ele>72.25</ele><time>2026-05-03T07:04:56.956Z</time></trkpt><trkpt lat="45.36027082637927" lon="9.99372319636848"><ele>72.0</ele><time>2026-05-03T07:04:58.956Z</time></trkpt><trkpt lat="45.36036477622555" lon="9.99362646724171"><ele>72.0</ele><time>2026-05-03T07:05:00.956Z</time></trkpt><trkpt lat="45.36042630846989" lon="9.993587357669567"><ele>72.0</ele><time>2026-05-03T07:05:01.956Z</time></trkpt><trkpt lat="45.360482142650724" lon="9.993544860983155"><ele>72.0</ele><time>2026-05-03T07:05:02.956Z</time></trkpt><trkpt lat="45.36057293945903" lon="9.993435696296551"><ele>72.0</ele><time>2026-05-03T07:05:04.956Z</time></trkpt><trkpt lat="45.3606114852818" lon="9.993364663426616"><ele>72.0</ele><time>2026-05-03T07:05:05.956Z</time></trkpt><trkpt lat="45.36064548881954" lon="9.99328874038836"><ele>72.0</ele><time>2026-05-03T07:05:06.956Z</time></trkpt><trkpt lat="45.36070659459513" lon="9.993127140444052"><ele>71.2</ele><time>2026-05-03T07:05:08.956Z</time></trkpt><trkpt lat="45.36073894558092" lon="9.99304711318518"><ele>70.4</ele><time>2026-05-03T07:05:09.955Z</time></trkpt><trkpt lat="45.36080163479319" lon="9.99291335921012"><ele>69.6</ele><time>2026-05-03T07:05:11.955Z</time></trkpt><trkpt lat="45.36088394810369" lon="9.992801633302506"><ele>68.8</ele><time>2026-05-03T07:05:13.955Z</time></trkpt><trkpt lat="45.36097348425754" lon="9.992709699120315"><ele>68.0</ele><time>2026-05-03T07:05:15.955Z</time></trkpt><trkpt lat="45.361071514360134" lon="9.992662239544977"><ele>68.0</ele><time>2026-05-03T07:05:17.955Z</time></trkpt><trkpt lat="45.36117245298864" lon="9.992631448029321"><ele>68.0</ele><time>2026-05-03T07:05:19.955Z</time></trkpt><trkpt lat="45.361267014503696" lon="9.992628909300656"><ele>68.0</ele><time>2026-05-03T07:05:21.955Z</time></trkpt><trkpt lat="45.36137703467352" lon="9.992617553057928"><ele>68.0</ele><time>2026-05-03T07:05:23.955Z</time></trkpt><trkpt lat="45.36147320169476" lon="9.992623911438944"><ele>68.0</ele><time>2026-05-03T07:05:25.955Z</time></trkpt><trkpt lat="45.3615726897441" lon="9.992629479064098"><ele>68.4</ele><time>2026-05-03T07:05:27.955Z</time></trkpt><trkpt lat="45.36167574138372" lon="9.992642800915414"><ele>68.8</ele><time>2026-05-03T07:05:29.955Z</time></trkpt><trkpt lat="45.36178129949968" lon="9.99263815151094"><ele>69.2</ele><time>2026-05-03T07:05:31.955Z</time></trkpt><trkpt lat="45.36188736876918" lon="9.992637116949737"><ele>69.6</ele><time>2026-05-03T07:05:33.955Z</time></trkpt><trkpt lat="45.361990384385024" lon="9.99263563581762"><ele>70.0</ele><time>2026-05-03T07:05:35.955Z</time></trkpt><trkpt lat="45.362095115751146" lon="9.992634735363044"><ele>70.0</ele><time>2026-05-03T07:05:37.955Z</time></trkpt><trkpt lat="45.36219330596656" lon="9.992644922978704"><ele>70.0</ele><time>2026-05-03T07:05:39.955Z</time></trkpt><trkpt lat="45.36229870978426" lon="9.992661157252513"><ele>70.0</ele><time>2026-05-03T07:05:41.955Z</time></trkpt><trkpt lat="45.362405767989834" lon="9.992660049480001"><ele>70.0</ele><time>2026-05-03T07:05:43.955Z</time></trkpt><trkpt lat="45.362504668433616" lon="9.992666354154357"><ele>70.0</ele><time>2026-05-03T07:05:45.955Z</time></trkpt><trkpt lat="45.36261534332794" lon="9.992667076828187"><ele>70.4</ele><time>2026-05-03T07:05:47.955Z</time></trkpt><trkpt lat="45.3627195231298" lon="9.992668474522898"><ele>70.8</ele><time>2026-05-03T07:05:49.955Z</time></trkpt><trkpt lat="45.362824342632884" lon="9.992678529482918"><ele>71.2</ele><time>2026-05-03T07:05:51.954Z</time></trkpt><trkpt lat="45.362933547028874" lon="9.992685549373862"><ele>71.6</ele><time>2026-05-03T07:05:53.954Z</time></trkpt><trkpt lat="45.36304083628839" lon="9.99268866036806"><ele>72.0</ele><time>2026-05-03T07:05:55.954Z</time></trkpt><trkpt lat="45.363146009031766" lon="9.992687998906945"><ele>72.0</ele><time>2026-05-03T07:05:57.954Z</time></trkpt><trkpt lat="45.363250502355264" lon="9.99268967977734"><ele>72.0</ele><time>2026-05-03T07:05:59.954Z</time></trkpt><trkpt lat="45.363358293258216" lon="9.992696835998986"><ele>72.0</ele><time>2026-05-03T07:06:01.954Z</time></trkpt><trkpt lat="45.36345762260281" lon="9.992705285289016"><ele>72.0</ele><time>2026-05-03T07:06:03.954Z</time></trkpt><trkpt lat="45.36357825681237" lon="9.992711510514157"><ele>72.0</ele><time>2026-05-03T07:06:05.954Z</time></trkpt><trkpt lat="45.36369806745558" lon="9.992715505064247"><ele>72.0</ele><time>2026-05-03T07:06:07.954Z</time></trkpt><trkpt lat="45.363808779897" lon="9.992724247341465"><ele>72.0</ele><time>2026-05-03T07:06:09.954Z</time></trkpt><trkpt lat="45.363917479399504" lon="9.99272760960341"><ele>72.0</ele><time>2026-05-03T07:06:11.954Z</time></trkpt><trkpt lat="45.36402018920303" lon="9.992731733341206"><ele>72.0</ele><time>2026-05-03T07:06:13.954Z</time></trkpt><trkpt lat="45.36411863959498" lon="9.992724235184259"><ele>72.0</ele><time>2026-05-03T07:06:15.954Z</time></trkpt><trkpt lat="45.364231678925584" lon="9.992733185950927"><ele>72.0</ele><time>2026-05-03T07:06:17.954Z</time></trkpt><trkpt lat="45.364336576690846" lon="9.992730855428846"><ele>72.0</ele><time>2026-05-03T07:06:19.954Z</time></trkpt><trkpt lat="45.36443324462633" lon="9.992723226557178"><ele>72.0</ele><time>2026-05-03T07:06:21.954Z</time></trkpt><trkpt lat="45.364537299152595" lon="9.992686800135537"><ele>72.0</ele><time>2026-05-03T07:06:23.954Z</time></trkpt><trkpt lat="45.364640001744604" lon="9.99262237866598"><ele>72.0</ele><time>2026-05-03T07:06:25.955Z</time></trkpt><trkpt lat="45.364697168689815" lon="9.992578088557806"><ele>71.8</ele><time>2026-05-03T07:06:26.954Z</time></trkpt><trkpt lat="45.36477513652864" lon="9.992493518459112"><ele>71.6</ele><time>2026-05-03T07:06:28.955Z</time></trkpt><trkpt lat="45.36483622244979" lon="9.992399929667961"><ele>71.39999999999999</ele><time>2026-05-03T07:06:30.954Z</time></trkpt><trkpt lat="45.3648957174323" lon="9.992271418678"><ele>71.2</ele><time>2026-05-03T07:06:32.955Z</time></trkpt><trkpt lat="45.36493962315274" lon="9.992154133568627"><ele>71.0</ele><time>2026-05-03T07:06:34.954Z</time></trkpt><trkpt lat="45.36495857824146" lon="9.991998733254839"><ele>71.0</ele><time>2026-05-03T07:06:36.954Z</time></trkpt><trkpt lat="45.36498185650653" lon="9.991843514686899"><ele>71.0</ele><time>2026-05-03T07:06:38.954Z</time></trkpt><trkpt lat="45.36501160262709" lon="9.99169282318846"><ele>71.0</ele><time>2026-05-03T07:06:40.954Z</time></trkpt><trkpt lat="45.36503858177489" lon="9.991530598194387"><ele>71.0</ele><time>2026-05-03T07:06:42.954Z</time></trkpt><trkpt lat="45.36506452482665" lon="9.99138183369967"><ele>71.0</ele><time>2026-05-03T07:06:44.954Z</time></trkpt><trkpt lat="45.36508941225086" lon="9.991231179322687"><ele>71.0</ele><time>2026-05-03T07:06:46.954Z</time></trkpt><trkpt lat="45.365101036959246" lon="9.991072752207053"><ele>71.0</ele><time>2026-05-03T07:06:48.954Z</time></trkpt><trkpt lat="45.365125496219534" lon="9.990909224662651"><ele>71.0</ele><time>2026-05-03T07:06:50.954Z</time></trkpt><trkpt lat="45.365156454040815" lon="9.990749005961526"><ele>71.0</ele><time>2026-05-03T07:06:52.954Z</time></trkpt><trkpt lat="45.36518261105764" lon="9.990588688222987"><ele>70.5</ele><time>2026-05-03T07:06:54.954Z</time></trkpt><trkpt lat="45.36520167308685" lon="9.990423119796821"><ele>70.0</ele><time>2026-05-03T07:06:56.954Z</time></trkpt><trkpt lat="45.365210439406724" lon="9.990271478964384"><ele>69.5</ele><time>2026-05-03T07:06:58.954Z</time></trkpt><trkpt lat="45.36523195463297" lon="9.990110614868403"><ele>69.0</ele><time>2026-05-03T07:07:00.954Z</time></trkpt><trkpt lat="45.3652537081371" lon="9.989954618697928"><ele>69.0</ele><time>2026-05-03T07:07:02.954Z</time></trkpt><trkpt lat="45.365267866264965" lon="9.989795799283984"><ele>69.0</ele><time>2026-05-03T07:07:04.954Z</time></trkpt><trkpt lat="45.36528972942814" lon="9.98963109113223"><ele>69.0</ele><time>2026-05-03T07:07:06.954Z</time></trkpt><trkpt lat="45.36530908016335" lon="9.989480619341416"><ele>69.0</ele><time>2026-05-03T07:07:08.954Z</time></trkpt><trkpt lat="45.365327435629034" lon="9.989324371601155"><ele>69.0</ele><time>2026-05-03T07:07:10.953Z</time></trkpt><trkpt lat="45.36534506950837" lon="9.989172125154088"><ele>69.0</ele><time>2026-05-03T07:07:12.953Z</time></trkpt><trkpt lat="45.3653638303529" lon="9.98902109359716"><ele>69.0</ele><time>2026-05-03T07:07:14.953Z</time></trkpt><trkpt lat="45.36538038005914" lon="9.988867311445864"><ele>69.0</ele><time>2026-05-03T07:07:16.953Z</time></trkpt><trkpt lat="45.365393420050914" lon="9.988705450729734"><ele>69.0</ele><time>2026-05-03T07:07:18.953Z</time></trkpt><trkpt lat="45.365409318896205" lon="9.988553919767885"><ele>69.0</ele><time>2026-05-03T07:07:20.953Z</time></trkpt><trkpt lat="45.36542594000392" lon="9.988392197393285"><ele>69.2</ele><time>2026-05-03T07:07:22.953Z</time></trkpt><trkpt lat="45.365441976045396" lon="9.988234244646023"><ele>69.4</ele><time>2026-05-03T07:07:24.953Z</time></trkpt><trkpt lat="45.36546264478141" lon="9.988081167886332"><ele>69.6</ele><time>2026-05-03T07:07:26.953Z</time></trkpt><trkpt lat="45.36547968341788" lon="9.987931250665909"><ele>69.8</ele><time>2026-05-03T07:07:28.953Z</time></trkpt><trkpt lat="45.365492968681735" lon="9.987780489884631"><ele>70.0</ele><time>2026-05-03T07:07:30.953Z</time></trkpt><trkpt lat="45.365508462570176" lon="9.987631330219937"><ele>70.0</ele><time>2026-05-03T07:07:32.953Z</time></trkpt><trkpt lat="45.365522713618425" lon="9.987472434882145"><ele>70.0</ele><time>2026-05-03T07:07:34.953Z</time></trkpt><trkpt lat="45.36554105237361" lon="9.987323843579036"><ele>70.0</ele><time>2026-05-03T07:07:36.953Z</time></trkpt><trkpt lat="45.36556202173735" lon="9.987167076284836"><ele>70.0</ele><time>2026-05-03T07:07:38.953Z</time></trkpt><trkpt lat="45.365572876418426" lon="9.987009996539555"><ele>70.0</ele><time>2026-05-03T07:07:40.953Z</time></trkpt><trkpt lat="45.36558696076686" lon="9.986862715099422"><ele>70.2</ele><time>2026-05-03T07:07:42.953Z</time></trkpt><trkpt lat="45.36559707395786" lon="9.98671332478501"><ele>70.4</ele><time>2026-05-03T07:07:44.953Z</time></trkpt><trkpt lat="45.36560783487618" lon="9.986569955156634"><ele>70.6</ele><time>2026-05-03T07:07:46.953Z</time></trkpt><trkpt lat="45.3656203600469" lon="9.98643406698786"><ele>70.8</ele><time>2026-05-03T07:07:48.953Z</time></trkpt><trkpt lat="45.36564033836266" lon="9.98628337629902"><ele>71.0</ele><time>2026-05-03T07:07:50.952Z</time></trkpt><trkpt lat="45.365658427303806" lon="9.98613400655352"><ele>71.0</ele><time>2026-05-03T07:07:52.952Z</time></trkpt><trkpt lat="45.36567694470698" lon="9.985978736436039"><ele>71.0</ele><time>2026-05-03T07:07:54.952Z</time></trkpt><trkpt lat="45.36569113677885" lon="9.985833082818743"><ele>71.0</ele><time>2026-05-03T07:07:56.952Z</time></trkpt><trkpt lat="45.36570471182676" lon="9.98568193598048"><ele>71.0</ele><time>2026-05-03T07:07:58.952Z</time></trkpt><trkpt lat="45.36571917585692" lon="9.98553108571674"><ele>71.0</ele><time>2026-05-03T07:08:00.952Z</time></trkpt><trkpt lat="45.36574498105037" lon="9.985380276273156"><ele>70.8</ele><time>2026-05-03T07:08:02.952Z</time></trkpt><trkpt lat="45.365772213845105" lon="9.985227038823158"><ele>70.6</ele><time>2026-05-03T07:08:04.952Z</time></trkpt><trkpt lat="45.36581357708729" lon="9.985088110299486"><ele>70.4</ele><time>2026-05-03T07:08:06.952Z</time></trkpt><trkpt lat="45.36584674164771" lon="9.984943319109775"><ele>70.2</ele><time>2026-05-03T07:08:08.952Z</time></trkpt><trkpt lat="45.36589133184498" lon="9.984814201412732"><ele>70.0</ele><time>2026-05-03T07:08:10.952Z</time></trkpt><trkpt lat="45.365933263300526" lon="9.984662342205178"><ele>70.2</ele><time>2026-05-03T07:08:12.952Z</time></trkpt><trkpt lat="45.36598377684508" lon="9.984545469801976"><ele>70.4</ele><time>2026-05-03T07:08:14.952Z</time></trkpt><trkpt lat="45.36602690817979" lon="9.984409698555632"><ele>70.6</ele><time>2026-05-03T07:08:16.952Z</time></trkpt><trkpt lat="45.36608680781313" lon="9.984272349068148"><ele>70.8</ele><time>2026-05-03T07:08:18.952Z</time></trkpt><trkpt lat="45.36614738328483" lon="9.984153512086653"><ele>71.0</ele><time>2026-05-03T07:08:20.952Z</time></trkpt><trkpt lat="45.36620610072708" lon="9.984027046008443"><ele>71.0</ele><time>2026-05-03T07:08:22.952Z</time></trkpt><trkpt lat="45.366274210623764" lon="9.983906030509974"><ele>71.0</ele><time>2026-05-03T07:08:24.952Z</time></trkpt><trkpt lat="45.366337891005344" lon="9.983789374797652"><ele>71.0</ele><time>2026-05-03T07:08:26.952Z</time></trkpt><trkpt lat="45.366374907105026" lon="9.983706890446953"><ele>71.0</ele><time>2026-05-03T07:08:27.952Z</time></trkpt><trkpt lat="45.366444193935806" lon="9.983586391013697"><ele>71.0</ele><time>2026-05-03T07:08:29.952Z</time></trkpt><trkpt lat="45.36650948152401" lon="9.98345123727515"><ele>71.0</ele><time>2026-05-03T07:08:31.952Z</time></trkpt><trkpt lat="45.366542723399355" lon="9.983371387522725"><ele>71.0</ele><time>2026-05-03T07:08:32.953Z</time></trkpt><trkpt lat="45.36660345004223" lon="9.983237551539453"><ele>71.0</ele><time>2026-05-03T07:08:34.953Z</time></trkpt><trkpt lat="45.366671060260146" lon="9.983126303279755"><ele>71.0</ele><time>2026-05-03T07:08:36.953Z</time></trkpt><trkpt lat="45.36673195677084" lon="9.983009416008892"><ele>71.0</ele><time>2026-05-03T07:08:38.952Z</time></trkpt><trkpt lat="45.36679064486329" lon="9.982886051833614"><ele>71.0</ele><time>2026-05-03T07:08:40.953Z</time></trkpt><trkpt lat="45.3668440610977" lon="9.982744377688956"><ele>71.0</ele><time>2026-05-03T07:08:42.953Z</time></trkpt><trkpt lat="45.36689176345139" lon="9.982617638401901"><ele>71.0</ele><time>2026-05-03T07:08:44.952Z</time></trkpt><trkpt lat="45.36694214662818" lon="9.982493279550695"><ele>71.0</ele><time>2026-05-03T07:08:46.952Z</time></trkpt><trkpt lat="45.36698495723822" lon="9.98236576125235"><ele>71.0</ele><time>2026-05-03T07:08:48.952Z</time></trkpt><trkpt lat="45.36703267555977" lon="9.982240431913002"><ele>71.2</ele><time>2026-05-03T07:08:50.952Z</time></trkpt><trkpt lat="45.3670750442547" lon="9.98210502971018"><ele>71.39999999999999</ele><time>2026-05-03T07:08:52.952Z</time></trkpt><trkpt lat="45.367114753936384" lon="9.981961582869419"><ele>71.6</ele><time>2026-05-03T07:08:54.952Z</time></trkpt><trkpt lat="45.36715896394275" lon="9.981829921569775"><ele>71.8</ele><time>2026-05-03T07:08:56.952Z</time></trkpt><trkpt lat="45.367201763101896" lon="9.981689404211009"><ele>72.0</ele><time>2026-05-03T07:08:58.952Z</time></trkpt><trkpt lat="45.36724831064212" lon="9.98154853952363"><ele>72.5</ele><time>2026-05-03T07:09:00.952Z</time></trkpt><trkpt lat="45.367258887243345" lon="9.981440037510547"><ele>73.0</ele><time>2026-05-03T07:09:02.952Z</time></trkpt><trkpt lat="45.367300920636474" lon="9.981298354471825"><ele>73.5</ele><time>2026-05-03T07:09:04.952Z</time></trkpt><trkpt lat="45.36732638189596" lon="9.981215699268297"><ele>74.0</ele><time>2026-05-03T07:09:05.952Z</time></trkpt><trkpt lat="45.36737008948177" lon="9.981134248473367"><ele>74.5</ele><time>2026-05-03T07:09:06.952Z</time></trkpt><trkpt lat="45.367417729026016" lon="9.980995388495922"><ele>75.0</ele><time>2026-05-03T07:09:08.952Z</time></trkpt><trkpt lat="45.36747725726397" lon="9.980871574932182"><ele>74.75</ele><time>2026-05-03T07:09:10.952Z</time></trkpt><trkpt lat="45.36753560441178" lon="9.9807317272321"><ele>74.5</ele><time>2026-05-03T07:09:12.952Z</time></trkpt><trkpt lat="45.36759184583071" lon="9.980593011755337"><ele>74.25</ele><time>2026-05-03T07:09:14.952Z</time></trkpt><trkpt lat="45.36765414756442" lon="9.98045427345033"><ele>74.0</ele><time>2026-05-03T07:09:16.952Z</time></trkpt><trkpt lat="45.367730240965024" lon="9.980322606494996"><ele>74.0</ele><time>2026-05-03T07:09:18.951Z</time></trkpt><trkpt lat="45.36778195187701" lon="9.980190825646577"><ele>74.0</ele><time>2026-05-03T07:09:20.951Z</time></trkpt><trkpt lat="45.36783595193025" lon="9.980047454376756"><ele>74.0</ele><time>2026-05-03T07:09:22.951Z</time></trkpt><trkpt lat="45.367889257582775" lon="9.97990589810859"><ele>74.0</ele><time>2026-05-03T07:09:24.951Z</time></trkpt><trkpt lat="45.36793268108598" lon="9.979762006303204"><ele>74.0</ele><time>2026-05-03T07:09:26.951Z</time></trkpt><trkpt lat="45.3679802091727" lon="9.979623452052532"><ele>74.0</ele><time>2026-05-03T07:09:28.951Z</time></trkpt><trkpt lat="45.368027422832036" lon="9.979483741737416"><ele>74.0</ele><time>2026-05-03T07:09:30.951Z</time></trkpt><trkpt lat="45.36806947984434" lon="9.979354346804902"><ele>74.0</ele><time>2026-05-03T07:09:32.951Z</time></trkpt><trkpt lat="45.36811621691497" lon="9.979217592083065"><ele>74.0</ele><time>2026-05-03T07:09:34.951Z</time></trkpt><trkpt lat="45.36816365848631" lon="9.979073607090408"><ele>74.0</ele><time>2026-05-03T07:09:36.951Z</time></trkpt><trkpt lat="45.368205062811704" lon="9.978951987646317"><ele>74.2</ele><time>2026-05-03T07:09:38.951Z</time></trkpt><trkpt lat="45.36825495471724" lon="9.9788221554852"><ele>74.4</ele><time>2026-05-03T07:09:40.951Z</time></trkpt><trkpt lat="45.36831131445926" lon="9.978676996356239"><ele>74.6</ele><time>2026-05-03T07:09:42.951Z</time></trkpt><trkpt lat="45.368353588215655" lon="9.978535187767722"><ele>74.8</ele><time>2026-05-03T07:09:44.951Z</time></trkpt><trkpt lat="45.36840291216049" lon="9.978391090988703"><ele>75.0</ele><time>2026-05-03T07:09:46.951Z</time></trkpt><trkpt lat="45.368440109593166" lon="9.978243254865157"><ele>75.0</ele><time>2026-05-03T07:09:48.951Z</time></trkpt><trkpt lat="45.368470056512976" lon="9.97809486733409"><ele>75.0</ele><time>2026-05-03T07:09:50.951Z</time></trkpt><trkpt lat="45.3684979034943" lon="9.977945516945903"><ele>75.0</ele><time>2026-05-03T07:09:52.951Z</time></trkpt><trkpt lat="45.368525488751786" lon="9.977803909737638"><ele>75.0</ele><time>2026-05-03T07:09:54.951Z</time></trkpt><trkpt lat="45.3685453709561" lon="9.977654206443301"><ele>75.0</ele><time>2026-05-03T07:09:56.951Z</time></trkpt><trkpt lat="45.36856145810992" lon="9.977511956821557"><ele>75.2</ele><time>2026-05-03T07:09:58.951Z</time></trkpt><trkpt lat="45.368582934498114" lon="9.977368867059846"><ele>75.4</ele><time>2026-05-03T07:10:00.95Z</time></trkpt><trkpt lat="45.36860984410182" lon="9.977228057935836"><ele>75.6</ele><time>2026-05-03T07:10:02.95Z</time></trkpt><trkpt lat="45.36864054698708" lon="9.977093945711916"><ele>75.8</ele><time>2026-05-03T07:10:04.95Z</time></trkpt><trkpt lat="45.36868437568019" lon="9.976967416001788"><ele>76.0</ele><time>2026-05-03T07:10:06.95Z</time></trkpt><trkpt lat="45.368725489472446" lon="9.976833337073359"><ele>76.0</ele><time>2026-05-03T07:10:08.95Z</time></trkpt><trkpt lat="45.36875977477324" lon="9.976690327969745"><ele>76.0</ele><time>2026-05-03T07:10:10.95Z</time></trkpt><trkpt lat="45.36878805792835" lon="9.976598209592813"><ele>76.0</ele><time>2026-05-03T07:10:12.95Z</time></trkpt><trkpt lat="45.368815572688966" lon="9.976476441977875"><ele>76.0</ele><time>2026-05-03T07:10:14.95Z</time></trkpt><trkpt lat="45.368851196353006" lon="9.976343238568933"><ele>76.0</ele><time>2026-05-03T07:10:16.95Z</time></trkpt><trkpt lat="45.36889899535726" lon="9.976232537018628"><ele>75.6</ele><time>2026-05-03T07:10:18.95Z</time></trkpt><trkpt lat="45.36895411872569" lon="9.976153150606105"><ele>75.19999999999999</ele><time>2026-05-03T07:10:20.95Z</time></trkpt><trkpt lat="45.369070564366034" lon="9.97618697844383"><ele>74.80000000000001</ele><time>2026-05-03T07:10:22.95Z</time></trkpt><trkpt lat="45.36916315334905" lon="9.976237422350083"><ele>74.4</ele><time>2026-05-03T07:10:24.95Z</time></trkpt><trkpt lat="45.36923919500966" lon="9.976227311915821"><ele>74.0</ele><time>2026-05-03T07:10:25.95Z</time></trkpt><trkpt lat="45.3693195033759" lon="9.97625072170044"><ele>74.0</ele><time>2026-05-03T07:10:27.95Z</time></trkpt><trkpt lat="45.369419859233375" lon="9.976277536122186"><ele>74.0</ele><time>2026-05-03T07:10:29.95Z</time></trkpt><trkpt lat="45.36951808398031" lon="9.976307949333464"><ele>74.0</ele><time>2026-05-03T07:10:31.95Z</time></trkpt><trkpt lat="45.36960735696569" lon="9.976334823557227"><ele>74.0</ele><time>2026-05-03T07:10:33.95Z</time></trkpt><trkpt lat="45.3697018591648" lon="9.976364184416699"><ele>74.0</ele><time>2026-05-03T07:10:35.95Z</time></trkpt><trkpt lat="45.36979775434954" lon="9.976399747708639"><ele>74.0</ele><time>2026-05-03T07:10:37.951Z</time></trkpt><trkpt lat="45.36989687276426" lon="9.97643413887941"><ele>74.0</ele><time>2026-05-03T07:10:39.951Z</time></trkpt><trkpt lat="45.36999676448939" lon="9.97647828361206"><ele>74.0</ele><time>2026-05-03T07:10:41.951Z</time></trkpt><trkpt lat="45.37009108689625" lon="9.976515143692666"><ele>74.0</ele><time>2026-05-03T07:10:43.95Z</time></trkpt><trkpt lat="45.37018418447454" lon="9.976551221250398"><ele>74.0</ele><time>2026-05-03T07:10:45.951Z</time></trkpt><trkpt lat="45.37027876842832" lon="9.976584661344722"><ele>74.0</ele><time>2026-05-03T07:10:47.951Z</time></trkpt><trkpt lat="45.370374542254574" lon="9.9766191587865"><ele>74.0</ele><time>2026-05-03T07:10:49.951Z</time></trkpt><trkpt lat="45.37046778125854" lon="9.976652517143103"><ele>74.0</ele><time>2026-05-03T07:10:51.951Z</time></trkpt><trkpt lat="45.37057240524551" lon="9.97669106980896"><ele>74.0</ele><time>2026-05-03T07:10:53.951Z</time></trkpt><trkpt lat="45.37066824498727" lon="9.976728213687418"><ele>74.0</ele><time>2026-05-03T07:10:55.951Z</time></trkpt><trkpt lat="45.3707684402209" lon="9.976766104721685"><ele>74.0</ele><time>2026-05-03T07:10:57.951Z</time></trkpt><trkpt lat="45.370872448251454" lon="9.976804241926166"><ele>74.0</ele><time>2026-05-03T07:10:59.951Z</time></trkpt><trkpt lat="45.37096632180011" lon="9.976841971289037"><ele>74.0</ele><time>2026-05-03T07:11:01.951Z</time></trkpt><trkpt lat="45.37106143072928" lon="9.97687517375812"><ele>74.0</ele><time>2026-05-03T07:11:03.951Z</time></trkpt><trkpt lat="45.371161428351385" lon="9.976910413977876"><ele>74.0</ele><time>2026-05-03T07:11:05.951Z</time></trkpt><trkpt lat="45.37125423545767" lon="9.97694989037011"><ele>74.0</ele><time>2026-05-03T07:11:07.951Z</time></trkpt><trkpt lat="45.37134960779294" lon="9.97698225994996"><ele>74.0</ele><time>2026-05-03T07:11:09.951Z</time></trkpt><trkpt lat="45.37144746862867" lon="9.977015822282008"><ele>74.0</ele><time>2026-05-03T07:11:11.951Z</time></trkpt><trkpt lat="45.37153726201163" lon="9.977031002042056"><ele>74.0</ele><time>2026-05-03T07:11:13.951Z</time></trkpt><trkpt lat="45.37162935007828" lon="9.977056932150129"><ele>74.0</ele><time>2026-05-03T07:11:15.95Z</time></trkpt><trkpt lat="45.37172162625729" lon="9.977086623537007"><ele>73.60000000000001</ele><time>2026-05-03T07:11:17.95Z</time></trkpt><trkpt lat="45.37181087114083" lon="9.977131680924161"><ele>73.2</ele><time>2026-05-03T07:11:19.95Z</time></trkpt><trkpt lat="45.37189915490692" lon="9.977141492017381"><ele>72.80000000000001</ele><time>2026-05-03T07:11:21.95Z</time></trkpt><trkpt lat="45.37196275854421" lon="9.977077297480033"><ele>72.4</ele><time>2026-05-03T07:11:23.95Z</time></trkpt><trkpt lat="45.372003430352834" lon="9.976947261913072"><ele>72.0</ele><time>2026-05-03T07:11:25.95Z</time></trkpt><trkpt lat="45.37203889393229" lon="9.97681003905381"><ele>72.2</ele><time>2026-05-03T07:11:27.95Z</time></trkpt><trkpt lat="45.372077688632274" lon="9.976675900711275"><ele>72.4</ele><time>2026-05-03T07:11:29.95Z</time></trkpt><trkpt lat="45.3721088378991" lon="9.976531831138626"><ele>72.6</ele><time>2026-05-03T07:11:31.95Z</time></trkpt><trkpt lat="45.37213489220245" lon="9.976394211818613"><ele>72.8</ele><time>2026-05-03T07:11:33.95Z</time></trkpt><trkpt lat="45.37216742169659" lon="9.976252656667315"><ele>73.0</ele><time>2026-05-03T07:11:35.95Z</time></trkpt><trkpt lat="45.37220319041801" lon="9.976106837437525"><ele>73.0</ele><time>2026-05-03T07:11:37.95Z</time></trkpt><trkpt lat="45.37222628376574" lon="9.975965989472842"><ele>73.0</ele><time>2026-05-03T07:11:39.95Z</time></trkpt><trkpt lat="45.37226237153595" lon="9.975835870892748"><ele>73.0</ele><time>2026-05-03T07:11:41.95Z</time></trkpt><trkpt lat="45.37230262887438" lon="9.975699447185566"><ele>73.0</ele><time>2026-05-03T07:11:43.95Z</time></trkpt><trkpt lat="45.37233950218681" lon="9.975546108217532"><ele>73.0</ele><time>2026-05-03T07:11:45.95Z</time></trkpt><trkpt lat="45.372380186670306" lon="9.975403026881457"><ele>73.0</ele><time>2026-05-03T07:11:47.95Z</time></trkpt><trkpt lat="45.37242039376788" lon="9.975251839114769"><ele>73.0</ele><time>2026-05-03T07:11:49.95Z</time></trkpt><trkpt lat="45.37245271979756" lon="9.975099983753523"><ele>73.0</ele><time>2026-05-03T07:11:51.95Z</time></trkpt><trkpt lat="45.372483402906774" lon="9.9749534801893"><ele>73.0</ele><time>2026-05-03T07:11:53.95Z</time></trkpt><trkpt lat="45.372508016342216" lon="9.974809881514966"><ele>73.0</ele><time>2026-05-03T07:11:55.949Z</time></trkpt><trkpt lat="45.37253027440724" lon="9.97466148879258"><ele>73.0</ele><time>2026-05-03T07:11:57.949Z</time></trkpt><trkpt lat="45.37255556429444" lon="9.974523297263174"><ele>73.0</ele><time>2026-05-03T07:11:59.949Z</time></trkpt><trkpt lat="45.37258841795028" lon="9.97438226232153"><ele>73.0</ele><time>2026-05-03T07:12:01.949Z</time></trkpt><trkpt lat="45.372633811588855" lon="9.974254745652031"><ele>73.0</ele><time>2026-05-03T07:12:03.949Z</time></trkpt><trkpt lat="45.37266325636745" lon="9.974125561005195"><ele>73.0</ele><time>2026-05-03T07:12:05.949Z</time></trkpt><trkpt lat="45.37270601285983" lon="9.973983384804953"><ele>73.0</ele><time>2026-05-03T07:12:07.949Z</time></trkpt><trkpt lat="45.37274135052579" lon="9.973840471101225"><ele>73.0</ele><time>2026-05-03T07:12:09.949Z</time></trkpt><trkpt lat="45.372781956435276" lon="9.973699041076598"><ele>73.0</ele><time>2026-05-03T07:12:11.949Z</time></trkpt><trkpt lat="45.37281768421426" lon="9.973561860456911"><ele>73.0</ele><time>2026-05-03T07:12:13.949Z</time></trkpt><trkpt lat="45.37285650350986" lon="9.973414219504848"><ele>73.0</ele><time>2026-05-03T07:12:15.949Z</time></trkpt><trkpt lat="45.372894037542785" lon="9.973271443317854"><ele>73.0</ele><time>2026-05-03T07:12:17.949Z</time></trkpt><trkpt lat="45.37293084338693" lon="9.973127453873053"><ele>73.0</ele><time>2026-05-03T07:12:19.949Z</time></trkpt><trkpt lat="45.37297037166318" lon="9.97298676945266"><ele>73.0</ele><time>2026-05-03T07:12:21.949Z</time></trkpt><trkpt lat="45.37301155984314" lon="9.972849461733553"><ele>73.0</ele><time>2026-05-03T07:12:23.949Z</time></trkpt><trkpt lat="45.37305186366405" lon="9.972716563196306"><ele>73.0</ele><time>2026-05-03T07:12:25.949Z</time></trkpt><trkpt lat="45.37308769928481" lon="9.972580509400716"><ele>73.0</ele><time>2026-05-03T07:12:27.949Z</time></trkpt><trkpt lat="45.373122520158624" lon="9.972447680075124"><ele>73.0</ele><time>2026-05-03T07:12:29.949Z</time></trkpt><trkpt lat="45.373157264162174" lon="9.972310653843616"><ele>73.0</ele><time>2026-05-03T07:12:31.949Z</time></trkpt><trkpt lat="45.373195864368085" lon="9.972175517422798"><ele>73.0</ele><time>2026-05-03T07:12:33.949Z</time></trkpt><trkpt lat="45.37323404775035" lon="9.972040313542795"><ele>73.0</ele><time>2026-05-03T07:12:35.949Z</time></trkpt><trkpt lat="45.3732796019073" lon="9.971911019278888"><ele>73.0</ele><time>2026-05-03T07:12:37.948Z</time></trkpt><trkpt lat="45.37332048628722" lon="9.971779047733422"><ele>73.0</ele><time>2026-05-03T07:12:39.948Z</time></trkpt><trkpt lat="45.373364802009796" lon="9.97165028824349"><ele>73.0</ele><time>2026-05-03T07:12:41.948Z</time></trkpt><trkpt lat="45.373429403175535" lon="9.971540500896852"><ele>73.0</ele><time>2026-05-03T07:12:43.95Z</time></trkpt><trkpt lat="45.37352024464706" lon="9.971482175834687"><ele>73.0</ele><time>2026-05-03T07:12:45.949Z</time></trkpt><trkpt lat="45.37360450408844" lon="9.971433511559544"><ele>73.0</ele><time>2026-05-03T07:12:47.949Z</time></trkpt><trkpt lat="45.37368129669198" lon="9.971355046839518"><ele>73.0</ele><time>2026-05-03T07:12:49.949Z</time></trkpt><trkpt lat="45.37372294375687" lon="9.971231773052596"><ele>73.0</ele><time>2026-05-03T07:12:51.949Z</time></trkpt><trkpt lat="45.37374733367525" lon="9.971089751466858"><ele>73.0</ele><time>2026-05-03T07:12:53.949Z</time></trkpt><trkpt lat="45.37376079346502" lon="9.970960718029684"><ele>73.0</ele><time>2026-05-03T07:12:55.949Z</time></trkpt><trkpt lat="45.373777424575934" lon="9.970824511143112"><ele>72.8</ele><time>2026-05-03T07:12:57.949Z</time></trkpt><trkpt lat="45.37379514551201" lon="9.970688998943132"><ele>72.6</ele><time>2026-05-03T07:12:59.949Z</time></trkpt><trkpt lat="45.37381032882494" lon="9.97055114835093"><ele>72.4</ele><time>2026-05-03T07:13:01.949Z</time></trkpt><trkpt lat="45.37382320633606" lon="9.970416454029062"><ele>72.2</ele><time>2026-05-03T07:13:03.949Z</time></trkpt><trkpt lat="45.3738361701343" lon="9.970276574788517"><ele>72.0</ele><time>2026-05-03T07:13:05.949Z</time></trkpt><trkpt lat="45.37385013898673" lon="9.97014011590354"><ele>72.2</ele><time>2026-05-03T07:13:07.949Z</time></trkpt><trkpt lat="45.37386566905623" lon="9.970006257893898"><ele>72.4</ele><time>2026-05-03T07:13:09.949Z</time></trkpt><trkpt lat="45.37387866405164" lon="9.969863593522156"><ele>72.6</ele><time>2026-05-03T07:13:11.949Z</time></trkpt><trkpt lat="45.373893541335626" lon="9.969721449882314"><ele>72.8</ele><time>2026-05-03T07:13:13.949Z</time></trkpt><trkpt lat="45.37390747507804" lon="9.969579040020651"><ele>73.0</ele><time>2026-05-03T07:13:15.949Z</time></trkpt><trkpt lat="45.37391961042627" lon="9.96943117429889"><ele>73.0</ele><time>2026-05-03T07:13:17.949Z</time></trkpt><trkpt lat="45.37393875584769" lon="9.969297418199544"><ele>73.0</ele><time>2026-05-03T07:13:19.949Z</time></trkpt><trkpt lat="45.37395599825706" lon="9.969163739826278"><ele>73.0</ele><time>2026-05-03T07:13:21.948Z</time></trkpt><trkpt lat="45.373972556568624" lon="9.969023637278905"><ele>73.0</ele><time>2026-05-03T07:13:23.948Z</time></trkpt><trkpt lat="45.373995430315134" lon="9.96888461592421"><ele>73.0</ele><time>2026-05-03T07:13:25.948Z</time></trkpt><trkpt lat="45.37401659129969" lon="9.968734917206145"><ele>73.0</ele><time>2026-05-03T07:13:27.948Z</time></trkpt><trkpt lat="45.37403615969262" lon="9.968597483003796"><ele>73.0</ele><time>2026-05-03T07:13:29.948Z</time></trkpt><trkpt lat="45.37405038271907" lon="9.968455415487952"><ele>73.0</ele><time>2026-05-03T07:13:31.948Z</time></trkpt><trkpt lat="45.37406793189653" lon="9.968312955781855"><ele>73.0</ele><time>2026-05-03T07:13:33.948Z</time></trkpt><trkpt lat="45.374082538445265" lon="9.968176029493797"><ele>73.0</ele><time>2026-05-03T07:13:35.948Z</time></trkpt><trkpt lat="45.37408703575469" lon="9.968035362170122"><ele>73.0</ele><time>2026-05-03T07:13:37.948Z</time></trkpt><trkpt lat="45.37410125120372" lon="9.967899408583568"><ele>73.0</ele><time>2026-05-03T07:13:39.948Z</time></trkpt><trkpt lat="45.37416398158391" lon="9.967800064254464"><ele>73.0</ele><time>2026-05-03T07:13:41.948Z</time></trkpt><trkpt lat="45.374266951706886" lon="9.967774261997555"><ele>73.0</ele><time>2026-05-03T07:13:43.948Z</time></trkpt><trkpt lat="45.374368796345195" lon="9.96779261951637"><ele>73.0</ele><time>2026-05-03T07:13:45.948Z</time></trkpt><trkpt lat="45.37446522180732" lon="9.96780904277153"><ele>73.0</ele><time>2026-05-03T07:13:47.948Z</time></trkpt><trkpt lat="45.37456211030472" lon="9.96784369632435"><ele>73.0</ele><time>2026-05-03T07:13:49.948Z</time></trkpt><trkpt lat="45.37465822892595" lon="9.967886614497504"><ele>73.0</ele><time>2026-05-03T07:13:51.948Z</time></trkpt><trkpt lat="45.3747528759599" lon="9.967931662297133"><ele>73.0</ele><time>2026-05-03T07:13:53.948Z</time></trkpt><trkpt lat="45.374845366345916" lon="9.967984929232609"><ele>73.0</ele><time>2026-05-03T07:13:55.948Z</time></trkpt><trkpt lat="45.37493913180271" lon="9.968022865616827"><ele>73.0</ele><time>2026-05-03T07:13:57.948Z</time></trkpt><trkpt lat="45.37503190806424" lon="9.968050436385733"><ele>73.0</ele><time>2026-05-03T07:13:59.948Z</time></trkpt><trkpt lat="45.37512694875721" lon="9.968073840154952"><ele>73.0</ele><time>2026-05-03T07:14:01.948Z</time></trkpt><trkpt lat="45.37521943876567" lon="9.968100075671687"><ele>73.0</ele><time>2026-05-03T07:14:03.947Z</time></trkpt><trkpt lat="45.375308835722095" lon="9.968125197847396"><ele>73.0</ele><time>2026-05-03T07:14:05.947Z</time></trkpt><trkpt lat="45.37540462231491" lon="9.968153169016231"><ele>73.0</ele><time>2026-05-03T07:14:07.947Z</time></trkpt><trkpt lat="45.375495665766245" lon="9.968178431345242"><ele>73.0</ele><time>2026-05-03T07:14:09.947Z</time></trkpt><trkpt lat="45.37559314105286" lon="9.968210608944027"><ele>73.0</ele><time>2026-05-03T07:14:11.947Z</time></trkpt><trkpt lat="45.375692024663536" lon="9.968231060298498"><ele>73.0</ele><time>2026-05-03T07:14:13.947Z</time></trkpt><trkpt lat="45.375786758704166" lon="9.96822395824174"><ele>73.0</ele><time>2026-05-03T07:14:15.947Z</time></trkpt><trkpt lat="45.375867369167814" lon="9.96815506422179"><ele>73.0</ele><time>2026-05-03T07:14:17.947Z</time></trkpt><trkpt lat="45.375923845377095" lon="9.968033437380655"><ele>73.0</ele><time>2026-05-03T07:14:19.947Z</time></trkpt><trkpt lat="45.3759629578481" lon="9.967909443132296"><ele>73.0</ele><time>2026-05-03T07:14:21.947Z</time></trkpt><trkpt lat="45.37598865289075" lon="9.96779109525129"><ele>73.0</ele><time>2026-05-03T07:14:23.947Z</time></trkpt><trkpt lat="45.37600963050568" lon="9.967663930210577"><ele>73.0</ele><time>2026-05-03T07:14:25.947Z</time></trkpt><trkpt lat="45.37602851560969" lon="9.96753564940377"><ele>73.4</ele><time>2026-05-03T07:14:27.947Z</time></trkpt><trkpt lat="45.37604937843786" lon="9.967403679344523"><ele>73.8</ele><time>2026-05-03T07:14:29.947Z</time></trkpt><trkpt lat="45.376084385498345" lon="9.967279699708396"><ele>74.2</ele><time>2026-05-03T07:14:31.947Z</time></trkpt><trkpt lat="45.37610835311349" lon="9.96715703254097"><ele>74.6</ele><time>2026-05-03T07:14:33.947Z</time></trkpt><trkpt lat="45.37612832831267" lon="9.967028376880569"><ele>75.0</ele><time>2026-05-03T07:14:35.947Z</time></trkpt><trkpt lat="45.37615534379831" lon="9.966898209107484"><ele>75.0</ele><time>2026-05-03T07:14:37.947Z</time></trkpt><trkpt lat="45.376179093765046" lon="9.966767388717626"><ele>75.0</ele><time>2026-05-03T07:14:39.947Z</time></trkpt><trkpt lat="45.376200159005265" lon="9.966630806175601"><ele>75.0</ele><time>2026-05-03T07:14:41.947Z</time></trkpt><trkpt lat="45.37620464836267" lon="9.966486713512277"><ele>75.0</ele><time>2026-05-03T07:14:43.946Z</time></trkpt><trkpt lat="45.376218121956946" lon="9.96635440711231"><ele>75.0</ele><time>2026-05-03T07:14:45.946Z</time></trkpt><trkpt lat="45.37623363847842" lon="9.966218385114288"><ele>75.0</ele><time>2026-05-03T07:14:47.946Z</time></trkpt><trkpt lat="45.376241078795104" lon="9.966074816665326"><ele>75.0</ele><time>2026-05-03T07:14:49.948Z</time></trkpt><trkpt lat="45.37625106773633" lon="9.965931873167111"><ele>75.0</ele><time>2026-05-03T07:14:51.947Z</time></trkpt><trkpt lat="45.37626072503494" lon="9.965790193386816"><ele>75.0</ele><time>2026-05-03T07:14:53.947Z</time></trkpt><trkpt lat="45.376281620110156" lon="9.965649952182748"><ele>75.0</ele><time>2026-05-03T07:14:55.947Z</time></trkpt><trkpt lat="45.37630681895218" lon="9.96550780360785"><ele>75.0</ele><time>2026-05-03T07:14:57.947Z</time></trkpt><trkpt lat="45.3763438490678" lon="9.965371278611826"><ele>75.0</ele><time>2026-05-03T07:14:59.948Z</time></trkpt><trkpt lat="45.37637694895218" lon="9.96524972428024"><ele>75.0</ele><time>2026-05-03T07:15:01.947Z</time></trkpt><trkpt lat="45.376410166721286" lon="9.965109837982094"><ele>75.0</ele><time>2026-05-03T07:15:03.948Z</time></trkpt><trkpt lat="45.37644304720109" lon="9.96497512068289"><ele>75.0</ele><time>2026-05-03T07:15:05.947Z</time></trkpt><trkpt lat="45.376481764615015" lon="9.96483149991495"><ele>74.8</ele><time>2026-05-03T07:15:07.947Z</time></trkpt><trkpt lat="45.376518338160196" lon="9.964694768194631"><ele>74.6</ele><time>2026-05-03T07:15:09.947Z</time></trkpt><trkpt lat="45.37655256528533" lon="9.964556463726488"><ele>74.4</ele><time>2026-05-03T07:15:11.947Z</time></trkpt><trkpt lat="45.37658510981648" lon="9.964418859293321"><ele>74.2</ele><time>2026-05-03T07:15:13.947Z</time></trkpt><trkpt lat="45.37661537639936" lon="9.96427624918204"><ele>74.0</ele><time>2026-05-03T07:15:15.947Z</time></trkpt><trkpt lat="45.376637595106914" lon="9.964135991126138"><ele>74.0</ele><time>2026-05-03T07:15:17.947Z</time></trkpt><trkpt lat="45.37665505672954" lon="9.964006096532215"><ele>74.0</ele><time>2026-05-03T07:15:19.947Z</time></trkpt><trkpt lat="45.376658671695886" lon="9.96387054617295"><ele>74.0</ele><time>2026-05-03T07:15:21.947Z</time></trkpt><trkpt lat="45.37668859305107" lon="9.963758624943845"><ele>74.0</ele><time>2026-05-03T07:15:23.947Z</time></trkpt><trkpt lat="45.376777804203975" lon="9.963710549284977"><ele>74.0</ele><time>2026-05-03T07:15:25.947Z</time></trkpt><trkpt lat="45.3768758749158" lon="9.963736132179468"><ele>74.0</ele><time>2026-05-03T07:15:27.947Z</time></trkpt><trkpt lat="45.376966596512226" lon="9.96376520161506"><ele>74.0</ele><time>2026-05-03T07:15:29.947Z</time></trkpt><trkpt lat="45.37707006088679" lon="9.963782968981892"><ele>74.0</ele><time>2026-05-03T07:15:31.947Z</time></trkpt><trkpt lat="45.377168499972306" lon="9.963790073279279"><ele>74.0</ele><time>2026-05-03T07:15:33.947Z</time></trkpt><trkpt lat="45.377253439033126" lon="9.963759167655335"><ele>74.0</ele><time>2026-05-03T07:15:35.947Z</time></trkpt><trkpt lat="45.37732886294174" lon="9.963690698079516"><ele>74.2</ele><time>2026-05-03T07:15:37.947Z</time></trkpt><trkpt lat="45.377423095612535" lon="9.963624006545938"><ele>74.4</ele><time>2026-05-03T07:15:39.947Z</time></trkpt><trkpt lat="45.37751535843016" lon="9.963575816437132"><ele>74.6</ele><time>2026-05-03T07:15:41.947Z</time></trkpt><trkpt lat="45.3776153907613" lon="9.96357873416698"><ele>74.8</ele><time>2026-05-03T07:15:43.947Z</time></trkpt><trkpt lat="45.37770566418624" lon="9.96363316567588"><ele>75.0</ele><time>2026-05-03T07:15:45.947Z</time></trkpt><trkpt lat="45.37777615224148" lon="9.963716186235194"><ele>75.0</ele><time>2026-05-03T07:15:47.946Z</time></trkpt><trkpt lat="45.377821759201396" lon="9.963812267938009"><ele>75.0</ele><time>2026-05-03T07:15:49.946Z</time></trkpt><trkpt lat="45.37782951776634" lon="9.963956473416989"><ele>75.0</ele><time>2026-05-03T07:15:51.946Z</time></trkpt><trkpt lat="45.37778757073091" lon="9.964083635915024"><ele>75.0</ele><time>2026-05-03T07:15:53.946Z</time></trkpt><trkpt lat="45.3777308610832" lon="9.964213784116632"><ele>75.0</ele><time>2026-05-03T07:15:55.946Z</time></trkpt><trkpt lat="45.377661686630304" lon="9.964333527604945"><ele>75.2</ele><time>2026-05-03T07:15:57.946Z</time></trkpt><trkpt lat="45.3776079630824" lon="9.964451267912123"><ele>75.4</ele><time>2026-05-03T07:15:59.946Z</time></trkpt><trkpt lat="45.37754964914082" lon="9.96458801093515"><ele>75.6</ele><time>2026-05-03T07:16:01.946Z</time></trkpt><trkpt lat="45.37749316684798" lon="9.96473539780903"><ele>75.8</ele><time>2026-05-03T07:16:03.946Z</time></trkpt><trkpt lat="45.37743875475911" lon="9.964871189153834"><ele>76.0</ele><time>2026-05-03T07:16:05.946Z</time></trkpt><trkpt lat="45.37743726910218" lon="9.96502558675186"><ele>75.6</ele><time>2026-05-03T07:16:07.946Z</time></trkpt><trkpt lat="45.37743922736459" lon="9.965174428145568"><ele>75.19999999999999</ele><time>2026-05-03T07:16:09.946Z</time></trkpt><trkpt lat="45.377429435643926" lon="9.965329176220738"><ele>74.80000000000001</ele><time>2026-05-03T07:16:11.946Z</time></trkpt><trkpt lat="45.37740489978079" lon="9.965477738584584"><ele>74.4</ele><time>2026-05-03T07:16:13.946Z</time></trkpt><trkpt lat="45.377383615204224" lon="9.9656398034361"><ele>74.0</ele><time>2026-05-03T07:16:15.946Z</time></trkpt><trkpt lat="45.37735905672176" lon="9.965814897937898"><ele>74.0</ele><time>2026-05-03T07:16:17.946Z</time></trkpt><trkpt lat="45.37733484480355" lon="9.965980654291798"><ele>74.0</ele><time>2026-05-03T07:16:19.946Z</time></trkpt><trkpt lat="45.37731333530464" lon="9.966148275571165"><ele>74.0</ele><time>2026-05-03T07:16:21.946Z</time></trkpt><trkpt lat="45.377293178716315" lon="9.966311096475337"><ele>74.0</ele><time>2026-05-03T07:16:23.946Z</time></trkpt><trkpt lat="45.377273562850746" lon="9.966472399162768"><ele>74.0</ele><time>2026-05-03T07:16:25.946Z</time></trkpt><trkpt lat="45.37725636839901" lon="9.966621155572849"><ele>74.0</ele><time>2026-05-03T07:16:27.945Z</time></trkpt><trkpt lat="45.3772436339153" lon="9.966769647094242"><ele>74.0</ele><time>2026-05-03T07:16:29.945Z</time></trkpt><trkpt lat="45.37722297481167" lon="9.966908877387542"><ele>74.0</ele><time>2026-05-03T07:16:31.945Z</time></trkpt><trkpt lat="45.37722491668973" lon="9.967045403874964"><ele>74.0</ele><time>2026-05-03T07:16:33.945Z</time></trkpt><trkpt lat="45.37728623555613" lon="9.967167695464934"><ele>73.8</ele><time>2026-05-03T07:16:35.945Z</time></trkpt><trkpt lat="45.37738079932316" lon="9.967230326414724"><ele>73.60000000000001</ele><time>2026-05-03T07:16:37.945Z</time></trkpt><trkpt lat="45.377488606945434" lon="9.967255952170282"><ele>73.4</ele><time>2026-05-03T07:16:39.945Z</time></trkpt><trkpt lat="45.37759501058506" lon="9.96728811216373"><ele>73.2</ele><time>2026-05-03T07:16:41.945Z</time></trkpt><trkpt lat="45.377700187965054" lon="9.967321608329714"><ele>73.0</ele><time>2026-05-03T07:16:43.945Z</time></trkpt><trkpt lat="45.3778077597987" lon="9.96734741617332"><ele>73.0</ele><time>2026-05-03T07:16:45.945Z</time></trkpt><trkpt lat="45.377912526716905" lon="9.967382703157492"><ele>73.0</ele><time>2026-05-03T07:16:47.945Z</time></trkpt><trkpt lat="45.378017481661246" lon="9.967414950797146"><ele>73.0</ele><time>2026-05-03T07:16:49.945Z</time></trkpt><trkpt lat="45.378121099435745" lon="9.96744592778353"><ele>73.0</ele><time>2026-05-03T07:16:51.945Z</time></trkpt><trkpt lat="45.37822517453687" lon="9.967475773995652"><ele>73.0</ele><time>2026-05-03T07:16:53.945Z</time></trkpt><trkpt lat="45.37832877661788" lon="9.967508545879536"><ele>73.6</ele><time>2026-05-03T07:16:55.945Z</time></trkpt><trkpt lat="45.378430780124354" lon="9.967538501675705"><ele>74.19999999999999</ele><time>2026-05-03T07:16:57.946Z</time></trkpt><trkpt lat="45.378533443196325" lon="9.96756758820256"><ele>74.8</ele><time>2026-05-03T07:16:59.946Z</time></trkpt><trkpt lat="45.37863476207834" lon="9.9675975726253"><ele>75.39999999999999</ele><time>2026-05-03T07:17:01.945Z</time></trkpt><trkpt lat="45.37873995880933" lon="9.967625812037774"><ele>76.0</ele><time>2026-05-03T07:17:03.946Z</time></trkpt><trkpt lat="45.37884273915749" lon="9.96766485432384"><ele>75.6</ele><time>2026-05-03T07:17:05.946Z</time></trkpt><trkpt lat="45.37894834984763" lon="9.96769945835015"><ele>75.19999999999999</ele><time>2026-05-03T07:17:07.946Z</time></trkpt><trkpt lat="45.3790482942549" lon="9.96773833502718"><ele>74.80000000000001</ele><time>2026-05-03T07:17:09.945Z</time></trkpt><trkpt lat="45.37915106292748" lon="9.967774280451628"><ele>74.4</ele><time>2026-05-03T07:17:11.945Z</time></trkpt><trkpt lat="45.37925242541656" lon="9.967813144635642"><ele>74.0</ele><time>2026-05-03T07:17:13.945Z</time></trkpt><trkpt lat="45.37935056774634" lon="9.967855061591422"><ele>74.0</ele><time>2026-05-03T07:17:15.945Z</time></trkpt><trkpt lat="45.379452857572794" lon="9.967887834237063"><ele>74.0</ele><time>2026-05-03T07:17:17.945Z</time></trkpt><trkpt lat="45.379550258792676" lon="9.96792725847466"><ele>74.0</ele><time>2026-05-03T07:17:19.945Z</time></trkpt><trkpt lat="45.37964865521969" lon="9.967958115163443"><ele>74.0</ele><time>2026-05-03T07:17:21.945Z</time></trkpt><trkpt lat="45.37974548227595" lon="9.967993404724531"><ele>74.0</ele><time>2026-05-03T07:17:23.945Z</time></trkpt><trkpt lat="45.379840225733844" lon="9.96802457367478"><ele>74.0</ele><time>2026-05-03T07:17:25.945Z</time></trkpt><trkpt lat="45.379942260390045" lon="9.968067161218942"><ele>74.0</ele><time>2026-05-03T07:17:27.945Z</time></trkpt><trkpt lat="45.3800456198853" lon="9.968103402608266"><ele>74.0</ele><time>2026-05-03T07:17:29.945Z</time></trkpt><trkpt lat="45.38014559673135" lon="9.968140179104406"><ele>74.0</ele><time>2026-05-03T07:17:31.945Z</time></trkpt><trkpt lat="45.38024311392751" lon="9.968176760350824"><ele>74.0</ele><time>2026-05-03T07:17:33.945Z</time></trkpt><trkpt lat="45.38031819734794" lon="9.968259011173338"><ele>74.2</ele><time>2026-05-03T07:17:35.945Z</time></trkpt><trkpt lat="45.38034247165097" lon="9.968386916683489"><ele>74.4</ele><time>2026-05-03T07:17:37.945Z</time></trkpt><trkpt lat="45.380304330541875" lon="9.9685169430468"><ele>74.6</ele><time>2026-05-03T07:17:39.945Z</time></trkpt><trkpt lat="45.380263076295876" lon="9.968645681837577"><ele>74.8</ele><time>2026-05-03T07:17:41.945Z</time></trkpt><trkpt lat="45.38023951372358" lon="9.968758627507473"><ele>75.0</ele><time>2026-05-03T07:17:43.945Z</time></trkpt><trkpt lat="45.38020758430788" lon="9.968897724470928"><ele>75.0</ele><time>2026-05-03T07:17:45.945Z</time></trkpt><trkpt lat="45.3801724007276" lon="9.969038034364099"><ele>75.0</ele><time>2026-05-03T07:17:47.945Z</time></trkpt><trkpt lat="45.380139754919206" lon="9.969176924039695"><ele>75.0</ele><time>2026-05-03T07:17:49.944Z</time></trkpt><trkpt lat="45.38011281653053" lon="9.969319494877986"><ele>75.0</ele><time>2026-05-03T07:17:51.944Z</time></trkpt><trkpt lat="45.38008297930073" lon="9.969456325516438"><ele>75.0</ele><time>2026-05-03T07:17:53.944Z</time></trkpt><trkpt lat="45.38005596900945" lon="9.96958928121528"><ele>75.0</ele><time>2026-05-03T07:17:55.944Z</time></trkpt><trkpt lat="45.38002691997737" lon="9.969729973831305"><ele>75.0</ele><time>2026-05-03T07:17:57.944Z</time></trkpt><trkpt lat="45.38000047265746" lon="9.969871783831273"><ele>75.0</ele><time>2026-05-03T07:17:59.944Z</time></trkpt><trkpt lat="45.37997069078061" lon="9.970007979461165"><ele>75.0</ele><time>2026-05-03T07:18:01.944Z</time></trkpt><trkpt lat="45.37994554092372" lon="9.970154700172765"><ele>75.0</ele><time>2026-05-03T07:18:03.944Z</time></trkpt><trkpt lat="45.37991672015418" lon="9.970297358678419"><ele>75.0</ele><time>2026-05-03T07:18:05.944Z</time></trkpt><trkpt lat="45.379888142873035" lon="9.970433134660174"><ele>75.0</ele><time>2026-05-03T07:18:07.944Z</time></trkpt><trkpt lat="45.37985998862025" lon="9.970580816151104"><ele>75.0</ele><time>2026-05-03T07:18:09.944Z</time></trkpt><trkpt lat="45.37983201432648" lon="9.970725652753018"><ele>75.0</ele><time>2026-05-03T07:18:11.944Z</time></trkpt><trkpt lat="45.37980545767897" lon="9.970860863275556"><ele>75.0</ele><time>2026-05-03T07:18:13.944Z</time></trkpt><trkpt lat="45.37979501890021" lon="9.971004390383893"><ele>74.8</ele><time>2026-05-03T07:18:15.944Z</time></trkpt><trkpt lat="45.379830061590845" lon="9.971124171628606"><ele>74.6</ele><time>2026-05-03T07:18:17.944Z</time></trkpt><trkpt lat="45.37990889632861" lon="9.971195311540285"><ele>74.4</ele><time>2026-05-03T07:18:19.944Z</time></trkpt><trkpt lat="45.38001364359923" lon="9.97123125051889"><ele>74.2</ele><time>2026-05-03T07:18:21.944Z</time></trkpt><trkpt lat="45.38011604995476" lon="9.971268068117649"><ele>74.0</ele><time>2026-05-03T07:18:23.944Z</time></trkpt><trkpt lat="45.380212271167906" lon="9.971308027782582"><ele>74.0</ele><time>2026-05-03T07:18:25.944Z</time></trkpt><trkpt lat="45.380314396678514" lon="9.97134416076855"><ele>74.0</ele><time>2026-05-03T07:18:27.944Z</time></trkpt><trkpt lat="45.380416945720555" lon="9.971367267129736"><ele>74.0</ele><time>2026-05-03T07:18:29.944Z</time></trkpt><trkpt lat="45.380517997262835" lon="9.971399298065835"><ele>74.0</ele><time>2026-05-03T07:18:31.943Z</time></trkpt><trkpt lat="45.38061873424361" lon="9.97143312005489"><ele>74.0</ele><time>2026-05-03T07:18:33.943Z</time></trkpt><trkpt lat="45.380716268553726" lon="9.971466781641926"><ele>74.2</ele><time>2026-05-03T07:18:35.943Z</time></trkpt><trkpt lat="45.38082134589777" lon="9.971498612101147"><ele>74.4</ele><time>2026-05-03T07:18:37.943Z</time></trkpt><trkpt lat="45.38092379040613" lon="9.971530780071877"><ele>74.6</ele><time>2026-05-03T07:18:39.943Z</time></trkpt><trkpt lat="45.381023093893134" lon="9.971561063289634"><ele>74.8</ele><time>2026-05-03T07:18:41.943Z</time></trkpt><trkpt lat="45.38112806301027" lon="9.971593573603643"><ele>75.0</ele><time>2026-05-03T07:18:43.944Z</time></trkpt><trkpt lat="45.38122881540218" lon="9.971626978977765"><ele>75.0</ele><time>2026-05-03T07:18:45.945Z</time></trkpt><trkpt lat="45.38133069721523" lon="9.971658632498492"><ele>75.0</ele><time>2026-05-03T07:18:47.946Z</time></trkpt><trkpt lat="45.381438880959806" lon="9.97168807160068"><ele>75.0</ele><time>2026-05-03T07:18:49.947Z</time></trkpt><trkpt lat="45.38154260114402" lon="9.971717755652822"><ele>75.0</ele><time>2026-05-03T07:18:51.947Z</time></trkpt><trkpt lat="45.38164436598371" lon="9.971750574257966"><ele>75.0</ele><time>2026-05-03T07:18:53.948Z</time></trkpt><trkpt lat="45.381744287608846" lon="9.971784094392847"><ele>75.2</ele><time>2026-05-03T07:18:55.948Z</time></trkpt><trkpt lat="45.38184777793207" lon="9.971809979886155"><ele>75.4</ele><time>2026-05-03T07:18:57.949Z</time></trkpt><trkpt lat="45.381948863263666" lon="9.971833448455005"><ele>75.6</ele><time>2026-05-03T07:18:59.949Z</time></trkpt><trkpt lat="45.38204740592068" lon="9.971845133125955"><ele>75.8</ele><time>2026-05-03T07:19:01.95Z</time></trkpt><trkpt lat="45.3821446738498" lon="9.971853679008557"><ele>76.0</ele><time>2026-05-03T07:19:03.951Z</time></trkpt><trkpt lat="45.38224634858963" lon="9.971871656835928"><ele>76.2</ele><time>2026-05-03T07:19:05.951Z</time></trkpt><trkpt lat="45.382346914966014" lon="9.971887157409359"><ele>76.39999999999999</ele><time>2026-05-03T07:19:07.951Z</time></trkpt><trkpt lat="45.38244674662936" lon="9.971899451352288"><ele>76.6</ele><time>2026-05-03T07:19:09.951Z</time></trkpt><trkpt lat="45.38254650066458" lon="9.971917503554641"><ele>76.8</ele><time>2026-05-03T07:19:11.952Z</time></trkpt><trkpt lat="45.38264793085329" lon="9.971933342916989"><ele>77.0</ele><time>2026-05-03T07:19:13.952Z</time></trkpt><trkpt lat="45.382744675837415" lon="9.971943078467557"><ele>77.0</ele><time>2026-05-03T07:19:15.952Z</time></trkpt><trkpt lat="45.382845256819785" lon="9.97195082939061"><ele>77.0</ele><time>2026-05-03T07:19:17.952Z</time></trkpt><trkpt lat="45.38294713412407" lon="9.971976982538841"><ele>77.0</ele><time>2026-05-03T07:19:19.952Z</time></trkpt><trkpt lat="45.383041085289356" lon="9.971993329248047"><ele>77.0</ele><time>2026-05-03T07:19:21.953Z</time></trkpt><trkpt lat="45.38313403057322" lon="9.97200953280439"><ele>77.0</ele><time>2026-05-03T07:19:23.953Z</time></trkpt><trkpt lat="45.38322560784932" lon="9.972029958824542"><ele>77.0</ele><time>2026-05-03T07:19:25.953Z</time></trkpt><trkpt lat="45.383312201951696" lon="9.972005049451894"><ele>77.0</ele><time>2026-05-03T07:19:27.953Z</time></trkpt><trkpt lat="45.38337862928871" lon="9.971911313608128"><ele>77.0</ele><time>2026-05-03T07:19:29.953Z</time></trkpt><trkpt lat="45.38339313748647" lon="9.971768974251948"><ele>77.0</ele><time>2026-05-03T07:19:31.953Z</time></trkpt><trkpt lat="45.38339443612395" lon="9.971624905614455"><ele>77.0</ele><time>2026-05-03T07:19:33.953Z</time></trkpt><trkpt lat="45.38339842399652" lon="9.971474803605407"><ele>76.8</ele><time>2026-05-03T07:19:35.953Z</time></trkpt><trkpt lat="45.383414961609475" lon="9.971325305468536"><ele>76.6</ele><time>2026-05-03T07:19:37.953Z</time></trkpt><trkpt lat="45.383433382989196" lon="9.971180418949027"><ele>76.39999999999999</ele><time>2026-05-03T07:19:39.953Z</time></trkpt><trkpt lat="45.38345199198107" lon="9.971031120011377"><ele>76.2</ele><time>2026-05-03T07:19:41.953Z</time></trkpt><trkpt lat="45.383479370327706" lon="9.970884924690322"><ele>76.0</ele><time>2026-05-03T07:19:43.953Z</time></trkpt><trkpt lat="45.383510414507256" lon="9.970737558765942"><ele>76.0</ele><time>2026-05-03T07:19:45.953Z</time></trkpt><trkpt lat="45.38354705409018" lon="9.97058655963961"><ele>76.0</ele><time>2026-05-03T07:19:47.953Z</time></trkpt><trkpt lat="45.383586257414116" lon="9.970439203739275"><ele>76.0</ele><time>2026-05-03T07:19:49.953Z</time></trkpt><trkpt lat="45.38363658731649" lon="9.970305736224836"><ele>76.0</ele><time>2026-05-03T07:19:51.953Z</time></trkpt><trkpt lat="45.383696805455216" lon="9.970169607662744"><ele>76.0</ele><time>2026-05-03T07:19:53.952Z</time></trkpt><trkpt lat="45.38376234569721" lon="9.970035710917472"><ele>76.0</ele><time>2026-05-03T07:19:55.952Z</time></trkpt><trkpt lat="45.38382200813687" lon="9.969906705436122"><ele>76.0</ele><time>2026-05-03T07:19:57.952Z</time></trkpt><trkpt lat="45.38387462478004" lon="9.96977780756017"><ele>76.0</ele><time>2026-05-03T07:19:59.952Z</time></trkpt><trkpt lat="45.38392925836763" lon="9.969653700435563"><ele>76.0</ele><time>2026-05-03T07:20:01.952Z</time></trkpt><trkpt lat="45.38396536077134" lon="9.969513175130128"><ele>76.0</ele><time>2026-05-03T07:20:03.952Z</time></trkpt><trkpt lat="45.38400097921448" lon="9.969364579747303"><ele>76.0</ele><time>2026-05-03T07:20:05.952Z</time></trkpt><trkpt lat="45.384039014332174" lon="9.969224568058895"><ele>76.0</ele><time>2026-05-03T07:20:07.952Z</time></trkpt><trkpt lat="45.38406657715987" lon="9.969083078663322"><ele>76.0</ele><time>2026-05-03T07:20:09.952Z</time></trkpt><trkpt lat="45.384109803537044" lon="9.968948929177083"><ele>76.0</ele><time>2026-05-03T07:20:11.952Z</time></trkpt><trkpt lat="45.384145261856276" lon="9.968827880957823"><ele>76.0</ele><time>2026-05-03T07:20:13.952Z</time></trkpt><trkpt lat="45.38419324861733" lon="9.968689369058344"><ele>75.8</ele><time>2026-05-03T07:20:15.952Z</time></trkpt><trkpt lat="45.38427229632701" lon="9.96860563443144"><ele>75.6</ele><time>2026-05-03T07:20:17.952Z</time></trkpt><trkpt lat="45.384375685311035" lon="9.968579753344683"><ele>75.4</ele><time>2026-05-03T07:20:19.952Z</time></trkpt><trkpt lat="45.384477201119914" lon="9.968595024361736"><ele>75.2</ele><time>2026-05-03T07:20:21.952Z</time></trkpt><trkpt lat="45.38458120384312" lon="9.968600674729954"><ele>75.0</ele><time>2026-05-03T07:20:23.952Z</time></trkpt><trkpt lat="45.3846833440912" lon="9.968609361916931"><ele>75.4</ele><time>2026-05-03T07:20:25.952Z</time></trkpt><trkpt lat="45.38478484586271" lon="9.96860822899301"><ele>75.8</ele><time>2026-05-03T07:20:27.952Z</time></trkpt><trkpt lat="45.38488497127175" lon="9.968613380227062"><ele>76.2</ele><time>2026-05-03T07:20:29.952Z</time></trkpt><trkpt lat="45.38498359188776" lon="9.96861579729415"><ele>76.6</ele><time>2026-05-03T07:20:31.952Z</time></trkpt><trkpt lat="45.385081050079044" lon="9.968616032223327"><ele>77.0</ele><time>2026-05-03T07:20:33.952Z</time></trkpt><trkpt lat="45.38519237387316" lon="9.968624436194425"><ele>77.0</ele><time>2026-05-03T07:20:35.952Z</time></trkpt><trkpt lat="45.38529441561083" lon="9.968628264578452"><ele>77.0</ele><time>2026-05-03T07:20:37.952Z</time></trkpt><trkpt lat="45.385397007206336" lon="9.968625159296572"><ele>77.0</ele><time>2026-05-03T07:20:39.952Z</time></trkpt><trkpt lat="45.38549636413201" lon="9.968624945997394"><ele>77.0</ele><time>2026-05-03T07:20:41.952Z</time></trkpt><trkpt lat="45.38560846194297" lon="9.968636245120926"><ele>77.0</ele><time>2026-05-03T07:20:43.951Z</time></trkpt><trkpt lat="45.38571496719351" lon="9.968653657391235"><ele>76.8</ele><time>2026-05-03T07:20:45.951Z</time></trkpt><trkpt lat="45.38581850868716" lon="9.968673272766324"><ele>76.6</ele><time>2026-05-03T07:20:47.951Z</time></trkpt><trkpt lat="45.38592182851853" lon="9.968691627405372"><ele>76.39999999999999</ele><time>2026-05-03T07:20:49.951Z</time></trkpt><trkpt lat="45.386026531447186" lon="9.968716172787403"><ele>76.2</ele><time>2026-05-03T07:20:51.951Z</time></trkpt><trkpt lat="45.386124320104" lon="9.968742504210859"><ele>76.0</ele><time>2026-05-03T07:20:53.951Z</time></trkpt><trkpt lat="45.386229908330066" lon="9.968768153134862"><ele>76.0</ele><time>2026-05-03T07:20:55.951Z</time></trkpt><trkpt lat="45.386333911843806" lon="9.968794780845148"><ele>76.0</ele><time>2026-05-03T07:20:57.951Z</time></trkpt><trkpt lat="45.38643559084367" lon="9.96881106621564"><ele>76.0</ele><time>2026-05-03T07:20:59.951Z</time></trkpt><trkpt lat="45.38653521922978" lon="9.968820239178198"><ele>76.0</ele><time>2026-05-03T07:21:01.951Z</time></trkpt><trkpt lat="45.386635430674616" lon="9.968840874989748"><ele>76.0</ele><time>2026-05-03T07:21:03.951Z</time></trkpt><trkpt lat="45.3867347118065" lon="9.968850550245408"><ele>75.8</ele><time>2026-05-03T07:21:05.951Z</time></trkpt><trkpt lat="45.38683306622844" lon="9.968851843700731"><ele>75.6</ele><time>2026-05-03T07:21:07.952Z</time></trkpt><trkpt lat="45.38692014107256" lon="9.968797853215033"><ele>75.4</ele><time>2026-05-03T07:21:09.952Z</time></trkpt><trkpt lat="45.38696540006249" lon="9.9686751393287"><ele>75.2</ele><time>2026-05-03T07:21:11.952Z</time></trkpt><trkpt lat="45.38698745140741" lon="9.968528826595223"><ele>75.0</ele><time>2026-05-03T07:21:13.951Z</time></trkpt><trkpt lat="45.387013668403604" lon="9.96838546847073"><ele>75.2</ele><time>2026-05-03T07:21:15.952Z</time></trkpt><trkpt lat="45.38703710855616" lon="9.968238550485864"><ele>75.4</ele><time>2026-05-03T07:21:17.951Z</time></trkpt><trkpt lat="45.387063846031424" lon="9.968096708143843"><ele>75.6</ele><time>2026-05-03T07:21:19.952Z</time></trkpt><trkpt lat="45.38708784782102" lon="9.96795518519579"><ele>75.8</ele><time>2026-05-03T07:21:21.952Z</time></trkpt><trkpt lat="45.387108114093024" lon="9.967811807646878"><ele>76.0</ele><time>2026-05-03T07:21:23.951Z</time></trkpt><trkpt lat="45.38713782593873" lon="9.96766427797431"><ele>75.8</ele><time>2026-05-03T07:21:25.951Z</time></trkpt><trkpt lat="45.38716631446696" lon="9.967514529998553"><ele>75.6</ele><time>2026-05-03T07:21:27.951Z</time></trkpt><trkpt lat="45.38719241433375" lon="9.967363024866653"><ele>75.4</ele><time>2026-05-03T07:21:29.951Z</time></trkpt><trkpt lat="45.3872159180607" lon="9.96720823100978"><ele>75.2</ele><time>2026-05-03T07:21:31.951Z</time></trkpt><trkpt lat="45.38724250921939" lon="9.96705964088065"><ele>75.0</ele><time>2026-05-03T07:21:33.951Z</time></trkpt><trkpt lat="45.38727082111892" lon="9.966909362764168"><ele>75.0</ele><time>2026-05-03T07:21:35.951Z</time></trkpt><trkpt lat="45.38729426291571" lon="9.966759524625912"><ele>75.0</ele><time>2026-05-03T07:21:37.951Z</time></trkpt><trkpt lat="45.38731795935147" lon="9.966604876052559"><ele>75.0</ele><time>2026-05-03T07:21:39.951Z</time></trkpt><trkpt lat="45.38734649020807" lon="9.96644523090485"><ele>75.0</ele><time>2026-05-03T07:21:41.951Z</time></trkpt><trkpt lat="45.38737702397753" lon="9.966288055727274"><ele>75.0</ele><time>2026-05-03T07:21:43.951Z</time></trkpt><trkpt lat="45.387400366792235" lon="9.9661304716232"><ele>75.2</ele><time>2026-05-03T07:21:45.951Z</time></trkpt><trkpt lat="45.3874230142026" lon="9.9659735353863"><ele>75.4</ele><time>2026-05-03T07:21:47.951Z</time></trkpt><trkpt lat="45.38743716493092" lon="9.96582867459614"><ele>75.6</ele><time>2026-05-03T07:21:49.951Z</time></trkpt><trkpt lat="45.38744133771289" lon="9.965690296667649"><ele>75.8</ele><time>2026-05-03T07:21:51.951Z</time></trkpt><trkpt lat="45.387453906285046" lon="9.965546987384249"><ele>76.0</ele><time>2026-05-03T07:21:53.951Z</time></trkpt><trkpt lat="45.38746332638998" lon="9.965384730955332"><ele>76.2</ele><time>2026-05-03T07:21:55.951Z</time></trkpt><trkpt lat="45.38749160248388" lon="9.965227483268993"><ele>76.39999999999999</ele><time>2026-05-03T07:21:57.951Z</time></trkpt><trkpt lat="45.38755137178822" lon="9.965091825798966"><ele>76.6</ele><time>2026-05-03T07:21:59.951Z</time></trkpt><trkpt lat="45.38765164548513" lon="9.965025322318361"><ele>76.8</ele><time>2026-05-03T07:22:01.951Z</time></trkpt><trkpt lat="45.387760458288554" lon="9.965039183246631"><ele>77.0</ele><time>2026-05-03T07:22:03.951Z</time></trkpt><trkpt lat="45.38786327533198" lon="9.965075528449393"><ele>77.0</ele><time>2026-05-03T07:22:05.951Z</time></trkpt><trkpt lat="45.387965826689566" lon="9.96511136339683"><ele>77.0</ele><time>2026-05-03T07:22:07.951Z</time></trkpt><trkpt lat="45.38806946480898" lon="9.965145912030701"><ele>77.0</ele><time>2026-05-03T07:22:09.95Z</time></trkpt><trkpt lat="45.38817153016935" lon="9.965179376999592"><ele>77.0</ele><time>2026-05-03T07:22:11.95Z</time></trkpt><trkpt lat="45.38827488328039" lon="9.965210889431365"><ele>77.0</ele><time>2026-05-03T07:22:13.95Z</time></trkpt><trkpt lat="45.38837510521223" lon="9.965240886266113"><ele>76.8</ele><time>2026-05-03T07:22:15.95Z</time></trkpt><trkpt lat="45.38847317471354" lon="9.965277322975439"><ele>76.6</ele><time>2026-05-03T07:22:17.95Z</time></trkpt><trkpt lat="45.388572321461716" lon="9.96530951033208"><ele>76.39999999999999</ele><time>2026-05-03T07:22:19.95Z</time></trkpt><trkpt lat="45.38867316652935" lon="9.965343177369837"><ele>76.2</ele><time>2026-05-03T07:22:21.95Z</time></trkpt><trkpt lat="45.38877260158803" lon="9.965376517029894"><ele>76.0</ele><time>2026-05-03T07:22:23.95Z</time></trkpt><trkpt lat="45.38887405784731" lon="9.96541634875076"><ele>75.6</ele><time>2026-05-03T07:22:25.95Z</time></trkpt><trkpt lat="45.388973712468825" lon="9.965457902101539"><ele>75.19999999999999</ele><time>2026-05-03T07:22:27.95Z</time></trkpt><trkpt lat="45.389069698938144" lon="9.965507178581534"><ele>74.80000000000001</ele><time>2026-05-03T07:22:29.95Z</time></trkpt><trkpt lat="45.38916208428057" lon="9.96556828420948"><ele>74.4</ele><time>2026-05-03T07:22:31.95Z</time></trkpt><trkpt lat="45.38925109687884" lon="9.965640226833116"><ele>74.0</ele><time>2026-05-03T07:22:33.95Z</time></trkpt><trkpt lat="45.38934003092696" lon="9.965706695600312"><ele>74.0</ele><time>2026-05-03T07:22:35.95Z</time></trkpt><trkpt lat="45.38941920629494" lon="9.965791756619776"><ele>74.0</ele><time>2026-05-03T07:22:37.95Z</time></trkpt><trkpt lat="45.38950082540288" lon="9.965872461737758"><ele>74.0</ele><time>2026-05-03T07:22:39.95Z</time></trkpt><trkpt lat="45.38958268274736" lon="9.965957608737293"><ele>74.0</ele><time>2026-05-03T07:22:41.95Z</time></trkpt><trkpt lat="45.38965724657174" lon="9.96605296734079"><ele>74.0</ele><time>2026-05-03T07:22:43.95Z</time></trkpt><trkpt lat="45.38972815484278" lon="9.96615570534903"><ele>74.4</ele><time>2026-05-03T07:22:45.95Z</time></trkpt><trkpt lat="45.389797116136336" lon="9.966265885612614"><ele>74.80000000000001</ele><time>2026-05-03T07:22:47.95Z</time></trkpt><trkpt lat="45.38985812268774" lon="9.966374766816367"><ele>75.19999999999999</ele><time>2026-05-03T07:22:49.95Z</time></trkpt><trkpt lat="45.38991903062534" lon="9.966480846358929"><ele>75.6</ele><time>2026-05-03T07:22:51.95Z</time></trkpt><trkpt lat="45.38997893175023" lon="9.966590585221898"><ele>76.0</ele><time>2026-05-03T07:22:53.95Z</time></trkpt><trkpt lat="45.39005213183068" lon="9.966699134666177"><ele>76.0</ele><time>2026-05-03T07:22:55.949Z</time></trkpt><trkpt lat="45.39012711792492" lon="9.966791527329349"><ele>76.0</ele><time>2026-05-03T07:22:57.949Z</time></trkpt><trkpt lat="45.390215124996764" lon="9.966864257113887"><ele>76.0</ele><time>2026-05-03T07:22:59.949Z</time></trkpt><trkpt lat="45.39031345586002" lon="9.96691375387916"><ele>76.0</ele><time>2026-05-03T07:23:01.949Z</time></trkpt><trkpt lat="45.390408273687775" lon="9.966955442146686"><ele>76.0</ele><time>2026-05-03T07:23:03.949Z</time></trkpt><trkpt lat="45.39050257818485" lon="9.966995096941776"><ele>75.8</ele><time>2026-05-03T07:23:05.949Z</time></trkpt><trkpt lat="45.39060104927128" lon="9.967027427916564"><ele>75.6</ele><time>2026-05-03T07:23:07.949Z</time></trkpt><trkpt lat="45.390699124580934" lon="9.967055019098202"><ele>75.4</ele><time>2026-05-03T07:23:09.949Z</time></trkpt><trkpt lat="45.390803550902724" lon="9.967077872498216"><ele>75.2</ele><time>2026-05-03T07:23:11.949Z</time></trkpt><trkpt lat="45.39090515976636" lon="9.967100593487196"><ele>75.0</ele><time>2026-05-03T07:23:13.95Z</time></trkpt><trkpt lat="45.39100767050305" lon="9.967121649511055"><ele>75.0</ele><time>2026-05-03T07:23:15.95Z</time></trkpt><trkpt lat="45.391110549414535" lon="9.967138430984976"><ele>75.0</ele><time>2026-05-03T07:23:17.95Z</time></trkpt><trkpt lat="45.39121645081754" lon="9.967152336575783"><ele>75.0</ele><time>2026-05-03T07:23:19.95Z</time></trkpt><trkpt lat="45.391317395468214" lon="9.967175947650695"><ele>75.0</ele><time>2026-05-03T07:23:21.95Z</time></trkpt><trkpt lat="45.39141765979686" lon="9.96719485551384"><ele>75.0</ele><time>2026-05-03T07:23:23.95Z</time></trkpt><trkpt lat="45.39152188619584" lon="9.96720794742821"><ele>75.0</ele><time>2026-05-03T07:23:25.95Z</time></trkpt><trkpt lat="45.39162376711811" lon="9.967227558190185"><ele>75.0</ele><time>2026-05-03T07:23:27.95Z</time></trkpt><trkpt lat="45.391725943423886" lon="9.96724359643103"><ele>75.0</ele><time>2026-05-03T07:23:29.95Z</time></trkpt><trkpt lat="45.39182544017457" lon="9.967261636265796"><ele>75.0</ele><time>2026-05-03T07:23:31.95Z</time></trkpt><trkpt lat="45.39192651074902" lon="9.9672790129013"><ele>75.0</ele><time>2026-05-03T07:23:33.95Z</time></trkpt><trkpt lat="45.39203022093575" lon="9.967300122590167"><ele>75.0</ele><time>2026-05-03T07:23:35.95Z</time></trkpt><trkpt lat="45.39213315554625" lon="9.967315980940135"><ele>75.0</ele><time>2026-05-03T07:23:37.95Z</time></trkpt><trkpt lat="45.392239398943644" lon="9.967330059130319"><ele>75.0</ele><time>2026-05-03T07:23:39.95Z</time></trkpt><trkpt lat="45.39234272237903" lon="9.967346018403548"><ele>75.0</ele><time>2026-05-03T07:23:41.95Z</time></trkpt><trkpt lat="45.392445220449304" lon="9.967367801924432"><ele>75.0</ele><time>2026-05-03T07:23:43.95Z</time></trkpt><trkpt lat="45.392550854484526" lon="9.967383897752137"><ele>75.2</ele><time>2026-05-03T07:23:45.95Z</time></trkpt><trkpt lat="45.39265010926632" lon="9.96740969418088"><ele>75.4</ele><time>2026-05-03T07:23:47.95Z</time></trkpt><trkpt lat="45.392750300537784" lon="9.967434526692136"><ele>75.6</ele><time>2026-05-03T07:23:49.95Z</time></trkpt><trkpt lat="45.392852419814474" lon="9.967464525347054"><ele>75.8</ele><time>2026-05-03T07:23:51.95Z</time></trkpt><trkpt lat="45.39295013995232" lon="9.967495338342603"><ele>76.0</ele><time>2026-05-03T07:23:53.95Z</time></trkpt><trkpt lat="45.39304562169588" lon="9.96753049666953"><ele>76.2</ele><time>2026-05-03T07:23:55.95Z</time></trkpt><trkpt lat="45.39314255859389" lon="9.96756204477227"><ele>76.39999999999999</ele><time>2026-05-03T07:23:57.95Z</time></trkpt><trkpt lat="45.39323178698598" lon="9.967592612210558"><ele>76.6</ele><time>2026-05-03T07:23:59.95Z</time></trkpt><trkpt lat="45.393326810747375" lon="9.967617161726938"><ele>76.8</ele><time>2026-05-03T07:24:01.95Z</time></trkpt><trkpt lat="45.39342569501978" lon="9.96764689524715"><ele>77.0</ele><time>2026-05-03T07:24:03.95Z</time></trkpt><trkpt lat="45.393523495319094" lon="9.967675636728147"><ele>77.0</ele><time>2026-05-03T07:24:05.95Z</time></trkpt><trkpt lat="45.39362045698486" lon="9.96770466803106"><ele>77.0</ele><time>2026-05-03T07:24:07.95Z</time></trkpt><trkpt lat="45.393717291168926" lon="9.967737122542488"><ele>77.0</ele><time>2026-05-03T07:24:09.95Z</time></trkpt><trkpt lat="45.393816023039" lon="9.967756101497109"><ele>77.0</ele><time>2026-05-03T07:24:11.95Z</time></trkpt><trkpt lat="45.393913436764834" lon="9.967743069090094"><ele>77.0</ele><time>2026-05-03T07:24:13.949Z</time></trkpt><trkpt lat="45.39400171088764" lon="9.967678188840882"><ele>77.0</ele><time>2026-05-03T07:24:15.949Z</time></trkpt><trkpt lat="45.39408518557041" lon="9.967589424719694"><ele>77.0</ele><time>2026-05-03T07:24:17.949Z</time></trkpt><trkpt lat="45.394169198790294" lon="9.967526110228386"><ele>77.0</ele><time>2026-05-03T07:24:19.949Z</time></trkpt><trkpt lat="45.39425500861226" lon="9.967453760371146"><ele>77.0</ele><time>2026-05-03T07:24:21.949Z</time></trkpt><trkpt lat="45.39434458175509" lon="9.967370928081834"><ele>77.0</ele><time>2026-05-03T07:24:23.949Z</time></trkpt><trkpt lat="45.39442686275269" lon="9.967293512394281"><ele>77.0</ele><time>2026-05-03T07:24:25.949Z</time></trkpt><trkpt lat="45.39451191563348" lon="9.967215567898478"><ele>77.0</ele><time>2026-05-03T07:24:27.949Z</time></trkpt><trkpt lat="45.39459724907708" lon="9.967136058242671"><ele>77.0</ele><time>2026-05-03T07:24:29.949Z</time></trkpt><trkpt lat="45.394676794704964" lon="9.967054790880672"><ele>77.0</ele><time>2026-05-03T07:24:31.949Z</time></trkpt><trkpt lat="45.39476263759548" lon="9.966973172781564"><ele>77.0</ele><time>2026-05-03T07:24:33.949Z</time></trkpt><trkpt lat="45.394853046720186" lon="9.966902893116464"><ele>77.2</ele><time>2026-05-03T07:24:35.949Z</time></trkpt><trkpt lat="45.394954180105756" lon="9.96684136187405"><ele>77.4</ele><time>2026-05-03T07:24:37.949Z</time></trkpt><trkpt lat="45.395051361199314" lon="9.96678828035038"><ele>77.6</ele><time>2026-05-03T07:24:39.949Z</time></trkpt><trkpt lat="45.39514144914739" lon="9.966742565165843"><ele>77.8</ele><time>2026-05-03T07:24:41.949Z</time></trkpt><trkpt lat="45.39523579808868" lon="9.966692981191887"><ele>78.0</ele><time>2026-05-03T07:24:43.949Z</time></trkpt><trkpt lat="45.39532823518663" lon="9.966646018071364"><ele>78.0</ele><time>2026-05-03T07:24:45.949Z</time></trkpt><trkpt lat="45.395417228747924" lon="9.966598622197003"><ele>78.0</ele><time>2026-05-03T07:24:47.949Z</time></trkpt><trkpt lat="45.39551915249968" lon="9.96654821441594"><ele>78.0</ele><time>2026-05-03T07:24:49.949Z</time></trkpt><trkpt lat="45.39561129769646" lon="9.966499356180366"><ele>78.0</ele><time>2026-05-03T07:24:51.949Z</time></trkpt><trkpt lat="45.395708132518614" lon="9.966449923138779"><ele>78.0</ele><time>2026-05-03T07:24:53.949Z</time></trkpt><trkpt lat="45.3958040247583" lon="9.966400158184255"><ele>77.8</ele><time>2026-05-03T07:24:55.949Z</time></trkpt><trkpt lat="45.39590043718322" lon="9.966352586254395"><ele>77.6</ele><time>2026-05-03T07:24:57.949Z</time></trkpt><trkpt lat="45.39599937200642" lon="9.966303625344809"><ele>77.4</ele><time>2026-05-03T07:24:59.948Z</time></trkpt><trkpt lat="45.396096030771204" lon="9.966255031024396"><ele>77.2</ele><time>2026-05-03T07:25:01.948Z</time></trkpt><trkpt lat="45.396188617813486" lon="9.96619499653732"><ele>77.0</ele><time>2026-05-03T07:25:03.948Z</time></trkpt><trkpt lat="45.396281961512344" lon="9.966149750373992"><ele>77.2</ele><time>2026-05-03T07:25:05.948Z</time></trkpt><trkpt lat="45.3963753953099" lon="9.966102167412885"><ele>77.4</ele><time>2026-05-03T07:25:07.948Z</time></trkpt><trkpt lat="45.39647454339218" lon="9.966056866522731"><ele>77.6</ele><time>2026-05-03T07:25:09.948Z</time></trkpt><trkpt lat="45.396578379940586" lon="9.966027642883555"><ele>77.8</ele><time>2026-05-03T07:25:11.948Z</time></trkpt><trkpt lat="45.39668030454016" lon="9.966009242477666"><ele>78.0</ele><time>2026-05-03T07:25:13.948Z</time></trkpt><trkpt lat="45.39677036147433" lon="9.96600948275194"><ele>78.0</ele><time>2026-05-03T07:25:15.948Z</time></trkpt><trkpt lat="45.39686632582937" lon="9.96602403132148"><ele>78.0</ele><time>2026-05-03T07:25:17.948Z</time></trkpt><trkpt lat="45.39696784435568" lon="9.966036411660479"><ele>78.0</ele><time>2026-05-03T07:25:19.949Z</time></trkpt><trkpt lat="45.39706531481655" lon="9.966054479593728"><ele>78.0</ele><time>2026-05-03T07:25:21.948Z</time></trkpt><trkpt lat="45.3971575897687" lon="9.966075134234346"><ele>78.0</ele><time>2026-05-03T07:25:23.949Z</time></trkpt><trkpt lat="45.39725442260896" lon="9.966099160123658"><ele>77.83333333333333</ele><time>2026-05-03T07:25:25.949Z</time></trkpt><trkpt lat="45.39735644921232" lon="9.96612637093708"><ele>77.66666666666667</ele><time>2026-05-03T07:25:27.949Z</time></trkpt><trkpt lat="45.39745796796893" lon="9.966147090629208"><ele>77.5</ele><time>2026-05-03T07:25:29.949Z</time></trkpt><trkpt lat="45.3975351295892" lon="9.966173877840362"><ele>77.33333333333334</ele><time>2026-05-03T07:25:31.949Z</time></trkpt><trkpt lat="45.39762686339199" lon="9.966199981624893"><ele>77.16666666666667</ele><time>2026-05-03T07:25:34.948Z</time></trkpt><trkpt lat="45.39769152003084" lon="9.966200475070524"><ele>77.0</ele><time>2026-05-03T07:25:36.948Z</time></trkpt><trkpt lat="45.39776484198848" lon="9.966208749868196"><ele>77.0</ele><time>2026-05-03T07:25:38.948Z</time></trkpt><trkpt lat="45.39785782275593" lon="9.966213618968192"><ele>77.0</ele><time>2026-05-03T07:25:40.948Z</time></trkpt><trkpt lat="45.39795781741541" lon="9.966224468152548"><ele>77.0</ele><time>2026-05-03T07:25:42.948Z</time></trkpt><trkpt lat="45.39805697627433" lon="9.966228848321418"><ele>77.0</ele><time>2026-05-03T07:25:44.948Z</time></trkpt><trkpt lat="45.39816743971252" lon="9.966213655547927"><ele>77.0</ele><time>2026-05-03T07:25:46.948Z</time></trkpt><trkpt lat="45.39828151820936" lon="9.966198779409723"><ele>77.5</ele><time>2026-05-03T07:25:48.948Z</time></trkpt><trkpt lat="45.39839514660996" lon="9.96618560463372"><ele>78.0</ele><time>2026-05-03T07:25:50.948Z</time></trkpt><trkpt lat="45.398514169621606" lon="9.966175141161026"><ele>78.5</ele><time>2026-05-03T07:25:52.948Z</time></trkpt><trkpt lat="45.39863746777054" lon="9.96616271985501"><ele>79.0</ele><time>2026-05-03T07:25:54.948Z</time></trkpt><trkpt lat="45.39876275313414" lon="9.966149076794393"><ele>79.0</ele><time>2026-05-03T07:25:56.948Z</time></trkpt><trkpt lat="45.398888058854226" lon="9.966139820271435"><ele>79.0</ele><time>2026-05-03T07:25:58.948Z</time></trkpt><trkpt lat="45.39901108411591" lon="9.966128697308301"><ele>79.0</ele><time>2026-05-03T07:26:00.948Z</time></trkpt><trkpt lat="45.39907557819535" lon="9.966121409172612"><ele>79.0</ele><time>2026-05-03T07:26:01.948Z</time></trkpt><trkpt lat="45.399141268657864" lon="9.9661113426473"><ele>79.0</ele><time>2026-05-03T07:26:02.948Z</time></trkpt><trkpt lat="45.399205645602926" lon="9.966105150881535"><ele>79.0</ele><time>2026-05-03T07:26:03.948Z</time></trkpt><trkpt lat="45.39927089569226" lon="9.966102424756023"><ele>79.0</ele><time>2026-05-03T07:26:04.948Z</time></trkpt><trkpt lat="45.3993350896059" lon="9.966097238112313"><ele>79.0</ele><time>2026-05-03T07:26:05.948Z</time></trkpt><trkpt lat="45.399458275519294" lon="9.966090505219386"><ele>79.0</ele><time>2026-05-03T07:26:07.948Z</time></trkpt><trkpt lat="45.39958124416577" lon="9.966077729570403"><ele>79.0</ele><time>2026-05-03T07:26:09.948Z</time></trkpt><trkpt lat="45.399645422659425" lon="9.966069642085321"><ele>79.0</ele><time>2026-05-03T07:26:10.948Z</time></trkpt><trkpt lat="45.39970882197227" lon="9.966064001050462"><ele>79.0</ele><time>2026-05-03T07:26:11.948Z</time></trkpt><trkpt lat="45.399771855297196" lon="9.966057379692817"><ele>79.0</ele><time>2026-05-03T07:26:12.948Z</time></trkpt><trkpt lat="45.39983574795215" lon="9.96605040410434"><ele>79.0</ele><time>2026-05-03T07:26:13.948Z</time></trkpt><trkpt lat="45.3999615408204" lon="9.966039940860314"><ele>79.0</ele><time>2026-05-03T07:26:15.948Z</time></trkpt><trkpt lat="45.40002703557233" lon="9.966031142240148"><ele>79.0</ele><time>2026-05-03T07:26:16.947Z</time></trkpt><trkpt lat="45.40014922251954" lon="9.966020230720323"><ele>79.0</ele><time>2026-05-03T07:26:18.947Z</time></trkpt><trkpt lat="45.40027120237109" lon="9.966012667823975"><ele>79.0</ele><time>2026-05-03T07:26:20.947Z</time></trkpt><trkpt lat="45.40039118394757" lon="9.966003898029323"><ele>79.0</ele><time>2026-05-03T07:26:22.947Z</time></trkpt><trkpt lat="45.400512262898665" lon="9.96598940626316"><ele>79.0</ele><time>2026-05-03T07:26:24.947Z</time></trkpt><trkpt lat="45.40062792867553" lon="9.965978097758706"><ele>79.0</ele><time>2026-05-03T07:26:26.947Z</time></trkpt><trkpt lat="45.40074815507347" lon="9.965969264791681"><ele>79.0</ele><time>2026-05-03T07:26:28.947Z</time></trkpt><trkpt lat="45.400865149080296" lon="9.965951176243445"><ele>79.0</ele><time>2026-05-03T07:26:30.947Z</time></trkpt><trkpt lat="45.40098893571692" lon="9.965934873182908"><ele>79.0</ele><time>2026-05-03T07:26:32.947Z</time></trkpt><trkpt lat="45.40110923883869" lon="9.96592203416109"><ele>79.0</ele><time>2026-05-03T07:26:34.947Z</time></trkpt><trkpt lat="45.40123067558336" lon="9.965905384731819"><ele>79.0</ele><time>2026-05-03T07:26:36.947Z</time></trkpt><trkpt lat="45.40135054646054" lon="9.965896381665134"><ele>79.0</ele><time>2026-05-03T07:26:38.947Z</time></trkpt><trkpt lat="45.40146504342714" lon="9.965882122854127"><ele>79.0</ele><time>2026-05-03T07:26:40.947Z</time></trkpt><trkpt lat="45.40158253676581" lon="9.965867323588636"><ele>79.0</ele><time>2026-05-03T07:26:42.947Z</time></trkpt><trkpt lat="45.4016963419204" lon="9.965856472339778"><ele>79.25</ele><time>2026-05-03T07:26:44.947Z</time></trkpt><trkpt lat="45.4018092508831" lon="9.965845015839594"><ele>79.5</ele><time>2026-05-03T07:26:46.947Z</time></trkpt><trkpt lat="45.401924987614194" lon="9.965833646796746"><ele>79.75</ele><time>2026-05-03T07:26:48.947Z</time></trkpt><trkpt lat="45.40204088843362" lon="9.965824116307862"><ele>80.0</ele><time>2026-05-03T07:26:50.947Z</time></trkpt><trkpt lat="45.402153084500284" lon="9.96581156101871"><ele>80.0</ele><time>2026-05-03T07:26:52.947Z</time></trkpt><trkpt lat="45.402268511981816" lon="9.965800016950809"><ele>80.0</ele><time>2026-05-03T07:26:54.947Z</time></trkpt><trkpt lat="45.402381948219094" lon="9.96578774117149"><ele>80.0</ele><time>2026-05-03T07:26:56.947Z</time></trkpt><trkpt lat="45.40249870296896" lon="9.965776096979623"><ele>80.0</ele><time>2026-05-03T07:26:58.947Z</time></trkpt><trkpt lat="45.402600958100265" lon="9.965776254580847"><ele>80.0</ele><time>2026-05-03T07:27:00.947Z</time></trkpt><trkpt lat="45.40271502587159" lon="9.965773772220944"><ele>80.0</ele><time>2026-05-03T07:27:02.946Z</time></trkpt><trkpt lat="45.40281758168725" lon="9.965778975628417"><ele>80.0</ele><time>2026-05-03T07:27:04.946Z</time></trkpt><trkpt lat="45.402921711943236" lon="9.965817511571549"><ele>80.0</ele><time>2026-05-03T07:27:06.946Z</time></trkpt><trkpt lat="45.40301301252294" lon="9.96588655972171"><ele>80.0</ele><time>2026-05-03T07:27:08.946Z</time></trkpt><trkpt lat="45.40307242703065" lon="9.966008876926832"><ele>80.0</ele><time>2026-05-03T07:27:10.946Z</time></trkpt><trkpt lat="45.40312114493049" lon="9.966175990197575"><ele>80.0</ele><time>2026-05-03T07:27:12.946Z</time></trkpt><trkpt lat="45.40318695787171" lon="9.966323210437563"><ele>80.0</ele><time>2026-05-03T07:27:14.946Z</time></trkpt><trkpt lat="45.40328321128715" lon="9.96644017866952"><ele>80.0</ele><time>2026-05-03T07:27:16.946Z</time></trkpt><trkpt lat="45.40340300434036" lon="9.966498884551179"><ele>80.0</ele><time>2026-05-03T07:27:18.946Z</time></trkpt><trkpt lat="45.40347056852788" lon="9.966504398857559"><ele>80.0</ele><time>2026-05-03T07:27:19.946Z</time></trkpt><trkpt lat="45.40353434826947" lon="9.966491217143819"><ele>80.0</ele><time>2026-05-03T07:27:20.946Z</time></trkpt><trkpt lat="45.403597284252285" lon="9.966471510903501"><ele>80.0</ele><time>2026-05-03T07:27:21.946Z</time></trkpt><trkpt lat="45.40365715186896" lon="9.966439105574844"><ele>80.0</ele><time>2026-05-03T07:27:22.946Z</time></trkpt><trkpt lat="45.40376106173026" lon="9.96634899799011"><ele>80.0</ele><time>2026-05-03T07:27:24.946Z</time></trkpt><trkpt lat="45.40385470411377" lon="9.966232986048704"><ele>80.0</ele><time>2026-05-03T07:27:26.948Z</time></trkpt><trkpt lat="45.40395324026757" lon="9.96613692272118"><ele>80.2</ele><time>2026-05-03T07:27:28.948Z</time></trkpt><trkpt lat="45.404010479049" lon="9.966092745764174"><ele>80.4</ele><time>2026-05-03T07:27:29.947Z</time></trkpt><trkpt lat="45.404066044695035" lon="9.966047106879476"><ele>80.6</ele><time>2026-05-03T07:27:30.947Z</time></trkpt><trkpt lat="45.404175134500186" lon="9.965964681946145"><ele>80.8</ele><time>2026-05-03T07:27:32.948Z</time></trkpt><trkpt lat="45.404273169154955" lon="9.965885158471378"><ele>81.0</ele><time>2026-05-03T07:27:34.947Z</time></trkpt><trkpt lat="45.40435970086025" lon="9.965817722759457"><ele>81.19999999999999</ele><time>2026-05-03T07:27:36.947Z</time></trkpt><trkpt lat="45.40444845090539" lon="9.965771407151884"><ele>81.39999999999999</ele><time>2026-05-03T07:27:38.947Z</time></trkpt><trkpt lat="45.40453805149604" lon="9.965737950803051"><ele>81.6</ele><time>2026-05-03T07:27:40.947Z</time></trkpt><trkpt lat="45.40465193385775" lon="9.96572437892207"><ele>81.8</ele><time>2026-05-03T07:27:42.947Z</time></trkpt><trkpt lat="45.40477016511112" lon="9.965731867404367"><ele>82.0</ele><time>2026-05-03T07:27:44.947Z</time></trkpt><trkpt lat="45.40489189932897" lon="9.965735708849678"><ele>82.0</ele><time>2026-05-03T07:27:46.947Z</time></trkpt><trkpt lat="45.405012072790015" lon="9.965740109918741"><ele>82.0</ele><time>2026-05-03T07:27:48.947Z</time></trkpt><trkpt lat="45.405130118707156" lon="9.965747888904357"><ele>82.0</ele><time>2026-05-03T07:27:50.947Z</time></trkpt><trkpt lat="45.405246481764785" lon="9.965745555926311"><ele>82.0</ele><time>2026-05-03T07:27:52.947Z</time></trkpt><trkpt lat="45.40536650962756" lon="9.96574484960615"><ele>82.0</ele><time>2026-05-03T07:27:54.947Z</time></trkpt><trkpt lat="45.405489260841705" lon="9.965742607183982"><ele>82.0</ele><time>2026-05-03T07:27:56.947Z</time></trkpt><trkpt lat="45.405552458265454" lon="9.96574110979636"><ele>82.0</ele><time>2026-05-03T07:27:57.947Z</time></trkpt><trkpt lat="45.40567472394094" lon="9.965736890493655"><ele>82.0</ele><time>2026-05-03T07:27:59.947Z</time></trkpt><trkpt lat="45.40579534110378" lon="9.965730913084212"><ele>82.0</ele><time>2026-05-03T07:28:01.947Z</time></trkpt><trkpt lat="45.40591481201267" lon="9.965718384583797"><ele>82.0</ele><time>2026-05-03T07:28:03.947Z</time></trkpt><trkpt lat="45.406034478711206" lon="9.965715006409477"><ele>82.0</ele><time>2026-05-03T07:28:05.947Z</time></trkpt><trkpt lat="45.40615344794937" lon="9.965704183463838"><ele>82.0</ele><time>2026-05-03T07:28:07.947Z</time></trkpt><trkpt lat="45.40627426479429" lon="9.965697531518082"><ele>82.0</ele><time>2026-05-03T07:28:09.947Z</time></trkpt><trkpt lat="45.40638917425231" lon="9.965683601935199"><ele>82.5</ele><time>2026-05-03T07:28:11.947Z</time></trkpt><trkpt lat="45.406510836169105" lon="9.965678731401226"><ele>83.0</ele><time>2026-05-03T07:28:13.947Z</time></trkpt><trkpt lat="45.406628931577465" lon="9.965682659810804"><ele>83.5</ele><time>2026-05-03T07:28:15.947Z</time></trkpt><trkpt lat="45.40674985427505" lon="9.965684861212491"><ele>84.0</ele><time>2026-05-03T07:28:17.947Z</time></trkpt><trkpt lat="45.40687231793544" lon="9.965690537158842"><ele>84.0</ele><time>2026-05-03T07:28:19.947Z</time></trkpt><trkpt lat="45.40698908652315" lon="9.965694685435066"><ele>84.0</ele><time>2026-05-03T07:28:21.946Z</time></trkpt><trkpt lat="45.4070525283513" lon="9.96569522278785"><ele>84.0</ele><time>2026-05-03T07:28:22.946Z</time></trkpt><trkpt lat="45.40711708385327" lon="9.96568390442071"><ele>84.0</ele><time>2026-05-03T07:28:23.946Z</time></trkpt><trkpt lat="45.4072296221165" lon="9.965646658382484"><ele>84.0</ele><time>2026-05-03T07:28:25.946Z</time></trkpt><trkpt lat="45.40732609157648" lon="9.965570631647575"><ele>83.83333333333333</ele><time>2026-05-03T07:28:27.946Z</time></trkpt><trkpt lat="45.40738129229986" lon="9.965514664855956"><ele>83.66666666666667</ele><time>2026-05-03T07:28:28.946Z</time></trkpt><trkpt lat="45.407427200737274" lon="9.965443965329827"><ele>83.5</ele><time>2026-05-03T07:28:29.946Z</time></trkpt><trkpt lat="45.40748879499034" lon="9.965299301126263"><ele>83.33333333333334</ele><time>2026-05-03T07:28:31.946Z</time></trkpt><trkpt lat="45.40751581829509" lon="9.96521496818421"><ele>83.16666666666667</ele><time>2026-05-03T07:28:32.946Z</time></trkpt><trkpt lat="45.407539507370615" lon="9.965128288962214"><ele>83.0</ele><time>2026-05-03T07:28:33.946Z</time></trkpt><trkpt lat="45.40757083246921" lon="9.96495810561041"><ele>83.33333333333334</ele><time>2026-05-03T07:28:35.946Z</time></trkpt><trkpt lat="45.40759116445944" lon="9.964870384724831"><ele>83.66666666666667</ele><time>2026-05-03T07:28:36.946Z</time></trkpt><trkpt lat="45.40761005362435" lon="9.964778899272606"><ele>84.0</ele><time>2026-05-03T07:28:37.946Z</time></trkpt><trkpt lat="45.407630878279434" lon="9.964688862208071"><ele>84.33333333333333</ele><time>2026-05-03T07:28:38.946Z</time></trkpt><trkpt lat="45.40766400132194" lon="9.964610988189465"><ele>84.66666666666666</ele><time>2026-05-03T07:28:39.946Z</time></trkpt><trkpt lat="45.407766075252184" lon="9.964495148020015"><ele>85.0</ele><time>2026-05-03T07:28:41.946Z</time></trkpt><trkpt lat="45.4078306438085" lon="9.964456641156122"><ele>85.0</ele><time>2026-05-03T07:28:42.946Z</time></trkpt><trkpt lat="45.40789468140289" lon="9.96443236831589"><ele>85.0</ele><time>2026-05-03T07:28:43.946Z</time></trkpt><trkpt lat="45.40795739777541" lon="9.96440794226435"><ele>85.0</ele><time>2026-05-03T07:28:44.946Z</time></trkpt><trkpt lat="45.40801935454553" lon="9.964385290833233"><ele>85.0</ele><time>2026-05-03T07:28:45.946Z</time></trkpt><trkpt lat="45.4080809515492" lon="9.964360616538551"><ele>85.0</ele><time>2026-05-03T07:28:46.946Z</time></trkpt><trkpt lat="45.40814538169063" lon="9.964331457577343"><ele>85.0</ele><time>2026-05-03T07:28:47.946Z</time></trkpt><trkpt lat="45.40820805586619" lon="9.964304135183886"><ele>85.0</ele><time>2026-05-03T07:28:48.946Z</time></trkpt><trkpt lat="45.408270161028256" lon="9.964276842958997"><ele>84.4</ele><time>2026-05-03T07:28:49.946Z</time></trkpt><trkpt lat="45.40838838063402" lon="9.964227160984263"><ele>83.8</ele><time>2026-05-03T07:28:51.946Z</time></trkpt><trkpt lat="45.408450291592516" lon="9.964200163623083"><ele>83.19999999999999</ele><time>2026-05-03T07:28:52.946Z</time></trkpt><trkpt lat="45.408512254710836" lon="9.964173312216264"><ele>82.6</ele><time>2026-05-03T07:28:53.946Z</time></trkpt><trkpt lat="45.40862994829864" lon="9.964122174536909"><ele>82.0</ele><time>2026-05-03T07:28:55.946Z</time></trkpt><trkpt lat="45.40874519915771" lon="9.964073943797004"><ele>81.8</ele><time>2026-05-03T07:28:57.946Z</time></trkpt><trkpt lat="45.4088625702621" lon="9.964026981499128"><ele>81.6</ele><time>2026-05-03T07:28:59.946Z</time></trkpt><trkpt lat="45.40898358954961" lon="9.963986239892067"><ele>81.39999999999999</ele><time>2026-05-03T07:29:01.946Z</time></trkpt><trkpt lat="45.4091011559132" lon="9.963940564789722"><ele>81.19999999999999</ele><time>2026-05-03T07:29:03.946Z</time></trkpt><trkpt lat="45.40916463339736" lon="9.963914222480485"><ele>81.0</ele><time>2026-05-03T07:29:04.946Z</time></trkpt><trkpt lat="45.409289064413414" lon="9.963884731105145"><ele>81.0</ele><time>2026-05-03T07:29:06.945Z</time></trkpt><trkpt lat="45.40935159841054" lon="9.96386827688095"><ele>81.0</ele><time>2026-05-03T07:29:07.945Z</time></trkpt><trkpt lat="45.40941435009764" lon="9.96385726529333"><ele>81.0</ele><time>2026-05-03T07:29:08.945Z</time></trkpt><trkpt lat="45.40947772494353" lon="9.96385264636065"><ele>81.0</ele><time>2026-05-03T07:29:09.945Z</time></trkpt><trkpt lat="45.4096045903871" lon="9.963845315349285"><ele>81.0</ele><time>2026-05-03T07:29:11.945Z</time></trkpt><trkpt lat="45.409727156788115" lon="9.963841063661164"><ele>81.0</ele><time>2026-05-03T07:29:13.945Z</time></trkpt><trkpt lat="45.409850015853856" lon="9.96382770431869"><ele>81.6</ele><time>2026-05-03T07:29:15.945Z</time></trkpt><trkpt lat="45.40997356489367" lon="9.963809638551483"><ele>82.19999999999999</ele><time>2026-05-03T07:29:17.945Z</time></trkpt><trkpt lat="45.41009423978677" lon="9.963779215767282"><ele>82.80000000000001</ele><time>2026-05-03T07:29:19.945Z</time></trkpt><trkpt lat="45.410217477591445" lon="9.96374381946117"><ele>83.4</ele><time>2026-05-03T07:29:21.945Z</time></trkpt><trkpt lat="45.41028086301631" lon="9.963719204521968"><ele>84.0</ele><time>2026-05-03T07:29:22.945Z</time></trkpt><trkpt lat="45.41034220749483" lon="9.963695170918648"><ele>84.0</ele><time>2026-05-03T07:29:23.945Z</time></trkpt><trkpt lat="45.4104058768783" lon="9.963671368042933"><ele>84.0</ele><time>2026-05-03T07:29:24.945Z</time></trkpt><trkpt lat="45.41047035035238" lon="9.963647493701513"><ele>84.0</ele><time>2026-05-03T07:29:25.945Z</time></trkpt><trkpt lat="45.41053623138791" lon="9.963627222663046"><ele>84.0</ele><time>2026-05-03T07:29:26.945Z</time></trkpt><trkpt lat="45.41059989102569" lon="9.963610108752418"><ele>84.0</ele><time>2026-05-03T07:29:27.945Z</time></trkpt><trkpt lat="45.4106684018585" lon="9.963600318863204"><ele>84.0</ele><time>2026-05-03T07:29:28.945Z</time></trkpt><trkpt lat="45.41073130507698" lon="9.963592448420771"><ele>84.0</ele><time>2026-05-03T07:29:29.945Z</time></trkpt><trkpt lat="45.41079362391357" lon="9.963579277905062"><ele>83.80000000000001</ele><time>2026-05-03T07:29:30.945Z</time></trkpt><trkpt lat="45.41091829041324" lon="9.963555147699816"><ele>83.60000000000001</ele><time>2026-05-03T07:29:32.945Z</time></trkpt><trkpt lat="45.41098259559834" lon="9.963541865075907"><ele>83.4</ele><time>2026-05-03T07:29:33.945Z</time></trkpt><trkpt lat="45.41110000104415" lon="9.96352547082961"><ele>83.2</ele><time>2026-05-03T07:29:35.946Z</time></trkpt><trkpt lat="45.41121847519173" lon="9.96350360497896"><ele>83.0</ele><time>2026-05-03T07:29:37.946Z</time></trkpt><trkpt lat="45.41134441277588" lon="9.96348546760772"><ele>82.83333333333334</ele><time>2026-05-03T07:29:39.945Z</time></trkpt><trkpt lat="45.411467260658085" lon="9.963484312935835"><ele>82.66666666666667</ele><time>2026-05-03T07:29:41.946Z</time></trkpt><trkpt lat="45.411530271332175" lon="9.963476312127087"><ele>82.5</ele><time>2026-05-03T07:29:42.946Z</time></trkpt><trkpt lat="45.41165695434137" lon="9.963465924734226"><ele>82.33333333333333</ele><time>2026-05-03T07:29:44.945Z</time></trkpt><trkpt lat="45.411720468575965" lon="9.96346089180113"><ele>82.16666666666666</ele><time>2026-05-03T07:29:45.945Z</time></trkpt><trkpt lat="45.411784195483236" lon="9.963454173261914"><ele>82.0</ele><time>2026-05-03T07:29:46.945Z</time></trkpt><trkpt lat="45.411847966716415" lon="9.963448472788548"><ele>82.0</ele><time>2026-05-03T07:29:47.945Z</time></trkpt><trkpt lat="45.41191405573862" lon="9.963448665195978"><ele>82.0</ele><time>2026-05-03T07:29:48.945Z</time></trkpt><trkpt lat="45.412023188853745" lon="9.963445374914539"><ele>82.0</ele><time>2026-05-03T07:29:50.945Z</time></trkpt><trkpt lat="45.4121185064173" lon="9.963438929806996"><ele>82.0</ele><time>2026-05-03T07:29:52.945Z</time></trkpt><trkpt lat="45.41223453578052" lon="9.963430335208209"><ele>82.0</ele><time>2026-05-03T07:29:54.945Z</time></trkpt><trkpt lat="45.41229857116833" lon="9.963431367682265"><ele>82.16666666666666</ele><time>2026-05-03T07:29:55.945Z</time></trkpt><trkpt lat="45.41236174534254" lon="9.963431999810332"><ele>82.33333333333333</ele><time>2026-05-03T07:29:56.945Z</time></trkpt><trkpt lat="45.41242553916651" lon="9.963432810395638"><ele>82.5</ele><time>2026-05-03T07:29:57.945Z</time></trkpt><trkpt lat="45.41255211760519" lon="9.963430765774811"><ele>82.66666666666667</ele><time>2026-05-03T07:29:59.945Z</time></trkpt><trkpt lat="45.41261607572764" lon="9.963427880232498"><ele>82.83333333333334</ele><time>2026-05-03T07:30:00.945Z</time></trkpt><trkpt lat="45.4126791826451" lon="9.963425952740517"><ele>83.0</ele><time>2026-05-03T07:30:01.945Z</time></trkpt><trkpt lat="45.41280475298268" lon="9.963427411811674"><ele>83.0</ele><time>2026-05-03T07:30:03.945Z</time></trkpt><trkpt lat="45.412869850856104" lon="9.96342358179665"><ele>83.0</ele><time>2026-05-03T07:30:04.945Z</time></trkpt><trkpt lat="45.41293335843221" lon="9.963419061209315"><ele>83.0</ele><time>2026-05-03T07:30:05.945Z</time></trkpt><trkpt lat="45.41305722482185" lon="9.963426920735465"><ele>83.0</ele><time>2026-05-03T07:30:07.945Z</time></trkpt><trkpt lat="45.41311943349185" lon="9.963442510647655"><ele>83.0</ele><time>2026-05-03T07:30:08.945Z</time></trkpt><trkpt lat="45.413182967774944" lon="9.963460033299905"><ele>83.0</ele><time>2026-05-03T07:30:09.945Z</time></trkpt><trkpt lat="45.41324546754271" lon="9.963476992628202"><ele>83.0</ele><time>2026-05-03T07:30:10.945Z</time></trkpt><trkpt lat="45.41336527919966" lon="9.963516919945146"><ele>83.25</ele><time>2026-05-03T07:30:12.945Z</time></trkpt><trkpt lat="45.41347941712016" lon="9.963551209567346"><ele>83.5</ele><time>2026-05-03T07:30:14.945Z</time></trkpt><trkpt lat="45.41359902141748" lon="9.963553731451952"><ele>83.75</ele><time>2026-05-03T07:30:16.945Z</time></trkpt><trkpt lat="45.41372040757673" lon="9.963559384921119"><ele>84.0</ele><time>2026-05-03T07:30:18.945Z</time></trkpt><trkpt lat="45.41384233894721" lon="9.96357109235481"><ele>84.25</ele><time>2026-05-03T07:30:20.944Z</time></trkpt><trkpt lat="45.41396301647719" lon="9.963590089147724"><ele>84.5</ele><time>2026-05-03T07:30:22.944Z</time></trkpt><trkpt lat="45.41408121961558" lon="9.963617968658934"><ele>84.75</ele><time>2026-05-03T07:30:24.944Z</time></trkpt><trkpt lat="45.41420089159007" lon="9.96363468810691"><ele>85.0</ele><time>2026-05-03T07:30:26.944Z</time></trkpt><trkpt lat="45.414321911157636" lon="9.963635629929081"><ele>85.0</ele><time>2026-05-03T07:30:28.944Z</time></trkpt><trkpt lat="45.41444430907907" lon="9.963619454704974"><ele>85.0</ele><time>2026-05-03T07:30:30.944Z</time></trkpt><trkpt lat="45.41456583419453" lon="9.963606073167432"><ele>85.0</ele><time>2026-05-03T07:30:32.944Z</time></trkpt><trkpt lat="45.414689470555416" lon="9.963580711063386"><ele>85.0</ele><time>2026-05-03T07:30:34.944Z</time></trkpt><trkpt lat="45.414751870689116" lon="9.963568332499085"><ele>85.0</ele><time>2026-05-03T07:30:35.944Z</time></trkpt><trkpt lat="45.414814977302946" lon="9.963559435146733"><ele>84.83333333333333</ele><time>2026-05-03T07:30:36.944Z</time></trkpt><trkpt lat="45.41488154507002" lon="9.963547643552292"><ele>84.66666666666666</ele><time>2026-05-03T07:30:37.944Z</time></trkpt><trkpt lat="45.41494568356217" lon="9.963533835621059"><ele>84.5</ele><time>2026-05-03T07:30:38.944Z</time></trkpt><trkpt lat="45.41501299486502" lon="9.963525857628598"><ele>84.33333333333333</ele><time>2026-05-03T07:30:39.944Z</time></trkpt><trkpt lat="45.4151318545862" lon="9.963511929569217"><ele>84.16666666666667</ele><time>2026-05-03T07:30:41.944Z</time></trkpt><trkpt lat="45.4152412082073" lon="9.9634738172525"><ele>84.0</ele><time>2026-05-03T07:30:43.944Z</time></trkpt><trkpt lat="45.415361330172054" lon="9.963488277659218"><ele>84.0</ele><time>2026-05-03T07:30:45.944Z</time></trkpt><trkpt lat="45.415424441132814" lon="9.963485783475821"><ele>84.0</ele><time>2026-05-03T07:30:46.944Z</time></trkpt><trkpt lat="45.41554809816548" lon="9.963477264217907"><ele>84.0</ele><time>2026-05-03T07:30:48.944Z</time></trkpt><trkpt lat="45.4156687745648" lon="9.963465008220362"><ele>84.0</ele><time>2026-05-03T07:30:50.944Z</time></trkpt><trkpt lat="45.41578689455792" lon="9.963456018420997"><ele>84.0</ele><time>2026-05-03T07:30:52.944Z</time></trkpt><trkpt lat="45.41591002703841" lon="9.963453659828906"><ele>84.25</ele><time>2026-05-03T07:30:54.944Z</time></trkpt><trkpt lat="45.41603124437252" lon="9.963460176343165"><ele>84.5</ele><time>2026-05-03T07:30:56.944Z</time></trkpt><trkpt lat="45.41615536789117" lon="9.96345202550994"><ele>84.75</ele><time>2026-05-03T07:30:58.944Z</time></trkpt><trkpt lat="45.416273078429874" lon="9.963463123623704"><ele>85.0</ele><time>2026-05-03T07:31:00.944Z</time></trkpt><trkpt lat="45.416394902456354" lon="9.963488318562597"><ele>84.5</ele><time>2026-05-03T07:31:02.944Z</time></trkpt><trkpt lat="45.41651099984432" lon="9.963513622702877"><ele>84.0</ele><time>2026-05-03T07:31:04.944Z</time></trkpt><trkpt lat="45.416631190496666" lon="9.96354163380651"><ele>83.5</ele><time>2026-05-03T07:31:06.943Z</time></trkpt><trkpt lat="45.4167528818731" lon="9.963565153178422"><ele>83.0</ele><time>2026-05-03T07:31:08.943Z</time></trkpt><trkpt lat="45.416873877335995" lon="9.963602692372168"><ele>83.0</ele><time>2026-05-03T07:31:10.943Z</time></trkpt><trkpt lat="45.41699497462919" lon="9.963634019370932"><ele>83.0</ele><time>2026-05-03T07:31:12.943Z</time></trkpt><trkpt lat="45.41711904884963" lon="9.963659508582671"><ele>83.0</ele><time>2026-05-03T07:31:14.943Z</time></trkpt><trkpt lat="45.417183130662636" lon="9.96367629555522"><ele>83.0</ele><time>2026-05-03T07:31:15.943Z</time></trkpt><trkpt lat="45.41724842323534" lon="9.963689034138707"><ele>83.0</ele><time>2026-05-03T07:31:16.943Z</time></trkpt><trkpt lat="45.4173114679714" lon="9.963702851714002"><ele>83.0</ele><time>2026-05-03T07:31:17.943Z</time></trkpt><trkpt lat="45.417431630406604" lon="9.963739954708375"><ele>83.33333333333334</ele><time>2026-05-03T07:31:19.943Z</time></trkpt><trkpt lat="45.41749548139689" lon="9.963758107502661"><ele>83.66666666666667</ele><time>2026-05-03T07:31:20.943Z</time></trkpt><trkpt lat="45.41761680318804" lon="9.963797017397738"><ele>84.0</ele><time>2026-05-03T07:31:22.943Z</time></trkpt><trkpt lat="45.41768295507426" lon="9.963816162391515"><ele>84.33333333333333</ele><time>2026-05-03T07:31:23.943Z</time></trkpt><trkpt lat="45.41774450444356" lon="9.963839535363528"><ele>84.66666666666666</ele><time>2026-05-03T07:31:24.943Z</time></trkpt><trkpt lat="45.417855546336845" lon="9.963887038387352"><ele>85.0</ele><time>2026-05-03T07:31:26.943Z</time></trkpt><trkpt lat="45.41795725456496" lon="9.963918960059138"><ele>85.2</ele><time>2026-05-03T07:31:28.943Z</time></trkpt><trkpt lat="45.41804761329764" lon="9.963952431303374"><ele>85.4</ele><time>2026-05-03T07:31:30.943Z</time></trkpt><trkpt lat="45.418158529938296" lon="9.964001253413484"><ele>85.6</ele><time>2026-05-03T07:31:32.943Z</time></trkpt><trkpt lat="45.41826489102811" lon="9.964060521863555"><ele>85.8</ele><time>2026-05-03T07:31:34.943Z</time></trkpt><trkpt lat="45.41836010895377" lon="9.964085914344475"><ele>86.0</ele><time>2026-05-03T07:31:36.943Z</time></trkpt><trkpt lat="45.41843408112408" lon="9.964004285821474"><ele>86.0</ele><time>2026-05-03T07:31:38.945Z</time></trkpt><trkpt lat="45.418471212339874" lon="9.963857570521697"><ele>86.0</ele><time>2026-05-03T07:31:40.944Z</time></trkpt><trkpt lat="45.41851710205134" lon="9.963699843418157"><ele>86.0</ele><time>2026-05-03T07:31:42.944Z</time></trkpt><trkpt lat="45.41856368160924" lon="9.963544693325531"><ele>86.0</ele><time>2026-05-03T07:31:44.944Z</time></trkpt><trkpt lat="45.4186117947218" lon="9.963385712052338"><ele>86.0</ele><time>2026-05-03T07:31:46.945Z</time></trkpt><trkpt lat="45.418667266719076" lon="9.96323586251084"><ele>86.0</ele><time>2026-05-03T07:31:48.944Z</time></trkpt><trkpt lat="45.418721751824044" lon="9.963070265123262"><ele>86.0</ele><time>2026-05-03T07:31:50.945Z</time></trkpt><trkpt lat="45.41873142969265" lon="9.96297387086364"><ele>86.0</ele><time>2026-05-03T07:31:51.945Z</time></trkpt><trkpt lat="45.41873754330883" lon="9.962880713350463"><ele>86.0</ele><time>2026-05-03T07:31:52.945Z</time></trkpt><trkpt lat="45.418736977441284" lon="9.962783239098465"><ele>86.00000000000001</ele><time>2026-05-03T07:31:53.945Z</time></trkpt><trkpt lat="45.41874014643142" lon="9.962690262341502"><ele>86.0</ele><time>2026-05-03T07:31:54.944Z</time></trkpt><trkpt lat="45.418743806505454" lon="9.962596391765452"><ele>86.0</ele><time>2026-05-03T07:31:55.944Z</time></trkpt><trkpt lat="45.418752056145586" lon="9.962504316358068"><ele>86.0</ele><time>2026-05-03T07:31:56.944Z</time></trkpt><trkpt lat="45.41876326804574" lon="9.962414227769338"><ele>86.0</ele><time>2026-05-03T07:31:57.944Z</time></trkpt><trkpt lat="45.41877154749691" lon="9.962323531644811"><ele>86.00000000000001</ele><time>2026-05-03T07:31:58.944Z</time></trkpt><trkpt lat="45.41878336077417" lon="9.96223264261128"><ele>86.0</ele><time>2026-05-03T07:31:59.944Z</time></trkpt><trkpt lat="45.41879076509277" lon="9.962140820424306"><ele>86.16666666666667</ele><time>2026-05-03T07:32:00.944Z</time></trkpt><trkpt lat="45.41879860198024" lon="9.962048684313086"><ele>86.33333333333334</ele><time>2026-05-03T07:32:01.944Z</time></trkpt><trkpt lat="45.418807832052515" lon="9.961958829751799"><ele>86.5</ele><time>2026-05-03T07:32:02.944Z</time></trkpt><trkpt lat="45.418812708513826" lon="9.961867805458116"><ele>86.66666666666667</ele><time>2026-05-03T07:32:03.944Z</time></trkpt><trkpt lat="45.418829393403996" lon="9.96169145179651"><ele>86.83333333333333</ele><time>2026-05-03T07:32:05.944Z</time></trkpt><trkpt lat="45.41884768973629" lon="9.96151092665672"><ele>87.0</ele><time>2026-05-03T07:32:07.944Z</time></trkpt><trkpt lat="45.41885911875396" lon="9.961413989013359"><ele>87.0</ele><time>2026-05-03T07:32:08.944Z</time></trkpt><trkpt lat="45.41886915343964" lon="9.961319310026312"><ele>87.0</ele><time>2026-05-03T07:32:09.944Z</time></trkpt><trkpt lat="45.41889175983245" lon="9.961135763390372"><ele>87.0</ele><time>2026-05-03T07:32:11.944Z</time></trkpt><trkpt lat="45.41890382954023" lon="9.961045191936048"><ele>87.0</ele><time>2026-05-03T07:32:12.944Z</time></trkpt><trkpt lat="45.41891201813601" lon="9.960954658670278"><ele>87.0</ele><time>2026-05-03T07:32:13.944Z</time></trkpt><trkpt lat="45.41892138031173" lon="9.960789030830844"><ele>87.0</ele><time>2026-05-03T07:32:15.944Z</time></trkpt><trkpt lat="45.418952103694544" lon="9.960618475169086"><ele>87.0</ele><time>2026-05-03T07:32:17.944Z</time></trkpt><trkpt lat="45.418981569307086" lon="9.96053151479983"><ele>87.0</ele><time>2026-05-03T07:32:18.944Z</time></trkpt><trkpt lat="45.41901580459691" lon="9.960451771373307"><ele>87.0</ele><time>2026-05-03T07:32:19.944Z</time></trkpt><trkpt lat="45.419048845778526" lon="9.960371014313388"><ele>87.0</ele><time>2026-05-03T07:32:20.944Z</time></trkpt><trkpt lat="45.419086155078915" lon="9.960293044465681"><ele>87.0</ele><time>2026-05-03T07:32:21.944Z</time></trkpt><trkpt lat="45.419130436251706" lon="9.960211442628724"><ele>87.0</ele><time>2026-05-03T07:32:22.944Z</time></trkpt><trkpt lat="45.419173717598426" lon="9.960143810476335"><ele>87.0</ele><time>2026-05-03T07:32:23.944Z</time></trkpt><trkpt lat="45.419213766070115" lon="9.96006039937924"><ele>86.85714285714286</ele><time>2026-05-03T07:32:24.944Z</time></trkpt><trkpt lat="45.419253784604564" lon="9.959985966995971"><ele>86.71428571428572</ele><time>2026-05-03T07:32:25.944Z</time></trkpt><trkpt lat="45.41930256783136" lon="9.95991412461166"><ele>86.57142857142858</ele><time>2026-05-03T07:32:26.944Z</time></trkpt><trkpt lat="45.419359623445615" lon="9.959860642877896"><ele>86.42857142857143</ele><time>2026-05-03T07:32:27.944Z</time></trkpt><trkpt lat="45.41942774275706" lon="9.959857229764427"><ele>86.28571428571429</ele><time>2026-05-03T07:32:28.944Z</time></trkpt><trkpt lat="45.419491682374634" lon="9.95985945855241"><ele>86.14285714285715</ele><time>2026-05-03T07:32:29.944Z</time></trkpt><trkpt lat="45.41955846898594" lon="9.95984811536868"><ele>86.0</ele><time>2026-05-03T07:32:30.944Z</time></trkpt><trkpt lat="45.419624451401646" lon="9.959834975427446"><ele>86.4</ele><time>2026-05-03T07:32:31.944Z</time></trkpt><trkpt lat="45.41969030857188" lon="9.959825182241426"><ele>86.8</ele><time>2026-05-03T07:32:32.944Z</time></trkpt><trkpt lat="45.41980722366105" lon="9.959801265755674"><ele>87.2</ele><time>2026-05-03T07:32:34.944Z</time></trkpt><trkpt lat="45.419920803699966" lon="9.959786579692816"><ele>87.60000000000001</ele><time>2026-05-03T07:32:36.944Z</time></trkpt><trkpt lat="45.420024523314055" lon="9.959807231785664"><ele>88.0</ele><time>2026-05-03T07:32:38.944Z</time></trkpt><trkpt lat="45.42011308448239" lon="9.95980017929517"><ele>88.0</ele><time>2026-05-03T07:32:40.943Z</time></trkpt><trkpt lat="45.42021136199806" lon="9.959772318406628"><ele>88.0</ele><time>2026-05-03T07:32:42.943Z</time></trkpt><trkpt lat="45.42032761674162" lon="9.959800472511123"><ele>88.0</ele><time>2026-05-03T07:32:44.943Z</time></trkpt><trkpt lat="45.4203879639522" lon="9.95983093888116"><ele>88.0</ele><time>2026-05-03T07:32:45.943Z</time></trkpt><trkpt lat="45.42044942478957" lon="9.959866501235242"><ele>88.0</ele><time>2026-05-03T07:32:46.943Z</time></trkpt><trkpt lat="45.42050806841057" lon="9.959907155369859"><ele>88.0</ele><time>2026-05-03T07:32:47.943Z</time></trkpt><trkpt lat="45.42056501040486" lon="9.959947694421105"><ele>88.2</ele><time>2026-05-03T07:32:48.943Z</time></trkpt><trkpt lat="45.42062435175095" lon="9.959988299572853"><ele>88.4</ele><time>2026-05-03T07:32:49.943Z</time></trkpt><trkpt lat="45.42073579488442" lon="9.960067954083332"><ele>88.60000000000001</ele><time>2026-05-03T07:32:51.943Z</time></trkpt><trkpt lat="45.42079298904361" lon="9.960109696106278"><ele>88.80000000000001</ele><time>2026-05-03T07:32:52.943Z</time></trkpt><trkpt lat="45.420898149565524" lon="9.960199501405942"><ele>89.0</ele><time>2026-05-03T07:32:54.943Z</time></trkpt><trkpt lat="45.42099929945983" lon="9.96029152813016"><ele>89.16666666666667</ele><time>2026-05-03T07:32:56.943Z</time></trkpt><trkpt lat="45.421102568544065" lon="9.960364136344285"><ele>89.33333333333334</ele><time>2026-05-03T07:32:58.943Z</time></trkpt><trkpt lat="45.42116252669512" lon="9.960409409008692"><ele>89.5</ele><time>2026-05-03T07:32:59.943Z</time></trkpt><trkpt lat="45.4212695430281" lon="9.960505838082495"><ele>89.66666666666667</ele><time>2026-05-03T07:33:01.943Z</time></trkpt><trkpt lat="45.42132935565736" lon="9.960549617624602"><ele>89.83333333333333</ele><time>2026-05-03T07:33:02.943Z</time></trkpt><trkpt lat="45.42138005893921" lon="9.960612166167424"><ele>90.0</ele><time>2026-05-03T07:33:03.943Z</time></trkpt><trkpt lat="45.4214891550075" lon="9.960702260780323"><ele>89.66666666666667</ele><time>2026-05-03T07:33:05.943Z</time></trkpt><trkpt lat="45.421547286734416" lon="9.960748743545654"><ele>89.33333333333333</ele><time>2026-05-03T07:33:06.943Z</time></trkpt><trkpt lat="45.42160592546354" lon="9.960795449422188"><ele>89.0</ele><time>2026-05-03T07:33:07.943Z</time></trkpt><trkpt lat="45.421658833435224" lon="9.960847724936208"><ele>88.66666666666666</ele><time>2026-05-03T07:33:08.943Z</time></trkpt><trkpt lat="45.42171441194978" lon="9.960897710933663"><ele>88.33333333333333</ele><time>2026-05-03T07:33:09.943Z</time></trkpt><trkpt lat="45.421774759799426" lon="9.960942402497018"><ele>88.0</ele><time>2026-05-03T07:33:10.943Z</time></trkpt><trkpt lat="45.42189717770193" lon="9.961001070607024"><ele>88.0</ele><time>2026-05-03T07:33:12.943Z</time></trkpt><trkpt lat="45.422018742529836" lon="9.961053814184423"><ele>88.0</ele><time>2026-05-03T07:33:14.943Z</time></trkpt><trkpt lat="45.42208159226777" lon="9.96108008803262"><ele>88.0</ele><time>2026-05-03T07:33:15.943Z</time></trkpt><trkpt lat="45.422142763435495" lon="9.961107533601114"><ele>88.0</ele><time>2026-05-03T07:33:16.943Z</time></trkpt><trkpt lat="45.422241436530086" lon="9.961157864563658"><ele>88.0</ele><time>2026-05-03T07:33:18.943Z</time></trkpt><trkpt lat="45.42233699557249" lon="9.961185839861802"><ele>87.66666666666666</ele><time>2026-05-03T07:33:20.943Z</time></trkpt><trkpt lat="45.422437886567664" lon="9.961223645380606"><ele>87.33333333333333</ele><time>2026-05-03T07:33:22.943Z</time></trkpt><trkpt lat="45.422558008248835" lon="9.96127496849704"><ele>87.0</ele><time>2026-05-03T07:33:24.943Z</time></trkpt><trkpt lat="45.42262379525124" lon="9.961297240837318"><ele>86.66666666666667</ele><time>2026-05-03T07:33:25.943Z</time></trkpt><trkpt lat="45.42268947852572" lon="9.961317679054881"><ele>86.33333333333334</ele><time>2026-05-03T07:33:26.942Z</time></trkpt><trkpt lat="45.42275275920866" lon="9.961327127824298"><ele>86.0</ele><time>2026-05-03T07:33:27.942Z</time></trkpt><trkpt lat="45.422868811528964" lon="9.961340068027548"><ele>86.14285714285715</ele><time>2026-05-03T07:33:29.942Z</time></trkpt><trkpt lat="45.42298501557751" lon="9.96137549881913"><ele>86.28571428571429</ele><time>2026-05-03T07:33:31.942Z</time></trkpt><trkpt lat="45.42305052926779" lon="9.961386329374294"><ele>86.42857142857143</ele><time>2026-05-03T07:33:32.942Z</time></trkpt><trkpt lat="45.42311846260483" lon="9.961394493731254"><ele>86.57142857142858</ele><time>2026-05-03T07:33:33.942Z</time></trkpt><trkpt lat="45.42318402344764" lon="9.961401604720805"><ele>86.71428571428572</ele><time>2026-05-03T07:33:34.942Z</time></trkpt><trkpt lat="45.42324868684088" lon="9.961408590839058"><ele>86.85714285714286</ele><time>2026-05-03T07:33:35.942Z</time></trkpt><trkpt lat="45.423312935208365" lon="9.961421477344457"><ele>87.0</ele><time>2026-05-03T07:33:36.942Z</time></trkpt><trkpt lat="45.423377389323576" lon="9.961433454895191"><ele>87.0</ele><time>2026-05-03T07:33:37.942Z</time></trkpt><trkpt lat="45.42344179358276" lon="9.961445885671171"><ele>87.0</ele><time>2026-05-03T07:33:38.942Z</time></trkpt><trkpt lat="45.4235047863381" lon="9.961457252060875"><ele>87.0</ele><time>2026-05-03T07:33:39.942Z</time></trkpt><trkpt lat="45.42356866069871" lon="9.96146941371778"><ele>87.0</ele><time>2026-05-03T07:33:40.942Z</time></trkpt><trkpt lat="45.4236317120832" lon="9.961476639935675"><ele>87.0</ele><time>2026-05-03T07:33:41.942Z</time></trkpt><trkpt lat="45.42375725272485" lon="9.961492215497397"><ele>87.0</ele><time>2026-05-03T07:33:43.943Z</time></trkpt><trkpt lat="45.42382010040442" lon="9.961503984816272"><ele>87.0</ele><time>2026-05-03T07:33:44.94Z</time></trkpt><trkpt lat="45.42388778701389" lon="9.961520992449644"><ele>87.0</ele><time>2026-05-03T07:33:45.937Z</time></trkpt><trkpt lat="45.42395110123407" lon="9.96153492151743"><ele>87.0</ele><time>2026-05-03T07:33:46.935Z</time></trkpt><trkpt lat="45.42401899201107" lon="9.961551968507454"><ele>87.0</ele><time>2026-05-03T07:33:47.933Z</time></trkpt><trkpt lat="45.42408818946077" lon="9.961565171700908"><ele>87.0</ele><time>2026-05-03T07:33:48.931Z</time></trkpt><trkpt lat="45.42415257572364" lon="9.961576442976305"><ele>87.0</ele><time>2026-05-03T07:33:49.928Z</time></trkpt><trkpt lat="45.42426546504416" lon="9.961586906026197"><ele>87.0</ele><time>2026-05-03T07:33:51.925Z</time></trkpt><trkpt lat="45.424323160677794" lon="9.96162607121165"><ele>87.0</ele><time>2026-05-03T07:33:52.923Z</time></trkpt><trkpt lat="45.42438199450657" lon="9.961747317240059"><ele>87.0</ele><time>2026-05-03T07:33:54.919Z</time></trkpt><trkpt lat="45.424442538855494" lon="9.961879199911339"><ele>87.0</ele><time>2026-05-03T07:33:56.917Z</time></trkpt><trkpt lat="45.42454025874253" lon="9.961962923158703"><ele>87.0</ele><time>2026-05-03T07:33:58.915Z</time></trkpt><trkpt lat="45.42466083666737" lon="9.96193090826076"><ele>87.0</ele><time>2026-05-03T07:34:00.912Z</time></trkpt><trkpt lat="45.42471983640097" lon="9.96189475243561"><ele>87.0</ele><time>2026-05-03T07:34:01.911Z</time></trkpt><trkpt lat="45.42482538572894" lon="9.961824749575914"><ele>87.16666666666667</ele><time>2026-05-03T07:34:03.91Z</time></trkpt><trkpt lat="45.42494970608975" lon="9.96178515101193"><ele>87.33333333333333</ele><time>2026-05-03T07:34:05.908Z</time></trkpt><trkpt lat="45.42501845165014" lon="9.961768069236888"><ele>87.5</ele><time>2026-05-03T07:34:06.907Z</time></trkpt><trkpt lat="45.42508517381928" lon="9.961758849843985"><ele>87.66666666666666</ele><time>2026-05-03T07:34:07.907Z</time></trkpt><trkpt lat="45.425153169781666" lon="9.961756691798627"><ele>87.83333333333333</ele><time>2026-05-03T07:34:08.906Z</time></trkpt><trkpt lat="45.42521992446035" lon="9.961765174363991"><ele>88.0</ele><time>2026-05-03T07:34:09.905Z</time></trkpt><trkpt lat="45.425286220657746" lon="9.961771649290357"><ele>88.0</ele><time>2026-05-03T07:34:10.905Z</time></trkpt><trkpt lat="45.425414708807835" lon="9.961779634368487"><ele>88.0</ele><time>2026-05-03T07:34:12.904Z</time></trkpt><trkpt lat="45.42547852528751" lon="9.961779731074673"><ele>88.0</ele><time>2026-05-03T07:34:13.903Z</time></trkpt><trkpt lat="45.42554653485163" lon="9.961776055980005"><ele>88.0</ele><time>2026-05-03T07:34:14.903Z</time></trkpt><trkpt lat="45.42561015734228" lon="9.961774680922021"><ele>88.0</ele><time>2026-05-03T07:34:15.902Z</time></trkpt><trkpt lat="45.425738137295816" lon="9.96178598163118"><ele>87.83333333333333</ele><time>2026-05-03T07:34:17.902Z</time></trkpt><trkpt lat="45.425808388677055" lon="9.9617908913775"><ele>87.66666666666666</ele><time>2026-05-03T07:34:18.901Z</time></trkpt><trkpt lat="45.42587491878587" lon="9.961800935976576"><ele>87.5</ele><time>2026-05-03T07:34:19.901Z</time></trkpt><trkpt lat="45.42594582720171" lon="9.961808425514596"><ele>87.33333333333333</ele><time>2026-05-03T07:34:20.901Z</time></trkpt><trkpt lat="45.42606169098694" lon="9.961818725138043"><ele>87.16666666666667</ele><time>2026-05-03T07:34:22.9Z</time></trkpt><trkpt lat="45.4261266598302" lon="9.961830153283133"><ele>87.0</ele><time>2026-05-03T07:34:23.9Z</time></trkpt><trkpt lat="45.42619724339553" lon="9.96184466909682"><ele>87.0</ele><time>2026-05-03T07:34:24.9Z</time></trkpt><trkpt lat="45.42627351765839" lon="9.9618546763512"><ele>87.0</ele><time>2026-05-03T07:34:25.899Z</time></trkpt><trkpt lat="45.42634380348832" lon="9.961863684259656"><ele>87.0</ele><time>2026-05-03T07:34:26.899Z</time></trkpt><trkpt lat="45.426412995935365" lon="9.961872119997436"><ele>87.0</ele><time>2026-05-03T07:34:27.899Z</time></trkpt><trkpt lat="45.426479482129025" lon="9.961883490026876"><ele>87.0</ele><time>2026-05-03T07:34:28.899Z</time></trkpt><trkpt lat="45.42654960392596" lon="9.961889598871814"><ele>87.0</ele><time>2026-05-03T07:34:29.899Z</time></trkpt><trkpt lat="45.42661592867411" lon="9.961900942818675"><ele>87.0</ele><time>2026-05-03T07:34:30.898Z</time></trkpt><trkpt lat="45.42668049609986" lon="9.961911161257126"><ele>87.0</ele><time>2026-05-03T07:34:31.898Z</time></trkpt><trkpt lat="45.42674741042267" lon="9.96191796959371"><ele>87.0</ele><time>2026-05-03T07:34:32.898Z</time></trkpt><trkpt lat="45.426814191928635" lon="9.96192726647349"><ele>87.0</ele><time>2026-05-03T07:34:33.898Z</time></trkpt><trkpt lat="45.426883450700686" lon="9.961936985200426"><ele>87.0</ele><time>2026-05-03T07:34:34.898Z</time></trkpt><trkpt lat="45.42695097348884" lon="9.961945101102176"><ele>87.0</ele><time>2026-05-03T07:34:35.898Z</time></trkpt><trkpt lat="45.42701645314538" lon="9.961957204665065"><ele>87.0</ele><time>2026-05-03T07:34:36.897Z</time></trkpt><trkpt lat="45.427082435667955" lon="9.961967489673652"><ele>87.0</ele><time>2026-05-03T07:34:37.897Z</time></trkpt><trkpt lat="45.427148617563915" lon="9.961978976390824"><ele>87.0</ele><time>2026-05-03T07:34:38.897Z</time></trkpt><trkpt lat="45.42721767129871" lon="9.961992537553964"><ele>87.0</ele><time>2026-05-03T07:34:39.897Z</time></trkpt><trkpt lat="45.42728214768519" lon="9.96199987605133"><ele>87.0</ele><time>2026-05-03T07:34:40.897Z</time></trkpt><trkpt lat="45.42734710966393" lon="9.962006810295842"><ele>87.0</ele><time>2026-05-03T07:34:41.897Z</time></trkpt><trkpt lat="45.427413719676714" lon="9.962014262744479"><ele>87.0</ele><time>2026-05-03T07:34:42.897Z</time></trkpt><trkpt lat="45.427482739923796" lon="9.962021772351607"><ele>87.0</ele><time>2026-05-03T07:34:43.897Z</time></trkpt><trkpt lat="45.42754973199933" lon="9.962029678467983"><ele>87.0</ele><time>2026-05-03T07:34:44.897Z</time></trkpt><trkpt lat="45.427615888569875" lon="9.962035117327131"><ele>87.0</ele><time>2026-05-03T07:34:45.897Z</time></trkpt><trkpt lat="45.4276845446621" lon="9.96204960018959"><ele>87.0</ele><time>2026-05-03T07:34:46.896Z</time></trkpt><trkpt lat="45.427751511567166" lon="9.962057581561181"><ele>87.0</ele><time>2026-05-03T07:34:47.896Z</time></trkpt><trkpt lat="45.42781686958615" lon="9.962064907239562"><ele>87.0</ele><time>2026-05-03T07:34:48.896Z</time></trkpt><trkpt lat="45.42788228964235" lon="9.962074835451249"><ele>87.0</ele><time>2026-05-03T07:34:49.896Z</time></trkpt><trkpt lat="45.4279495090663" lon="9.962084424943898"><ele>87.0</ele><time>2026-05-03T07:34:50.896Z</time></trkpt><trkpt lat="45.42801534037975" lon="9.96208946243681"><ele>87.0</ele><time>2026-05-03T07:34:51.896Z</time></trkpt><trkpt lat="45.42814291104805" lon="9.962102951046237"><ele>86.85714285714286</ele><time>2026-05-03T07:34:53.896Z</time></trkpt><trkpt lat="45.42820771305373" lon="9.962115828606464"><ele>86.71428571428572</ele><time>2026-05-03T07:34:54.896Z</time></trkpt><trkpt lat="45.42827143863955" lon="9.962128911768664"><ele>86.57142857142858</ele><time>2026-05-03T07:34:55.896Z</time></trkpt><trkpt lat="45.42833613534545" lon="9.962136601380651"><ele>86.42857142857143</ele><time>2026-05-03T07:34:56.896Z</time></trkpt><trkpt lat="45.42839902911054" lon="9.962142995575233"><ele>86.28571428571429</ele><time>2026-05-03T07:34:57.896Z</time></trkpt><trkpt lat="45.42846475427419" lon="9.962153654891754"><ele>86.14285714285715</ele><time>2026-05-03T07:34:58.896Z</time></trkpt><trkpt lat="45.42853229949404" lon="9.962160741236362"><ele>86.0</ele><time>2026-05-03T07:34:59.896Z</time></trkpt><trkpt lat="45.428657234798486" lon="9.962176269833016"><ele>86.0</ele><time>2026-05-03T07:35:01.895Z</time></trkpt><trkpt lat="45.42872246700294" lon="9.962183921851096"><ele>86.0</ele><time>2026-05-03T07:35:02.895Z</time></trkpt><trkpt lat="45.42878653161533" lon="9.962189969534096"><ele>86.0</ele><time>2026-05-03T07:35:03.895Z</time></trkpt><trkpt lat="45.428908379770796" lon="9.962202830052808"><ele>86.0</ele><time>2026-05-03T07:35:05.895Z</time></trkpt><trkpt lat="45.4289741864541" lon="9.962212663652934"><ele>86.0</ele><time>2026-05-03T07:35:06.895Z</time></trkpt><trkpt lat="45.42910099493605" lon="9.962227063149996"><ele>86.0</ele><time>2026-05-03T07:35:08.895Z</time></trkpt><trkpt lat="45.429224781524994" lon="9.962235915742658"><ele>86.4</ele><time>2026-05-03T07:35:10.895Z</time></trkpt><trkpt lat="45.42934947348001" lon="9.96225203922964"><ele>86.8</ele><time>2026-05-03T07:35:12.895Z</time></trkpt><trkpt lat="45.42947428439568" lon="9.962268696072758"><ele>87.2</ele><time>2026-05-03T07:35:14.895Z</time></trkpt><trkpt lat="45.429536701292065" lon="9.962281689656177"><ele>87.60000000000001</ele><time>2026-05-03T07:35:15.895Z</time></trkpt><trkpt lat="45.42960095204741" lon="9.962291477611652"><ele>88.0</ele><time>2026-05-03T07:35:16.895Z</time></trkpt><trkpt lat="45.4297259648401" lon="9.96230542488851"><ele>88.0</ele><time>2026-05-03T07:35:18.895Z</time></trkpt><trkpt lat="45.429791143037136" lon="9.962312945742012"><ele>88.0</ele><time>2026-05-03T07:35:19.895Z</time></trkpt><trkpt lat="45.42985356363564" lon="9.962326301874153"><ele>88.0</ele><time>2026-05-03T07:35:20.895Z</time></trkpt><trkpt lat="45.429916892188345" lon="9.96233469700521"><ele>88.0</ele><time>2026-05-03T07:35:21.895Z</time></trkpt><trkpt lat="45.42998297480538" lon="9.962341138447092"><ele>88.0</ele><time>2026-05-03T07:35:22.895Z</time></trkpt><trkpt lat="45.43004917690285" lon="9.96234980943818"><ele>88.0</ele><time>2026-05-03T07:35:23.895Z</time></trkpt><trkpt lat="45.4301178741582" lon="9.962358829119358"><ele>88.0</ele><time>2026-05-03T07:35:24.895Z</time></trkpt><trkpt lat="45.430184846729716" lon="9.962367120042439"><ele>88.0</ele><time>2026-05-03T07:35:25.894Z</time></trkpt><trkpt lat="45.430251381170855" lon="9.96237156385372"><ele>88.0</ele><time>2026-05-03T07:35:26.894Z</time></trkpt><trkpt lat="45.4303177526935" lon="9.96237143539837"><ele>88.0</ele><time>2026-05-03T07:35:27.894Z</time></trkpt><trkpt lat="45.430387187602555" lon="9.962369632131622"><ele>88.0</ele><time>2026-05-03T07:35:28.894Z</time></trkpt><trkpt lat="45.430454898018525" lon="9.962372037972008"><ele>88.0</ele><time>2026-05-03T07:35:29.894Z</time></trkpt><trkpt lat="45.43052232903591" lon="9.962377897843105"><ele>88.0</ele><time>2026-05-03T07:35:30.894Z</time></trkpt><trkpt lat="45.43059090015707" lon="9.962389756948905"><ele>88.0</ele><time>2026-05-03T07:35:31.894Z</time></trkpt><trkpt lat="45.43065788009141" lon="9.962408887871465"><ele>88.0</ele><time>2026-05-03T07:35:32.894Z</time></trkpt><trkpt lat="45.43072695773383" lon="9.962422608711137"><ele>88.0</ele><time>2026-05-03T07:35:33.894Z</time></trkpt><trkpt lat="45.43079673586401" lon="9.962440323098201"><ele>88.0</ele><time>2026-05-03T07:35:34.894Z</time></trkpt><trkpt lat="45.43092960821044" lon="9.962459168366605"><ele>88.0</ele><time>2026-05-03T07:35:36.894Z</time></trkpt><trkpt lat="45.43100041813118" lon="9.962476742537477"><ele>88.0</ele><time>2026-05-03T07:35:37.894Z</time></trkpt><trkpt lat="45.43106815016652" lon="9.962487335131247"><ele>88.0</ele><time>2026-05-03T07:35:38.894Z</time></trkpt><trkpt lat="45.43113437383056" lon="9.962493582148142"><ele>88.0</ele><time>2026-05-03T07:35:39.894Z</time></trkpt><trkpt lat="45.43120232586144" lon="9.96250618837899"><ele>88.0</ele><time>2026-05-03T07:35:40.894Z</time></trkpt><trkpt lat="45.43126798700589" lon="9.962514559271774"><ele>88.0</ele><time>2026-05-03T07:35:41.894Z</time></trkpt><trkpt lat="45.43133779363166" lon="9.962526143393948"><ele>88.0</ele><time>2026-05-03T07:35:42.894Z</time></trkpt><trkpt lat="45.431407545372004" lon="9.962529747884874"><ele>88.0</ele><time>2026-05-03T07:35:43.894Z</time></trkpt><trkpt lat="45.43147554326385" lon="9.962538112767138"><ele>88.0</ele><time>2026-05-03T07:35:44.894Z</time></trkpt><trkpt lat="45.43154212065174" lon="9.962550091371309"><ele>88.0</ele><time>2026-05-03T07:35:45.894Z</time></trkpt><trkpt lat="45.43161071753932" lon="9.9625617836667"><ele>88.14285714285714</ele><time>2026-05-03T07:35:46.894Z</time></trkpt><trkpt lat="45.431678305837046" lon="9.96257106640865"><ele>88.28571428571428</ele><time>2026-05-03T07:35:47.894Z</time></trkpt><trkpt lat="45.43174651464864" lon="9.96258100345775"><ele>88.42857142857142</ele><time>2026-05-03T07:35:48.894Z</time></trkpt><trkpt lat="45.43181345626484" lon="9.962586902723602"><ele>88.57142857142857</ele><time>2026-05-03T07:35:49.895Z</time></trkpt><trkpt lat="45.431883006107384" lon="9.962597105648463"><ele>88.71428571428571</ele><time>2026-05-03T07:35:50.894Z</time></trkpt><trkpt lat="45.43195118695735" lon="9.962607000798815"><ele>88.85714285714285</ele><time>2026-05-03T07:35:51.894Z</time></trkpt><trkpt lat="45.43201974430988" lon="9.962617922278644"><ele>89.0</ele><time>2026-05-03T07:35:52.894Z</time></trkpt><trkpt lat="45.43208571846835" lon="9.962625429934745"><ele>89.14285714285714</ele><time>2026-05-03T07:35:53.895Z</time></trkpt><trkpt lat="45.43215264203657" lon="9.962632325982574"><ele>89.28571428571428</ele><time>2026-05-03T07:35:54.895Z</time></trkpt><trkpt lat="45.432219171421025" lon="9.96263988066871"><ele>89.42857142857142</ele><time>2026-05-03T07:35:55.894Z</time></trkpt><trkpt lat="45.432285565923955" lon="9.962649371139664"><ele>89.57142857142857</ele><time>2026-05-03T07:35:56.894Z</time></trkpt><trkpt lat="45.432352437333215" lon="9.96265835387131"><ele>89.71428571428572</ele><time>2026-05-03T07:35:57.894Z</time></trkpt><trkpt lat="45.432419420740906" lon="9.96266176688036"><ele>89.85714285714285</ele><time>2026-05-03T07:35:58.894Z</time></trkpt><trkpt lat="45.432488742683226" lon="9.962667014219571"><ele>90.0</ele><time>2026-05-03T07:35:59.895Z</time></trkpt><trkpt lat="45.43255594040037" lon="9.9626773799545"><ele>90.0</ele><time>2026-05-03T07:36:00.895Z</time></trkpt><trkpt lat="45.43262288506012" lon="9.962691401741235"><ele>90.0</ele><time>2026-05-03T07:36:01.894Z</time></trkpt><trkpt lat="45.43269385515683" lon="9.962701160977629"><ele>90.0</ele><time>2026-05-03T07:36:02.894Z</time></trkpt><trkpt lat="45.43276080909711" lon="9.962710249555501"><ele>90.0</ele><time>2026-05-03T07:36:03.894Z</time></trkpt><trkpt lat="45.43282901385405" lon="9.962723017188585"><ele>90.0</ele><time>2026-05-03T07:36:04.894Z</time></trkpt><trkpt lat="45.432897194534604" lon="9.96273327741347"><ele>90.0</ele><time>2026-05-03T07:36:05.894Z</time></trkpt><trkpt lat="45.432965103311005" lon="9.962742273526807"><ele>90.0</ele><time>2026-05-03T07:36:06.894Z</time></trkpt><trkpt lat="45.433033219468136" lon="9.962751237588554"><ele>90.0</ele><time>2026-05-03T07:36:07.894Z</time></trkpt><trkpt lat="45.433101475522164" lon="9.962760778766125"><ele>90.0</ele><time>2026-05-03T07:36:08.894Z</time></trkpt><trkpt lat="45.43322572181122" lon="9.962765601634953"><ele>90.0</ele><time>2026-05-03T07:36:10.894Z</time></trkpt><trkpt lat="45.43334173433733" lon="9.962785956594281"><ele>90.0</ele><time>2026-05-03T07:36:12.894Z</time></trkpt><trkpt lat="45.4334656967376" lon="9.962798826598599"><ele>90.0</ele><time>2026-05-03T07:36:14.894Z</time></trkpt><trkpt lat="45.43353660479821" lon="9.962807561317502"><ele>90.0</ele><time>2026-05-03T07:36:15.894Z</time></trkpt><trkpt lat="45.433605365502444" lon="9.962816466305892"><ele>90.0</ele><time>2026-05-03T07:36:16.894Z</time></trkpt><trkpt lat="45.43367291895263" lon="9.962825077559323"><ele>90.0</ele><time>2026-05-03T07:36:17.894Z</time></trkpt><trkpt lat="45.433739553058686" lon="9.962831949398078"><ele>90.0</ele><time>2026-05-03T07:36:18.894Z</time></trkpt><trkpt lat="45.43380691068591" lon="9.962842935863765"><ele>90.0</ele><time>2026-05-03T07:36:19.894Z</time></trkpt><trkpt lat="45.43387260798672" lon="9.962852141314139"><ele>90.0</ele><time>2026-05-03T07:36:20.894Z</time></trkpt><trkpt lat="45.43394232880304" lon="9.962856703151806"><ele>90.0</ele><time>2026-05-03T07:36:21.894Z</time></trkpt><trkpt lat="45.434008294073706" lon="9.96286427501235"><ele>90.0</ele><time>2026-05-03T07:36:22.894Z</time></trkpt><trkpt lat="45.434076984218116" lon="9.962880077015347"><ele>90.0</ele><time>2026-05-03T07:36:23.894Z</time></trkpt><trkpt lat="45.43414517197607" lon="9.96289111699588"><ele>90.0</ele><time>2026-05-03T07:36:24.894Z</time></trkpt><trkpt lat="45.43421130381002" lon="9.962895670124906"><ele>90.0</ele><time>2026-05-03T07:36:25.894Z</time></trkpt><trkpt lat="45.43427813047824" lon="9.962900159873824"><ele>90.0</ele><time>2026-05-03T07:36:26.894Z</time></trkpt><trkpt lat="45.4343432088186" lon="9.962906029202502"><ele>90.0</ele><time>2026-05-03T07:36:27.893Z</time></trkpt><trkpt lat="45.434408958931606" lon="9.962916667975263"><ele>90.0</ele><time>2026-05-03T07:36:28.893Z</time></trkpt><trkpt lat="45.43447366044984" lon="9.962925943168544"><ele>90.0</ele><time>2026-05-03T07:36:29.893Z</time></trkpt><trkpt lat="45.43453766849689" lon="9.962934840747474"><ele>90.0</ele><time>2026-05-03T07:36:30.893Z</time></trkpt><trkpt lat="45.43460166075395" lon="9.962942174820947"><ele>90.0</ele><time>2026-05-03T07:36:31.893Z</time></trkpt><trkpt lat="45.434669807118794" lon="9.962950151530055"><ele>90.0</ele><time>2026-05-03T07:36:32.893Z</time></trkpt><trkpt lat="45.43473534977901" lon="9.962960106433218"><ele>90.0</ele><time>2026-05-03T07:36:33.893Z</time></trkpt><trkpt lat="45.43479953657933" lon="9.962973558309718"><ele>90.0</ele><time>2026-05-03T07:36:34.893Z</time></trkpt><trkpt lat="45.43486807823038" lon="9.962984193217265"><ele>90.0</ele><time>2026-05-03T07:36:35.893Z</time></trkpt><trkpt lat="45.43493511280646" lon="9.962989284696622"><ele>90.14285714285714</ele><time>2026-05-03T07:36:36.893Z</time></trkpt><trkpt lat="45.43500169712454" lon="9.962982682319298"><ele>90.28571428571429</ele><time>2026-05-03T07:36:37.893Z</time></trkpt><trkpt lat="45.43506864201624" lon="9.962962237966797"><ele>90.42857142857143</ele><time>2026-05-03T07:36:38.893Z</time></trkpt><trkpt lat="45.435132696037165" lon="9.962929054062029"><ele>90.57142857142857</ele><time>2026-05-03T07:36:39.893Z</time></trkpt><trkpt lat="45.435185532386186" lon="9.962873900642563"><ele>90.71428571428572</ele><time>2026-05-03T07:36:40.893Z</time></trkpt><trkpt lat="45.435228054457696" lon="9.962799425072316"><ele>90.85714285714286</ele><time>2026-05-03T07:36:41.893Z</time></trkpt><trkpt lat="45.435261571374795" lon="9.962722221439963"><ele>91.0</ele><time>2026-05-03T07:36:42.893Z</time></trkpt><trkpt lat="45.435285962938266" lon="9.962545633788132"><ele>90.85714285714286</ele><time>2026-05-03T07:36:44.893Z</time></trkpt><trkpt lat="45.43528733077958" lon="9.9624391477058"><ele>90.71428571428572</ele><time>2026-05-03T07:36:45.893Z</time></trkpt><trkpt lat="45.43529164905699" lon="9.96233875161809"><ele>90.57142857142857</ele><time>2026-05-03T07:36:46.893Z</time></trkpt><trkpt lat="45.43529979132336" lon="9.962242000155342"><ele>90.42857142857143</ele><time>2026-05-03T07:36:47.893Z</time></trkpt><trkpt lat="45.43530362090849" lon="9.962152447032617"><ele>90.28571428571429</ele><time>2026-05-03T07:36:48.893Z</time></trkpt><trkpt lat="45.4353086205416" lon="9.962053706071822"><ele>90.14285714285714</ele><time>2026-05-03T07:36:49.893Z</time></trkpt><trkpt lat="45.4353182687818" lon="9.961955434008159"><ele>90.0</ele><time>2026-05-03T07:36:50.893Z</time></trkpt><trkpt lat="45.43532335126947" lon="9.961854685870586"><ele>90.0</ele><time>2026-05-03T07:36:51.893Z</time></trkpt><trkpt lat="45.43532987687428" lon="9.961754329433212"><ele>90.0</ele><time>2026-05-03T07:36:52.893Z</time></trkpt><trkpt lat="45.43533440021336" lon="9.961657350188773"><ele>90.0</ele><time>2026-05-03T07:36:53.893Z</time></trkpt><trkpt lat="45.43533935150622" lon="9.96155605911397"><ele>90.0</ele><time>2026-05-03T07:36:54.893Z</time></trkpt><trkpt lat="45.435342628175334" lon="9.961462585886702"><ele>90.0</ele><time>2026-05-03T07:36:55.893Z</time></trkpt><trkpt lat="45.435344392094265" lon="9.961367705965555"><ele>90.0</ele><time>2026-05-03T07:36:56.893Z</time></trkpt><trkpt lat="45.43535254081762" lon="9.961273676521131"><ele>90.0</ele><time>2026-05-03T07:36:57.893Z</time></trkpt><trkpt lat="45.43535299039177" lon="9.961176379528567"><ele>90.0</ele><time>2026-05-03T07:36:58.892Z</time></trkpt><trkpt lat="45.43535882544805" lon="9.961076906526616"><ele>90.0</ele><time>2026-05-03T07:36:59.892Z</time></trkpt><trkpt lat="45.435369650937275" lon="9.960982354450309"><ele>90.0</ele><time>2026-05-03T07:37:00.892Z</time></trkpt><trkpt lat="45.43537324274211" lon="9.9608799461826"><ele>90.0</ele><time>2026-05-03T07:37:01.892Z</time></trkpt><trkpt lat="45.43537839613913" lon="9.960780309185928"><ele>90.0</ele><time>2026-05-03T07:37:02.892Z</time></trkpt><trkpt lat="45.43538957206212" lon="9.96067677791052"><ele>90.0</ele><time>2026-05-03T07:37:03.892Z</time></trkpt><trkpt lat="45.435392683245595" lon="9.960578738090993"><ele>90.0</ele><time>2026-05-03T07:37:04.892Z</time></trkpt><trkpt lat="45.43539861879823" lon="9.96048354200896"><ele>90.0</ele><time>2026-05-03T07:37:05.892Z</time></trkpt><trkpt lat="45.43540214981869" lon="9.960385819376155"><ele>90.0</ele><time>2026-05-03T07:37:06.892Z</time></trkpt><trkpt lat="45.43541031885278" lon="9.96028582619999"><ele>90.0</ele><time>2026-05-03T07:37:07.892Z</time></trkpt><trkpt lat="45.43541550506274" lon="9.96018353061928"><ele>90.0</ele><time>2026-05-03T07:37:08.892Z</time></trkpt><trkpt lat="45.43542242606285" lon="9.960089274629713"><ele>90.0</ele><time>2026-05-03T07:37:09.892Z</time></trkpt><trkpt lat="45.43542794285754" lon="9.959992335184525"><ele>90.0</ele><time>2026-05-03T07:37:10.892Z</time></trkpt><trkpt lat="45.43543091149161" lon="9.959892772191965"><ele>90.0</ele><time>2026-05-03T07:37:11.892Z</time></trkpt><trkpt lat="45.43543782582444" lon="9.959792217437833"><ele>89.85714285714285</ele><time>2026-05-03T07:37:12.892Z</time></trkpt><trkpt lat="45.435443630513845" lon="9.959690964327578"><ele>89.71428571428572</ele><time>2026-05-03T07:37:13.892Z</time></trkpt><trkpt lat="45.43544954674976" lon="9.959589505139187"><ele>89.57142857142857</ele><time>2026-05-03T07:37:14.892Z</time></trkpt><trkpt lat="45.43545406770685" lon="9.959488599020656"><ele>89.42857142857142</ele><time>2026-05-03T07:37:15.892Z</time></trkpt><trkpt lat="45.43545843028308" lon="9.959388865352592"><ele>89.28571428571428</ele><time>2026-05-03T07:37:16.892Z</time></trkpt><trkpt lat="45.435463573826176" lon="9.959284665329307"><ele>89.14285714285714</ele><time>2026-05-03T07:37:17.892Z</time></trkpt><trkpt lat="45.43546929759674" lon="9.959187543302678"><ele>89.0</ele><time>2026-05-03T07:37:18.892Z</time></trkpt><trkpt lat="45.435476749072585" lon="9.959085344636023"><ele>88.99999999999999</ele><time>2026-05-03T07:37:19.892Z</time></trkpt><trkpt lat="45.435482995534166" lon="9.958984880813123"><ele>89.0</ele><time>2026-05-03T07:37:20.892Z</time></trkpt><trkpt lat="45.435488432770704" lon="9.958885052030546"><ele>89.0</ele><time>2026-05-03T07:37:21.892Z</time></trkpt><trkpt lat="45.4354931661905" lon="9.958783916190518"><ele>89.0</ele><time>2026-05-03T07:37:22.892Z</time></trkpt><trkpt lat="45.4355003925738" lon="9.958683923377407"><ele>89.0</ele><time>2026-05-03T07:37:23.892Z</time></trkpt><trkpt lat="45.4355050020728" lon="9.95858057160592"><ele>88.99999999999999</ele><time>2026-05-03T07:37:24.892Z</time></trkpt><trkpt lat="45.4355108190204" lon="9.958482567299521"><ele>89.0</ele><time>2026-05-03T07:37:25.892Z</time></trkpt><trkpt lat="45.43551934119793" lon="9.958378001330333"><ele>89.28571428571428</ele><time>2026-05-03T07:37:26.892Z</time></trkpt><trkpt lat="45.43552770007192" lon="9.95827865166964"><ele>89.57142857142857</ele><time>2026-05-03T07:37:27.892Z</time></trkpt><trkpt lat="45.43553263283575" lon="9.95818088556313"><ele>89.85714285714286</ele><time>2026-05-03T07:37:28.892Z</time></trkpt><trkpt lat="45.4355369687623" lon="9.958082849724075"><ele>90.14285714285714</ele><time>2026-05-03T07:37:29.891Z</time></trkpt><trkpt lat="45.43554446436593" lon="9.957984395642336"><ele>90.42857142857143</ele><time>2026-05-03T07:37:30.891Z</time></trkpt><trkpt lat="45.435550545878634" lon="9.957886935823778"><ele>90.71428571428571</ele><time>2026-05-03T07:37:31.891Z</time></trkpt><trkpt lat="45.435557948694104" lon="9.95779017987578"><ele>91.0</ele><time>2026-05-03T07:37:32.891Z</time></trkpt><trkpt lat="45.435561730155484" lon="9.957689997986035"><ele>91.0</ele><time>2026-05-03T07:37:33.891Z</time></trkpt><trkpt lat="45.43556763399873" lon="9.95758856147408"><ele>91.0</ele><time>2026-05-03T07:37:34.891Z</time></trkpt><trkpt lat="45.435571793161486" lon="9.957484568730068"><ele>91.0</ele><time>2026-05-03T07:37:35.891Z</time></trkpt><trkpt lat="45.43557732548861" lon="9.957381440590236"><ele>91.0</ele><time>2026-05-03T07:37:36.891Z</time></trkpt><trkpt lat="45.43558702952087" lon="9.957279986917868"><ele>91.0</ele><time>2026-05-03T07:37:37.891Z</time></trkpt><trkpt lat="45.435591559683076" lon="9.957174113258542"><ele>91.0</ele><time>2026-05-03T07:37:38.891Z</time></trkpt><trkpt lat="45.43559456962543" lon="9.957072622003516"><ele>91.0</ele><time>2026-05-03T07:37:39.891Z</time></trkpt><trkpt lat="45.43560012759313" lon="9.956971373612708"><ele>91.0</ele><time>2026-05-03T07:37:40.891Z</time></trkpt><trkpt lat="45.4356102934721" lon="9.956871676909905"><ele>91.0</ele><time>2026-05-03T07:37:41.891Z</time></trkpt><trkpt lat="45.43561834305414" lon="9.95677105208654"><ele>91.0</ele><time>2026-05-03T07:37:42.891Z</time></trkpt><trkpt lat="45.43562501045757" lon="9.956669812627577"><ele>91.0</ele><time>2026-05-03T07:37:43.891Z</time></trkpt><trkpt lat="45.43563326497892" lon="9.956568651289034"><ele>91.0</ele><time>2026-05-03T07:37:44.891Z</time></trkpt><trkpt lat="45.435639318386826" lon="9.95647707255675"><ele>91.0</ele><time>2026-05-03T07:37:45.891Z</time></trkpt><trkpt lat="45.43564927329146" lon="9.956303471589019"><ele>91.0</ele><time>2026-05-03T07:37:47.891Z</time></trkpt><trkpt lat="45.435656758178474" lon="9.956145177574108"><ele>91.0</ele><time>2026-05-03T07:37:49.891Z</time></trkpt><trkpt lat="45.435660887869815" lon="9.956047141727451"><ele>91.0</ele><time>2026-05-03T07:37:50.891Z</time></trkpt><trkpt lat="45.43566705698554" lon="9.955952004810326"><ele>91.0</ele><time>2026-05-03T07:37:51.891Z</time></trkpt><trkpt lat="45.4356737357014" lon="9.955854860890435"><ele>91.0</ele><time>2026-05-03T07:37:52.891Z</time></trkpt><trkpt lat="45.435678591937354" lon="9.955755318458836"><ele>91.0</ele><time>2026-05-03T07:37:53.891Z</time></trkpt><trkpt lat="45.43568515986692" lon="9.955653985566284"><ele>90.85714285714286</ele><time>2026-05-03T07:37:54.891Z</time></trkpt><trkpt lat="45.435691857051594" lon="9.955555035844906"><ele>90.71428571428572</ele><time>2026-05-03T07:37:55.892Z</time></trkpt><trkpt lat="45.43569846937861" lon="9.9554531425493"><ele>90.57142857142857</ele><time>2026-05-03T07:37:56.892Z</time></trkpt><trkpt lat="45.4357042287564" lon="9.955357714648514"><ele>90.42857142857143</ele><time>2026-05-03T07:37:57.892Z</time></trkpt><trkpt lat="45.43571004972785" lon="9.955265230750912"><ele>90.28571428571429</ele><time>2026-05-03T07:37:58.892Z</time></trkpt><trkpt lat="45.43571542682808" lon="9.955169052834652"><ele>90.14285714285714</ele><time>2026-05-03T07:37:59.892Z</time></trkpt><trkpt lat="45.435721075105214" lon="9.955071115461676"><ele>90.0</ele><time>2026-05-03T07:38:00.892Z</time></trkpt><trkpt lat="45.43572633723089" lon="9.954978652813148"><ele>90.33333333333333</ele><time>2026-05-03T07:38:01.892Z</time></trkpt><trkpt lat="45.43573137158597" lon="9.954887241889233"><ele>90.66666666666667</ele><time>2026-05-03T07:38:02.892Z</time></trkpt><trkpt lat="45.43573783486276" lon="9.95479680250293"><ele>91.0</ele><time>2026-05-03T07:38:03.892Z</time></trkpt><trkpt lat="45.43574230636305" lon="9.954610185744222"><ele>91.33333333333334</ele><time>2026-05-03T07:38:05.892Z</time></trkpt><trkpt lat="45.435751763427724" lon="9.954521084684254"><ele>91.66666666666667</ele><time>2026-05-03T07:38:06.892Z</time></trkpt><trkpt lat="45.43575170627832" lon="9.954428065400565"><ele>92.0</ele><time>2026-05-03T07:38:07.892Z</time></trkpt><trkpt lat="45.435771786425185" lon="9.954246555886735"><ele>92.16666666666667</ele><time>2026-05-03T07:38:09.892Z</time></trkpt><trkpt lat="45.43577248139961" lon="9.954151277447405"><ele>92.33333333333334</ele><time>2026-05-03T07:38:10.892Z</time></trkpt><trkpt lat="45.43578586738846" lon="9.953973488967863"><ele>92.5</ele><time>2026-05-03T07:38:12.892Z</time></trkpt><trkpt lat="45.4357912511854" lon="9.953883524183311"><ele>92.66666666666667</ele><time>2026-05-03T07:38:13.892Z</time></trkpt><trkpt lat="45.43579447951765" lon="9.953793125036016"><ele>92.83333333333333</ele><time>2026-05-03T07:38:14.892Z</time></trkpt><trkpt lat="45.43581073631544" lon="9.953632516654919"><ele>93.0</ele><time>2026-05-03T07:38:16.892Z</time></trkpt><trkpt lat="45.435839646483785" lon="9.953485924647758"><ele>93.0</ele><time>2026-05-03T07:38:18.892Z</time></trkpt><trkpt lat="45.4359197427393" lon="9.953405068302379"><ele>93.0</ele><time>2026-05-03T07:38:20.892Z</time></trkpt><trkpt lat="45.436037992588524" lon="9.9534274452953"><ele>93.0</ele><time>2026-05-03T07:38:22.891Z</time></trkpt><trkpt lat="45.43610438740103" lon="9.953449193544312"><ele>93.0</ele><time>2026-05-03T07:38:23.891Z</time></trkpt><trkpt lat="45.43617065620017" lon="9.953468255573677"><ele>93.0</ele><time>2026-05-03T07:38:24.891Z</time></trkpt><trkpt lat="45.43623620215892" lon="9.953469308781306"><ele>93.0</ele><time>2026-05-03T07:38:25.891Z</time></trkpt><trkpt lat="45.43630360384665" lon="9.953478693444419"><ele>93.00000000000001</ele><time>2026-05-03T07:38:26.891Z</time></trkpt><trkpt lat="45.436369739319595" lon="9.95349257565764"><ele>93.0</ele><time>2026-05-03T07:38:27.891Z</time></trkpt><trkpt lat="45.43643534713614" lon="9.953507519689824"><ele>93.0</ele><time>2026-05-03T07:38:28.891Z</time></trkpt><trkpt lat="45.4365014730945" lon="9.953514574211912"><ele>93.0</ele><time>2026-05-03T07:38:29.891Z</time></trkpt><trkpt lat="45.43656847717119" lon="9.953517835763554"><ele>93.0</ele><time>2026-05-03T07:38:30.891Z</time></trkpt><trkpt lat="45.43663495405791" lon="9.953532804076312"><ele>93.00000000000001</ele><time>2026-05-03T07:38:31.891Z</time></trkpt><trkpt lat="45.43669962608957" lon="9.953543544933751"><ele>93.0</ele><time>2026-05-03T07:38:32.891Z</time></trkpt><trkpt lat="45.43676315597935" lon="9.953553836566673"><ele>93.0</ele><time>2026-05-03T07:38:33.891Z</time></trkpt><trkpt lat="45.43682853510198" lon="9.953564330946309"><ele>93.0</ele><time>2026-05-03T07:38:34.891Z</time></trkpt><trkpt lat="45.43695166830643" lon="9.953596343857916"><ele>93.0</ele><time>2026-05-03T07:38:36.891Z</time></trkpt><trkpt lat="45.43701780012284" lon="9.953597949102319"><ele>93.0</ele><time>2026-05-03T07:38:37.891Z</time></trkpt><trkpt lat="45.43714143872112" lon="9.953597601223217"><ele>93.0</ele><time>2026-05-03T07:38:39.891Z</time></trkpt><trkpt lat="45.43726971155722" lon="9.953613008913853"><ele>92.5</ele><time>2026-05-03T07:38:41.891Z</time></trkpt><trkpt lat="45.43733256403007" lon="9.95362916935225"><ele>92.0</ele><time>2026-05-03T07:38:42.891Z</time></trkpt><trkpt lat="45.43745597478072" lon="9.953647212605059"><ele>91.5</ele><time>2026-05-03T07:38:44.891Z</time></trkpt><trkpt lat="45.4375185912062" lon="9.953656583028518"><ele>91.0</ele><time>2026-05-03T07:38:45.891Z</time></trkpt><trkpt lat="45.437643764932304" lon="9.953677413241055"><ele>90.5</ele><time>2026-05-03T07:38:47.891Z</time></trkpt><trkpt lat="45.437706411257025" lon="9.953689536241509"><ele>90.0</ele><time>2026-05-03T07:38:48.891Z</time></trkpt><trkpt lat="45.43777291966148" lon="9.953698121516265"><ele>90.0</ele><time>2026-05-03T07:38:49.891Z</time></trkpt><trkpt lat="45.4378375274472" lon="9.953708516388192"><ele>90.0</ele><time>2026-05-03T07:38:50.891Z</time></trkpt><trkpt lat="45.43796476157884" lon="9.95372794881793"><ele>90.0</ele><time>2026-05-03T07:38:52.891Z</time></trkpt><trkpt lat="45.43802965281305" lon="9.953734242941781"><ele>90.0</ele><time>2026-05-03T07:38:53.89Z</time></trkpt><trkpt lat="45.4380932199062" lon="9.95374641649045"><ele>90.0</ele><time>2026-05-03T07:38:54.89Z</time></trkpt><trkpt lat="45.43821762401971" lon="9.953772802403211"><ele>90.0</ele><time>2026-05-03T07:38:56.89Z</time></trkpt><trkpt lat="45.43828092701917" lon="9.953784103665328"><ele>90.4</ele><time>2026-05-03T07:38:57.89Z</time></trkpt><trkpt lat="45.43839842007765" lon="9.953805901054535"><ele>90.8</ele><time>2026-05-03T07:38:59.89Z</time></trkpt><trkpt lat="45.43846241964374" lon="9.953818492119531"><ele>91.19999999999999</ele><time>2026-05-03T07:39:00.89Z</time></trkpt><trkpt lat="45.43858600845123" lon="9.953846229744817"><ele>91.6</ele><time>2026-05-03T07:39:02.89Z</time></trkpt><trkpt lat="45.43864971371726" lon="9.953861485409329"><ele>92.0</ele><time>2026-05-03T07:39:03.89Z</time></trkpt><trkpt lat="45.43878022895695" lon="9.953882210268901"><ele>92.0</ele><time>2026-05-03T07:39:05.89Z</time></trkpt><trkpt lat="45.43884303433861" lon="9.953892369591077"><ele>92.0</ele><time>2026-05-03T07:39:06.89Z</time></trkpt><trkpt lat="45.43891283446816" lon="9.953903982220172"><ele>92.0</ele><time>2026-05-03T07:39:07.89Z</time></trkpt><trkpt lat="45.43903951263358" lon="9.953930577445005"><ele>92.0</ele><time>2026-05-03T07:39:09.89Z</time></trkpt><trkpt lat="45.439107349668376" lon="9.95394682429097"><ele>92.0</ele><time>2026-05-03T07:39:10.89Z</time></trkpt><trkpt lat="45.439172065487504" lon="9.953961787264081"><ele>92.0</ele><time>2026-05-03T07:39:11.89Z</time></trkpt><trkpt lat="45.439240776909415" lon="9.953979226830988"><ele>92.0</ele><time>2026-05-03T07:39:12.89Z</time></trkpt><trkpt lat="45.4393086823041" lon="9.953994033545127"><ele>92.0</ele><time>2026-05-03T07:39:13.89Z</time></trkpt><trkpt lat="45.43937774964384" lon="9.954005453934956"><ele>92.0</ele><time>2026-05-03T07:39:14.89Z</time></trkpt><trkpt lat="45.439446954005135" lon="9.954018706390208"><ele>92.0</ele><time>2026-05-03T07:39:15.89Z</time></trkpt><trkpt lat="45.439516072794916" lon="9.954035812153405"><ele>92.0</ele><time>2026-05-03T07:39:16.89Z</time></trkpt><trkpt lat="45.4395818748378" lon="9.954046290229817"><ele>92.0</ele><time>2026-05-03T07:39:17.89Z</time></trkpt><trkpt lat="45.43965103248292" lon="9.954060094626382"><ele>92.0</ele><time>2026-05-03T07:39:18.89Z</time></trkpt><trkpt lat="45.4397184457023" lon="9.954071414585771"><ele>91.83333333333334</ele><time>2026-05-03T07:39:19.89Z</time></trkpt><trkpt lat="45.43978770681916" lon="9.954080085491828"><ele>91.66666666666667</ele><time>2026-05-03T07:39:20.89Z</time></trkpt><trkpt lat="45.439855638324616" lon="9.954092221846015"><ele>91.5</ele><time>2026-05-03T07:39:21.89Z</time></trkpt><trkpt lat="45.439924172932066" lon="9.954108239075792"><ele>91.33333333333333</ele><time>2026-05-03T07:39:22.89Z</time></trkpt><trkpt lat="45.439990156891845" lon="9.954119021371142"><ele>91.16666666666666</ele><time>2026-05-03T07:39:23.89Z</time></trkpt><trkpt lat="45.44005291309817" lon="9.954131684412376"><ele>91.0</ele><time>2026-05-03T07:39:24.889Z</time></trkpt><trkpt lat="45.44017619546954" lon="9.954156032117202"><ele>91.0</ele><time>2026-05-03T07:39:26.889Z</time></trkpt><trkpt lat="45.44030000605176" lon="9.954169078818639"><ele>91.0</ele><time>2026-05-03T07:39:28.889Z</time></trkpt><trkpt lat="45.44037451509088" lon="9.954177266161766"><ele>91.0</ele><time>2026-05-03T07:39:29.889Z</time></trkpt><trkpt lat="45.44043707361051" lon="9.954189460755185"><ele>91.0</ele><time>2026-05-03T07:39:30.889Z</time></trkpt><trkpt lat="45.440502472695314" lon="9.954195812461055"><ele>91.0</ele><time>2026-05-03T07:39:31.889Z</time></trkpt><trkpt lat="45.4406328848535" lon="9.954217709718474"><ele>91.33333333333333</ele><time>2026-05-03T07:39:33.889Z</time></trkpt><trkpt lat="45.44070105492419" lon="9.954231596595037"><ele>91.66666666666666</ele><time>2026-05-03T07:39:34.889Z</time></trkpt><trkpt lat="45.440832367870485" lon="9.954253844927049"><ele>92.0</ele><time>2026-05-03T07:39:36.889Z</time></trkpt><trkpt lat="45.44089934206923" lon="9.954265863780963"><ele>92.33333333333333</ele><time>2026-05-03T07:39:37.889Z</time></trkpt><trkpt lat="45.44097067367308" lon="9.954275895736602"><ele>92.66666666666667</ele><time>2026-05-03T07:39:38.889Z</time></trkpt><trkpt lat="45.441037761866276" lon="9.954279403240832"><ele>93.0</ele><time>2026-05-03T07:39:39.889Z</time></trkpt><trkpt lat="45.44110917029057" lon="9.954285039824656"><ele>93.00000000000001</ele><time>2026-05-03T07:39:40.889Z</time></trkpt><trkpt lat="45.44117875786798" lon="9.954294118780505"><ele>93.0</ele><time>2026-05-03T07:39:41.889Z</time></trkpt><trkpt lat="45.44124872560689" lon="9.954305506122532"><ele>93.0</ele><time>2026-05-03T07:39:42.889Z</time></trkpt><trkpt lat="45.44131689524473" lon="9.954318407994352"><ele>93.0</ele><time>2026-05-03T07:39:43.889Z</time></trkpt><trkpt lat="45.44138463094509" lon="9.95432519459031"><ele>93.0</ele><time>2026-05-03T07:39:44.889Z</time></trkpt><trkpt lat="45.44145191269994" lon="9.954328716819594"><ele>93.00000000000001</ele><time>2026-05-03T07:39:45.889Z</time></trkpt><trkpt lat="45.44152044904469" lon="9.954333715606769"><ele>93.0</ele><time>2026-05-03T07:39:46.889Z</time></trkpt><trkpt lat="45.44158811529275" lon="9.954341314226925"><ele>92.85714285714286</ele><time>2026-05-03T07:39:47.889Z</time></trkpt><trkpt lat="45.44165716086241" lon="9.954350671816892"><ele>92.71428571428572</ele><time>2026-05-03T07:39:48.889Z</time></trkpt><trkpt lat="45.44172182334861" lon="9.954363385803866"><ele>92.57142857142858</ele><time>2026-05-03T07:39:49.889Z</time></trkpt><trkpt lat="45.441789550042024" lon="9.95437877530457"><ele>92.42857142857143</ele><time>2026-05-03T07:39:50.889Z</time></trkpt><trkpt lat="45.441857600499" lon="9.954392319862983"><ele>92.28571428571428</ele><time>2026-05-03T07:39:51.889Z</time></trkpt><trkpt lat="45.441927798077096" lon="9.954400928984352"><ele>92.14285714285715</ele><time>2026-05-03T07:39:52.889Z</time></trkpt><trkpt lat="45.44199569863473" lon="9.954406810296351"><ele>92.0</ele><time>2026-05-03T07:39:53.889Z</time></trkpt><trkpt lat="45.442064622058346" lon="9.954413793805518"><ele>92.0</ele><time>2026-05-03T07:39:54.889Z</time></trkpt><trkpt lat="45.44213375247355" lon="9.954424733600558"><ele>92.0</ele><time>2026-05-03T07:39:55.888Z</time></trkpt><trkpt lat="45.44225367161587" lon="9.954423874520394"><ele>92.0</ele><time>2026-05-03T07:39:57.888Z</time></trkpt><trkpt lat="45.44236209316912" lon="9.954399544451492"><ele>92.0</ele><time>2026-05-03T07:39:59.888Z</time></trkpt><trkpt lat="45.442471984351386" lon="9.954330248466075"><ele>92.0</ele><time>2026-05-03T07:40:01.889Z</time></trkpt><trkpt lat="45.44259954195539" lon="9.95435289563534"><ele>92.0</ele><time>2026-05-03T07:40:03.889Z</time></trkpt><trkpt lat="45.442664390009924" lon="9.954392633981623"><ele>92.0</ele><time>2026-05-03T07:40:04.889Z</time></trkpt><trkpt lat="45.442728976553084" lon="9.954427707099917"><ele>92.0</ele><time>2026-05-03T07:40:05.889Z</time></trkpt><trkpt lat="45.44279246228037" lon="9.954459921873749"><ele>92.0</ele><time>2026-05-03T07:40:06.889Z</time></trkpt><trkpt lat="45.44285613842694" lon="9.954490038438102"><ele>92.0</ele><time>2026-05-03T07:40:07.889Z</time></trkpt><trkpt lat="45.44292038540042" lon="9.954524827598185"><ele>92.0</ele><time>2026-05-03T07:40:08.889Z</time></trkpt><trkpt lat="45.44298435182578" lon="9.954558358338472"><ele>92.0</ele><time>2026-05-03T07:40:09.889Z</time></trkpt><trkpt lat="45.44304550039557" lon="9.954591825851441"><ele>92.0</ele><time>2026-05-03T07:40:10.889Z</time></trkpt><trkpt lat="45.44310370075115" lon="9.954628919270718"><ele>92.0</ele><time>2026-05-03T07:40:11.889Z</time></trkpt><trkpt lat="45.44316445331111" lon="9.954672211599139"><ele>92.0</ele><time>2026-05-03T07:40:12.889Z</time></trkpt><trkpt lat="45.4432297696158" lon="9.954706763852053"><ele>92.0</ele><time>2026-05-03T07:40:13.889Z</time></trkpt><trkpt lat="45.443292481797805" lon="9.954740245936343"><ele>92.0</ele><time>2026-05-03T07:40:14.889Z</time></trkpt><trkpt lat="45.44335354203456" lon="9.954775467343504"><ele>92.0</ele><time>2026-05-03T07:40:15.889Z</time></trkpt><trkpt lat="45.44341586733182" lon="9.954814401824336"><ele>92.0</ele><time>2026-05-03T07:40:16.889Z</time></trkpt><trkpt lat="45.443532051864885" lon="9.954875380827026"><ele>92.0</ele><time>2026-05-03T07:40:18.889Z</time></trkpt><trkpt lat="45.443595653988424" lon="9.954907671516864"><ele>92.0</ele><time>2026-05-03T07:40:19.888Z</time></trkpt><trkpt lat="45.44366539820803" lon="9.95494186104505"><ele>92.0</ele><time>2026-05-03T07:40:20.888Z</time></trkpt><trkpt lat="45.443728114740594" lon="9.95497742358357"><ele>92.0</ele><time>2026-05-03T07:40:21.888Z</time></trkpt><trkpt lat="45.443791603533526" lon="9.955010674718856"><ele>92.0</ele><time>2026-05-03T07:40:22.888Z</time></trkpt><trkpt lat="45.443854603751745" lon="9.955043117997942"><ele>92.0</ele><time>2026-05-03T07:40:23.888Z</time></trkpt><trkpt lat="45.44391493971179" lon="9.955074544533279"><ele>92.0</ele><time>2026-05-03T07:40:24.888Z</time></trkpt><trkpt lat="45.44397646305695" lon="9.955107818041052"><ele>92.19999999999999</ele><time>2026-05-03T07:40:25.888Z</time></trkpt><trkpt lat="45.444039293409475" lon="9.95514408273745"><ele>92.4</ele><time>2026-05-03T07:40:26.888Z</time></trkpt><trkpt lat="45.44415497685788" lon="9.955215823913237"><ele>92.6</ele><time>2026-05-03T07:40:28.888Z</time></trkpt><trkpt lat="45.44421807519669" lon="9.955249766530766"><ele>92.80000000000001</ele><time>2026-05-03T07:40:29.888Z</time></trkpt><trkpt lat="45.44433632496104" lon="9.955318012468226"><ele>93.0</ele><time>2026-05-03T07:40:31.888Z</time></trkpt><trkpt lat="45.4443989964802" lon="9.95534721834669"><ele>93.00000000000001</ele><time>2026-05-03T07:40:32.888Z</time></trkpt><trkpt lat="45.444460301188656" lon="9.955375004621732"><ele>93.0</ele><time>2026-05-03T07:40:33.888Z</time></trkpt><trkpt lat="45.444522387063365" lon="9.955408946249749"><ele>93.0</ele><time>2026-05-03T07:40:34.888Z</time></trkpt><trkpt lat="45.44458185509755" lon="9.955447193465197"><ele>93.0</ele><time>2026-05-03T07:40:35.888Z</time></trkpt><trkpt lat="45.444642209371715" lon="9.955481387532277"><ele>93.0</ele><time>2026-05-03T07:40:36.888Z</time></trkpt><trkpt lat="45.4447033902692" lon="9.955522163765409"><ele>93.00000000000001</ele><time>2026-05-03T07:40:37.888Z</time></trkpt><trkpt lat="45.44476661810744" lon="9.955554277628208"><ele>93.0</ele><time>2026-05-03T07:40:38.888Z</time></trkpt><trkpt lat="45.44482721187893" lon="9.955583975369349"><ele>92.83333333333333</ele><time>2026-05-03T07:40:39.888Z</time></trkpt><trkpt lat="45.44489049892753" lon="9.955620698691412"><ele>92.66666666666667</ele><time>2026-05-03T07:40:40.888Z</time></trkpt><trkpt lat="45.44495486879021" lon="9.955658674500693"><ele>92.5</ele><time>2026-05-03T07:40:41.888Z</time></trkpt><trkpt lat="45.445020671753234" lon="9.955696864006129"><ele>92.33333333333334</ele><time>2026-05-03T07:40:42.888Z</time></trkpt><trkpt lat="45.445082239285355" lon="9.95572617987411"><ele>92.16666666666667</ele><time>2026-05-03T07:40:43.888Z</time></trkpt><trkpt lat="45.44514679968583" lon="9.95574482993653"><ele>92.0</ele><time>2026-05-03T07:40:44.888Z</time></trkpt><trkpt lat="45.445266183425765" lon="9.955724181833853"><ele>92.0</ele><time>2026-05-03T07:40:46.888Z</time></trkpt><trkpt lat="45.44535388439209" lon="9.955607390072725"><ele>92.0</ele><time>2026-05-03T07:40:48.888Z</time></trkpt><trkpt lat="45.445377162719545" lon="9.955438466054176"><ele>92.0</ele><time>2026-05-03T07:40:50.887Z</time></trkpt><trkpt lat="45.445370964685246" lon="9.955340850111225"><ele>92.0</ele><time>2026-05-03T07:40:51.887Z</time></trkpt><trkpt lat="45.44536434178788" lon="9.95524431707044"><ele>92.0</ele><time>2026-05-03T07:40:52.887Z</time></trkpt><trkpt lat="45.44536422022404" lon="9.95514539521816"><ele>92.0</ele><time>2026-05-03T07:40:53.887Z</time></trkpt><trkpt lat="45.44536519779806" lon="9.955043884023954"><ele>92.0</ele><time>2026-05-03T07:40:54.887Z</time></trkpt><trkpt lat="45.44536928609221" lon="9.954946869845518"><ele>92.0</ele><time>2026-05-03T07:40:55.887Z</time></trkpt><trkpt lat="45.44537385094353" lon="9.954852792783853"><ele>92.0</ele><time>2026-05-03T07:40:56.887Z</time></trkpt><trkpt lat="45.44537353950973" lon="9.954753555722174"><ele>92.0</ele><time>2026-05-03T07:40:57.887Z</time></trkpt><trkpt lat="45.445371147556735" lon="9.954655504317852"><ele>92.0</ele><time>2026-05-03T07:40:58.887Z</time></trkpt><trkpt lat="45.4453694181559" lon="9.954559032142274"><ele>92.0</ele><time>2026-05-03T07:40:59.887Z</time></trkpt><trkpt lat="45.44537002158487" lon="9.95445928959154"><ele>92.0</ele><time>2026-05-03T07:41:00.887Z</time></trkpt><trkpt lat="45.44537116640438" lon="9.954366463623751"><ele>92.0</ele><time>2026-05-03T07:41:01.887Z</time></trkpt><trkpt lat="45.44537014613134" lon="9.954272880057134"><ele>92.0</ele><time>2026-05-03T07:41:02.887Z</time></trkpt><trkpt lat="45.44536955587603" lon="9.954175654207262"><ele>92.0</ele><time>2026-05-03T07:41:03.887Z</time></trkpt><trkpt lat="45.445370972652334" lon="9.95408111150099"><ele>92.0</ele><time>2026-05-03T07:41:04.887Z</time></trkpt><trkpt lat="45.44537684488145" lon="9.953985115264654"><ele>92.0</ele><time>2026-05-03T07:41:05.887Z</time></trkpt><trkpt lat="45.44538051688433" lon="9.95388734677186"><ele>92.0</ele><time>2026-05-03T07:41:06.887Z</time></trkpt><trkpt lat="45.44538237345834" lon="9.953790360164165"><ele>92.0</ele><time>2026-05-03T07:41:07.887Z</time></trkpt><trkpt lat="45.445387341369106" lon="9.953693282567656"><ele>92.14285714285715</ele><time>2026-05-03T07:41:08.887Z</time></trkpt><trkpt lat="45.44539228434867" lon="9.953594323491314"><ele>92.28571428571428</ele><time>2026-05-03T07:41:09.887Z</time></trkpt><trkpt lat="45.44539558728109" lon="9.953497624986232"><ele>92.42857142857143</ele><time>2026-05-03T07:41:10.887Z</time></trkpt><trkpt lat="45.44539914057613" lon="9.953398380735319"><ele>92.57142857142858</ele><time>2026-05-03T07:41:11.887Z</time></trkpt><trkpt lat="45.44540092187228" lon="9.953301356938432"><ele>92.71428571428572</ele><time>2026-05-03T07:41:12.887Z</time></trkpt><trkpt lat="45.44540134489307" lon="9.953204677911662"><ele>92.85714285714286</ele><time>2026-05-03T07:41:13.887Z</time></trkpt><trkpt lat="45.44540237607961" lon="9.95310764349477"><ele>93.0</ele><time>2026-05-03T07:41:14.887Z</time></trkpt><trkpt lat="45.445402473195124" lon="9.953007743634634"><ele>93.00000000000001</ele><time>2026-05-03T07:41:15.887Z</time></trkpt><trkpt lat="45.44540365195768" lon="9.952908038965669"><ele>93.0</ele><time>2026-05-03T07:41:16.887Z</time></trkpt><trkpt lat="45.44540657721422" lon="9.952811626938262"><ele>93.0</ele><time>2026-05-03T07:41:17.887Z</time></trkpt><trkpt lat="45.445410869393996" lon="9.952711590120032"><ele>93.0</ele><time>2026-05-03T07:41:18.887Z</time></trkpt><trkpt lat="45.445413460318164" lon="9.952612833714548"><ele>93.0</ele><time>2026-05-03T07:41:19.887Z</time></trkpt><trkpt lat="45.44541629645016" lon="9.952512611784035"><ele>93.00000000000001</ele><time>2026-05-03T07:41:20.886Z</time></trkpt><trkpt lat="45.44541839263993" lon="9.952415986875119"><ele>93.0</ele><time>2026-05-03T07:41:21.886Z</time></trkpt><trkpt lat="45.44541844542393" lon="9.952315163574525"><ele>93.0</ele><time>2026-05-03T07:41:22.886Z</time></trkpt><trkpt lat="45.445421025768184" lon="9.952224499492997"><ele>93.0</ele><time>2026-05-03T07:41:23.886Z</time></trkpt><trkpt lat="45.44541354510533" lon="9.952050324142395"><ele>93.0</ele><time>2026-05-03T07:41:25.886Z</time></trkpt><trkpt lat="45.4454116445709" lon="9.95188268130038"><ele>93.0</ele><time>2026-05-03T07:41:27.886Z</time></trkpt><trkpt lat="45.44541441073333" lon="9.951779512708574"><ele>93.0</ele><time>2026-05-03T07:41:28.886Z</time></trkpt><trkpt lat="45.44540919375155" lon="9.951598654794271"><ele>93.00000000000001</ele><time>2026-05-03T07:41:30.886Z</time></trkpt><trkpt lat="45.44540366182693" lon="9.951499674344305"><ele>93.0</ele><time>2026-05-03T07:41:31.886Z</time></trkpt><trkpt lat="45.44539789858147" lon="9.951398043502929"><ele>93.0</ele><time>2026-05-03T07:41:32.886Z</time></trkpt><trkpt lat="45.44539051741952" lon="9.951298477409724"><ele>93.0</ele><time>2026-05-03T07:41:33.886Z</time></trkpt><trkpt lat="45.44538175834808" lon="9.951200801331526"><ele>93.0</ele><time>2026-05-03T07:41:34.886Z</time></trkpt><trkpt lat="45.44537123697759" lon="9.951101500873474"><ele>93.00000000000001</ele><time>2026-05-03T07:41:35.886Z</time></trkpt><trkpt lat="45.44536107770456" lon="9.951006680231474"><ele>93.0</ele><time>2026-05-03T07:41:36.886Z</time></trkpt><trkpt lat="45.44534730482503" lon="9.950906281481917"><ele>92.85714285714286</ele><time>2026-05-03T07:41:37.886Z</time></trkpt><trkpt lat="45.44533509482336" lon="9.950809999740667"><ele>92.71428571428572</ele><time>2026-05-03T07:41:38.886Z</time></trkpt><trkpt lat="45.44532145251448" lon="9.950713774026077"><ele>92.57142857142858</ele><time>2026-05-03T07:41:39.886Z</time></trkpt><trkpt lat="45.44530859528715" lon="9.950612232334963"><ele>92.42857142857143</ele><time>2026-05-03T07:41:40.886Z</time></trkpt><trkpt lat="45.445298646857175" lon="9.950517356314423"><ele>92.28571428571428</ele><time>2026-05-03T07:41:41.886Z</time></trkpt><trkpt lat="45.44528772005105" lon="9.95042145888898"><ele>92.14285714285715</ele><time>2026-05-03T07:41:42.886Z</time></trkpt><trkpt lat="45.44527492196573" lon="9.950327081035102"><ele>92.0</ele><time>2026-05-03T07:41:43.886Z</time></trkpt><trkpt lat="45.44526148781966" lon="9.950232723345284"><ele>92.0</ele><time>2026-05-03T07:41:44.886Z</time></trkpt><trkpt lat="45.44524792170157" lon="9.950136167050601"><ele>92.0</ele><time>2026-05-03T07:41:45.886Z</time></trkpt><trkpt lat="45.44523038810831" lon="9.950030330125848"><ele>92.0</ele><time>2026-05-03T07:41:46.886Z</time></trkpt><trkpt lat="45.445215936830046" lon="9.949846456118623"><ele>92.0</ele><time>2026-05-03T07:41:48.886Z</time></trkpt><trkpt lat="45.44520077249841" lon="9.949747063728015"><ele>92.0</ele><time>2026-05-03T07:41:49.886Z</time></trkpt><trkpt lat="45.44519062608047" lon="9.949649609659533"><ele>92.0</ele><time>2026-05-03T07:41:50.886Z</time></trkpt><trkpt lat="45.44517124196317" lon="9.949466316727312"><ele>92.0</ele><time>2026-05-03T07:41:52.885Z</time></trkpt><trkpt lat="45.445163751285136" lon="9.94937059940002"><ele>92.0</ele><time>2026-05-03T07:41:53.885Z</time></trkpt><trkpt lat="45.445151163285374" lon="9.949271753008288"><ele>92.0</ele><time>2026-05-03T07:41:54.885Z</time></trkpt><trkpt lat="45.44513625046435" lon="9.94917603533644"><ele>92.0</ele><time>2026-05-03T07:41:55.885Z</time></trkpt><trkpt lat="45.445125288726125" lon="9.94908334856241"><ele>92.0</ele><time>2026-05-03T07:41:56.885Z</time></trkpt><trkpt lat="45.44511240540232" lon="9.948988945927695"><ele>92.0</ele><time>2026-05-03T07:41:57.885Z</time></trkpt><trkpt lat="45.44509899173685" lon="9.948898073192169"><ele>92.0</ele><time>2026-05-03T07:41:58.885Z</time></trkpt><trkpt lat="45.445087564325526" lon="9.948805704371487"><ele>92.0</ele><time>2026-05-03T07:41:59.885Z</time></trkpt><trkpt lat="45.445072639360134" lon="9.948705516923033"><ele>92.0</ele><time>2026-05-03T07:42:00.885Z</time></trkpt><trkpt lat="45.44505937900323" lon="9.948614202716572"><ele>92.0</ele><time>2026-05-03T07:42:01.885Z</time></trkpt><trkpt lat="45.445049060134124" lon="9.948525476058647"><ele>92.0</ele><time>2026-05-03T07:42:02.885Z</time></trkpt><trkpt lat="45.445026726085125" lon="9.948344878010158"><ele>92.0</ele><time>2026-05-03T07:42:04.885Z</time></trkpt><trkpt lat="45.445015835891176" lon="9.948251751014"><ele>92.0</ele><time>2026-05-03T07:42:05.885Z</time></trkpt><trkpt lat="45.445002900739794" lon="9.94815541129374"><ele>91.85714285714286</ele><time>2026-05-03T07:42:06.885Z</time></trkpt><trkpt lat="45.44498854370202" lon="9.948057792691342"><ele>91.71428571428571</ele><time>2026-05-03T07:42:07.887Z</time></trkpt><trkpt lat="45.4449819152664" lon="9.947958155032806"><ele>91.57142857142857</ele><time>2026-05-03T07:42:08.887Z</time></trkpt><trkpt lat="45.44497611304539" lon="9.947858575138238"><ele>91.42857142857143</ele><time>2026-05-03T07:42:09.887Z</time></trkpt><trkpt lat="45.44496846433758" lon="9.94776021458829"><ele>91.28571428571428</ele><time>2026-05-03T07:42:10.887Z</time></trkpt><trkpt lat="45.444966771577725" lon="9.947660216561744"><ele>91.14285714285714</ele><time>2026-05-03T07:42:11.886Z</time></trkpt><trkpt lat="45.44496957966821" lon="9.947563261064632"><ele>91.0</ele><time>2026-05-03T07:42:12.886Z</time></trkpt><trkpt lat="45.44497722503557" lon="9.947467631708117"><ele>91.33333333333333</ele><time>2026-05-03T07:42:13.886Z</time></trkpt><trkpt lat="45.44498061889398" lon="9.947371587709423"><ele>91.66666666666666</ele><time>2026-05-03T07:42:14.886Z</time></trkpt><trkpt lat="45.444988237045706" lon="9.94727730858325"><ele>92.0</ele><time>2026-05-03T07:42:15.886Z</time></trkpt><trkpt lat="45.445014380682835" lon="9.947096739761498"><ele>92.33333333333333</ele><time>2026-05-03T07:42:17.886Z</time></trkpt><trkpt lat="45.445025353879245" lon="9.947004849589852"><ele>92.66666666666667</ele><time>2026-05-03T07:42:18.886Z</time></trkpt><trkpt lat="45.44504577861335" lon="9.946837487358582"><ele>93.0</ele><time>2026-05-03T07:42:20.887Z</time></trkpt><trkpt lat="45.44506746657074" lon="9.946657644932538"><ele>93.0</ele><time>2026-05-03T07:42:22.886Z</time></trkpt><trkpt lat="45.44507893257773" lon="9.946568799371736"><ele>93.0</ele><time>2026-05-03T07:42:23.886Z</time></trkpt><trkpt lat="45.445105838058765" lon="9.946402273420844"><ele>93.0</ele><time>2026-05-03T07:42:25.886Z</time></trkpt><trkpt lat="45.445118068995676" lon="9.94630765176212"><ele>93.0</ele><time>2026-05-03T07:42:26.886Z</time></trkpt><trkpt lat="45.445130099264546" lon="9.946211163278134"><ele>93.0</ele><time>2026-05-03T07:42:27.886Z</time></trkpt><trkpt lat="45.44514460076767" lon="9.946115974355559"><ele>93.0</ele><time>2026-05-03T07:42:28.886Z</time></trkpt><trkpt lat="45.445157388127754" lon="9.946022563821753"><ele>93.0</ele><time>2026-05-03T07:42:29.886Z</time></trkpt><trkpt lat="45.4451684715582" lon="9.945928382759371"><ele>93.0</ele><time>2026-05-03T07:42:30.886Z</time></trkpt><trkpt lat="45.44517753771634" lon="9.945835114710597"><ele>93.0</ele><time>2026-05-03T07:42:31.886Z</time></trkpt><trkpt lat="45.4451872427254" lon="9.94574130449649"><ele>93.0</ele><time>2026-05-03T07:42:32.886Z</time></trkpt><trkpt lat="45.44519776769143" lon="9.945642481286775"><ele>93.0</ele><time>2026-05-03T07:42:33.886Z</time></trkpt><trkpt lat="45.44520840846411" lon="9.945548047297217"><ele>93.0</ele><time>2026-05-03T07:42:34.886Z</time></trkpt><trkpt lat="45.44523796808581" lon="9.945382761653628"><ele>93.0</ele><time>2026-05-03T07:42:36.886Z</time></trkpt><trkpt lat="45.44524511205468" lon="9.945214235324181"><ele>93.0</ele><time>2026-05-03T07:42:38.886Z</time></trkpt><trkpt lat="45.4452550132832" lon="9.945120100196142"><ele>93.0</ele><time>2026-05-03T07:42:39.886Z</time></trkpt><trkpt lat="45.44526968965949" lon="9.94502573537336"><ele>93.0</ele><time>2026-05-03T07:42:40.886Z</time></trkpt><trkpt lat="45.445285639699584" lon="9.944931227964169"><ele>93.0</ele><time>2026-05-03T07:42:41.886Z</time></trkpt><trkpt lat="45.445299019697934" lon="9.944836893818092"><ele>93.0</ele><time>2026-05-03T07:42:42.886Z</time></trkpt><trkpt lat="45.445310219050455" lon="9.944744494930722"><ele>93.00000000000001</ele><time>2026-05-03T07:42:43.886Z</time></trkpt><trkpt lat="45.445327924197244" lon="9.944651796727475"><ele>93.0</ele><time>2026-05-03T07:42:44.886Z</time></trkpt><trkpt lat="45.44534828797179" lon="9.944561756259858"><ele>93.0</ele><time>2026-05-03T07:42:45.886Z</time></trkpt><trkpt lat="45.445376951469584" lon="9.944476554417955"><ele>93.0</ele><time>2026-05-03T07:42:46.886Z</time></trkpt><trkpt lat="45.44541327843272" lon="9.944395855125466"><ele>93.0</ele><time>2026-05-03T07:42:47.886Z</time></trkpt><trkpt lat="45.44545374369796" lon="9.944319788515532"><ele>93.00000000000001</ele><time>2026-05-03T07:42:48.886Z</time></trkpt><trkpt lat="45.445486999165624" lon="9.944242159621638"><ele>93.0</ele><time>2026-05-03T07:42:49.886Z</time></trkpt><trkpt lat="45.44552555513306" lon="9.944161110854036"><ele>92.85714285714286</ele><time>2026-05-03T07:42:50.886Z</time></trkpt><trkpt lat="45.445568328487894" lon="9.944084271224828"><ele>92.71428571428572</ele><time>2026-05-03T07:42:51.886Z</time></trkpt><trkpt lat="45.44560898471655" lon="9.944011434416211"><ele>92.57142857142858</ele><time>2026-05-03T07:42:52.885Z</time></trkpt><trkpt lat="45.44564568780165" lon="9.943933353311722"><ele>92.42857142857143</ele><time>2026-05-03T07:42:53.885Z</time></trkpt><trkpt lat="45.44568103505413" lon="9.94384508558942"><ele>92.28571428571428</ele><time>2026-05-03T07:42:54.885Z</time></trkpt><trkpt lat="45.44570329914479" lon="9.943756755875059"><ele>92.14285714285715</ele><time>2026-05-03T07:42:55.885Z</time></trkpt><trkpt lat="45.445725053144166" lon="9.9436670499405"><ele>92.0</ele><time>2026-05-03T07:42:56.885Z</time></trkpt><trkpt lat="45.44574627136237" lon="9.943575165228541"><ele>92.0</ele><time>2026-05-03T07:42:57.885Z</time></trkpt><trkpt lat="45.445766473927826" lon="9.943479288228573"><ele>92.0</ele><time>2026-05-03T07:42:58.885Z</time></trkpt><trkpt lat="45.445784511209204" lon="9.943386050147634"><ele>92.0</ele><time>2026-05-03T07:42:59.885Z</time></trkpt><trkpt lat="45.4458044404649" lon="9.943296489070434"><ele>92.0</ele><time>2026-05-03T07:43:00.885Z</time></trkpt><trkpt lat="45.44582186025674" lon="9.943205163550745"><ele>92.0</ele><time>2026-05-03T07:43:01.885Z</time></trkpt><trkpt lat="45.445837553672504" lon="9.943112982285243"><ele>92.0</ele><time>2026-05-03T07:43:02.885Z</time></trkpt><trkpt lat="45.44585611899026" lon="9.943021521509499"><ele>92.0</ele><time>2026-05-03T07:43:03.885Z</time></trkpt><trkpt lat="45.44587257559089" lon="9.942932370911725"><ele>92.0</ele><time>2026-05-03T07:43:04.885Z</time></trkpt><trkpt lat="45.44588832378701" lon="9.94284069804386"><ele>92.0</ele><time>2026-05-03T07:43:05.885Z</time></trkpt><trkpt lat="45.44590592177351" lon="9.94275080189927"><ele>92.0</ele><time>2026-05-03T07:43:06.885Z</time></trkpt><trkpt lat="45.44592279461197" lon="9.942660953881514"><ele>92.0</ele><time>2026-05-03T07:43:07.885Z</time></trkpt><trkpt lat="45.44595165681321" lon="9.942470874830887"><ele>92.0</ele><time>2026-05-03T07:43:09.885Z</time></trkpt><trkpt lat="45.44596371806206" lon="9.942379501212747"><ele>92.0</ele><time>2026-05-03T07:43:10.885Z</time></trkpt><trkpt lat="45.445976048221965" lon="9.94228500360336"><ele>92.14285714285715</ele><time>2026-05-03T07:43:11.885Z</time></trkpt><trkpt lat="45.4459832509351" lon="9.942193538181437"><ele>92.28571428571428</ele><time>2026-05-03T07:43:12.885Z</time></trkpt><trkpt lat="45.44599187075322" lon="9.94209999540146"><ele>92.42857142857143</ele><time>2026-05-03T07:43:13.885Z</time></trkpt><trkpt lat="45.44600399049684" lon="9.941998119956562"><ele>92.57142857142858</ele><time>2026-05-03T07:43:14.885Z</time></trkpt><trkpt lat="45.44601022142035" lon="9.941902755282532"><ele>92.71428571428572</ele><time>2026-05-03T07:43:15.885Z</time></trkpt><trkpt lat="45.44601774311713" lon="9.941808281642489"><ele>92.85714285714286</ele><time>2026-05-03T07:43:16.885Z</time></trkpt><trkpt lat="45.4460222062805" lon="9.941713716027405"><ele>93.0</ele><time>2026-05-03T07:43:17.885Z</time></trkpt><trkpt lat="45.446031057537716" lon="9.94161919239296"><ele>93.00000000000001</ele><time>2026-05-03T07:43:18.885Z</time></trkpt><trkpt lat="45.44604373473463" lon="9.9415216476278"><ele>93.0</ele><time>2026-05-03T07:43:19.885Z</time></trkpt><trkpt lat="45.44605187047676" lon="9.941432359610907"><ele>93.0</ele><time>2026-05-03T07:43:20.885Z</time></trkpt><trkpt lat="45.44606084563337" lon="9.94133728660361"><ele>93.0</ele><time>2026-05-03T07:43:21.885Z</time></trkpt><trkpt lat="45.44607227414732" lon="9.941240400003675"><ele>93.0</ele><time>2026-05-03T07:43:22.885Z</time></trkpt><trkpt lat="45.44607809315388" lon="9.94114804550667"><ele>93.00000000000001</ele><time>2026-05-03T07:43:23.884Z</time></trkpt><trkpt lat="45.44608128807817" lon="9.941057854171326"><ele>93.0</ele><time>2026-05-03T07:43:24.884Z</time></trkpt><trkpt lat="45.446086629106546" lon="9.940963822146463"><ele>93.0</ele><time>2026-05-03T07:43:25.884Z</time></trkpt><trkpt lat="45.44609004601401" lon="9.940866590785431"><ele>93.0</ele><time>2026-05-03T07:43:26.884Z</time></trkpt><trkpt lat="45.446091288441046" lon="9.940767074311646"><ele>93.0</ele><time>2026-05-03T07:43:27.884Z</time></trkpt><trkpt lat="45.44609717156054" lon="9.94067035300553"><ele>93.0</ele><time>2026-05-03T07:43:28.884Z</time></trkpt><trkpt lat="45.44609763883917" lon="9.940500247974256"><ele>93.0</ele><time>2026-05-03T07:43:30.884Z</time></trkpt><trkpt lat="45.4461007929264" lon="9.940339818551449"><ele>93.0</ele><time>2026-05-03T07:43:32.884Z</time></trkpt><trkpt lat="45.44610501662035" lon="9.940165962237657"><ele>93.0</ele><time>2026-05-03T07:43:34.884Z</time></trkpt><trkpt lat="45.44610832074431" lon="9.940076103864431"><ele>93.0</ele><time>2026-05-03T07:43:35.884Z</time></trkpt><trkpt lat="45.446107052067774" lon="9.939897445675188"><ele>93.0</ele><time>2026-05-03T07:43:37.884Z</time></trkpt><trkpt lat="45.44610435413427" lon="9.939799477670146"><ele>93.0</ele><time>2026-05-03T07:43:38.884Z</time></trkpt><trkpt lat="45.44610212119364" lon="9.939701643704552"><ele>93.0</ele><time>2026-05-03T07:43:39.884Z</time></trkpt><trkpt lat="45.44610165419206" lon="9.93960304366006"><ele>93.0</ele><time>2026-05-03T07:43:40.884Z</time></trkpt><trkpt lat="45.44610450417562" lon="9.93950845785171"><ele>93.00000000000001</ele><time>2026-05-03T07:43:41.884Z</time></trkpt><trkpt lat="45.446107335402885" lon="9.93941255048191"><ele>93.0</ele><time>2026-05-03T07:43:42.884Z</time></trkpt><trkpt lat="45.446112351956174" lon="9.93931796453831"><ele>93.0</ele><time>2026-05-03T07:43:43.884Z</time></trkpt><trkpt lat="45.44611660950615" lon="9.939220372429642"><ele>93.0</ele><time>2026-05-03T07:43:44.884Z</time></trkpt><trkpt lat="45.44611823903912" lon="9.93912334247872"><ele>93.0</ele><time>2026-05-03T07:43:45.884Z</time></trkpt><trkpt lat="45.44611815280111" lon="9.939023373850604"><ele>93.00000000000001</ele><time>2026-05-03T07:43:46.884Z</time></trkpt><trkpt lat="45.44612624672995" lon="9.938927712077765"><ele>93.0</ele><time>2026-05-03T07:43:47.884Z</time></trkpt><trkpt lat="45.446132965665946" lon="9.938830781185144"><ele>93.00000000000001</ele><time>2026-05-03T07:43:48.884Z</time></trkpt><trkpt lat="45.44614007926986" lon="9.938733747999564"><ele>93.0</ele><time>2026-05-03T07:43:49.884Z</time></trkpt><trkpt lat="45.446150581816916" lon="9.938635358706486"><ele>93.0</ele><time>2026-05-03T07:43:50.884Z</time></trkpt><trkpt lat="45.44616599306339" lon="9.938539665012891"><ele>93.0</ele><time>2026-05-03T07:43:51.884Z</time></trkpt><trkpt lat="45.44618006060353" lon="9.938443250754506"><ele>93.0</ele><time>2026-05-03T07:43:52.884Z</time></trkpt><trkpt lat="45.44619458882466" lon="9.938345128528205"><ele>93.00000000000001</ele><time>2026-05-03T07:43:53.884Z</time></trkpt><trkpt lat="45.446205536178304" lon="9.938249045996793"><ele>93.0</ele><time>2026-05-03T07:43:54.883Z</time></trkpt><trkpt lat="45.446217436467215" lon="9.938153249045525"><ele>93.00000000000001</ele><time>2026-05-03T07:43:55.883Z</time></trkpt><trkpt lat="45.446227632220534" lon="9.93806020130689"><ele>93.0</ele><time>2026-05-03T07:43:56.883Z</time></trkpt><trkpt lat="45.4462439847502" lon="9.937962707634371"><ele>93.0</ele><time>2026-05-03T07:43:57.883Z</time></trkpt><trkpt lat="45.4462580686488" lon="9.937874023226557"><ele>93.0</ele><time>2026-05-03T07:43:58.883Z</time></trkpt><trkpt lat="45.44627454218412" lon="9.937778107984467"><ele>93.0</ele><time>2026-05-03T07:43:59.883Z</time></trkpt><trkpt lat="45.44628830863861" lon="9.937684718650754"><ele>93.00000000000001</ele><time>2026-05-03T07:44:00.883Z</time></trkpt><trkpt lat="45.446302371997895" lon="9.937590050105138"><ele>93.0</ele><time>2026-05-03T07:44:01.883Z</time></trkpt><trkpt lat="45.446318546976585" lon="9.937492723243201"><ele>93.60000000000001</ele><time>2026-05-03T07:44:02.883Z</time></trkpt><trkpt lat="45.44633893078172" lon="9.937405169202842"><ele>94.2</ele><time>2026-05-03T07:44:03.883Z</time></trkpt><trkpt lat="45.446356841262244" lon="9.937231488375987"><ele>94.8</ele><time>2026-05-03T07:44:05.883Z</time></trkpt><trkpt lat="45.4463893667639" lon="9.937055840962746"><ele>95.4</ele><time>2026-05-03T07:44:07.883Z</time></trkpt><trkpt lat="45.446404633693454" lon="9.936962580768393"><ele>96.0</ele><time>2026-05-03T07:44:08.883Z</time></trkpt><trkpt lat="45.446421561729345" lon="9.93686986822439"><ele>95.99999999999999</ele><time>2026-05-03T07:44:09.883Z</time></trkpt><trkpt lat="45.44643912227993" lon="9.93677574777825"><ele>96.0</ele><time>2026-05-03T07:44:10.883Z</time></trkpt><trkpt lat="45.446452574315536" lon="9.936684430515996"><ele>96.0</ele><time>2026-05-03T07:44:11.883Z</time></trkpt><trkpt lat="45.44646490800838" lon="9.936590142921611"><ele>96.0</ele><time>2026-05-03T07:44:12.883Z</time></trkpt><trkpt lat="45.44647869667747" lon="9.936498874832045"><ele>96.0</ele><time>2026-05-03T07:44:13.883Z</time></trkpt><trkpt lat="45.44649011322536" lon="9.93640591205629"><ele>95.99999999999999</ele><time>2026-05-03T07:44:14.884Z</time></trkpt><trkpt lat="45.44649279660227" lon="9.936314931051474"><ele>96.0</ele><time>2026-05-03T07:44:15.884Z</time></trkpt><trkpt lat="45.446505089543955" lon="9.936139132647606"><ele>96.0</ele><time>2026-05-03T07:44:17.883Z</time></trkpt><trkpt lat="45.44649604977322" lon="9.936041537907673"><ele>96.0</ele><time>2026-05-03T07:44:18.883Z</time></trkpt><trkpt lat="45.446481042727264" lon="9.93588170100812"><ele>96.0</ele><time>2026-05-03T07:44:20.884Z</time></trkpt><trkpt lat="45.446482868263104" lon="9.935787684555976"><ele>96.0</ele><time>2026-05-03T07:44:21.883Z</time></trkpt><trkpt lat="45.44647428799657" lon="9.935611515598248"><ele>96.0</ele><time>2026-05-03T07:44:23.883Z</time></trkpt><trkpt lat="45.4464613562976" lon="9.935444945795263"><ele>96.0</ele><time>2026-05-03T07:44:25.883Z</time></trkpt><trkpt lat="45.44645291954191" lon="9.935305525200949"><ele>96.0</ele><time>2026-05-03T07:44:27.883Z</time></trkpt><trkpt lat="45.44643391888969" lon="9.9351916005217"><ele>96.0</ele><time>2026-05-03T07:44:29.883Z</time></trkpt><trkpt lat="45.44637642375537" lon="9.935093617569603"><ele>96.0</ele><time>2026-05-03T07:44:31.883Z</time></trkpt><trkpt lat="45.4462712476881" lon="9.935059265121208"><ele>96.0</ele><time>2026-05-03T07:44:33.883Z</time></trkpt><trkpt lat="45.44615276214194" lon="9.935070515909324"><ele>96.19999999999999</ele><time>2026-05-03T07:44:35.883Z</time></trkpt><trkpt lat="45.44603730999741" lon="9.935071293456721"><ele>96.39999999999999</ele><time>2026-05-03T07:44:37.883Z</time></trkpt><trkpt lat="45.44592163811896" lon="9.935061011497437"><ele>96.6</ele><time>2026-05-03T07:44:39.883Z</time></trkpt><trkpt lat="45.44581717774664" lon="9.93504826949988"><ele>96.8</ele><time>2026-05-03T07:44:41.883Z</time></trkpt><trkpt lat="45.445733279972934" lon="9.93496935571414"><ele>97.0</ele><time>2026-05-03T07:44:43.883Z</time></trkpt><trkpt lat="45.445723157662506" lon="9.934795683128005"><ele>97.0</ele><time>2026-05-03T07:44:45.883Z</time></trkpt><trkpt lat="45.445740459981614" lon="9.934652897446254"><ele>97.0</ele><time>2026-05-03T07:44:47.883Z</time></trkpt><trkpt lat="45.44573408713134" lon="9.934502089399334"><ele>97.0</ele><time>2026-05-03T07:44:49.883Z</time></trkpt><trkpt lat="45.44571959616216" lon="9.93434514175339"><ele>97.0</ele><time>2026-05-03T07:44:51.882Z</time></trkpt><trkpt lat="45.44572986428688" lon="9.934174675338348"><ele>97.0</ele><time>2026-05-03T07:44:53.882Z</time></trkpt><trkpt lat="45.445741653689424" lon="9.934022916566143"><ele>96.66666666666667</ele><time>2026-05-03T07:44:55.882Z</time></trkpt><trkpt lat="45.44574764398817" lon="9.933866568649428"><ele>96.33333333333334</ele><time>2026-05-03T07:44:57.882Z</time></trkpt><trkpt lat="45.44581451282517" lon="9.933798349431903"><ele>96.0</ele><time>2026-05-03T07:44:59.882Z</time></trkpt><trkpt lat="45.44588251789444" lon="9.933784921217764"><ele>95.66666666666667</ele><time>2026-05-03T07:45:00.882Z</time></trkpt><trkpt lat="45.4459835496628" lon="9.933801235007687"><ele>95.33333333333334</ele><time>2026-05-03T07:45:02.882Z</time></trkpt><trkpt lat="45.446063706714334" lon="9.933773237010941"><ele>95.0</ele><time>2026-05-03T07:45:04.882Z</time></trkpt><trkpt lat="45.44613034483421" lon="9.93367968446096"><ele>95.0</ele><time>2026-05-03T07:45:06.882Z</time></trkpt><trkpt lat="45.44613679890773" lon="9.933584912168175"><ele>95.0</ele><time>2026-05-03T07:45:07.882Z</time></trkpt><trkpt lat="45.44613089607567" lon="9.933477259406775"><ele>95.0</ele><time>2026-05-03T07:45:08.882Z</time></trkpt><trkpt lat="45.44612668358018" lon="9.933384625563155"><ele>95.0</ele><time>2026-05-03T07:45:09.882Z</time></trkpt><trkpt lat="45.446122911035026" lon="9.93329063412418"><ele>95.0</ele><time>2026-05-03T07:45:10.882Z</time></trkpt><trkpt lat="45.44612022528647" lon="9.933102070695547"><ele>95.0</ele><time>2026-05-03T07:45:12.882Z</time></trkpt><trkpt lat="45.44612975935283" lon="9.933002051767827"><ele>94.66666666666667</ele><time>2026-05-03T07:45:13.882Z</time></trkpt><trkpt lat="45.44612950637666" lon="9.932903317358162"><ele>94.33333333333334</ele><time>2026-05-03T07:45:14.882Z</time></trkpt><trkpt lat="45.44613151654983" lon="9.932809467399368"><ele>94.0</ele><time>2026-05-03T07:45:15.882Z</time></trkpt><trkpt lat="45.44612743981329" lon="9.932719083737732"><ele>93.66666666666667</ele><time>2026-05-03T07:45:16.882Z</time></trkpt><trkpt lat="45.44612534775079" lon="9.932537094706154"><ele>93.33333333333333</ele><time>2026-05-03T07:45:18.882Z</time></trkpt><trkpt lat="45.446133185005486" lon="9.932371361524803"><ele>93.0</ele><time>2026-05-03T07:45:20.882Z</time></trkpt><trkpt lat="45.446131518449555" lon="9.932229153805073"><ele>92.60000000000001</ele><time>2026-05-03T07:45:22.881Z</time></trkpt><trkpt lat="45.44613521005039" lon="9.932061548091928"><ele>92.2</ele><time>2026-05-03T07:45:24.881Z</time></trkpt><trkpt lat="45.446135444067096" lon="9.931907054498701"><ele>91.8</ele><time>2026-05-03T07:45:26.881Z</time></trkpt><trkpt lat="45.446178657670465" lon="9.931792075826047"><ele>91.4</ele><time>2026-05-03T07:45:28.881Z</time></trkpt><trkpt lat="45.44629071279885" lon="9.931766914464697"><ele>91.0</ele><time>2026-05-03T07:45:30.881Z</time></trkpt><trkpt lat="45.446354721953355" lon="9.93177162646082"><ele>91.6</ele><time>2026-05-03T07:45:31.881Z</time></trkpt><trkpt lat="45.44645758781012" lon="9.931767615892962"><ele>92.19999999999999</ele><time>2026-05-03T07:45:33.881Z</time></trkpt><trkpt lat="45.44654521724012" lon="9.9317506425636"><ele>92.80000000000001</ele><time>2026-05-03T07:45:35.881Z</time></trkpt><trkpt lat="45.446600664536824" lon="9.931684543744966"><ele>93.4</ele><time>2026-05-03T07:45:37.881Z</time></trkpt><trkpt lat="45.44660920005166" lon="9.931555849052044"><ele>94.0</ele><time>2026-05-03T07:45:39.881Z</time></trkpt><trkpt lat="45.44660393106676" lon="9.931397552424006"><ele>94.0</ele><time>2026-05-03T07:45:41.881Z</time></trkpt><trkpt lat="45.446603974459514" lon="9.931244840152537"><ele>94.0</ele><time>2026-05-03T07:45:43.881Z</time></trkpt><trkpt lat="45.44660631562275" lon="9.93109699600952"><ele>94.0</ele><time>2026-05-03T07:45:45.881Z</time></trkpt><trkpt lat="45.44660396806723" lon="9.930968252640968"><ele>94.0</ele><time>2026-05-03T07:45:47.881Z</time></trkpt><trkpt lat="45.44660707953294" lon="9.93084087783282"><ele>94.0</ele><time>2026-05-03T07:45:49.881Z</time></trkpt><trkpt lat="45.44661594954995" lon="9.930697747091555"><ele>94.0</ele><time>2026-05-03T07:45:51.881Z</time></trkpt><trkpt lat="45.44662750427017" lon="9.930455306560019"><ele>94.0</ele><time>2026-05-03T07:45:54.88Z</time></trkpt><trkpt lat="45.44664105312899" lon="9.930293713916434"><ele>94.0</ele><time>2026-05-03T07:45:56.88Z</time></trkpt><trkpt lat="45.4466509447208" lon="9.930128815016372"><ele>94.0</ele><time>2026-05-03T07:45:58.88Z</time></trkpt><trkpt lat="45.44666213922246" lon="9.92996659399532"><ele>94.0</ele><time>2026-05-03T07:46:00.88Z</time></trkpt><trkpt lat="45.446672131351484" lon="9.929797801288638"><ele>94.0</ele><time>2026-05-03T07:46:02.88Z</time></trkpt><trkpt lat="45.44668654036437" lon="9.9296336001056"><ele>94.0</ele><time>2026-05-03T07:46:04.88Z</time></trkpt><trkpt lat="45.446694937550916" lon="9.929541258821242"><ele>94.0</ele><time>2026-05-03T07:46:05.88Z</time></trkpt><trkpt lat="45.4467007023983" lon="9.929449745918502"><ele>94.0</ele><time>2026-05-03T07:46:06.88Z</time></trkpt><trkpt lat="45.44670884916693" lon="9.929357126075875"><ele>94.0</ele><time>2026-05-03T07:46:07.88Z</time></trkpt><trkpt lat="45.446720564186684" lon="9.92926359015022"><ele>94.14285714285714</ele><time>2026-05-03T07:46:08.88Z</time></trkpt><trkpt lat="45.44672779896134" lon="9.929166876716007"><ele>94.28571428571428</ele><time>2026-05-03T07:46:09.88Z</time></trkpt><trkpt lat="45.44673703269266" lon="9.929070360739855"><ele>94.42857142857143</ele><time>2026-05-03T07:46:10.88Z</time></trkpt><trkpt lat="45.44673410483347" lon="9.928974738071455"><ele>94.57142857142857</ele><time>2026-05-03T07:46:11.88Z</time></trkpt><trkpt lat="45.44674383125888" lon="9.92888096905559"><ele>94.71428571428572</ele><time>2026-05-03T07:46:12.88Z</time></trkpt><trkpt lat="45.446754971639045" lon="9.928785981169222"><ele>94.85714285714286</ele><time>2026-05-03T07:46:13.88Z</time></trkpt><trkpt lat="45.44676045875744" lon="9.92868898408135"><ele>95.0</ele><time>2026-05-03T07:46:14.88Z</time></trkpt><trkpt lat="45.44677311832936" lon="9.928590127476651"><ele>95.0</ele><time>2026-05-03T07:46:15.88Z</time></trkpt><trkpt lat="45.44678027924649" lon="9.928493341594358"><ele>95.0</ele><time>2026-05-03T07:46:16.88Z</time></trkpt><trkpt lat="45.446788655275085" lon="9.928394280454771"><ele>95.0</ele><time>2026-05-03T07:46:17.88Z</time></trkpt><trkpt lat="45.44679705563668" lon="9.928296197243432"><ele>95.0</ele><time>2026-05-03T07:46:18.88Z</time></trkpt><trkpt lat="45.446804834363434" lon="9.928199635998219"><ele>95.0</ele><time>2026-05-03T07:46:19.881Z</time></trkpt><trkpt lat="45.446810875577" lon="9.928105582536386"><ele>95.0</ele><time>2026-05-03T07:46:20.881Z</time></trkpt><trkpt lat="45.44681984073557" lon="9.928016113775186"><ele>95.0</ele><time>2026-05-03T07:46:21.881Z</time></trkpt><trkpt lat="45.44682757791511" lon="9.927919030996998"><ele>94.83333333333334</ele><time>2026-05-03T07:46:22.881Z</time></trkpt><trkpt lat="45.44683135832462" lon="9.927820186969601"><ele>94.66666666666667</ele><time>2026-05-03T07:46:23.881Z</time></trkpt><trkpt lat="45.4468307869345" lon="9.927725489284196"><ele>94.5</ele><time>2026-05-03T07:46:24.881Z</time></trkpt><trkpt lat="45.44683402369553" lon="9.927630204467105"><ele>94.33333333333333</ele><time>2026-05-03T07:46:25.88Z</time></trkpt><trkpt lat="45.4468565891134" lon="9.927545236633616"><ele>94.16666666666666</ele><time>2026-05-03T07:46:26.88Z</time></trkpt><trkpt lat="45.44688713810423" lon="9.927463956179954"><ele>94.0</ele><time>2026-05-03T07:46:27.88Z</time></trkpt><trkpt lat="45.44699423677942" lon="9.927391438353268"><ele>94.0</ele><time>2026-05-03T07:46:29.88Z</time></trkpt><trkpt lat="45.447112557586436" lon="9.927426536572003"><ele>94.0</ele><time>2026-05-03T07:46:31.88Z</time></trkpt><trkpt lat="45.44721791392114" lon="9.927412135252373"><ele>94.0</ele><time>2026-05-03T07:46:33.881Z</time></trkpt><trkpt lat="45.44728893735326" lon="9.927320143670233"><ele>94.0</ele><time>2026-05-03T07:46:35.881Z</time></trkpt><trkpt lat="45.447325774939" lon="9.927185827012837"><ele>94.0</ele><time>2026-05-03T07:46:37.881Z</time></trkpt><trkpt lat="45.44731688458095" lon="9.927016761806305"><ele>94.0</ele><time>2026-05-03T07:46:39.881Z</time></trkpt><trkpt lat="45.44730340686043" lon="9.926923387660684"><ele>94.0</ele><time>2026-05-03T07:46:40.88Z</time></trkpt><trkpt lat="45.44729905909431" lon="9.926832622893874"><ele>94.0</ele><time>2026-05-03T07:46:41.88Z</time></trkpt><trkpt lat="45.447299469420685" lon="9.92673025624862"><ele>94.0</ele><time>2026-05-03T07:46:42.88Z</time></trkpt><trkpt lat="45.447297063582276" lon="9.926623981388813"><ele>94.0</ele><time>2026-05-03T07:46:43.88Z</time></trkpt><trkpt lat="45.44729613407202" lon="9.92652024208208"><ele>94.0</ele><time>2026-05-03T07:46:44.88Z</time></trkpt><trkpt lat="45.447293397178335" lon="9.92641537029639"><ele>94.0</ele><time>2026-05-03T07:46:45.88Z</time></trkpt><trkpt lat="45.44729002170346" lon="9.926311198941189"><ele>94.0</ele><time>2026-05-03T07:46:46.88Z</time></trkpt><trkpt lat="45.447289964905295" lon="9.926204973085452"><ele>94.0</ele><time>2026-05-03T07:46:47.88Z</time></trkpt><trkpt lat="45.44729120656075" lon="9.926101284136735"><ele>94.0</ele><time>2026-05-03T07:46:48.88Z</time></trkpt><trkpt lat="45.447288817545555" lon="9.926001070457875"><ele>94.0</ele><time>2026-05-03T07:46:49.88Z</time></trkpt><trkpt lat="45.44728747202481" lon="9.925898002286818"><ele>94.0</ele><time>2026-05-03T07:46:50.88Z</time></trkpt><trkpt lat="45.44728457760199" lon="9.925793171992705"><ele>94.0</ele><time>2026-05-03T07:46:51.88Z</time></trkpt><trkpt lat="45.44727802734468" lon="9.925697601809018"><ele>94.0</ele><time>2026-05-03T07:46:52.88Z</time></trkpt><trkpt lat="45.447271340090765" lon="9.9255949695677"><ele>94.16666666666666</ele><time>2026-05-03T07:46:53.88Z</time></trkpt><trkpt lat="45.44726793290679" lon="9.92549297777316"><ele>94.33333333333333</ele><time>2026-05-03T07:46:54.88Z</time></trkpt><trkpt lat="45.44726796514752" lon="9.925394146904983"><ele>94.5</ele><time>2026-05-03T07:46:55.88Z</time></trkpt><trkpt lat="45.44726644970811" lon="9.925297742031013"><ele>94.66666666666667</ele><time>2026-05-03T07:46:56.88Z</time></trkpt><trkpt lat="45.44726160437932" lon="9.925199203501622"><ele>94.83333333333334</ele><time>2026-05-03T07:46:57.88Z</time></trkpt><trkpt lat="45.44725854879434" lon="9.92502591426572"><ele>95.0</ele><time>2026-05-03T07:46:59.88Z</time></trkpt><trkpt lat="45.447250765527386" lon="9.924859776238328"><ele>94.6</ele><time>2026-05-03T07:47:01.88Z</time></trkpt><trkpt lat="45.4472464068498" lon="9.924769815110587"><ele>94.2</ele><time>2026-05-03T07:47:02.88Z</time></trkpt><trkpt lat="45.44723569585125" lon="9.92459967571765"><ele>93.80000000000001</ele><time>2026-05-03T07:47:04.88Z</time></trkpt><trkpt lat="45.44723635385373" lon="9.924452334167006"><ele>93.4</ele><time>2026-05-03T07:47:06.88Z</time></trkpt><trkpt lat="45.44725014008453" lon="9.924303904379862"><ele>93.0</ele><time>2026-05-03T07:47:08.88Z</time></trkpt><trkpt lat="45.447328837900066" lon="9.924192523638574"><ele>93.0</ele><time>2026-05-03T07:47:10.88Z</time></trkpt><trkpt lat="45.44739249141976" lon="9.924074491654096"><ele>93.0</ele><time>2026-05-03T07:47:12.879Z</time></trkpt><trkpt lat="45.44744154616314" lon="9.923931647788642"><ele>93.0</ele><time>2026-05-03T07:47:14.879Z</time></trkpt><trkpt lat="45.447457642631136" lon="9.923844643383132"><ele>93.0</ele><time>2026-05-03T07:47:15.879Z</time></trkpt><trkpt lat="45.447474415388" lon="9.923669593563213"><ele>93.0</ele><time>2026-05-03T07:47:17.879Z</time></trkpt><trkpt lat="45.44751355385661" lon="9.923525462950709"><ele>93.0</ele><time>2026-05-03T07:47:19.879Z</time></trkpt><trkpt lat="45.44761299864451" lon="9.923438782442336"><ele>93.0</ele><time>2026-05-03T07:47:21.879Z</time></trkpt><trkpt lat="45.44768206764122" lon="9.923434701770825"><ele>93.0</ele><time>2026-05-03T07:47:22.879Z</time></trkpt><trkpt lat="45.4477524127022" lon="9.923452841627391"><ele>93.0</ele><time>2026-05-03T07:47:23.879Z</time></trkpt><trkpt lat="45.44782371890117" lon="9.923463677119052"><ele>93.0</ele><time>2026-05-03T07:47:24.879Z</time></trkpt><trkpt lat="45.44789642269598" lon="9.923469424796382"><ele>93.0</ele><time>2026-05-03T07:47:25.879Z</time></trkpt><trkpt lat="45.44796826916564" lon="9.923475334605103"><ele>93.28571428571429</ele><time>2026-05-03T07:47:26.879Z</time></trkpt><trkpt lat="45.44803902534453" lon="9.923474732013922"><ele>93.57142857142857</ele><time>2026-05-03T07:47:27.879Z</time></trkpt><trkpt lat="45.44810602288631" lon="9.92346967984558"><ele>93.85714285714286</ele><time>2026-05-03T07:47:28.879Z</time></trkpt><trkpt lat="45.44817795329657" lon="9.923462838410588"><ele>94.14285714285714</ele><time>2026-05-03T07:47:29.879Z</time></trkpt><trkpt lat="45.44825155816252" lon="9.92345941015452"><ele>94.42857142857143</ele><time>2026-05-03T07:47:30.879Z</time></trkpt><trkpt lat="45.44832971483496" lon="9.923454585289896"><ele>94.71428571428572</ele><time>2026-05-03T07:47:31.879Z</time></trkpt><trkpt lat="45.44840684187348" lon="9.923450971435336"><ele>95.0</ele><time>2026-05-03T07:47:32.879Z</time></trkpt><trkpt lat="45.44848200598518" lon="9.923448589828794"><ele>95.0</ele><time>2026-05-03T07:47:33.879Z</time></trkpt><trkpt lat="45.448558998526025" lon="9.923449908782992"><ele>95.0</ele><time>2026-05-03T07:47:34.879Z</time></trkpt><trkpt lat="45.448631494127106" lon="9.923453293067443"><ele>95.0</ele><time>2026-05-03T07:47:35.879Z</time></trkpt><trkpt lat="45.448706560163934" lon="9.923456261289832"><ele>95.0</ele><time>2026-05-03T07:47:36.879Z</time></trkpt><trkpt lat="45.44878057916304" lon="9.923458765781396"><ele>95.0</ele><time>2026-05-03T07:47:37.879Z</time></trkpt><trkpt lat="45.4488539911935" lon="9.923462349879227"><ele>95.0</ele><time>2026-05-03T07:47:38.879Z</time></trkpt><trkpt lat="45.448928177002855" lon="9.923469973334866"><ele>95.0</ele><time>2026-05-03T07:47:39.879Z</time></trkpt><trkpt lat="45.44900035838559" lon="9.9234773087995"><ele>95.0</ele><time>2026-05-03T07:47:40.879Z</time></trkpt><trkpt lat="45.44907580321319" lon="9.92348229894396"><ele>95.0</ele><time>2026-05-03T07:47:41.879Z</time></trkpt><trkpt lat="45.44915279066666" lon="9.92348246457671"><ele>95.0</ele><time>2026-05-03T07:47:42.878Z</time></trkpt><trkpt lat="45.44923090759511" lon="9.92348468325839"><ele>95.0</ele><time>2026-05-03T07:47:43.878Z</time></trkpt><trkpt lat="45.44930940227224" lon="9.923483721498702"><ele>95.0</ele><time>2026-05-03T07:47:44.878Z</time></trkpt><trkpt lat="45.449384989867305" lon="9.92348215919131"><ele>95.0</ele><time>2026-05-03T07:47:45.878Z</time></trkpt><trkpt lat="45.4494588440093" lon="9.923482110333204"><ele>95.0</ele><time>2026-05-03T07:47:46.878Z</time></trkpt><trkpt lat="45.44953557368994" lon="9.923484651265978"><ele>95.0</ele><time>2026-05-03T07:47:47.878Z</time></trkpt><trkpt lat="45.44961041783208" lon="9.923488639179707"><ele>95.0</ele><time>2026-05-03T07:47:48.878Z</time></trkpt><trkpt lat="45.44968354914292" lon="9.92349169601254"><ele>95.0</ele><time>2026-05-03T07:47:49.878Z</time></trkpt><trkpt lat="45.44974986290225" lon="9.923491887884538"><ele>95.0</ele><time>2026-05-03T07:47:50.878Z</time></trkpt><trkpt lat="45.4498185717201" lon="9.923498874341488"><ele>95.0</ele><time>2026-05-03T07:47:51.878Z</time></trkpt><trkpt lat="45.449940973664866" lon="9.923496390468976"><ele>94.8</ele><time>2026-05-03T07:47:53.878Z</time></trkpt><trkpt lat="45.450032068301844" lon="9.923418088548605"><ele>94.6</ele><time>2026-05-03T07:47:55.878Z</time></trkpt><trkpt lat="45.45008560886631" lon="9.923249737566136"><ele>94.4</ele><time>2026-05-03T07:47:57.878Z</time></trkpt><trkpt lat="45.450077620075604" lon="9.923138693927083"><ele>94.2</ele><time>2026-05-03T07:47:58.878Z</time></trkpt><trkpt lat="45.450067086139946" lon="9.923033631090822"><ele>94.0</ele><time>2026-05-03T07:47:59.878Z</time></trkpt><trkpt lat="45.450062142745175" lon="9.922930170503268"><ele>93.83333333333333</ele><time>2026-05-03T07:48:00.878Z</time></trkpt><trkpt lat="45.45006839046303" lon="9.92283040146846"><ele>93.66666666666666</ele><time>2026-05-03T07:48:01.878Z</time></trkpt><trkpt lat="45.45007922245908" lon="9.92273834825625"><ele>93.5</ele><time>2026-05-03T07:48:02.878Z</time></trkpt><trkpt lat="45.450105126672284" lon="9.922647225049557"><ele>93.33333333333333</ele><time>2026-05-03T07:48:03.878Z</time></trkpt><trkpt lat="45.45022307710396" lon="9.922569019125087"><ele>93.16666666666667</ele><time>2026-05-03T07:48:05.878Z</time></trkpt><trkpt lat="45.45029956871441" lon="9.922566113154215"><ele>93.0</ele><time>2026-05-03T07:48:06.878Z</time></trkpt><trkpt lat="45.45037355691706" lon="9.922582945554986"><ele>93.00000000000001</ele><time>2026-05-03T07:48:07.878Z</time></trkpt><trkpt lat="45.450442423720546" lon="9.922596472686072"><ele>93.0</ele><time>2026-05-03T07:48:08.878Z</time></trkpt><trkpt lat="45.45051547607096" lon="9.922603709806673"><ele>93.0</ele><time>2026-05-03T07:48:09.878Z</time></trkpt><trkpt lat="45.450589807806615" lon="9.922605959979908"><ele>93.0</ele><time>2026-05-03T07:48:10.878Z</time></trkpt><trkpt lat="45.45066478877935" lon="9.922601497239143"><ele>93.0</ele><time>2026-05-03T07:48:11.878Z</time></trkpt><trkpt lat="45.45073662554232" lon="9.922598981337472"><ele>93.00000000000001</ele><time>2026-05-03T07:48:12.878Z</time></trkpt><trkpt lat="45.45080964513363" lon="9.922597338933299"><ele>93.0</ele><time>2026-05-03T07:48:13.877Z</time></trkpt><trkpt lat="45.4508824369414" lon="9.922595563495658"><ele>93.28571428571429</ele><time>2026-05-03T07:48:14.877Z</time></trkpt><trkpt lat="45.45095435481818" lon="9.922596424427306"><ele>93.57142857142857</ele><time>2026-05-03T07:48:15.877Z</time></trkpt><trkpt lat="45.4510268662787" lon="9.922597106279998"><ele>93.85714285714286</ele><time>2026-05-03T07:48:16.877Z</time></trkpt><trkpt lat="45.451097447498086" lon="9.922595855475471"><ele>94.14285714285714</ele><time>2026-05-03T07:48:17.877Z</time></trkpt><trkpt lat="45.45116752264373" lon="9.922601289733723"><ele>94.42857142857143</ele><time>2026-05-03T07:48:18.877Z</time></trkpt><trkpt lat="45.45123800434543" lon="9.922600165076439"><ele>94.71428571428572</ele><time>2026-05-03T07:48:19.877Z</time></trkpt><trkpt lat="45.45130941776283" lon="9.922601708613346"><ele>95.0</ele><time>2026-05-03T07:48:20.877Z</time></trkpt><trkpt lat="45.45137971899107" lon="9.922603678025954"><ele>95.0</ele><time>2026-05-03T07:48:21.877Z</time></trkpt><trkpt lat="45.451451664969326" lon="9.922606062925487"><ele>95.0</ele><time>2026-05-03T07:48:22.877Z</time></trkpt><trkpt lat="45.45152108459873" lon="9.922605621487982"><ele>95.0</ele><time>2026-05-03T07:48:23.877Z</time></trkpt><trkpt lat="45.45159059415465" lon="9.922602220677236"><ele>95.0</ele><time>2026-05-03T07:48:24.877Z</time></trkpt><trkpt lat="45.451657395683235" lon="9.92259960760415"><ele>95.0</ele><time>2026-05-03T07:48:25.878Z</time></trkpt><trkpt lat="45.4517281951256" lon="9.922599729834598"><ele>95.0</ele><time>2026-05-03T07:48:26.877Z</time></trkpt><trkpt lat="45.4517992169824" lon="9.922606389936766"><ele>95.0</ele><time>2026-05-03T07:48:27.877Z</time></trkpt><trkpt lat="45.45186859135906" lon="9.922612066189172"><ele>95.0</ele><time>2026-05-03T07:48:28.877Z</time></trkpt><trkpt lat="45.45193439857058" lon="9.922606969991946"><ele>95.0</ele><time>2026-05-03T07:48:29.878Z</time></trkpt><trkpt lat="45.451999684703395" lon="9.92260219919406"><ele>95.0</ele><time>2026-05-03T07:48:30.878Z</time></trkpt><trkpt lat="45.452069067068045" lon="9.922606593928403"><ele>95.0</ele><time>2026-05-03T07:48:31.877Z</time></trkpt><trkpt lat="45.45214280498946" lon="9.922607391243416"><ele>95.0</ele><time>2026-05-03T07:48:32.877Z</time></trkpt><trkpt lat="45.4522154818618" lon="9.922608997679198"><ele>95.0</ele><time>2026-05-03T07:48:33.877Z</time></trkpt><trkpt lat="45.45229230425834" lon="9.922607141716693"><ele>95.0</ele><time>2026-05-03T07:48:34.877Z</time></trkpt><trkpt lat="45.45236701237794" lon="9.922605360802654"><ele>95.28571428571429</ele><time>2026-05-03T07:48:35.878Z</time></trkpt><trkpt lat="45.45244040509671" lon="9.922606301862098"><ele>95.57142857142858</ele><time>2026-05-03T07:48:36.878Z</time></trkpt><trkpt lat="45.452511240975255" lon="9.922608082522258"><ele>95.85714285714286</ele><time>2026-05-03T07:48:37.877Z</time></trkpt><trkpt lat="45.45257860378969" lon="9.922605063297029"><ele>96.14285714285714</ele><time>2026-05-03T07:48:38.878Z</time></trkpt><trkpt lat="45.45264702331114" lon="9.922603606599827"><ele>96.42857142857143</ele><time>2026-05-03T07:48:39.878Z</time></trkpt><trkpt lat="45.45271471735439" lon="9.922601982993497"><ele>96.71428571428571</ele><time>2026-05-03T07:48:40.878Z</time></trkpt><trkpt lat="45.45277955513798" lon="9.922606548374144"><ele>97.0</ele><time>2026-05-03T07:48:41.877Z</time></trkpt><trkpt lat="45.45289807128502" lon="9.922611487767146"><ele>97.00000000000001</ele><time>2026-05-03T07:48:43.877Z</time></trkpt><trkpt lat="45.45298944900809" lon="9.922581411691827"><ele>97.0</ele><time>2026-05-03T07:48:45.874Z</time></trkpt><trkpt lat="45.45304578817529" lon="9.92249792173225"><ele>97.0</ele><time>2026-05-03T07:48:47.87Z</time></trkpt><trkpt lat="45.453064043073006" lon="9.922339146131474"><ele>97.0</ele><time>2026-05-03T07:48:49.867Z</time></trkpt><trkpt lat="45.45305037850942" lon="9.922235892676722"><ele>97.00000000000001</ele><time>2026-05-03T07:48:50.866Z</time></trkpt><trkpt lat="45.45303098704184" lon="9.922128856608627"><ele>97.0</ele><time>2026-05-03T07:48:51.865Z</time></trkpt><trkpt lat="45.453009070648086" lon="9.922025864460826"><ele>97.0</ele><time>2026-05-03T07:48:52.864Z</time></trkpt><trkpt lat="45.45298542762601" lon="9.921925921909027"><ele>97.0</ele><time>2026-05-03T07:48:53.863Z</time></trkpt><trkpt lat="45.45296524646746" lon="9.921828560982139"><ele>97.0</ele><time>2026-05-03T07:48:54.862Z</time></trkpt><trkpt lat="45.45294941374183" lon="9.921727341058189"><ele>97.0</ele><time>2026-05-03T07:48:55.861Z</time></trkpt><trkpt lat="45.45293346260746" lon="9.921628891395265"><ele>97.0</ele><time>2026-05-03T07:48:56.86Z</time></trkpt><trkpt lat="45.452915827344114" lon="9.921527070692019"><ele>97.0</ele><time>2026-05-03T07:48:57.859Z</time></trkpt><trkpt lat="45.4528993594546" lon="9.92143043828585"><ele>97.0</ele><time>2026-05-03T07:48:58.858Z</time></trkpt><trkpt lat="45.45288713508417" lon="9.921336835939226"><ele>97.00000000000001</ele><time>2026-05-03T07:48:59.857Z</time></trkpt><trkpt lat="45.4528768644823" lon="9.921237748612546"><ele>97.0</ele><time>2026-05-03T07:49:00.857Z</time></trkpt><trkpt lat="45.45287007644687" lon="9.921142867213977"><ele>97.0</ele><time>2026-05-03T07:49:01.856Z</time></trkpt><trkpt lat="45.45286425095361" lon="9.921047636728588"><ele>97.0</ele><time>2026-05-03T07:49:02.855Z</time></trkpt><trkpt lat="45.452873458465525" lon="9.920868748366763"><ele>97.00000000000001</ele><time>2026-05-03T07:49:04.854Z</time></trkpt><trkpt lat="45.45288873571638" lon="9.92077411450367"><ele>97.0</ele><time>2026-05-03T07:49:05.854Z</time></trkpt><trkpt lat="45.45290851251303" lon="9.920683218268671"><ele>97.00000000000001</ele><time>2026-05-03T07:49:06.853Z</time></trkpt><trkpt lat="45.452934754300564" lon="9.920599514376201"><ele>97.0</ele><time>2026-05-03T07:49:07.853Z</time></trkpt><trkpt lat="45.45297429447562" lon="9.920524358091455"><ele>97.0</ele><time>2026-05-03T07:49:08.852Z</time></trkpt><trkpt lat="45.45302195629089" lon="9.920454294274638"><ele>97.0</ele><time>2026-05-03T07:49:09.852Z</time></trkpt><trkpt lat="45.45310078981689" lon="9.920329387412272"><ele>97.00000000000001</ele><time>2026-05-03T07:49:11.851Z</time></trkpt><trkpt lat="45.45315433740571" lon="9.920188359714365"><ele>97.0</ele><time>2026-05-03T07:49:13.85Z</time></trkpt><trkpt lat="45.45316126745374" lon="9.920092508048773"><ele>96.85714285714285</ele><time>2026-05-03T07:49:14.85Z</time></trkpt><trkpt lat="45.45316358717941" lon="9.919995003311863"><ele>96.71428571428572</ele><time>2026-05-03T07:49:15.85Z</time></trkpt><trkpt lat="45.45317615247278" lon="9.919901706412608"><ele>96.57142857142857</ele><time>2026-05-03T07:49:16.849Z</time></trkpt><trkpt lat="45.45320993370828" lon="9.919820151966274"><ele>96.42857142857142</ele><time>2026-05-03T07:49:17.849Z</time></trkpt><trkpt lat="45.4532700130109" lon="9.919758842584018"><ele>96.28571428571428</ele><time>2026-05-03T07:49:18.849Z</time></trkpt><trkpt lat="45.453338584686065" lon="9.919711920962815"><ele>96.14285714285714</ele><time>2026-05-03T07:49:19.849Z</time></trkpt><trkpt lat="45.4534087399296" lon="9.9196817817792"><ele>96.0</ele><time>2026-05-03T07:49:20.848Z</time></trkpt><trkpt lat="45.45347680835506" lon="9.91965101982162"><ele>95.99999999999999</ele><time>2026-05-03T07:49:21.848Z</time></trkpt><trkpt lat="45.45353532069356" lon="9.91961677708986"><ele>96.0</ele><time>2026-05-03T07:49:22.848Z</time></trkpt><trkpt lat="45.45360365030063" lon="9.91957389730319"><ele>96.0</ele><time>2026-05-03T07:49:23.848Z</time></trkpt><trkpt lat="45.45367651446389" lon="9.919532024431815"><ele>96.0</ele><time>2026-05-03T07:49:24.848Z</time></trkpt><trkpt lat="45.45374607631731" lon="9.919496067262633"><ele>96.0</ele><time>2026-05-03T07:49:25.847Z</time></trkpt><trkpt lat="45.45381663100854" lon="9.919456148824414"><ele>95.99999999999999</ele><time>2026-05-03T07:49:26.847Z</time></trkpt><trkpt lat="45.45388400261461" lon="9.919412324996438"><ele>96.0</ele><time>2026-05-03T07:49:27.847Z</time></trkpt><trkpt lat="45.45395450051488" lon="9.919366986498753"><ele>95.85714285714285</ele><time>2026-05-03T07:49:28.847Z</time></trkpt><trkpt lat="45.45401997847876" lon="9.919321580861311"><ele>95.71428571428571</ele><time>2026-05-03T07:49:29.847Z</time></trkpt><trkpt lat="45.45409221614568" lon="9.919273178277669"><ele>95.57142857142857</ele><time>2026-05-03T07:49:30.847Z</time></trkpt><trkpt lat="45.454158684024534" lon="9.919231037428634"><ele>95.42857142857142</ele><time>2026-05-03T07:49:31.847Z</time></trkpt><trkpt lat="45.45422377881988" lon="9.91918983209399"><ele>95.28571428571429</ele><time>2026-05-03T07:49:32.846Z</time></trkpt><trkpt lat="45.45429486311181" lon="9.919147913581428"><ele>95.14285714285714</ele><time>2026-05-03T07:49:33.846Z</time></trkpt><trkpt lat="45.45436311531157" lon="9.919104807837998"><ele>95.0</ele><time>2026-05-03T07:49:34.846Z</time></trkpt><trkpt lat="45.454430580320526" lon="9.919062337189924"><ele>95.0</ele><time>2026-05-03T07:49:35.846Z</time></trkpt><trkpt lat="45.45449629072636" lon="9.919015004784704"><ele>95.0</ele><time>2026-05-03T07:49:36.846Z</time></trkpt><trkpt lat="45.45456051571308" lon="9.91896678064048"><ele>95.0</ele><time>2026-05-03T07:49:37.846Z</time></trkpt><trkpt lat="45.454617303963204" lon="9.918922927823752"><ele>95.0</ele><time>2026-05-03T07:49:38.846Z</time></trkpt><trkpt lat="45.45468791867312" lon="9.918884772555769"><ele>95.0</ele><time>2026-05-03T07:49:39.846Z</time></trkpt><trkpt lat="45.454758284580684" lon="9.918843558510533"><ele>95.0</ele><time>2026-05-03T07:49:40.846Z</time></trkpt><trkpt lat="45.45482596604662" lon="9.918801955705488"><ele>95.0</ele><time>2026-05-03T07:49:41.846Z</time></trkpt><trkpt lat="45.45489259839151" lon="9.918756527473537"><ele>95.0</ele><time>2026-05-03T07:49:42.845Z</time></trkpt><trkpt lat="45.454954657222636" lon="9.918714598499545"><ele>95.0</ele><time>2026-05-03T07:49:43.845Z</time></trkpt><trkpt lat="45.455018460169384" lon="9.918671813031963"><ele>95.0</ele><time>2026-05-03T07:49:44.845Z</time></trkpt><trkpt lat="45.455086433437096" lon="9.918631255974095"><ele>95.0</ele><time>2026-05-03T07:49:45.845Z</time></trkpt><trkpt lat="45.45515449119104" lon="9.918589803044856"><ele>95.0</ele><time>2026-05-03T07:49:46.845Z</time></trkpt><trkpt lat="45.45522263915268" lon="9.918546464549266"><ele>95.0</ele><time>2026-05-03T07:49:47.845Z</time></trkpt><trkpt lat="45.4552868217749" lon="9.91850527125086"><ele>95.0</ele><time>2026-05-03T07:49:48.845Z</time></trkpt><trkpt lat="45.45535315995001" lon="9.918474158340512"><ele>95.0</ele><time>2026-05-03T07:49:49.845Z</time></trkpt><trkpt lat="45.45541990676853" lon="9.918427997554806"><ele>95.0</ele><time>2026-05-03T07:49:50.845Z</time></trkpt><trkpt lat="45.45548436650062" lon="9.918386018734742"><ele>95.0</ele><time>2026-05-03T07:49:51.845Z</time></trkpt><trkpt lat="45.455547227596604" lon="9.918342902906994"><ele>95.0</ele><time>2026-05-03T07:49:52.845Z</time></trkpt><trkpt lat="45.455611703854366" lon="9.918301500127704"><ele>95.0</ele><time>2026-05-03T07:49:53.845Z</time></trkpt><trkpt lat="45.45567594755227" lon="9.918259899482164"><ele>95.0</ele><time>2026-05-03T07:49:54.845Z</time></trkpt><trkpt lat="45.45573829827331" lon="9.918219938975492"><ele>95.0</ele><time>2026-05-03T07:49:55.845Z</time></trkpt><trkpt lat="45.455805032784184" lon="9.918178913158119"><ele>95.16666666666667</ele><time>2026-05-03T07:49:56.845Z</time></trkpt><trkpt lat="45.45587657225465" lon="9.91813372676555"><ele>95.33333333333334</ele><time>2026-05-03T07:49:57.844Z</time></trkpt><trkpt lat="45.45594987389947" lon="9.918083689941662"><ele>95.5</ele><time>2026-05-03T07:49:58.844Z</time></trkpt><trkpt lat="45.45601603261656" lon="9.918039572157612"><ele>95.66666666666667</ele><time>2026-05-03T07:49:59.844Z</time></trkpt><trkpt lat="45.456081077678135" lon="9.917999875654735"><ele>95.83333333333333</ele><time>2026-05-03T07:50:00.844Z</time></trkpt><trkpt lat="45.456147381376184" lon="9.91795791830519"><ele>96.0</ele><time>2026-05-03T07:50:01.844Z</time></trkpt><trkpt lat="45.45621572381807" lon="9.917911510092475"><ele>96.0</ele><time>2026-05-03T07:50:02.844Z</time></trkpt><trkpt lat="45.45628331580182" lon="9.9178716585806"><ele>96.0</ele><time>2026-05-03T07:50:03.844Z</time></trkpt><trkpt lat="45.456354473058205" lon="9.917827806163594"><ele>96.0</ele><time>2026-05-03T07:50:04.844Z</time></trkpt><trkpt lat="45.45642264076951" lon="9.917777656264494"><ele>96.0</ele><time>2026-05-03T07:50:05.844Z</time></trkpt><trkpt lat="45.45649878918161" lon="9.917729299399724"><ele>96.0</ele><time>2026-05-03T07:50:06.844Z</time></trkpt><trkpt lat="45.45657335666973" lon="9.917683645122999"><ele>96.0</ele><time>2026-05-03T07:50:07.844Z</time></trkpt><trkpt lat="45.45663769917576" lon="9.917636979113313"><ele>95.99999999999999</ele><time>2026-05-03T07:50:08.844Z</time></trkpt><trkpt lat="45.45670529521848" lon="9.917595424679826"><ele>96.0</ele><time>2026-05-03T07:50:09.844Z</time></trkpt><trkpt lat="45.456767928722385" lon="9.917559555431145"><ele>96.0</ele><time>2026-05-03T07:50:10.844Z</time></trkpt><trkpt lat="45.45683892473266" lon="9.917512220500745"><ele>96.0</ele><time>2026-05-03T07:50:11.844Z</time></trkpt><trkpt lat="45.45690705628803" lon="9.917468269658883"><ele>96.0</ele><time>2026-05-03T07:50:12.844Z</time></trkpt><trkpt lat="45.45697212837198" lon="9.917426083776737"><ele>95.99999999999999</ele><time>2026-05-03T07:50:13.844Z</time></trkpt><trkpt lat="45.45703499645259" lon="9.917379844022006"><ele>96.0</ele><time>2026-05-03T07:50:14.844Z</time></trkpt><trkpt lat="45.45709969008308" lon="9.91733493644471"><ele>96.28571428571428</ele><time>2026-05-03T07:50:15.844Z</time></trkpt><trkpt lat="45.45716198621086" lon="9.917294408859647"><ele>96.57142857142857</ele><time>2026-05-03T07:50:16.844Z</time></trkpt><trkpt lat="45.4572279867718" lon="9.9172519657863"><ele>96.85714285714286</ele><time>2026-05-03T07:50:17.844Z</time></trkpt><trkpt lat="45.45729091084153" lon="9.917205671240536"><ele>97.14285714285714</ele><time>2026-05-03T07:50:18.843Z</time></trkpt><trkpt lat="45.457352591894846" lon="9.917156177152949"><ele>97.42857142857143</ele><time>2026-05-03T07:50:19.843Z</time></trkpt><trkpt lat="45.45741220915077" lon="9.917107094292163"><ele>97.71428571428571</ele><time>2026-05-03T07:50:20.843Z</time></trkpt><trkpt lat="45.457468618421515" lon="9.917063379753637"><ele>98.0</ele><time>2026-05-03T07:50:21.843Z</time></trkpt><trkpt lat="45.45757227524576" lon="9.916990451684477"><ele>98.0</ele><time>2026-05-03T07:50:23.843Z</time></trkpt><trkpt lat="45.45765775580229" lon="9.91690522851929"><ele>98.0</ele><time>2026-05-03T07:50:25.843Z</time></trkpt><trkpt lat="45.45768208574073" lon="9.916768467120162"><ele>98.0</ele><time>2026-05-03T07:50:27.843Z</time></trkpt><trkpt lat="45.45763675604811" lon="9.916582024379712"><ele>98.0</ele><time>2026-05-03T07:50:29.843Z</time></trkpt><trkpt lat="45.45760098474539" lon="9.91647175914162"><ele>98.0</ele><time>2026-05-03T07:50:30.843Z</time></trkpt><trkpt lat="45.45755645736685" lon="9.916358647071265"><ele>97.66666666666666</ele><time>2026-05-03T07:50:31.843Z</time></trkpt><trkpt lat="45.45751579490108" lon="9.916253426156516"><ele>97.33333333333333</ele><time>2026-05-03T07:50:32.844Z</time></trkpt><trkpt lat="45.457475361606946" lon="9.916157632649764"><ele>97.0</ele><time>2026-05-03T07:50:33.844Z</time></trkpt><trkpt lat="45.457439930532594" lon="9.91606430313187"><ele>96.66666666666666</ele><time>2026-05-03T07:50:34.843Z</time></trkpt><trkpt lat="45.45740493683114" lon="9.915972780998768"><ele>96.33333333333333</ele><time>2026-05-03T07:50:35.843Z</time></trkpt><trkpt lat="45.45736797898529" lon="9.915884457433092"><ele>96.0</ele><time>2026-05-03T07:50:36.843Z</time></trkpt><trkpt lat="45.45733123240544" lon="9.915800508481139"><ele>96.0</ele><time>2026-05-03T07:50:37.843Z</time></trkpt><trkpt lat="45.457276983853454" lon="9.915632900013552"><ele>96.0</ele><time>2026-05-03T07:50:39.843Z</time></trkpt><trkpt lat="45.457241214845396" lon="9.915538784764458"><ele>96.0</ele><time>2026-05-03T07:50:40.843Z</time></trkpt><trkpt lat="45.4572028823269" lon="9.915447727251138"><ele>96.0</ele><time>2026-05-03T07:50:41.843Z</time></trkpt><trkpt lat="45.45717092808012" lon="9.915369488136724"><ele>96.0</ele><time>2026-05-03T07:50:42.843Z</time></trkpt><trkpt lat="45.45713505705307" lon="9.915291447987212"><ele>96.0</ele><time>2026-05-03T07:50:43.844Z</time></trkpt><trkpt lat="45.457102999877065" lon="9.915212091632919"><ele>95.33333333333333</ele><time>2026-05-03T07:50:44.843Z</time></trkpt><trkpt lat="45.45706838206478" lon="9.915135230746591"><ele>94.66666666666667</ele><time>2026-05-03T07:50:45.843Z</time></trkpt><trkpt lat="45.457013919839554" lon="9.914997573496011"><ele>94.0</ele><time>2026-05-03T07:50:47.843Z</time></trkpt><trkpt lat="45.456952498125716" lon="9.914831841615369"><ele>93.33333333333334</ele><time>2026-05-03T07:50:49.843Z</time></trkpt><trkpt lat="45.4569193803914" lon="9.91474685729593"><ele>92.66666666666667</ele><time>2026-05-03T07:50:50.843Z</time></trkpt><trkpt lat="45.45688294689784" lon="9.91465799219068"><ele>92.0</ele><time>2026-05-03T07:50:51.843Z</time></trkpt><trkpt lat="45.45684741923921" lon="9.91456778989931"><ele>91.85714285714286</ele><time>2026-05-03T07:50:52.843Z</time></trkpt><trkpt lat="45.456809293751554" lon="9.914481930139747"><ele>91.71428571428571</ele><time>2026-05-03T07:50:53.843Z</time></trkpt><trkpt lat="45.45677488439712" lon="9.914399366221977"><ele>91.57142857142857</ele><time>2026-05-03T07:50:54.843Z</time></trkpt><trkpt lat="45.4567403107308" lon="9.914313783192535"><ele>91.42857142857143</ele><time>2026-05-03T07:50:55.843Z</time></trkpt><trkpt lat="45.45670695816987" lon="9.914226070927143"><ele>91.28571428571428</ele><time>2026-05-03T07:50:56.843Z</time></trkpt><trkpt lat="45.456671959335196" lon="9.914140116094954"><ele>91.14285714285714</ele><time>2026-05-03T07:50:57.843Z</time></trkpt><trkpt lat="45.45663685141871" lon="9.91405364276346"><ele>91.0</ele><time>2026-05-03T07:50:58.843Z</time></trkpt><trkpt lat="45.45660693690552" lon="9.913961576974533"><ele>91.0</ele><time>2026-05-03T07:50:59.843Z</time></trkpt><trkpt lat="45.456573689230794" lon="9.913880091123058"><ele>91.0</ele><time>2026-05-03T07:51:00.843Z</time></trkpt><trkpt lat="45.4565109138628" lon="9.913735793108566"><ele>91.0</ele><time>2026-05-03T07:51:02.842Z</time></trkpt><trkpt lat="45.45647881984553" lon="9.913654850485408"><ele>91.0</ele><time>2026-05-03T07:51:03.842Z</time></trkpt><trkpt lat="45.45645193673807" lon="9.913571009044379"><ele>91.0</ele><time>2026-05-03T07:51:04.842Z</time></trkpt><trkpt lat="45.45643636037695" lon="9.913479497645936"><ele>91.0</ele><time>2026-05-03T07:51:05.842Z</time></trkpt><trkpt lat="45.4564272768108" lon="9.913388115097089"><ele>91.0</ele><time>2026-05-03T07:51:06.842Z</time></trkpt><trkpt lat="45.45643070739636" lon="9.913292553216106"><ele>91.33333333333333</ele><time>2026-05-03T07:51:07.842Z</time></trkpt><trkpt lat="45.45643894851457" lon="9.91319841821983"><ele>91.66666666666666</ele><time>2026-05-03T07:51:08.842Z</time></trkpt><trkpt lat="45.45644399875772" lon="9.91310449682039"><ele>92.0</ele><time>2026-05-03T07:51:09.842Z</time></trkpt><trkpt lat="45.4564471737266" lon="9.913010956176466"><ele>92.33333333333333</ele><time>2026-05-03T07:51:10.842Z</time></trkpt><trkpt lat="45.45644841517056" lon="9.912919901775354"><ele>92.66666666666667</ele><time>2026-05-03T07:51:11.842Z</time></trkpt><trkpt lat="45.456464836299986" lon="9.912764817591963"><ele>93.0</ele><time>2026-05-03T07:51:13.842Z</time></trkpt><trkpt lat="45.45653939534474" lon="9.912694567735226"><ele>93.0</ele><time>2026-05-03T07:51:16.842Z</time></trkpt><trkpt lat="45.4566504208225" lon="9.912724649812224"><ele>93.0</ele><time>2026-05-03T07:51:18.842Z</time></trkpt><trkpt lat="45.4567779454603" lon="9.912733013402944"><ele>93.0</ele><time>2026-05-03T07:51:20.842Z</time></trkpt><trkpt lat="45.45684849772276" lon="9.91272966257952"><ele>93.0</ele><time>2026-05-03T07:51:21.842Z</time></trkpt><trkpt lat="45.456912749293245" lon="9.912719297400827"><ele>93.0</ele><time>2026-05-03T07:51:22.842Z</time></trkpt><trkpt lat="45.456976077106496" lon="9.912708079530168"><ele>93.0</ele><time>2026-05-03T07:51:23.842Z</time></trkpt><trkpt lat="45.45710084701585" lon="9.912690538205045"><ele>92.75</ele><time>2026-05-03T07:51:25.842Z</time></trkpt><trkpt lat="45.457233285288424" lon="9.912669562922702"><ele>92.5</ele><time>2026-05-03T07:51:27.841Z</time></trkpt><trkpt lat="45.45736099324689" lon="9.91264934333957"><ele>92.25</ele><time>2026-05-03T07:51:29.841Z</time></trkpt><trkpt lat="45.45749804767867" lon="9.912629482935301"><ele>92.0</ele><time>2026-05-03T07:51:31.841Z</time></trkpt><trkpt lat="45.45762237414138" lon="9.912620659290718"><ele>92.0</ele><time>2026-05-03T07:51:33.841Z</time></trkpt><trkpt lat="45.45768942272714" lon="9.91261207651571"><ele>92.0</ele><time>2026-05-03T07:51:34.841Z</time></trkpt><trkpt lat="45.45782071111607" lon="9.912587278820892"><ele>92.0</ele><time>2026-05-03T07:51:36.841Z</time></trkpt><trkpt lat="45.45788926657973" lon="9.912573124378767"><ele>92.0</ele><time>2026-05-03T07:51:37.841Z</time></trkpt><trkpt lat="45.457953094765585" lon="9.912562791997322"><ele>92.0</ele><time>2026-05-03T07:51:38.841Z</time></trkpt><trkpt lat="45.45801718970825" lon="9.912553566198332"><ele>92.0</ele><time>2026-05-03T07:51:39.841Z</time></trkpt><trkpt lat="45.458139693272905" lon="9.912530050466854"><ele>92.14285714285715</ele><time>2026-05-03T07:51:41.841Z</time></trkpt><trkpt lat="45.45820821983691" lon="9.91252543110618"><ele>92.28571428571428</ele><time>2026-05-03T07:51:42.841Z</time></trkpt><trkpt lat="45.458277799249124" lon="9.91251869666333"><ele>92.42857142857143</ele><time>2026-05-03T07:51:43.841Z</time></trkpt><trkpt lat="45.45834594822373" lon="9.912516601037822"><ele>92.57142857142858</ele><time>2026-05-03T07:51:44.841Z</time></trkpt><trkpt lat="45.45841517498979" lon="9.912516859299293"><ele>92.71428571428572</ele><time>2026-05-03T07:51:45.841Z</time></trkpt><trkpt lat="45.45847852093718" lon="9.912509515515502"><ele>92.85714285714286</ele><time>2026-05-03T07:51:46.841Z</time></trkpt><trkpt lat="45.45854903466184" lon="9.912507967112452"><ele>93.0</ele><time>2026-05-03T07:51:47.841Z</time></trkpt><trkpt lat="45.458615442691325" lon="9.91250406210917"><ele>93.0</ele><time>2026-05-03T07:51:48.841Z</time></trkpt><trkpt lat="45.45867850509896" lon="9.912501868977285"><ele>93.0</ele><time>2026-05-03T07:51:49.841Z</time></trkpt><trkpt lat="45.45881144121604" lon="9.912504168153312"><ele>93.0</ele><time>2026-05-03T07:51:51.841Z</time></trkpt><trkpt lat="45.458880114080436" lon="9.912510825207871"><ele>93.0</ele><time>2026-05-03T07:51:52.841Z</time></trkpt><trkpt lat="45.45894830653067" lon="9.912514664885546"><ele>93.0</ele><time>2026-05-03T07:51:53.84Z</time></trkpt><trkpt lat="45.45901418061198" lon="9.91251803019061"><ele>93.0</ele><time>2026-05-03T07:51:54.84Z</time></trkpt><trkpt lat="45.45908077986548" lon="9.912525908542499"><ele>93.0</ele><time>2026-05-03T07:51:55.84Z</time></trkpt><trkpt lat="45.45914649994972" lon="9.912531188011346"><ele>93.0</ele><time>2026-05-03T07:51:56.84Z</time></trkpt><trkpt lat="45.45921202834816" lon="9.912542201715649"><ele>93.0</ele><time>2026-05-03T07:51:57.84Z</time></trkpt><trkpt lat="45.45927812760603" lon="9.912559417772787"><ele>93.0</ele><time>2026-05-03T07:51:58.84Z</time></trkpt><trkpt lat="45.459345269485745" lon="9.912579878904861"><ele>93.0</ele><time>2026-05-03T07:51:59.84Z</time></trkpt><trkpt lat="45.45947671410479" lon="9.912608231530628"><ele>93.0</ele><time>2026-05-03T07:52:01.84Z</time></trkpt><trkpt lat="45.45954440976287" lon="9.912615986412199"><ele>93.00000000000001</ele><time>2026-05-03T07:52:02.84Z</time></trkpt><trkpt lat="45.45960950487485" lon="9.912612011126843"><ele>93.0</ele><time>2026-05-03T07:52:03.84Z</time></trkpt><trkpt lat="45.45968199814728" lon="9.912610796393748"><ele>93.0</ele><time>2026-05-03T07:52:04.84Z</time></trkpt><trkpt lat="45.459752281196586" lon="9.912595167238104"><ele>93.0</ele><time>2026-05-03T07:52:05.84Z</time></trkpt><trkpt lat="45.45981998188818" lon="9.912577749327113"><ele>93.0</ele><time>2026-05-03T07:52:06.84Z</time></trkpt><trkpt lat="45.459887658567666" lon="9.912559953308627"><ele>93.00000000000001</ele><time>2026-05-03T07:52:07.84Z</time></trkpt><trkpt lat="45.45995414515553" lon="9.912544020970733"><ele>93.0</ele><time>2026-05-03T07:52:08.84Z</time></trkpt><trkpt lat="45.460017628298196" lon="9.912526927283267"><ele>93.33333333333333</ele><time>2026-05-03T07:52:09.84Z</time></trkpt><trkpt lat="45.460083748832815" lon="9.91249885848768"><ele>93.66666666666667</ele><time>2026-05-03T07:52:10.84Z</time></trkpt><trkpt lat="45.4601973953403" lon="9.912438483348868"><ele>94.0</ele><time>2026-05-03T07:52:12.84Z</time></trkpt><trkpt lat="45.46025910212804" lon="9.912405741569142"><ele>94.33333333333334</ele><time>2026-05-03T07:52:13.84Z</time></trkpt><trkpt lat="45.46032212873377" lon="9.91236920774741"><ele>94.66666666666667</ele><time>2026-05-03T07:52:14.84Z</time></trkpt><trkpt lat="45.46038269906346" lon="9.91232433420049"><ele>95.0</ele><time>2026-05-03T07:52:15.84Z</time></trkpt><trkpt lat="45.46044008552688" lon="9.912283750593557"><ele>95.33333333333334</ele><time>2026-05-03T07:52:16.84Z</time></trkpt><trkpt lat="45.4605541932431" lon="9.912213651694064"><ele>95.66666666666667</ele><time>2026-05-03T07:52:18.839Z</time></trkpt><trkpt lat="45.460617799880765" lon="9.912168035533865"><ele>96.0</ele><time>2026-05-03T07:52:19.839Z</time></trkpt><trkpt lat="45.46067687886294" lon="9.912134968569259"><ele>96.33333333333334</ele><time>2026-05-03T07:52:20.839Z</time></trkpt><trkpt lat="45.46073533686815" lon="9.912098199559177"><ele>96.66666666666667</ele><time>2026-05-03T07:52:21.839Z</time></trkpt><trkpt lat="45.46084010633868" lon="9.91203834500209"><ele>97.0</ele><time>2026-05-03T07:52:23.839Z</time></trkpt><trkpt lat="45.46093057122455" lon="9.912052298273169"><ele>97.0</ele><time>2026-05-03T07:52:25.839Z</time></trkpt><trkpt lat="45.460977047928424" lon="9.912179137958828"><ele>97.0</ele><time>2026-05-03T07:52:27.839Z</time></trkpt><trkpt lat="45.46101990534036" lon="9.912328871630308"><ele>97.0</ele><time>2026-05-03T07:52:29.839Z</time></trkpt><trkpt lat="45.46106197291025" lon="9.912480571499023"><ele>97.0</ele><time>2026-05-03T07:52:31.839Z</time></trkpt><trkpt lat="45.461100729885416" lon="9.912636552592005"><ele>97.0</ele><time>2026-05-03T07:52:33.839Z</time></trkpt><trkpt lat="45.46113484049126" lon="9.912764214141834"><ele>96.8</ele><time>2026-05-03T07:52:35.839Z</time></trkpt><trkpt lat="45.46117276654952" lon="9.912891103302718"><ele>96.6</ele><time>2026-05-03T07:52:37.84Z</time></trkpt><trkpt lat="45.4612583797159" lon="9.91299777321777"><ele>96.39999999999999</ele><time>2026-05-03T07:52:39.84Z</time></trkpt><trkpt lat="45.46137747207933" lon="9.912977099290261"><ele>96.19999999999999</ele><time>2026-05-03T07:52:41.839Z</time></trkpt><trkpt lat="45.46143795371793" lon="9.912946369554268"><ele>96.0</ele><time>2026-05-03T07:52:42.839Z</time></trkpt><trkpt lat="45.46156072563459" lon="9.9128870255601"><ele>96.6</ele><time>2026-05-03T07:52:44.839Z</time></trkpt><trkpt lat="45.461622598599405" lon="9.912862788355724"><ele>97.19999999999999</ele><time>2026-05-03T07:52:45.839Z</time></trkpt><trkpt lat="45.46173176724626" lon="9.912822629750757"><ele>97.80000000000001</ele><time>2026-05-03T07:52:47.84Z</time></trkpt><trkpt lat="45.461835864574596" lon="9.912803527939165"><ele>98.4</ele><time>2026-05-03T07:52:49.839Z</time></trkpt><trkpt lat="45.46193951958008" lon="9.912756112790094"><ele>99.0</ele><time>2026-05-03T07:52:51.839Z</time></trkpt><trkpt lat="45.462043172182725" lon="9.912701917175587"><ele>99.2</ele><time>2026-05-03T07:52:53.839Z</time></trkpt><trkpt lat="45.46213492050689" lon="9.912664641202532"><ele>99.4</ele><time>2026-05-03T07:52:55.839Z</time></trkpt><trkpt lat="45.46224075890751" lon="9.912589899931355"><ele>99.6</ele><time>2026-05-03T07:52:57.839Z</time></trkpt><trkpt lat="45.46234191955077" lon="9.912517064546691"><ele>99.8</ele><time>2026-05-03T07:52:59.839Z</time></trkpt><trkpt lat="45.462415076511" lon="9.912477404531067"><ele>100.0</ele><time>2026-05-03T07:53:01.839Z</time></trkpt><trkpt lat="45.46259480631109" lon="9.91233529055812"><ele>100.0</ele><time>2026-05-03T07:53:06.838Z</time></trkpt><trkpt lat="45.46259159711176" lon="9.912245300471572"><ele>100.0</ele><time>2026-05-03T07:53:07.838Z</time></trkpt><trkpt lat="45.46258889984585" lon="9.912090880729624"><ele>100.0</ele><time>2026-05-03T07:53:09.838Z</time></trkpt><trkpt lat="45.46258251576381" lon="9.91191897437762"><ele>100.0</ele><time>2026-05-03T07:53:11.838Z</time></trkpt><trkpt lat="45.46257164257759" lon="9.911737110480296"><ele>100.0</ele><time>2026-05-03T07:53:13.838Z</time></trkpt><trkpt lat="45.46255989879008" lon="9.911645464187098"><ele>100.00000000000001</ele><time>2026-05-03T07:53:14.838Z</time></trkpt><trkpt lat="45.46253013569881" lon="9.91155746385558"><ele>100.0</ele><time>2026-05-03T07:53:15.838Z</time></trkpt><trkpt lat="45.46248576056316" lon="9.911473392254184"><ele>100.0</ele><time>2026-05-03T07:53:16.838Z</time></trkpt><trkpt lat="45.462444989729285" lon="9.911395973045744"><ele>100.0</ele><time>2026-05-03T07:53:17.838Z</time></trkpt><trkpt lat="45.46240247202121" lon="9.911318315055103"><ele>100.00000000000001</ele><time>2026-05-03T07:53:18.838Z</time></trkpt><trkpt lat="45.4623579150045" lon="9.91125454771972"><ele>100.0</ele><time>2026-05-03T07:53:19.838Z</time></trkpt><trkpt lat="45.462252694837346" lon="9.911150880181191"><ele>100.00000000000001</ele><time>2026-05-03T07:53:21.838Z</time></trkpt><trkpt lat="45.4622015101984" lon="9.911078527590428"><ele>100.0</ele><time>2026-05-03T07:53:22.838Z</time></trkpt><trkpt lat="45.46217303939965" lon="9.910982329960598"><ele>100.0</ele><time>2026-05-03T07:53:23.838Z</time></trkpt><trkpt lat="45.462134512984264" lon="9.910898144097262"><ele>100.0</ele><time>2026-05-03T07:53:24.838Z</time></trkpt><trkpt lat="45.46209122504844" lon="9.91081376774846"><ele>100.0</ele><time>2026-05-03T07:53:25.838Z</time></trkpt><trkpt lat="45.462042774374176" lon="9.91073712243173"><ele>100.00000000000001</ele><time>2026-05-03T07:53:26.838Z</time></trkpt><trkpt lat="45.4619968555901" lon="9.910662135278526"><ele>100.0</ele><time>2026-05-03T07:53:27.838Z</time></trkpt><trkpt lat="45.46195444819504" lon="9.910579904472073"><ele>99.57142857142858</ele><time>2026-05-03T07:53:28.838Z</time></trkpt><trkpt lat="45.461910934386914" lon="9.910497020312894"><ele>99.14285714285714</ele><time>2026-05-03T07:53:29.838Z</time></trkpt><trkpt lat="45.46186650816751" lon="9.910415930217663"><ele>98.71428571428572</ele><time>2026-05-03T07:53:30.838Z</time></trkpt><trkpt lat="45.46182547174495" lon="9.910335508955013"><ele>98.28571428571429</ele><time>2026-05-03T07:53:31.838Z</time></trkpt><trkpt lat="45.46178813668033" lon="9.910248436555818"><ele>97.85714285714286</ele><time>2026-05-03T07:53:32.837Z</time></trkpt><trkpt lat="45.461740763068384" lon="9.910175030294548"><ele>97.42857142857143</ele><time>2026-05-03T07:53:33.837Z</time></trkpt><trkpt lat="45.46169476159065" lon="9.910094049671347"><ele>97.0</ele><time>2026-05-03T07:53:34.837Z</time></trkpt><trkpt lat="45.46164955984164" lon="9.910010808913569"><ele>97.0</ele><time>2026-05-03T07:53:35.837Z</time></trkpt><trkpt lat="45.46160700067046" lon="9.90992774461863"><ele>97.0</ele><time>2026-05-03T07:53:36.837Z</time></trkpt><trkpt lat="45.461561710349066" lon="9.909849504699972"><ele>97.0</ele><time>2026-05-03T07:53:37.837Z</time></trkpt><trkpt lat="45.461516208567815" lon="9.909773057273345"><ele>97.0</ele><time>2026-05-03T07:53:38.837Z</time></trkpt><trkpt lat="45.46146719437282" lon="9.909689116046774"><ele>97.0</ele><time>2026-05-03T07:53:39.837Z</time></trkpt><trkpt lat="45.46141618988346" lon="9.909633941647384"><ele>97.0</ele><time>2026-05-03T07:53:40.837Z</time></trkpt><trkpt lat="45.461377162237085" lon="9.909557829935196"><ele>97.0</ele><time>2026-05-03T07:53:41.837Z</time></trkpt><trkpt lat="45.46133470024239" lon="9.909474440685564"><ele>97.0</ele><time>2026-05-03T07:53:42.837Z</time></trkpt><trkpt lat="45.461294871156284" lon="9.909385352277583"><ele>97.0</ele><time>2026-05-03T07:53:43.837Z</time></trkpt><trkpt lat="45.461252345456366" lon="9.909299851060101"><ele>97.0</ele><time>2026-05-03T07:53:44.837Z</time></trkpt><trkpt lat="45.46120902224215" lon="9.909219454312293"><ele>97.0</ele><time>2026-05-03T07:53:45.837Z</time></trkpt><trkpt lat="45.46116197670965" lon="9.909138601463473"><ele>97.0</ele><time>2026-05-03T07:53:46.837Z</time></trkpt><trkpt lat="45.46111453487321" lon="9.909062259853574"><ele>97.0</ele><time>2026-05-03T07:53:47.837Z</time></trkpt><trkpt lat="45.461074091468106" lon="9.908987614779171"><ele>97.0</ele><time>2026-05-03T07:53:48.837Z</time></trkpt><trkpt lat="45.46103085711035" lon="9.908910264322449"><ele>97.19999999999999</ele><time>2026-05-03T07:53:49.837Z</time></trkpt><trkpt lat="45.46099130025412" lon="9.90883252713655"><ele>97.4</ele><time>2026-05-03T07:53:50.837Z</time></trkpt><trkpt lat="45.460942818703664" lon="9.908752951263885"><ele>97.6</ele><time>2026-05-03T07:53:51.837Z</time></trkpt><trkpt lat="45.46089867747094" lon="9.908684365035167"><ele>97.80000000000001</ele><time>2026-05-03T07:53:52.837Z</time></trkpt><trkpt lat="45.46081918637602" lon="9.908546370920279"><ele>98.0</ele><time>2026-05-03T07:53:54.837Z</time></trkpt><trkpt lat="45.46078190969493" lon="9.908384565837247"><ele>98.0</ele><time>2026-05-03T07:53:56.837Z</time></trkpt><trkpt lat="45.460776550028505" lon="9.908293113676933"><ele>98.0</ele><time>2026-05-03T07:53:57.836Z</time></trkpt><trkpt lat="45.46076420060628" lon="9.908200090662396"><ele>98.0</ele><time>2026-05-03T07:53:58.836Z</time></trkpt><trkpt lat="45.460750324216114" lon="9.908107157150356"><ele>98.0</ele><time>2026-05-03T07:53:59.836Z</time></trkpt><trkpt lat="45.46072225482189" lon="9.908011773713364"><ele>98.0</ele><time>2026-05-03T07:54:00.836Z</time></trkpt><trkpt lat="45.46069636647956" lon="9.90792308656167"><ele>98.0</ele><time>2026-05-03T07:54:01.836Z</time></trkpt><trkpt lat="45.460671695509355" lon="9.907834548301304"><ele>98.0</ele><time>2026-05-03T07:54:02.836Z</time></trkpt><trkpt lat="45.460648420201025" lon="9.907742379334739"><ele>98.0</ele><time>2026-05-03T07:54:03.836Z</time></trkpt><trkpt lat="45.46062653261332" lon="9.90765217779013"><ele>98.0</ele><time>2026-05-03T07:54:04.836Z</time></trkpt><trkpt lat="45.460607115283565" lon="9.907475906658224"><ele>98.0</ele><time>2026-05-03T07:54:06.836Z</time></trkpt><trkpt lat="45.46059786207249" lon="9.9073814686156"><ele>98.0</ele><time>2026-05-03T07:54:07.836Z</time></trkpt><trkpt lat="45.46059254348584" lon="9.907291193691101"><ele>98.0</ele><time>2026-05-03T07:54:08.836Z</time></trkpt><trkpt lat="45.46059136378504" lon="9.907200270210303"><ele>98.0</ele><time>2026-05-03T07:54:09.836Z</time></trkpt><trkpt lat="45.46058847393232" lon="9.90711055525557"><ele>98.0</ele><time>2026-05-03T07:54:10.836Z</time></trkpt><trkpt lat="45.46058659440604" lon="9.90694544582298"><ele>97.83333333333333</ele><time>2026-05-03T07:54:12.836Z</time></trkpt><trkpt lat="45.4605917076049" lon="9.90685449964896"><ele>97.66666666666666</ele><time>2026-05-03T07:54:13.836Z</time></trkpt><trkpt lat="45.46059382998137" lon="9.90676119180107"><ele>97.5</ele><time>2026-05-03T07:54:14.836Z</time></trkpt><trkpt lat="45.46059613025342" lon="9.906668515862446"><ele>97.33333333333334</ele><time>2026-05-03T07:54:15.836Z</time></trkpt><trkpt lat="45.46059078824559" lon="9.906575520383413"><ele>97.16666666666667</ele><time>2026-05-03T07:54:16.836Z</time></trkpt><trkpt lat="45.46058526731723" lon="9.906398678457977"><ele>97.0</ele><time>2026-05-03T07:54:18.836Z</time></trkpt><trkpt lat="45.46057632400718" lon="9.906217633202765"><ele>96.85714285714285</ele><time>2026-05-03T07:54:20.836Z</time></trkpt><trkpt lat="45.46056580708883" lon="9.906126670720212"><ele>96.71428571428572</ele><time>2026-05-03T07:54:21.836Z</time></trkpt><trkpt lat="45.46056336032197" lon="9.906024334254658"><ele>96.57142857142857</ele><time>2026-05-03T07:54:22.836Z</time></trkpt><trkpt lat="45.46056359669863" lon="9.905925747407945"><ele>96.42857142857142</ele><time>2026-05-03T07:54:23.835Z</time></trkpt><trkpt lat="45.460556530726805" lon="9.905821802675172"><ele>96.28571428571428</ele><time>2026-05-03T07:54:24.835Z</time></trkpt><trkpt lat="45.460542495088276" lon="9.905728173335126"><ele>96.14285714285714</ele><time>2026-05-03T07:54:25.835Z</time></trkpt><trkpt lat="45.46052925465098" lon="9.905622041543356"><ele>96.0</ele><time>2026-05-03T07:54:26.835Z</time></trkpt><trkpt lat="45.46052183479474" lon="9.905510527768097"><ele>95.99999999999999</ele><time>2026-05-03T07:54:27.835Z</time></trkpt><trkpt lat="45.460520360914295" lon="9.905408337895658"><ele>96.0</ele><time>2026-05-03T07:54:28.835Z</time></trkpt><trkpt lat="45.460517672174035" lon="9.905308647366915"><ele>96.0</ele><time>2026-05-03T07:54:29.835Z</time></trkpt><trkpt lat="45.460510707302106" lon="9.905206818768653"><ele>96.0</ele><time>2026-05-03T07:54:30.835Z</time></trkpt><trkpt lat="45.4604966827002" lon="9.905108676163762"><ele>96.0</ele><time>2026-05-03T07:54:31.835Z</time></trkpt><trkpt lat="45.46048345488982" lon="9.90501574740832"><ele>95.99999999999999</ele><time>2026-05-03T07:54:32.835Z</time></trkpt><trkpt lat="45.4604727825962" lon="9.904921897538548"><ele>96.0</ele><time>2026-05-03T07:54:33.835Z</time></trkpt><trkpt lat="45.460457702041936" lon="9.904825425184443"><ele>95.99999999999999</ele><time>2026-05-03T07:54:34.835Z</time></trkpt><trkpt lat="45.460449798435924" lon="9.904724823038654"><ele>96.0</ele><time>2026-05-03T07:54:35.835Z</time></trkpt><trkpt lat="45.46044062519734" lon="9.904620392338174"><ele>96.0</ele><time>2026-05-03T07:54:36.835Z</time></trkpt><trkpt lat="45.46043576889539" lon="9.904512283269995"><ele>96.0</ele><time>2026-05-03T07:54:37.835Z</time></trkpt><trkpt lat="45.46042434092081" lon="9.904410514293138"><ele>96.0</ele><time>2026-05-03T07:54:38.835Z</time></trkpt><trkpt lat="45.46041237914384" lon="9.904309795541632"><ele>95.99999999999999</ele><time>2026-05-03T07:54:39.835Z</time></trkpt><trkpt lat="45.46039665767582" lon="9.904212753025567"><ele>96.0</ele><time>2026-05-03T07:54:40.835Z</time></trkpt><trkpt lat="45.460379619963014" lon="9.904118477050822"><ele>95.85714285714285</ele><time>2026-05-03T07:54:41.835Z</time></trkpt><trkpt lat="45.460366606954224" lon="9.904017888147392"><ele>95.71428571428571</ele><time>2026-05-03T07:54:42.835Z</time></trkpt><trkpt lat="45.46034364425843" lon="9.903923506990012"><ele>95.57142857142857</ele><time>2026-05-03T07:54:43.998Z</time></trkpt><trkpt lat="45.46031699798963" lon="9.903828708193258"><ele>95.42857142857142</ele><time>2026-05-03T07:54:44.998Z</time></trkpt><trkpt lat="45.46029584200049" lon="9.903730454802867"><ele>95.28571428571429</ele><time>2026-05-03T07:54:45.999Z</time></trkpt><trkpt lat="45.46027025007455" lon="9.903639284890092"><ele>95.14285714285714</ele><time>2026-05-03T07:54:46.999Z</time></trkpt><trkpt lat="45.4602460052705" lon="9.903547506414467"><ele>95.0</ele><time>2026-05-03T07:54:47.999Z</time></trkpt><trkpt lat="45.460231217240555" lon="9.903450456247922"><ele>95.0</ele><time>2026-05-03T07:54:48.999Z</time></trkpt><trkpt lat="45.46022284611839" lon="9.90335765326065"><ele>95.0</ele><time>2026-05-03T07:54:49.999Z</time></trkpt><trkpt lat="45.460222393166035" lon="9.903264630958468"><ele>95.0</ele><time>2026-05-03T07:54:50.999Z</time></trkpt><trkpt lat="45.460227961606904" lon="9.903157350855738"><ele>95.0</ele><time>2026-05-03T07:54:51.999Z</time></trkpt><trkpt lat="45.460218482630125" lon="9.903063584424524"><ele>95.0</ele><time>2026-05-03T07:54:52.999Z</time></trkpt><trkpt lat="45.46020739141925" lon="9.902963808882767"><ele>95.0</ele><time>2026-05-03T07:54:53.999Z</time></trkpt><trkpt lat="45.460196028983965" lon="9.902851388493051"><ele>95.0</ele><time>2026-05-03T07:54:54.999Z</time></trkpt><trkpt lat="45.46018378446815" lon="9.902734249424032"><ele>95.0</ele><time>2026-05-03T07:54:55.999Z</time></trkpt><trkpt lat="45.46017375016253" lon="9.902619840466532"><ele>95.0</ele><time>2026-05-03T07:54:56.999Z</time></trkpt><trkpt lat="45.46016539859549" lon="9.902509595971466"><ele>95.0</ele><time>2026-05-03T07:54:57.999Z</time></trkpt><trkpt lat="45.4601598755181" lon="9.902402230079138"><ele>95.0</ele><time>2026-05-03T07:54:58.999Z</time></trkpt><trkpt lat="45.460150728667664" lon="9.90229786433436"><ele>95.0</ele><time>2026-05-03T07:54:59.999Z</time></trkpt><trkpt lat="45.46014105850817" lon="9.902195669780909"><ele>95.0</ele><time>2026-05-03T07:55:01Z</time></trkpt><trkpt lat="45.46013724517336" lon="9.902094888545015"><ele>95.0</ele><time>2026-05-03T07:55:02Z</time></trkpt><trkpt lat="45.46013231897297" lon="9.90199508772233"><ele>95.0</ele><time>2026-05-03T07:55:03Z</time></trkpt><trkpt lat="45.46012761961411" lon="9.901893862973447"><ele>95.0</ele><time>2026-05-03T07:55:04Z</time></trkpt><trkpt lat="45.460121242178076" lon="9.901794673195331"><ele>95.0</ele><time>2026-05-03T07:55:05Z</time></trkpt><trkpt lat="45.46011781507572" lon="9.901693985154163"><ele>95.0</ele><time>2026-05-03T07:55:06Z</time></trkpt><trkpt lat="45.46011154866789" lon="9.901595422417957"><ele>95.0</ele><time>2026-05-03T07:55:07Z</time></trkpt><trkpt lat="45.46010237016463" lon="9.901504319070874"><ele>95.0</ele><time>2026-05-03T07:55:08Z</time></trkpt><trkpt lat="45.46009586670612" lon="9.901413383740548"><ele>94.83333333333334</ele><time>2026-05-03T07:55:09Z</time></trkpt><trkpt lat="45.46008568818533" lon="9.901243162034783"><ele>94.66666666666667</ele><time>2026-05-03T07:55:11Z</time></trkpt><trkpt lat="45.46009537065551" lon="9.90107014946134"><ele>94.5</ele><time>2026-05-03T07:55:13Z</time></trkpt><trkpt lat="45.46011044845343" lon="9.900975999150655"><ele>94.33333333333333</ele><time>2026-05-03T07:55:14Z</time></trkpt><trkpt lat="45.46012525148739" lon="9.900883543729082"><ele>94.16666666666666</ele><time>2026-05-03T07:55:15Z</time></trkpt><trkpt lat="45.460139940633866" lon="9.900794303174774"><ele>94.0</ele><time>2026-05-03T07:55:16Z</time></trkpt><trkpt lat="45.46015637963503" lon="9.900706635872124"><ele>94.0</ele><time>2026-05-03T07:55:17Z</time></trkpt><trkpt lat="45.46018922064019" lon="9.900528780114518"><ele>94.0</ele><time>2026-05-03T07:55:19Z</time></trkpt><trkpt lat="45.460193838090554" lon="9.900434019728998"><ele>94.0</ele><time>2026-05-03T07:55:20Z</time></trkpt><trkpt lat="45.46020605340558" lon="9.900247553236362"><ele>94.0</ele><time>2026-05-03T07:55:22Z</time></trkpt><trkpt lat="45.460213007502155" lon="9.900136425652994"><ele>94.0</ele><time>2026-05-03T07:55:23Z</time></trkpt><trkpt lat="45.460219526056235" lon="9.900026646552824"><ele>93.71428571428571</ele><time>2026-05-03T07:55:24Z</time></trkpt><trkpt lat="45.460213361199855" lon="9.899922054620516"><ele>93.42857142857142</ele><time>2026-05-03T07:55:25Z</time></trkpt><trkpt lat="45.46020570441773" lon="9.899819126494998"><ele>93.14285714285714</ele><time>2026-05-03T07:55:26Z</time></trkpt><trkpt lat="45.460194129248684" lon="9.899724702354309"><ele>92.85714285714286</ele><time>2026-05-03T07:55:27Z</time></trkpt><trkpt lat="45.4601815943785" lon="9.899629506183818"><ele>92.57142857142857</ele><time>2026-05-03T07:55:28Z</time></trkpt><trkpt lat="45.460164627040115" lon="9.899535666229058"><ele>92.28571428571429</ele><time>2026-05-03T07:55:29Z</time></trkpt><trkpt lat="45.46014474918023" lon="9.899448590617295"><ele>92.0</ele><time>2026-05-03T07:55:30Z</time></trkpt><trkpt lat="45.4601122538605" lon="9.899270377321358"><ele>91.85714285714286</ele><time>2026-05-03T07:55:32Z</time></trkpt><trkpt lat="45.46009604137295" lon="9.899168333697016"><ele>91.71428571428571</ele><time>2026-05-03T07:55:33Z</time></trkpt><trkpt lat="45.46008553766582" lon="9.899068093383908"><ele>91.57142857142857</ele><time>2026-05-03T07:55:34Z</time></trkpt><trkpt lat="45.460084301161565" lon="9.898967866330402"><ele>91.42857142857143</ele><time>2026-05-03T07:55:35Z</time></trkpt><trkpt lat="45.460097310585546" lon="9.898868899517053"><ele>91.28571428571428</ele><time>2026-05-03T07:55:36Z</time></trkpt><trkpt lat="45.460116146130744" lon="9.898775865165607"><ele>91.14285714285714</ele><time>2026-05-03T07:55:37Z</time></trkpt><trkpt lat="45.46014374173323" lon="9.898686569961242"><ele>91.0</ele><time>2026-05-03T07:55:38Z</time></trkpt><trkpt lat="45.460186682178126" lon="9.898607726995277"><ele>91.0</ele><time>2026-05-03T07:55:39Z</time></trkpt><trkpt lat="45.4602215681538" lon="9.898526657888532"><ele>91.0</ele><time>2026-05-03T07:55:40Z</time></trkpt><trkpt lat="45.460251241764496" lon="9.898436157818871"><ele>91.0</ele><time>2026-05-03T07:55:41Z</time></trkpt><trkpt lat="45.46027250576804" lon="9.898346348117991"><ele>91.0</ele><time>2026-05-03T07:55:42Z</time></trkpt><trkpt lat="45.46034326986517" lon="9.898211617104153"><ele>91.0</ele><time>2026-05-03T07:55:44Z</time></trkpt><trkpt lat="45.46044466591031" lon="9.898128679922094"><ele>91.0</ele><time>2026-05-03T07:55:46Z</time></trkpt><trkpt lat="45.460567034713804" lon="9.898092667164386"><ele>91.33333333333333</ele><time>2026-05-03T07:55:48Z</time></trkpt><trkpt lat="45.46069420729145" lon="9.898069497293704"><ele>91.66666666666666</ele><time>2026-05-03T07:55:50Z</time></trkpt><trkpt lat="45.46075815252876" lon="9.898059329535304"><ele>92.0</ele><time>2026-05-03T07:55:51Z</time></trkpt><trkpt lat="45.460823607901425" lon="9.89805393735261"><ele>92.33333333333333</ele><time>2026-05-03T07:55:52Z</time></trkpt><trkpt lat="45.46089174232224" lon="9.898045158415892"><ele>92.66666666666667</ele><time>2026-05-03T07:55:53Z</time></trkpt><trkpt lat="45.46095782671105" lon="9.898039657239933"><ele>93.0</ele><time>2026-05-03T07:55:54Z</time></trkpt><trkpt lat="45.46102407546634" lon="9.898035954021333"><ele>93.0</ele><time>2026-05-03T07:55:55Z</time></trkpt><trkpt lat="45.46114375328299" lon="9.898023796006179"><ele>93.0</ele><time>2026-05-03T07:55:57Z</time></trkpt><trkpt lat="45.46121237273187" lon="9.898012280331765"><ele>93.0</ele><time>2026-05-03T07:55:58Z</time></trkpt><trkpt lat="45.46127352175651" lon="9.897982585256576"><ele>93.0</ele><time>2026-05-03T07:55:59Z</time></trkpt><trkpt lat="45.461336680189724" lon="9.89794604066044"><ele>93.0</ele><time>2026-05-03T07:56:00Z</time></trkpt><trkpt lat="45.46139630217625" lon="9.897902063304317"><ele>93.0</ele><time>2026-05-03T07:56:01Z</time></trkpt><trkpt lat="45.46145658317849" lon="9.897859439391407"><ele>93.16666666666667</ele><time>2026-05-03T07:56:02Z</time></trkpt><trkpt lat="45.4615170504781" lon="9.897811397606144"><ele>93.33333333333333</ele><time>2026-05-03T07:56:03Z</time></trkpt><trkpt lat="45.46157380649978" lon="9.897769893357816"><ele>93.5</ele><time>2026-05-03T07:56:04Z</time></trkpt><trkpt lat="45.46163298698248" lon="9.897735589222918"><ele>93.66666666666666</ele><time>2026-05-03T07:56:05Z</time></trkpt><trkpt lat="45.46169830547255" lon="9.897712342885727"><ele>93.83333333333333</ele><time>2026-05-03T07:56:06Z</time></trkpt><trkpt lat="45.46176238198127" lon="9.897697504394689"><ele>94.0</ele><time>2026-05-03T07:56:07Z</time></trkpt><trkpt lat="45.461882890781006" lon="9.89765547158929"><ele>94.0</ele><time>2026-05-03T07:56:09Z</time></trkpt><trkpt lat="45.46194126132294" lon="9.89762028022908"><ele>94.0</ele><time>2026-05-03T07:56:10Z</time></trkpt><trkpt lat="45.46205002523539" lon="9.897554456941494"><ele>94.0</ele><time>2026-05-03T07:56:12Z</time></trkpt><trkpt lat="45.46214698515111" lon="9.897454301295925"><ele>94.0</ele><time>2026-05-03T07:56:14Z</time></trkpt><trkpt lat="45.46219045193596" lon="9.897383785810504"><ele>94.0</ele><time>2026-05-03T07:56:15Z</time></trkpt><trkpt lat="45.46223111554718" lon="9.89731400079678"><ele>94.0</ele><time>2026-05-03T07:56:16Z</time></trkpt><trkpt lat="45.46227191883473" lon="9.897243556447531"><ele>93.83333333333333</ele><time>2026-05-03T07:56:17Z</time></trkpt><trkpt lat="45.46231268907982" lon="9.89715732453753"><ele>93.66666666666666</ele><time>2026-05-03T07:56:18Z</time></trkpt><trkpt lat="45.462345491528566" lon="9.89707529072749"><ele>93.5</ele><time>2026-05-03T07:56:19Z</time></trkpt><trkpt lat="45.462374367299795" lon="9.89699169333066"><ele>93.33333333333333</ele><time>2026-05-03T07:56:20Z</time></trkpt><trkpt lat="45.46240374172921" lon="9.896904963359837"><ele>93.16666666666667</ele><time>2026-05-03T07:56:21Z</time></trkpt><trkpt lat="45.46246331729835" lon="9.896752026576483"><ele>93.0</ele><time>2026-05-03T07:56:23Z</time></trkpt><trkpt lat="45.46249312151017" lon="9.896665349100987"><ele>93.0</ele><time>2026-05-03T07:56:24Z</time></trkpt><trkpt lat="45.46252905352694" lon="9.896588781545567"><ele>93.0</ele><time>2026-05-03T07:56:25Z</time></trkpt><trkpt lat="45.4625696815081" lon="9.89651870116343"><ele>93.0</ele><time>2026-05-03T07:56:26Z</time></trkpt><trkpt lat="45.46261517032359" lon="9.896456482131933"><ele>93.0</ele><time>2026-05-03T07:56:27Z</time></trkpt><trkpt lat="45.462719293420335" lon="9.896354511412477"><ele>93.0</ele><time>2026-05-03T07:56:29Z</time></trkpt><trkpt lat="45.46281190658778" lon="9.896271622839691"><ele>93.0</ele><time>2026-05-03T07:56:31Z</time></trkpt><trkpt lat="45.46289011519673" lon="9.896183952610048"><ele>93.0</ele><time>2026-05-03T07:56:33Z</time></trkpt><trkpt lat="45.462960460597934" lon="9.89605941528822"><ele>93.0</ele><time>2026-05-03T07:56:35Z</time></trkpt><trkpt lat="45.463004347364205" lon="9.89590555383406"><ele>93.0</ele><time>2026-05-03T07:56:37Z</time></trkpt><trkpt lat="45.463056774534046" lon="9.89574937802145"><ele>93.0</ele><time>2026-05-03T07:56:39Z</time></trkpt><trkpt lat="45.46309984383198" lon="9.895608856568114"><ele>93.0</ele><time>2026-05-03T07:56:41Z</time></trkpt><trkpt lat="45.46315150359153" lon="9.895446496677733"><ele>93.0</ele><time>2026-05-03T07:56:43Z</time></trkpt><trkpt lat="45.46317392470835" lon="9.895282002980883"><ele>93.0</ele><time>2026-05-03T07:56:45Z</time></trkpt><trkpt lat="45.46316266256848" lon="9.895130372642887"><ele>93.0</ele><time>2026-05-03T07:56:47Z</time></trkpt><trkpt lat="45.46313752639685" lon="9.8949999309311"><ele>93.0</ele><time>2026-05-03T07:56:49Z</time></trkpt><trkpt lat="45.4631212728161" lon="9.894873291795538"><ele>93.0</ele><time>2026-05-03T07:56:51.001Z</time></trkpt><trkpt lat="45.46311075447308" lon="9.894732099768204"><ele>93.0</ele><time>2026-05-03T07:56:53.001Z</time></trkpt><trkpt lat="45.46309774963748" lon="9.894602976737056"><ele>93.0</ele><time>2026-05-03T07:56:55.001Z</time></trkpt><trkpt lat="45.46308357312492" lon="9.894465027054329"><ele>93.0</ele><time>2026-05-03T07:56:57.001Z</time></trkpt><trkpt lat="45.46307988093698" lon="9.894319103954528"><ele>93.0</ele><time>2026-05-03T07:56:59.001Z</time></trkpt><trkpt lat="45.463104249435744" lon="9.894166457094814"><ele>92.83333333333333</ele><time>2026-05-03T07:57:01Z</time></trkpt><trkpt lat="45.4631203318463" lon="9.893992979054179"><ele>92.66666666666667</ele><time>2026-05-03T07:57:03Z</time></trkpt><trkpt lat="45.46310037825828" lon="9.893832216777767"><ele>92.5</ele><time>2026-05-03T07:57:05Z</time></trkpt><trkpt lat="45.4630891754995" lon="9.893736458856742"><ele>92.33333333333334</ele><time>2026-05-03T07:57:06Z</time></trkpt><trkpt lat="45.46307582771257" lon="9.893634809263311"><ele>92.16666666666667</ele><time>2026-05-03T07:57:07Z</time></trkpt><trkpt lat="45.463060818577645" lon="9.893536518291524"><ele>92.0</ele><time>2026-05-03T07:57:08Z</time></trkpt><trkpt lat="45.463049408985206" lon="9.893434953976376"><ele>91.85714285714286</ele><time>2026-05-03T07:57:09Z</time></trkpt><trkpt lat="45.46304229361855" lon="9.893338949440597"><ele>91.71428571428571</ele><time>2026-05-03T07:57:10Z</time></trkpt><trkpt lat="45.46304608284809" lon="9.893236974753124"><ele>91.57142857142857</ele><time>2026-05-03T07:57:11Z</time></trkpt><trkpt lat="45.463058225575516" lon="9.893140410153055"><ele>91.42857142857143</ele><time>2026-05-03T07:57:12Z</time></trkpt><trkpt lat="45.46307727978511" lon="9.893043750341473"><ele>91.28571428571428</ele><time>2026-05-03T07:57:13Z</time></trkpt><trkpt lat="45.46309245518981" lon="9.892953209543672"><ele>91.14285714285714</ele><time>2026-05-03T07:57:14Z</time></trkpt><trkpt lat="45.463077019601585" lon="9.892816546754084"><ele>91.0</ele><time>2026-05-03T07:57:16Z</time></trkpt><trkpt lat="45.46305966329207" lon="9.892714172965213"><ele>91.0</ele><time>2026-05-03T07:57:18Z</time></trkpt><trkpt lat="45.46311202624663" lon="9.892643617820188"><ele>91.0</ele><time>2026-05-03T07:57:20Z</time></trkpt><trkpt lat="45.4632173184941" lon="9.89260646110567"><ele>91.0</ele><time>2026-05-03T07:57:22Z</time></trkpt><trkpt lat="45.46328022575203" lon="9.892589012673355"><ele>91.0</ele><time>2026-05-03T07:57:23Z</time></trkpt><trkpt lat="45.463348156193874" lon="9.892563524509688"><ele>91.0</ele><time>2026-05-03T07:57:24Z</time></trkpt><trkpt lat="45.46341499900096" lon="9.89251355557109"><ele>91.0</ele><time>2026-05-03T07:57:25Z</time></trkpt><trkpt lat="45.46348622053567" lon="9.892476996282031"><ele>91.0</ele><time>2026-05-03T07:57:26Z</time></trkpt><trkpt lat="45.463553233171574" lon="9.89245005879694"><ele>91.0</ele><time>2026-05-03T07:57:27Z</time></trkpt><trkpt lat="45.46361952333041" lon="9.892424324138082"><ele>91.0</ele><time>2026-05-03T07:57:28Z</time></trkpt><trkpt lat="45.46369347688266" lon="9.892390766774385"><ele>91.0</ele><time>2026-05-03T07:57:29Z</time></trkpt><trkpt lat="45.46376653427818" lon="9.892353262167001"><ele>91.0</ele><time>2026-05-03T07:57:30Z</time></trkpt><trkpt lat="45.463837257249274" lon="9.892312817861587"><ele>91.0</ele><time>2026-05-03T07:57:31Z</time></trkpt><trkpt lat="45.46391108879304" lon="9.892276858098308"><ele>91.0</ele><time>2026-05-03T07:57:32Z</time></trkpt><trkpt lat="45.46397945112269" lon="9.8922422725313"><ele>91.0</ele><time>2026-05-03T07:57:33Z</time></trkpt><trkpt lat="45.46405323406199" lon="9.892214425848715"><ele>91.0</ele><time>2026-05-03T07:57:34Z</time></trkpt><trkpt lat="45.46412956577278" lon="9.892188937598787"><ele>91.0</ele><time>2026-05-03T07:57:35Z</time></trkpt><trkpt lat="45.46420684635238" lon="9.892152094775454"><ele>91.0</ele><time>2026-05-03T07:57:36Z</time></trkpt><trkpt lat="45.464279089510406" lon="9.892113325368877"><ele>91.0</ele><time>2026-05-03T07:57:37Z</time></trkpt><trkpt lat="45.46435980356718" lon="9.892078995953991"><ele>91.0</ele><time>2026-05-03T07:57:38Z</time></trkpt><trkpt lat="45.464435454559855" lon="9.892029168108627"><ele>91.0</ele><time>2026-05-03T07:57:39Z</time></trkpt><trkpt lat="45.46450519368619" lon="9.891984684583207"><ele>91.0</ele><time>2026-05-03T07:57:40Z</time></trkpt><trkpt lat="45.464570907852014" lon="9.891938119422095"><ele>91.0</ele><time>2026-05-03T07:57:41Z</time></trkpt><trkpt lat="45.46463210720133" lon="9.891888851967256"><ele>91.0</ele><time>2026-05-03T07:57:42Z</time></trkpt><trkpt lat="45.464691103154315" lon="9.89183576113754"><ele>91.0</ele><time>2026-05-03T07:57:43Z</time></trkpt><trkpt lat="45.464787488802344" lon="9.89174741260454"><ele>91.0</ele><time>2026-05-03T07:57:45Z</time></trkpt><trkpt lat="45.46489258751697" lon="9.89165532227099"><ele>91.4</ele><time>2026-05-03T07:57:47Z</time></trkpt><trkpt lat="45.46500068761697" lon="9.891568073866937"><ele>91.8</ele><time>2026-05-03T07:57:49Z</time></trkpt><trkpt lat="45.465096442175856" lon="9.891471466864445"><ele>92.2</ele><time>2026-05-03T07:57:51Z</time></trkpt><trkpt lat="45.46518598116205" lon="9.89137983558613"><ele>92.60000000000001</ele><time>2026-05-03T07:57:53Z</time></trkpt><trkpt lat="45.465237145973745" lon="9.891326540676573"><ele>93.0</ele><time>2026-05-03T07:57:54Z</time></trkpt><trkpt lat="45.46532906144677" lon="9.891246632068901"><ele>93.0</ele><time>2026-05-03T07:57:56Z</time></trkpt><trkpt lat="45.46543007147814" lon="9.891170324927764"><ele>93.0</ele><time>2026-05-03T07:57:58Z</time></trkpt><trkpt lat="45.465528596488596" lon="9.891106162740218"><ele>93.0</ele><time>2026-05-03T07:58:00Z</time></trkpt><trkpt lat="45.465610598931114" lon="9.891024156113854"><ele>93.0</ele><time>2026-05-03T07:58:02Z</time></trkpt><trkpt lat="45.465689666971535" lon="9.890963603990372"><ele>93.0</ele><time>2026-05-03T07:58:04Z</time></trkpt><trkpt lat="45.46576324910382" lon="9.890918906070512"><ele>93.4</ele><time>2026-05-03T07:58:06Z</time></trkpt><trkpt lat="45.4658421561406" lon="9.890885288760328"><ele>93.80000000000001</ele><time>2026-05-03T07:58:08Z</time></trkpt><trkpt lat="45.46595529490094" lon="9.890854571989045"><ele>94.2</ele><time>2026-05-03T07:58:10Z</time></trkpt><trkpt lat="45.46606193885988" lon="9.890819648194222"><ele>94.6</ele><time>2026-05-03T07:58:12Z</time></trkpt><trkpt lat="45.46616319676637" lon="9.890795974700653"><ele>95.0</ele><time>2026-05-03T07:58:14Z</time></trkpt><trkpt lat="45.46634978345298" lon="9.890784267802745"><ele>95.0</ele><time>2026-05-03T07:58:18Z</time></trkpt><trkpt lat="45.466471026808364" lon="9.890770103970983"><ele>95.0</ele><time>2026-05-03T07:58:20Z</time></trkpt><trkpt lat="45.466543236046284" lon="9.890763883861554"><ele>95.0</ele><time>2026-05-03T07:58:21Z</time></trkpt><trkpt lat="45.46661607468655" lon="9.890756170160117"><ele>95.0</ele><time>2026-05-03T07:58:22Z</time></trkpt><trkpt lat="45.46668736846294" lon="9.89074041758386"><ele>95.0</ele><time>2026-05-03T07:58:23Z</time></trkpt><trkpt lat="45.46680446959783" lon="9.890686646207993"><ele>95.0</ele><time>2026-05-03T07:58:25Z</time></trkpt><trkpt lat="45.466876084916834" lon="9.890681714378632"><ele>95.0</ele><time>2026-05-03T07:58:26Z</time></trkpt><trkpt lat="45.46695126563532" lon="9.890668873474565"><ele>95.0</ele><time>2026-05-03T07:58:27Z</time></trkpt><trkpt lat="45.467023321036" lon="9.890665222806774"><ele>95.0</ele><time>2026-05-03T07:58:28Z</time></trkpt><trkpt lat="45.46709382111348" lon="9.890649427993916"><ele>95.0</ele><time>2026-05-03T07:58:29Z</time></trkpt><trkpt lat="45.46716505493658" lon="9.890634867124724"><ele>95.0</ele><time>2026-05-03T07:58:30Z</time></trkpt><trkpt lat="45.46723037580453" lon="9.890614955032788"><ele>95.0</ele><time>2026-05-03T07:58:31Z</time></trkpt><trkpt lat="45.46730328646703" lon="9.890610657079351"><ele>95.0</ele><time>2026-05-03T07:58:32Z</time></trkpt><trkpt lat="45.46736883019291" lon="9.890618105269184"><ele>95.0</ele><time>2026-05-03T07:58:33Z</time></trkpt><trkpt lat="45.467496535847076" lon="9.890589525504977"><ele>95.0</ele><time>2026-05-03T07:58:35Z</time></trkpt><trkpt lat="45.46756848046083" lon="9.890571325875953"><ele>95.0</ele><time>2026-05-03T07:58:36Z</time></trkpt><trkpt lat="45.46763383833465" lon="9.890562623697525"><ele>95.0</ele><time>2026-05-03T07:58:37Z</time></trkpt><trkpt lat="45.46771742784544" lon="9.890568773626201"><ele>95.0</ele><time>2026-05-03T07:58:38Z</time></trkpt><trkpt lat="45.46783706142243" lon="9.890544170968711"><ele>95.0</ele><time>2026-05-03T07:58:40Z</time></trkpt><trkpt lat="45.467907965972756" lon="9.890520380806489"><ele>95.0</ele><time>2026-05-03T07:58:41Z</time></trkpt><trkpt lat="45.467971207382824" lon="9.890507832123514"><ele>95.0</ele><time>2026-05-03T07:58:42Z</time></trkpt><trkpt lat="45.46808086070097" lon="9.890486267139961"><ele>95.0</ele><time>2026-05-03T07:58:44Z</time></trkpt><trkpt lat="45.46818422210369" lon="9.890460491756512"><ele>95.0</ele><time>2026-05-03T07:58:46Z</time></trkpt><trkpt lat="45.46826514408327" lon="9.890444056211912"><ele>95.0</ele><time>2026-05-03T07:58:48Z</time></trkpt><trkpt lat="45.468350745686905" lon="9.890371239714952"><ele>95.0</ele><time>2026-05-03T07:58:50Z</time></trkpt><trkpt lat="45.46844120119091" lon="9.890305230217017"><ele>95.0</ele><time>2026-05-03T07:58:52Z</time></trkpt><trkpt lat="45.468558552917244" lon="9.890255671388669"><ele>95.0</ele><time>2026-05-03T07:58:54Z</time></trkpt><trkpt lat="45.46866602698136" lon="9.890209450241176"><ele>95.0</ele><time>2026-05-03T07:58:56Z</time></trkpt><trkpt lat="45.46872982692233" lon="9.890179777118924"><ele>95.0</ele><time>2026-05-03T07:58:57Z</time></trkpt><trkpt lat="45.46879653315015" lon="9.890122749754612"><ele>95.0</ele><time>2026-05-03T07:58:58Z</time></trkpt><trkpt lat="45.46885508077728" lon="9.890074461573121"><ele>95.0</ele><time>2026-05-03T07:58:59Z</time></trkpt><trkpt lat="45.46896531968736" lon="9.889992658409906"><ele>95.0</ele><time>2026-05-03T07:59:01Z</time></trkpt><trkpt lat="45.46902621872448" lon="9.889955177631084"><ele>95.0</ele><time>2026-05-03T07:59:02Z</time></trkpt><trkpt lat="45.4690854371457" lon="9.889921727591666"><ele>95.0</ele><time>2026-05-03T07:59:03Z</time></trkpt><trkpt lat="45.469196835211065" lon="9.889833234407583"><ele>95.0</ele><time>2026-05-03T07:59:05Z</time></trkpt><trkpt lat="45.46925064934597" lon="9.889784312535124"><ele>95.0</ele><time>2026-05-03T07:59:06Z</time></trkpt><trkpt lat="45.46930538613494" lon="9.889737560377855"><ele>95.0</ele><time>2026-05-03T07:59:07Z</time></trkpt><trkpt lat="45.46941046947216" lon="9.889649343135877"><ele>95.0</ele><time>2026-05-03T07:59:09Z</time></trkpt><trkpt lat="45.469530688626925" lon="9.889587170132499"><ele>95.0</ele><time>2026-05-03T07:59:11Z</time></trkpt><trkpt lat="45.4695849067178" lon="9.889536162126138"><ele>95.0</ele><time>2026-05-03T07:59:12Z</time></trkpt><trkpt lat="45.46963782720015" lon="9.889482612530404"><ele>95.0</ele><time>2026-05-03T07:59:13Z</time></trkpt><trkpt lat="45.46975689711185" lon="9.889422663899621"><ele>95.0</ele><time>2026-05-03T07:59:15Z</time></trkpt><trkpt lat="45.46987134188354" lon="9.889361643157867"><ele>95.0</ele><time>2026-05-03T07:59:17Z</time></trkpt><trkpt lat="45.46992419375759" lon="9.88930868030388"><ele>95.0</ele><time>2026-05-03T07:59:18Z</time></trkpt><trkpt lat="45.470023568892195" lon="9.889206391231667"><ele>95.0</ele><time>2026-05-03T07:59:20Z</time></trkpt><trkpt lat="45.470120521394776" lon="9.88914439138008"><ele>95.0</ele><time>2026-05-03T07:59:22Z</time></trkpt><trkpt lat="45.470225656118096" lon="9.889093630552201"><ele>95.0</ele><time>2026-05-03T07:59:24Z</time></trkpt><trkpt lat="45.470340511993854" lon="9.889062514609332"><ele>95.0</ele><time>2026-05-03T07:59:26Z</time></trkpt><trkpt lat="45.47045324382255" lon="9.889020146740105"><ele>95.0</ele><time>2026-05-03T07:59:28Z</time></trkpt><trkpt lat="45.470512654128434" lon="9.888988379218556"><ele>95.0</ele><time>2026-05-03T07:59:29Z</time></trkpt><trkpt lat="45.470573053341205" lon="9.888961737948287"><ele>95.0</ele><time>2026-05-03T07:59:30Z</time></trkpt><trkpt lat="45.47066736740759" lon="9.888921102880262"><ele>95.0</ele><time>2026-05-03T07:59:32Z</time></trkpt><trkpt lat="45.470782901193736" lon="9.88884904358444"><ele>95.0</ele><time>2026-05-03T07:59:34Z</time></trkpt><trkpt lat="45.47083812250011" lon="9.888803826017956"><ele>95.0</ele><time>2026-05-03T07:59:35Z</time></trkpt><trkpt lat="45.47090332135925" lon="9.888793715772733"><ele>95.0</ele><time>2026-05-03T07:59:36Z</time></trkpt><trkpt lat="45.47101086071642" lon="9.888793917201271"><ele>95.0</ele><time>2026-05-03T07:59:38Z</time></trkpt><trkpt lat="45.47113018968915" lon="9.88871877446246"><ele>95.0</ele><time>2026-05-03T07:59:40Z</time></trkpt><trkpt lat="45.47118811561391" lon="9.888676297110484"><ele>95.0</ele><time>2026-05-03T07:59:41Z</time></trkpt><trkpt lat="45.47126042412162" lon="9.888664940784878"><ele>95.0</ele><time>2026-05-03T07:59:42Z</time></trkpt><trkpt lat="45.47133559657118" lon="9.888645890479394"><ele>95.0</ele><time>2026-05-03T07:59:43Z</time></trkpt><trkpt lat="45.47140044104075" lon="9.888633371071144"><ele>95.0</ele><time>2026-05-03T07:59:44Z</time></trkpt><trkpt lat="45.471510796513144" lon="9.888607640238245"><ele>95.0</ele><time>2026-05-03T07:59:46Z</time></trkpt><trkpt lat="45.471617070949776" lon="9.888596576176496"><ele>95.0</ele><time>2026-05-03T07:59:48Z</time></trkpt><trkpt lat="45.47172637289403" lon="9.888540412572782"><ele>95.0</ele><time>2026-05-03T07:59:50Z</time></trkpt><trkpt lat="45.47184235441591" lon="9.888509082962653"><ele>95.0</ele><time>2026-05-03T07:59:52Z</time></trkpt><trkpt lat="45.471962697890376" lon="9.888510633422172"><ele>95.0</ele><time>2026-05-03T07:59:54Z</time></trkpt><trkpt lat="45.47202486430198" lon="9.888488322012687"><ele>95.0</ele><time>2026-05-03T07:59:55Z</time></trkpt><trkpt lat="45.47209622125659" lon="9.888462056074966"><ele>94.8</ele><time>2026-05-03T07:59:56Z</time></trkpt><trkpt lat="45.47220410787174" lon="9.888381967777697"><ele>94.6</ele><time>2026-05-03T07:59:58Z</time></trkpt><trkpt lat="45.47226016101846" lon="9.888332364199872"><ele>94.4</ele><time>2026-05-03T07:59:59Z</time></trkpt><trkpt lat="45.4723645090244" lon="9.888234006079465"><ele>94.2</ele><time>2026-05-03T08:00:01Z</time></trkpt><trkpt lat="45.47246536933777" lon="9.888157133829194"><ele>94.0</ele><time>2026-05-03T08:00:03Z</time></trkpt><trkpt lat="45.47257940144604" lon="9.888107650822237"><ele>94.0</ele><time>2026-05-03T08:00:05Z</time></trkpt><trkpt lat="45.47270436903439" lon="9.888065851932316"><ele>94.0</ele><time>2026-05-03T08:00:07Z</time></trkpt><trkpt lat="45.4728043847443" lon="9.887983275330274"><ele>94.0</ele><time>2026-05-03T08:00:09Z</time></trkpt><trkpt lat="45.47289607408313" lon="9.887858678743216"><ele>94.0</ele><time>2026-05-03T08:00:11Z</time></trkpt><trkpt lat="45.47293531322454" lon="9.88777378167359"><ele>94.0</ele><time>2026-05-03T08:00:12Z</time></trkpt><trkpt lat="45.473003689914755" lon="9.887658263030241"><ele>94.0</ele><time>2026-05-03T08:00:14Z</time></trkpt><trkpt lat="45.473045252837956" lon="9.88758553783292"><ele>94.0</ele><time>2026-05-03T08:00:15Z</time></trkpt><trkpt lat="45.473121790506" lon="9.88747279509665"><ele>94.0</ele><time>2026-05-03T08:00:17Z</time></trkpt><trkpt lat="45.47314135589172" lon="9.887319745108309"><ele>94.0</ele><time>2026-05-03T08:00:19Z</time></trkpt><trkpt lat="45.47313248266444" lon="9.887223399253926"><ele>94.0</ele><time>2026-05-03T08:00:21Z</time></trkpt><trkpt lat="45.47318892394988" lon="9.887125100088081"><ele>94.0</ele><time>2026-05-03T08:00:23Z</time></trkpt><trkpt lat="45.47324297987866" lon="9.887016365481829"><ele>94.0</ele><time>2026-05-03T08:00:25Z</time></trkpt><trkpt lat="45.473296128845874" lon="9.886907924456942"><ele>94.0</ele><time>2026-05-03T08:00:27Z</time></trkpt><trkpt lat="45.47334461847317" lon="9.886744563594716"><ele>94.0</ele><time>2026-05-03T08:00:29Z</time></trkpt><trkpt lat="45.47340775176874" lon="9.886608994696413"><ele>94.0</ele><time>2026-05-03T08:00:31Z</time></trkpt><trkpt lat="45.47346077060618" lon="9.886495817891836"><ele>94.0</ele><time>2026-05-03T08:00:33Z</time></trkpt><trkpt lat="45.47351446689784" lon="9.886422310753701"><ele>93.80000000000001</ele><time>2026-05-03T08:00:35Z</time></trkpt><trkpt lat="45.473611351220335" lon="9.88637944856371"><ele>93.60000000000001</ele><time>2026-05-03T08:00:37Z</time></trkpt><trkpt lat="45.473705989059866" lon="9.886350719661785"><ele>93.4</ele><time>2026-05-03T08:00:39Z</time></trkpt><trkpt lat="45.47379702095797" lon="9.886325818697495"><ele>93.2</ele><time>2026-05-03T08:00:41Z</time></trkpt><trkpt lat="45.47386239663118" lon="9.886244815611866"><ele>93.0</ele><time>2026-05-03T08:00:43Z</time></trkpt><trkpt lat="45.47385319631181" lon="9.886127136781052"><ele>93.4</ele><time>2026-05-03T08:00:45Z</time></trkpt><trkpt lat="45.473856289990714" lon="9.885994115724984"><ele>93.80000000000001</ele><time>2026-05-03T08:00:47Z</time></trkpt><trkpt lat="45.47384898623688" lon="9.885829149994823"><ele>94.2</ele><time>2026-05-03T08:00:49Z</time></trkpt><trkpt lat="45.47386444551392" lon="9.885687526232033"><ele>94.6</ele><time>2026-05-03T08:00:51Z</time></trkpt><trkpt lat="45.47390825251972" lon="9.885539692166393"><ele>95.0</ele><time>2026-05-03T08:00:53Z</time></trkpt><trkpt lat="45.47393642461729" lon="9.885456514960202"><ele>95.6</ele><time>2026-05-03T08:00:54Z</time></trkpt><trkpt lat="45.47398688156396" lon="9.885339250949302"><ele>96.2</ele><time>2026-05-03T08:00:56Z</time></trkpt><trkpt lat="45.47405326583429" lon="9.885207547843718"><ele>96.80000000000001</ele><time>2026-05-03T08:00:58Z</time></trkpt><trkpt lat="45.474112111237396" lon="9.88506691306966"><ele>97.4</ele><time>2026-05-03T08:01:00Z</time></trkpt><trkpt lat="45.47411889666059" lon="9.88497633760957"><ele>98.0</ele><time>2026-05-03T08:01:01Z</time></trkpt><trkpt lat="45.474131070300906" lon="9.884883980707885"><ele>98.0</ele><time>2026-05-03T08:01:02Z</time></trkpt><trkpt lat="45.474168908349014" lon="9.884712987767816"><ele>98.0</ele><time>2026-05-03T08:01:04Z</time></trkpt><trkpt lat="45.47420957732977" lon="9.884548235700883"><ele>98.0</ele><time>2026-05-03T08:01:06Z</time></trkpt><trkpt lat="45.474233496059234" lon="9.884463879745814"><ele>98.0</ele><time>2026-05-03T08:01:07Z</time></trkpt><trkpt lat="45.47427468549734" lon="9.884301332685773"><ele>98.0</ele><time>2026-05-03T08:01:09Z</time></trkpt><trkpt lat="45.4743032565628" lon="9.884158412757422"><ele>98.0</ele><time>2026-05-03T08:01:11Z</time></trkpt><trkpt lat="45.4743339760899" lon="9.884004668891643"><ele>98.0</ele><time>2026-05-03T08:01:13Z</time></trkpt><trkpt lat="45.474358756798445" lon="9.883856345865484"><ele>98.0</ele><time>2026-05-03T08:01:15Z</time></trkpt><trkpt lat="45.47443190920938" lon="9.883762784926724"><ele>98.0</ele><time>2026-05-03T08:01:17Z</time></trkpt><trkpt lat="45.47453876563373" lon="9.883737516237261"><ele>98.0</ele><time>2026-05-03T08:01:19Z</time></trkpt><trkpt lat="45.47465002790172" lon="9.883679338849596"><ele>97.4</ele><time>2026-05-03T08:01:21Z</time></trkpt><trkpt lat="45.47475156754154" lon="9.883628624086878"><ele>96.80000000000001</ele><time>2026-05-03T08:01:23Z</time></trkpt><trkpt lat="45.47484219479628" lon="9.883570268450754"><ele>96.2</ele><time>2026-05-03T08:01:25Z</time></trkpt><trkpt lat="45.474932820436074" lon="9.883554814607395"><ele>95.6</ele><time>2026-05-03T08:01:27Z</time></trkpt><trkpt lat="45.47503189494377" lon="9.883513973849112"><ele>95.0</ele><time>2026-05-03T08:01:29Z</time></trkpt><trkpt lat="45.47515134157872" lon="9.883482977759822"><ele>95.5</ele><time>2026-05-03T08:01:31Z</time></trkpt><trkpt lat="45.47526188369901" lon="9.883419206774498"><ele>96.0</ele><time>2026-05-03T08:01:33Z</time></trkpt><trkpt lat="45.47537622425194" lon="9.883356788903372"><ele>96.5</ele><time>2026-05-03T08:01:35Z</time></trkpt><trkpt lat="45.47546775292051" lon="9.883282101673394"><ele>97.0</ele><time>2026-05-03T08:01:37Z</time></trkpt><trkpt lat="45.475577544787605" lon="9.883198731877117"><ele>96.19999999999999</ele><time>2026-05-03T08:01:39Z</time></trkpt><trkpt lat="45.47568811981218" lon="9.883125458068132"><ele>95.4</ele><time>2026-05-03T08:01:41Z</time></trkpt><trkpt lat="45.47579524074918" lon="9.883058316346377"><ele>94.6</ele><time>2026-05-03T08:01:43Z</time></trkpt><trkpt lat="45.47590362497178" lon="9.882974958653401"><ele>93.80000000000001</ele><time>2026-05-03T08:01:45Z</time></trkpt><trkpt lat="45.47596029755604" lon="9.882932337808795"><ele>93.0</ele><time>2026-05-03T08:01:46Z</time></trkpt><trkpt lat="45.47606736911178" lon="9.882848610967805"><ele>93.0</ele><time>2026-05-03T08:01:48Z</time></trkpt><trkpt lat="45.47617832485311" lon="9.882769236746732"><ele>93.0</ele><time>2026-05-03T08:01:50Z</time></trkpt><trkpt lat="45.47627884029935" lon="9.882704987571003"><ele>93.0</ele><time>2026-05-03T08:01:52Z</time></trkpt><trkpt lat="45.47637936613299" lon="9.88266814183549"><ele>93.0</ele><time>2026-05-03T08:01:54Z</time></trkpt><trkpt lat="45.47648602700133" lon="9.882636256697703"><ele>93.0</ele><time>2026-05-03T08:01:56Z</time></trkpt><trkpt lat="45.47659497013656" lon="9.882584884161055"><ele>93.25</ele><time>2026-05-03T08:01:58Z</time></trkpt><trkpt lat="45.47670338608341" lon="9.882533118630906"><ele>93.5</ele><time>2026-05-03T08:02:00Z</time></trkpt><trkpt lat="45.4768122716739" lon="9.882471634415527"><ele>93.75</ele><time>2026-05-03T08:02:02Z</time></trkpt><trkpt lat="45.47692103282191" lon="9.88242215321054"><ele>94.0</ele><time>2026-05-03T08:02:04Z</time></trkpt><trkpt lat="45.47702842949393" lon="9.882380197036108"><ele>94.2</ele><time>2026-05-03T08:02:06Z</time></trkpt><trkpt lat="45.477128196922074" lon="9.882409304053459"><ele>94.4</ele><time>2026-05-03T08:02:08Z</time></trkpt><trkpt lat="45.47720127474169" lon="9.882523177761488"><ele>94.6</ele><time>2026-05-03T08:02:10Z</time></trkpt><trkpt lat="45.47726616251496" lon="9.882643320215225"><ele>94.8</ele><time>2026-05-03T08:02:12Z</time></trkpt><trkpt lat="45.47732824170499" lon="9.88274002733635"><ele>95.0</ele><time>2026-05-03T08:02:14Z</time></trkpt><trkpt lat="45.47740563495705" lon="9.882771224184278"><ele>95.0</ele><time>2026-05-03T08:02:16Z</time></trkpt><trkpt lat="45.477504017824444" lon="9.882709737555786"><ele>95.0</ele><time>2026-05-03T08:02:18Z</time></trkpt><trkpt lat="45.47760082214003" lon="9.882650515586892"><ele>95.0</ele><time>2026-05-03T08:02:20Z</time></trkpt><trkpt lat="45.47770324492031" lon="9.882622605942398"><ele>95.0</ele><time>2026-05-03T08:02:22Z</time></trkpt><trkpt lat="45.47780624293141" lon="9.88265528359631"><ele>95.0</ele><time>2026-05-03T08:02:24Z</time></trkpt><trkpt lat="45.47791158237297" lon="9.88273174273798"><ele>94.8</ele><time>2026-05-03T08:02:26Z</time></trkpt><trkpt lat="45.47802661927183" lon="9.882773774603836"><ele>94.6</ele><time>2026-05-03T08:02:28Z</time></trkpt><trkpt lat="45.47814978754592" lon="9.882807279729262"><ele>94.4</ele><time>2026-05-03T08:02:30Z</time></trkpt><trkpt lat="45.47821253543387" lon="9.88282994102683"><ele>94.2</ele><time>2026-05-03T08:02:31Z</time></trkpt><trkpt lat="45.47827349998255" lon="9.882852890677073"><ele>94.0</ele><time>2026-05-03T08:02:32Z</time></trkpt><trkpt lat="45.478395602576306" lon="9.882900668704416"><ele>94.0</ele><time>2026-05-03T08:02:34Z</time></trkpt><trkpt lat="45.47852036050902" lon="9.882936708235345"><ele>94.0</ele><time>2026-05-03T08:02:36Z</time></trkpt><trkpt lat="45.478584367688946" lon="9.882950321084627"><ele>94.0</ele><time>2026-05-03T08:02:37Z</time></trkpt><trkpt lat="45.47864776090836" lon="9.882947427308432"><ele>94.0</ele><time>2026-05-03T08:02:38Z</time></trkpt><trkpt lat="45.47876860134634" lon="9.882886942183925"><ele>94.0</ele><time>2026-05-03T08:02:40Z</time></trkpt><trkpt lat="45.47882349031682" lon="9.882829644473977"><ele>94.2</ele><time>2026-05-03T08:02:41Z</time></trkpt><trkpt lat="45.4788732535112" lon="9.882769673059082"><ele>94.4</ele><time>2026-05-03T08:02:42Z</time></trkpt><trkpt lat="45.47896294772339" lon="9.882668904883612"><ele>94.6</ele><time>2026-05-03T08:02:44Z</time></trkpt><trkpt lat="45.479059894205115" lon="9.882568874551195"><ele>94.8</ele><time>2026-05-03T08:02:46Z</time></trkpt><trkpt lat="45.47915954201325" lon="9.88246530810237"><ele>95.0</ele><time>2026-05-03T08:02:48Z</time></trkpt><trkpt lat="45.479257345905474" lon="9.882337853605856"><ele>95.0</ele><time>2026-05-03T08:02:49.999Z</time></trkpt><trkpt lat="45.479306786160215" lon="9.882280172981948"><ele>95.0</ele><time>2026-05-03T08:02:50.999Z</time></trkpt><trkpt lat="45.47935481594604" lon="9.882221796144568"><ele>95.0</ele><time>2026-05-03T08:02:51.999Z</time></trkpt><trkpt lat="45.47940829741074" lon="9.882172534362901"><ele>95.0</ele><time>2026-05-03T08:02:52.999Z</time></trkpt><trkpt lat="45.47946491916196" lon="9.882132315735745"><ele>95.0</ele><time>2026-05-03T08:02:53.999Z</time></trkpt><trkpt lat="45.479583335313954" lon="9.882066802449955"><ele>95.0</ele><time>2026-05-03T08:02:55.999Z</time></trkpt><trkpt lat="45.47970332050663" lon="9.882028987037502"><ele>95.2</ele><time>2026-05-03T08:02:57.999Z</time></trkpt><trkpt lat="45.47982076335272" lon="9.881997153551216"><ele>95.4</ele><time>2026-05-03T08:02:59.999Z</time></trkpt><trkpt lat="45.47992433198679" lon="9.88195370363211"><ele>95.6</ele><time>2026-05-03T08:03:01.999Z</time></trkpt><trkpt lat="45.4800338482271" lon="9.881922926797813"><ele>95.8</ele><time>2026-05-03T08:03:03.999Z</time></trkpt><trkpt lat="45.48013746225968" lon="9.881913228873527"><ele>96.0</ele><time>2026-05-03T08:03:05.999Z</time></trkpt><trkpt lat="45.480221937776385" lon="9.881919851038791"><ele>96.0</ele><time>2026-05-03T08:03:08Z</time></trkpt><trkpt lat="45.4803055271216" lon="9.881941193039324"><ele>96.0</ele><time>2026-05-03T08:03:10Z</time></trkpt><trkpt lat="45.480402970318416" lon="9.881978335269922"><ele>96.0</ele><time>2026-05-03T08:03:12Z</time></trkpt><trkpt lat="45.48049339054092" lon="9.882035833345032"><ele>96.0</ele><time>2026-05-03T08:03:14Z</time></trkpt><trkpt lat="45.48057355059252" lon="9.882099685056733"><ele>96.0</ele><time>2026-05-03T08:03:16Z</time></trkpt><trkpt lat="45.480643274550005" lon="9.882157441967811"><ele>96.0</ele><time>2026-05-03T08:03:18Z</time></trkpt><trkpt lat="45.48070415950592" lon="9.882193015578736"><ele>96.0</ele><time>2026-05-03T08:03:21Z</time></trkpt><trkpt lat="45.48076836047446" lon="9.882134211342514"><ele>96.0</ele><time>2026-05-03T08:03:24Z</time></trkpt><trkpt lat="45.48074898387612" lon="9.8819675923902"><ele>96.0</ele><time>2026-05-03T08:03:26Z</time></trkpt><trkpt lat="45.48073925720772" lon="9.88187440413346"><ele>96.0</ele><time>2026-05-03T08:03:27Z</time></trkpt><trkpt lat="45.480731261823976" lon="9.881775979775064"><ele>96.0</ele><time>2026-05-03T08:03:28Z</time></trkpt><trkpt lat="45.480723510476516" lon="9.881672999535972"><ele>95.99999999999999</ele><time>2026-05-03T08:03:29Z</time></trkpt><trkpt lat="45.48072247673812" lon="9.881568314629709"><ele>96.0</ele><time>2026-05-03T08:03:30Z</time></trkpt><trkpt lat="45.480726427397144" lon="9.881463617027196"><ele>96.0</ele><time>2026-05-03T08:03:31Z</time></trkpt><trkpt lat="45.48074385616767" lon="9.881358535773535"><ele>96.0</ele><time>2026-05-03T08:03:32Z</time></trkpt><trkpt lat="45.48074906858363" lon="9.881268015658172"><ele>96.0</ele><time>2026-05-03T08:03:33Z</time></trkpt><trkpt lat="45.48075807832261" lon="9.881166954621234"><ele>95.99999999999999</ele><time>2026-05-03T08:03:34Z</time></trkpt><trkpt lat="45.48076088865884" lon="9.881062134241875"><ele>96.0</ele><time>2026-05-03T08:03:35Z</time></trkpt><trkpt lat="45.4807545792907" lon="9.880960593160834"><ele>96.14285714285714</ele><time>2026-05-03T08:03:36Z</time></trkpt><trkpt lat="45.480741187218854" lon="9.880859610463192"><ele>96.28571428571428</ele><time>2026-05-03T08:03:37Z</time></trkpt><trkpt lat="45.48072520032668" lon="9.880756406873262"><ele>96.42857142857142</ele><time>2026-05-03T08:03:38Z</time></trkpt><trkpt lat="45.480707581178685" lon="9.880652095210054"><ele>96.57142857142857</ele><time>2026-05-03T08:03:39Z</time></trkpt><trkpt lat="45.48069251218088" lon="9.88054840055568"><ele>96.71428571428572</ele><time>2026-05-03T08:03:40Z</time></trkpt><trkpt lat="45.48067807511088" lon="9.880444177254212"><ele>96.85714285714285</ele><time>2026-05-03T08:03:41Z</time></trkpt><trkpt lat="45.48067536886212" lon="9.88033868865466"><ele>97.0</ele><time>2026-05-03T08:03:42Z</time></trkpt><trkpt lat="45.48068912687506" lon="9.880232721854934"><ele>97.0</ele><time>2026-05-03T08:03:43Z</time></trkpt><trkpt lat="45.4807070462274" lon="9.880132484359246"><ele>97.0</ele><time>2026-05-03T08:03:44Z</time></trkpt><trkpt lat="45.480730575756404" lon="9.880035106706734"><ele>97.0</ele><time>2026-05-03T08:03:45Z</time></trkpt><trkpt lat="45.480755695585465" lon="9.879926598847351"><ele>97.0</ele><time>2026-05-03T08:03:46Z</time></trkpt><trkpt lat="45.48076048092551" lon="9.879824896497581"><ele>97.0</ele><time>2026-05-03T08:03:47Z</time></trkpt><trkpt lat="45.4807525562613" lon="9.879724578902943"><ele>97.0</ele><time>2026-05-03T08:03:48Z</time></trkpt><trkpt lat="45.480740529618544" lon="9.879616960938154"><ele>97.0</ele><time>2026-05-03T08:03:49Z</time></trkpt><trkpt lat="45.48072220791328" lon="9.879517320094708"><ele>97.0</ele><time>2026-05-03T08:03:50Z</time></trkpt><trkpt lat="45.4807080895487" lon="9.879418954825336"><ele>97.0</ele><time>2026-05-03T08:03:51Z</time></trkpt><trkpt lat="45.48069610658935" lon="9.879319568052805"><ele>97.0</ele><time>2026-05-03T08:03:52Z</time></trkpt><trkpt lat="45.480683382644564" lon="9.879217067063538"><ele>97.0</ele><time>2026-05-03T08:03:53Z</time></trkpt><trkpt lat="45.480669497817544" lon="9.879120191462908"><ele>97.0</ele><time>2026-05-03T08:03:54Z</time></trkpt><trkpt lat="45.4806511411032" lon="9.879023714516398"><ele>97.0</ele><time>2026-05-03T08:03:55Z</time></trkpt><trkpt lat="45.480631936079014" lon="9.878937541416908"><ele>97.0</ele><time>2026-05-03T08:03:56Z</time></trkpt><trkpt lat="45.48061665717984" lon="9.87884507494777"><ele>97.0</ele><time>2026-05-03T08:03:57Z</time></trkpt><trkpt lat="45.480603417740475" lon="9.878751843826608"><ele>97.0</ele><time>2026-05-03T08:03:58Z</time></trkpt><trkpt lat="45.480588821225524" lon="9.878661548881531"><ele>97.0</ele><time>2026-05-03T08:03:59Z</time></trkpt><trkpt lat="45.480569237756725" lon="9.878571762535056"><ele>97.0</ele><time>2026-05-03T08:04:00Z</time></trkpt><trkpt lat="45.480541419396715" lon="9.878487903456243"><ele>97.0</ele><time>2026-05-03T08:04:01Z</time></trkpt><trkpt lat="45.48050709990892" lon="9.878402801631102"><ele>97.0</ele><time>2026-05-03T08:04:02Z</time></trkpt><trkpt lat="45.48046914454214" lon="9.878328681658466"><ele>97.0</ele><time>2026-05-03T08:04:03Z</time></trkpt><trkpt lat="45.480383871251505" lon="9.878198004229926"><ele>97.57142857142857</ele><time>2026-05-03T08:04:05Z</time></trkpt><trkpt lat="45.480332738466515" lon="9.878130034259934"><ele>98.14285714285715</ele><time>2026-05-03T08:04:06Z</time></trkpt><trkpt lat="45.48028897167142" lon="9.878053876775907"><ele>98.71428571428572</ele><time>2026-05-03T08:04:07Z</time></trkpt><trkpt lat="45.48024698889839" lon="9.877974398373667"><ele>99.28571428571428</ele><time>2026-05-03T08:04:08Z</time></trkpt><trkpt lat="45.48019430093584" lon="9.877889786257441"><ele>99.85714285714286</ele><time>2026-05-03T08:04:09Z</time></trkpt><trkpt lat="45.480150233238554" lon="9.877804048568235"><ele>100.42857142857143</ele><time>2026-05-03T08:04:10Z</time></trkpt><trkpt lat="45.48012375992395" lon="9.877716191380719"><ele>101.0</ele><time>2026-05-03T08:04:11Z</time></trkpt><trkpt lat="45.48010938122196" lon="9.877623131814145"><ele>101.4</ele><time>2026-05-03T08:04:12Z</time></trkpt><trkpt lat="45.48010351037686" lon="9.87753319748654"><ele>101.8</ele><time>2026-05-03T08:04:13Z</time></trkpt><trkpt lat="45.4801185528317" lon="9.877354058754932"><ele>102.2</ele><time>2026-05-03T08:04:15Z</time></trkpt><trkpt lat="45.48013903188823" lon="9.877208225050172"><ele>102.60000000000001</ele><time>2026-05-03T08:04:17Z</time></trkpt><trkpt lat="45.480136180170746" lon="9.877043549974017"><ele>103.0</ele><time>2026-05-03T08:04:19Z</time></trkpt><trkpt lat="45.480149713756255" lon="9.876955119996364"><ele>103.0</ele><time>2026-05-03T08:04:20Z</time></trkpt><trkpt lat="45.480162825220106" lon="9.876777124728461"><ele>103.0</ele><time>2026-05-03T08:04:22Z</time></trkpt><trkpt lat="45.48017529881589" lon="9.876603243887413"><ele>103.0</ele><time>2026-05-03T08:04:24Z</time></trkpt><trkpt lat="45.48018057870448" lon="9.876513267254003"><ele>103.0</ele><time>2026-05-03T08:04:25Z</time></trkpt><trkpt lat="45.48018937064433" lon="9.876421269058813"><ele>103.0</ele><time>2026-05-03T08:04:26Z</time></trkpt><trkpt lat="45.480202997667185" lon="9.876243408658066"><ele>102.2</ele><time>2026-05-03T08:04:28Z</time></trkpt><trkpt lat="45.480210429654264" lon="9.876065925526563"><ele>101.4</ele><time>2026-05-03T08:04:30Z</time></trkpt><trkpt lat="45.480216891627244" lon="9.875971284509793"><ele>100.60000000000001</ele><time>2026-05-03T08:04:31Z</time></trkpt><trkpt lat="45.4802251700381" lon="9.875804000790316"><ele>99.80000000000001</ele><time>2026-05-03T08:04:33Z</time></trkpt><trkpt lat="45.48023918515751" lon="9.875633787185649"><ele>99.0</ele><time>2026-05-03T08:04:35Z</time></trkpt><trkpt lat="45.48024860035247" lon="9.875472891571846"><ele>98.83333333333333</ele><time>2026-05-03T08:04:37Z</time></trkpt><trkpt lat="45.4802562737308" lon="9.875317471470638"><ele>98.66666666666666</ele><time>2026-05-03T08:04:39Z</time></trkpt><trkpt lat="45.48026938123799" lon="9.875156263794212"><ele>98.5</ele><time>2026-05-03T08:04:41Z</time></trkpt><trkpt lat="45.480273373150055" lon="9.875061872175893"><ele>98.33333333333333</ele><time>2026-05-03T08:04:42Z</time></trkpt><trkpt lat="45.48027930532616" lon="9.874968224710063"><ele>98.16666666666666</ele><time>2026-05-03T08:04:43Z</time></trkpt><trkpt lat="45.480285982506906" lon="9.874867978432965"><ele>98.0</ele><time>2026-05-03T08:04:44Z</time></trkpt><trkpt lat="45.48030038966904" lon="9.87477292756647"><ele>98.14285714285714</ele><time>2026-05-03T08:04:45Z</time></trkpt><trkpt lat="45.48032188383109" lon="9.87466906542472"><ele>98.28571428571428</ele><time>2026-05-03T08:04:46Z</time></trkpt><trkpt lat="45.480345761688426" lon="9.874566173064796"><ele>98.42857142857143</ele><time>2026-05-03T08:04:47Z</time></trkpt><trkpt lat="45.48035838748865" lon="9.874466694546907"><ele>98.57142857142857</ele><time>2026-05-03T08:04:48Z</time></trkpt><trkpt lat="45.48036177375653" lon="9.87436059720637"><ele>98.71428571428571</ele><time>2026-05-03T08:04:49Z</time></trkpt><trkpt lat="45.48036354443565" lon="9.874267064023195"><ele>98.85714285714286</ele><time>2026-05-03T08:04:50Z</time></trkpt><trkpt lat="45.48036686162123" lon="9.874173723301752"><ele>99.0</ele><time>2026-05-03T08:04:51Z</time></trkpt><trkpt lat="45.480373607066916" lon="9.87399525590529"><ele>99.0</ele><time>2026-05-03T08:04:53Z</time></trkpt><trkpt lat="45.48038098909631" lon="9.873903469787919"><ele>99.0</ele><time>2026-05-03T08:04:54Z</time></trkpt><trkpt lat="45.48038671447531" lon="9.873811835407098"><ele>99.0</ele><time>2026-05-03T08:04:55Z</time></trkpt><trkpt lat="45.48039103937991" lon="9.873718998935471"><ele>99.0</ele><time>2026-05-03T08:04:56Z</time></trkpt><trkpt lat="45.48039448878255" lon="9.873625520278427"><ele>99.0</ele><time>2026-05-03T08:04:57Z</time></trkpt><trkpt lat="45.48039692400446" lon="9.873534317771494"><ele>99.0</ele><time>2026-05-03T08:04:58Z</time></trkpt><trkpt lat="45.48040360630749" lon="9.873442203409098"><ele>99.0</ele><time>2026-05-03T08:04:59Z</time></trkpt><trkpt lat="45.480420635144" lon="9.873272380117262"><ele>98.80000000000001</ele><time>2026-05-03T08:05:01Z</time></trkpt><trkpt lat="45.48042832584563" lon="9.873117794693473"><ele>98.60000000000001</ele><time>2026-05-03T08:05:03Z</time></trkpt><trkpt lat="45.480437971695814" lon="9.872975392075373"><ele>98.4</ele><time>2026-05-03T08:05:05Z</time></trkpt><trkpt lat="45.480394945412776" lon="9.87286466863513"><ele>98.2</ele><time>2026-05-03T08:05:07Z</time></trkpt><trkpt lat="45.48038785589581" lon="9.872737372692214"><ele>98.0</ele><time>2026-05-03T08:05:09Z</time></trkpt><trkpt lat="45.48039002719583" lon="9.872585410880795"><ele>98.4</ele><time>2026-05-03T08:05:11Z</time></trkpt><trkpt lat="45.480332884431725" lon="9.872474713271025"><ele>98.80000000000001</ele><time>2026-05-03T08:05:13Z</time></trkpt><trkpt lat="45.48027183877779" lon="9.872363547477255"><ele>99.2</ele><time>2026-05-03T08:05:15Z</time></trkpt><trkpt lat="45.48023719284769" lon="9.872232682727917"><ele>99.6</ele><time>2026-05-03T08:05:17Z</time></trkpt><trkpt lat="45.48020544063901" lon="9.872115224137092"><ele>100.0</ele><time>2026-05-03T08:05:19Z</time></trkpt><trkpt lat="45.48017256487619" lon="9.872020031993296"><ele>100.0</ele><time>2026-05-03T08:05:21Z</time></trkpt><trkpt lat="45.480132657862065" lon="9.87192191928679"><ele>100.0</ele><time>2026-05-03T08:05:24Z</time></trkpt><trkpt lat="45.48007702901298" lon="9.871866740224776"><ele>100.0</ele><time>2026-05-03T08:05:27Z</time></trkpt><trkpt lat="45.47996943534982" lon="9.871813714807685"><ele>100.0</ele><time>2026-05-03T08:05:29Z</time></trkpt><trkpt lat="45.47985828425162" lon="9.871748198877391"><ele>100.0</ele><time>2026-05-03T08:05:31Z</time></trkpt><trkpt lat="45.47974964052661" lon="9.871712523321436"><ele>100.6</ele><time>2026-05-03T08:05:33Z</time></trkpt><trkpt lat="45.4796502406969" lon="9.871691809685435"><ele>101.2</ele><time>2026-05-03T08:05:35Z</time></trkpt><trkpt lat="45.47953697484826" lon="9.871675561327656"><ele>101.80000000000001</ele><time>2026-05-03T08:05:37Z</time></trkpt><trkpt lat="45.47942279012605" lon="9.87166275058999"><ele>102.4</ele><time>2026-05-03T08:05:39Z</time></trkpt><trkpt lat="45.47931171550624" lon="9.871652100973852"><ele>103.0</ele><time>2026-05-03T08:05:41Z</time></trkpt><trkpt lat="45.47920008204689" lon="9.871651231216513"><ele>103.0</ele><time>2026-05-03T08:05:43Z</time></trkpt><trkpt lat="45.47908543274148" lon="9.871649301181458"><ele>103.0</ele><time>2026-05-03T08:05:45Z</time></trkpt><trkpt lat="45.47896647350991" lon="9.87163674978931"><ele>103.0</ele><time>2026-05-03T08:05:47Z</time></trkpt><trkpt lat="45.47886120485656" lon="9.871617809181176"><ele>103.0</ele><time>2026-05-03T08:05:49Z</time></trkpt><trkpt lat="45.47877590446814" lon="9.871577906214606"><ele>103.0</ele><time>2026-05-03T08:05:51Z</time></trkpt><trkpt lat="45.478698358819344" lon="9.87154404007423"><ele>102.2</ele><time>2026-05-03T08:05:53Z</time></trkpt><trkpt lat="45.47862651444548" lon="9.871519134693017"><ele>101.4</ele><time>2026-05-03T08:05:55Z</time></trkpt><trkpt lat="45.47853478095608" lon="9.871481447078173"><ele>100.60000000000001</ele><time>2026-05-03T08:05:57Z</time></trkpt><trkpt lat="45.47842942492577" lon="9.871432230770447"><ele>99.80000000000001</ele><time>2026-05-03T08:05:59Z</time></trkpt><trkpt lat="45.47832238106027" lon="9.871393660629312"><ele>99.0</ele><time>2026-05-03T08:06:01Z</time></trkpt><trkpt lat="45.478201025364285" lon="9.871364983929622"><ele>99.0</ele><time>2026-05-03T08:06:03Z</time></trkpt><trkpt lat="45.47807984965052" lon="9.871362918250949"><ele>99.0</ele><time>2026-05-03T08:06:05Z</time></trkpt><trkpt lat="45.47796334169334" lon="9.871378580523391"><ele>99.0</ele><time>2026-05-03T08:06:07Z</time></trkpt><trkpt lat="45.47784658032895" lon="9.871423799777412"><ele>99.0</ele><time>2026-05-03T08:06:09Z</time></trkpt><trkpt lat="45.47773891436056" lon="9.87148352928493"><ele>99.0</ele><time>2026-05-03T08:06:11Z</time></trkpt><trkpt lat="45.47764499098091" lon="9.871578398853394"><ele>99.0</ele><time>2026-05-03T08:06:13Z</time></trkpt><trkpt lat="45.47756068988991" lon="9.87169148750948"><ele>99.0</ele><time>2026-05-03T08:06:15Z</time></trkpt><trkpt lat="45.47751486387498" lon="9.871832843801359"><ele>99.0</ele><time>2026-05-03T08:06:17Z</time></trkpt><trkpt lat="45.47749066755695" lon="9.871978624777531"><ele>99.0</ele><time>2026-05-03T08:06:19Z</time></trkpt><trkpt lat="45.477493459604744" lon="9.872134119908857"><ele>99.0</ele><time>2026-05-03T08:06:21Z</time></trkpt><trkpt lat="45.47750240288335" lon="9.872226244521835"><ele>99.0</ele><time>2026-05-03T08:06:22Z</time></trkpt><trkpt lat="45.47749830477911" lon="9.872403694473647"><ele>99.0</ele><time>2026-05-03T08:06:24Z</time></trkpt><trkpt lat="45.4774966069939" lon="9.872579395019422"><ele>99.0</ele><time>2026-05-03T08:06:26Z</time></trkpt><trkpt lat="45.47749568722233" lon="9.872759689180763"><ele>99.0</ele><time>2026-05-03T08:06:28Z</time></trkpt><trkpt lat="45.477477871697864" lon="9.872929465608108"><ele>99.5</ele><time>2026-05-03T08:06:30Z</time></trkpt><trkpt lat="45.477450160100474" lon="9.873098185784311"><ele>100.0</ele><time>2026-05-03T08:06:32Z</time></trkpt><trkpt lat="45.477413501670924" lon="9.8732589377553"><ele>100.5</ele><time>2026-05-03T08:06:34Z</time></trkpt><trkpt lat="45.47737109254068" lon="9.873413980654052"><ele>101.0</ele><time>2026-05-03T08:06:36Z</time></trkpt><trkpt lat="45.477333131813594" lon="9.873563711797425"><ele>101.25</ele><time>2026-05-03T08:06:38Z</time></trkpt><trkpt lat="45.477296210302086" lon="9.873724225604624"><ele>101.5</ele><time>2026-05-03T08:06:40Z</time></trkpt><trkpt lat="45.477261376483774" lon="9.873879837747715"><ele>101.75</ele><time>2026-05-03T08:06:42Z</time></trkpt><trkpt lat="45.47722377320966" lon="9.874034504773677"><ele>102.0</ele><time>2026-05-03T08:06:44Z</time></trkpt><trkpt lat="45.477181994409165" lon="9.874191308127319"><ele>102.0</ele><time>2026-05-03T08:06:46Z</time></trkpt><trkpt lat="45.47712034447391" lon="9.874323533188823"><ele>102.0</ele><time>2026-05-03T08:06:48Z</time></trkpt><trkpt lat="45.47704417476347" lon="9.874436245091601"><ele>102.0</ele><time>2026-05-03T08:06:50Z</time></trkpt><trkpt lat="45.4769542459936" lon="9.874528738402702"><ele>102.0</ele><time>2026-05-03T08:06:52Z</time></trkpt><trkpt lat="45.476848437927835" lon="9.874589543721369"><ele>102.0</ele><time>2026-05-03T08:06:54Z</time></trkpt><trkpt lat="45.476736997877445" lon="9.874657932881222"><ele>102.5</ele><time>2026-05-03T08:06:56Z</time></trkpt><trkpt lat="45.47662801824737" lon="9.874725984302263"><ele>103.0</ele><time>2026-05-03T08:06:58Z</time></trkpt><trkpt lat="45.476523302240714" lon="9.87478850585191"><ele>103.5</ele><time>2026-05-03T08:07:00Z</time></trkpt><trkpt lat="45.47641550577439" lon="9.874838298293959"><ele>104.0</ele><time>2026-05-03T08:07:02Z</time></trkpt><trkpt lat="45.47630691864924" lon="9.874870901916431"><ele>103.80000000000001</ele><time>2026-05-03T08:07:04Z</time></trkpt><trkpt lat="45.476193375951574" lon="9.874903282575737"><ele>103.60000000000001</ele><time>2026-05-03T08:07:06Z</time></trkpt><trkpt lat="45.47607843567685" lon="9.874926229401975"><ele>103.4</ele><time>2026-05-03T08:07:08Z</time></trkpt><trkpt lat="45.47596646600416" lon="9.87495189803968"><ele>103.2</ele><time>2026-05-03T08:07:10Z</time></trkpt><trkpt lat="45.47587112053486" lon="9.874964873020662"><ele>103.0</ele><time>2026-05-03T08:07:12Z</time></trkpt><trkpt lat="45.47577991242283" lon="9.87497166667779"><ele>103.0</ele><time>2026-05-03T08:07:14Z</time></trkpt><trkpt lat="45.475669647065025" lon="9.874984061865486"><ele>103.0</ele><time>2026-05-03T08:07:16Z</time></trkpt><trkpt lat="45.47555011889484" lon="9.87500911027935"><ele>103.0</ele><time>2026-05-03T08:07:17.999Z</time></trkpt><trkpt lat="45.47543105414464" lon="9.875025235859148"><ele>103.0</ele><time>2026-05-03T08:07:20Z</time></trkpt><trkpt lat="45.475311561299726" lon="9.875045299451735"><ele>103.25</ele><time>2026-05-03T08:07:22Z</time></trkpt><trkpt lat="45.47519833790936" lon="9.875060226039821"><ele>103.5</ele><time>2026-05-03T08:07:24Z</time></trkpt><trkpt lat="45.47507861629431" lon="9.87507713746413"><ele>103.75</ele><time>2026-05-03T08:07:26Z</time></trkpt><trkpt lat="45.474965719779775" lon="9.875095552859822"><ele>104.0</ele><time>2026-05-03T08:07:28Z</time></trkpt><trkpt lat="45.474847463780876" lon="9.875111155809233"><ele>103.0</ele><time>2026-05-03T08:07:30Z</time></trkpt><trkpt lat="45.47473509964326" lon="9.875119074869877"><ele>102.0</ele><time>2026-05-03T08:07:32Z</time></trkpt><trkpt lat="45.47462180282808" lon="9.875137477103038"><ele>101.0</ele><time>2026-05-03T08:07:34Z</time></trkpt><trkpt lat="45.47450283284606" lon="9.875161289383762"><ele>100.0</ele><time>2026-05-03T08:07:36Z</time></trkpt><trkpt lat="45.47439338729653" lon="9.875185417007819"><ele>99.8</ele><time>2026-05-03T08:07:38Z</time></trkpt><trkpt lat="45.474299341862235" lon="9.875206360499105"><ele>99.6</ele><time>2026-05-03T08:07:40Z</time></trkpt><trkpt lat="45.474206665091145" lon="9.875225086770717"><ele>99.4</ele><time>2026-05-03T08:07:42Z</time></trkpt><trkpt lat="45.47410744935372" lon="9.875223562972664"><ele>99.2</ele><time>2026-05-03T08:07:44Z</time></trkpt><trkpt lat="45.4740019499026" lon="9.875244303814533"><ele>99.0</ele><time>2026-05-03T08:07:46Z</time></trkpt><trkpt lat="45.47390633603775" lon="9.875255866498993"><ele>99.0</ele><time>2026-05-03T08:07:48Z</time></trkpt><trkpt lat="45.47380871604383" lon="9.875267356670019"><ele>99.0</ele><time>2026-05-03T08:07:50Z</time></trkpt><trkpt lat="45.473718377371846" lon="9.875289740232262"><ele>99.0</ele><time>2026-05-03T08:07:52Z</time></trkpt><trkpt lat="45.47361255405185" lon="9.875283001348585"><ele>99.0</ele><time>2026-05-03T08:07:54Z</time></trkpt><trkpt lat="45.473503216049714" lon="9.875286530554789"><ele>99.0</ele><time>2026-05-03T08:07:56Z</time></trkpt><trkpt lat="45.47338530788093" lon="9.875296327047776"><ele>99.0</ele><time>2026-05-03T08:07:58Z</time></trkpt><trkpt lat="45.47326871037048" lon="9.875313141305503"><ele>99.0</ele><time>2026-05-03T08:08:00Z</time></trkpt><trkpt lat="45.47315053867545" lon="9.875315129810007"><ele>99.0</ele><time>2026-05-03T08:08:02Z</time></trkpt><trkpt lat="45.47303767974862" lon="9.875333273126097"><ele>99.0</ele><time>2026-05-03T08:08:04Z</time></trkpt><trkpt lat="45.47297453695582" lon="9.875334595489475"><ele>99.0</ele><time>2026-05-03T08:08:05Z</time></trkpt><trkpt lat="45.47290927543682" lon="9.875328906125892"><ele>98.83333333333333</ele><time>2026-05-03T08:08:06Z</time></trkpt><trkpt lat="45.47284496558303" lon="9.87533642699867"><ele>98.66666666666666</ele><time>2026-05-03T08:08:07Z</time></trkpt><trkpt lat="45.472743709835264" lon="9.875330322094948"><ele>98.5</ele><time>2026-05-03T08:08:09Z</time></trkpt><trkpt lat="45.47262626049169" lon="9.875314047782815"><ele>98.33333333333333</ele><time>2026-05-03T08:08:11Z</time></trkpt><trkpt lat="45.472564447326256" lon="9.87529618820466"><ele>98.16666666666666</ele><time>2026-05-03T08:08:12Z</time></trkpt><trkpt lat="45.4725013684519" lon="9.875271908247168"><ele>98.0</ele><time>2026-05-03T08:08:13Z</time></trkpt><trkpt lat="45.47243905955738" lon="9.875245563429788"><ele>97.99999999999999</ele><time>2026-05-03T08:08:14Z</time></trkpt><trkpt lat="45.47237362339461" lon="9.87521110489238"><ele>98.0</ele><time>2026-05-03T08:08:15Z</time></trkpt><trkpt lat="45.472313251654846" lon="9.875181470634738"><ele>98.0</ele><time>2026-05-03T08:08:16Z</time></trkpt><trkpt lat="45.4722000138593" lon="9.875111865488671"><ele>98.0</ele><time>2026-05-03T08:08:18Z</time></trkpt><trkpt lat="45.47213817733655" lon="9.875087006311649"><ele>97.99999999999999</ele><time>2026-05-03T08:08:19Z</time></trkpt><trkpt lat="45.47202686145343" lon="9.875008954824366"><ele>98.0</ele><time>2026-05-03T08:08:21Z</time></trkpt><trkpt lat="45.47196893198777" lon="9.87496490976518"><ele>99.0</ele><time>2026-05-03T08:08:22Z</time></trkpt><trkpt lat="45.4718550220721" lon="9.874861059035963"><ele>100.0</ele><time>2026-05-03T08:08:24Z</time></trkpt><trkpt lat="45.471749049837555" lon="9.874769616879604"><ele>101.0</ele><time>2026-05-03T08:08:26Z</time></trkpt><trkpt lat="45.47165449718028" lon="9.874679482734242"><ele>102.0</ele><time>2026-05-03T08:08:28Z</time></trkpt><trkpt lat="45.471568179154936" lon="9.874590020326599"><ele>102.0</ele><time>2026-05-03T08:08:30Z</time></trkpt><trkpt lat="45.47146638358581" lon="9.874534705906104"><ele>102.0</ele><time>2026-05-03T08:08:32Z</time></trkpt><trkpt lat="45.47136418482217" lon="9.874539837689255"><ele>102.0</ele><time>2026-05-03T08:08:34Z</time></trkpt><trkpt lat="45.471258854288955" lon="9.874574083648291"><ele>102.0</ele><time>2026-05-03T08:08:36Z</time></trkpt><trkpt lat="45.47119497610107" lon="9.87457637231374"><ele>102.0</ele><time>2026-05-03T08:08:37Z</time></trkpt><trkpt lat="45.4711263912287" lon="9.874591548741236"><ele>101.66666666666667</ele><time>2026-05-03T08:08:38Z</time></trkpt><trkpt lat="45.471049755261724" lon="9.874607527845088"><ele>101.33333333333334</ele><time>2026-05-03T08:08:39Z</time></trkpt><trkpt lat="45.4709799763019" lon="9.874635014833801"><ele>101.0</ele><time>2026-05-03T08:08:40Z</time></trkpt><trkpt lat="45.47090357648606" lon="9.874629418422069"><ele>100.66666666666667</ele><time>2026-05-03T08:08:41Z</time></trkpt><trkpt lat="45.47077876318641" lon="9.874663188586826"><ele>100.33333333333334</ele><time>2026-05-03T08:08:43Z</time></trkpt><trkpt lat="45.47070273681472" lon="9.874677766392034"><ele>100.0</ele><time>2026-05-03T08:08:44Z</time></trkpt><trkpt lat="45.470629530244565" lon="9.874685036517823"><ele>100.00000000000001</ele><time>2026-05-03T08:08:45Z</time></trkpt><trkpt lat="45.47055520063586" lon="9.874704853334531"><ele>100.0</ele><time>2026-05-03T08:08:46Z</time></trkpt><trkpt lat="45.4704880721343" lon="9.874715914304883"><ele>100.0</ele><time>2026-05-03T08:08:47Z</time></trkpt><trkpt lat="45.470421361020605" lon="9.874733435670375"><ele>100.0</ele><time>2026-05-03T08:08:48Z</time></trkpt><trkpt lat="45.47035357851479" lon="9.874738444281602"><ele>100.0</ele><time>2026-05-03T08:08:49Z</time></trkpt><trkpt lat="45.47028450766322" lon="9.87475916765088"><ele>100.00000000000001</ele><time>2026-05-03T08:08:50Z</time></trkpt><trkpt lat="45.47021943757251" lon="9.874766005357746"><ele>100.0</ele><time>2026-05-03T08:08:51Z</time></trkpt><trkpt lat="45.470156507038276" lon="9.874774264850146"><ele>100.2</ele><time>2026-05-03T08:08:52Z</time></trkpt><trkpt lat="45.47004331455663" lon="9.874819738905709"><ele>100.4</ele><time>2026-05-03T08:08:54Z</time></trkpt><trkpt lat="45.469936621300235" lon="9.874913972330493"><ele>100.6</ele><time>2026-05-03T08:08:56Z</time></trkpt><trkpt lat="45.469909581313594" lon="9.875001448352046"><ele>100.8</ele><time>2026-05-03T08:08:57Z</time></trkpt><trkpt lat="45.46990236273384" lon="9.875091633650815"><ele>101.0</ele><time>2026-05-03T08:08:58Z</time></trkpt><trkpt lat="45.46990448752268" lon="9.875262788813455"><ele>100.6</ele><time>2026-05-03T08:09:00Z</time></trkpt><trkpt lat="45.469896149513374" lon="9.875425345150322"><ele>100.19999999999999</ele><time>2026-05-03T08:09:02Z</time></trkpt><trkpt lat="45.46987582315386" lon="9.875603975290272"><ele>99.80000000000001</ele><time>2026-05-03T08:09:04Z</time></trkpt><trkpt lat="45.469869265419824" lon="9.875693539596416"><ele>99.4</ele><time>2026-05-03T08:09:05Z</time></trkpt><trkpt lat="45.469860585764984" lon="9.875863849880483"><ele>99.0</ele><time>2026-05-03T08:09:07Z</time></trkpt><trkpt lat="45.46985237437568" lon="9.876020257025358"><ele>98.71428571428572</ele><time>2026-05-03T08:09:09Z</time></trkpt><trkpt lat="45.46984918401338" lon="9.876110035059801"><ele>98.42857142857142</ele><time>2026-05-03T08:09:10Z</time></trkpt><trkpt lat="45.46985000950986" lon="9.87620059292166"><ele>98.14285714285714</ele><time>2026-05-03T08:09:11Z</time></trkpt><trkpt lat="45.46984622617588" lon="9.876299866514973"><ele>97.85714285714286</ele><time>2026-05-03T08:09:12Z</time></trkpt><trkpt lat="45.469841795403426" lon="9.876392820204044"><ele>97.57142857142858</ele><time>2026-05-03T08:09:13Z</time></trkpt><trkpt lat="45.46983650020501" lon="9.87648542539481"><ele>97.28571428571428</ele><time>2026-05-03T08:09:14Z</time></trkpt><trkpt lat="45.46983312111582" lon="9.8765766305237"><ele>97.0</ele><time>2026-05-03T08:09:15Z</time></trkpt><trkpt lat="45.469831819081996" lon="9.876670003142797"><ele>97.0</ele><time>2026-05-03T08:09:16Z</time></trkpt><trkpt lat="45.46982862029099" lon="9.876764824595586"><ele>97.0</ele><time>2026-05-03T08:09:17Z</time></trkpt><trkpt lat="45.46981839799965" lon="9.87693513844271"><ele>97.0</ele><time>2026-05-03T08:09:18.999Z</time></trkpt><trkpt lat="45.469816038580426" lon="9.877026921538466"><ele>97.0</ele><time>2026-05-03T08:09:19.999Z</time></trkpt><trkpt lat="45.4698145942865" lon="9.877194885235385"><ele>97.0</ele><time>2026-05-03T08:09:21.999Z</time></trkpt><trkpt lat="45.46981432834783" lon="9.877353677617641"><ele>97.14285714285714</ele><time>2026-05-03T08:09:23.999Z</time></trkpt><trkpt lat="45.46980911079259" lon="9.877451625344218"><ele>97.28571428571429</ele><time>2026-05-03T08:09:24.999Z</time></trkpt><trkpt lat="45.46980196633489" lon="9.877546643578423"><ele>97.42857142857143</ele><time>2026-05-03T08:09:26Z</time></trkpt><trkpt lat="45.46979578647436" lon="9.877642104615262"><ele>97.57142857142857</ele><time>2026-05-03T08:09:27Z</time></trkpt><trkpt lat="45.469793793125255" lon="9.877736419349096"><ele>97.71428571428572</ele><time>2026-05-03T08:09:28Z</time></trkpt><trkpt lat="45.46979324932636" lon="9.87782983482195"><ele>97.85714285714286</ele><time>2026-05-03T08:09:29Z</time></trkpt><trkpt lat="45.46979426184208" lon="9.877921552931385"><ele>98.0</ele><time>2026-05-03T08:09:30Z</time></trkpt><trkpt lat="45.46979897337873" lon="9.878100095372481"><ele>98.0</ele><time>2026-05-03T08:09:32Z</time></trkpt><trkpt lat="45.4697984012375" lon="9.878193067481071"><ele>98.0</ele><time>2026-05-03T08:09:33Z</time></trkpt><trkpt lat="45.469785185675136" lon="9.87836854659567"><ele>98.0</ele><time>2026-05-03T08:09:35Z</time></trkpt><trkpt lat="45.46977150129981" lon="9.878534061472832"><ele>98.0</ele><time>2026-05-03T08:09:37Z</time></trkpt><trkpt lat="45.469781536688565" lon="9.878690176845248"><ele>98.0</ele><time>2026-05-03T08:09:39Z</time></trkpt><trkpt lat="45.46979643158315" lon="9.878858553799327"><ele>98.0</ele><time>2026-05-03T08:09:41Z</time></trkpt><trkpt lat="45.46980955364264" lon="9.878948719924061"><ele>98.0</ele><time>2026-05-03T08:09:42Z</time></trkpt><trkpt lat="45.46982735910632" lon="9.8791207044345"><ele>98.0</ele><time>2026-05-03T08:09:44Z</time></trkpt><trkpt lat="45.46985807207536" lon="9.87928490678346"><ele>98.0</ele><time>2026-05-03T08:09:46Z</time></trkpt><trkpt lat="45.46988286735997" lon="9.879421019216954"><ele>98.0</ele><time>2026-05-03T08:09:48Z</time></trkpt><trkpt lat="45.46986610396897" lon="9.879543816814135"><ele>97.99999999999999</ele><time>2026-05-03T08:09:50Z</time></trkpt><trkpt lat="45.46978763253586" lon="9.879629159216961"><ele>98.0</ele><time>2026-05-03T08:09:52Z</time></trkpt><trkpt lat="45.469672808986395" lon="9.879645899264446"><ele>98.0</ele><time>2026-05-03T08:09:54Z</time></trkpt><trkpt lat="45.46960719613096" lon="9.879646756273605"><ele>98.0</ele><time>2026-05-03T08:09:55Z</time></trkpt><trkpt lat="45.469539810593304" lon="9.879644708149089"><ele>97.99999999999999</ele><time>2026-05-03T08:09:56Z</time></trkpt><trkpt lat="45.46946841427151" lon="9.879636275043516"><ele>98.0</ele><time>2026-05-03T08:09:57Z</time></trkpt><trkpt lat="45.46939991338144" lon="9.879626809835733"><ele>98.33333333333333</ele><time>2026-05-03T08:09:58Z</time></trkpt><trkpt lat="45.46933372507876" lon="9.87961635683058"><ele>98.66666666666666</ele><time>2026-05-03T08:09:59Z</time></trkpt><trkpt lat="45.46926609716288" lon="9.87961486219748"><ele>99.0</ele><time>2026-05-03T08:10:00Z</time></trkpt><trkpt lat="45.46920283603168" lon="9.879613199081476"><ele>99.33333333333334</ele><time>2026-05-03T08:10:01Z</time></trkpt><trkpt lat="45.46908573165575" lon="9.879622913720276"><ele>99.66666666666667</ele><time>2026-05-03T08:10:03Z</time></trkpt><trkpt lat="45.46898255940663" lon="9.879649092249789"><ele>100.0</ele><time>2026-05-03T08:10:05Z</time></trkpt><trkpt lat="45.46888098373716" lon="9.879659973558633"><ele>99.33333333333334</ele><time>2026-05-03T08:10:07Z</time></trkpt><trkpt lat="45.46877021443438" lon="9.879660718354403"><ele>98.66666666666667</ele><time>2026-05-03T08:10:09Z</time></trkpt><trkpt lat="45.46865244352879" lon="9.8796228237786"><ele>98.0</ele><time>2026-05-03T08:10:11Z</time></trkpt><trkpt lat="45.46858749282068" lon="9.879609798032101"><ele>97.33333333333334</ele><time>2026-05-03T08:10:12Z</time></trkpt><trkpt lat="45.468521625048915" lon="9.87961923813999"><ele>96.66666666666667</ele><time>2026-05-03T08:10:13Z</time></trkpt><trkpt lat="45.468452669742746" lon="9.879621170943015"><ele>96.0</ele><time>2026-05-03T08:10:14Z</time></trkpt><trkpt lat="45.46838580120483" lon="9.87961523160021"><ele>96.0</ele><time>2026-05-03T08:10:15Z</time></trkpt><trkpt lat="45.468321804075565" lon="9.879613283703238"><ele>96.0</ele><time>2026-05-03T08:10:16Z</time></trkpt><trkpt lat="45.468258455886236" lon="9.879608725854292"><ele>96.0</ele><time>2026-05-03T08:10:17Z</time></trkpt><trkpt lat="45.4681419479638" lon="9.87957465171118"><ele>96.0</ele><time>2026-05-03T08:10:19Z</time></trkpt><trkpt lat="45.46802155856143" lon="9.879561039983852"><ele>96.0</ele><time>2026-05-03T08:10:21Z</time></trkpt><trkpt lat="45.467955569907645" lon="9.879564809961604"><ele>96.0</ele><time>2026-05-03T08:10:22Z</time></trkpt><trkpt lat="45.467889629910665" lon="9.879582351294937"><ele>95.66666666666667</ele><time>2026-05-03T08:10:23Z</time></trkpt><trkpt lat="45.467822990094334" lon="9.879610063880707"><ele>95.33333333333333</ele><time>2026-05-03T08:10:24Z</time></trkpt><trkpt lat="45.46776019281154" lon="9.879637776985566"><ele>95.0</ele><time>2026-05-03T08:10:25Z</time></trkpt><trkpt lat="45.467646234566274" lon="9.879724598431599"><ele>94.66666666666666</ele><time>2026-05-03T08:10:27Z</time></trkpt><trkpt lat="45.46758569333964" lon="9.87976830291317"><ele>94.33333333333333</ele><time>2026-05-03T08:10:28Z</time></trkpt><trkpt lat="45.46753571318931" lon="9.879828171476488"><ele>94.0</ele><time>2026-05-03T08:10:29Z</time></trkpt><trkpt lat="45.46742819463773" lon="9.879926635320514"><ele>94.0</ele><time>2026-05-03T08:10:31Z</time></trkpt><trkpt lat="45.46737181566242" lon="9.879976116296769"><ele>94.0</ele><time>2026-05-03T08:10:32Z</time></trkpt><trkpt lat="45.46726214406999" lon="9.880050726866335"><ele>94.0</ele><time>2026-05-03T08:10:34Z</time></trkpt><trkpt lat="45.46715402312506" lon="9.880057302961138"><ele>94.0</ele><time>2026-05-03T08:10:36Z</time></trkpt><trkpt lat="45.46705593428043" lon="9.88001365525227"><ele>94.0</ele><time>2026-05-03T08:10:38Z</time></trkpt><trkpt lat="45.466985942868995" lon="9.879949169785752"><ele>95.0</ele><time>2026-05-03T08:10:40Z</time></trkpt><trkpt lat="45.46697030194213" lon="9.87985616361277"><ele>96.0</ele><time>2026-05-03T08:10:42Z</time></trkpt><trkpt lat="45.466969712629236" lon="9.879752252860888"><ele>97.0</ele><time>2026-05-03T08:10:44Z</time></trkpt><trkpt lat="45.46694971069406" lon="9.879631471845641"><ele>98.0</ele><time>2026-05-03T08:10:47Z</time></trkpt><trkpt lat="45.46692884055412" lon="9.879540262562355"><ele>99.0</ele><time>2026-05-03T08:10:50Z</time></trkpt><trkpt lat="45.466871817514594" lon="9.87961931819016"><ele>100.0</ele><time>2026-05-03T08:10:57Z</time></trkpt><trkpt lat="45.46683440650851" lon="9.879708905638678"><ele>101.0</ele><time>2026-05-03T08:11:00Z</time></trkpt><trkpt lat="45.466783133943416" lon="9.879781454141513"><ele>101.0</ele><time>2026-05-03T08:11:02Z</time></trkpt><trkpt lat="45.46669204493834" lon="9.879803546677557"><ele>101.0</ele><time>2026-05-03T08:11:04Z</time></trkpt><trkpt lat="45.46661580753015" lon="9.879821639941092"><ele>101.0</ele><time>2026-05-03T08:11:06Z</time></trkpt><trkpt lat="45.46654307918408" lon="9.879818128423976"><ele>101.0</ele><time>2026-05-03T08:11:08Z</time></trkpt><trkpt lat="45.46644765035488" lon="9.879844760770078"><ele>101.0</ele><time>2026-05-03T08:11:10Z</time></trkpt><trkpt lat="45.46635802105531" lon="9.879937386535643"><ele>101.16666666666666</ele><time>2026-05-03T08:11:12Z</time></trkpt><trkpt lat="45.46627709903251" lon="9.880054504406132"><ele>101.33333333333333</ele><time>2026-05-03T08:11:14Z</time></trkpt><trkpt lat="45.46623286808467" lon="9.880128153950043"><ele>101.5</ele><time>2026-05-03T08:11:15Z</time></trkpt><trkpt lat="45.46619022582777" lon="9.880196443997656"><ele>101.66666666666666</ele><time>2026-05-03T08:11:16Z</time></trkpt><trkpt lat="45.466091028208226" lon="9.880322211784145"><ele>101.83333333333333</ele><time>2026-05-03T08:11:18Z</time></trkpt><trkpt lat="45.46603087938445" lon="9.880368912727722"><ele>102.0</ele><time>2026-05-03T08:11:19Z</time></trkpt><trkpt lat="45.465979747093776" lon="9.880432468262127"><ele>101.0</ele><time>2026-05-03T08:11:20Z</time></trkpt><trkpt lat="45.465897985151905" lon="9.880543041658278"><ele>100.0</ele><time>2026-05-03T08:11:22Z</time></trkpt><trkpt lat="45.46579684065992" lon="9.880655658333017"><ele>99.0</ele><time>2026-05-03T08:11:24Z</time></trkpt><trkpt lat="45.46574857731098" lon="9.88072636979158"><ele>98.0</ele><time>2026-05-03T08:11:25Z</time></trkpt><trkpt lat="45.465652625902095" lon="9.88080299530242"><ele>97.0</ele><time>2026-05-03T08:11:27Z</time></trkpt><trkpt lat="45.465601351507125" lon="9.880857821776997"><ele>97.00000000000001</ele><time>2026-05-03T08:11:28Z</time></trkpt><trkpt lat="45.46554441352125" lon="9.880917577453303"><ele>97.0</ele><time>2026-05-03T08:11:29Z</time></trkpt><trkpt lat="45.46548689124706" lon="9.88096771774494"><ele>97.0</ele><time>2026-05-03T08:11:30Z</time></trkpt><trkpt lat="45.46542643128425" lon="9.881024331657096"><ele>97.0</ele><time>2026-05-03T08:11:31Z</time></trkpt><trkpt lat="45.465331410517535" lon="9.881146142991687"><ele>97.00000000000001</ele><time>2026-05-03T08:11:33Z</time></trkpt><trkpt lat="45.46527349839737" lon="9.881204906940887"><ele>97.0</ele><time>2026-05-03T08:11:34Z</time></trkpt><trkpt lat="45.465215251260666" lon="9.881265936988846"><ele>96.66666666666667</ele><time>2026-05-03T08:11:35Z</time></trkpt><trkpt lat="45.465157629835545" lon="9.88134218106271"><ele>96.33333333333334</ele><time>2026-05-03T08:11:36Z</time></trkpt><trkpt lat="45.46510187775108" lon="9.881418550103291"><ele>96.0</ele><time>2026-05-03T08:11:37Z</time></trkpt><trkpt lat="45.465061167873905" lon="9.881509764438572"><ele>95.66666666666667</ele><time>2026-05-03T08:11:38Z</time></trkpt><trkpt lat="45.46502563688869" lon="9.881599204037169"><ele>95.33333333333334</ele><time>2026-05-03T08:11:39Z</time></trkpt><trkpt lat="45.46498788732602" lon="9.881688042801528"><ele>95.0</ele><time>2026-05-03T08:11:40Z</time></trkpt><trkpt lat="45.46494581557894" lon="9.88177620531067"><ele>94.66666666666667</ele><time>2026-05-03T08:11:41Z</time></trkpt><trkpt lat="45.4649011191762" lon="9.88185903452909"><ele>94.33333333333334</ele><time>2026-05-03T08:11:42Z</time></trkpt><trkpt lat="45.46485137470125" lon="9.881937704572689"><ele>94.0</ele><time>2026-05-03T08:11:43Z</time></trkpt><trkpt lat="45.46479080153159" lon="9.882011046147868"><ele>93.66666666666667</ele><time>2026-05-03T08:11:44Z</time></trkpt><trkpt lat="45.464733169340754" lon="9.882077275456531"><ele>93.33333333333333</ele><time>2026-05-03T08:11:45Z</time></trkpt><trkpt lat="45.46466297346262" lon="9.882135930638134"><ele>93.0</ele><time>2026-05-03T08:11:46Z</time></trkpt><trkpt lat="45.464598368290034" lon="9.882189080870118"><ele>93.00000000000001</ele><time>2026-05-03T08:11:47Z</time></trkpt><trkpt lat="45.464529223545185" lon="9.882245688664897"><ele>93.0</ele><time>2026-05-03T08:11:48Z</time></trkpt><trkpt lat="45.46446688976622" lon="9.882311565568667"><ele>93.0</ele><time>2026-05-03T08:11:49Z</time></trkpt><trkpt lat="45.46440343006974" lon="9.88237056932313"><ele>93.0</ele><time>2026-05-03T08:11:50Z</time></trkpt><trkpt lat="45.46434733063587" lon="9.882440205358959"><ele>93.0</ele><time>2026-05-03T08:11:51Z</time></trkpt><trkpt lat="45.46429592195983" lon="9.88250927724474"><ele>93.00000000000001</ele><time>2026-05-03T08:11:52Z</time></trkpt><trkpt lat="45.46423581281696" lon="9.882561134587938"><ele>93.0</ele><time>2026-05-03T08:11:53Z</time></trkpt><trkpt lat="45.464177483604836" lon="9.882619428655342"><ele>92.66666666666667</ele><time>2026-05-03T08:11:54Z</time></trkpt><trkpt lat="45.464123753654725" lon="9.882678049717608"><ele>92.33333333333333</ele><time>2026-05-03T08:11:55Z</time></trkpt><trkpt lat="45.464030073541466" lon="9.882780956001241"><ele>92.0</ele><time>2026-05-03T08:11:57Z</time></trkpt><trkpt lat="45.46397700149049" lon="9.882831519094452"><ele>91.66666666666666</ele><time>2026-05-03T08:11:58Z</time></trkpt><trkpt lat="45.46392022572458" lon="9.88287951760289"><ele>91.33333333333333</ele><time>2026-05-03T08:11:59Z</time></trkpt><trkpt lat="45.46386078211872" lon="9.882929314713422"><ele>91.0</ele><time>2026-05-03T08:12:00Z</time></trkpt><trkpt lat="45.46373386508848" lon="9.88298220380892"><ele>91.0</ele><time>2026-05-03T08:12:02Z</time></trkpt><trkpt lat="45.463662318976596" lon="9.8829865465436"><ele>91.0</ele><time>2026-05-03T08:12:03Z</time></trkpt><trkpt lat="45.4635875428019" lon="9.883004735674593"><ele>91.0</ele><time>2026-05-03T08:12:04Z</time></trkpt><trkpt lat="45.463522231801996" lon="9.883028071323968"><ele>91.0</ele><time>2026-05-03T08:12:05Z</time></trkpt><trkpt lat="45.46345828734229" lon="9.883047245053596"><ele>91.0</ele><time>2026-05-03T08:12:06Z</time></trkpt><trkpt lat="45.46339332956651" lon="9.883068994094529"><ele>91.0</ele><time>2026-05-03T08:12:07Z</time></trkpt><trkpt lat="45.46333293127453" lon="9.883100224733965"><ele>91.0</ele><time>2026-05-03T08:12:08Z</time></trkpt><trkpt lat="45.46327337037599" lon="9.883140194991888"><ele>91.0</ele><time>2026-05-03T08:12:09Z</time></trkpt><trkpt lat="45.463215995273586" lon="9.883180888921071"><ele>91.0</ele><time>2026-05-03T08:12:10Z</time></trkpt><trkpt lat="45.463105232729106" lon="9.883255278758755"><ele>91.0</ele><time>2026-05-03T08:12:12Z</time></trkpt><trkpt lat="45.46299378799634" lon="9.883350419903914"><ele>91.0</ele><time>2026-05-03T08:12:14Z</time></trkpt><trkpt lat="45.46293457195386" lon="9.883380978229672"><ele>91.0</ele><time>2026-05-03T08:12:15Z</time></trkpt><trkpt lat="45.462875452376935" lon="9.883413184227283"><ele>91.0</ele><time>2026-05-03T08:12:16Z</time></trkpt><trkpt lat="45.462812892480756" lon="9.883427712810642"><ele>90.8</ele><time>2026-05-03T08:12:17Z</time></trkpt><trkpt lat="45.46274847406722" lon="9.88343443247429"><ele>90.6</ele><time>2026-05-03T08:12:18Z</time></trkpt><trkpt lat="45.46262737012492" lon="9.883427299000537"><ele>90.4</ele><time>2026-05-03T08:12:20Z</time></trkpt><trkpt lat="45.46252475169351" lon="9.883463931387432"><ele>90.2</ele><time>2026-05-03T08:12:22Z</time></trkpt><trkpt lat="45.46248112018189" lon="9.88356680015928"><ele>90.0</ele><time>2026-05-03T08:12:24Z</time></trkpt><trkpt lat="45.46248516566629" lon="9.88371527682911"><ele>89.66666666666667</ele><time>2026-05-03T08:12:26Z</time></trkpt><trkpt lat="45.462427164257626" lon="9.883870819581382"><ele>89.33333333333333</ele><time>2026-05-03T08:12:28Z</time></trkpt><trkpt lat="45.462387943383604" lon="9.883946124314384"><ele>89.0</ele><time>2026-05-03T08:12:29Z</time></trkpt><trkpt lat="45.46234427548531" lon="9.884014655083263"><ele>88.66666666666666</ele><time>2026-05-03T08:12:30Z</time></trkpt><trkpt lat="45.46229268922911" lon="9.884080144173966"><ele>88.33333333333333</ele><time>2026-05-03T08:12:31Z</time></trkpt><trkpt lat="45.46223838086288" lon="9.884145440782659"><ele>88.0</ele><time>2026-05-03T08:12:32Z</time></trkpt><trkpt lat="45.462178602132305" lon="9.884201571089264"><ele>88.0</ele><time>2026-05-03T08:12:33Z</time></trkpt><trkpt lat="45.4621195559513" lon="9.884253011081366"><ele>88.0</ele><time>2026-05-03T08:12:34Z</time></trkpt><trkpt lat="45.46206284258768" lon="9.884307635103303"><ele>88.0</ele><time>2026-05-03T08:12:35Z</time></trkpt><trkpt lat="45.462015627645314" lon="9.884379682859873"><ele>88.0</ele><time>2026-05-03T08:12:36Z</time></trkpt><trkpt lat="45.461982154884375" lon="9.884461102632546"><ele>88.0</ele><time>2026-05-03T08:12:37Z</time></trkpt><trkpt lat="45.46196582103334" lon="9.884553261204783"><ele>88.0</ele><time>2026-05-03T08:12:38Z</time></trkpt><trkpt lat="45.46191979707388" lon="9.88470603085922"><ele>88.4</ele><time>2026-05-03T08:12:40Z</time></trkpt><trkpt lat="45.46186355731757" lon="9.884859703430878"><ele>88.80000000000001</ele><time>2026-05-03T08:12:42Z</time></trkpt><trkpt lat="45.461821006711666" lon="9.885022831239372"><ele>89.2</ele><time>2026-05-03T08:12:44Z</time></trkpt><trkpt lat="45.46182253137617" lon="9.885118243829965"><ele>89.6</ele><time>2026-05-03T08:12:45Z</time></trkpt><trkpt lat="45.46183845090434" lon="9.885292271942733"><ele>90.0</ele><time>2026-05-03T08:12:47Z</time></trkpt><trkpt lat="45.46186307133159" lon="9.88545775568879"><ele>90.0</ele><time>2026-05-03T08:12:49Z</time></trkpt><trkpt lat="45.46189804863294" lon="9.885607618996591"><ele>90.0</ele><time>2026-05-03T08:12:51Z</time></trkpt><trkpt lat="45.46194294028754" lon="9.88575804390319"><ele>90.0</ele><time>2026-05-03T08:12:53Z</time></trkpt><trkpt lat="45.46198981654115" lon="9.885910542472514"><ele>90.0</ele><time>2026-05-03T08:12:55Z</time></trkpt><trkpt lat="45.462030079107926" lon="9.886074297407836"><ele>90.25</ele><time>2026-05-03T08:12:57Z</time></trkpt><trkpt lat="45.46207013415315" lon="9.886239466086103"><ele>90.5</ele><time>2026-05-03T08:12:59Z</time></trkpt><trkpt lat="45.46209976778058" lon="9.88640952290988"><ele>90.75</ele><time>2026-05-03T08:13:01Z</time></trkpt><trkpt lat="45.46211699394022" lon="9.88658524195901"><ele>91.0</ele><time>2026-05-03T08:13:03Z</time></trkpt><trkpt lat="45.4621418140342" lon="9.88675555395617"><ele>91.0</ele><time>2026-05-03T08:13:05Z</time></trkpt><trkpt lat="45.46215184913012" lon="9.886924966107431"><ele>91.0</ele><time>2026-05-03T08:13:07Z</time></trkpt><trkpt lat="45.46213901744119" lon="9.887014209334025"><ele>91.0</ele><time>2026-05-03T08:13:08Z</time></trkpt><trkpt lat="45.462073846163634" lon="9.887157730552216"><ele>91.0</ele><time>2026-05-03T08:13:10Z</time></trkpt><trkpt lat="45.46195364017234" lon="9.887207981192706"><ele>91.0</ele><time>2026-05-03T08:13:12Z</time></trkpt><trkpt lat="45.4618398950519" lon="9.887277419341643"><ele>91.0</ele><time>2026-05-03T08:13:14Z</time></trkpt><trkpt lat="45.46179525189323" lon="9.887343696865804"><ele>91.0</ele><time>2026-05-03T08:13:15Z</time></trkpt><trkpt lat="45.46175328889366" lon="9.887411119502717"><ele>91.0</ele><time>2026-05-03T08:13:16Z</time></trkpt><trkpt lat="45.46170773564399" lon="9.887482173192634"><ele>91.0</ele><time>2026-05-03T08:13:17Z</time></trkpt><trkpt lat="45.46161842456227" lon="9.887595958896801"><ele>91.0</ele><time>2026-05-03T08:13:19Z</time></trkpt><trkpt lat="45.46151115384741" lon="9.887694781267028"><ele>91.0</ele><time>2026-05-03T08:13:21Z</time></trkpt><trkpt lat="45.461455133399866" lon="9.887738992089467"><ele>91.0</ele><time>2026-05-03T08:13:22Z</time></trkpt><trkpt lat="45.46134028212858" lon="9.887800234856197"><ele>91.0</ele><time>2026-05-03T08:13:24Z</time></trkpt><trkpt lat="45.46128114658524" lon="9.887832772497271"><ele>91.0</ele><time>2026-05-03T08:13:25Z</time></trkpt><trkpt lat="45.461218255805676" lon="9.887860079672228"><ele>91.0</ele><time>2026-05-03T08:13:26Z</time></trkpt><trkpt lat="45.46115799208922" lon="9.887892656793355"><ele>91.0</ele><time>2026-05-03T08:13:27Z</time></trkpt><trkpt lat="45.461049180869146" lon="9.88796396574104"><ele>91.0</ele><time>2026-05-03T08:13:29Z</time></trkpt><trkpt lat="45.4609590810187" lon="9.888074159400487"><ele>90.66666666666666</ele><time>2026-05-03T08:13:31Z</time></trkpt><trkpt lat="45.46089954372318" lon="9.888228773852276"><ele>90.33333333333333</ele><time>2026-05-03T08:13:33Z</time></trkpt><trkpt lat="45.46086504428645" lon="9.888305360646047"><ele>90.0</ele><time>2026-05-03T08:13:34Z</time></trkpt><trkpt lat="45.46083200298022" lon="9.888382970955876"><ele>89.66666666666667</ele><time>2026-05-03T08:13:35Z</time></trkpt><trkpt lat="45.46080261099363" lon="9.888464085432675"><ele>89.33333333333334</ele><time>2026-05-03T08:13:36Z</time></trkpt><trkpt lat="45.46074324234116" lon="9.888609620938217"><ele>89.0</ele><time>2026-05-03T08:13:38Z</time></trkpt><trkpt lat="45.46067759912075" lon="9.888756061335798"><ele>89.0</ele><time>2026-05-03T08:13:40Z</time></trkpt><trkpt lat="45.4606173492885" lon="9.888897974192853"><ele>89.0</ele><time>2026-05-03T08:13:42Z</time></trkpt><trkpt lat="45.460550887620286" lon="9.889028836268686"><ele>89.0</ele><time>2026-05-03T08:13:44Z</time></trkpt><trkpt lat="45.46049225557925" lon="9.88916807898468"><ele>89.0</ele><time>2026-05-03T08:13:46Z</time></trkpt><trkpt lat="45.46042987445118" lon="9.889296742809753"><ele>89.4</ele><time>2026-05-03T08:13:48Z</time></trkpt><trkpt lat="45.46038842368026" lon="9.889418221298198"><ele>89.80000000000001</ele><time>2026-05-03T08:13:50Z</time></trkpt><trkpt lat="45.46035805752771" lon="9.889540467811326"><ele>90.19999999999999</ele><time>2026-05-03T08:13:52Z</time></trkpt><trkpt lat="45.4603162684894" lon="9.889648214906137"><ele>90.6</ele><time>2026-05-03T08:13:54Z</time></trkpt><trkpt lat="45.46028085166867" lon="9.889754837680897"><ele>91.0</ele><time>2026-05-03T08:13:56Z</time></trkpt><trkpt lat="45.460256964315654" lon="9.88988831293447"><ele>91.0</ele><time>2026-05-03T08:13:58Z</time></trkpt><trkpt lat="45.46025792910776" lon="9.890021861639928"><ele>91.0</ele><time>2026-05-03T08:14:00Z</time></trkpt><trkpt lat="45.46020351444993" lon="9.890092755445096"><ele>91.0</ele><time>2026-05-03T08:14:02Z</time></trkpt><trkpt lat="45.46010976141417" lon="9.890068773549878"><ele>91.0</ele><time>2026-05-03T08:14:04Z</time></trkpt><trkpt lat="45.46001263436395" lon="9.890061516084675"><ele>91.0</ele><time>2026-05-03T08:14:06Z</time></trkpt><trkpt lat="45.45989962673285" lon="9.89006411613473"><ele>91.0</ele><time>2026-05-03T08:14:08Z</time></trkpt><trkpt lat="45.45978128407399" lon="9.890087221830674"><ele>91.0</ele><time>2026-05-03T08:14:10Z</time></trkpt><trkpt lat="45.45967845291798" lon="9.890138806734294"><ele>91.0</ele><time>2026-05-03T08:14:12Z</time></trkpt><trkpt lat="45.45957771350648" lon="9.890235631693162"><ele>91.0</ele><time>2026-05-03T08:14:14Z</time></trkpt><trkpt lat="45.459492231373254" lon="9.89035394366289"><ele>91.6</ele><time>2026-05-03T08:14:16Z</time></trkpt><trkpt lat="45.459418430841325" lon="9.890474120856119"><ele>92.19999999999999</ele><time>2026-05-03T08:14:18Z</time></trkpt><trkpt lat="45.459323245747484" lon="9.89057598533346"><ele>92.80000000000001</ele><time>2026-05-03T08:14:20Z</time></trkpt><trkpt lat="45.459234910338054" lon="9.890676261817749"><ele>93.4</ele><time>2026-05-03T08:14:22Z</time></trkpt><trkpt lat="45.45915697643557" lon="9.890719696517072"><ele>94.0</ele><time>2026-05-03T08:14:24Z</time></trkpt><trkpt lat="45.4590552134747" lon="9.890746513691498"><ele>94.0</ele><time>2026-05-03T08:14:26Z</time></trkpt><trkpt lat="45.45893621204921" lon="9.890793835342595"><ele>94.0</ele><time>2026-05-03T08:14:28Z</time></trkpt><trkpt lat="45.45887012335178" lon="9.890833372674074"><ele>94.0</ele><time>2026-05-03T08:14:29Z</time></trkpt><trkpt lat="45.45880292993757" lon="9.890859855692876"><ele>94.0</ele><time>2026-05-03T08:14:30Z</time></trkpt><trkpt lat="45.45868738863029" lon="9.890851786620056"><ele>94.0</ele><time>2026-05-03T08:14:32Z</time></trkpt><trkpt lat="45.45862003928839" lon="9.890832170369862"><ele>94.0</ele><time>2026-05-03T08:14:33Z</time></trkpt><trkpt lat="45.458558377889744" lon="9.890799902662982"><ele>93.5</ele><time>2026-05-03T08:14:34Z</time></trkpt><trkpt lat="45.45844756798226" lon="9.890719782231253"><ele>93.0</ele><time>2026-05-03T08:14:36Z</time></trkpt><trkpt lat="45.45834588401962" lon="9.890648760958177"><ele>92.5</ele><time>2026-05-03T08:14:38Z</time></trkpt><trkpt lat="45.45828407115921" lon="9.890622031737125"><ele>92.0</ele><time>2026-05-03T08:14:39Z</time></trkpt><trkpt lat="45.45822094247268" lon="9.890603657522124"><ele>91.5</ele><time>2026-05-03T08:14:40Z</time></trkpt><trkpt lat="45.458156775569236" lon="9.89060006302966"><ele>91.0</ele><time>2026-05-03T08:14:41Z</time></trkpt><trkpt lat="45.458088077016335" lon="9.890599769305451"><ele>91.0</ele><time>2026-05-03T08:14:42Z</time></trkpt><trkpt lat="45.45796540107672" lon="9.890608280394927"><ele>91.0</ele><time>2026-05-03T08:14:44Z</time></trkpt><trkpt lat="45.45789077181856" lon="9.890616384991425"><ele>91.0</ele><time>2026-05-03T08:14:45Z</time></trkpt><trkpt lat="45.457827594619125" lon="9.890615429203208"><ele>91.0</ele><time>2026-05-03T08:14:46Z</time></trkpt><trkpt lat="45.45776540642578" lon="9.890595071382128"><ele>91.0</ele><time>2026-05-03T08:14:47Z</time></trkpt><trkpt lat="45.45769978627869" lon="9.890564048802547"><ele>91.0</ele><time>2026-05-03T08:14:48Z</time></trkpt><trkpt lat="45.457643031102535" lon="9.890524623764481"><ele>90.6</ele><time>2026-05-03T08:14:49Z</time></trkpt><trkpt lat="45.457588458465764" lon="9.890476284477847"><ele>90.19999999999999</ele><time>2026-05-03T08:14:50Z</time></trkpt><trkpt lat="45.4575274019375" lon="9.890357215559819"><ele>89.80000000000001</ele><time>2026-05-03T08:14:52Z</time></trkpt><trkpt lat="45.45745706664041" lon="9.890218614362354"><ele>89.4</ele><time>2026-05-03T08:14:54Z</time></trkpt><trkpt lat="45.45735897171383" lon="9.890113553526437"><ele>89.0</ele><time>2026-05-03T08:14:56Z</time></trkpt><trkpt lat="45.45729963423398" lon="9.890078750655636"><ele>88.66666666666667</ele><time>2026-05-03T08:14:57Z</time></trkpt><trkpt lat="45.4572479195411" lon="9.89002531215504"><ele>88.33333333333334</ele><time>2026-05-03T08:14:58Z</time></trkpt><trkpt lat="45.4571860297156" lon="9.889979167190319"><ele>88.0</ele><time>2026-05-03T08:14:59Z</time></trkpt><trkpt lat="45.45712471847274" lon="9.889934969618306"><ele>87.66666666666667</ele><time>2026-05-03T08:15:00Z</time></trkpt><trkpt lat="45.457065009103275" lon="9.889890929790456"><ele>87.33333333333333</ele><time>2026-05-03T08:15:01Z</time></trkpt><trkpt lat="45.45696216616789" lon="9.889822747211307"><ele>87.0</ele><time>2026-05-03T08:15:03Z</time></trkpt><trkpt lat="45.4568696884665" lon="9.889761798264516"><ele>86.8</ele><time>2026-05-03T08:15:05Z</time></trkpt><trkpt lat="45.456765563725234" lon="9.88968960199923"><ele>86.6</ele><time>2026-05-03T08:15:07Z</time></trkpt><trkpt lat="45.45670564128195" lon="9.88965801177326"><ele>86.39999999999999</ele><time>2026-05-03T08:15:08Z</time></trkpt><trkpt lat="45.45659969555433" lon="9.889603475919705"><ele>86.19999999999999</ele><time>2026-05-03T08:15:10Z</time></trkpt><trkpt lat="45.45648697426609" lon="9.88955980065081"><ele>86.0</ele><time>2026-05-03T08:15:12Z</time></trkpt><trkpt lat="45.45642297700144" lon="9.889533463757818"><ele>86.0</ele><time>2026-05-03T08:15:13Z</time></trkpt><trkpt lat="45.456328375248205" lon="9.88950674351592"><ele>86.0</ele><time>2026-05-03T08:15:15Z</time></trkpt><trkpt lat="45.456265568511576" lon="9.889493552731363"><ele>86.0</ele><time>2026-05-03T08:15:16Z</time></trkpt><trkpt lat="45.4561350378031" lon="9.889453664817099"><ele>86.0</ele><time>2026-05-03T08:15:18Z</time></trkpt><trkpt lat="45.45600602649427" lon="9.889451632379453"><ele>86.0</ele><time>2026-05-03T08:15:20Z</time></trkpt><trkpt lat="45.45589400495819" lon="9.889451854177418"><ele>86.0</ele><time>2026-05-03T08:15:22Z</time></trkpt><trkpt lat="45.45580501565727" lon="9.88946990587192"><ele>86.0</ele><time>2026-05-03T08:15:24Z</time></trkpt><trkpt lat="45.45573239993843" lon="9.889474236722256"><ele>86.0</ele><time>2026-05-03T08:15:25Z</time></trkpt><trkpt lat="45.4556565426813" lon="9.889484954092572"><ele>86.0</ele><time>2026-05-03T08:15:26Z</time></trkpt><trkpt lat="45.45558301172181" lon="9.889480944447843"><ele>86.0</ele><time>2026-05-03T08:15:27Z</time></trkpt><trkpt lat="45.45548321018006" lon="9.889488518102553"><ele>86.0</ele><time>2026-05-03T08:15:29Z</time></trkpt><trkpt lat="45.45539803168623" lon="9.889520044853844"><ele>86.0</ele><time>2026-05-03T08:15:31Z</time></trkpt><trkpt lat="45.45533582132012" lon="9.889554689574142"><ele>86.0</ele><time>2026-05-03T08:15:33Z</time></trkpt><trkpt lat="45.455225953147085" lon="9.889569980199854"><ele>86.0</ele><time>2026-05-03T08:15:34.999Z</time></trkpt><trkpt lat="45.45514649105316" lon="9.889612603008166"><ele>86.0</ele><time>2026-05-03T08:15:35.999Z</time></trkpt><trkpt lat="45.45508499911748" lon="9.889649299973922"><ele>86.0</ele><time>2026-05-03T08:15:36.999Z</time></trkpt><trkpt lat="45.45502195501691" lon="9.889690793794406"><ele>86.0</ele><time>2026-05-03T08:15:37.999Z</time></trkpt><trkpt lat="45.45491777826512" lon="9.889767943269858"><ele>86.0</ele><time>2026-05-03T08:15:39.999Z</time></trkpt><trkpt lat="45.45484228886678" lon="9.889845190354325"><ele>86.0</ele><time>2026-05-03T08:15:41.999Z</time></trkpt><trkpt lat="45.4547791283605" lon="9.889890417629497"><ele>86.0</ele><time>2026-05-03T08:15:44Z</time></trkpt><trkpt lat="45.45467383892297" lon="9.88996895075026"><ele>86.0</ele><time>2026-05-03T08:15:46Z</time></trkpt><trkpt lat="45.454585653468726" lon="9.889989142019777"><ele>86.0</ele><time>2026-05-03T08:15:48Z</time></trkpt><trkpt lat="45.45445482459085" lon="9.890002553442889"><ele>85.83333333333334</ele><time>2026-05-03T08:15:50Z</time></trkpt><trkpt lat="45.45438506207871" lon="9.89001674630244"><ele>85.66666666666667</ele><time>2026-05-03T08:15:51Z</time></trkpt><trkpt lat="45.45427049142311" lon="9.890055984713358"><ele>85.5</ele><time>2026-05-03T08:15:53Z</time></trkpt><trkpt lat="45.45417908112061" lon="9.890115530459825"><ele>85.33333333333333</ele><time>2026-05-03T08:15:55Z</time></trkpt><trkpt lat="45.454111860041614" lon="9.890114460076518"><ele>85.16666666666666</ele><time>2026-05-03T08:15:57Z</time></trkpt><trkpt lat="45.4540468076272" lon="9.890104248433696"><ele>85.0</ele><time>2026-05-03T08:15:59Z</time></trkpt><trkpt lat="45.45397506222017" lon="9.890116818466444"><ele>85.0</ele><time>2026-05-03T08:16:01Z</time></trkpt><trkpt lat="45.453882855651045" lon="9.89012997937614"><ele>85.0</ele><time>2026-05-03T08:16:03Z</time></trkpt><trkpt lat="45.453767691571024" lon="9.890149293703447"><ele>85.0</ele><time>2026-05-03T08:16:05Z</time></trkpt><trkpt lat="45.453648715321776" lon="9.890188587517518"><ele>85.0</ele><time>2026-05-03T08:16:07Z</time></trkpt><trkpt lat="45.45358404982716" lon="9.89022177168524"><ele>85.0</ele><time>2026-05-03T08:16:08Z</time></trkpt><trkpt lat="45.45351931585272" lon="9.890260114733575"><ele>85.14285714285715</ele><time>2026-05-03T08:16:09Z</time></trkpt><trkpt lat="45.45345460869104" lon="9.890290370264678"><ele>85.28571428571428</ele><time>2026-05-03T08:16:10Z</time></trkpt><trkpt lat="45.453394229894826" lon="9.890317120508572"><ele>85.42857142857143</ele><time>2026-05-03T08:16:11Z</time></trkpt><trkpt lat="45.45333036407499" lon="9.890349634822309"><ele>85.57142857142858</ele><time>2026-05-03T08:16:12Z</time></trkpt><trkpt lat="45.45327119357879" lon="9.890390190379597"><ele>85.71428571428572</ele><time>2026-05-03T08:16:13Z</time></trkpt><trkpt lat="45.45321072400383" lon="9.890436589803468"><ele>85.85714285714286</ele><time>2026-05-03T08:16:14Z</time></trkpt><trkpt lat="45.4531520646571" lon="9.8904841444927"><ele>86.0</ele><time>2026-05-03T08:16:15Z</time></trkpt><trkpt lat="45.453043320163744" lon="9.890563748762684"><ele>86.00000000000001</ele><time>2026-05-03T08:16:17Z</time></trkpt><trkpt lat="45.45294157950767" lon="9.890656459801813"><ele>86.0</ele><time>2026-05-03T08:16:19Z</time></trkpt><trkpt lat="45.452885586054784" lon="9.890704249610392"><ele>86.0</ele><time>2026-05-03T08:16:20Z</time></trkpt><trkpt lat="45.45283150357982" lon="9.890755395604259"><ele>86.0</ele><time>2026-05-03T08:16:21Z</time></trkpt><trkpt lat="45.4527729376077" lon="9.89079896587293"><ele>86.0</ele><time>2026-05-03T08:16:22Z</time></trkpt><trkpt lat="45.45271093001032" lon="9.890834358226142"><ele>86.00000000000001</ele><time>2026-05-03T08:16:23Z</time></trkpt><trkpt lat="45.452652503430215" lon="9.890870778433213"><ele>86.0</ele><time>2026-05-03T08:16:24Z</time></trkpt><trkpt lat="45.45255636188908" lon="9.890951496934266"><ele>86.19999999999999</ele><time>2026-05-03T08:16:26Z</time></trkpt><trkpt lat="45.45245823427247" lon="9.891006057304887"><ele>86.39999999999999</ele><time>2026-05-03T08:16:28Z</time></trkpt><trkpt lat="45.452350113570645" lon="9.891047676107496"><ele>86.6</ele><time>2026-05-03T08:16:30Z</time></trkpt><trkpt lat="45.45228259909987" lon="9.891063220264128"><ele>86.8</ele><time>2026-05-03T08:16:31Z</time></trkpt><trkpt lat="45.452219908375305" lon="9.891075667950169"><ele>87.0</ele><time>2026-05-03T08:16:32Z</time></trkpt><trkpt lat="45.45210232864662" lon="9.8910869291645"><ele>87.0</ele><time>2026-05-03T08:16:34Z</time></trkpt><trkpt lat="45.45203940759724" lon="9.891099705170076"><ele>87.0</ele><time>2026-05-03T08:16:35Z</time></trkpt><trkpt lat="45.451922053558775" lon="9.891111457147387"><ele>87.0</ele><time>2026-05-03T08:16:37Z</time></trkpt><trkpt lat="45.451818797975555" lon="9.891112206142504"><ele>87.0</ele><time>2026-05-03T08:16:39Z</time></trkpt><trkpt lat="45.45169634790017" lon="9.891084041096772"><ele>87.0</ele><time>2026-05-03T08:16:41Z</time></trkpt><trkpt lat="45.45157705363069" lon="9.891075170721399"><ele>87.0</ele><time>2026-05-03T08:16:43Z</time></trkpt><trkpt lat="45.451461623351804" lon="9.891066825589748"><ele>87.0</ele><time>2026-05-03T08:16:45Z</time></trkpt><trkpt lat="45.451337570284956" lon="9.8910386755704"><ele>87.0</ele><time>2026-05-03T08:16:47Z</time></trkpt><trkpt lat="45.4512759744145" lon="9.891006369586897"><ele>87.0</ele><time>2026-05-03T08:16:48Z</time></trkpt><trkpt lat="45.451219221356766" lon="9.890966076552568"><ele>87.0</ele><time>2026-05-03T08:16:49Z</time></trkpt><trkpt lat="45.45111439893464" lon="9.890891587053723"><ele>86.8</ele><time>2026-05-03T08:16:51Z</time></trkpt><trkpt lat="45.451021876823994" lon="9.890793114884824"><ele>86.6</ele><time>2026-05-03T08:16:53Z</time></trkpt><trkpt lat="45.45090769342788" lon="9.890702511082516"><ele>86.39999999999999</ele><time>2026-05-03T08:16:55Z</time></trkpt><trkpt lat="45.450846604750616" lon="9.89065454271525"><ele>86.19999999999999</ele><time>2026-05-03T08:16:56Z</time></trkpt><trkpt lat="45.450787100577" lon="9.890599034642843"><ele>86.0</ele><time>2026-05-03T08:16:57Z</time></trkpt><trkpt lat="45.450729576356935" lon="9.890549022997792"><ele>86.0</ele><time>2026-05-03T08:16:58Z</time></trkpt><trkpt lat="45.450673379091455" lon="9.890499138855544"><ele>86.0</ele><time>2026-05-03T08:16:59Z</time></trkpt><trkpt lat="45.450622653705864" lon="9.890443481977185"><ele>86.0</ele><time>2026-05-03T08:17:00Z</time></trkpt><trkpt lat="45.45057448769586" lon="9.89038470943367"><ele>86.0</ele><time>2026-05-03T08:17:01Z</time></trkpt><trkpt lat="45.45052691378319" lon="9.89031719580086"><ele>86.0</ele><time>2026-05-03T08:17:02Z</time></trkpt><trkpt lat="45.45044077870991" lon="9.890181479963093"><ele>86.0</ele><time>2026-05-03T08:17:04Z</time></trkpt><trkpt lat="45.4503994830207" lon="9.890107326834652"><ele>85.6</ele><time>2026-05-03T08:17:05Z</time></trkpt><trkpt lat="45.45033902025067" lon="9.88995288382219"><ele>85.19999999999999</ele><time>2026-05-03T08:17:07Z</time></trkpt><trkpt lat="45.45031686087602" lon="9.889863475549072"><ele>84.80000000000001</ele><time>2026-05-03T08:17:08Z</time></trkpt><trkpt lat="45.45029545043114" lon="9.88977500416585"><ele>84.4</ele><time>2026-05-03T08:17:09Z</time></trkpt><trkpt lat="45.45026268139478" lon="9.889621208979127"><ele>84.0</ele><time>2026-05-03T08:17:11Z</time></trkpt><trkpt lat="45.45021745142077" lon="9.889489318568433"><ele>84.0</ele><time>2026-05-03T08:17:13Z</time></trkpt><trkpt lat="45.45016556970776" lon="9.88934320800451"><ele>84.0</ele><time>2026-05-03T08:17:15Z</time></trkpt><trkpt lat="45.45013432792564" lon="9.889261854753217"><ele>84.0</ele><time>2026-05-03T08:17:16Z</time></trkpt><trkpt lat="45.450058024227914" lon="9.889134329135175"><ele>84.0</ele><time>2026-05-03T08:17:18Z</time></trkpt><trkpt lat="45.45001420396894" lon="9.889066645553486"><ele>84.0</ele><time>2026-05-03T08:17:19Z</time></trkpt><trkpt lat="45.449920358176264" lon="9.888967684238699"><ele>84.0</ele><time>2026-05-03T08:17:21Z</time></trkpt><trkpt lat="45.449859947411255" lon="9.888937740073834"><ele>84.0</ele><time>2026-05-03T08:17:22Z</time></trkpt><trkpt lat="45.44974678796828" lon="9.888900451906336"><ele>84.0</ele><time>2026-05-03T08:17:24Z</time></trkpt><trkpt lat="45.449626274099195" lon="9.8888465049701"><ele>84.0</ele><time>2026-05-03T08:17:26Z</time></trkpt><trkpt lat="45.44951008748516" lon="9.888792368935384"><ele>84.0</ele><time>2026-05-03T08:17:28Z</time></trkpt><trkpt lat="45.449414744617435" lon="9.888735738265016"><ele>84.0</ele><time>2026-05-03T08:17:30Z</time></trkpt><trkpt lat="45.44932353048897" lon="9.88868995897325"><ele>84.0</ele><time>2026-05-03T08:17:32Z</time></trkpt><trkpt lat="45.44922397276097" lon="9.888646957560754"><ele>84.0</ele><time>2026-05-03T08:17:34Z</time></trkpt><trkpt lat="45.44910567646162" lon="9.88860840924794"><ele>84.0</ele><time>2026-05-03T08:17:36Z</time></trkpt><trkpt lat="45.448989838869124" lon="9.888553656797983"><ele>84.0</ele><time>2026-05-03T08:17:38Z</time></trkpt><trkpt lat="45.44892879597342" lon="9.888528869014419"><ele>84.0</ele><time>2026-05-03T08:17:39Z</time></trkpt><trkpt lat="45.4488144792051" lon="9.888478424685465"><ele>84.0</ele><time>2026-05-03T08:17:41Z</time></trkpt><trkpt lat="45.44869035943184" lon="9.888444187347323"><ele>84.0</ele><time>2026-05-03T08:17:43Z</time></trkpt><trkpt lat="45.44857117924403" lon="9.888400920496206"><ele>84.0</ele><time>2026-05-03T08:17:45Z</time></trkpt><trkpt lat="45.44845134710642" lon="9.888363118760596"><ele>84.0</ele><time>2026-05-03T08:17:47Z</time></trkpt><trkpt lat="45.44839054725267" lon="9.888336487467917"><ele>84.0</ele><time>2026-05-03T08:17:48Z</time></trkpt><trkpt lat="45.448273349935235" lon="9.888303680604466"><ele>84.0</ele><time>2026-05-03T08:17:50Z</time></trkpt><trkpt lat="45.44814772875251" lon="9.888295417331632"><ele>84.0</ele><time>2026-05-03T08:17:52Z</time></trkpt><trkpt lat="45.448025733870274" lon="9.888278811893715"><ele>84.0</ele><time>2026-05-03T08:17:54Z</time></trkpt><trkpt lat="45.44790406210904" lon="9.888260991417978"><ele>84.0</ele><time>2026-05-03T08:17:56Z</time></trkpt><trkpt lat="45.447782551676546" lon="9.888243448921418"><ele>84.0</ele><time>2026-05-03T08:17:58Z</time></trkpt><trkpt lat="45.447719268329095" lon="9.888227670951844"><ele>84.0</ele><time>2026-05-03T08:17:59Z</time></trkpt><trkpt lat="45.44765522572061" lon="9.888211120744415"><ele>84.0</ele><time>2026-05-03T08:18:00Z</time></trkpt><trkpt lat="45.44759273100431" lon="9.888187013779103"><ele>84.0</ele><time>2026-05-03T08:18:01Z</time></trkpt><trkpt lat="45.447481601503256" lon="9.88813670002784"><ele>84.0</ele><time>2026-05-03T08:18:03Z</time></trkpt><trkpt lat="45.44738543584059" lon="9.888124892982253"><ele>84.0</ele><time>2026-05-03T08:18:05Z</time></trkpt><trkpt lat="45.44729771066557" lon="9.888177454904476"><ele>84.0</ele><time>2026-05-03T08:18:07Z</time></trkpt><trkpt lat="45.447225329149454" lon="9.888247493946874"><ele>84.0</ele><time>2026-05-03T08:18:09Z</time></trkpt><trkpt lat="45.44712996251889" lon="9.888333045691445"><ele>84.0</ele><time>2026-05-03T08:18:11Z</time></trkpt><trkpt lat="45.44702000690606" lon="9.88841112102346"><ele>84.0</ele><time>2026-05-03T08:18:13Z</time></trkpt><trkpt lat="45.44691373956873" lon="9.888446224338688"><ele>83.4</ele><time>2026-05-03T08:18:15Z</time></trkpt><trkpt lat="45.44680141537033" lon="9.888442786395998"><ele>82.80000000000001</ele><time>2026-05-03T08:18:17Z</time></trkpt><trkpt lat="45.446687263141186" lon="9.888503673583886"><ele>82.19999999999999</ele><time>2026-05-03T08:18:19Z</time></trkpt><trkpt lat="45.44656920142441" lon="9.88857313288624"><ele>81.6</ele><time>2026-05-03T08:18:21Z</time></trkpt><trkpt lat="45.44650184999773" lon="9.888578478666775"><ele>81.0</ele><time>2026-05-03T08:18:22Z</time></trkpt><trkpt lat="45.44638125293126" lon="9.88857748739462"><ele>80.75</ele><time>2026-05-03T08:18:24Z</time></trkpt><trkpt lat="45.446271818620815" lon="9.888601942489592"><ele>80.5</ele><time>2026-05-03T08:18:26Z</time></trkpt><trkpt lat="45.44616138663949" lon="9.888645754918944"><ele>80.25</ele><time>2026-05-03T08:18:28Z</time></trkpt><trkpt lat="45.44605222898078" lon="9.888670922408824"><ele>80.0</ele><time>2026-05-03T08:18:30Z</time></trkpt><trkpt lat="45.44593322537688" lon="9.888683806475727"><ele>80.0</ele><time>2026-05-03T08:18:32Z</time></trkpt><trkpt lat="45.445808949786944" lon="9.888669155357645"><ele>80.0</ele><time>2026-05-03T08:18:34Z</time></trkpt><trkpt lat="45.44569335481267" lon="9.888666520667886"><ele>80.0</ele><time>2026-05-03T08:18:36Z</time></trkpt><trkpt lat="45.44560328744759" lon="9.888666093309142"><ele>80.0</ele><time>2026-05-03T08:18:38Z</time></trkpt><trkpt lat="45.445534224176996" lon="9.888632434352036"><ele>80.0</ele><time>2026-05-03T08:18:40Z</time></trkpt><trkpt lat="45.445457857474004" lon="9.888663366144025"><ele>80.33333333333334</ele><time>2026-05-03T08:18:42Z</time></trkpt><trkpt lat="45.445381528271135" lon="9.888671401913035"><ele>80.66666666666667</ele><time>2026-05-03T08:18:44Z</time></trkpt><trkpt lat="45.445281312138604" lon="9.888720881945025"><ele>81.0</ele><time>2026-05-03T08:18:46Z</time></trkpt><trkpt lat="45.44519890770937" lon="9.888783069774473"><ele>81.33333333333333</ele><time>2026-05-03T08:18:48Z</time></trkpt><trkpt lat="45.44511632681561" lon="9.888811620014254"><ele>81.66666666666666</ele><time>2026-05-03T08:18:50Z</time></trkpt><trkpt lat="45.445030813291346" lon="9.888798934422557"><ele>82.0</ele><time>2026-05-03T08:18:52Z</time></trkpt><trkpt lat="45.444950612686696" lon="9.88878442488594"><ele>82.0</ele><time>2026-05-03T08:18:54Z</time></trkpt><trkpt lat="45.444847283435486" lon="9.888783795479396"><ele>82.0</ele><time>2026-05-03T08:18:56Z</time></trkpt><trkpt lat="45.444768547285214" lon="9.888709286637988"><ele>82.0</ele><time>2026-05-03T08:18:58Z</time></trkpt><trkpt lat="45.444613502821376" lon="9.888657314807771"><ele>82.0</ele><time>2026-05-03T08:19:01Z</time></trkpt><trkpt lat="45.44454356932953" lon="9.888547394013775"><ele>82.16666666666666</ele><time>2026-05-03T08:19:03Z</time></trkpt><trkpt lat="45.444472093387226" lon="9.888517603846863"><ele>82.33333333333333</ele><time>2026-05-03T08:19:05Z</time></trkpt><trkpt lat="45.44440026012754" lon="9.88854801282797"><ele>82.5</ele><time>2026-05-03T08:19:07Z</time></trkpt><trkpt lat="45.44431536849301" lon="9.888541993520722"><ele>82.66666666666667</ele><time>2026-05-03T08:19:09Z</time></trkpt><trkpt lat="45.44421692907503" lon="9.888577946201611"><ele>82.83333333333334</ele><time>2026-05-03T08:19:11Z</time></trkpt><trkpt lat="45.44413503488058" lon="9.888604570341627"><ele>83.0</ele><time>2026-05-03T08:19:13Z</time></trkpt><trkpt lat="45.444065215305336" lon="9.888676042194698"><ele>83.0</ele><time>2026-05-03T08:19:15Z</time></trkpt><trkpt lat="45.44400217702726" lon="9.888652084713257"><ele>83.0</ele><time>2026-05-03T08:19:17Z</time></trkpt><trkpt lat="45.44396902812916" lon="9.888538644324278"><ele>83.0</ele><time>2026-05-03T08:19:19Z</time></trkpt><trkpt lat="45.443941277630834" lon="9.888397058051174"><ele>83.0</ele><time>2026-05-03T08:19:21Z</time></trkpt><trkpt lat="45.44386755959859" lon="9.888321302216118"><ele>83.0</ele><time>2026-05-03T08:19:23Z</time></trkpt><trkpt lat="45.44375810424038" lon="9.888296734754672"><ele>83.2</ele><time>2026-05-03T08:19:25Z</time></trkpt><trkpt lat="45.44365313868575" lon="9.888276716238034"><ele>83.4</ele><time>2026-05-03T08:19:27Z</time></trkpt><trkpt lat="45.443564182510386" lon="9.8882267921082"><ele>83.60000000000001</ele><time>2026-05-03T08:19:29Z</time></trkpt><trkpt lat="45.44347158162683" lon="9.8881689878388"><ele>83.80000000000001</ele><time>2026-05-03T08:19:31Z</time></trkpt><trkpt lat="45.44340444258602" lon="9.888082699419307"><ele>84.0</ele><time>2026-05-03T08:19:33Z</time></trkpt><trkpt lat="45.44337151108396" lon="9.887987339170158"><ele>84.0</ele><time>2026-05-03T08:19:35Z</time></trkpt><trkpt lat="45.4433034091125" lon="9.88790050156978"><ele>84.0</ele><time>2026-05-03T08:19:37Z</time></trkpt><trkpt lat="45.44321494284591" lon="9.887916547481545"><ele>84.0</ele><time>2026-05-03T08:19:39Z</time></trkpt><trkpt lat="45.44315118340021" lon="9.887893435051035"><ele>84.0</ele><time>2026-05-03T08:19:42Z</time></trkpt><trkpt lat="45.44315860750227" lon="9.887798719489952"><ele>84.0</ele><time>2026-05-03T08:19:49.999Z</time></trkpt><trkpt lat="45.44311775230872" lon="9.887723308913714"><ele>84.0</ele><time>2026-05-03T08:19:52.999Z</time></trkpt><trkpt lat="45.44307820753078" lon="9.887623088246572"><ele>84.16666666666667</ele><time>2026-05-03T08:19:54.999Z</time></trkpt><trkpt lat="45.44305781350077" lon="9.887503838321146"><ele>84.33333333333333</ele><time>2026-05-03T08:19:57Z</time></trkpt><trkpt lat="45.443050710781" lon="9.887365143150266"><ele>84.5</ele><time>2026-05-03T08:19:59Z</time></trkpt><trkpt lat="45.443036849469706" lon="9.8872280969402"><ele>84.66666666666666</ele><time>2026-05-03T08:20:01Z</time></trkpt><trkpt lat="45.443076676731124" lon="9.887136978647066"><ele>84.83333333333333</ele><time>2026-05-03T08:20:03Z</time></trkpt><trkpt lat="45.44309149240517" lon="9.887032053602375"><ele>85.0</ele><time>2026-05-03T08:20:05Z</time></trkpt><trkpt lat="45.44305649698695" lon="9.886914099733438"><ele>85.0</ele><time>2026-05-03T08:20:07Z</time></trkpt><trkpt lat="45.44299266140237" lon="9.886824533359693"><ele>85.0</ele><time>2026-05-03T08:20:09Z</time></trkpt><trkpt lat="45.442904535230966" lon="9.886800532154307"><ele>85.0</ele><time>2026-05-03T08:20:11Z</time></trkpt><trkpt lat="45.44283314237666" lon="9.886741787019709"><ele>85.0</ele><time>2026-05-03T08:20:13Z</time></trkpt><trkpt lat="45.4427885074357" lon="9.8866382708105"><ele>85.0</ele><time>2026-05-03T08:20:15Z</time></trkpt><trkpt lat="45.44277910699326" lon="9.88646442014551"><ele>85.0</ele><time>2026-05-03T08:20:18Z</time></trkpt><trkpt lat="45.44277918535337" lon="9.886329228461154"><ele>85.0</ele><time>2026-05-03T08:20:20Z</time></trkpt><trkpt lat="45.442754673018044" lon="9.886225564148521"><ele>85.0</ele><time>2026-05-03T08:20:22Z</time></trkpt><trkpt lat="45.44276634749338" lon="9.88611397392678"><ele>85.0</ele><time>2026-05-03T08:20:24Z</time></trkpt><trkpt lat="45.44283046059084" lon="9.886043091249956"><ele>85.0</ele><time>2026-05-03T08:20:27Z</time></trkpt><trkpt lat="45.442846899340324" lon="9.885955567054358"><ele>85.0</ele><time>2026-05-03T08:20:29Z</time></trkpt><trkpt lat="45.44286004432507" lon="9.885815345006238"><ele>85.0</ele><time>2026-05-03T08:20:31Z</time></trkpt><trkpt lat="45.44285673762875" lon="9.885642618234417"><ele>85.0</ele><time>2026-05-03T08:20:33Z</time></trkpt><trkpt lat="45.442861987811256" lon="9.885480886129246"><ele>85.0</ele><time>2026-05-03T08:20:35Z</time></trkpt><trkpt lat="45.44284533297415" lon="9.885377982940781"><ele>85.0</ele><time>2026-05-03T08:20:37Z</time></trkpt><trkpt lat="45.44290481592398" lon="9.885294768581664"><ele>85.0</ele><time>2026-05-03T08:20:40Z</time></trkpt><trkpt lat="45.44293735505348" lon="9.885203778709577"><ele>85.0</ele><time>2026-05-03T08:20:44Z</time></trkpt><trkpt lat="45.44290909275161" lon="9.885099465722389"><ele>85.0</ele><time>2026-05-03T08:20:47Z</time></trkpt><trkpt lat="45.44283669268482" lon="9.885022559785615"><ele>85.0</ele><time>2026-05-03T08:20:49Z</time></trkpt><trkpt lat="45.44276659606866" lon="9.884927371233744"><ele>85.0</ele><time>2026-05-03T08:20:51Z</time></trkpt><trkpt lat="45.44269156123306" lon="9.88492024720254"><ele>85.0</ele><time>2026-05-03T08:20:53Z</time></trkpt><trkpt lat="45.442621173923094" lon="9.884951937024157"><ele>85.0</ele><time>2026-05-03T08:20:55Z</time></trkpt><trkpt lat="45.44254641705536" lon="9.884884827475563"><ele>85.6</ele><time>2026-05-03T08:20:57Z</time></trkpt><trkpt lat="45.442445768682155" lon="9.884847238081178"><ele>86.2</ele><time>2026-05-03T08:20:59Z</time></trkpt><trkpt lat="45.44235183933588" lon="9.884849026680863"><ele>86.80000000000001</ele><time>2026-05-03T08:21:01Z</time></trkpt><trkpt lat="45.44226937919827" lon="9.884923815527792"><ele>87.4</ele><time>2026-05-03T08:21:03Z</time></trkpt><trkpt lat="45.44219549238626" lon="9.88499874742297"><ele>88.0</ele><time>2026-05-03T08:21:05Z</time></trkpt><trkpt lat="45.44210540571372" lon="9.884997239879658"><ele>88.0</ele><time>2026-05-03T08:21:07Z</time></trkpt><trkpt lat="45.44202399906404" lon="9.884928514651621"><ele>88.0</ele><time>2026-05-03T08:21:09Z</time></trkpt><trkpt lat="45.44194304162906" lon="9.884870802270482"><ele>88.0</ele><time>2026-05-03T08:21:12Z</time></trkpt><trkpt lat="45.44184700578384" lon="9.884899437891244"><ele>88.0</ele><time>2026-05-03T08:21:14Z</time></trkpt><trkpt lat="45.44175148949972" lon="9.884942146105862"><ele>88.0</ele><time>2026-05-03T08:21:16Z</time></trkpt><trkpt lat="45.44165771724421" lon="9.884995934546373"><ele>88.0</ele><time>2026-05-03T08:21:18Z</time></trkpt><trkpt lat="45.441587981718875" lon="9.884999495859702"><ele>88.0</ele><time>2026-05-03T08:21:20Z</time></trkpt><trkpt lat="45.441496230237966" lon="9.88496360165958"><ele>88.0</ele><time>2026-05-03T08:21:22Z</time></trkpt><trkpt lat="45.441433460115135" lon="9.88497391936787"><ele>88.0</ele><time>2026-05-03T08:21:24Z</time></trkpt><trkpt lat="45.441335999927595" lon="9.884980797417493"><ele>88.0</ele><time>2026-05-03T08:21:27Z</time></trkpt><trkpt lat="45.44127776902177" lon="9.884935351530487"><ele>88.0</ele><time>2026-05-03T08:21:29Z</time></trkpt><trkpt lat="45.44119999882334" lon="9.884902107912511"><ele>87.71428571428572</ele><time>2026-05-03T08:21:32Z</time></trkpt><trkpt lat="45.44113899211497" lon="9.884862360385474"><ele>87.42857142857143</ele><time>2026-05-03T08:21:34Z</time></trkpt><trkpt lat="45.44106424448963" lon="9.884849240381273"><ele>87.14285714285714</ele><time>2026-05-03T08:21:35.999Z</time></trkpt><trkpt lat="45.44099247896167" lon="9.884855090078633"><ele>86.85714285714286</ele><time>2026-05-03T08:21:37.999Z</time></trkpt><trkpt lat="45.44092974834834" lon="9.884792476472473"><ele>86.57142857142857</ele><time>2026-05-03T08:21:40.999Z</time></trkpt><trkpt lat="45.44087087529957" lon="9.884760632873203"><ele>86.28571428571429</ele><time>2026-05-03T08:21:43.999Z</time></trkpt><trkpt lat="45.44080732662397" lon="9.884671363078294"><ele>86.0</ele><time>2026-05-03T08:21:46.999Z</time></trkpt><trkpt lat="45.44080008640732" lon="9.88458071163353"><ele>86.0</ele><time>2026-05-03T08:21:48.999Z</time></trkpt><trkpt lat="45.44081948109217" lon="9.88449110652393"><ele>86.0</ele><time>2026-05-03T08:21:52.999Z</time></trkpt><trkpt lat="45.440853827087786" lon="9.884386926671647"><ele>86.0</ele><time>2026-05-03T08:21:57.999Z</time></trkpt><trkpt lat="45.44088997678615" lon="9.884281446992976"><ele>86.0</ele><time>2026-05-03T08:22:02Z</time></trkpt><trkpt lat="45.440931367060266" lon="9.88418550638451"><ele>86.0</ele><time>2026-05-03T08:22:04Z</time></trkpt><trkpt lat="45.44092431583978" lon="9.88405598188425"><ele>86.0</ele><time>2026-05-03T08:22:06Z</time></trkpt><trkpt lat="45.44086658762529" lon="9.883963058217656"><ele>86.0</ele><time>2026-05-03T08:22:09Z</time></trkpt><trkpt lat="45.44083328265545" lon="9.883869404458006"><ele>86.0</ele><time>2026-05-03T08:22:17Z</time></trkpt><trkpt lat="45.440761651293585" lon="9.883876919754867"><ele>86.0</ele><time>2026-05-03T08:22:24Z</time></trkpt><trkpt lat="45.440683155057684" lon="9.883854967517573"><ele>86.0</ele><time>2026-05-03T08:22:28Z</time></trkpt><trkpt lat="45.440605598008716" lon="9.88385385145756"><ele>86.0</ele><time>2026-05-03T08:22:31Z</time></trkpt><trkpt lat="45.44052799910876" lon="9.883902192026518"><ele>86.0</ele><time>2026-05-03T08:22:33Z</time></trkpt><trkpt lat="45.44045642881756" lon="9.883967746430558"><ele>85.8</ele><time>2026-05-03T08:22:35Z</time></trkpt><trkpt lat="45.44038550640681" lon="9.88402883922196"><ele>85.6</ele><time>2026-05-03T08:22:37Z</time></trkpt><trkpt lat="45.44029883837912" lon="9.884096764851806"><ele>85.4</ele><time>2026-05-03T08:22:39Z</time></trkpt><trkpt lat="45.44022435511852" lon="9.884135295004901"><ele>85.2</ele><time>2026-05-03T08:22:41Z</time></trkpt><trkpt lat="45.440132225879445" lon="9.884158505231152"><ele>85.0</ele><time>2026-05-03T08:22:43Z</time></trkpt><trkpt lat="45.44002659211815" lon="9.884156872360188"><ele>85.0</ele><time>2026-05-03T08:22:45Z</time></trkpt><trkpt lat="45.43992768512258" lon="9.884146116637151"><ele>85.0</ele><time>2026-05-03T08:22:47Z</time></trkpt><trkpt lat="45.43981842060767" lon="9.884106475453203"><ele>85.0</ele><time>2026-05-03T08:22:49Z</time></trkpt><trkpt lat="45.43972229068627" lon="9.884064884858873"><ele>85.0</ele><time>2026-05-03T08:22:51Z</time></trkpt><trkpt lat="45.439631718703275" lon="9.884003895248703"><ele>85.0</ele><time>2026-05-03T08:22:53Z</time></trkpt><trkpt lat="45.43954539326746" lon="9.883951217440782"><ele>84.6</ele><time>2026-05-03T08:22:55Z</time></trkpt><trkpt lat="45.439458568124934" lon="9.883907172414444"><ele>84.2</ele><time>2026-05-03T08:22:57Z</time></trkpt><trkpt lat="45.439363804310794" lon="9.883868939407591"><ele>83.80000000000001</ele><time>2026-05-03T08:22:59Z</time></trkpt><trkpt lat="45.43927384343289" lon="9.883835968450333"><ele>83.4</ele><time>2026-05-03T08:23:01Z</time></trkpt><trkpt lat="45.43918316968978" lon="9.8837824015957"><ele>83.0</ele><time>2026-05-03T08:23:03Z</time></trkpt><trkpt lat="45.439096305290235" lon="9.883736250742741"><ele>83.0</ele><time>2026-05-03T08:23:05Z</time></trkpt><trkpt lat="45.43900821573725" lon="9.883687649262429"><ele>83.0</ele><time>2026-05-03T08:23:07Z</time></trkpt><trkpt lat="45.43891717586189" lon="9.883632887208506"><ele>83.0</ele><time>2026-05-03T08:23:08.999Z</time></trkpt><trkpt lat="45.43881890114379" lon="9.883576851818633"><ele>83.0</ele><time>2026-05-03T08:23:10.999Z</time></trkpt><trkpt lat="45.43872219695854" lon="9.883521373545905"><ele>83.0</ele><time>2026-05-03T08:23:12.999Z</time></trkpt><trkpt lat="45.438620667910385" lon="9.88346604706597"><ele>83.75</ele><time>2026-05-03T08:23:14.999Z</time></trkpt><trkpt lat="45.438509898580335" lon="9.883408709060271"><ele>84.5</ele><time>2026-05-03T08:23:16.999Z</time></trkpt><trkpt lat="45.43840533323052" lon="9.883345223591974"><ele>85.25</ele><time>2026-05-03T08:23:18.999Z</time></trkpt><trkpt lat="45.438292919285956" lon="9.883284557007634"><ele>86.0</ele><time>2026-05-03T08:23:20.999Z</time></trkpt><trkpt lat="45.43818544265534" lon="9.883227937981262"><ele>86.0</ele><time>2026-05-03T08:23:22.999Z</time></trkpt><trkpt lat="45.43807463440109" lon="9.88316828255232"><ele>86.0</ele><time>2026-05-03T08:23:24.999Z</time></trkpt><trkpt lat="45.43796333852981" lon="9.883107003679372"><ele>86.0</ele><time>2026-05-03T08:23:26.999Z</time></trkpt><trkpt lat="45.43785699398033" lon="9.883046387781878"><ele>86.0</ele><time>2026-05-03T08:23:28.999Z</time></trkpt><trkpt lat="45.43774457735211" lon="9.882987565130165"><ele>84.75</ele><time>2026-05-03T08:23:30.999Z</time></trkpt><trkpt lat="45.43763523600281" lon="9.882935007942555"><ele>83.5</ele><time>2026-05-03T08:23:32.999Z</time></trkpt><trkpt lat="45.43752490955393" lon="9.8828697600355"><ele>82.25</ele><time>2026-05-03T08:23:34.999Z</time></trkpt><trkpt lat="45.43740676390174" lon="9.882834055539414"><ele>81.0</ele><time>2026-05-03T08:23:36.999Z</time></trkpt><trkpt lat="45.43729106567221" lon="9.882816017340303"><ele>81.0</ele><time>2026-05-03T08:23:38.999Z</time></trkpt><trkpt lat="45.43717885131313" lon="9.882821547462441"><ele>81.0</ele><time>2026-05-03T08:23:40.999Z</time></trkpt><trkpt lat="45.43706430073863" lon="9.882847099293496"><ele>81.0</ele><time>2026-05-03T08:23:42.999Z</time></trkpt><trkpt lat="45.43695260101961" lon="9.882888096885832"><ele>81.0</ele><time>2026-05-03T08:23:44.999Z</time></trkpt><trkpt lat="45.43684538059822" lon="9.882936691815745"><ele>81.0</ele><time>2026-05-03T08:23:46.999Z</time></trkpt><trkpt lat="45.43675646642056" lon="9.882969766307987"><ele>81.0</ele><time>2026-05-03T08:23:48.999Z</time></trkpt><trkpt lat="45.43667735658155" lon="9.882994594058792"><ele>81.0</ele><time>2026-05-03T08:23:50.999Z</time></trkpt><trkpt lat="45.43660405868304" lon="9.883025562501937"><ele>81.0</ele><time>2026-05-03T08:23:52.999Z</time></trkpt><trkpt lat="45.436544227993075" lon="9.88305595754454"><ele>81.0</ele><time>2026-05-03T08:23:54.999Z</time></trkpt><trkpt lat="45.43646491460057" lon="9.883083835286493"><ele>81.0</ele><time>2026-05-03T08:23:56.999Z</time></trkpt><trkpt lat="45.43638911213136" lon="9.883116525684267"><ele>81.19999999999999</ele><time>2026-05-03T08:23:58.999Z</time></trkpt><trkpt lat="45.43629821835605" lon="9.88314240111884"><ele>81.39999999999999</ele><time>2026-05-03T08:24:00.999Z</time></trkpt><trkpt lat="45.43620993334238" lon="9.883152695618751"><ele>81.6</ele><time>2026-05-03T08:24:02.999Z</time></trkpt><trkpt lat="45.43611091207873" lon="9.883121327016845"><ele>81.8</ele><time>2026-05-03T08:24:04.999Z</time></trkpt><trkpt lat="45.436023602987866" lon="9.883062938598252"><ele>82.0</ele><time>2026-05-03T08:24:06.999Z</time></trkpt><trkpt lat="45.43595832118046" lon="9.882986591197724"><ele>82.0</ele><time>2026-05-03T08:24:09Z</time></trkpt><trkpt lat="45.4358967554683" lon="9.882920784238507"><ele>82.0</ele><time>2026-05-03T08:24:11Z</time></trkpt><trkpt lat="45.43582095891825" lon="9.882840766843016"><ele>82.0</ele><time>2026-05-03T08:24:13Z</time></trkpt><trkpt lat="45.435729113264244" lon="9.882752978098685"><ele>82.0</ele><time>2026-05-03T08:24:15Z</time></trkpt><trkpt lat="45.43564145211568" lon="9.88266692989514"><ele>82.0</ele><time>2026-05-03T08:24:17Z</time></trkpt><trkpt lat="45.43556437015184" lon="9.882598114079332"><ele>82.16666666666666</ele><time>2026-05-03T08:24:19Z</time></trkpt><trkpt lat="45.43548981471936" lon="9.88253775217826"><ele>82.33333333333333</ele><time>2026-05-03T08:24:21Z</time></trkpt><trkpt lat="45.435420094745425" lon="9.882498759988005"><ele>82.5</ele><time>2026-05-03T08:24:23Z</time></trkpt><trkpt lat="45.43535272193622" lon="9.882521502440301"><ele>82.66666666666667</ele><time>2026-05-03T08:24:25Z</time></trkpt><trkpt lat="45.43529789937134" lon="9.88261912948629"><ele>82.83333333333334</ele><time>2026-05-03T08:24:27Z</time></trkpt><trkpt lat="45.43526858381069" lon="9.882707103798818"><ele>83.0</ele><time>2026-05-03T08:24:28Z</time></trkpt><trkpt lat="45.43524599774628" lon="9.882798597659958"><ele>82.5</ele><time>2026-05-03T08:24:29Z</time></trkpt><trkpt lat="45.435210819653236" lon="9.882887597954136"><ele>82.0</ele><time>2026-05-03T08:24:30Z</time></trkpt><trkpt lat="45.435184580179836" lon="9.882974559293224"><ele>81.5</ele><time>2026-05-03T08:24:31Z</time></trkpt><trkpt lat="45.43515519996292" lon="9.883058787974369"><ele>81.0</ele><time>2026-05-03T08:24:32Z</time></trkpt><trkpt lat="45.4351110443932" lon="9.883198759923998"><ele>80.5</ele><time>2026-05-03T08:24:34Z</time></trkpt><trkpt lat="45.435065958371354" lon="9.883340095928373"><ele>80.0</ele><time>2026-05-03T08:24:36Z</time></trkpt><trkpt lat="45.435027382423705" lon="9.883474209719832"><ele>79.75</ele><time>2026-05-03T08:24:38Z</time></trkpt><trkpt lat="45.43498163124112" lon="9.883633385785423"><ele>79.5</ele><time>2026-05-03T08:24:40Z</time></trkpt><trkpt lat="45.434931811707294" lon="9.883793594032376"><ele>79.25</ele><time>2026-05-03T08:24:42Z</time></trkpt><trkpt lat="45.434888690763884" lon="9.883931597143393"><ele>79.0</ele><time>2026-05-03T08:24:44Z</time></trkpt><trkpt lat="45.43482903346176" lon="9.884055546608332"><ele>79.0</ele><time>2026-05-03T08:24:46Z</time></trkpt><trkpt lat="45.43472282415848" lon="9.884097180655989"><ele>79.0</ele><time>2026-05-03T08:24:48Z</time></trkpt><trkpt lat="45.434640709446064" lon="9.884105011711688"><ele>79.0</ele><time>2026-05-03T08:24:51Z</time></trkpt><trkpt lat="45.434577933570054" lon="9.884125638896657"><ele>79.0</ele><time>2026-05-03T08:24:53Z</time></trkpt><trkpt lat="45.4345139593833" lon="9.884143253898216"><ele>79.0</ele><time>2026-05-03T08:24:55Z</time></trkpt><trkpt lat="45.434441058853764" lon="9.884168502496703"><ele>79.0</ele><time>2026-05-03T08:24:57Z</time></trkpt><trkpt lat="45.4343462776177" lon="9.884167894911052"><ele>79.16666666666666</ele><time>2026-05-03T08:25:00Z</time></trkpt><trkpt lat="45.43427524606588" lon="9.884159634135203"><ele>79.33333333333333</ele><time>2026-05-03T08:25:02Z</time></trkpt><trkpt lat="45.43421220026312" lon="9.884168410542697"><ele>79.5</ele><time>2026-05-03T08:25:05Z</time></trkpt><trkpt lat="45.434274702970114" lon="9.884211420558863"><ele>79.66666666666667</ele><time>2026-05-03T08:25:08Z</time></trkpt><trkpt lat="45.43436047647871" lon="9.884186286797945"><ele>79.83333333333334</ele><time>2026-05-03T08:25:10Z</time></trkpt><trkpt lat="45.43444422539608" lon="9.884159575539966"><ele>80.0</ele><time>2026-05-03T08:25:12Z</time></trkpt><trkpt lat="45.43453803931922" lon="9.884136469348942"><ele>80.0</ele><time>2026-05-03T08:25:14Z</time></trkpt><trkpt lat="45.43463286835372" lon="9.88410153427268"><ele>80.0</ele><time>2026-05-03T08:25:16Z</time></trkpt><trkpt lat="45.43471902970046" lon="9.884072949339739"><ele>80.0</ele><time>2026-05-03T08:25:18Z</time></trkpt><trkpt lat="45.43478863994641" lon="9.884150333796589"><ele>80.0</ele><time>2026-05-03T08:25:21Z</time></trkpt><trkpt lat="45.434766061841124" lon="9.884248394798332"><ele>80.0</ele><time>2026-05-03T08:25:23Z</time></trkpt><trkpt lat="45.434719513676356" lon="9.884357944479063"><ele>80.0</ele><time>2026-05-03T08:25:25Z</time></trkpt><trkpt lat="45.43464753827524" lon="9.884455790928348"><ele>80.0</ele><time>2026-05-03T08:25:27Z</time></trkpt><trkpt lat="45.43454269690435" lon="9.88456060298569"><ele>80.0</ele><time>2026-05-03T08:25:29Z</time></trkpt><trkpt lat="45.43448778285197" lon="9.88460589210845"><ele>80.0</ele><time>2026-05-03T08:25:30Z</time></trkpt><trkpt lat="45.43438467151634" lon="9.884689645384933"><ele>80.0</ele><time>2026-05-03T08:25:32Z</time></trkpt><trkpt lat="45.43429027468186" lon="9.884759775201168"><ele>80.0</ele><time>2026-05-03T08:25:34Z</time></trkpt><trkpt lat="45.43419666064768" lon="9.884824026061922"><ele>80.0</ele><time>2026-05-03T08:25:36Z</time></trkpt><trkpt lat="45.434080106733724" lon="9.884901881085886"><ele>80.0</ele><time>2026-05-03T08:25:38Z</time></trkpt><trkpt lat="45.43401185113697" lon="9.88495021263571"><ele>80.0</ele><time>2026-05-03T08:25:39Z</time></trkpt><trkpt lat="45.43393645275949" lon="9.884990861087617"><ele>80.0</ele><time>2026-05-03T08:25:39.999Z</time></trkpt><trkpt lat="45.43386108419275" lon="9.885021163125133"><ele>80.0</ele><time>2026-05-03T08:25:40.999Z</time></trkpt><trkpt lat="45.43379225552102" lon="9.885044578455654"><ele>80.0</ele><time>2026-05-03T08:25:41.999Z</time></trkpt><trkpt lat="45.433672325626745" lon="9.885081192154384"><ele>79.6</ele><time>2026-05-03T08:25:43.999Z</time></trkpt><trkpt lat="45.43358315938467" lon="9.885130326403734"><ele>79.2</ele><time>2026-05-03T08:25:45.999Z</time></trkpt><trkpt lat="45.433490068566215" lon="9.885170751845001"><ele>78.8</ele><time>2026-05-03T08:25:47.999Z</time></trkpt><trkpt lat="45.43338477706844" lon="9.885216804573941"><ele>78.4</ele><time>2026-05-03T08:25:49.999Z</time></trkpt><trkpt lat="45.43327190803458" lon="9.885266070353852"><ele>78.0</ele><time>2026-05-03T08:25:51.999Z</time></trkpt><trkpt lat="45.43315617465707" lon="9.885310474839489"><ele>78.0</ele><time>2026-05-03T08:25:53.999Z</time></trkpt><trkpt lat="45.433095007687115" lon="9.885339895985425"><ele>78.0</ele><time>2026-05-03T08:25:54.999Z</time></trkpt><trkpt lat="45.432982510194435" lon="9.885376131783266"><ele>78.0</ele><time>2026-05-03T08:25:56.999Z</time></trkpt><trkpt lat="45.4328718189127" lon="9.885394733762064"><ele>78.0</ele><time>2026-05-03T08:25:58.999Z</time></trkpt><trkpt lat="45.43274623831731" lon="9.885417573840863"><ele>78.0</ele><time>2026-05-03T08:26:00.999Z</time></trkpt><trkpt lat="45.4326287096561" lon="9.88541334148725"><ele>77.8</ele><time>2026-05-03T08:26:02.999Z</time></trkpt><trkpt lat="45.43250013615073" lon="9.885412489513348"><ele>77.6</ele><time>2026-05-03T08:26:04.999Z</time></trkpt><trkpt lat="45.43237412862331" lon="9.885424678894145"><ele>77.4</ele><time>2026-05-03T08:26:06.999Z</time></trkpt><trkpt lat="45.43230612255691" lon="9.885421144819416"><ele>77.2</ele><time>2026-05-03T08:26:07.999Z</time></trkpt><trkpt lat="45.43223575418387" lon="9.885405572407297"><ele>77.0</ele><time>2026-05-03T08:26:08.999Z</time></trkpt><trkpt lat="45.43217122769351" lon="9.885388623734405"><ele>77.2</ele><time>2026-05-03T08:26:09.999Z</time></trkpt><trkpt lat="45.4321087556645" lon="9.885365428177556"><ele>77.4</ele><time>2026-05-03T08:26:10.999Z</time></trkpt><trkpt lat="45.431995664011325" lon="9.885307951810548"><ele>77.6</ele><time>2026-05-03T08:26:12.999Z</time></trkpt><trkpt lat="45.431883685578924" lon="9.885272555906822"><ele>77.8</ele><time>2026-05-03T08:26:15Z</time></trkpt><trkpt lat="45.431787626582874" lon="9.885198358061826"><ele>78.0</ele><time>2026-05-03T08:26:17Z</time></trkpt><trkpt lat="45.43170452357718" lon="9.885096556856801"><ele>78.0</ele><time>2026-05-03T08:26:19Z</time></trkpt><trkpt lat="45.43162897927716" lon="9.884997077498287"><ele>78.0</ele><time>2026-05-03T08:26:21Z</time></trkpt><trkpt lat="45.43156289135955" lon="9.884912539329456"><ele>78.0</ele><time>2026-05-03T08:26:23Z</time></trkpt><trkpt lat="45.431439270507624" lon="9.884897727959228"><ele>78.0</ele><time>2026-05-03T08:26:25Z</time></trkpt><trkpt lat="45.43132398611924" lon="9.884929051489966"><ele>78.0</ele><time>2026-05-03T08:26:27Z</time></trkpt><trkpt lat="45.43120876273874" lon="9.8849520016702"><ele>78.0</ele><time>2026-05-03T08:26:29Z</time></trkpt><trkpt lat="45.431109020110995" lon="9.88497609617515"><ele>78.0</ele><time>2026-05-03T08:26:31Z</time></trkpt><trkpt lat="45.43102507794815" lon="9.885008441654128"><ele>78.0</ele><time>2026-05-03T08:26:33Z</time></trkpt><trkpt lat="45.430935025417824" lon="9.885013234163656"><ele>78.0</ele><time>2026-05-03T08:26:35Z</time></trkpt><trkpt lat="45.430827594203066" lon="9.885011018271946"><ele>78.0</ele><time>2026-05-03T08:26:37Z</time></trkpt><trkpt lat="45.43071969533561" lon="9.884974647438879"><ele>78.0</ele><time>2026-05-03T08:26:39Z</time></trkpt><trkpt lat="45.4306333620624" lon="9.884906032740023"><ele>78.0</ele><time>2026-05-03T08:26:41Z</time></trkpt><trkpt lat="45.43059145954374" lon="9.884834124843163"><ele>78.0</ele><time>2026-05-03T08:26:42Z</time></trkpt><trkpt lat="45.43055427919989" lon="9.884752874583679"><ele>78.0</ele><time>2026-05-03T08:26:43Z</time></trkpt><trkpt lat="45.43045871546846" lon="9.884646875972845"><ele>78.0</ele><time>2026-05-03T08:26:45Z</time></trkpt><trkpt lat="45.43034305894666" lon="9.884588750843664"><ele>77.83333333333333</ele><time>2026-05-03T08:26:47Z</time></trkpt><trkpt lat="45.43022107823777" lon="9.88454230097271"><ele>77.66666666666667</ele><time>2026-05-03T08:26:49Z</time></trkpt><trkpt lat="45.43014861023987" lon="9.884517387548756"><ele>77.5</ele><time>2026-05-03T08:26:50Z</time></trkpt><trkpt lat="45.43008636872307" lon="9.884491749733328"><ele>77.33333333333334</ele><time>2026-05-03T08:26:51Z</time></trkpt><trkpt lat="45.43001721756025" lon="9.884458738861776"><ele>77.16666666666667</ele><time>2026-05-03T08:26:52Z</time></trkpt><trkpt lat="45.42995141065836" lon="9.88441655175937"><ele>77.0</ele><time>2026-05-03T08:26:53Z</time></trkpt><trkpt lat="45.42988139483222" lon="9.88439319778056"><ele>77.0</ele><time>2026-05-03T08:26:54Z</time></trkpt><trkpt lat="45.429782424647996" lon="9.884346476392114"><ele>77.0</ele><time>2026-05-03T08:26:56Z</time></trkpt><trkpt lat="45.42969606105124" lon="9.884340715019086"><ele>77.0</ele><time>2026-05-03T08:26:58Z</time></trkpt><trkpt lat="45.42960309456693" lon="9.884318578006493"><ele>77.0</ele><time>2026-05-03T08:27:00Z</time></trkpt><trkpt lat="45.42946635199664" lon="9.884298324079731"><ele>77.0</ele><time>2026-05-03T08:27:02Z</time></trkpt><trkpt lat="45.42935066135787" lon="9.884289596403049"><ele>77.16666666666667</ele><time>2026-05-03T08:27:04Z</time></trkpt><trkpt lat="45.42922025815845" lon="9.884271127758222"><ele>77.33333333333334</ele><time>2026-05-03T08:27:06Z</time></trkpt><trkpt lat="45.42914523392588" lon="9.884254759830297"><ele>77.5</ele><time>2026-05-03T08:27:07Z</time></trkpt><trkpt lat="45.429079640565824" lon="9.884256643615949"><ele>77.66666666666667</ele><time>2026-05-03T08:27:08Z</time></trkpt><trkpt lat="45.42901263261568" lon="9.88425307965707"><ele>77.83333333333333</ele><time>2026-05-03T08:27:09Z</time></trkpt><trkpt lat="45.428943280823674" lon="9.884224303509747"><ele>78.0</ele><time>2026-05-03T08:27:10Z</time></trkpt><trkpt lat="45.42887565081376" lon="9.884191511132117"><ele>77.83333333333333</ele><time>2026-05-03T08:27:11Z</time></trkpt><trkpt lat="45.42879834031325" lon="9.884157328977658"><ele>77.66666666666667</ele><time>2026-05-03T08:27:12Z</time></trkpt><trkpt lat="45.42871768779222" lon="9.884143287857912"><ele>77.5</ele><time>2026-05-03T08:27:13Z</time></trkpt><trkpt lat="45.428649220046395" lon="9.884121429373886"><ele>77.33333333333334</ele><time>2026-05-03T08:27:14Z</time></trkpt><trkpt lat="45.428576392745896" lon="9.884101182638398"><ele>77.16666666666667</ele><time>2026-05-03T08:27:15Z</time></trkpt><trkpt lat="45.428501140458664" lon="9.884115945085796"><ele>77.0</ele><time>2026-05-03T08:27:16Z</time></trkpt><trkpt lat="45.42842930843969" lon="9.884133556533616"><ele>77.0</ele><time>2026-05-03T08:27:17Z</time></trkpt><trkpt lat="45.428355439679734" lon="9.884118617110785"><ele>77.0</ele><time>2026-05-03T08:27:18Z</time></trkpt><trkpt lat="45.42828050679855" lon="9.884108830788902"><ele>77.0</ele><time>2026-05-03T08:27:19Z</time></trkpt><trkpt lat="45.42821026121848" lon="9.884088064834048"><ele>77.0</ele><time>2026-05-03T08:27:20Z</time></trkpt><trkpt lat="45.42814432805249" lon="9.884075719647281"><ele>77.0</ele><time>2026-05-03T08:27:21Z</time></trkpt><trkpt lat="45.42807672844187" lon="9.884049341602157"><ele>77.0</ele><time>2026-05-03T08:27:22Z</time></trkpt><trkpt lat="45.42801195639964" lon="9.884017309213448"><ele>77.0</ele><time>2026-05-03T08:27:23Z</time></trkpt><trkpt lat="45.4279071879607" lon="9.883941826735011"><ele>77.0</ele><time>2026-05-03T08:27:25Z</time></trkpt><trkpt lat="45.42784493685664" lon="9.883905845203259"><ele>77.0</ele><time>2026-05-03T08:27:26Z</time></trkpt><trkpt lat="45.427774277351155" lon="9.8838753408166"><ele>77.0</ele><time>2026-05-03T08:27:27Z</time></trkpt><trkpt lat="45.427645465069155" lon="9.883866599026124"><ele>77.0</ele><time>2026-05-03T08:27:29Z</time></trkpt><trkpt lat="45.42753629521897" lon="9.883853844689325"><ele>77.0</ele><time>2026-05-03T08:27:31Z</time></trkpt><trkpt lat="45.42742422169294" lon="9.883793538732036"><ele>77.0</ele><time>2026-05-03T08:27:33Z</time></trkpt><trkpt lat="45.427364208551225" lon="9.8837649469955"><ele>77.0</ele><time>2026-05-03T08:27:34Z</time></trkpt><trkpt lat="45.427255089447804" lon="9.88371255480296"><ele>77.0</ele><time>2026-05-03T08:27:36Z</time></trkpt><trkpt lat="45.42717419630816" lon="9.88358868370696"><ele>77.0</ele><time>2026-05-03T08:27:38Z</time></trkpt><trkpt lat="45.42711329674217" lon="9.883523978145051"><ele>77.0</ele><time>2026-05-03T08:27:40Z</time></trkpt><trkpt lat="45.42701474610986" lon="9.883568759707785"><ele>76.8</ele><time>2026-05-03T08:27:41.999Z</time></trkpt><trkpt lat="45.42691425120452" lon="9.883634318526468"><ele>76.6</ele><time>2026-05-03T08:27:43.999Z</time></trkpt><trkpt lat="45.4268042744946" lon="9.883613137517523"><ele>76.39999999999999</ele><time>2026-05-03T08:27:45.999Z</time></trkpt><trkpt lat="45.426702984104786" lon="9.883531297451277"><ele>76.2</ele><time>2026-05-03T08:27:47.999Z</time></trkpt><trkpt lat="45.426599087975994" lon="9.8834860055834"><ele>76.0</ele><time>2026-05-03T08:27:49.999Z</time></trkpt><trkpt lat="45.426536254128884" lon="9.883458375713953"><ele>75.8</ele><time>2026-05-03T08:27:50.999Z</time></trkpt><trkpt lat="45.42642209811207" lon="9.883411457207261"><ele>75.6</ele><time>2026-05-03T08:27:52.999Z</time></trkpt><trkpt lat="45.426318707851884" lon="9.883371505818758"><ele>75.4</ele><time>2026-05-03T08:27:54.999Z</time></trkpt><trkpt lat="45.426243891037984" lon="9.883350316331994"><ele>75.2</ele><time>2026-05-03T08:27:56.999Z</time></trkpt><trkpt lat="45.42616005310227" lon="9.883327145056194"><ele>75.0</ele><time>2026-05-03T08:27:58.999Z</time></trkpt><trkpt lat="45.426079398808014" lon="9.88330531958782"><ele>75.5</ele><time>2026-05-03T08:28:00.999Z</time></trkpt><trkpt lat="45.42600960850296" lon="9.883278313622617"><ele>76.0</ele><time>2026-05-03T08:28:02.999Z</time></trkpt><trkpt lat="45.42594686515513" lon="9.88322510670271"><ele>76.5</ele><time>2026-05-03T08:28:04.999Z</time></trkpt><trkpt lat="45.4258563336709" lon="9.88320567516"><ele>77.0</ele><time>2026-05-03T08:28:08.999Z</time></trkpt><trkpt lat="45.425755872042025" lon="9.883198882254582"><ele>77.5</ele><time>2026-05-03T08:28:10.999Z</time></trkpt><trkpt lat="45.425670733899146" lon="9.883237493964584"><ele>78.0</ele><time>2026-05-03T08:28:12.999Z</time></trkpt><trkpt lat="45.42558690414039" lon="9.883288967907488"><ele>78.0</ele><time>2026-05-03T08:28:14.999Z</time></trkpt><trkpt lat="45.42549261818718" lon="9.88336227667258"><ele>78.0</ele><time>2026-05-03T08:28:16.999Z</time></trkpt><trkpt lat="45.42539955260885" lon="9.883436246213737"><ele>78.0</ele><time>2026-05-03T08:28:18.999Z</time></trkpt><trkpt lat="45.42532282888451" lon="9.883495217024803"><ele>78.0</ele><time>2026-05-03T08:28:21Z</time></trkpt><trkpt lat="45.42525300313646" lon="9.883545717069337"><ele>78.0</ele><time>2026-05-03T08:28:23Z</time></trkpt><trkpt lat="45.42518483802883" lon="9.883503721329852"><ele>78.0</ele><time>2026-05-03T08:28:25Z</time></trkpt><trkpt lat="45.42518520497442" lon="9.883376230813571"><ele>78.0</ele><time>2026-05-03T08:28:27Z</time></trkpt><trkpt lat="45.42514865578782" lon="9.883254322781305"><ele>78.0</ele><time>2026-05-03T08:28:29Z</time></trkpt><trkpt lat="45.425093799121306" lon="9.88314821528203"><ele>78.0</ele><time>2026-05-03T08:28:31Z</time></trkpt><trkpt lat="45.425026553332415" lon="9.883038204839313"><ele>78.0</ele><time>2026-05-03T08:28:33Z</time></trkpt><trkpt lat="45.42495475415423" lon="9.882959501380626"><ele>78.0</ele><time>2026-05-03T08:28:35Z</time></trkpt><trkpt lat="45.42487929865478" lon="9.882918430868955"><ele>78.0</ele><time>2026-05-03T08:28:37Z</time></trkpt><trkpt lat="45.424758233519526" lon="9.88287770038927"><ele>78.0</ele><time>2026-05-03T08:28:39Z</time></trkpt><trkpt lat="45.42464446019897" lon="9.88283561307917"><ele>78.0</ele><time>2026-05-03T08:28:41Z</time></trkpt><trkpt lat="45.42453725346115" lon="9.882817671613605"><ele>78.0</ele><time>2026-05-03T08:28:43Z</time></trkpt><trkpt lat="45.42443331790988" lon="9.882817618142099"><ele>78.66666666666667</ele><time>2026-05-03T08:28:45Z</time></trkpt><trkpt lat="45.42434755887483" lon="9.882831872893023"><ele>79.33333333333333</ele><time>2026-05-03T08:28:47Z</time></trkpt><trkpt lat="45.424272768385016" lon="9.882807911145262"><ele>80.0</ele><time>2026-05-03T08:28:50Z</time></trkpt><trkpt lat="45.42420731238076" lon="9.882855876360678"><ele>80.66666666666666</ele><time>2026-05-03T08:28:54Z</time></trkpt><trkpt lat="45.42411825724137" lon="9.882897412352781"><ele>81.33333333333333</ele><time>2026-05-03T08:28:57Z</time></trkpt><trkpt lat="45.42403407660048" lon="9.882882501262486"><ele>82.0</ele><time>2026-05-03T08:28:59Z</time></trkpt><trkpt lat="45.423956983153545" lon="9.882857173442947"><ele>82.0</ele><time>2026-05-03T08:29:01Z</time></trkpt><trkpt lat="45.42387713054954" lon="9.88284497275041"><ele>82.0</ele><time>2026-05-03T08:29:03Z</time></trkpt><trkpt lat="45.42375488544771" lon="9.882895695786143"><ele>82.0</ele><time>2026-05-03T08:29:05Z</time></trkpt><trkpt lat="45.42369550960288" lon="9.882944737043418"><ele>82.0</ele><time>2026-05-03T08:29:06Z</time></trkpt><trkpt lat="45.42363724398212" lon="9.882983160789228"><ele>82.0</ele><time>2026-05-03T08:29:07Z</time></trkpt><trkpt lat="45.42357967404231" lon="9.8830251661181"><ele>82.0</ele><time>2026-05-03T08:29:08Z</time></trkpt><trkpt lat="45.42350197934983" lon="9.883062340107934"><ele>81.8</ele><time>2026-05-03T08:29:09Z</time></trkpt><trkpt lat="45.42343885640612" lon="9.883089575585666"><ele>81.6</ele><time>2026-05-03T08:29:10Z</time></trkpt><trkpt lat="45.423326144047586" lon="9.88314694089699"><ele>81.39999999999999</ele><time>2026-05-03T08:29:12Z</time></trkpt><trkpt lat="45.423223062327644" lon="9.88321266332964"><ele>81.19999999999999</ele><time>2026-05-03T08:29:14Z</time></trkpt><trkpt lat="45.42310743176353" lon="9.883264571457369"><ele>81.0</ele><time>2026-05-03T08:29:16Z</time></trkpt><trkpt lat="45.42304644107781" lon="9.883289822575728"><ele>80.25</ele><time>2026-05-03T08:29:17Z</time></trkpt><trkpt lat="45.42293878218172" lon="9.883342011684741"><ele>79.5</ele><time>2026-05-03T08:29:19Z</time></trkpt><trkpt lat="45.42282774912429" lon="9.883362856494955"><ele>78.75</ele><time>2026-05-03T08:29:21Z</time></trkpt><trkpt lat="45.42270760021638" lon="9.88338640980158"><ele>78.0</ele><time>2026-05-03T08:29:23Z</time></trkpt><trkpt lat="45.422586928166844" lon="9.883409265582486"><ele>77.83333333333333</ele><time>2026-05-03T08:29:25Z</time></trkpt><trkpt lat="45.42249195398641" lon="9.883449495993531"><ele>77.66666666666667</ele><time>2026-05-03T08:29:27Z</time></trkpt><trkpt lat="45.42242721305555" lon="9.883524725826387"><ele>77.5</ele><time>2026-05-03T08:29:29Z</time></trkpt><trkpt lat="45.42236089176774" lon="9.883591106130904"><ele>77.33333333333334</ele><time>2026-05-03T08:29:31Z</time></trkpt><trkpt lat="45.42230762192219" lon="9.883640465580838"><ele>77.16666666666667</ele><time>2026-05-03T08:29:35Z</time></trkpt><trkpt lat="45.422315490176956" lon="9.88376271216904"><ele>77.0</ele><time>2026-05-03T08:29:37Z</time></trkpt><trkpt lat="45.42232462949341" lon="9.883893806780197"><ele>77.0</ele><time>2026-05-03T08:29:39Z</time></trkpt><trkpt lat="45.42231722027812" lon="9.884025344444748"><ele>77.0</ele><time>2026-05-03T08:29:41Z</time></trkpt><trkpt lat="45.42232403166684" lon="9.884151611066255"><ele>77.0</ele><time>2026-05-03T08:29:42.999Z</time></trkpt><trkpt lat="45.42231610141993" lon="9.884292598213227"><ele>77.0</ele><time>2026-05-03T08:29:44.999Z</time></trkpt><trkpt lat="45.4223143968897" lon="9.884447789010084"><ele>77.0</ele><time>2026-05-03T08:29:46.999Z</time></trkpt><trkpt lat="45.42231052333702" lon="9.884594653951599"><ele>77.2</ele><time>2026-05-03T08:29:48.999Z</time></trkpt><trkpt lat="45.4223163327023" lon="9.884732520159215"><ele>77.4</ele><time>2026-05-03T08:29:50.999Z</time></trkpt><trkpt lat="45.422320405130456" lon="9.884854276266546"><ele>77.6</ele><time>2026-05-03T08:29:52.999Z</time></trkpt><trkpt lat="45.42231886203142" lon="9.884976055400431"><ele>77.8</ele><time>2026-05-03T08:29:54.999Z</time></trkpt><trkpt lat="45.422318073823604" lon="9.885110424136107"><ele>78.0</ele><time>2026-05-03T08:29:56.999Z</time></trkpt><trkpt lat="45.422318573157426" lon="9.885264246886083"><ele>77.4</ele><time>2026-05-03T08:29:58.999Z</time></trkpt><trkpt lat="45.422316945944864" lon="9.885413663089057"><ele>76.8</ele><time>2026-05-03T08:30:00.999Z</time></trkpt><trkpt lat="45.42231988348584" lon="9.885567308656848"><ele>76.2</ele><time>2026-05-03T08:30:02.999Z</time></trkpt><trkpt lat="45.42232812858614" lon="9.885709976923346"><ele>75.6</ele><time>2026-05-03T08:30:04.999Z</time></trkpt><trkpt lat="45.4223379755327" lon="9.885847544683593"><ele>75.0</ele><time>2026-05-03T08:30:06.999Z</time></trkpt><trkpt lat="45.422340803977406" lon="9.885972278392588"><ele>74.83333333333333</ele><time>2026-05-03T08:30:08.999Z</time></trkpt><trkpt lat="45.422341414238325" lon="9.886073461538926"><ele>74.66666666666667</ele><time>2026-05-03T08:30:10.999Z</time></trkpt><trkpt lat="45.42233584165026" lon="9.886193911562746"><ele>74.5</ele><time>2026-05-03T08:30:12.999Z</time></trkpt><trkpt lat="45.42231447191056" lon="9.886315853816114"><ele>74.33333333333334</ele><time>2026-05-03T08:30:14.999Z</time></trkpt><trkpt lat="45.422283984301345" lon="9.886420643161186"><ele>74.16666666666667</ele><time>2026-05-03T08:30:16.999Z</time></trkpt><trkpt lat="45.42222147946347" lon="9.886507666561874"><ele>74.0</ele><time>2026-05-03T08:30:18.999Z</time></trkpt><trkpt lat="45.42217966167595" lon="9.886591127544751"><ele>74.66666666666667</ele><time>2026-05-03T08:30:20.999Z</time></trkpt><trkpt lat="45.42213582530988" lon="9.88671701382378"><ele>75.33333333333334</ele><time>2026-05-03T08:30:22.999Z</time></trkpt><trkpt lat="45.42211114940434" lon="9.886858744227315"><ele>76.0</ele><time>2026-05-03T08:30:24.999Z</time></trkpt><trkpt lat="45.42209420467063" lon="9.88695773177147"><ele>76.66666666666667</ele><time>2026-05-03T08:30:27Z</time></trkpt><trkpt lat="45.422070932485255" lon="9.887063140398938"><ele>77.33333333333333</ele><time>2026-05-03T08:30:29Z</time></trkpt><trkpt lat="45.42204583499203" lon="9.88716977025783"><ele>78.0</ele><time>2026-05-03T08:30:32Z</time></trkpt><trkpt lat="45.42202598474142" lon="9.887255343061566"><ele>78.0</ele><time>2026-05-03T08:30:34Z</time></trkpt><trkpt lat="45.42200472985719" lon="9.887377544471349"><ele>78.0</ele><time>2026-05-03T08:30:36Z</time></trkpt><trkpt lat="45.421973327566356" lon="9.887500190813277"><ele>78.0</ele><time>2026-05-03T08:30:38Z</time></trkpt><trkpt lat="45.421936020212904" lon="9.887621344345042"><ele>78.0</ele><time>2026-05-03T08:30:40Z</time></trkpt><trkpt lat="45.421904826546324" lon="9.88774273911173"><ele>78.0</ele><time>2026-05-03T08:30:42Z</time></trkpt><trkpt lat="45.42187818732862" lon="9.887857022747843"><ele>78.0</ele><time>2026-05-03T08:30:44Z</time></trkpt><trkpt lat="45.42184559668986" lon="9.88799548938914"><ele>77.6</ele><time>2026-05-03T08:30:46Z</time></trkpt><trkpt lat="45.42181564688458" lon="9.888124515093484"><ele>77.19999999999999</ele><time>2026-05-03T08:30:48Z</time></trkpt><trkpt lat="45.42177712500035" lon="9.888231687204106"><ele>76.8</ele><time>2026-05-03T08:30:50Z</time></trkpt><trkpt lat="45.42171208189503" lon="9.88832700716121"><ele>76.39999999999999</ele><time>2026-05-03T08:30:52Z</time></trkpt><trkpt lat="45.42163830088588" lon="9.888469079820926"><ele>76.0</ele><time>2026-05-03T08:30:54Z</time></trkpt><trkpt lat="45.42160283937507" lon="9.888561516078331"><ele>76.0</ele><time>2026-05-03T08:30:55Z</time></trkpt><trkpt lat="45.42157533242986" lon="9.888657459019857"><ele>76.0</ele><time>2026-05-03T08:30:56Z</time></trkpt><trkpt lat="45.42155675927471" lon="9.888744734170455"><ele>76.0</ele><time>2026-05-03T08:30:57Z</time></trkpt><trkpt lat="45.42153831266383" lon="9.88883180899125"><ele>76.0</ele><time>2026-05-03T08:30:58Z</time></trkpt><trkpt lat="45.42149370993596" lon="9.888980134876563"><ele>76.0</ele><time>2026-05-03T08:31:00Z</time></trkpt><trkpt lat="45.42147035852188" lon="9.889102463671612"><ele>76.0</ele><time>2026-05-03T08:31:02Z</time></trkpt><trkpt lat="45.4214414720123" lon="9.889242938506909"><ele>76.0</ele><time>2026-05-03T08:31:04Z</time></trkpt><trkpt lat="45.42142941687137" lon="9.889374574552797"><ele>76.0</ele><time>2026-05-03T08:31:06Z</time></trkpt><trkpt lat="45.421415675783095" lon="9.889535434804948"><ele>76.0</ele><time>2026-05-03T08:31:08Z</time></trkpt><trkpt lat="45.42137944809825" lon="9.889688625179293"><ele>76.0</ele><time>2026-05-03T08:31:10Z</time></trkpt><trkpt lat="45.421329320745244" lon="9.889812584205918"><ele>76.0</ele><time>2026-05-03T08:31:12Z</time></trkpt><trkpt lat="45.42127869557292" lon="9.889947857312874"><ele>76.0</ele><time>2026-05-03T08:31:14Z</time></trkpt><trkpt lat="45.42125163273509" lon="9.89003311466088"><ele>76.0</ele><time>2026-05-03T08:31:15Z</time></trkpt><trkpt lat="45.42119275202562" lon="9.890176082832756"><ele>76.0</ele><time>2026-05-03T08:31:17Z</time></trkpt><trkpt lat="45.42113579684936" lon="9.890301962717267"><ele>76.0</ele><time>2026-05-03T08:31:19Z</time></trkpt><trkpt lat="45.42104791897371" lon="9.890377559252473"><ele>76.0</ele><time>2026-05-03T08:31:21Z</time></trkpt><trkpt lat="45.42097627767694" lon="9.890427147365006"><ele>75.5</ele><time>2026-05-03T08:31:23Z</time></trkpt><trkpt lat="45.42091446493383" lon="9.890530951033927"><ele>75.0</ele><time>2026-05-03T08:31:25Z</time></trkpt><trkpt lat="45.42086796659328" lon="9.890633620328334"><ele>74.5</ele><time>2026-05-03T08:31:27Z</time></trkpt><trkpt lat="45.420813673055314" lon="9.890684049104893"><ele>74.0</ele><time>2026-05-03T08:31:29Z</time></trkpt><trkpt lat="45.42072742286557" lon="9.890709613738368"><ele>73.5</ele><time>2026-05-03T08:31:31Z</time></trkpt><trkpt lat="45.420646510495416" lon="9.890779102216559"><ele>73.0</ele><time>2026-05-03T08:31:33Z</time></trkpt><trkpt lat="45.420595701660886" lon="9.890907717609446"><ele>73.2</ele><time>2026-05-03T08:31:35Z</time></trkpt><trkpt lat="45.4205355562608" lon="9.890994778248674"><ele>73.4</ele><time>2026-05-03T08:31:37Z</time></trkpt><trkpt lat="45.42049346708344" lon="9.891117347803323"><ele>73.60000000000001</ele><time>2026-05-03T08:31:39Z</time></trkpt><trkpt lat="45.420464166090746" lon="9.891251381864157"><ele>73.8</ele><time>2026-05-03T08:31:41Z</time></trkpt><trkpt lat="45.4203809247524" lon="9.891333008358595"><ele>74.0</ele><time>2026-05-03T08:31:43Z</time></trkpt><trkpt lat="45.42029806661622" lon="9.891362558426465"><ele>74.0</ele><time>2026-05-03T08:31:45Z</time></trkpt><trkpt lat="45.42020924650063" lon="9.891434966105853"><ele>74.0</ele><time>2026-05-03T08:31:47Z</time></trkpt><trkpt lat="45.420110022154184" lon="9.89149439077003"><ele>74.0</ele><time>2026-05-03T08:31:49Z</time></trkpt><trkpt lat="45.420019196240276" lon="9.891472239073787"><ele>74.0</ele><time>2026-05-03T08:31:51Z</time></trkpt><trkpt lat="45.41993947167008" lon="9.89147449159333"><ele>74.0</ele><time>2026-05-03T08:31:53Z</time></trkpt><trkpt lat="45.41987733180555" lon="9.891520859145283"><ele>74.0</ele><time>2026-05-03T08:31:56Z</time></trkpt><trkpt lat="45.419808888316155" lon="9.891524297299357"><ele>74.0</ele><time>2026-05-03T08:31:57.999Z</time></trkpt><trkpt lat="45.41976640509185" lon="9.891611308916447"><ele>74.0</ele><time>2026-05-03T08:31:59.999Z</time></trkpt><trkpt lat="45.4197226949559" lon="9.89169054737444"><ele>74.0</ele><time>2026-05-03T08:32:01.999Z</time></trkpt><trkpt lat="45.41968555344783" lon="9.891776369266369"><ele>74.0</ele><time>2026-05-03T08:32:03.999Z</time></trkpt><trkpt lat="45.419606535288814" lon="9.89186492712302"><ele>74.0</ele><time>2026-05-03T08:32:05.999Z</time></trkpt><trkpt lat="45.41952500537152" lon="9.89187990700019"><ele>73.66666666666667</ele><time>2026-05-03T08:32:07.999Z</time></trkpt><trkpt lat="45.41946077122484" lon="9.891822824657709"><ele>73.33333333333334</ele><time>2026-05-03T08:32:09.999Z</time></trkpt><trkpt lat="45.41938606433622" lon="9.891833401119941"><ele>73.0</ele><time>2026-05-03T08:32:11.999Z</time></trkpt><trkpt lat="45.4193100540976" lon="9.891927889497572"><ele>72.66666666666667</ele><time>2026-05-03T08:32:13.999Z</time></trkpt><trkpt lat="45.41924187261217" lon="9.891984504881822"><ele>72.33333333333333</ele><time>2026-05-03T08:32:15.999Z</time></trkpt><trkpt lat="45.419173336477186" lon="9.891989251867106"><ele>72.0</ele><time>2026-05-03T08:32:17.999Z</time></trkpt><trkpt lat="45.419074242964726" lon="9.891973518200476"><ele>72.0</ele><time>2026-05-03T08:32:19.999Z</time></trkpt><trkpt lat="45.419008809662444" lon="9.891958351517681"><ele>72.0</ele><time>2026-05-03T08:32:20.999Z</time></trkpt><trkpt lat="45.4189187120731" lon="9.891884221178236"><ele>72.0</ele><time>2026-05-03T08:32:22.999Z</time></trkpt><trkpt lat="45.418869683834096" lon="9.89180398784144"><ele>72.0</ele><time>2026-05-03T08:32:24.999Z</time></trkpt><trkpt lat="45.41883660398736" lon="9.89168842994708"><ele>72.0</ele><time>2026-05-03T08:32:26.999Z</time></trkpt><trkpt lat="45.418771050455724" lon="9.891583185051765"><ele>72.0</ele><time>2026-05-03T08:32:28.999Z</time></trkpt><trkpt lat="45.418704971107054" lon="9.8914646732303"><ele>72.4</ele><time>2026-05-03T08:32:30.999Z</time></trkpt><trkpt lat="45.418617745900754" lon="9.891334755250261"><ele>72.80000000000001</ele><time>2026-05-03T08:32:33Z</time></trkpt><trkpt lat="45.418566830717296" lon="9.891261697607204"><ele>73.2</ele><time>2026-05-03T08:32:34Z</time></trkpt><trkpt lat="45.41851589330596" lon="9.891204821997265"><ele>73.60000000000001</ele><time>2026-05-03T08:32:35Z</time></trkpt><trkpt lat="45.418413858929156" lon="9.891102030876882"><ele>74.0</ele><time>2026-05-03T08:32:37Z</time></trkpt><trkpt lat="45.41831909131935" lon="9.891001709065215"><ele>74.0</ele><time>2026-05-03T08:32:39Z</time></trkpt><trkpt lat="45.41820895467757" lon="9.890916035086999"><ele>74.0</ele><time>2026-05-03T08:32:41Z</time></trkpt><trkpt lat="45.41810782622044" lon="9.890843456003262"><ele>74.0</ele><time>2026-05-03T08:32:43Z</time></trkpt><trkpt lat="45.41801164472383" lon="9.890772027843923"><ele>74.0</ele><time>2026-05-03T08:32:45Z</time></trkpt><trkpt lat="45.41794510170715" lon="9.890709976963338"><ele>74.0</ele><time>2026-05-03T08:32:47Z</time></trkpt><trkpt lat="45.4178845101116" lon="9.890664691447697"><ele>74.0</ele><time>2026-05-03T08:32:49Z</time></trkpt><trkpt lat="45.41780252892399" lon="9.890640579746183"><ele>74.0</ele><time>2026-05-03T08:32:51Z</time></trkpt><trkpt lat="45.41769258011525" lon="9.89058465886181"><ele>74.0</ele><time>2026-05-03T08:32:53Z</time></trkpt><trkpt lat="45.41763862197575" lon="9.890462260420701"><ele>74.0</ele><time>2026-05-03T08:32:55Z</time></trkpt><trkpt lat="45.41760403524535" lon="9.890346112376685"><ele>74.0</ele><time>2026-05-03T08:32:58Z</time></trkpt><trkpt lat="45.41752192086098" lon="9.89027441155551"><ele>74.0</ele><time>2026-05-03T08:33:00Z</time></trkpt><trkpt lat="45.41743925797208" lon="9.890292170393547"><ele>74.0</ele><time>2026-05-03T08:33:02Z</time></trkpt><trkpt lat="45.417349776663805" lon="9.89021535628646"><ele>74.0</ele><time>2026-05-03T08:33:04Z</time></trkpt><trkpt lat="45.41730197414201" lon="9.89015258999405"><ele>74.0</ele><time>2026-05-03T08:33:05Z</time></trkpt><trkpt lat="45.417257633107546" lon="9.89008404181763"><ele>74.0</ele><time>2026-05-03T08:33:06Z</time></trkpt><trkpt lat="45.41716383283973" lon="9.889978566205437"><ele>74.0</ele><time>2026-05-03T08:33:08Z</time></trkpt><trkpt lat="45.417098024446474" lon="9.889923854822246"><ele>74.14285714285714</ele><time>2026-05-03T08:33:09Z</time></trkpt><trkpt lat="45.41703049004855" lon="9.889877137161355"><ele>74.28571428571428</ele><time>2026-05-03T08:33:10Z</time></trkpt><trkpt lat="45.416969665094754" lon="9.889832791142219"><ele>74.42857142857142</ele><time>2026-05-03T08:33:11Z</time></trkpt><trkpt lat="45.41691112872474" lon="9.889783397729"><ele>74.57142857142857</ele><time>2026-05-03T08:33:12Z</time></trkpt><trkpt lat="45.41684597195676" lon="9.88973648411407"><ele>74.71428571428571</ele><time>2026-05-03T08:33:13Z</time></trkpt><trkpt lat="45.41678006302935" lon="9.889687691044774"><ele>74.85714285714285</ele><time>2026-05-03T08:33:14Z</time></trkpt><trkpt lat="45.41670787220002" lon="9.889637025308012"><ele>75.0</ele><time>2026-05-03T08:33:15Z</time></trkpt><trkpt lat="45.41663615314106" lon="9.889590180039619"><ele>75.0</ele><time>2026-05-03T08:33:16Z</time></trkpt><trkpt lat="45.416568441938374" lon="9.88955411179753"><ele>75.0</ele><time>2026-05-03T08:33:17Z</time></trkpt><trkpt lat="45.41650942514043" lon="9.889520280494455"><ele>75.0</ele><time>2026-05-03T08:33:18Z</time></trkpt><trkpt lat="45.41639452281728" lon="9.889435036705548"><ele>75.0</ele><time>2026-05-03T08:33:20Z</time></trkpt><trkpt lat="45.41632837045784" lon="9.889403262802977"><ele>75.0</ele><time>2026-05-03T08:33:21Z</time></trkpt><trkpt lat="45.41621615162067" lon="9.889368875594512"><ele>74.6</ele><time>2026-05-03T08:33:23Z</time></trkpt><trkpt lat="45.416123377647345" lon="9.889305534576376"><ele>74.2</ele><time>2026-05-03T08:33:25Z</time></trkpt><trkpt lat="45.41601124543761" lon="9.889250441344883"><ele>73.8</ele><time>2026-05-03T08:33:27Z</time></trkpt><trkpt lat="45.41590080627631" lon="9.889213943226746"><ele>73.4</ele><time>2026-05-03T08:33:29Z</time></trkpt><trkpt lat="45.41580245507436" lon="9.889170268304065"><ele>73.0</ele><time>2026-05-03T08:33:31Z</time></trkpt><trkpt lat="45.415701973654" lon="9.889125467794477"><ele>73.0</ele><time>2026-05-03T08:33:33Z</time></trkpt><trkpt lat="45.41560462610653" lon="9.889107580964636"><ele>73.0</ele><time>2026-05-03T08:33:35Z</time></trkpt><trkpt lat="45.41550176104421" lon="9.889040321794312"><ele>73.0</ele><time>2026-05-03T08:33:37Z</time></trkpt><trkpt lat="45.41539723040516" lon="9.889004727507986"><ele>73.0</ele><time>2026-05-03T08:33:39Z</time></trkpt><trkpt lat="45.41532764496388" lon="9.888985250718758"><ele>73.0</ele><time>2026-05-03T08:33:40Z</time></trkpt><trkpt lat="45.41526315773056" lon="9.888970289361302"><ele>72.8</ele><time>2026-05-03T08:33:41Z</time></trkpt><trkpt lat="45.41519592881196" lon="9.888950991435609"><ele>72.6</ele><time>2026-05-03T08:33:42Z</time></trkpt><trkpt lat="45.41507508149685" lon="9.888922106063013"><ele>72.4</ele><time>2026-05-03T08:33:44Z</time></trkpt><trkpt lat="45.41496846433571" lon="9.888893645411493"><ele>72.2</ele><time>2026-05-03T08:33:46Z</time></trkpt><trkpt lat="45.41487826134193" lon="9.888877445631184"><ele>72.0</ele><time>2026-05-03T08:33:48Z</time></trkpt><trkpt lat="45.41477235623423" lon="9.888846231864257"><ele>72.0</ele><time>2026-05-03T08:33:50Z</time></trkpt><trkpt lat="45.414659493072236" lon="9.888804901721182"><ele>72.0</ele><time>2026-05-03T08:33:52Z</time></trkpt><trkpt lat="45.41459380480721" lon="9.888791734205187"><ele>72.0</ele><time>2026-05-03T08:33:53Z</time></trkpt><trkpt lat="45.414524309810794" lon="9.888776565810037"><ele>72.0</ele><time>2026-05-03T08:33:54Z</time></trkpt><trkpt lat="45.414459725689646" lon="9.888773818742447"><ele>72.0</ele><time>2026-05-03T08:33:55Z</time></trkpt><trkpt lat="45.414349139579436" lon="9.888783795978078"><ele>72.0</ele><time>2026-05-03T08:33:57Z</time></trkpt><trkpt lat="45.4142219924037" lon="9.888792075515326"><ele>72.0</ele><time>2026-05-03T08:33:59Z</time></trkpt><trkpt lat="45.414114432301886" lon="9.888799882041415"><ele>72.0</ele><time>2026-05-03T08:34:01Z</time></trkpt><trkpt lat="45.41400883984877" lon="9.888783877527196"><ele>72.0</ele><time>2026-05-03T08:34:02.999Z</time></trkpt><trkpt lat="45.41389313799058" lon="9.888797696983321"><ele>72.0</ele><time>2026-05-03T08:34:04.999Z</time></trkpt><trkpt lat="45.41379257988721" lon="9.88880220983386"><ele>72.0</ele><time>2026-05-03T08:34:06.999Z</time></trkpt><trkpt lat="45.41372792322017" lon="9.888852255446919"><ele>72.0</ele><time>2026-05-03T08:34:08.999Z</time></trkpt><trkpt lat="45.413663730918174" lon="9.888896127567897"><ele>72.0</ele><time>2026-05-03T08:34:10.999Z</time></trkpt><trkpt lat="45.41359625075953" lon="9.888970566983245"><ele>72.0</ele><time>2026-05-03T08:34:12.999Z</time></trkpt><trkpt lat="45.41354783939825" lon="9.889050316117482"><ele>72.0</ele><time>2026-05-03T08:34:14.999Z</time></trkpt><trkpt lat="45.41348796073519" lon="9.889114924132691"><ele>72.0</ele><time>2026-05-03T08:34:17.999Z</time></trkpt><trkpt lat="45.4134174153623" lon="9.8890873485445"><ele>72.0</ele><time>2026-05-03T08:34:18.999Z</time></trkpt><trkpt lat="45.41328460893892" lon="9.889102018257269"><ele>72.0</ele><time>2026-05-03T08:34:20.999Z</time></trkpt><trkpt lat="45.413168272166935" lon="9.889133835342347"><ele>72.0</ele><time>2026-05-03T08:34:22.999Z</time></trkpt><trkpt lat="45.41306042822928" lon="9.889193652641037"><ele>72.0</ele><time>2026-05-03T08:34:24.999Z</time></trkpt><trkpt lat="45.41295745202301" lon="9.889268976014302"><ele>72.0</ele><time>2026-05-03T08:34:26.999Z</time></trkpt><trkpt lat="45.41285647804545" lon="9.88934655190784"><ele>71.8</ele><time>2026-05-03T08:34:28.999Z</time></trkpt><trkpt lat="45.41274507820736" lon="9.889390984707115"><ele>71.6</ele><time>2026-05-03T08:34:30.999Z</time></trkpt><trkpt lat="45.41265698184032" lon="9.889431908358056"><ele>71.39999999999999</ele><time>2026-05-03T08:34:32.999Z</time></trkpt><trkpt lat="45.41256050415059" lon="9.889501180272305"><ele>71.2</ele><time>2026-05-03T08:34:34.999Z</time></trkpt><trkpt lat="45.41246968451482" lon="9.889577041521488"><ele>71.0</ele><time>2026-05-03T08:34:36.999Z</time></trkpt><trkpt lat="45.41238048722282" lon="9.889651848956163"><ele>71.0</ele><time>2026-05-03T08:34:39Z</time></trkpt><trkpt lat="45.412289836285495" lon="9.889744414116874"><ele>71.0</ele><time>2026-05-03T08:34:41Z</time></trkpt><trkpt lat="45.41219987568263" lon="9.88984482913004"><ele>71.0</ele><time>2026-05-03T08:34:43Z</time></trkpt><trkpt lat="45.41211301261036" lon="9.88994647219827"><ele>71.0</ele><time>2026-05-03T08:34:45Z</time></trkpt><trkpt lat="45.412028925350015" lon="9.890038449328147"><ele>71.0</ele><time>2026-05-03T08:34:47Z</time></trkpt><trkpt lat="45.411957937548095" lon="9.890128477159086"><ele>70.6</ele><time>2026-05-03T08:34:49Z</time></trkpt><trkpt lat="45.411891763995385" lon="9.890200982438"><ele>70.19999999999999</ele><time>2026-05-03T08:34:51Z</time></trkpt><trkpt lat="45.41179872700693" lon="9.890247758280346"><ele>69.80000000000001</ele><time>2026-05-03T08:34:53Z</time></trkpt><trkpt lat="45.41168872333254" lon="9.890257805675601"><ele>69.4</ele><time>2026-05-03T08:34:55Z</time></trkpt><trkpt lat="45.411581011223674" lon="9.890274801075098"><ele>69.0</ele><time>2026-05-03T08:34:57Z</time></trkpt><trkpt lat="45.41147866222267" lon="9.890298223424287"><ele>69.0</ele><time>2026-05-03T08:34:59Z</time></trkpt><trkpt lat="45.411365983821064" lon="9.890318105658546"><ele>69.0</ele><time>2026-05-03T08:35:01Z</time></trkpt><trkpt lat="45.411257867441144" lon="9.8903270982231"><ele>69.0</ele><time>2026-05-03T08:35:03Z</time></trkpt><trkpt lat="45.411150991637044" lon="9.890353260293155"><ele>69.0</ele><time>2026-05-03T08:35:05Z</time></trkpt><trkpt lat="45.41104056618303" lon="9.8903911059845"><ele>69.0</ele><time>2026-05-03T08:35:07Z</time></trkpt><trkpt lat="45.41093976974647" lon="9.890430052774724"><ele>69.5</ele><time>2026-05-03T08:35:09Z</time></trkpt><trkpt lat="45.4108388235173" lon="9.89048568838762"><ele>70.0</ele><time>2026-05-03T08:35:11Z</time></trkpt><trkpt lat="45.41073635806518" lon="9.890566300566705"><ele>70.5</ele><time>2026-05-03T08:35:13Z</time></trkpt><trkpt lat="45.41063400687904" lon="9.890661891958356"><ele>71.0</ele><time>2026-05-03T08:35:15Z</time></trkpt><trkpt lat="45.41053392200157" lon="9.890740502667787"><ele>70.75</ele><time>2026-05-03T08:35:17Z</time></trkpt><trkpt lat="45.41043846991967" lon="9.89083722184078"><ele>70.5</ele><time>2026-05-03T08:35:19Z</time></trkpt><trkpt lat="45.41034643808435" lon="9.890945436387321"><ele>70.25</ele><time>2026-05-03T08:35:21Z</time></trkpt><trkpt lat="45.41025820657485" lon="9.89104270850861"><ele>70.0</ele><time>2026-05-03T08:35:23Z</time></trkpt><trkpt lat="45.41017986661075" lon="9.89116798245856"><ele>70.0</ele><time>2026-05-03T08:35:25Z</time></trkpt><trkpt lat="45.41010807188522" lon="9.891290030054225"><ele>70.0</ele><time>2026-05-03T08:35:27Z</time></trkpt><trkpt lat="45.410058016759656" lon="9.89139886009939"><ele>70.0</ele><time>2026-05-03T08:35:29Z</time></trkpt><trkpt lat="45.41001884225784" lon="9.891498264918727"><ele>70.0</ele><time>2026-05-03T08:35:31Z</time></trkpt><trkpt lat="45.40997881825118" lon="9.891584879195229"><ele>70.0</ele><time>2026-05-03T08:35:33Z</time></trkpt><trkpt lat="45.4099398974063" lon="9.891678466694199"><ele>70.0</ele><time>2026-05-03T08:35:35Z</time></trkpt><trkpt lat="45.40988583802949" lon="9.891803709210489"><ele>70.0</ele><time>2026-05-03T08:35:37Z</time></trkpt><trkpt lat="45.409834002917094" lon="9.891936746159374"><ele>70.0</ele><time>2026-05-03T08:35:39Z</time></trkpt><trkpt lat="45.40978373740107" lon="9.892076325589745"><ele>70.0</ele><time>2026-05-03T08:35:41Z</time></trkpt><trkpt lat="45.409731079512405" lon="9.89221112253678"><ele>70.0</ele><time>2026-05-03T08:35:43Z</time></trkpt><trkpt lat="45.40968092919618" lon="9.892349607400911"><ele>70.0</ele><time>2026-05-03T08:35:45Z</time></trkpt><trkpt lat="45.40963397295717" lon="9.892467287988561"><ele>70.0</ele><time>2026-05-03T08:35:47Z</time></trkpt><trkpt lat="45.409583115730996" lon="9.892570398915442"><ele>70.0</ele><time>2026-05-03T08:35:49Z</time></trkpt><trkpt lat="45.40951018001706" lon="9.892637174367154"><ele>70.0</ele><time>2026-05-03T08:35:51Z</time></trkpt><trkpt lat="45.40942590534447" lon="9.892687720669006"><ele>70.0</ele><time>2026-05-03T08:35:53Z</time></trkpt><trkpt lat="45.40934965071926" lon="9.89272669501106"><ele>70.0</ele><time>2026-05-03T08:35:55Z</time></trkpt><trkpt lat="45.40927276599213" lon="9.892754040539733"><ele>70.0</ele><time>2026-05-03T08:35:57Z</time></trkpt><trkpt lat="45.40920332712604" lon="9.89277472475084"><ele>70.4</ele><time>2026-05-03T08:35:59Z</time></trkpt><trkpt lat="45.40911681382558" lon="9.892801514006857"><ele>70.8</ele><time>2026-05-03T08:36:01Z</time></trkpt><trkpt lat="45.409034551697424" lon="9.892844810080508"><ele>71.2</ele><time>2026-05-03T08:36:02.999Z</time></trkpt><trkpt lat="45.408947877925684" lon="9.89291592522534"><ele>71.6</ele><time>2026-05-03T08:36:04.999Z</time></trkpt><trkpt lat="45.40884495780784" lon="9.892943110551"><ele>72.0</ele><time>2026-05-03T08:36:06.999Z</time></trkpt><trkpt lat="45.40874610886323" lon="9.892919721125397"><ele>71.2</ele><time>2026-05-03T08:36:08.999Z</time></trkpt><trkpt lat="45.408650168565636" lon="9.892934133546664"><ele>70.4</ele><time>2026-05-03T08:36:10.999Z</time></trkpt><trkpt lat="45.40854199307423" lon="9.892928708202598"><ele>69.6</ele><time>2026-05-03T08:36:12.999Z</time></trkpt><trkpt lat="45.408451538695246" lon="9.892892411611111"><ele>68.8</ele><time>2026-05-03T08:36:14.999Z</time></trkpt><trkpt lat="45.4083662840683" lon="9.892867979226354"><ele>68.0</ele><time>2026-05-03T08:36:16.999Z</time></trkpt><trkpt lat="45.4082716332993" lon="9.892849079078589"><ele>68.0</ele><time>2026-05-03T08:36:18.999Z</time></trkpt><trkpt lat="45.4081930083051" lon="9.892818037730228"><ele>68.0</ele><time>2026-05-03T08:36:20.999Z</time></trkpt><trkpt lat="45.408151674250966" lon="9.89273213529968"><ele>68.0</ele><time>2026-05-03T08:36:22.999Z</time></trkpt><trkpt lat="45.408120631494064" lon="9.892644630826656"><ele>68.0</ele><time>2026-05-03T08:36:24.999Z</time></trkpt><trkpt lat="45.40810264874001" lon="9.892518845634719"><ele>68.0</ele><time>2026-05-03T08:36:26.999Z</time></trkpt><trkpt lat="45.408088194618706" lon="9.892382534882989"><ele>68.0</ele><time>2026-05-03T08:36:28.999Z</time></trkpt><trkpt lat="45.40805256793413" lon="9.892241641171275"><ele>67.8</ele><time>2026-05-03T08:36:30.999Z</time></trkpt><trkpt lat="45.40800795183998" lon="9.892100951934244"><ele>67.6</ele><time>2026-05-03T08:36:32.999Z</time></trkpt><trkpt lat="45.407963992194766" lon="9.891953653917222"><ele>67.4</ele><time>2026-05-03T08:36:34.999Z</time></trkpt><trkpt lat="45.40793507547945" lon="9.891818857914993"><ele>67.2</ele><time>2026-05-03T08:36:36.999Z</time></trkpt><trkpt lat="45.40791314265517" lon="9.891674744413457"><ele>67.0</ele><time>2026-05-03T08:36:38.999Z</time></trkpt><trkpt lat="45.40785433643352" lon="9.891542005807391"><ele>67.5</ele><time>2026-05-03T08:36:40.999Z</time></trkpt><trkpt lat="45.407791020802" lon="9.891432099802447"><ele>68.0</ele><time>2026-05-03T08:36:42.999Z</time></trkpt><trkpt lat="45.40774936854631" lon="9.891320787655124"><ele>68.5</ele><time>2026-05-03T08:36:45Z</time></trkpt><trkpt lat="45.40772307046989" lon="9.891212732870116"><ele>69.0</ele><time>2026-05-03T08:36:47Z</time></trkpt><trkpt lat="45.40765669868808" lon="9.891132602652148"><ele>69.5</ele><time>2026-05-03T08:36:49Z</time></trkpt><trkpt lat="45.407597971358285" lon="9.891030117084586"><ele>70.0</ele><time>2026-05-03T08:36:51Z</time></trkpt><trkpt lat="45.40754484999848" lon="9.89089395621642"><ele>70.16666666666666</ele><time>2026-05-03T08:36:53Z</time></trkpt><trkpt lat="45.40749714658543" lon="9.890763337072661"><ele>70.33333333333333</ele><time>2026-05-03T08:36:55Z</time></trkpt><trkpt lat="45.40747007483301" lon="9.890653517974881"><ele>70.5</ele><time>2026-05-03T08:36:57Z</time></trkpt><trkpt lat="45.407441016936595" lon="9.890571580689205"><ele>70.66666666666667</ele><time>2026-05-03T08:36:59Z</time></trkpt><trkpt lat="45.40736855145643" lon="9.890509713656648"><ele>70.83333333333334</ele><time>2026-05-03T08:37:02Z</time></trkpt><trkpt lat="45.407307910855906" lon="9.890479734458058"><ele>71.0</ele><time>2026-05-03T08:37:05Z</time></trkpt><trkpt lat="45.407253301758644" lon="9.890424037310138"><ele>71.0</ele><time>2026-05-03T08:37:07Z</time></trkpt><trkpt lat="45.407201861885184" lon="9.890359854782481"><ele>71.0</ele><time>2026-05-03T08:37:09Z</time></trkpt><trkpt lat="45.407120617163635" lon="9.89032054109047"><ele>71.0</ele><time>2026-05-03T08:37:12Z</time></trkpt><trkpt lat="45.40706860626154" lon="9.890266502959074"><ele>71.0</ele><time>2026-05-03T08:37:16Z</time></trkpt><trkpt lat="45.406977373096744" lon="9.890225187289085"><ele>71.0</ele><time>2026-05-03T08:37:19Z</time></trkpt><trkpt lat="45.406904061183106" lon="9.89017041046502"><ele>71.0</ele><time>2026-05-03T08:37:21Z</time></trkpt><trkpt lat="45.406804366072436" lon="9.890127957888176"><ele>70.8</ele><time>2026-05-03T08:37:23Z</time></trkpt><trkpt lat="45.40670905660591" lon="9.890081615642892"><ele>70.6</ele><time>2026-05-03T08:37:25Z</time></trkpt><trkpt lat="45.40660999629124" lon="9.890084274221632"><ele>70.4</ele><time>2026-05-03T08:37:27Z</time></trkpt><trkpt lat="45.40650980972831" lon="9.890022157335649"><ele>70.2</ele><time>2026-05-03T08:37:31Z</time></trkpt><trkpt lat="45.40645073117461" lon="9.889962328319912"><ele>70.0</ele><time>2026-05-03T08:37:32Z</time></trkpt><trkpt lat="45.40637024503756" lon="9.88990706670515"><ele>69.85714285714286</ele><time>2026-05-03T08:37:34Z</time></trkpt><trkpt lat="45.406297289088016" lon="9.889938914604123"><ele>69.71428571428572</ele><time>2026-05-03T08:37:36Z</time></trkpt><trkpt lat="45.406240827148615" lon="9.889987898317267"><ele>69.57142857142857</ele><time>2026-05-03T08:37:38Z</time></trkpt><trkpt lat="45.40617196466482" lon="9.890012399367924"><ele>69.42857142857143</ele><time>2026-05-03T08:37:41Z</time></trkpt><trkpt lat="45.406102911211335" lon="9.890026239039926"><ele>69.28571428571429</ele><time>2026-05-03T08:37:44Z</time></trkpt><trkpt lat="45.40603396549504" lon="9.88998154593403"><ele>69.14285714285714</ele><time>2026-05-03T08:37:49Z</time></trkpt><trkpt lat="45.40595748173011" lon="9.889936505594228"><ele>69.0</ele><time>2026-05-03T08:37:52Z</time></trkpt><trkpt lat="45.405945163512506" lon="9.889848280115952"><ele>69.0</ele><time>2026-05-03T08:37:56Z</time></trkpt><trkpt lat="45.40600211867754" lon="9.889803637251514"><ele>69.0</ele><time>2026-05-03T08:37:58Z</time></trkpt><trkpt lat="45.406071533788875" lon="9.889761075714992"><ele>69.0</ele><time>2026-05-03T08:38:00Z</time></trkpt><trkpt lat="45.40611173665112" lon="9.889666005408213"><ele>69.0</ele><time>2026-05-03T08:38:03Z</time></trkpt><trkpt lat="45.40611776755761" lon="9.889560056534654"><ele>69.0</ele><time>2026-05-03T08:38:04.999Z</time></trkpt><trkpt lat="45.406113542522746" lon="9.889432220988217"><ele>69.0</ele><time>2026-05-03T08:38:06.999Z</time></trkpt><trkpt lat="45.40613157087516" lon="9.889302377296827"><ele>69.0</ele><time>2026-05-03T08:38:08.999Z</time></trkpt><trkpt lat="45.40614288782176" lon="9.8891727225542"><ele>69.0</ele><time>2026-05-03T08:38:10.999Z</time></trkpt><trkpt lat="45.40614612098014" lon="9.889066996685196"><ele>69.0</ele><time>2026-05-03T08:38:12.999Z</time></trkpt><trkpt lat="45.406161275314346" lon="9.888935822390934"><ele>69.0</ele><time>2026-05-03T08:38:14.999Z</time></trkpt><trkpt lat="45.4061663584881" lon="9.88882977955531"><ele>69.0</ele><time>2026-05-03T08:38:16.999Z</time></trkpt><trkpt lat="45.406194329269816" lon="9.888730080076089"><ele>69.0</ele><time>2026-05-03T08:38:18.999Z</time></trkpt><trkpt lat="45.4062112536725" lon="9.888604724599"><ele>69.0</ele><time>2026-05-03T08:38:20.999Z</time></trkpt><trkpt lat="45.40622807644281" lon="9.888493576224691"><ele>69.0</ele><time>2026-05-03T08:38:22.999Z</time></trkpt><trkpt lat="45.406242888352146" lon="9.88837537200808"><ele>69.0</ele><time>2026-05-03T08:38:24.999Z</time></trkpt><trkpt lat="45.406257925068296" lon="9.888242410806516"><ele>69.0</ele><time>2026-05-03T08:38:26.999Z</time></trkpt><trkpt lat="45.40626948147807" lon="9.88810093719067"><ele>69.0</ele><time>2026-05-03T08:38:28.999Z</time></trkpt><trkpt lat="45.4062310963653" lon="9.887966597603137"><ele>68.8</ele><time>2026-05-03T08:38:30.999Z</time></trkpt><trkpt lat="45.406175118878" lon="9.887856422379729"><ele>68.60000000000001</ele><time>2026-05-03T08:38:32.999Z</time></trkpt><trkpt lat="45.40612610212253" lon="9.88775326388779"><ele>68.4</ele><time>2026-05-03T08:38:34.999Z</time></trkpt><trkpt lat="45.406075512987286" lon="9.887633550835643"><ele>68.2</ele><time>2026-05-03T08:38:36.999Z</time></trkpt><trkpt lat="45.40600125311239" lon="9.8875188881356"><ele>68.0</ele><time>2026-05-03T08:38:38.999Z</time></trkpt><trkpt lat="45.40593120850928" lon="9.887416682767592"><ele>68.0</ele><time>2026-05-03T08:38:40.999Z</time></trkpt><trkpt lat="45.40585769694788" lon="9.887311500248144"><ele>68.0</ele><time>2026-05-03T08:38:42.999Z</time></trkpt><trkpt lat="45.405779928579484" lon="9.887200591236873"><ele>68.0</ele><time>2026-05-03T08:38:44.999Z</time></trkpt><trkpt lat="45.40569759245383" lon="9.887092657966631"><ele>68.0</ele><time>2026-05-03T08:38:46.999Z</time></trkpt><trkpt lat="45.4056084552445" lon="9.886984423492406"><ele>68.0</ele><time>2026-05-03T08:38:48.999Z</time></trkpt><trkpt lat="45.40551553469055" lon="9.886867454789892"><ele>68.2</ele><time>2026-05-03T08:38:51Z</time></trkpt><trkpt lat="45.40542051217011" lon="9.886766324044755"><ele>68.4</ele><time>2026-05-03T08:38:53Z</time></trkpt><trkpt lat="45.405326180343835" lon="9.88668392842787"><ele>68.60000000000001</ele><time>2026-05-03T08:38:55Z</time></trkpt><trkpt lat="45.405239110348795" lon="9.886607389927995"><ele>68.8</ele><time>2026-05-03T08:38:57Z</time></trkpt><trkpt lat="45.405141801454235" lon="9.886529869209966"><ele>69.0</ele><time>2026-05-03T08:38:59Z</time></trkpt><trkpt lat="45.4050384698571" lon="9.886451866568887"><ele>69.0</ele><time>2026-05-03T08:39:01Z</time></trkpt><trkpt lat="45.4049830051246" lon="9.88640207938342"><ele>69.0</ele><time>2026-05-03T08:39:02Z</time></trkpt><trkpt lat="45.40492506059955" lon="9.88635339302813"><ele>69.0</ele><time>2026-05-03T08:39:03Z</time></trkpt><trkpt lat="45.4048701706896" lon="9.886304910317588"><ele>69.0</ele><time>2026-05-03T08:39:04Z</time></trkpt><trkpt lat="45.40475875832209" lon="9.88622111866911"><ele>69.0</ele><time>2026-05-03T08:39:06Z</time></trkpt><trkpt lat="45.4047030029786" lon="9.886174911426158"><ele>69.0</ele><time>2026-05-03T08:39:07Z</time></trkpt><trkpt lat="45.404594989986435" lon="9.886083603759"><ele>69.0</ele><time>2026-05-03T08:39:09Z</time></trkpt><trkpt lat="45.40454176959762" lon="9.88603339459095"><ele>69.0</ele><time>2026-05-03T08:39:10Z</time></trkpt><trkpt lat="45.40448410962932" lon="9.885987136568447"><ele>69.0</ele><time>2026-05-03T08:39:11Z</time></trkpt><trkpt lat="45.404429178615125" lon="9.88594099804541"><ele>69.0</ele><time>2026-05-03T08:39:12Z</time></trkpt><trkpt lat="45.40437300635929" lon="9.885891980239187"><ele>69.0</ele><time>2026-05-03T08:39:13Z</time></trkpt><trkpt lat="45.40428021485452" lon="9.885799892214884"><ele>69.0</ele><time>2026-05-03T08:39:15Z</time></trkpt><trkpt lat="45.40418178259681" lon="9.885721449724223"><ele>69.0</ele><time>2026-05-03T08:39:17Z</time></trkpt><trkpt lat="45.40408556752324" lon="9.88564255283939"><ele>69.0</ele><time>2026-05-03T08:39:19Z</time></trkpt><trkpt lat="45.403979113536046" lon="9.88555980347313"><ele>69.0</ele><time>2026-05-03T08:39:21Z</time></trkpt><trkpt lat="45.40392521489806" lon="9.885513335266834"><ele>69.0</ele><time>2026-05-03T08:39:22Z</time></trkpt><trkpt lat="45.40386975242091" lon="9.885463987614651"><ele>69.0</ele><time>2026-05-03T08:39:23Z</time></trkpt><trkpt lat="45.40381138545742" lon="9.885412585875793"><ele>69.0</ele><time>2026-05-03T08:39:24Z</time></trkpt><trkpt lat="45.403700412533716" lon="9.885332882009967"><ele>69.2</ele><time>2026-05-03T08:39:26Z</time></trkpt><trkpt lat="45.403594367887365" lon="9.885244034312024"><ele>69.4</ele><time>2026-05-03T08:39:28Z</time></trkpt><trkpt lat="45.40353959447101" lon="9.885199489649915"><ele>69.6</ele><time>2026-05-03T08:39:29Z</time></trkpt><trkpt lat="45.403446538223946" lon="9.885088650110166"><ele>69.8</ele><time>2026-05-03T08:39:31Z</time></trkpt><trkpt lat="45.40338841713485" lon="9.884954259229243"><ele>70.0</ele><time>2026-05-03T08:39:33Z</time></trkpt><trkpt lat="45.40335925865508" lon="9.884803346514865"><ele>70.2</ele><time>2026-05-03T08:39:35Z</time></trkpt><trkpt lat="45.40333850371073" lon="9.884649985426085"><ele>70.4</ele><time>2026-05-03T08:39:37Z</time></trkpt><trkpt lat="45.40331302716798" lon="9.884502240734637"><ele>70.6</ele><time>2026-05-03T08:39:39Z</time></trkpt><trkpt lat="45.40328555132346" lon="9.88434996485404"><ele>70.8</ele><time>2026-05-03T08:39:41Z</time></trkpt><trkpt lat="45.40326012668545" lon="9.884204554286194"><ele>71.0</ele><time>2026-05-03T08:39:43Z</time></trkpt><trkpt lat="45.40323427568966" lon="9.884067569535423"><ele>71.66666666666667</ele><time>2026-05-03T08:39:45Z</time></trkpt><trkpt lat="45.403200528738076" lon="9.88394113405477"><ele>72.33333333333334</ele><time>2026-05-03T08:39:47Z</time></trkpt><trkpt lat="45.403167872127646" lon="9.88382917176157"><ele>73.0</ele><time>2026-05-03T08:39:49Z</time></trkpt><trkpt lat="45.403152605453556" lon="9.88372044117244"><ele>73.66666666666667</ele><time>2026-05-03T08:39:51Z</time></trkpt><trkpt lat="45.403129127726736" lon="9.883616824023896"><ele>74.33333333333333</ele><time>2026-05-03T08:39:53Z</time></trkpt><trkpt lat="45.40311948952345" lon="9.88351240527617"><ele>75.0</ele><time>2026-05-03T08:39:56Z</time></trkpt><trkpt lat="45.40311195510862" lon="9.88340975752453"><ele>75.66666666666667</ele><time>2026-05-03T08:39:59Z</time></trkpt><trkpt lat="45.4031096574634" lon="9.883313613375144"><ele>76.33333333333333</ele><time>2026-05-03T08:40:01Z</time></trkpt><trkpt lat="45.40310624117006" lon="9.88318854668066"><ele>77.0</ele><time>2026-05-03T08:40:04Z</time></trkpt><trkpt lat="45.40310236764941" lon="9.883054246807705"><ele>77.66666666666666</ele><time>2026-05-03T08:40:07Z</time></trkpt><trkpt lat="45.4031022658007" lon="9.882937186973377"><ele>78.33333333333333</ele><time>2026-05-03T08:40:09Z</time></trkpt><trkpt lat="45.403093851219936" lon="9.882807728395965"><ele>79.0</ele><time>2026-05-03T08:40:11Z</time></trkpt><trkpt lat="45.403093270497614" lon="9.882651148437692"><ele>78.75</ele><time>2026-05-03T08:40:12.999Z</time></trkpt><trkpt lat="45.40309932781098" lon="9.882484576322081"><ele>78.5</ele><time>2026-05-03T08:40:14.999Z</time></trkpt><trkpt lat="45.40310531734" lon="9.882303020442484"><ele>78.25</ele><time>2026-05-03T08:40:16.999Z</time></trkpt><trkpt lat="45.403111819079086" lon="9.882138660122223"><ele>78.0</ele><time>2026-05-03T08:40:18.999Z</time></trkpt><trkpt lat="45.40312558646674" lon="9.88198097002796"><ele>78.0</ele><time>2026-05-03T08:40:20.999Z</time></trkpt><trkpt lat="45.40312805956877" lon="9.881805806303774"><ele>78.0</ele><time>2026-05-03T08:40:22.999Z</time></trkpt><trkpt lat="45.40312088593679" lon="9.881635918543385"><ele>78.0</ele><time>2026-05-03T08:40:24.999Z</time></trkpt><trkpt lat="45.403115031247815" lon="9.881471946057198"><ele>78.0</ele><time>2026-05-03T08:40:26.999Z</time></trkpt><trkpt lat="45.403108811038315" lon="9.881314624370145"><ele>78.0</ele><time>2026-05-03T08:40:28.999Z</time></trkpt><trkpt lat="45.40310145926355" lon="9.881155875306863"><ele>78.0</ele><time>2026-05-03T08:40:30.999Z</time></trkpt><trkpt lat="45.40310445205418" lon="9.880998217818027"><ele>78.0</ele><time>2026-05-03T08:40:32.999Z</time></trkpt><trkpt lat="45.40309686504313" lon="9.880859711433331"><ele>78.0</ele><time>2026-05-03T08:40:34.999Z</time></trkpt><trkpt lat="45.403090235800256" lon="9.880728065164801"><ele>78.0</ele><time>2026-05-03T08:40:36.999Z</time></trkpt><trkpt lat="45.40308531580614" lon="9.88058847486181"><ele>78.16666666666667</ele><time>2026-05-03T08:40:38.999Z</time></trkpt><trkpt lat="45.4030774788135" lon="9.88045860683955"><ele>78.33333333333333</ele><time>2026-05-03T08:40:40.999Z</time></trkpt><trkpt lat="45.40305347567604" lon="9.880358415786382"><ele>78.5</ele><time>2026-05-03T08:40:42.999Z</time></trkpt><trkpt lat="45.40300416444878" lon="9.880275057170818"><ele>78.66666666666666</ele><time>2026-05-03T08:40:44.999Z</time></trkpt><trkpt lat="45.40296179028165" lon="9.88015863514496"><ele>78.83333333333333</ele><time>2026-05-03T08:40:46.999Z</time></trkpt><trkpt lat="45.40293986267687" lon="9.880029922763384"><ele>79.0</ele><time>2026-05-03T08:40:48.999Z</time></trkpt><trkpt lat="45.40293216560764" lon="9.879901523211121"><ele>79.0</ele><time>2026-05-03T08:40:50.999Z</time></trkpt><trkpt lat="45.402892521685345" lon="9.879788789984225"><ele>79.0</ele><time>2026-05-03T08:40:52.999Z</time></trkpt><trkpt lat="45.40285389894305" lon="9.879659654880202"><ele>79.0</ele><time>2026-05-03T08:40:54.999Z</time></trkpt><trkpt lat="45.402847120680946" lon="9.87953058266172"><ele>79.0</ele><time>2026-05-03T08:40:57Z</time></trkpt><trkpt lat="45.40284044848481" lon="9.87940008844978"><ele>79.0</ele><time>2026-05-03T08:40:59Z</time></trkpt><trkpt lat="45.402781824223844" lon="9.879328815061093"><ele>79.0</ele><time>2026-05-03T08:41:01Z</time></trkpt><trkpt lat="45.40266891337785" lon="9.879330756415715"><ele>79.0</ele><time>2026-05-03T08:41:03Z</time></trkpt><trkpt lat="45.4025643336917" lon="9.879349940237566"><ele>79.0</ele><time>2026-05-03T08:41:05Z</time></trkpt><trkpt lat="45.40247125217306" lon="9.879400787650358"><ele>79.0</ele><time>2026-05-03T08:41:07Z</time></trkpt><trkpt lat="45.40237366442257" lon="9.879415587931849"><ele>79.0</ele><time>2026-05-03T08:41:09Z</time></trkpt><trkpt lat="45.40229570133163" lon="9.879333407734716"><ele>79.0</ele><time>2026-05-03T08:41:11Z</time></trkpt><trkpt lat="45.4022807504028" lon="9.879192085308373"><ele>78.8</ele><time>2026-05-03T08:41:13Z</time></trkpt><trkpt lat="45.402278461114626" lon="9.879052315473816"><ele>78.60000000000001</ele><time>2026-05-03T08:41:15Z</time></trkpt><trkpt lat="45.40225812401177" lon="9.878906262448268"><ele>78.4</ele><time>2026-05-03T08:41:17Z</time></trkpt><trkpt lat="45.40223351001208" lon="9.878760593656779"><ele>78.2</ele><time>2026-05-03T08:41:19Z</time></trkpt><trkpt lat="45.402219972243415" lon="9.878632759178352"><ele>78.0</ele><time>2026-05-03T08:41:21Z</time></trkpt><trkpt lat="45.40219600701978" lon="9.878506327337963"><ele>78.0</ele><time>2026-05-03T08:41:23Z</time></trkpt><trkpt lat="45.40217556898634" lon="9.878370499537134"><ele>78.0</ele><time>2026-05-03T08:41:25Z</time></trkpt><trkpt lat="45.40215111627989" lon="9.878241380180695"><ele>78.0</ele><time>2026-05-03T08:41:27Z</time></trkpt><trkpt lat="45.40213185734335" lon="9.878107760938324"><ele>78.0</ele><time>2026-05-03T08:41:29Z</time></trkpt><trkpt lat="45.402110188262654" lon="9.877972297009109"><ele>78.0</ele><time>2026-05-03T08:41:31Z</time></trkpt><trkpt lat="45.40209511677569" lon="9.877844208406477"><ele>78.0</ele><time>2026-05-03T08:41:33Z</time></trkpt><trkpt lat="45.40207742636397" lon="9.877712218053553"><ele>78.0</ele><time>2026-05-03T08:41:35Z</time></trkpt><trkpt lat="45.40206549964223" lon="9.87758874332825"><ele>78.0</ele><time>2026-05-03T08:41:37Z</time></trkpt><trkpt lat="45.4020135454658" lon="9.877499579986175"><ele>78.0</ele><time>2026-05-03T08:41:39Z</time></trkpt><trkpt lat="45.40191454054139" lon="9.877507120798477"><ele>78.0</ele><time>2026-05-03T08:41:41Z</time></trkpt><trkpt lat="45.40182100346692" lon="9.877560316798277"><ele>78.0</ele><time>2026-05-03T08:41:43Z</time></trkpt><trkpt lat="45.40173090913305" lon="9.877630633095468"><ele>78.0</ele><time>2026-05-03T08:41:45Z</time></trkpt><trkpt lat="45.40163983454511" lon="9.877655504875715"><ele>78.0</ele><time>2026-05-03T08:41:47Z</time></trkpt><trkpt lat="45.401562402671345" lon="9.87770646998319"><ele>78.0</ele><time>2026-05-03T08:41:49Z</time></trkpt><trkpt lat="45.40148565143523" lon="9.877755578430781"><ele>78.0</ele><time>2026-05-03T08:41:51Z</time></trkpt><trkpt lat="45.40140653454538" lon="9.87781312237551"><ele>78.4</ele><time>2026-05-03T08:41:53Z</time></trkpt><trkpt lat="45.40132387792717" lon="9.877861919432865"><ele>78.8</ele><time>2026-05-03T08:41:55Z</time></trkpt><trkpt lat="45.40123129205035" lon="9.877898486034207"><ele>79.2</ele><time>2026-05-03T08:41:57Z</time></trkpt><trkpt lat="45.40114635234797" lon="9.877944264779616"><ele>79.6</ele><time>2026-05-03T08:41:59Z</time></trkpt><trkpt lat="45.401066453397" lon="9.878011509108195"><ele>80.0</ele><time>2026-05-03T08:42:01Z</time></trkpt><trkpt lat="45.4009778712546" lon="9.878072113247654"><ele>80.0</ele><time>2026-05-03T08:42:03Z</time></trkpt><trkpt lat="45.400870785202855" lon="9.87814341019262"><ele>80.0</ele><time>2026-05-03T08:42:05Z</time></trkpt><trkpt lat="45.40076934724193" lon="9.87820282619611"><ele>80.0</ele><time>2026-05-03T08:42:07Z</time></trkpt><trkpt lat="45.400685324486" lon="9.878244986591573"><ele>80.0</ele><time>2026-05-03T08:42:09Z</time></trkpt><trkpt lat="45.400601013220715" lon="9.878300582944005"><ele>80.0</ele><time>2026-05-03T08:42:11Z</time></trkpt><trkpt lat="45.400502633350264" lon="9.878328467679893"><ele>79.83333333333334</ele><time>2026-05-03T08:42:13Z</time></trkpt><trkpt lat="45.40041038841183" lon="9.878357504445285"><ele>79.66666666666667</ele><time>2026-05-03T08:42:14.999Z</time></trkpt><trkpt lat="45.40031620700053" lon="9.878337000237751"><ele>79.5</ele><time>2026-05-03T08:42:16.999Z</time></trkpt><trkpt lat="45.400266462333256" lon="9.878221864281416"><ele>79.33333333333333</ele><time>2026-05-03T08:42:18.999Z</time></trkpt><trkpt lat="45.40021861985966" lon="9.878110621049677"><ele>79.16666666666666</ele><time>2026-05-03T08:42:20.999Z</time></trkpt><trkpt lat="45.400191341505824" lon="9.878028569634461"><ele>79.0</ele><time>2026-05-03T08:42:48.999Z</time></trkpt><trkpt lat="45.40015855645761" lon="9.87792145680562"><ele>79.0</ele><time>2026-05-03T08:42:51.999Z</time></trkpt><trkpt lat="45.400092974820474" lon="9.877853312412022"><ele>79.0</ele><time>2026-05-03T08:42:53.999Z</time></trkpt><trkpt lat="45.400042058573646" lon="9.877746396238456"><ele>79.0</ele><time>2026-05-03T08:42:55.999Z</time></trkpt><trkpt lat="45.40005347968567" lon="9.877638917778837"><ele>79.0</ele><time>2026-05-03T08:42:57.999Z</time></trkpt><trkpt lat="45.40006507233642" lon="9.87753544607794"><ele>79.0</ele><time>2026-05-03T08:42:59.999Z</time></trkpt><trkpt lat="45.400082758146574" lon="9.877438353031202"><ele>79.0</ele><time>2026-05-03T08:43:02Z</time></trkpt><trkpt lat="45.40010703778679" lon="9.877341206252005"><ele>79.16666666666666</ele><time>2026-05-03T08:43:04Z</time></trkpt><trkpt lat="45.40010319707472" lon="9.87722561828514"><ele>79.33333333333333</ele><time>2026-05-03T08:43:06Z</time></trkpt><trkpt lat="45.40012328981816" lon="9.877109009174312"><ele>79.5</ele><time>2026-05-03T08:43:08Z</time></trkpt><trkpt lat="45.4001916479966" lon="9.877019825448485"><ele>79.66666666666667</ele><time>2026-05-03T08:43:10Z</time></trkpt><trkpt lat="45.400250111167175" lon="9.876939940213685"><ele>79.83333333333334</ele><time>2026-05-03T08:43:12Z</time></trkpt><trkpt lat="45.40030789124758" lon="9.876870116356166"><ele>80.0</ele><time>2026-05-03T08:43:14Z</time></trkpt><trkpt lat="45.40034107634645" lon="9.876764626229493"><ele>80.66666666666667</ele><time>2026-05-03T08:43:16Z</time></trkpt><trkpt lat="45.400370647604845" lon="9.876676136905182"><ele>81.33333333333334</ele><time>2026-05-03T08:43:18Z</time></trkpt><trkpt lat="45.40038821996224" lon="9.876569032542793"><ele>82.0</ele><time>2026-05-03T08:43:20Z</time></trkpt><trkpt lat="45.400390457144994" lon="9.876475968919628"><ele>82.66666666666667</ele><time>2026-05-03T08:43:22Z</time></trkpt><trkpt lat="45.40039197400226" lon="9.876381587212556"><ele>83.33333333333333</ele><time>2026-05-03T08:43:24Z</time></trkpt><trkpt lat="45.40039525946728" lon="9.876258377906332"><ele>84.0</ele><time>2026-05-03T08:43:26Z</time></trkpt><trkpt lat="45.400362262481735" lon="9.876146367365722"><ele>84.0</ele><time>2026-05-03T08:43:28Z</time></trkpt><trkpt lat="45.40035559720844" lon="9.876026472722018"><ele>84.0</ele><time>2026-05-03T08:43:30Z</time></trkpt><trkpt lat="45.40034843259194" lon="9.875875652227593"><ele>84.0</ele><time>2026-05-03T08:43:32Z</time></trkpt><trkpt lat="45.40033848500347" lon="9.875747028995463"><ele>84.0</ele><time>2026-05-03T08:43:34Z</time></trkpt><trkpt lat="45.40034335965435" lon="9.875628024254652"><ele>84.0</ele><time>2026-05-03T08:43:36Z</time></trkpt><trkpt lat="45.40037434337409" lon="9.875536242149694"><ele>84.0</ele><time>2026-05-03T08:43:38Z</time></trkpt><trkpt lat="45.40043795490544" lon="9.875526430921298"><ele>83.75</ele><time>2026-05-03T08:43:40Z</time></trkpt><trkpt lat="45.40051612955741" lon="9.875525808888835"><ele>83.5</ele><time>2026-05-03T08:43:42Z</time></trkpt><trkpt lat="45.40057830468505" lon="9.875503348015826"><ele>83.25</ele><time>2026-05-03T08:43:44Z</time></trkpt><trkpt lat="45.400763939501346" lon="9.875490090228855"><ele>83.0</ele><time>2026-05-03T08:43:48Z</time></trkpt><trkpt lat="45.400958155612194" lon="9.875472788410422"><ele>83.0</ele><time>2026-05-03T08:43:53Z</time></trkpt><trkpt lat="45.401020358259835" lon="9.8754230058126"><ele>83.0</ele><time>2026-05-03T08:43:55Z</time></trkpt><trkpt lat="45.401091897551844" lon="9.875343038191044"><ele>83.0</ele><time>2026-05-03T08:43:57Z</time></trkpt><trkpt lat="45.40116222781694" lon="9.875271440882084"><ele>83.0</ele><time>2026-05-03T08:43:59Z</time></trkpt><trkpt lat="45.401241629784316" lon="9.875190265117757"><ele>83.0</ele><time>2026-05-03T08:44:01Z</time></trkpt><trkpt lat="45.40130293437647" lon="9.875101261022213"><ele>83.0</ele><time>2026-05-03T08:44:03Z</time></trkpt><trkpt lat="45.40133720265065" lon="9.874983501464817"><ele>82.80000000000001</ele><time>2026-05-03T08:44:05Z</time></trkpt><trkpt lat="45.40134271290739" lon="9.874879630127424"><ele>82.6</ele><time>2026-05-03T08:44:07Z</time></trkpt><trkpt lat="45.4013536751059" lon="9.874741077496273"><ele>82.4</ele><time>2026-05-03T08:44:09Z</time></trkpt><trkpt lat="45.40136635807468" lon="9.874605958146997"><ele>82.19999999999999</ele><time>2026-05-03T08:44:11Z</time></trkpt><trkpt lat="45.40137731562957" lon="9.874476466214324"><ele>82.0</ele><time>2026-05-03T08:44:13Z</time></trkpt><trkpt lat="45.401381159627846" lon="9.874339907882378"><ele>82.19999999999999</ele><time>2026-05-03T08:44:15Z</time></trkpt><trkpt lat="45.40138603186849" lon="9.874207049599272"><ele>82.4</ele><time>2026-05-03T08:44:17Z</time></trkpt><trkpt lat="45.40139067280816" lon="9.874070194577092"><ele>82.6</ele><time>2026-05-03T08:44:19Z</time></trkpt><trkpt lat="45.40139766577809" lon="9.873933506749381"><ele>82.80000000000001</ele><time>2026-05-03T08:44:21Z</time></trkpt><trkpt lat="45.40139863634194" lon="9.873797234162875"><ele>83.0</ele><time>2026-05-03T08:44:23Z</time></trkpt><trkpt lat="45.40139948808957" lon="9.873661116973036"><ele>83.0</ele><time>2026-05-03T08:44:24.999Z</time></trkpt><trkpt lat="45.40139696067979" lon="9.873527368394555"><ele>83.0</ele><time>2026-05-03T08:44:26.999Z</time></trkpt><trkpt lat="45.401399550939175" lon="9.87339198605362"><ele>83.0</ele><time>2026-05-03T08:44:28.999Z</time></trkpt><trkpt lat="45.40141423323681" lon="9.8732668552381"><ele>83.0</ele><time>2026-05-03T08:44:30.999Z</time></trkpt><trkpt lat="45.401373167620775" lon="9.873125821731373"><ele>83.0</ele><time>2026-05-03T08:44:32.999Z</time></trkpt><trkpt lat="45.40135894691232" lon="9.873000211662989"><ele>83.0</ele><time>2026-05-03T08:44:34.999Z</time></trkpt><trkpt lat="45.401365378620014" lon="9.872873269145291"><ele>83.0</ele><time>2026-05-03T08:44:36.999Z</time></trkpt><trkpt lat="45.40133829559479" lon="9.872734918389748"><ele>83.0</ele><time>2026-05-03T08:44:38.999Z</time></trkpt><trkpt lat="45.401312874047996" lon="9.872598567903747"><ele>83.0</ele><time>2026-05-03T08:44:40.999Z</time></trkpt><trkpt lat="45.40129371286473" lon="9.872467386268564"><ele>83.0</ele><time>2026-05-03T08:44:42.999Z</time></trkpt><trkpt lat="45.40126962312203" lon="9.872354085326602"><ele>83.66666666666667</ele><time>2026-05-03T08:44:44.999Z</time></trkpt><trkpt lat="45.40124856665772" lon="9.872246017039213"><ele>84.33333333333334</ele><time>2026-05-03T08:44:46.999Z</time></trkpt><trkpt lat="45.40123773232532" lon="9.872111059213378"><ele>85.0</ele><time>2026-05-03T08:44:48.999Z</time></trkpt><trkpt lat="45.40118827832275" lon="9.87203264909824"><ele>85.66666666666667</ele><time>2026-05-03T08:44:51.999Z</time></trkpt><trkpt lat="45.40112091090684" lon="9.872011258151124"><ele>86.33333333333333</ele><time>2026-05-03T08:45:01.999Z</time></trkpt><trkpt lat="45.4010660497618" lon="9.872099148432666"><ele>87.0</ele><time>2026-05-03T08:45:04.999Z</time></trkpt><trkpt lat="45.40100526923762" lon="9.872073962889456"><ele>87.0</ele><time>2026-05-03T08:45:08Z</time></trkpt><trkpt lat="45.400961285383346" lon="9.872004791294597"><ele>87.0</ele><time>2026-05-03T08:45:10Z</time></trkpt><trkpt lat="45.40093117949667" lon="9.871899538872194"><ele>87.0</ele><time>2026-05-03T08:45:12Z</time></trkpt><trkpt lat="45.40089515806492" lon="9.871750831850791"><ele>87.0</ele><time>2026-05-03T08:45:14Z</time></trkpt><trkpt lat="45.40084540188745" lon="9.871646200273135"><ele>87.0</ele><time>2026-05-03T08:45:16Z</time></trkpt><trkpt lat="45.40080221363963" lon="9.871547699823019"><ele>87.0</ele><time>2026-05-03T08:45:18Z</time></trkpt><trkpt lat="45.40075316712988" lon="9.871424978551623"><ele>87.0</ele><time>2026-05-03T08:45:20Z</time></trkpt><trkpt lat="45.400672931561715" lon="9.871330408033842"><ele>87.0</ele><time>2026-05-03T08:45:22Z</time></trkpt><trkpt lat="45.40061603171382" lon="9.871224850159496"><ele>87.0</ele><time>2026-05-03T08:45:24Z</time></trkpt><trkpt lat="45.400544135649625" lon="9.871127916477183"><ele>87.0</ele><time>2026-05-03T08:45:26Z</time></trkpt><trkpt lat="45.400476413811774" lon="9.871046308593959"><ele>87.0</ele><time>2026-05-03T08:45:28Z</time></trkpt><trkpt lat="45.40043336854864" lon="9.870940196504716"><ele>87.0</ele><time>2026-05-03T08:45:30Z</time></trkpt><trkpt lat="45.400376811221875" lon="9.870842389180517"><ele>87.0</ele><time>2026-05-03T08:45:32Z</time></trkpt><trkpt lat="45.40031307954456" lon="9.870723752321867"><ele>87.0</ele><time>2026-05-03T08:45:34Z</time></trkpt><trkpt lat="45.400223662736586" lon="9.870692995748488"><ele>87.0</ele><time>2026-05-03T08:45:36Z</time></trkpt><trkpt lat="45.40014259830444" lon="9.870575982878485"><ele>87.0</ele><time>2026-05-03T08:45:38Z</time></trkpt><trkpt lat="45.40005222076943" lon="9.870557672932271"><ele>87.0</ele><time>2026-05-03T08:45:40Z</time></trkpt><trkpt lat="45.39995495449389" lon="9.870549071049659"><ele>87.0</ele><time>2026-05-03T08:45:42Z</time></trkpt><trkpt lat="45.39986647915106" lon="9.870557538245407"><ele>87.0</ele><time>2026-05-03T08:45:44Z</time></trkpt><trkpt lat="45.399790450434935" lon="9.870550239150438"><ele>87.0</ele><time>2026-05-03T08:45:46Z</time></trkpt><trkpt lat="45.39972648518323" lon="9.870567993490099"><ele>87.0</ele><time>2026-05-03T08:45:48Z</time></trkpt><trkpt lat="45.39964003238866" lon="9.870576094161214"><ele>87.0</ele><time>2026-05-03T08:45:50Z</time></trkpt><trkpt lat="45.399571687711614" lon="9.870593273294046"><ele>86.85714285714286</ele><time>2026-05-03T08:45:52Z</time></trkpt><trkpt lat="45.399506247976156" lon="9.870592085143418"><ele>86.71428571428572</ele><time>2026-05-03T08:45:54Z</time></trkpt><trkpt lat="45.399444628321426" lon="9.870556134532452"><ele>86.57142857142858</ele><time>2026-05-03T08:45:57Z</time></trkpt><trkpt lat="45.3993931329876" lon="9.87048956477104"><ele>86.42857142857143</ele><time>2026-05-03T08:46:00Z</time></trkpt><trkpt lat="45.399372880506256" lon="9.870396966716678"><ele>86.28571428571429</ele><time>2026-05-03T08:46:07.999Z</time></trkpt><trkpt lat="45.39930937033539" lon="9.87047054125563"><ele>86.14285714285715</ele><time>2026-05-03T08:46:11.999Z</time></trkpt><trkpt lat="45.39921956728322" lon="9.870509326255103"><ele>86.0</ele><time>2026-05-03T08:46:14.999Z</time></trkpt><trkpt lat="45.399126542786746" lon="9.870546055386116"><ele>86.0</ele><time>2026-05-03T08:46:16.999Z</time></trkpt><trkpt lat="45.399036570619316" lon="9.870575161434779"><ele>86.0</ele><time>2026-05-03T08:46:18.999Z</time></trkpt><trkpt lat="45.39895630300351" lon="9.87065080293404"><ele>86.0</ele><time>2026-05-03T08:46:20.999Z</time></trkpt><trkpt lat="45.39885489166281" lon="9.870688265457765"><ele>86.0</ele><time>2026-05-03T08:46:22.999Z</time></trkpt><trkpt lat="45.39874293821814" lon="9.87071633383194"><ele>86.0</ele><time>2026-05-03T08:46:24.999Z</time></trkpt><trkpt lat="45.39864299071523" lon="9.870759755933761"><ele>86.0</ele><time>2026-05-03T08:46:26.999Z</time></trkpt><trkpt lat="45.398552145588546" lon="9.870774549521467"><ele>86.0</ele><time>2026-05-03T08:46:28.999Z</time></trkpt><trkpt lat="45.398462903806106" lon="9.870797614238244"><ele>86.0</ele><time>2026-05-03T08:46:30.999Z</time></trkpt><trkpt lat="45.398379419401145" lon="9.87081993987027"><ele>86.0</ele><time>2026-05-03T08:46:32.999Z</time></trkpt><trkpt lat="45.398302491256985" lon="9.870856675147694"><ele>86.0</ele><time>2026-05-03T08:46:35.999Z</time></trkpt><trkpt lat="45.398227986084535" lon="9.870895249158012"><ele>86.0</ele><time>2026-05-03T08:46:38.999Z</time></trkpt><trkpt lat="45.398183910904926" lon="9.870971893207566"><ele>86.00000000000001</ele><time>2026-05-03T08:46:41.999Z</time></trkpt><trkpt lat="45.39813174942337" lon="9.871027997349861"><ele>86.0</ele><time>2026-05-03T08:47:08.999Z</time></trkpt><trkpt lat="45.3980480091036" lon="9.871077066444238"><ele>86.0</ele><time>2026-05-03T08:47:11.999Z</time></trkpt><trkpt lat="45.397989512443274" lon="9.871139048386741"><ele>86.0</ele><time>2026-05-03T08:47:15Z</time></trkpt><trkpt lat="45.39796027134754" lon="9.871230369129838"><ele>86.0</ele><time>2026-05-03T08:47:18Z</time></trkpt><trkpt lat="45.3979825990702" lon="9.871331925321101"><ele>86.00000000000001</ele><time>2026-05-03T08:47:20Z</time></trkpt><trkpt lat="45.39802067049568" lon="9.871422947545096"><ele>86.0</ele><time>2026-05-03T08:47:22Z</time></trkpt><trkpt lat="45.3980536522651" lon="9.871525386488479"><ele>86.0</ele><time>2026-05-03T08:47:24Z</time></trkpt><trkpt lat="45.398070036867615" lon="9.871634355858124"><ele>86.0</ele><time>2026-05-03T08:47:26Z</time></trkpt><trkpt lat="45.398055975635025" lon="9.87174261793335"><ele>86.0</ele><time>2026-05-03T08:47:28Z</time></trkpt><trkpt lat="45.3979961444458" lon="9.871812116237624"><ele>86.0</ele><time>2026-05-03T08:47:30Z</time></trkpt><trkpt lat="45.39794206410692" lon="9.87185907523112"><ele>86.0</ele><time>2026-05-03T08:47:32Z</time></trkpt><trkpt lat="45.39788840239116" lon="9.871955181640002"><ele>86.0</ele><time>2026-05-03T08:47:35Z</time></trkpt><trkpt lat="45.39784168084183" lon="9.87202405090736"><ele>85.0</ele><time>2026-05-03T08:47:37Z</time></trkpt><trkpt lat="45.3977826625987" lon="9.872092161036118"><ele>84.0</ele><time>2026-05-03T08:47:39Z</time></trkpt><trkpt lat="45.39772491568819" lon="9.87217331835828"><ele>83.0</ele><time>2026-05-03T08:47:41Z</time></trkpt><trkpt lat="45.39773399845021" lon="9.8722888510309"><ele>82.0</ele><time>2026-05-03T08:47:44Z</time></trkpt><trkpt lat="45.39777315150738" lon="9.872389519625512"><ele>81.0</ele><time>2026-05-03T08:47:46Z</time></trkpt><trkpt lat="45.39781637812305" lon="9.872514196081939"><ele>80.0</ele><time>2026-05-03T08:47:48Z</time></trkpt><trkpt lat="45.397855861202565" lon="9.87262242633767"><ele>79.33333333333334</ele><time>2026-05-03T08:47:50Z</time></trkpt><trkpt lat="45.39789712269812" lon="9.872702843109472"><ele>78.66666666666667</ele><time>2026-05-03T08:47:52Z</time></trkpt><trkpt lat="45.397939121960675" lon="9.872779999166394"><ele>78.0</ele><time>2026-05-03T08:47:54Z</time></trkpt><trkpt lat="45.39798581741014" lon="9.872890725555074"><ele>77.33333333333333</ele><time>2026-05-03T08:47:57Z</time></trkpt><trkpt lat="45.39801828609784" lon="9.872986409984202"><ele>76.66666666666666</ele><time>2026-05-03T08:47:59Z</time></trkpt><trkpt lat="45.39804670473828" lon="9.873096055702971"><ele>76.0</ele><time>2026-05-03T08:48:01Z</time></trkpt><trkpt lat="45.39807530943419" lon="9.873194878168722"><ele>75.66666666666666</ele><time>2026-05-03T08:48:03Z</time></trkpt><trkpt lat="45.398123280687614" lon="9.873273748693121"><ele>75.33333333333333</ele><time>2026-05-03T08:48:05Z</time></trkpt><trkpt lat="45.398159616765234" lon="9.873373644480692"><ele>75.0</ele><time>2026-05-03T08:48:08Z</time></trkpt><trkpt lat="45.398163501094785" lon="9.873471229831608"><ele>74.66666666666667</ele><time>2026-05-03T08:48:18Z</time></trkpt><trkpt lat="45.39806872360055" lon="9.873527103722179"><ele>74.33333333333334</ele><time>2026-05-03T08:48:22Z</time></trkpt><trkpt lat="45.39799940226063" lon="9.873640502399125"><ele>74.0</ele><time>2026-05-03T08:48:24Z</time></trkpt><trkpt lat="45.397973965227436" lon="9.873735585702237"><ele>74.0</ele><time>2026-05-03T08:48:25Z</time></trkpt><trkpt lat="45.39794903303519" lon="9.873829463372834"><ele>74.0</ele><time>2026-05-03T08:48:26Z</time></trkpt><trkpt lat="45.39792908450554" lon="9.873929830331068"><ele>74.0</ele><time>2026-05-03T08:48:26.999Z</time></trkpt><trkpt lat="45.39793676601191" lon="9.874025116289916"><ele>74.0</ele><time>2026-05-03T08:48:28.999Z</time></trkpt><trkpt lat="45.39795571609787" lon="9.874130349577245"><ele>74.0</ele><time>2026-05-03T08:48:32.999Z</time></trkpt><trkpt lat="45.39798421734371" lon="9.874231021939597"><ele>74.0</ele><time>2026-05-03T08:48:34.999Z</time></trkpt><trkpt lat="45.398066745769306" lon="9.874336301995843"><ele>74.0</ele><time>2026-05-03T08:48:36.999Z</time></trkpt><trkpt lat="45.3981221425904" lon="9.874396711470569"><ele>74.0</ele><time>2026-05-03T08:48:37.999Z</time></trkpt><trkpt lat="45.3981737449786" lon="9.874456817486696"><ele>74.0</ele><time>2026-05-03T08:48:38.999Z</time></trkpt><trkpt lat="45.39825871457059" lon="9.874567452325458"><ele>74.0</ele><time>2026-05-03T08:48:40.999Z</time></trkpt><trkpt lat="45.39833754503715" lon="9.874676418362233"><ele>74.0</ele><time>2026-05-03T08:48:42.999Z</time></trkpt><trkpt lat="45.39841533514607" lon="9.874838398713159"><ele>74.0</ele><time>2026-05-03T08:48:44.999Z</time></trkpt><trkpt lat="45.39845661020586" lon="9.874988691671533"><ele>74.0</ele><time>2026-05-03T08:48:46.999Z</time></trkpt><trkpt lat="45.398502992239074" lon="9.875152941895632"><ele>74.0</ele><time>2026-05-03T08:48:48.999Z</time></trkpt><trkpt lat="45.39852740594957" lon="9.875243336280116"><ele>74.0</ele><time>2026-05-03T08:48:49.999Z</time></trkpt><trkpt lat="45.39856082506304" lon="9.875340918031885"><ele>74.0</ele><time>2026-05-03T08:48:50.999Z</time></trkpt><trkpt lat="45.39861860325742" lon="9.875518357191792"><ele>73.8</ele><time>2026-05-03T08:48:52.999Z</time></trkpt><trkpt lat="45.39865294951417" lon="9.87562830749868"><ele>73.60000000000001</ele><time>2026-05-03T08:48:53.999Z</time></trkpt><trkpt lat="45.39867635933705" lon="9.87572196146073"><ele>73.4</ele><time>2026-05-03T08:48:54.999Z</time></trkpt><trkpt lat="45.39870444973475" lon="9.87584022875264"><ele>73.2</ele><time>2026-05-03T08:48:55.999Z</time></trkpt><trkpt lat="45.39873512352735" lon="9.875932828925036"><ele>73.0</ele><time>2026-05-03T08:48:56.999Z</time></trkpt><trkpt lat="45.398766653892174" lon="9.876123066848036"><ele>73.0</ele><time>2026-05-03T08:48:58.999Z</time></trkpt><trkpt lat="45.3987848677555" lon="9.876220221389726"><ele>73.0</ele><time>2026-05-03T08:48:59.999Z</time></trkpt><trkpt lat="45.39881219597728" lon="9.876305248444597"><ele>73.0</ele><time>2026-05-03T08:49:00.999Z</time></trkpt><trkpt lat="45.3988263486177" lon="9.876418715086386"><ele>73.0</ele><time>2026-05-03T08:49:01.999Z</time></trkpt><trkpt lat="45.3988530628033" lon="9.876509912640072"><ele>73.0</ele><time>2026-05-03T08:49:02.999Z</time></trkpt><trkpt lat="45.39887359125196" lon="9.87660875849214"><ele>73.0</ele><time>2026-05-03T08:49:03.999Z</time></trkpt><trkpt lat="45.39889757253198" lon="9.876705121147053"><ele>73.0</ele><time>2026-05-03T08:49:04.999Z</time></trkpt><trkpt lat="45.39891458412324" lon="9.876801059983547"><ele>73.6</ele><time>2026-05-03T08:49:05.999Z</time></trkpt><trkpt lat="45.398945431167675" lon="9.87696610062713"><ele>74.19999999999999</ele><time>2026-05-03T08:49:07.999Z</time></trkpt><trkpt lat="45.39896304724037" lon="9.877064805021092"><ele>74.8</ele><time>2026-05-03T08:49:08.999Z</time></trkpt><trkpt lat="45.398980580751676" lon="9.877162146026288"><ele>75.39999999999999</ele><time>2026-05-03T08:49:09.999Z</time></trkpt><trkpt lat="45.399006744663396" lon="9.877325383919274"><ele>76.0</ele><time>2026-05-03T08:49:11.999Z</time></trkpt><trkpt lat="45.39902593755107" lon="9.877422078772334"><ele>76.0</ele><time>2026-05-03T08:49:12.999Z</time></trkpt><trkpt lat="45.39904099883261" lon="9.87751715051632"><ele>76.0</ele><time>2026-05-03T08:49:13.999Z</time></trkpt><trkpt lat="45.39906004430316" lon="9.877609500213453"><ele>76.0</ele><time>2026-05-03T08:49:14.999Z</time></trkpt><trkpt lat="45.39911096481512" lon="9.877775445784426"><ele>76.0</ele><time>2026-05-03T08:49:16.999Z</time></trkpt><trkpt lat="45.39913258565332" lon="9.877948726973509"><ele>76.0</ele><time>2026-05-03T08:49:18.999Z</time></trkpt><trkpt lat="45.39915298162267" lon="9.878080954147913"><ele>75.8</ele><time>2026-05-03T08:49:21Z</time></trkpt><trkpt lat="45.3992134726215" lon="9.87819375131886"><ele>75.6</ele><time>2026-05-03T08:49:23Z</time></trkpt><trkpt lat="45.39932882700552" lon="9.878244565695374"><ele>75.4</ele><time>2026-05-03T08:49:25Z</time></trkpt><trkpt lat="45.39943004179381" lon="9.878289692409277"><ele>75.2</ele><time>2026-05-03T08:49:27Z</time></trkpt><trkpt lat="45.39953386512939" lon="9.878318456064738"><ele>75.0</ele><time>2026-05-03T08:49:29Z</time></trkpt><trkpt lat="45.39961131931713" lon="9.878333796813216"><ele>75.5</ele><time>2026-05-03T08:49:31Z</time></trkpt><trkpt lat="45.399623338402776" lon="9.878442762817446"><ele>76.0</ele><time>2026-05-03T08:49:34Z</time></trkpt><trkpt lat="45.39958168249144" lon="9.878516562248178"><ele>76.5</ele><time>2026-05-03T08:49:36Z</time></trkpt><trkpt lat="45.39954912720082" lon="9.878620118459589"><ele>77.0</ele><time>2026-05-03T08:49:38Z</time></trkpt><trkpt lat="45.3995106983341" lon="9.878734343879193"><ele>77.5</ele><time>2026-05-03T08:49:40Z</time></trkpt><trkpt lat="45.39946642396768" lon="9.87885232315839"><ele>78.0</ele><time>2026-05-03T08:49:42Z</time></trkpt><trkpt lat="45.399409721915454" lon="9.878973105210173"><ele>78.0</ele><time>2026-05-03T08:49:44Z</time></trkpt><trkpt lat="45.39935930393683" lon="9.879104295758191"><ele>78.0</ele><time>2026-05-03T08:49:46Z</time></trkpt><trkpt lat="45.39930967288764" lon="9.879234917768597"><ele>78.0</ele><time>2026-05-03T08:49:48Z</time></trkpt><trkpt lat="45.39924371620823" lon="9.879374619930314"><ele>78.0</ele><time>2026-05-03T08:49:50Z</time></trkpt><trkpt lat="45.399183779635024" lon="9.879516042974696"><ele>78.0</ele><time>2026-05-03T08:49:52Z</time></trkpt><trkpt lat="45.39912413874213" lon="9.87966806374578"><ele>78.0</ele><time>2026-05-03T08:49:54Z</time></trkpt><trkpt lat="45.39906722262939" lon="9.879811563374876"><ele>78.0</ele><time>2026-05-03T08:49:56Z</time></trkpt><trkpt lat="45.399014870007406" lon="9.8799572881098"><ele>78.0</ele><time>2026-05-03T08:49:58Z</time></trkpt><trkpt lat="45.39897467923126" lon="9.880104620231512"><ele>78.0</ele><time>2026-05-03T08:50:00Z</time></trkpt><trkpt lat="45.39896202934629" lon="9.880270829438018"><ele>78.25</ele><time>2026-05-03T08:50:02Z</time></trkpt><trkpt lat="45.39889635829703" lon="9.880434433609013"><ele>78.5</ele><time>2026-05-03T08:50:04Z</time></trkpt><trkpt lat="45.398843256882614" lon="9.880587639925931"><ele>78.75</ele><time>2026-05-03T08:50:06Z</time></trkpt><trkpt lat="45.39880670030909" lon="9.880750590042465"><ele>79.0</ele><time>2026-05-03T08:50:08Z</time></trkpt><trkpt lat="45.398769774233806" lon="9.880919188746601"><ele>78.5</ele><time>2026-05-03T08:50:10Z</time></trkpt><trkpt lat="45.398729073997345" lon="9.88107552620914"><ele>78.0</ele><time>2026-05-03T08:50:12Z</time></trkpt><trkpt lat="45.39869176945559" lon="9.881233894693926"><ele>77.5</ele><time>2026-05-03T08:50:14Z</time></trkpt><trkpt lat="45.39865141935814" lon="9.88139552532987"><ele>77.0</ele><time>2026-05-03T08:50:16Z</time></trkpt><trkpt lat="45.3986109355546" lon="9.881550647949405"><ele>77.0</ele><time>2026-05-03T08:50:18Z</time></trkpt><trkpt lat="45.398581216296556" lon="9.881699313986127"><ele>77.0</ele><time>2026-05-03T08:50:20Z</time></trkpt><trkpt lat="45.398545805884034" lon="9.881839580967412"><ele>77.0</ele><time>2026-05-03T08:50:22Z</time></trkpt><trkpt lat="45.39850909663679" lon="9.88199401317462"><ele>77.0</ele><time>2026-05-03T08:50:23.999Z</time></trkpt><trkpt lat="45.39847230915566" lon="9.882135799567482"><ele>77.0</ele><time>2026-05-03T08:50:25.999Z</time></trkpt><trkpt lat="45.398445989429405" lon="9.882270320634248"><ele>77.0</ele><time>2026-05-03T08:50:27.999Z</time></trkpt><trkpt lat="45.398405863855686" lon="9.88240970314819"><ele>77.0</ele><time>2026-05-03T08:50:29.999Z</time></trkpt><trkpt lat="45.39837220176247" lon="9.882537046945782"><ele>77.0</ele><time>2026-05-03T08:50:31.999Z</time></trkpt><trkpt lat="45.39835083619931" lon="9.882627503257178"><ele>77.0</ele><time>2026-05-03T08:50:32.999Z</time></trkpt><trkpt lat="45.398332093168285" lon="9.882713378408104"><ele>77.0</ele><time>2026-05-03T08:50:33.999Z</time></trkpt><trkpt lat="45.39830806044049" lon="9.88280112810894"><ele>77.0</ele><time>2026-05-03T08:50:34.999Z</time></trkpt><trkpt lat="45.398285510733594" lon="9.882892224214885"><ele>76.85714285714286</ele><time>2026-05-03T08:50:35.999Z</time></trkpt><trkpt lat="45.39826488197769" lon="9.882984597790045"><ele>76.71428571428572</ele><time>2026-05-03T08:50:36.999Z</time></trkpt><trkpt lat="45.39824281263982" lon="9.883078346563424"><ele>76.57142857142857</ele><time>2026-05-03T08:50:37.999Z</time></trkpt><trkpt lat="45.398221509961566" lon="9.883169101918803"><ele>76.42857142857143</ele><time>2026-05-03T08:50:38.999Z</time></trkpt><trkpt lat="45.39820327948786" lon="9.883263020212032"><ele>76.28571428571429</ele><time>2026-05-03T08:50:39.999Z</time></trkpt><trkpt lat="45.398178871337755" lon="9.883362447598934"><ele>76.14285714285714</ele><time>2026-05-03T08:50:40.999Z</time></trkpt><trkpt lat="45.398158671743715" lon="9.883452952352998"><ele>76.0</ele><time>2026-05-03T08:50:41.999Z</time></trkpt><trkpt lat="45.398141060913126" lon="9.883547100934072"><ele>75.85714285714285</ele><time>2026-05-03T08:50:42.999Z</time></trkpt><trkpt lat="45.39812790786265" lon="9.883639529429557"><ele>75.71428571428572</ele><time>2026-05-03T08:50:43.999Z</time></trkpt><trkpt lat="45.39811421714962" lon="9.883731697725773"><ele>75.57142857142857</ele><time>2026-05-03T08:50:44.999Z</time></trkpt><trkpt lat="45.39809955344283" lon="9.883820272948078"><ele>75.42857142857142</ele><time>2026-05-03T08:50:45.999Z</time></trkpt><trkpt lat="45.398086110659214" lon="9.883909272435247"><ele>75.28571428571428</ele><time>2026-05-03T08:50:46.999Z</time></trkpt><trkpt lat="45.39807332424806" lon="9.883999045366343"><ele>75.14285714285714</ele><time>2026-05-03T08:50:47.999Z</time></trkpt><trkpt lat="45.398059208716596" lon="9.884091643812345"><ele>75.0</ele><time>2026-05-03T08:50:48.999Z</time></trkpt><trkpt lat="45.398045105285846" lon="9.884188220348472"><ele>74.57142857142857</ele><time>2026-05-03T08:50:49.999Z</time></trkpt><trkpt lat="45.39803250463038" lon="9.884288369807607"><ele>74.14285714285714</ele><time>2026-05-03T08:50:50.999Z</time></trkpt><trkpt lat="45.398020570158025" lon="9.884390564052618"><ele>73.71428571428572</ele><time>2026-05-03T08:50:51.999Z</time></trkpt><trkpt lat="45.39801379534514" lon="9.884497060649654"><ele>73.28571428571428</ele><time>2026-05-03T08:50:52.999Z</time></trkpt><trkpt lat="45.39801212900958" lon="9.884599560874719"><ele>72.85714285714286</ele><time>2026-05-03T08:50:53.999Z</time></trkpt><trkpt lat="45.39800901406428" lon="9.884705170961473"><ele>72.42857142857143</ele><time>2026-05-03T08:50:54.999Z</time></trkpt><trkpt lat="45.39800577649611" lon="9.884810169146707"><ele>72.0</ele><time>2026-05-03T08:50:55.999Z</time></trkpt><trkpt lat="45.39800656882738" lon="9.884907180383657"><ele>71.4</ele><time>2026-05-03T08:50:56.999Z</time></trkpt><trkpt lat="45.39801791228035" lon="9.88509931090519"><ele>70.80000000000001</ele><time>2026-05-03T08:50:58.999Z</time></trkpt><trkpt lat="45.39803004325018" lon="9.885198303004268"><ele>70.2</ele><time>2026-05-03T08:50:59.999Z</time></trkpt><trkpt lat="45.398037210117145" lon="9.885308092467254"><ele>69.60000000000001</ele><time>2026-05-03T08:51:00.999Z</time></trkpt><trkpt lat="45.39806963571184" lon="9.885468115513094"><ele>69.0</ele><time>2026-05-03T08:51:02.999Z</time></trkpt><trkpt lat="45.39809816010218" lon="9.88563136590809"><ele>69.0</ele><time>2026-05-03T08:51:04.999Z</time></trkpt><trkpt lat="45.39812825969639" lon="9.885721629140322"><ele>69.0</ele><time>2026-05-03T08:51:05.999Z</time></trkpt><trkpt lat="45.39815030421173" lon="9.885807901712047"><ele>69.0</ele><time>2026-05-03T08:51:06.999Z</time></trkpt><trkpt lat="45.398167049930365" lon="9.885965442966725"><ele>69.0</ele><time>2026-05-03T08:51:08.999Z</time></trkpt><trkpt lat="45.39819704846894" lon="9.88606077738976"><ele>69.0</ele><time>2026-05-03T08:51:09.999Z</time></trkpt><trkpt lat="45.398218878834754" lon="9.886150617526145"><ele>69.0</ele><time>2026-05-03T08:51:10.999Z</time></trkpt><trkpt lat="45.39824905528334" lon="9.88630751067401"><ele>69.0</ele><time>2026-05-03T08:51:12.999Z</time></trkpt><trkpt lat="45.39827814170084" lon="9.886473519945879"><ele>69.0</ele><time>2026-05-03T08:51:14.999Z</time></trkpt><trkpt lat="45.39829581812144" lon="9.886589123186784"><ele>69.0</ele><time>2026-05-03T08:51:15.999Z</time></trkpt><trkpt lat="45.39831436964422" lon="9.886695604906421"><ele>69.0</ele><time>2026-05-03T08:51:16.999Z</time></trkpt><trkpt lat="45.39833460484434" lon="9.88679319991572"><ele>69.0</ele><time>2026-05-03T08:51:17.999Z</time></trkpt><trkpt lat="45.39835263499489" lon="9.886887804626626"><ele>69.0</ele><time>2026-05-03T08:51:18.999Z</time></trkpt><trkpt lat="45.39838922551308" lon="9.887052017355462"><ele>69.0</ele><time>2026-05-03T08:51:20.999Z</time></trkpt><trkpt lat="45.39842330825864" lon="9.887220982726825"><ele>69.0</ele><time>2026-05-03T08:51:22.999Z</time></trkpt><trkpt lat="45.398464839192336" lon="9.887390002132912"><ele>69.0</ele><time>2026-05-03T08:51:24.999Z</time></trkpt><trkpt lat="45.39849514011478" lon="9.887545411170368"><ele>69.0</ele><time>2026-05-03T08:51:27Z</time></trkpt><trkpt lat="45.39852655908291" lon="9.887711301302778"><ele>68.8</ele><time>2026-05-03T08:51:29Z</time></trkpt><trkpt lat="45.39855339052825" lon="9.887865049435973"><ele>68.60000000000001</ele><time>2026-05-03T08:51:31Z</time></trkpt><trkpt lat="45.39858897620686" lon="9.888017742058206"><ele>68.4</ele><time>2026-05-03T08:51:33Z</time></trkpt><trkpt lat="45.39862234689279" lon="9.888166180445861"><ele>68.2</ele><time>2026-05-03T08:51:35Z</time></trkpt><trkpt lat="45.39865492859188" lon="9.888314094940176"><ele>68.0</ele><time>2026-05-03T08:51:37Z</time></trkpt><trkpt lat="45.398671321609335" lon="9.888446913631528"><ele>68.0</ele><time>2026-05-03T08:51:39Z</time></trkpt><trkpt lat="45.39870633156679" lon="9.888593593422415"><ele>68.0</ele><time>2026-05-03T08:51:41Z</time></trkpt><trkpt lat="45.39873693798808" lon="9.888742972288359"><ele>68.0</ele><time>2026-05-03T08:51:43Z</time></trkpt><trkpt lat="45.39876643158653" lon="9.888864521988156"><ele>68.0</ele><time>2026-05-03T08:51:45Z</time></trkpt><trkpt lat="45.39879396724651" lon="9.889012638170836"><ele>68.0</ele><time>2026-05-03T08:51:47Z</time></trkpt><trkpt lat="45.3988281738374" lon="9.889151032142893"><ele>68.2</ele><time>2026-05-03T08:51:49Z</time></trkpt><trkpt lat="45.39884582404012" lon="9.889271755509657"><ele>68.4</ele><time>2026-05-03T08:51:51Z</time></trkpt><trkpt lat="45.39885680977152" lon="9.88939327482332"><ele>68.60000000000001</ele><time>2026-05-03T08:51:53Z</time></trkpt><trkpt lat="45.39888473475426" lon="9.889524188312429"><ele>68.8</ele><time>2026-05-03T08:51:55Z</time></trkpt><trkpt lat="45.39891852688235" lon="9.889677280489309"><ele>69.0</ele><time>2026-05-03T08:51:57Z</time></trkpt><trkpt lat="45.398940644267654" lon="9.889808519660855"><ele>69.0</ele><time>2026-05-03T08:51:59Z</time></trkpt><trkpt lat="45.398957190568915" lon="9.889904376041947"><ele>69.0</ele><time>2026-05-03T08:52:01Z</time></trkpt><trkpt lat="45.398972512290904" lon="9.890009861816013"><ele>69.0</ele><time>2026-05-03T08:52:03Z</time></trkpt><trkpt lat="45.39899830913118" lon="9.890135743919446"><ele>69.0</ele><time>2026-05-03T08:52:05Z</time></trkpt><trkpt lat="45.39902692631563" lon="9.890263093013019"><ele>69.0</ele><time>2026-05-03T08:52:07Z</time></trkpt><trkpt lat="45.39905462722296" lon="9.890389754404179"><ele>69.0</ele><time>2026-05-03T08:52:09Z</time></trkpt><trkpt lat="45.3990849193725" lon="9.890520588249258"><ele>68.8</ele><time>2026-05-03T08:52:11Z</time></trkpt><trkpt lat="45.399109510993696" lon="9.890664633954652"><ele>68.60000000000001</ele><time>2026-05-03T08:52:13Z</time></trkpt><trkpt lat="45.39913538751701" lon="9.890795596776961"><ele>68.4</ele><time>2026-05-03T08:52:15Z</time></trkpt><trkpt lat="45.39916868373845" lon="9.890933290038019"><ele>68.2</ele><time>2026-05-03T08:52:17Z</time></trkpt><trkpt lat="45.39919490457028" lon="9.891059909445838"><ele>68.0</ele><time>2026-05-03T08:52:19Z</time></trkpt><trkpt lat="45.39921404153984" lon="9.891178490418218"><ele>68.4</ele><time>2026-05-03T08:52:21Z</time></trkpt><trkpt lat="45.399223526736854" lon="9.891297102005872"><ele>68.8</ele><time>2026-05-03T08:52:23Z</time></trkpt><trkpt lat="45.399246032120885" lon="9.891426273760224"><ele>69.2</ele><time>2026-05-03T08:52:25Z</time></trkpt><trkpt lat="45.39927212265254" lon="9.891566179073923"><ele>69.6</ele><time>2026-05-03T08:52:27Z</time></trkpt><trkpt lat="45.39929924182842" lon="9.891723592791442"><ele>70.0</ele><time>2026-05-03T08:52:29Z</time></trkpt><trkpt lat="45.399326534882285" lon="9.891879455607873"><ele>70.0</ele><time>2026-05-03T08:52:31Z</time></trkpt><trkpt lat="45.3993578722938" lon="9.892032111296965"><ele>70.0</ele><time>2026-05-03T08:52:33Z</time></trkpt><trkpt lat="45.39938080334599" lon="9.892171443212947"><ele>70.0</ele><time>2026-05-03T08:52:35Z</time></trkpt><trkpt lat="45.39939738216767" lon="9.892315060027434"><ele>70.0</ele><time>2026-05-03T08:52:37Z</time></trkpt><trkpt lat="45.39941922170827" lon="9.892463184986399"><ele>70.0</ele><time>2026-05-03T08:52:39Z</time></trkpt><trkpt lat="45.3994451297163" lon="9.89260958698903"><ele>70.0</ele><time>2026-05-03T08:52:41Z</time></trkpt><trkpt lat="45.399462273219406" lon="9.892730577888274"><ele>70.0</ele><time>2026-05-03T08:52:42.999Z</time></trkpt><trkpt lat="45.39948417889173" lon="9.892885441028005"><ele>70.0</ele><time>2026-05-03T08:52:44.999Z</time></trkpt><trkpt lat="45.39951143576852" lon="9.893042448381971"><ele>70.0</ele><time>2026-05-03T08:52:46.999Z</time></trkpt><trkpt lat="45.399534176821966" lon="9.893201944446812"><ele>70.0</ele><time>2026-05-03T08:52:48.999Z</time></trkpt><trkpt lat="45.39955593330967" lon="9.893367117937927"><ele>69.83333333333333</ele><time>2026-05-03T08:52:50.999Z</time></trkpt><trkpt lat="45.39957978469538" lon="9.893540548543433"><ele>69.66666666666666</ele><time>2026-05-03T08:52:52.999Z</time></trkpt><trkpt lat="45.39959413994382" lon="9.893631261594482"><ele>69.5</ele><time>2026-05-03T08:52:53.999Z</time></trkpt><trkpt lat="45.399618512052015" lon="9.893719431497425"><ele>69.33333333333333</ele><time>2026-05-03T08:52:54.999Z</time></trkpt><trkpt lat="45.39963331692826" lon="9.893807013397977"><ele>69.16666666666667</ele><time>2026-05-03T08:52:55.999Z</time></trkpt><trkpt lat="45.3996570708599" lon="9.893967841737808"><ele>69.0</ele><time>2026-05-03T08:52:57.999Z</time></trkpt><trkpt lat="45.399682312760994" lon="9.894099466657877"><ele>69.0</ele><time>2026-05-03T08:52:59.999Z</time></trkpt><trkpt lat="45.39970155371094" lon="9.894238273376082"><ele>69.0</ele><time>2026-05-03T08:53:01.999Z</time></trkpt><trkpt lat="45.399723085472935" lon="9.894367701017988"><ele>69.0</ele><time>2026-05-03T08:53:03.999Z</time></trkpt><trkpt lat="45.39974495123407" lon="9.894511774425252"><ele>69.0</ele><time>2026-05-03T08:53:05.999Z</time></trkpt><trkpt lat="45.39976604197485" lon="9.894664396424611"><ele>69.0</ele><time>2026-05-03T08:53:07.999Z</time></trkpt><trkpt lat="45.39979707981454" lon="9.894815652857492"><ele>69.0</ele><time>2026-05-03T08:53:09.999Z</time></trkpt><trkpt lat="45.39982939714834" lon="9.894968366099256"><ele>69.0</ele><time>2026-05-03T08:53:11.999Z</time></trkpt><trkpt lat="45.39985447266229" lon="9.895114339418903"><ele>69.0</ele><time>2026-05-03T08:53:13.999Z</time></trkpt><trkpt lat="45.39987336402223" lon="9.895257690026149"><ele>69.0</ele><time>2026-05-03T08:53:15.999Z</time></trkpt><trkpt lat="45.39989638792922" lon="9.895386435265454"><ele>69.0</ele><time>2026-05-03T08:53:17.999Z</time></trkpt><trkpt lat="45.399917448367766" lon="9.895499381576155"><ele>69.0</ele><time>2026-05-03T08:53:19.999Z</time></trkpt><trkpt lat="45.39993640334801" lon="9.89564351230428"><ele>69.0</ele><time>2026-05-03T08:53:21.999Z</time></trkpt><trkpt lat="45.399959537304454" lon="9.89579273128971"><ele>69.0</ele><time>2026-05-03T08:53:23.999Z</time></trkpt><trkpt lat="45.399994368377826" lon="9.895953444602972"><ele>69.0</ele><time>2026-05-03T08:53:25.999Z</time></trkpt><trkpt lat="45.40002227129159" lon="9.896109739567578"><ele>69.0</ele><time>2026-05-03T08:53:27.999Z</time></trkpt><trkpt lat="45.40004957961018" lon="9.896263785416622"><ele>69.0</ele><time>2026-05-03T08:53:29.999Z</time></trkpt><trkpt lat="45.40008076544542" lon="9.896414842781935"><ele>69.0</ele><time>2026-05-03T08:53:32Z</time></trkpt><trkpt lat="45.400103696222374" lon="9.896546714873743"><ele>69.0</ele><time>2026-05-03T08:53:34Z</time></trkpt><trkpt lat="45.400128015426176" lon="9.89668380528158"><ele>69.0</ele><time>2026-05-03T08:53:36Z</time></trkpt><trkpt lat="45.40015494214421" lon="9.896821523528441"><ele>69.0</ele><time>2026-05-03T08:53:38Z</time></trkpt><trkpt lat="45.40017120393928" lon="9.896939508684834"><ele>69.4</ele><time>2026-05-03T08:53:40Z</time></trkpt><trkpt lat="45.40019681934925" lon="9.897050187458515"><ele>69.80000000000001</ele><time>2026-05-03T08:53:42Z</time></trkpt><trkpt lat="45.400226867242736" lon="9.897205796748171"><ele>70.19999999999999</ele><time>2026-05-03T08:53:44Z</time></trkpt><trkpt lat="45.40024412797828" lon="9.897354435080858"><ele>70.6</ele><time>2026-05-03T08:53:46Z</time></trkpt><trkpt lat="45.40026431384266" lon="9.89748977872469"><ele>71.0</ele><time>2026-05-03T08:53:48Z</time></trkpt><trkpt lat="45.40027502726303" lon="9.897605631929217"><ele>71.83333333333334</ele><time>2026-05-03T08:53:50Z</time></trkpt><trkpt lat="45.40025716155086" lon="9.897722533195736"><ele>72.66666666666667</ele><time>2026-05-03T08:53:52Z</time></trkpt><trkpt lat="45.40020115289897" lon="9.897789683409611"><ele>73.5</ele><time>2026-05-03T08:53:54Z</time></trkpt><trkpt lat="45.400138429879746" lon="9.89784770303052"><ele>74.33333333333333</ele><time>2026-05-03T08:53:56Z</time></trkpt><trkpt lat="45.40012164742261" lon="9.897963594957124"><ele>75.16666666666666</ele><time>2026-05-03T08:53:58Z</time></trkpt><trkpt lat="45.40012713126291" lon="9.898073472548752"><ele>76.0</ele><time>2026-05-03T08:54:00Z</time></trkpt><trkpt lat="45.40012840174215" lon="9.898194824324039"><ele>76.0</ele><time>2026-05-03T08:54:02Z</time></trkpt><trkpt lat="45.40014284478359" lon="9.898314369105481"><ele>76.0</ele><time>2026-05-03T08:54:04Z</time></trkpt><trkpt lat="45.40015563543999" lon="9.898432965548562"><ele>76.0</ele><time>2026-05-03T08:54:06Z</time></trkpt><trkpt lat="45.40014952432238" lon="9.898532265229884"><ele>76.0</ele><time>2026-05-03T08:54:08Z</time></trkpt><trkpt lat="45.40017806426409" lon="9.898634798391955"><ele>76.0</ele><time>2026-05-03T08:54:11Z</time></trkpt><trkpt lat="45.40021334060738" lon="9.898750292267431"><ele>76.0</ele><time>2026-05-03T08:54:15Z</time></trkpt><trkpt lat="45.40023742016581" lon="9.898875539091334"><ele>76.14285714285714</ele><time>2026-05-03T08:54:18Z</time></trkpt><trkpt lat="45.400262687705386" lon="9.898960772069586"><ele>76.28571428571429</ele><time>2026-05-03T08:54:20Z</time></trkpt><trkpt lat="45.40032196945867" lon="9.899046525741756"><ele>76.42857142857143</ele><time>2026-05-03T08:54:23Z</time></trkpt><trkpt lat="45.400348886746656" lon="9.899157277119999"><ele>76.57142857142857</ele><time>2026-05-03T08:54:26Z</time></trkpt><trkpt lat="45.40033733568604" lon="9.8992586063563"><ele>76.71428571428572</ele><time>2026-05-03T08:54:28Z</time></trkpt><trkpt lat="45.400326064895346" lon="9.899359608708425"><ele>76.85714285714286</ele><time>2026-05-03T08:54:30Z</time></trkpt><trkpt lat="45.40032732762456" lon="9.899456009315472"><ele>77.0</ele><time>2026-05-03T08:54:32Z</time></trkpt><trkpt lat="45.4003359909695" lon="9.899552903572422"><ele>76.83333333333334</ele><time>2026-05-03T08:54:34Z</time></trkpt><trkpt lat="45.40033966996251" lon="9.899661340145432"><ele>76.66666666666667</ele><time>2026-05-03T08:54:36Z</time></trkpt><trkpt lat="45.40033713647788" lon="9.899793664139949"><ele>76.5</ele><time>2026-05-03T08:54:38Z</time></trkpt><trkpt lat="45.40034321389375" lon="9.899913314672881"><ele>76.33333333333333</ele><time>2026-05-03T08:54:40Z</time></trkpt><trkpt lat="45.40034854705446" lon="9.900033330343893"><ele>76.16666666666666</ele><time>2026-05-03T08:54:42Z</time></trkpt><trkpt lat="45.40034901701834" lon="9.900142991729487"><ele>76.0</ele><time>2026-05-03T08:54:44Z</time></trkpt><trkpt lat="45.400357558814434" lon="9.900252073109348"><ele>76.0</ele><time>2026-05-03T08:54:46Z</time></trkpt><trkpt lat="45.400364128894786" lon="9.90036664976581"><ele>76.0</ele><time>2026-05-03T08:54:48Z</time></trkpt><trkpt lat="45.40037027571596" lon="9.900479263660563"><ele>76.0</ele><time>2026-05-03T08:54:50Z</time></trkpt><trkpt lat="45.40037391015759" lon="9.900600221206204"><ele>76.0</ele><time>2026-05-03T08:54:52Z</time></trkpt><trkpt lat="45.40036433735524" lon="9.900717806951103"><ele>76.0</ele><time>2026-05-03T08:54:54Z</time></trkpt><trkpt lat="45.40035684944453" lon="9.900837064750757"><ele>76.0</ele><time>2026-05-03T08:54:56Z</time></trkpt><trkpt lat="45.40034718239526" lon="9.900945603760409"><ele>76.16666666666666</ele><time>2026-05-03T08:54:58Z</time></trkpt><trkpt lat="45.400335909677686" lon="9.901052599122224"><ele>76.33333333333333</ele><time>2026-05-03T08:55:00Z</time></trkpt><trkpt lat="45.40032847212406" lon="9.901178162792549"><ele>76.5</ele><time>2026-05-03T08:55:01.999Z</time></trkpt><trkpt lat="45.400328521221525" lon="9.901291736188327"><ele>76.66666666666667</ele><time>2026-05-03T08:55:03.999Z</time></trkpt><trkpt lat="45.40034008202845" lon="9.901432842780435"><ele>76.83333333333334</ele><time>2026-05-03T08:55:05.999Z</time></trkpt><trkpt lat="45.40033804553534" lon="9.901568778946054"><ele>77.0</ele><time>2026-05-03T08:55:07.999Z</time></trkpt><trkpt lat="45.40033958053484" lon="9.90168798573929"><ele>76.8</ele><time>2026-05-03T08:55:09.999Z</time></trkpt><trkpt lat="45.400340641152134" lon="9.901819045207489"><ele>76.6</ele><time>2026-05-03T08:55:11.999Z</time></trkpt><trkpt lat="45.40033591718995" lon="9.90196308872796"><ele>76.39999999999999</ele><time>2026-05-03T08:55:13.999Z</time></trkpt><trkpt lat="45.40032702008994" lon="9.90209254957903"><ele>76.2</ele><time>2026-05-03T08:55:15.999Z</time></trkpt><trkpt lat="45.400318401027704" lon="9.902224238783441"><ele>76.0</ele><time>2026-05-03T08:55:17.999Z</time></trkpt><trkpt lat="45.40030796752494" lon="9.902350589620465"><ele>76.0</ele><time>2026-05-03T08:55:19.999Z</time></trkpt><trkpt lat="45.40026207106293" lon="9.902433022442468"><ele>76.0</ele><time>2026-05-03T08:55:21.999Z</time></trkpt><trkpt lat="45.400209377522806" lon="9.902516762440083"><ele>76.0</ele><time>2026-05-03T08:55:24.999Z</time></trkpt><trkpt lat="45.40020249346597" lon="9.902666150157746"><ele>76.0</ele><time>2026-05-03T08:55:27.999Z</time></trkpt><trkpt lat="45.40020351365376" lon="9.902776142167683"><ele>76.0</ele><time>2026-05-03T08:55:29.999Z</time></trkpt><trkpt lat="45.40020293409079" lon="9.902867475801232"><ele>76.0</ele><time>2026-05-03T08:55:31.999Z</time></trkpt><trkpt lat="45.40019607585507" lon="9.902965099092526"><ele>75.83333333333333</ele><time>2026-05-03T08:55:33.999Z</time></trkpt><trkpt lat="45.40020928901784" lon="9.903068099511078"><ele>75.66666666666666</ele><time>2026-05-03T08:55:35.999Z</time></trkpt><trkpt lat="45.40024414188358" lon="9.903172488774988"><ele>75.5</ele><time>2026-05-03T08:55:38Z</time></trkpt><trkpt lat="45.40029824320434" lon="9.903256009185242"><ele>75.33333333333333</ele><time>2026-05-03T08:55:40Z</time></trkpt><trkpt lat="45.40036812289272" lon="9.903353185902729"><ele>75.16666666666667</ele><time>2026-05-03T08:55:42Z</time></trkpt><trkpt lat="45.40038017070593" lon="9.90349816880169"><ele>75.0</ele><time>2026-05-03T08:55:44Z</time></trkpt><trkpt lat="45.40039177848752" lon="9.903647836383056"><ele>75.0</ele><time>2026-05-03T08:55:46Z</time></trkpt><trkpt lat="45.4004057088139" lon="9.903787253419821"><ele>75.0</ele><time>2026-05-03T08:55:48Z</time></trkpt><trkpt lat="45.40041818073093" lon="9.903947783171724"><ele>75.0</ele><time>2026-05-03T08:55:50Z</time></trkpt><trkpt lat="45.40043009353979" lon="9.90403792149964"><ele>75.0</ele><time>2026-05-03T08:55:51Z</time></trkpt><trkpt lat="45.40043769402803" lon="9.904210434221362"><ele>75.0</ele><time>2026-05-03T08:55:53Z</time></trkpt><trkpt lat="45.40045167439202" lon="9.904382726820563"><ele>75.0</ele><time>2026-05-03T08:55:55Z</time></trkpt><trkpt lat="45.40046051759931" lon="9.904472295135678"><ele>75.0</ele><time>2026-05-03T08:55:56Z</time></trkpt><trkpt lat="45.400477655913264" lon="9.904563564689251"><ele>75.0</ele><time>2026-05-03T08:55:57Z</time></trkpt><trkpt lat="45.400499624516364" lon="9.90472910854667"><ele>75.0</ele><time>2026-05-03T08:55:59Z</time></trkpt><trkpt lat="45.400502458234605" lon="9.90490211213752"><ele>75.0</ele><time>2026-05-03T08:56:01Z</time></trkpt><trkpt lat="45.40050715534017" lon="9.90508221066223"><ele>75.0</ele><time>2026-05-03T08:56:03Z</time></trkpt><trkpt lat="45.40051317905373" lon="9.905252772126786"><ele>75.0</ele><time>2026-05-03T08:56:05Z</time></trkpt><trkpt lat="45.400518663713775" lon="9.905424995166664"><ele>75.0</ele><time>2026-05-03T08:56:07Z</time></trkpt><trkpt lat="45.40052065910755" lon="9.905588395663829"><ele>75.0</ele><time>2026-05-03T08:56:09Z</time></trkpt><trkpt lat="45.40052416519101" lon="9.90573418097614"><ele>75.0</ele><time>2026-05-03T08:56:11Z</time></trkpt><trkpt lat="45.40053103511517" lon="9.905879608898408"><ele>75.0</ele><time>2026-05-03T08:56:13Z</time></trkpt><trkpt lat="45.400533644221795" lon="9.906021040503195"><ele>75.0</ele><time>2026-05-03T08:56:15Z</time></trkpt><trkpt lat="45.400537416168824" lon="9.906168306596019"><ele>75.0</ele><time>2026-05-03T08:56:17Z</time></trkpt><trkpt lat="45.40054356214412" lon="9.906308677618677"><ele>75.0</ele><time>2026-05-03T08:56:19Z</time></trkpt><trkpt lat="45.40054320307694" lon="9.906461104619261"><ele>75.0</ele><time>2026-05-03T08:56:21Z</time></trkpt><trkpt lat="45.40054915136754" lon="9.906611785414242"><ele>75.0</ele><time>2026-05-03T08:56:23Z</time></trkpt><trkpt lat="45.40055476144173" lon="9.90676129527665"><ele>75.0</ele><time>2026-05-03T08:56:25Z</time></trkpt><trkpt lat="45.40055855877055" lon="9.906909510595407"><ele>75.0</ele><time>2026-05-03T08:56:27Z</time></trkpt><trkpt lat="45.400559630232976" lon="9.907058192586895"><ele>75.0</ele><time>2026-05-03T08:56:29Z</time></trkpt><trkpt lat="45.40056035028625" lon="9.907205745847602"><ele>75.0</ele><time>2026-05-03T08:56:31Z</time></trkpt><trkpt lat="45.40056770129348" lon="9.907350108895889"><ele>75.0</ele><time>2026-05-03T08:56:33Z</time></trkpt><trkpt lat="45.4005728535758" lon="9.907489484792283"><ele>75.0</ele><time>2026-05-03T08:56:35Z</time></trkpt><trkpt lat="45.400576336970175" lon="9.907642946716445"><ele>75.0</ele><time>2026-05-03T08:56:37Z</time></trkpt><trkpt lat="45.40057797427719" lon="9.90778937392144"><ele>75.0</ele><time>2026-05-03T08:56:39Z</time></trkpt><trkpt lat="45.40057327012993" lon="9.907942335224421"><ele>75.0</ele><time>2026-05-03T08:56:41Z</time></trkpt><trkpt lat="45.400573245636586" lon="9.908090405330451"><ele>75.0</ele><time>2026-05-03T08:56:43Z</time></trkpt><trkpt lat="45.40056357187027" lon="9.908234930145012"><ele>75.0</ele><time>2026-05-03T08:56:45Z</time></trkpt><trkpt lat="45.40055757923729" lon="9.908370912119377"><ele>75.0</ele><time>2026-05-03T08:56:47Z</time></trkpt><trkpt lat="45.4005537150475" lon="9.908517298658857"><ele>75.0</ele><time>2026-05-03T08:56:49Z</time></trkpt><trkpt lat="45.40055383460751" lon="9.90866643156796"><ele>75.4</ele><time>2026-05-03T08:56:51Z</time></trkpt><trkpt lat="45.40055397629387" lon="9.908792835788253"><ele>75.8</ele><time>2026-05-03T08:56:53Z</time></trkpt><trkpt lat="45.40055589355929" lon="9.90892533909916"><ele>76.2</ele><time>2026-05-03T08:56:55Z</time></trkpt><trkpt lat="45.40055807086589" lon="9.909090225292363"><ele>76.6</ele><time>2026-05-03T08:56:57Z</time></trkpt><trkpt lat="45.4005528711482" lon="9.909236202878287"><ele>77.0</ele><time>2026-05-03T08:56:59Z</time></trkpt><trkpt lat="45.40056104066488" lon="9.90937027745789"><ele>77.5</ele><time>2026-05-03T08:57:01Z</time></trkpt><trkpt lat="45.4005679754649" lon="9.909492519921727"><ele>78.0</ele><time>2026-05-03T08:57:03Z</time></trkpt><trkpt lat="45.4005716470196" lon="9.909601274338195"><ele>78.5</ele><time>2026-05-03T08:57:05Z</time></trkpt><trkpt lat="45.40056866170436" lon="9.909713047104665"><ele>79.0</ele><time>2026-05-03T08:57:07Z</time></trkpt><trkpt lat="45.400571717624764" lon="9.909846689459695"><ele>79.5</ele><time>2026-05-03T08:57:09Z</time></trkpt><trkpt lat="45.40057336162921" lon="9.909992467987164"><ele>80.0</ele><time>2026-05-03T08:57:11Z</time></trkpt><trkpt lat="45.400576889790706" lon="9.910132430581884"><ele>80.0</ele><time>2026-05-03T08:57:13Z</time></trkpt><trkpt lat="45.400586708879" lon="9.91026526408993"><ele>80.0</ele><time>2026-05-03T08:57:14.999Z</time></trkpt><trkpt lat="45.400592739765166" lon="9.910404225327076"><ele>80.0</ele><time>2026-05-03T08:57:16.999Z</time></trkpt><trkpt lat="45.400599707384316" lon="9.910539103894807"><ele>80.0</ele><time>2026-05-03T08:57:18.999Z</time></trkpt><trkpt lat="45.40062255090135" lon="9.91066814125041"><ele>80.0</ele><time>2026-05-03T08:57:20.999Z</time></trkpt><trkpt lat="45.40065329567889" lon="9.910822036613242"><ele>79.6</ele><time>2026-05-03T08:57:22.999Z</time></trkpt><trkpt lat="45.400670974975" lon="9.91097549201261"><ele>79.2</ele><time>2026-05-03T08:57:24.999Z</time></trkpt><trkpt lat="45.40067799777796" lon="9.911129029612807"><ele>78.8</ele><time>2026-05-03T08:57:26.999Z</time></trkpt><trkpt lat="45.400684989995874" lon="9.911288680040858"><ele>78.4</ele><time>2026-05-03T08:57:28.999Z</time></trkpt><trkpt lat="45.40068835015618" lon="9.911448087086354"><ele>78.0</ele><time>2026-05-03T08:57:30.999Z</time></trkpt><trkpt lat="45.40069149059606" lon="9.91161099218748"><ele>78.2</ele><time>2026-05-03T08:57:32.999Z</time></trkpt><trkpt lat="45.400694498080256" lon="9.911769588540563"><ele>78.4</ele><time>2026-05-03T08:57:34.999Z</time></trkpt><trkpt lat="45.40070103298469" lon="9.911926959621148"><ele>78.60000000000001</ele><time>2026-05-03T08:57:36.999Z</time></trkpt><trkpt lat="45.40070370092873" lon="9.912085625117806"><ele>78.8</ele><time>2026-05-03T08:57:38.999Z</time></trkpt><trkpt lat="45.400710177176144" lon="9.912241560501876"><ele>79.0</ele><time>2026-05-03T08:57:40.999Z</time></trkpt><trkpt lat="45.40071548203662" lon="9.912392391004545"><ele>79.0</ele><time>2026-05-03T08:57:42.999Z</time></trkpt><trkpt lat="45.4007234542041" lon="9.912542153959505"><ele>79.0</ele><time>2026-05-03T08:57:45Z</time></trkpt><trkpt lat="45.40073059195522" lon="9.912667652723616"><ele>79.0</ele><time>2026-05-03T08:57:47Z</time></trkpt><trkpt lat="45.400735612024775" lon="9.912779763385043"><ele>79.0</ele><time>2026-05-03T08:57:49Z</time></trkpt><trkpt lat="45.40074201536695" lon="9.912888883332316"><ele>79.0</ele><time>2026-05-03T08:57:51Z</time></trkpt><trkpt lat="45.40074816472518" lon="9.913019748140107"><ele>79.0</ele><time>2026-05-03T08:57:53Z</time></trkpt><trkpt lat="45.40074714690374" lon="9.913142612450493"><ele>79.00000000000001</ele><time>2026-05-03T08:57:55Z</time></trkpt><trkpt lat="45.40074991498474" lon="9.913257348781688"><ele>79.0</ele><time>2026-05-03T08:57:57Z</time></trkpt><trkpt lat="45.40073037498541" lon="9.913343804439094"><ele>79.0</ele><time>2026-05-03T08:57:59Z</time></trkpt><trkpt lat="45.4006805078998" lon="9.913407866980112"><ele>79.0</ele><time>2026-05-03T08:58:01Z</time></trkpt><trkpt lat="45.40063836964073" lon="9.913477214815313"><ele>79.0</ele><time>2026-05-03T08:58:04Z</time></trkpt><trkpt lat="45.400638944671265" lon="9.913576837020695"><ele>79.00000000000001</ele><time>2026-05-03T08:58:06Z</time></trkpt><trkpt lat="45.40066686418378" lon="9.913661104440909"><ele>79.0</ele><time>2026-05-03T08:58:08Z</time></trkpt><trkpt lat="45.400737420327125" lon="9.913717153252135"><ele>79.0</ele><time>2026-05-03T08:58:10Z</time></trkpt><trkpt lat="45.400781749185" lon="9.913839547299887"><ele>79.0</ele><time>2026-05-03T08:58:12Z</time></trkpt><trkpt lat="45.4008043501081" lon="9.913994168662487"><ele>79.0</ele><time>2026-05-03T08:58:14Z</time></trkpt><trkpt lat="45.40080840442984" lon="9.91414219963814"><ele>79.0</ele><time>2026-05-03T08:58:16Z</time></trkpt><trkpt lat="45.40081188132112" lon="9.914283562934642"><ele>79.0</ele><time>2026-05-03T08:58:18Z</time></trkpt><trkpt lat="45.400817981438" lon="9.914439231686138"><ele>79.0</ele><time>2026-05-03T08:58:20Z</time></trkpt><trkpt lat="45.400819414276455" lon="9.914583158947307"><ele>79.0</ele><time>2026-05-03T08:58:22Z</time></trkpt><trkpt lat="45.40083305260797" lon="9.914731513422792"><ele>79.0</ele><time>2026-05-03T08:58:24Z</time></trkpt><trkpt lat="45.40083967724441" lon="9.914876894969431"><ele>79.0</ele><time>2026-05-03T08:58:26Z</time></trkpt><trkpt lat="45.40084718452173" lon="9.915010667330218"><ele>79.0</ele><time>2026-05-03T08:58:28Z</time></trkpt><trkpt lat="45.40084278228942" lon="9.91516057737025"><ele>79.0</ele><time>2026-05-03T08:58:30Z</time></trkpt><trkpt lat="45.40084079058109" lon="9.915324171518796"><ele>79.0</ele><time>2026-05-03T08:58:32Z</time></trkpt><trkpt lat="45.400845751991746" lon="9.915454970769211"><ele>79.0</ele><time>2026-05-03T08:58:34Z</time></trkpt><trkpt lat="45.40085319923445" lon="9.915608089736818"><ele>79.0</ele><time>2026-05-03T08:58:36Z</time></trkpt><trkpt lat="45.400862863550515" lon="9.915775314534507"><ele>79.0</ele><time>2026-05-03T08:58:38Z</time></trkpt><trkpt lat="45.40086745519784" lon="9.915936128986015"><ele>79.0</ele><time>2026-05-03T08:58:40Z</time></trkpt><trkpt lat="45.40087375839301" lon="9.91609823271448"><ele>79.0</ele><time>2026-05-03T08:58:42Z</time></trkpt><trkpt lat="45.40087704958636" lon="9.916265038819308"><ele>79.0</ele><time>2026-05-03T08:58:44Z</time></trkpt><trkpt lat="45.40088056101348" lon="9.916433197960185"><ele>79.0</ele><time>2026-05-03T08:58:46Z</time></trkpt><trkpt lat="45.40088943900062" lon="9.916587299009546"><ele>79.2</ele><time>2026-05-03T08:58:48Z</time></trkpt><trkpt lat="45.40089486191722" lon="9.916745119060694"><ele>79.4</ele><time>2026-05-03T08:58:50Z</time></trkpt><trkpt lat="45.40090540377498" lon="9.91689582889346"><ele>79.6</ele><time>2026-05-03T08:58:52Z</time></trkpt><trkpt lat="45.40091904549148" lon="9.917061855954177"><ele>79.8</ele><time>2026-05-03T08:58:54Z</time></trkpt><trkpt lat="45.40092350993046" lon="9.917219742645885"><ele>80.0</ele><time>2026-05-03T08:58:56Z</time></trkpt><trkpt lat="45.40093350098097" lon="9.91736713717369"><ele>80.0</ele><time>2026-05-03T08:58:58Z</time></trkpt><trkpt lat="45.4009384315118" lon="9.917507066743706"><ele>80.0</ele><time>2026-05-03T08:59:00Z</time></trkpt><trkpt lat="45.40094450417899" lon="9.917644996104526"><ele>80.0</ele><time>2026-05-03T08:59:02Z</time></trkpt><trkpt lat="45.40094713251909" lon="9.917789150972633"><ele>80.0</ele><time>2026-05-03T08:59:04Z</time></trkpt><trkpt lat="45.40095695131764" lon="9.917941584785144"><ele>80.0</ele><time>2026-05-03T08:59:06Z</time></trkpt><trkpt lat="45.40095643118479" lon="9.918098279172206"><ele>79.8</ele><time>2026-05-03T08:59:08Z</time></trkpt><trkpt lat="45.40095761472862" lon="9.918244138097409"><ele>79.6</ele><time>2026-05-03T08:59:10Z</time></trkpt><trkpt lat="45.40095141674276" lon="9.918394106513716"><ele>79.4</ele><time>2026-05-03T08:59:12Z</time></trkpt><trkpt lat="45.40094905373455" lon="9.918558058343427"><ele>79.2</ele><time>2026-05-03T08:59:14Z</time></trkpt><trkpt lat="45.40094533925722" lon="9.918690377273835"><ele>79.0</ele><time>2026-05-03T08:59:16Z</time></trkpt><trkpt lat="45.4009461505978" lon="9.918847481891643"><ele>79.0</ele><time>2026-05-03T08:59:18Z</time></trkpt><trkpt lat="45.40095554193439" lon="9.919005037262691"><ele>79.0</ele><time>2026-05-03T08:59:20Z</time></trkpt><trkpt lat="45.40095877223672" lon="9.919167258398955"><ele>79.0</ele><time>2026-05-03T08:59:22Z</time></trkpt><trkpt lat="45.40097854330585" lon="9.919312942282174"><ele>79.0</ele><time>2026-05-03T08:59:24Z</time></trkpt><trkpt lat="45.40098956663053" lon="9.919423451723905"><ele>79.0</ele><time>2026-05-03T08:59:25.999Z</time></trkpt><trkpt lat="45.401001641285085" lon="9.919525873740396"><ele>79.6</ele><time>2026-05-03T08:59:27.999Z</time></trkpt><trkpt lat="45.40103678227874" lon="9.919643604094562"><ele>80.2</ele><time>2026-05-03T08:59:29.999Z</time></trkpt><trkpt lat="45.40111393848922" lon="9.919666059688506"><ele>80.8</ele><time>2026-05-03T08:59:31.999Z</time></trkpt><trkpt lat="45.40122032643861" lon="9.91963631012751"><ele>81.39999999999999</ele><time>2026-05-03T08:59:33.999Z</time></trkpt><trkpt lat="45.40131352843721" lon="9.919581539094247"><ele>82.0</ele><time>2026-05-03T08:59:35.999Z</time></trkpt><trkpt lat="45.4013993916322" lon="9.91952964916027"><ele>82.39999999999999</ele><time>2026-05-03T08:59:37.999Z</time></trkpt><trkpt lat="45.401487601921616" lon="9.919562514008277"><ele>82.8</ele><time>2026-05-03T08:59:39.999Z</time></trkpt><trkpt lat="45.40149706091948" lon="9.919705720597888"><ele>83.2</ele><time>2026-05-03T08:59:41.999Z</time></trkpt><trkpt lat="45.401492716612914" lon="9.91987501471981"><ele>83.6</ele><time>2026-05-03T08:59:43.999Z</time></trkpt><trkpt lat="45.40149723802484" lon="9.92002828189906"><ele>84.0</ele><time>2026-05-03T08:59:45.999Z</time></trkpt><trkpt lat="45.40149994035298" lon="9.920146228708612"><ele>84.0</ele><time>2026-05-03T08:59:47.999Z</time></trkpt><trkpt lat="45.40151445833264" lon="9.920241316628294"><ele>84.0</ele><time>2026-05-03T08:59:48.999Z</time></trkpt><trkpt lat="45.40151892577521" lon="9.920393416285929"><ele>84.0</ele><time>2026-05-03T08:59:51Z</time></trkpt><trkpt lat="45.40151508640093" lon="9.92053152557481"><ele>84.0</ele><time>2026-05-03T08:59:53Z</time></trkpt><trkpt lat="45.40151781137464" lon="9.920681170297556"><ele>84.0</ele><time>2026-05-03T08:59:55Z</time></trkpt><trkpt lat="45.40152221576743" lon="9.920817494430095"><ele>84.0</ele><time>2026-05-03T08:59:57Z</time></trkpt><trkpt lat="45.401532159010806" lon="9.920965059331891"><ele>84.0</ele><time>2026-05-03T08:59:59Z</time></trkpt><trkpt lat="45.40153281752806" lon="9.921088321192833"><ele>84.0</ele><time>2026-05-03T09:00:01Z</time></trkpt><trkpt lat="45.40154114781367" lon="9.921226569564729"><ele>84.0</ele><time>2026-05-03T09:00:03Z</time></trkpt><trkpt lat="45.40153537264475" lon="9.92135051245853"><ele>84.0</ele><time>2026-05-03T09:00:05Z</time></trkpt><trkpt lat="45.40152719417824" lon="9.921466755803346"><ele>84.0</ele><time>2026-05-03T09:00:08Z</time></trkpt><trkpt lat="45.401575999897915" lon="9.921537934335314"><ele>84.0</ele><time>2026-05-03T09:00:12Z</time></trkpt><trkpt lat="45.401671922949156" lon="9.92153135094815"><ele>84.0</ele><time>2026-05-03T09:00:14Z</time></trkpt><trkpt lat="45.40177366210036" lon="9.921480024305717"><ele>84.0</ele><time>2026-05-03T09:00:16Z</time></trkpt><trkpt lat="45.401881475164046" lon="9.921486058460639"><ele>84.0</ele><time>2026-05-03T09:00:18Z</time></trkpt><trkpt lat="45.40199516773259" lon="9.921477718497533"><ele>84.0</ele><time>2026-05-03T09:00:20Z</time></trkpt><trkpt lat="45.402096266900806" lon="9.921476443902252"><ele>84.0</ele><time>2026-05-03T09:00:22Z</time></trkpt><trkpt lat="45.40219626149371" lon="9.921457165341938"><ele>84.0</ele><time>2026-05-03T09:00:24Z</time></trkpt><trkpt lat="45.40231411295099" lon="9.921445680031434"><ele>84.0</ele><time>2026-05-03T09:00:26Z</time></trkpt><trkpt lat="45.402425695175936" lon="9.921434234795825"><ele>84.0</ele><time>2026-05-03T09:00:28Z</time></trkpt><trkpt lat="45.40252580768521" lon="9.92145162737784"><ele>84.33333333333333</ele><time>2026-05-03T09:00:30Z</time></trkpt><trkpt lat="45.402623217776494" lon="9.921494784829488"><ele>84.66666666666667</ele><time>2026-05-03T09:00:32Z</time></trkpt><trkpt lat="45.40268337861381" lon="9.9215365857046"><ele>85.0</ele><time>2026-05-03T09:00:33Z</time></trkpt><trkpt lat="45.402741768378114" lon="9.921572802052655"><ele>85.33333333333334</ele><time>2026-05-03T09:00:34Z</time></trkpt><trkpt lat="45.40283557320386" lon="9.921620679043615"><ele>85.66666666666667</ele><time>2026-05-03T09:00:36Z</time></trkpt><trkpt lat="45.40292925108528" lon="9.921672294227411"><ele>86.0</ele><time>2026-05-03T09:00:38Z</time></trkpt><trkpt lat="45.40301484281574" lon="9.921701906161461"><ele>86.6</ele><time>2026-05-03T09:00:40Z</time></trkpt><trkpt lat="45.4031317936639" lon="9.921756750543606"><ele>87.19999999999999</ele><time>2026-05-03T09:00:42Z</time></trkpt><trkpt lat="45.40323672783242" lon="9.921816797832033"><ele>87.80000000000001</ele><time>2026-05-03T09:00:44Z</time></trkpt><trkpt lat="45.40333248615591" lon="9.921869694598533"><ele>88.4</ele><time>2026-05-03T09:00:46Z</time></trkpt><trkpt lat="45.40342117272989" lon="9.921937077949243"><ele>89.0</ele><time>2026-05-03T09:00:48Z</time></trkpt><trkpt lat="45.40349322693428" lon="9.92199558667659"><ele>89.0</ele><time>2026-05-03T09:00:50Z</time></trkpt><trkpt lat="45.4035852743454" lon="9.92208560810916"><ele>89.0</ele><time>2026-05-03T09:00:52Z</time></trkpt><trkpt lat="45.40368609126896" lon="9.922183396437692"><ele>89.0</ele><time>2026-05-03T09:00:54Z</time></trkpt><trkpt lat="45.40377913793746" lon="9.922267233595077"><ele>89.0</ele><time>2026-05-03T09:00:56Z</time></trkpt><trkpt lat="45.40384921315546" lon="9.92234267677306"><ele>89.0</ele><time>2026-05-03T09:00:58Z</time></trkpt><trkpt lat="45.40386217574768" lon="9.922488413147104"><ele>88.80000000000001</ele><time>2026-05-03T09:01:00Z</time></trkpt><trkpt lat="45.403846609377496" lon="9.922575784637838"><ele>88.60000000000001</ele><time>2026-05-03T09:01:01Z</time></trkpt><trkpt lat="45.40382601674998" lon="9.922735951565972"><ele>88.4</ele><time>2026-05-03T09:01:03Z</time></trkpt><trkpt lat="45.40379614435621" lon="9.922867726465107"><ele>88.2</ele><time>2026-05-03T09:01:05Z</time></trkpt><trkpt lat="45.40379728531969" lon="9.92299167632306"><ele>88.0</ele><time>2026-05-03T09:01:07Z</time></trkpt><trkpt lat="45.40379578044146" lon="9.923168190013106"><ele>88.0</ele><time>2026-05-03T09:01:09Z</time></trkpt><trkpt lat="45.403798757916" lon="9.923305289226743"><ele>88.0</ele><time>2026-05-03T09:01:11Z</time></trkpt><trkpt lat="45.40388206873463" lon="9.923396280649985"><ele>88.0</ele><time>2026-05-03T09:01:13Z</time></trkpt><trkpt lat="45.40400466859894" lon="9.923438102696622"><ele>88.0</ele><time>2026-05-03T09:01:15Z</time></trkpt><trkpt lat="45.4041066701658" lon="9.923461595847138"><ele>88.0</ele><time>2026-05-03T09:01:17Z</time></trkpt><trkpt lat="45.4041963404893" lon="9.923488468874151"><ele>87.83333333333333</ele><time>2026-05-03T09:01:19Z</time></trkpt><trkpt lat="45.404220873957854" lon="9.923587220470164"><ele>87.66666666666666</ele><time>2026-05-03T09:01:21Z</time></trkpt><trkpt lat="45.4041732887385" lon="9.923709561494361"><ele>87.5</ele><time>2026-05-03T09:01:23Z</time></trkpt><trkpt lat="45.40415640334609" lon="9.923806578486655"><ele>87.33333333333333</ele><time>2026-05-03T09:01:24Z</time></trkpt><trkpt lat="45.40412709345104" lon="9.923931515789395"><ele>87.16666666666667</ele><time>2026-05-03T09:01:26Z</time></trkpt><trkpt lat="45.4040934370061" lon="9.924033800871186"><ele>87.0</ele><time>2026-05-03T09:01:28Z</time></trkpt><trkpt lat="45.4040312812295" lon="9.924117978724063"><ele>86.83333333333333</ele><time>2026-05-03T09:01:30Z</time></trkpt><trkpt lat="45.404009079463435" lon="9.924251828877088"><ele>86.66666666666667</ele><time>2026-05-03T09:01:32Z</time></trkpt><trkpt lat="45.40399546712144" lon="9.924378569353395"><ele>86.5</ele><time>2026-05-03T09:01:34Z</time></trkpt><trkpt lat="45.403975267331774" lon="9.924493624969807"><ele>86.33333333333334</ele><time>2026-05-03T09:01:36Z</time></trkpt><trkpt lat="45.40395410840495" lon="9.924592691527433"><ele>86.16666666666667</ele><time>2026-05-03T09:01:38Z</time></trkpt><trkpt lat="45.40392940730631" lon="9.924679793205009"><ele>86.0</ele><time>2026-05-03T09:01:39.999Z</time></trkpt><trkpt lat="45.40388838257967" lon="9.924802215200305"><ele>86.5</ele><time>2026-05-03T09:01:42.999Z</time></trkpt><trkpt lat="45.40381511330163" lon="9.924797815349876"><ele>87.0</ele><time>2026-05-03T09:01:46.999Z</time></trkpt><trkpt lat="45.40373384398133" lon="9.924723538775865"><ele>87.5</ele><time>2026-05-03T09:01:48.999Z</time></trkpt><trkpt lat="45.40364874114876" lon="9.924707835210507"><ele>88.0</ele><time>2026-05-03T09:01:50.999Z</time></trkpt><trkpt lat="45.403568807808256" lon="9.924700210618376"><ele>88.5</ele><time>2026-05-03T09:01:52.999Z</time></trkpt><trkpt lat="45.40349861099669" lon="9.92468750890884"><ele>89.0</ele><time>2026-05-03T09:01:54.999Z</time></trkpt><trkpt lat="45.403426045012445" lon="9.924661620254025"><ele>89.0</ele><time>2026-05-03T09:01:58Z</time></trkpt><trkpt lat="45.40334841623959" lon="9.924658249960421"><ele>89.0</ele><time>2026-05-03T09:02:02Z</time></trkpt><trkpt lat="45.40328764604157" lon="9.924684905254946"><ele>89.0</ele><time>2026-05-03T09:02:05Z</time></trkpt><trkpt lat="45.40337780473275" lon="9.924652216432534"><ele>89.0</ele><time>2026-05-03T09:02:26Z</time></trkpt><trkpt lat="45.40353274370046" lon="9.924683417015181"><ele>89.0</ele><time>2026-05-03T09:02:30Z</time></trkpt><trkpt lat="45.40361156196583" lon="9.924729894939432"><ele>89.0</ele><time>2026-05-03T09:02:32Z</time></trkpt><trkpt lat="45.403781821569495" lon="9.924736138671914"><ele>89.0</ele><time>2026-05-03T09:02:37Z</time></trkpt><trkpt lat="45.40383869018378" lon="9.924852634453629"><ele>89.0</ele><time>2026-05-03T09:02:39Z</time></trkpt><trkpt lat="45.40383886086663" lon="9.924953581937222"><ele>89.0</ele><time>2026-05-03T09:02:40Z</time></trkpt><trkpt lat="45.40384682062029" lon="9.925048316736753"><ele>89.0</ele><time>2026-05-03T09:02:41Z</time></trkpt><trkpt lat="45.40388049250656" lon="9.92520416017182"><ele>88.80000000000001</ele><time>2026-05-03T09:02:43Z</time></trkpt><trkpt lat="45.40393134937398" lon="9.925362369339515"><ele>88.60000000000001</ele><time>2026-05-03T09:02:45Z</time></trkpt><trkpt lat="45.4040048023766" lon="9.925478472799709"><ele>88.4</ele><time>2026-05-03T09:02:47Z</time></trkpt><trkpt lat="45.40406214272495" lon="9.92557223820577"><ele>88.2</ele><time>2026-05-03T09:02:49Z</time></trkpt><trkpt lat="45.404039899223775" lon="9.925737020506896"><ele>88.0</ele><time>2026-05-03T09:02:51Z</time></trkpt><trkpt lat="45.40401284850315" lon="9.92590777468985"><ele>88.0</ele><time>2026-05-03T09:02:53Z</time></trkpt><trkpt lat="45.40400382014628" lon="9.926056525330036"><ele>88.0</ele><time>2026-05-03T09:02:55Z</time></trkpt><trkpt lat="45.40396990043883" lon="9.926181119241383"><ele>88.0</ele><time>2026-05-03T09:02:57Z</time></trkpt><trkpt lat="45.403965514492135" lon="9.926270645736778"><ele>88.0</ele><time>2026-05-03T09:02:58Z</time></trkpt><trkpt lat="45.403942772603685" lon="9.926422368577612"><ele>88.0</ele><time>2026-05-03T09:03:00Z</time></trkpt><trkpt lat="45.403922953809996" lon="9.926566096938446"><ele>88.0</ele><time>2026-05-03T09:03:02Z</time></trkpt><trkpt lat="45.40390274571332" lon="9.926692828349227"><ele>88.0</ele><time>2026-05-03T09:03:04Z</time></trkpt><trkpt lat="45.40387039241313" lon="9.926800395591224"><ele>88.0</ele><time>2026-05-03T09:03:06Z</time></trkpt><trkpt lat="45.40381029190464" lon="9.926884105117903"><ele>88.0</ele><time>2026-05-03T09:03:08Z</time></trkpt><trkpt lat="45.40370450382485" lon="9.92689625429977"><ele>88.0</ele><time>2026-05-03T09:03:10Z</time></trkpt><trkpt lat="45.40358982442655" lon="9.926858361159601"><ele>87.4</ele><time>2026-05-03T09:03:12Z</time></trkpt><trkpt lat="45.40346584103078" lon="9.926834198998824"><ele>86.80000000000001</ele><time>2026-05-03T09:03:14Z</time></trkpt><trkpt lat="45.40335459327899" lon="9.92682601403958"><ele>86.2</ele><time>2026-05-03T09:03:16Z</time></trkpt><trkpt lat="45.40324843359858" lon="9.926808394014516"><ele>85.6</ele><time>2026-05-03T09:03:18Z</time></trkpt><trkpt lat="45.40314696058312" lon="9.926793141554912"><ele>85.0</ele><time>2026-05-03T09:03:20Z</time></trkpt><trkpt lat="45.40306694047513" lon="9.926775746151526"><ele>85.0</ele><time>2026-05-03T09:03:22Z</time></trkpt><trkpt lat="45.403025217933255" lon="9.926705739021044"><ele>85.0</ele><time>2026-05-03T09:03:33Z</time></trkpt><trkpt lat="45.40297801391952" lon="9.926770377763399"><ele>85.0</ele><time>2026-05-03T09:04:12Z</time></trkpt><trkpt lat="45.4029056244231" lon="9.926772478817083"><ele>85.0</ele><time>2026-05-03T09:04:14Z</time></trkpt><trkpt lat="45.40281857058482" lon="9.92675150857469"><ele>85.0</ele><time>2026-05-03T09:04:16Z</time></trkpt><trkpt lat="45.402716458904" lon="9.926731822880097"><ele>85.0</ele><time>2026-05-03T09:04:18Z</time></trkpt><trkpt lat="45.40260420354984" lon="9.926703925097524"><ele>85.0</ele><time>2026-05-03T09:04:20Z</time></trkpt><trkpt lat="45.40248838463453" lon="9.926670266306244"><ele>85.0</ele><time>2026-05-03T09:04:22Z</time></trkpt><trkpt lat="45.40238743909266" lon="9.926632820495346"><ele>85.0</ele><time>2026-05-03T09:04:24Z</time></trkpt><trkpt lat="45.40228896934272" lon="9.926614574140267"><ele>85.0</ele><time>2026-05-03T09:04:26Z</time></trkpt><trkpt lat="45.40220709973449" lon="9.926609384431181"><ele>85.0</ele><time>2026-05-03T09:04:28Z</time></trkpt><trkpt lat="45.40212678397226" lon="9.92661268256808"><ele>85.4</ele><time>2026-05-03T09:04:30Z</time></trkpt><trkpt lat="45.40203347267191" lon="9.926617821624244"><ele>85.8</ele><time>2026-05-03T09:04:32Z</time></trkpt><trkpt lat="45.40191188285786" lon="9.926584978613231"><ele>86.19999999999999</ele><time>2026-05-03T09:04:34Z</time></trkpt><trkpt lat="45.401796696303435" lon="9.926550406349142"><ele>86.6</ele><time>2026-05-03T09:04:36Z</time></trkpt><trkpt lat="45.401695476285056" lon="9.926539598714134"><ele>87.0</ele><time>2026-05-03T09:04:38Z</time></trkpt><trkpt lat="45.40160879221903" lon="9.926514871166129"><ele>87.0</ele><time>2026-05-03T09:04:40Z</time></trkpt><trkpt lat="45.401536506635104" lon="9.92649391928129"><ele>87.0</ele><time>2026-05-03T09:04:42Z</time></trkpt><trkpt lat="45.40146817922236" lon="9.926451652427792"><ele>87.0</ele><time>2026-05-03T09:04:44Z</time></trkpt><trkpt lat="45.40134763027051" lon="9.926465825571832"><ele>87.0</ele><time>2026-05-03T09:04:46Z</time></trkpt><trkpt lat="45.40125613249982" lon="9.926556636839985"><ele>87.0</ele><time>2026-05-03T09:04:48Z</time></trkpt><trkpt lat="45.40121547611285" lon="9.926694701320743"><ele>86.6</ele><time>2026-05-03T09:04:50Z</time></trkpt><trkpt lat="45.40119847513587" lon="9.926842240383273"><ele>86.19999999999999</ele><time>2026-05-03T09:04:52Z</time></trkpt><trkpt lat="45.40113584273242" lon="9.927002109463071"><ele>85.8</ele><time>2026-05-03T09:04:54Z</time></trkpt><trkpt lat="45.40117975812393" lon="9.927097525154567"><ele>85.4</ele><time>2026-05-03T09:04:55Z</time></trkpt><trkpt lat="45.40115233759285" lon="9.927259969678959"><ele>85.0</ele><time>2026-05-03T09:04:57Z</time></trkpt><trkpt lat="45.401148456510406" lon="9.927350258041923"><ele>85.0</ele><time>2026-05-03T09:04:58Z</time></trkpt><trkpt lat="45.401125176903605" lon="9.927513691847341"><ele>85.0</ele><time>2026-05-03T09:05:00Z</time></trkpt><trkpt lat="45.40112551572422" lon="9.927649108468739"><ele>85.0</ele><time>2026-05-03T09:05:02Z</time></trkpt><trkpt lat="45.40109719258311" lon="9.927738518145185"><ele>85.0</ele><time>2026-05-03T09:05:04Z</time></trkpt><trkpt lat="45.40108071444552" lon="9.927849795108404"><ele>85.0</ele><time>2026-05-03T09:05:06Z</time></trkpt><trkpt lat="45.40105866553098" lon="9.927959904591166"><ele>85.0</ele><time>2026-05-03T09:05:08Z</time></trkpt><trkpt lat="45.40107014307146" lon="9.928067768347507"><ele>85.0</ele><time>2026-05-03T09:05:10Z</time></trkpt><trkpt lat="45.4010574284925" lon="9.92817101241012"><ele>85.0</ele><time>2026-05-03T09:05:30Z</time></trkpt><trkpt lat="45.40102351297938" lon="9.92829446125819"><ele>85.0</ele><time>2026-05-03T09:05:33Z</time></trkpt><trkpt lat="45.40100086868155" lon="9.928391883000119"><ele>85.0</ele><time>2026-05-03T09:05:35Z</time></trkpt><trkpt lat="45.40098198731234" lon="9.928513501549943"><ele>85.0</ele><time>2026-05-03T09:05:37Z</time></trkpt><trkpt lat="45.40096584294017" lon="9.92865418890711"><ele>85.0</ele><time>2026-05-03T09:05:39Z</time></trkpt><trkpt lat="45.40095228909655" lon="9.92878199504291"><ele>84.6</ele><time>2026-05-03T09:05:41Z</time></trkpt><trkpt lat="45.40093299535495" lon="9.928933094812852"><ele>84.2</ele><time>2026-05-03T09:05:43Z</time></trkpt><trkpt lat="45.4009125736831" lon="9.929093487653823"><ele>83.80000000000001</ele><time>2026-05-03T09:05:45Z</time></trkpt><trkpt lat="45.40090003945301" lon="9.929228988202473"><ele>83.4</ele><time>2026-05-03T09:05:46.999Z</time></trkpt><trkpt lat="45.400891372246775" lon="9.929350090624043"><ele>83.0</ele><time>2026-05-03T09:05:48.999Z</time></trkpt><trkpt lat="45.4008792746058" lon="9.929497909618844"><ele>83.0</ele><time>2026-05-03T09:05:50.999Z</time></trkpt><trkpt lat="45.400865188640786" lon="9.929585443266296"><ele>83.0</ele><time>2026-05-03T09:05:51.999Z</time></trkpt><trkpt lat="45.40084597028221" lon="9.929751168194462"><ele>83.0</ele><time>2026-05-03T09:05:53.999Z</time></trkpt><trkpt lat="45.40083561432101" lon="9.929840699393198"><ele>83.0</ele><time>2026-05-03T09:05:54.999Z</time></trkpt><trkpt lat="45.40081849920525" lon="9.930001526820746"><ele>83.0</ele><time>2026-05-03T09:05:56.999Z</time></trkpt><trkpt lat="45.400801280787945" lon="9.93014326703777"><ele>83.25</ele><time>2026-05-03T09:05:58.999Z</time></trkpt><trkpt lat="45.40078635951083" lon="9.930300733710455"><ele>83.5</ele><time>2026-05-03T09:06:00.999Z</time></trkpt><trkpt lat="45.400774570181625" lon="9.930446420170483"><ele>83.75</ele><time>2026-05-03T09:06:02.999Z</time></trkpt><trkpt lat="45.40076018747542" lon="9.930615787911245"><ele>84.0</ele><time>2026-05-03T09:06:04.999Z</time></trkpt><trkpt lat="45.40074384353011" lon="9.930788222481338"><ele>84.0</ele><time>2026-05-03T09:06:06.999Z</time></trkpt><trkpt lat="45.4007378202913" lon="9.930878395987335"><ele>84.0</ele><time>2026-05-03T09:06:08Z</time></trkpt><trkpt lat="45.40072603318199" lon="9.930967589439467"><ele>84.0</ele><time>2026-05-03T09:06:09Z</time></trkpt><trkpt lat="45.40071810791413" lon="9.93105911900637"><ele>84.0</ele><time>2026-05-03T09:06:10Z</time></trkpt><trkpt lat="45.40071259055885" lon="9.931153247359333"><ele>84.0</ele><time>2026-05-03T09:06:11Z</time></trkpt><trkpt lat="45.40070829636829" lon="9.931246477851042"><ele>84.0</ele><time>2026-05-03T09:06:12Z</time></trkpt><trkpt lat="45.4007008639674" lon="9.931336366085372"><ele>84.0</ele><time>2026-05-03T09:06:13Z</time></trkpt><trkpt lat="45.40069317351449" lon="9.93142723839626"><ele>84.0</ele><time>2026-05-03T09:06:14Z</time></trkpt><trkpt lat="45.40068430853613" lon="9.931518721552015"><ele>84.0</ele><time>2026-05-03T09:06:15Z</time></trkpt><trkpt lat="45.400662503434624" lon="9.931686264924155"><ele>84.0</ele><time>2026-05-03T09:06:17Z</time></trkpt><trkpt lat="45.40065898837994" lon="9.931786018204305"><ele>84.0</ele><time>2026-05-03T09:06:18Z</time></trkpt><trkpt lat="45.40065339115542" lon="9.93194863186072"><ele>84.0</ele><time>2026-05-03T09:06:20Z</time></trkpt><trkpt lat="45.40064268968436" lon="9.932038345652197"><ele>84.0</ele><time>2026-05-03T09:06:21Z</time></trkpt><trkpt lat="45.40062423662011" lon="9.932201843418177"><ele>84.0</ele><time>2026-05-03T09:06:23Z</time></trkpt><trkpt lat="45.40059975371156" lon="9.932352517114616"><ele>84.0</ele><time>2026-05-03T09:06:25Z</time></trkpt><trkpt lat="45.40058057621484" lon="9.932478572060207"><ele>84.0</ele><time>2026-05-03T09:06:27Z</time></trkpt><trkpt lat="45.40056035145618" lon="9.932597283278142"><ele>84.0</ele><time>2026-05-03T09:06:29Z</time></trkpt><trkpt lat="45.40055009787343" lon="9.932735778939579"><ele>84.0</ele><time>2026-05-03T09:06:31Z</time></trkpt><trkpt lat="45.40055193659471" lon="9.932900522375684"><ele>84.0</ele><time>2026-05-03T09:06:33Z</time></trkpt><trkpt lat="45.40053251817128" lon="9.9330535205565"><ele>84.0</ele><time>2026-05-03T09:06:35Z</time></trkpt><trkpt lat="45.40051503765065" lon="9.933207310362226"><ele>84.0</ele><time>2026-05-03T09:06:37Z</time></trkpt><trkpt lat="45.40050382893546" lon="9.933380710839177"><ele>84.0</ele><time>2026-05-03T09:06:39Z</time></trkpt><trkpt lat="45.40048515244051" lon="9.933549352769603"><ele>84.0</ele><time>2026-05-03T09:06:41Z</time></trkpt><trkpt lat="45.40046144615329" lon="9.933683896977277"><ele>84.0</ele><time>2026-05-03T09:06:43Z</time></trkpt><trkpt lat="45.40044323519389" lon="9.933818491900338"><ele>84.0</ele><time>2026-05-03T09:06:45Z</time></trkpt><trkpt lat="45.40042287679717" lon="9.933944992129645"><ele>84.0</ele><time>2026-05-03T09:06:47Z</time></trkpt><trkpt lat="45.40041610160679" lon="9.934065427275222"><ele>84.0</ele><time>2026-05-03T09:06:49Z</time></trkpt><trkpt lat="45.40045532318406" lon="9.934160345801633"><ele>84.0</ele><time>2026-05-03T09:06:51Z</time></trkpt><trkpt lat="45.40052956601929" lon="9.934200188933374"><ele>84.16666666666667</ele><time>2026-05-03T09:06:53Z</time></trkpt><trkpt lat="45.40062207871289" lon="9.934217150963457"><ele>84.33333333333333</ele><time>2026-05-03T09:06:55Z</time></trkpt><trkpt lat="45.40071178846094" lon="9.93420184426773"><ele>84.5</ele><time>2026-05-03T09:06:57Z</time></trkpt><trkpt lat="45.40079392987651" lon="9.934173997292604"><ele>84.66666666666666</ele><time>2026-05-03T09:06:59Z</time></trkpt><trkpt lat="45.400851103623715" lon="9.934134029810618"><ele>84.83333333333333</ele><time>2026-05-03T09:07:01Z</time></trkpt><trkpt lat="45.40093595348677" lon="9.934134013957676"><ele>85.0</ele><time>2026-05-03T09:07:04Z</time></trkpt><trkpt lat="45.4010176948337" lon="9.934146665894332"><ele>85.0</ele><time>2026-05-03T09:07:07Z</time></trkpt><trkpt lat="45.401102244693405" lon="9.934102928922057"><ele>85.0</ele><time>2026-05-03T09:07:11Z</time></trkpt><trkpt lat="45.40114197507797" lon="9.934011839345123"><ele>85.0</ele><time>2026-05-03T09:07:14Z</time></trkpt><trkpt lat="45.401176708903805" lon="9.933916200420056"><ele>85.0</ele><time>2026-05-03T09:07:17Z</time></trkpt><trkpt lat="45.4012081083361" lon="9.933835627280372"><ele>85.0</ele><time>2026-05-03T09:07:20Z</time></trkpt><trkpt lat="45.40123467737771" lon="9.933732434448665"><ele>85.0</ele><time>2026-05-03T09:07:23Z</time></trkpt><trkpt lat="45.40123793687425" lon="9.933834167324017"><ele>85.0</ele><time>2026-05-03T09:07:34Z</time></trkpt><trkpt lat="45.40122467486462" lon="9.933922411584781"><ele>85.0</ele><time>2026-05-03T09:07:41.999Z</time></trkpt></trkseg></trk></gpx>